<?xml version='1.0' encoding='UTF-8'?><gpx version="1.1" creator="JPX - https://github.com/jenetics/jpx" xmlns="http://www.topografix.com/GPX/1/1"><trk><trkseg><trkpt lat="40.1652564" lon="9.6239015"><ele>57.0</ele><time>2026-04-22T06:47:48.701Z</time></trkpt><trkpt lat="40.1652079" lon="9.6238368"><ele>57.0</ele><time>2026-04-22T06:47:51.696Z</time></trkpt><trkpt lat="40.1651577" lon="9.6237699"><ele>57.0</ele><time>2026-04-22T06:47:52.688Z</time></trkpt><trkpt lat="40.1650727" lon="9.6237072"><ele>57.0</ele><time>2026-04-22T06:47:53.691Z</time></trkpt><trkpt lat="40.1649787" lon="9.6236518"><ele>57.0</ele><time>2026-04-22T06:47:54.686Z</time></trkpt><trkpt lat="40.164879" lon="9.6236169"><ele>57.0</ele><time>2026-04-22T06:47:55.686Z</time></trkpt><trkpt lat="40.1647917" lon="9.6236049"><ele>55.285714285714285</ele><time>2026-04-22T06:47:56.688Z</time></trkpt><trkpt lat="40.1647218" lon="9.6235995"><ele>53.57142857142857</ele><time>2026-04-22T06:47:57.686Z</time></trkpt><trkpt lat="40.1646491" lon="9.6236056"><ele>51.857142857142854</ele><time>2026-04-22T06:47:58.684Z</time></trkpt><trkpt lat="40.1645798" lon="9.6236051"><ele>50.14285714285714</ele><time>2026-04-22T06:47:59.684Z</time></trkpt><trkpt lat="40.1644995" lon="9.6235912"><ele>48.42857142857143</ele><time>2026-04-22T06:48:00.68Z</time></trkpt><trkpt lat="40.1644279" lon="9.6235655"><ele>46.71428571428571</ele><time>2026-04-22T06:48:01.68Z</time></trkpt><trkpt lat="40.1643607" lon="9.6235294"><ele>45.0</ele><time>2026-04-22T06:48:02.68Z</time></trkpt><trkpt lat="40.1642959" lon="9.623475"><ele>45.0</ele><time>2026-04-22T06:48:03.681Z</time></trkpt><trkpt lat="40.1642194" lon="9.6233771"><ele>45.0</ele><time>2026-04-22T06:48:05.684Z</time></trkpt><trkpt lat="40.1641177" lon="9.6233615"><ele>45.0</ele><time>2026-04-22T06:48:07.683Z</time></trkpt><trkpt lat="40.1640447" lon="9.6233492"><ele>45.0</ele><time>2026-04-22T06:48:08.68Z</time></trkpt><trkpt lat="40.1639717" lon="9.6233404"><ele>45.0</ele><time>2026-04-22T06:48:09.686Z</time></trkpt><trkpt lat="40.1638957" lon="9.6233412"><ele>45.0</ele><time>2026-04-22T06:48:10.679Z</time></trkpt><trkpt lat="40.1638269" lon="9.6233434"><ele>46.75</ele><time>2026-04-22T06:48:11.68Z</time></trkpt><trkpt lat="40.1637075" lon="9.6233132"><ele>48.5</ele><time>2026-04-22T06:48:13.696Z</time></trkpt><trkpt lat="40.1636119" lon="9.6233081"><ele>50.25</ele><time>2026-04-22T06:48:15.682Z</time></trkpt><trkpt lat="40.1635139" lon="9.6233844"><ele>52.0</ele><time>2026-04-22T06:48:17.677Z</time></trkpt><trkpt lat="40.1634499" lon="9.6235235"><ele>52.0</ele><time>2026-04-22T06:48:19.677Z</time></trkpt><trkpt lat="40.1633655" lon="9.6236249"><ele>52.0</ele><time>2026-04-22T06:48:21.673Z</time></trkpt><trkpt lat="40.163311" lon="9.6236741"><ele>52.0</ele><time>2026-04-22T06:48:22.68Z</time></trkpt><trkpt lat="40.1632577" lon="9.6237339"><ele>52.0</ele><time>2026-04-22T06:48:23.679Z</time></trkpt><trkpt lat="40.1631798" lon="9.6238321"><ele>52.0</ele><time>2026-04-22T06:48:25.677Z</time></trkpt><trkpt lat="40.1631449" lon="9.6239963"><ele>52.83333333333333</ele><time>2026-04-22T06:48:27.681Z</time></trkpt><trkpt lat="40.1630898" lon="9.6241215"><ele>53.666666666666664</ele><time>2026-04-22T06:48:29.682Z</time></trkpt><trkpt lat="40.1630312" lon="9.6241614"><ele>54.5</ele><time>2026-04-22T06:48:30.68Z</time></trkpt><trkpt lat="40.1629649" lon="9.6241798"><ele>55.33333333333333</ele><time>2026-04-22T06:48:31.685Z</time></trkpt><trkpt lat="40.162891" lon="9.6241738"><ele>56.166666666666664</ele><time>2026-04-22T06:48:32.683Z</time></trkpt><trkpt lat="40.1628128" lon="9.6241755"><ele>57.0</ele><time>2026-04-22T06:48:33.682Z</time></trkpt><trkpt lat="40.1627429" lon="9.6241817"><ele>57.0</ele><time>2026-04-22T06:48:34.675Z</time></trkpt><trkpt lat="40.1626643" lon="9.6242106"><ele>57.0</ele><time>2026-04-22T06:48:35.682Z</time></trkpt><trkpt lat="40.1625982" lon="9.6242543"><ele>57.0</ele><time>2026-04-22T06:48:36.679Z</time></trkpt><trkpt lat="40.1625455" lon="9.6243087"><ele>57.0</ele><time>2026-04-22T06:48:37.687Z</time></trkpt><trkpt lat="40.1624913" lon="9.6243818"><ele>57.0</ele><time>2026-04-22T06:48:38.686Z</time></trkpt><trkpt lat="40.1624428" lon="9.6244548"><ele>57.0</ele><time>2026-04-22T06:48:39.681Z</time></trkpt><trkpt lat="40.1623853" lon="9.6245327"><ele>58.57142857142857</ele><time>2026-04-22T06:48:40.678Z</time></trkpt><trkpt lat="40.162326" lon="9.6246107"><ele>60.14285714285714</ele><time>2026-04-22T06:48:41.684Z</time></trkpt><trkpt lat="40.1622832" lon="9.6246831"><ele>61.71428571428571</ele><time>2026-04-22T06:48:42.678Z</time></trkpt><trkpt lat="40.1622284" lon="9.6247606"><ele>63.28571428571428</ele><time>2026-04-22T06:48:43.686Z</time></trkpt><trkpt lat="40.1621842" lon="9.6248259"><ele>64.85714285714286</ele><time>2026-04-22T06:48:44.685Z</time></trkpt><trkpt lat="40.1621466" lon="9.624892"><ele>66.42857142857142</ele><time>2026-04-22T06:48:45.678Z</time></trkpt><trkpt lat="40.1621061" lon="9.6249581"><ele>68.0</ele><time>2026-04-22T06:48:46.673Z</time></trkpt><trkpt lat="40.1620073" lon="9.6250526"><ele>68.0</ele><time>2026-04-22T06:48:48.673Z</time></trkpt><trkpt lat="40.1619452" lon="9.625109"><ele>68.0</ele><time>2026-04-22T06:48:49.672Z</time></trkpt><trkpt lat="40.161847" lon="9.6252124"><ele>68.0</ele><time>2026-04-22T06:48:51.668Z</time></trkpt><trkpt lat="40.1617834" lon="9.6252556"><ele>68.0</ele><time>2026-04-22T06:48:52.674Z</time></trkpt><trkpt lat="40.1616875" lon="9.6253294"><ele>68.0</ele><time>2026-04-22T06:48:54.671Z</time></trkpt><trkpt lat="40.1615955" lon="9.6254531"><ele>68.83333333333334</ele><time>2026-04-22T06:48:56.665Z</time></trkpt><trkpt lat="40.1614862" lon="9.6255447"><ele>69.66666666666667</ele><time>2026-04-22T06:48:58.662Z</time></trkpt><trkpt lat="40.1614168" lon="9.6255884"><ele>70.5</ele><time>2026-04-22T06:48:59.658Z</time></trkpt><trkpt lat="40.1613587" lon="9.6256518"><ele>71.33333333333333</ele><time>2026-04-22T06:49:00.669Z</time></trkpt><trkpt lat="40.161306" lon="9.6257186"><ele>72.16666666666666</ele><time>2026-04-22T06:49:01.671Z</time></trkpt><trkpt lat="40.1612509" lon="9.6257713"><ele>73.0</ele><time>2026-04-22T06:49:02.666Z</time></trkpt><trkpt lat="40.161195" lon="9.6258198"><ele>73.0</ele><time>2026-04-22T06:49:03.673Z</time></trkpt><trkpt lat="40.1611354" lon="9.6258637"><ele>73.0</ele><time>2026-04-22T06:49:04.674Z</time></trkpt><trkpt lat="40.1610296" lon="9.6259334"><ele>73.0</ele><time>2026-04-22T06:49:06.678Z</time></trkpt><trkpt lat="40.1609228" lon="9.6260349"><ele>73.0</ele><time>2026-04-22T06:49:08.679Z</time></trkpt><trkpt lat="40.1608673" lon="9.6261087"><ele>73.0</ele><time>2026-04-22T06:49:09.678Z</time></trkpt><trkpt lat="40.1608112" lon="9.6261619"><ele>76.5</ele><time>2026-04-22T06:49:10.677Z</time></trkpt><trkpt lat="40.1607232" lon="9.6262606"><ele>80.0</ele><time>2026-04-22T06:49:12.669Z</time></trkpt><trkpt lat="40.1606539" lon="9.62636"><ele>83.5</ele><time>2026-04-22T06:49:14.674Z</time></trkpt><trkpt lat="40.1606504" lon="9.6264465"><ele>87.0</ele><time>2026-04-22T06:49:15.687Z</time></trkpt><trkpt lat="40.1606515" lon="9.6265397"><ele>90.5</ele><time>2026-04-22T06:49:16.674Z</time></trkpt><trkpt lat="40.1606094" lon="9.626613"><ele>94.0</ele><time>2026-04-22T06:49:17.672Z</time></trkpt><trkpt lat="40.16056" lon="9.6267043"><ele>94.33333333333333</ele><time>2026-04-22T06:49:18.672Z</time></trkpt><trkpt lat="40.1605012" lon="9.6267692"><ele>94.66666666666666</ele><time>2026-04-22T06:49:19.677Z</time></trkpt><trkpt lat="40.1604352" lon="9.6268145"><ele>95.0</ele><time>2026-04-22T06:49:20.68Z</time></trkpt><trkpt lat="40.1603748" lon="9.6268606"><ele>95.33333333333333</ele><time>2026-04-22T06:49:21.681Z</time></trkpt><trkpt lat="40.1602547" lon="9.6269118"><ele>95.66666666666667</ele><time>2026-04-22T06:49:23.673Z</time></trkpt><trkpt lat="40.1601848" lon="9.6269173"><ele>96.0</ele><time>2026-04-22T06:49:24.67Z</time></trkpt><trkpt lat="40.1601175" lon="9.6269253"><ele>96.0</ele><time>2026-04-22T06:49:25.678Z</time></trkpt><trkpt lat="40.1600134" lon="9.6269629"><ele>96.0</ele><time>2026-04-22T06:49:27.674Z</time></trkpt><trkpt lat="40.1599026" lon="9.6269779"><ele>96.0</ele><time>2026-04-22T06:49:29.674Z</time></trkpt><trkpt lat="40.1597868" lon="9.6270498"><ele>96.0</ele><time>2026-04-22T06:49:31.673Z</time></trkpt><trkpt lat="40.1597182" lon="9.6270885"><ele>96.0</ele><time>2026-04-22T06:49:32.675Z</time></trkpt><trkpt lat="40.1596486" lon="9.6271197"><ele>94.83333333333333</ele><time>2026-04-22T06:49:33.675Z</time></trkpt><trkpt lat="40.15957" lon="9.6271348"><ele>93.66666666666667</ele><time>2026-04-22T06:49:34.672Z</time></trkpt><trkpt lat="40.1594916" lon="9.6271362"><ele>92.5</ele><time>2026-04-22T06:49:35.675Z</time></trkpt><trkpt lat="40.1594218" lon="9.6271435"><ele>91.33333333333334</ele><time>2026-04-22T06:49:36.677Z</time></trkpt><trkpt lat="40.1593431" lon="9.6271436"><ele>90.16666666666667</ele><time>2026-04-22T06:49:37.679Z</time></trkpt><trkpt lat="40.159273" lon="9.6271301"><ele>89.0</ele><time>2026-04-22T06:49:38.682Z</time></trkpt><trkpt lat="40.1592007" lon="9.6271074"><ele>88.99999999999999</ele><time>2026-04-22T06:49:39.679Z</time></trkpt><trkpt lat="40.1591313" lon="9.6270909"><ele>89.0</ele><time>2026-04-22T06:49:40.677Z</time></trkpt><trkpt lat="40.1590668" lon="9.6270868"><ele>89.0</ele><time>2026-04-22T06:49:41.675Z</time></trkpt><trkpt lat="40.1589952" lon="9.6270976"><ele>89.0</ele><time>2026-04-22T06:49:42.677Z</time></trkpt><trkpt lat="40.1589234" lon="9.6271155"><ele>89.0</ele><time>2026-04-22T06:49:43.687Z</time></trkpt><trkpt lat="40.1588491" lon="9.6271505"><ele>88.99999999999999</ele><time>2026-04-22T06:49:44.678Z</time></trkpt><trkpt lat="40.1587769" lon="9.6271879"><ele>89.0</ele><time>2026-04-22T06:49:45.687Z</time></trkpt><trkpt lat="40.1586805" lon="9.6272542"><ele>88.16666666666667</ele><time>2026-04-22T06:49:47.685Z</time></trkpt><trkpt lat="40.1585987" lon="9.62739"><ele>87.33333333333334</ele><time>2026-04-22T06:49:49.684Z</time></trkpt><trkpt lat="40.1585814" lon="9.6274824"><ele>86.5</ele><time>2026-04-22T06:49:50.685Z</time></trkpt><trkpt lat="40.1585515" lon="9.6275928"><ele>85.66666666666667</ele><time>2026-04-22T06:49:51.688Z</time></trkpt><trkpt lat="40.1585298" lon="9.6276988"><ele>84.83333333333333</ele><time>2026-04-22T06:49:52.684Z</time></trkpt><trkpt lat="40.1585088" lon="9.6277769"><ele>84.0</ele><time>2026-04-22T06:49:53.686Z</time></trkpt><trkpt lat="40.1584625" lon="9.6279066"><ele>84.0</ele><time>2026-04-22T06:49:55.688Z</time></trkpt><trkpt lat="40.1583845" lon="9.6280032"><ele>84.0</ele><time>2026-04-22T06:49:57.693Z</time></trkpt><trkpt lat="40.1583053" lon="9.6281036"><ele>84.0</ele><time>2026-04-22T06:49:59.699Z</time></trkpt><trkpt lat="40.158278" lon="9.628179"><ele>84.0</ele><time>2026-04-22T06:50:00.688Z</time></trkpt><trkpt lat="40.1582594" lon="9.6282728"><ele>84.0</ele><time>2026-04-22T06:50:01.688Z</time></trkpt><trkpt lat="40.1582396" lon="9.6283632"><ele>84.0</ele><time>2026-04-22T06:50:02.691Z</time></trkpt><trkpt lat="40.1582002" lon="9.6284294"><ele>84.33333333333333</ele><time>2026-04-22T06:50:03.69Z</time></trkpt><trkpt lat="40.1581927" lon="9.6285832"><ele>84.66666666666667</ele><time>2026-04-22T06:50:05.685Z</time></trkpt><trkpt lat="40.1581836" lon="9.6286772"><ele>85.0</ele><time>2026-04-22T06:50:06.693Z</time></trkpt><trkpt lat="40.1582122" lon="9.6287777"><ele>85.33333333333334</ele><time>2026-04-22T06:50:07.689Z</time></trkpt><trkpt lat="40.1582409" lon="9.6288797"><ele>85.66666666666667</ele><time>2026-04-22T06:50:08.694Z</time></trkpt><trkpt lat="40.1582643" lon="9.6289685"><ele>86.0</ele><time>2026-04-22T06:50:09.706Z</time></trkpt><trkpt lat="40.1582482" lon="9.6291275"><ele>86.0</ele><time>2026-04-22T06:50:11.698Z</time></trkpt><trkpt lat="40.1582156" lon="9.6292129"><ele>86.0</ele><time>2026-04-22T06:50:12.692Z</time></trkpt><trkpt lat="40.1581743" lon="9.6292816"><ele>86.0</ele><time>2026-04-22T06:50:13.7Z</time></trkpt><trkpt lat="40.158114" lon="9.6293565"><ele>86.0</ele><time>2026-04-22T06:50:14.693Z</time></trkpt><trkpt lat="40.158065" lon="9.6294439"><ele>86.0</ele><time>2026-04-22T06:50:15.689Z</time></trkpt><trkpt lat="40.1580153" lon="9.6295339"><ele>86.0</ele><time>2026-04-22T06:50:16.69Z</time></trkpt><trkpt lat="40.1579775" lon="9.6296203"><ele>85.5</ele><time>2026-04-22T06:50:17.694Z</time></trkpt><trkpt lat="40.1579295" lon="9.6296934"><ele>85.0</ele><time>2026-04-22T06:50:18.689Z</time></trkpt><trkpt lat="40.1578739" lon="9.6297615"><ele>84.5</ele><time>2026-04-22T06:50:19.701Z</time></trkpt><trkpt lat="40.1578029" lon="9.629829"><ele>84.0</ele><time>2026-04-22T06:50:20.685Z</time></trkpt><trkpt lat="40.1577419" lon="9.6299074"><ele>83.5</ele><time>2026-04-22T06:50:21.689Z</time></trkpt><trkpt lat="40.1576881" lon="9.6299718"><ele>83.0</ele><time>2026-04-22T06:50:22.689Z</time></trkpt><trkpt lat="40.1575963" lon="9.6300635"><ele>83.0</ele><time>2026-04-22T06:50:24.697Z</time></trkpt><trkpt lat="40.1575344" lon="9.6300866"><ele>83.0</ele><time>2026-04-22T06:50:25.705Z</time></trkpt><trkpt lat="40.1574594" lon="9.6300985"><ele>83.0</ele><time>2026-04-22T06:50:26.702Z</time></trkpt><trkpt lat="40.1573826" lon="9.6301186"><ele>83.0</ele><time>2026-04-22T06:50:27.704Z</time></trkpt><trkpt lat="40.1573088" lon="9.6301434"><ele>83.0</ele><time>2026-04-22T06:50:28.698Z</time></trkpt><trkpt lat="40.1571903" lon="9.6301652"><ele>83.0</ele><time>2026-04-22T06:50:30.698Z</time></trkpt><trkpt lat="40.1570695" lon="9.6301666"><ele>84.33333333333334</ele><time>2026-04-22T06:50:32.702Z</time></trkpt><trkpt lat="40.1569802" lon="9.6301814"><ele>85.66666666666667</ele><time>2026-04-22T06:50:33.701Z</time></trkpt><trkpt lat="40.1568857" lon="9.6302217"><ele>87.0</ele><time>2026-04-22T06:50:34.704Z</time></trkpt><trkpt lat="40.1568141" lon="9.630259"><ele>88.33333333333333</ele><time>2026-04-22T06:50:35.702Z</time></trkpt><trkpt lat="40.1567449" lon="9.630306"><ele>89.66666666666666</ele><time>2026-04-22T06:50:36.701Z</time></trkpt><trkpt lat="40.1566679" lon="9.630338"><ele>91.0</ele><time>2026-04-22T06:50:37.706Z</time></trkpt><trkpt lat="40.1565664" lon="9.6303799"><ele>94.83333333333333</ele><time>2026-04-22T06:50:39.716Z</time></trkpt><trkpt lat="40.1564912" lon="9.6304485"><ele>98.66666666666666</ele><time>2026-04-22T06:50:41.699Z</time></trkpt><trkpt lat="40.1564494" lon="9.6305132"><ele>102.5</ele><time>2026-04-22T06:50:42.699Z</time></trkpt><trkpt lat="40.1564189" lon="9.6305859"><ele>106.33333333333333</ele><time>2026-04-22T06:50:43.719Z</time></trkpt><trkpt lat="40.1563937" lon="9.6306694"><ele>110.16666666666667</ele><time>2026-04-22T06:50:44.7Z</time></trkpt><trkpt lat="40.1563538" lon="9.6307677"><ele>114.0</ele><time>2026-04-22T06:50:46.697Z</time></trkpt><trkpt lat="40.1562778" lon="9.6307802"><ele>114.0</ele><time>2026-04-22T06:50:48.711Z</time></trkpt><trkpt lat="40.1561503" lon="9.6308074"><ele>114.0</ele><time>2026-04-22T06:50:50.698Z</time></trkpt><trkpt lat="40.1560797" lon="9.6308574"><ele>114.0</ele><time>2026-04-22T06:50:51.694Z</time></trkpt><trkpt lat="40.1559922" lon="9.630937"><ele>114.0</ele><time>2026-04-22T06:50:52.701Z</time></trkpt><trkpt lat="40.1559194" lon="9.6309832"><ele>114.0</ele><time>2026-04-22T06:50:53.694Z</time></trkpt><trkpt lat="40.1558547" lon="9.631034"><ele>114.0</ele><time>2026-04-22T06:50:54.693Z</time></trkpt><trkpt lat="40.1557923" lon="9.6310926"><ele>113.99999999999999</ele><time>2026-04-22T06:50:55.698Z</time></trkpt><trkpt lat="40.15574" lon="9.6311676"><ele>114.0</ele><time>2026-04-22T06:50:56.693Z</time></trkpt><trkpt lat="40.1556877" lon="9.631246"><ele>114.0</ele><time>2026-04-22T06:50:57.692Z</time></trkpt><trkpt lat="40.1556364" lon="9.6313137"><ele>113.99999999999999</ele><time>2026-04-22T06:50:58.698Z</time></trkpt><trkpt lat="40.1555873" lon="9.6313835"><ele>114.0</ele><time>2026-04-22T06:50:59.704Z</time></trkpt><trkpt lat="40.1555551" lon="9.6314595"><ele>114.0</ele><time>2026-04-22T06:51:00.701Z</time></trkpt><trkpt lat="40.1555079" lon="9.6316078"><ele>113.80000000000001</ele><time>2026-04-22T06:51:02.693Z</time></trkpt><trkpt lat="40.1554798" lon="9.631757"><ele>113.60000000000001</ele><time>2026-04-22T06:51:04.698Z</time></trkpt><trkpt lat="40.155454" lon="9.6318837"><ele>113.4</ele><time>2026-04-22T06:51:05.696Z</time></trkpt><trkpt lat="40.1554275" lon="9.631986"><ele>113.2</ele><time>2026-04-22T06:51:06.701Z</time></trkpt><trkpt lat="40.1554047" lon="9.6320944"><ele>113.0</ele><time>2026-04-22T06:51:07.706Z</time></trkpt><trkpt lat="40.1553646" lon="9.6321799"><ele>112.99999999999999</ele><time>2026-04-22T06:51:08.704Z</time></trkpt><trkpt lat="40.155336" lon="9.6323296"><ele>113.0</ele><time>2026-04-22T06:51:10.702Z</time></trkpt><trkpt lat="40.1553579" lon="9.632412"><ele>113.0</ele><time>2026-04-22T06:51:11.704Z</time></trkpt><trkpt lat="40.1553962" lon="9.6325118"><ele>113.0</ele><time>2026-04-22T06:51:12.704Z</time></trkpt><trkpt lat="40.1554101" lon="9.6326068"><ele>112.99999999999999</ele><time>2026-04-22T06:51:13.712Z</time></trkpt><trkpt lat="40.155427" lon="9.6327218"><ele>113.0</ele><time>2026-04-22T06:51:14.695Z</time></trkpt><trkpt lat="40.1554495" lon="9.6328636"><ele>112.66666666666666</ele><time>2026-04-22T06:51:15.704Z</time></trkpt><trkpt lat="40.1554705" lon="9.6329757"><ele>112.33333333333333</ele><time>2026-04-22T06:51:16.703Z</time></trkpt><trkpt lat="40.1554772" lon="9.6331248"><ele>112.0</ele><time>2026-04-22T06:51:18.705Z</time></trkpt><trkpt lat="40.1554828" lon="9.6332602"><ele>111.66666666666666</ele><time>2026-04-22T06:51:20.703Z</time></trkpt><trkpt lat="40.1554733" lon="9.6333446"><ele>111.33333333333333</ele><time>2026-04-22T06:51:21.706Z</time></trkpt><trkpt lat="40.1554656" lon="9.6334395"><ele>111.0</ele><time>2026-04-22T06:51:22.699Z</time></trkpt><trkpt lat="40.1554517" lon="9.6335231"><ele>111.0</ele><time>2026-04-22T06:51:23.703Z</time></trkpt><trkpt lat="40.1554118" lon="9.6335916"><ele>111.0</ele><time>2026-04-22T06:51:24.699Z</time></trkpt><trkpt lat="40.1553595" lon="9.6336589"><ele>111.0</ele><time>2026-04-22T06:51:25.703Z</time></trkpt><trkpt lat="40.1553016" lon="9.6337338"><ele>111.0</ele><time>2026-04-22T06:51:26.699Z</time></trkpt><trkpt lat="40.1552394" lon="9.633801"><ele>111.0</ele><time>2026-04-22T06:51:27.705Z</time></trkpt><trkpt lat="40.1551807" lon="9.6338755"><ele>111.0</ele><time>2026-04-22T06:51:28.703Z</time></trkpt><trkpt lat="40.1551148" lon="9.6339282"><ele>109.83333333333333</ele><time>2026-04-22T06:51:29.714Z</time></trkpt><trkpt lat="40.1550454" lon="9.6339768"><ele>108.66666666666666</ele><time>2026-04-22T06:51:30.709Z</time></trkpt><trkpt lat="40.1549844" lon="9.6340232"><ele>107.5</ele><time>2026-04-22T06:51:31.702Z</time></trkpt><trkpt lat="40.1549188" lon="9.6340484"><ele>106.33333333333333</ele><time>2026-04-22T06:51:32.706Z</time></trkpt><trkpt lat="40.1548494" lon="9.6340731"><ele>105.16666666666666</ele><time>2026-04-22T06:51:33.707Z</time></trkpt><trkpt lat="40.1547687" lon="9.6341011"><ele>104.0</ele><time>2026-04-22T06:51:34.705Z</time></trkpt><trkpt lat="40.1546938" lon="9.6341266"><ele>106.33333333333333</ele><time>2026-04-22T06:51:35.706Z</time></trkpt><trkpt lat="40.1546319" lon="9.634161"><ele>108.66666666666666</ele><time>2026-04-22T06:51:36.708Z</time></trkpt><trkpt lat="40.1545287" lon="9.6342047"><ele>111.0</ele><time>2026-04-22T06:51:38.703Z</time></trkpt><trkpt lat="40.1544589" lon="9.6342057"><ele>113.33333333333334</ele><time>2026-04-22T06:51:39.722Z</time></trkpt><trkpt lat="40.1543775" lon="9.6342131"><ele>115.66666666666667</ele><time>2026-04-22T06:51:40.708Z</time></trkpt><trkpt lat="40.1543036" lon="9.6342341"><ele>118.0</ele><time>2026-04-22T06:51:41.702Z</time></trkpt><trkpt lat="40.1542249" lon="9.6342965"><ele>118.00000000000001</ele><time>2026-04-22T06:51:43.717Z</time></trkpt><trkpt lat="40.1540957" lon="9.6343587"><ele>118.0</ele><time>2026-04-22T06:51:45.707Z</time></trkpt><trkpt lat="40.1540154" lon="9.6343981"><ele>118.0</ele><time>2026-04-22T06:51:46.711Z</time></trkpt><trkpt lat="40.1539443" lon="9.6344278"><ele>118.0</ele><time>2026-04-22T06:51:47.713Z</time></trkpt><trkpt lat="40.15388" lon="9.6344562"><ele>118.00000000000001</ele><time>2026-04-22T06:51:48.705Z</time></trkpt><trkpt lat="40.1538149" lon="9.6344968"><ele>118.0</ele><time>2026-04-22T06:51:49.721Z</time></trkpt><trkpt lat="40.1537562" lon="9.6345267"><ele>119.60000000000001</ele><time>2026-04-22T06:51:50.709Z</time></trkpt><trkpt lat="40.1536954" lon="9.6345628"><ele>121.20000000000002</ele><time>2026-04-22T06:51:51.709Z</time></trkpt><trkpt lat="40.1536268" lon="9.6346703"><ele>122.8</ele><time>2026-04-22T06:51:53.705Z</time></trkpt><trkpt lat="40.1535206" lon="9.6346678"><ele>124.4</ele><time>2026-04-22T06:51:56.71Z</time></trkpt><trkpt lat="40.1534221" lon="9.6345934"><ele>126.0</ele><time>2026-04-22T06:51:58.703Z</time></trkpt><trkpt lat="40.153353" lon="9.6345509"><ele>126.0</ele><time>2026-04-22T06:51:59.711Z</time></trkpt><trkpt lat="40.1532883" lon="9.6345386"><ele>126.0</ele><time>2026-04-22T06:52:00.702Z</time></trkpt><trkpt lat="40.1532266" lon="9.6345184"><ele>126.0</ele><time>2026-04-22T06:52:01.697Z</time></trkpt><trkpt lat="40.1531795" lon="9.6344619"><ele>126.0</ele><time>2026-04-22T06:52:03.702Z</time></trkpt><trkpt lat="40.1531541" lon="9.6343416"><ele>126.0</ele><time>2026-04-22T06:52:05.699Z</time></trkpt><trkpt lat="40.1531193" lon="9.6342527"><ele>126.0</ele><time>2026-04-22T06:52:07.697Z</time></trkpt><trkpt lat="40.1530266" lon="9.6342166"><ele>125.0</ele><time>2026-04-22T06:52:09.715Z</time></trkpt><trkpt lat="40.1528966" lon="9.6342024"><ele>124.0</ele><time>2026-04-22T06:52:11.702Z</time></trkpt><trkpt lat="40.1528192" lon="9.6341875"><ele>123.0</ele><time>2026-04-22T06:52:12.713Z</time></trkpt><trkpt lat="40.1527427" lon="9.6341647"><ele>122.0</ele><time>2026-04-22T06:52:13.717Z</time></trkpt><trkpt lat="40.152664" lon="9.6341413"><ele>121.0</ele><time>2026-04-22T06:52:14.707Z</time></trkpt><trkpt lat="40.1525951" lon="9.6341194"><ele>120.0</ele><time>2026-04-22T06:52:15.709Z</time></trkpt><trkpt lat="40.1525185" lon="9.6341139"><ele>120.0</ele><time>2026-04-22T06:52:16.708Z</time></trkpt><trkpt lat="40.1524542" lon="9.6341074"><ele>120.0</ele><time>2026-04-22T06:52:17.709Z</time></trkpt><trkpt lat="40.152388" lon="9.6340994"><ele>120.0</ele><time>2026-04-22T06:52:18.71Z</time></trkpt><trkpt lat="40.1522597" lon="9.6340417"><ele>120.0</ele><time>2026-04-22T06:52:20.703Z</time></trkpt><trkpt lat="40.1522031" lon="9.6339966"><ele>120.0</ele><time>2026-04-22T06:52:21.719Z</time></trkpt><trkpt lat="40.1521457" lon="9.6339603"><ele>120.0</ele><time>2026-04-22T06:52:22.706Z</time></trkpt><trkpt lat="40.15204" lon="9.6339132"><ele>122.25</ele><time>2026-04-22T06:52:24.703Z</time></trkpt><trkpt lat="40.1519526" lon="9.6337988"><ele>124.5</ele><time>2026-04-22T06:52:26.7Z</time></trkpt><trkpt lat="40.1518675" lon="9.633718"><ele>126.75</ele><time>2026-04-22T06:52:28.71Z</time></trkpt><trkpt lat="40.1517646" lon="9.6337021"><ele>129.0</ele><time>2026-04-22T06:52:30.709Z</time></trkpt><trkpt lat="40.1516418" lon="9.6337329"><ele>129.0</ele><time>2026-04-22T06:52:32.692Z</time></trkpt><trkpt lat="40.1515757" lon="9.6337615"><ele>129.0</ele><time>2026-04-22T06:52:33.693Z</time></trkpt><trkpt lat="40.1514413" lon="9.633786"><ele>129.0</ele><time>2026-04-22T06:52:35.694Z</time></trkpt><trkpt lat="40.151344" lon="9.6338292"><ele>129.0</ele><time>2026-04-22T06:52:37.693Z</time></trkpt><trkpt lat="40.1512666" lon="9.633799"><ele>129.0</ele><time>2026-04-22T06:52:40.714Z</time></trkpt><trkpt lat="40.1511886" lon="9.6337064"><ele>129.0</ele><time>2026-04-22T06:52:42.698Z</time></trkpt><trkpt lat="40.1510954" lon="9.6337073"><ele>129.0</ele><time>2026-04-22T06:52:44.706Z</time></trkpt><trkpt lat="40.1510332" lon="9.6337316"><ele>129.0</ele><time>2026-04-22T06:52:45.707Z</time></trkpt><trkpt lat="40.150961" lon="9.6337634"><ele>129.0</ele><time>2026-04-22T06:52:46.706Z</time></trkpt><trkpt lat="40.1508864" lon="9.633811"><ele>129.0</ele><time>2026-04-22T06:52:47.704Z</time></trkpt><trkpt lat="40.1508086" lon="9.6338538"><ele>129.0</ele><time>2026-04-22T06:52:48.7Z</time></trkpt><trkpt lat="40.150731" lon="9.6338767"><ele>128.16666666666666</ele><time>2026-04-22T06:52:49.705Z</time></trkpt><trkpt lat="40.1506568" lon="9.633896"><ele>127.33333333333334</ele><time>2026-04-22T06:52:50.721Z</time></trkpt><trkpt lat="40.1505467" lon="9.6339823"><ele>126.5</ele><time>2026-04-22T06:52:52.7Z</time></trkpt><trkpt lat="40.1504917" lon="9.6340463"><ele>125.66666666666667</ele><time>2026-04-22T06:52:53.701Z</time></trkpt><trkpt lat="40.1504419" lon="9.6341215"><ele>124.83333333333334</ele><time>2026-04-22T06:52:54.7Z</time></trkpt><trkpt lat="40.1504044" lon="9.6341888"><ele>124.0</ele><time>2026-04-22T06:52:55.708Z</time></trkpt><trkpt lat="40.1503272" lon="9.6343075"><ele>124.00000000000001</ele><time>2026-04-22T06:52:57.705Z</time></trkpt><trkpt lat="40.1502281" lon="9.6343894"><ele>124.0</ele><time>2026-04-22T06:52:59.7Z</time></trkpt><trkpt lat="40.1501635" lon="9.6344305"><ele>124.0</ele><time>2026-04-22T06:53:00.717Z</time></trkpt><trkpt lat="40.1501017" lon="9.6344664"><ele>124.0</ele><time>2026-04-22T06:53:01.707Z</time></trkpt><trkpt lat="40.1500367" lon="9.6344952"><ele>124.00000000000001</ele><time>2026-04-22T06:53:02.703Z</time></trkpt><trkpt lat="40.1499764" lon="9.6345282"><ele>124.0</ele><time>2026-04-22T06:53:03.705Z</time></trkpt><trkpt lat="40.1499056" lon="9.6345579"><ele>125.00000000000001</ele><time>2026-04-22T06:53:04.707Z</time></trkpt><trkpt lat="40.1498433" lon="9.6345735"><ele>126.0</ele><time>2026-04-22T06:53:05.702Z</time></trkpt><trkpt lat="40.1497465" lon="9.6345951"><ele>127.0</ele><time>2026-04-22T06:53:07.704Z</time></trkpt><trkpt lat="40.1496819" lon="9.6346633"><ele>128.0</ele><time>2026-04-22T06:53:09.711Z</time></trkpt><trkpt lat="40.1496972" lon="9.6347657"><ele>129.0</ele><time>2026-04-22T06:53:11.712Z</time></trkpt><trkpt lat="40.1496523" lon="9.6348434"><ele>130.0</ele><time>2026-04-22T06:53:14.705Z</time></trkpt><trkpt lat="40.1495276" lon="9.63485"><ele>130.00000000000003</ele><time>2026-04-22T06:53:16.705Z</time></trkpt><trkpt lat="40.1494595" lon="9.6348515"><ele>130.0</ele><time>2026-04-22T06:53:17.703Z</time></trkpt><trkpt lat="40.1493889" lon="9.6348695"><ele>130.0</ele><time>2026-04-22T06:53:18.709Z</time></trkpt><trkpt lat="40.1493193" lon="9.6348701"><ele>130.0</ele><time>2026-04-22T06:53:19.706Z</time></trkpt><trkpt lat="40.1492552" lon="9.6348478"><ele>130.0</ele><time>2026-04-22T06:53:20.703Z</time></trkpt><trkpt lat="40.1492061" lon="9.6347931"><ele>130.00000000000003</ele><time>2026-04-22T06:53:21.716Z</time></trkpt><trkpt lat="40.1491741" lon="9.6347092"><ele>130.0</ele><time>2026-04-22T06:53:22.71Z</time></trkpt><trkpt lat="40.1491324" lon="9.6346282"><ele>130.0</ele><time>2026-04-22T06:53:23.7Z</time></trkpt><trkpt lat="40.1490847" lon="9.6345682"><ele>130.0</ele><time>2026-04-22T06:53:24.703Z</time></trkpt><trkpt lat="40.1489937" lon="9.6344561"><ele>130.0</ele><time>2026-04-22T06:53:26.702Z</time></trkpt><trkpt lat="40.1489589" lon="9.6343872"><ele>130.0</ele><time>2026-04-22T06:53:27.701Z</time></trkpt><trkpt lat="40.1489305" lon="9.6342877"><ele>130.0</ele><time>2026-04-22T06:53:28.701Z</time></trkpt><trkpt lat="40.1489212" lon="9.6341917"><ele>130.0</ele><time>2026-04-22T06:53:29.705Z</time></trkpt><trkpt lat="40.1488933" lon="9.6341056"><ele>130.2</ele><time>2026-04-22T06:53:30.706Z</time></trkpt><trkpt lat="40.1488754" lon="9.6340179"><ele>130.4</ele><time>2026-04-22T06:53:31.703Z</time></trkpt><trkpt lat="40.1488275" lon="9.6338699"><ele>130.6</ele><time>2026-04-22T06:53:33.704Z</time></trkpt><trkpt lat="40.148736" lon="9.6337607"><ele>130.8</ele><time>2026-04-22T06:53:35.707Z</time></trkpt><trkpt lat="40.148687" lon="9.6336897"><ele>131.0</ele><time>2026-04-22T06:53:36.697Z</time></trkpt><trkpt lat="40.1486357" lon="9.63361"><ele>131.0</ele><time>2026-04-22T06:53:37.7Z</time></trkpt><trkpt lat="40.1485893" lon="9.6335339"><ele>131.0</ele><time>2026-04-22T06:53:38.696Z</time></trkpt><trkpt lat="40.1485329" lon="9.6334642"><ele>131.0</ele><time>2026-04-22T06:53:39.704Z</time></trkpt><trkpt lat="40.1484869" lon="9.6333983"><ele>131.0</ele><time>2026-04-22T06:53:40.695Z</time></trkpt><trkpt lat="40.1484273" lon="9.6333412"><ele>131.0</ele><time>2026-04-22T06:53:41.702Z</time></trkpt><trkpt lat="40.1483765" lon="9.6332808"><ele>131.0</ele><time>2026-04-22T06:53:42.704Z</time></trkpt><trkpt lat="40.1482766" lon="9.6332165"><ele>131.0</ele><time>2026-04-22T06:53:44.704Z</time></trkpt><trkpt lat="40.148211" lon="9.6331844"><ele>131.0</ele><time>2026-04-22T06:53:45.7Z</time></trkpt><trkpt lat="40.1481393" lon="9.6331509"><ele>131.0</ele><time>2026-04-22T06:53:46.7Z</time></trkpt><trkpt lat="40.1480639" lon="9.6331368"><ele>131.0</ele><time>2026-04-22T06:53:47.7Z</time></trkpt><trkpt lat="40.1479942" lon="9.6331349"><ele>131.0</ele><time>2026-04-22T06:53:48.702Z</time></trkpt><trkpt lat="40.1479128" lon="9.633131"><ele>131.0</ele><time>2026-04-22T06:53:49.712Z</time></trkpt><trkpt lat="40.1478419" lon="9.6331373"><ele>131.0</ele><time>2026-04-22T06:53:50.704Z</time></trkpt><trkpt lat="40.147729" lon="9.6331249"><ele>132.2</ele><time>2026-04-22T06:53:52.7Z</time></trkpt><trkpt lat="40.1476409" lon="9.6331677"><ele>133.39999999999998</ele><time>2026-04-22T06:53:54.695Z</time></trkpt><trkpt lat="40.1475953" lon="9.6332807"><ele>134.6</ele><time>2026-04-22T06:53:56.693Z</time></trkpt><trkpt lat="40.1475441" lon="9.6333792"><ele>135.79999999999998</ele><time>2026-04-22T06:53:58.693Z</time></trkpt><trkpt lat="40.1474796" lon="9.6335001"><ele>137.0</ele><time>2026-04-22T06:54:00.698Z</time></trkpt><trkpt lat="40.1474442" lon="9.6335743"><ele>137.2</ele><time>2026-04-22T06:54:01.698Z</time></trkpt><trkpt lat="40.1474224" lon="9.6337098"><ele>137.39999999999998</ele><time>2026-04-22T06:54:03.699Z</time></trkpt><trkpt lat="40.1474291" lon="9.6338779"><ele>137.60000000000002</ele><time>2026-04-22T06:54:05.71Z</time></trkpt><trkpt lat="40.1474294" lon="9.6339794"><ele>137.8</ele><time>2026-04-22T06:54:06.708Z</time></trkpt><trkpt lat="40.1474296" lon="9.6340861"><ele>138.0</ele><time>2026-04-22T06:54:07.706Z</time></trkpt><trkpt lat="40.147391" lon="9.6342485"><ele>138.33333333333334</ele><time>2026-04-22T06:54:09.701Z</time></trkpt><trkpt lat="40.1473439" lon="9.6343151"><ele>138.66666666666666</ele><time>2026-04-22T06:54:10.704Z</time></trkpt><trkpt lat="40.1472903" lon="9.6343734"><ele>139.0</ele><time>2026-04-22T06:54:11.701Z</time></trkpt><trkpt lat="40.1472254" lon="9.6344211"><ele>139.33333333333331</ele><time>2026-04-22T06:54:12.702Z</time></trkpt><trkpt lat="40.1471515" lon="9.634445"><ele>139.66666666666666</ele><time>2026-04-22T06:54:13.711Z</time></trkpt><trkpt lat="40.1470731" lon="9.6344566"><ele>140.0</ele><time>2026-04-22T06:54:14.702Z</time></trkpt><trkpt lat="40.1469696" lon="9.634461"><ele>140.0</ele><time>2026-04-22T06:54:16.705Z</time></trkpt><trkpt lat="40.1469039" lon="9.6344673"><ele>140.0</ele><time>2026-04-22T06:54:18.703Z</time></trkpt><trkpt lat="40.1468039" lon="9.6344929"><ele>140.0</ele><time>2026-04-22T06:54:41.701Z</time></trkpt><trkpt lat="40.1466584" lon="9.6345066"><ele>140.0</ele><time>2026-04-22T06:54:43.703Z</time></trkpt><trkpt lat="40.146583" lon="9.6345089"><ele>140.0</ele><time>2026-04-22T06:54:44.695Z</time></trkpt><trkpt lat="40.146497" lon="9.6345023"><ele>140.0</ele><time>2026-04-22T06:54:45.694Z</time></trkpt><trkpt lat="40.1464238" lon="9.6344962"><ele>140.0</ele><time>2026-04-22T06:54:46.694Z</time></trkpt><trkpt lat="40.1463554" lon="9.6345077"><ele>140.0</ele><time>2026-04-22T06:54:47.697Z</time></trkpt><trkpt lat="40.1462854" lon="9.6345095"><ele>140.0</ele><time>2026-04-22T06:54:48.694Z</time></trkpt><trkpt lat="40.1462121" lon="9.6345023"><ele>140.0</ele><time>2026-04-22T06:54:49.699Z</time></trkpt><trkpt lat="40.1461474" lon="9.6344949"><ele>140.0</ele><time>2026-04-22T06:54:50.704Z</time></trkpt><trkpt lat="40.1460844" lon="9.6344984"><ele>140.0</ele><time>2026-04-22T06:54:51.699Z</time></trkpt><trkpt lat="40.146021" lon="9.6344846"><ele>140.0</ele><time>2026-04-22T06:54:52.704Z</time></trkpt><trkpt lat="40.1458934" lon="9.6344497"><ele>140.0</ele><time>2026-04-22T06:54:54.701Z</time></trkpt><trkpt lat="40.1458294" lon="9.6344445"><ele>140.0</ele><time>2026-04-22T06:54:55.711Z</time></trkpt><trkpt lat="40.1457308" lon="9.6344839"><ele>140.0</ele><time>2026-04-22T06:54:57.702Z</time></trkpt><trkpt lat="40.1456789" lon="9.6346128"><ele>140.0</ele><time>2026-04-22T06:54:59.697Z</time></trkpt><trkpt lat="40.1456372" lon="9.6347639"><ele>141.83333333333331</ele><time>2026-04-22T06:55:01.695Z</time></trkpt><trkpt lat="40.1456225" lon="9.6349224"><ele>143.66666666666666</ele><time>2026-04-22T06:55:03.705Z</time></trkpt><trkpt lat="40.1456261" lon="9.6350165"><ele>145.5</ele><time>2026-04-22T06:55:04.705Z</time></trkpt><trkpt lat="40.1456335" lon="9.6351088"><ele>147.33333333333334</ele><time>2026-04-22T06:55:05.698Z</time></trkpt><trkpt lat="40.1456293" lon="9.6352038"><ele>149.16666666666669</ele><time>2026-04-22T06:55:06.704Z</time></trkpt><trkpt lat="40.1456193" lon="9.6352973"><ele>151.0</ele><time>2026-04-22T06:55:07.706Z</time></trkpt><trkpt lat="40.1456062" lon="9.6353809"><ele>151.00000000000003</ele><time>2026-04-22T06:55:08.697Z</time></trkpt><trkpt lat="40.1455816" lon="9.6354578"><ele>151.0</ele><time>2026-04-22T06:55:09.703Z</time></trkpt><trkpt lat="40.1455458" lon="9.6355304"><ele>151.0</ele><time>2026-04-22T06:55:10.698Z</time></trkpt><trkpt lat="40.1455254" lon="9.6356409"><ele>151.0</ele><time>2026-04-22T06:55:11.698Z</time></trkpt><trkpt lat="40.1455117" lon="9.6357388"><ele>151.0</ele><time>2026-04-22T06:55:12.706Z</time></trkpt><trkpt lat="40.1454944" lon="9.6358377"><ele>151.00000000000003</ele><time>2026-04-22T06:55:13.715Z</time></trkpt><trkpt lat="40.1454735" lon="9.6359231"><ele>151.0</ele><time>2026-04-22T06:55:14.703Z</time></trkpt><trkpt lat="40.1454476" lon="9.6360148"><ele>151.0</ele><time>2026-04-22T06:55:15.694Z</time></trkpt><trkpt lat="40.1454111" lon="9.6361042"><ele>151.0</ele><time>2026-04-22T06:55:16.706Z</time></trkpt><trkpt lat="40.1453801" lon="9.636201"><ele>151.0</ele><time>2026-04-22T06:55:17.707Z</time></trkpt><trkpt lat="40.1453465" lon="9.6363018"><ele>151.0</ele><time>2026-04-22T06:55:18.713Z</time></trkpt><trkpt lat="40.1453208" lon="9.6363981"><ele>151.0</ele><time>2026-04-22T06:55:19.703Z</time></trkpt><trkpt lat="40.1452735" lon="9.6364784"><ele>151.0</ele><time>2026-04-22T06:55:20.705Z</time></trkpt><trkpt lat="40.1452158" lon="9.6365538"><ele>150.4</ele><time>2026-04-22T06:55:21.702Z</time></trkpt><trkpt lat="40.1451731" lon="9.6366275"><ele>149.8</ele><time>2026-04-22T06:55:22.7Z</time></trkpt><trkpt lat="40.1451324" lon="9.6366939"><ele>149.20000000000002</ele><time>2026-04-22T06:55:23.703Z</time></trkpt><trkpt lat="40.1450898" lon="9.6367555"><ele>148.6</ele><time>2026-04-22T06:55:24.699Z</time></trkpt><trkpt lat="40.1449882" lon="9.6368337"><ele>148.0</ele><time>2026-04-22T06:55:26.709Z</time></trkpt><trkpt lat="40.144865" lon="9.6369073"><ele>147.16666666666669</ele><time>2026-04-22T06:55:28.701Z</time></trkpt><trkpt lat="40.1448061" lon="9.636937"><ele>146.33333333333334</ele><time>2026-04-22T06:55:29.7Z</time></trkpt><trkpt lat="40.1447357" lon="9.6369625"><ele>145.5</ele><time>2026-04-22T06:55:30.703Z</time></trkpt><trkpt lat="40.1446633" lon="9.6369734"><ele>144.66666666666666</ele><time>2026-04-22T06:55:31.705Z</time></trkpt><trkpt lat="40.1445988" lon="9.6369742"><ele>143.83333333333331</ele><time>2026-04-22T06:55:32.701Z</time></trkpt><trkpt lat="40.1444886" lon="9.6369197"><ele>143.0</ele><time>2026-04-22T06:55:34.703Z</time></trkpt><trkpt lat="40.144425" lon="9.6368732"><ele>143.0</ele><time>2026-04-22T06:55:36.706Z</time></trkpt><trkpt lat="40.1443447" lon="9.6369871"><ele>143.0</ele><time>2026-04-22T06:55:39.704Z</time></trkpt><trkpt lat="40.1443002" lon="9.637084"><ele>143.0</ele><time>2026-04-22T06:55:40.708Z</time></trkpt><trkpt lat="40.1442521" lon="9.6371791"><ele>143.0</ele><time>2026-04-22T06:55:41.699Z</time></trkpt><trkpt lat="40.1441891" lon="9.637258"><ele>143.0</ele><time>2026-04-22T06:55:42.704Z</time></trkpt><trkpt lat="40.1441286" lon="9.6373417"><ele>143.0</ele><time>2026-04-22T06:55:43.711Z</time></trkpt><trkpt lat="40.1440734" lon="9.637438"><ele>143.0</ele><time>2026-04-22T06:55:44.7Z</time></trkpt><trkpt lat="40.1440087" lon="9.6375129"><ele>143.0</ele><time>2026-04-22T06:55:45.702Z</time></trkpt><trkpt lat="40.1439399" lon="9.6375592"><ele>143.0</ele><time>2026-04-22T06:55:46.694Z</time></trkpt><trkpt lat="40.1438575" lon="9.6375963"><ele>143.0</ele><time>2026-04-22T06:55:47.697Z</time></trkpt><trkpt lat="40.1437851" lon="9.6376419"><ele>143.0</ele><time>2026-04-22T06:55:48.693Z</time></trkpt><trkpt lat="40.1437228" lon="9.6376897"><ele>144.0</ele><time>2026-04-22T06:55:49.694Z</time></trkpt><trkpt lat="40.1436597" lon="9.6377375"><ele>145.0</ele><time>2026-04-22T06:55:50.694Z</time></trkpt><trkpt lat="40.1435969" lon="9.6377788"><ele>146.0</ele><time>2026-04-22T06:55:51.69Z</time></trkpt><trkpt lat="40.1435314" lon="9.63781"><ele>147.0</ele><time>2026-04-22T06:55:52.694Z</time></trkpt><trkpt lat="40.1434686" lon="9.6378511"><ele>148.0</ele><time>2026-04-22T06:55:53.686Z</time></trkpt><trkpt lat="40.143403" lon="9.6379056"><ele>149.0</ele><time>2026-04-22T06:55:54.695Z</time></trkpt><trkpt lat="40.1433363" lon="9.6379846"><ele>148.16666666666666</ele><time>2026-04-22T06:55:55.703Z</time></trkpt><trkpt lat="40.1432835" lon="9.638051"><ele>147.33333333333331</ele><time>2026-04-22T06:55:56.699Z</time></trkpt><trkpt lat="40.1432194" lon="9.6380965"><ele>146.5</ele><time>2026-04-22T06:55:57.706Z</time></trkpt><trkpt lat="40.1431386" lon="9.6381188"><ele>145.66666666666666</ele><time>2026-04-22T06:55:58.704Z</time></trkpt><trkpt lat="40.1430493" lon="9.6381495"><ele>144.83333333333334</ele><time>2026-04-22T06:55:59.705Z</time></trkpt><trkpt lat="40.1429595" lon="9.6381819"><ele>144.0</ele><time>2026-04-22T06:56:00.7Z</time></trkpt><trkpt lat="40.1428842" lon="9.6382093"><ele>144.0</ele><time>2026-04-22T06:56:01.698Z</time></trkpt><trkpt lat="40.1428075" lon="9.6382064"><ele>144.0</ele><time>2026-04-22T06:56:02.704Z</time></trkpt><trkpt lat="40.1427297" lon="9.6381916"><ele>144.0</ele><time>2026-04-22T06:56:03.712Z</time></trkpt><trkpt lat="40.1426564" lon="9.6381595"><ele>144.0</ele><time>2026-04-22T06:56:04.705Z</time></trkpt><trkpt lat="40.1425963" lon="9.6381305"><ele>144.0</ele><time>2026-04-22T06:56:05.709Z</time></trkpt><trkpt lat="40.1424744" lon="9.638132"><ele>144.0</ele><time>2026-04-22T06:56:07.701Z</time></trkpt><trkpt lat="40.1424118" lon="9.6381715"><ele>145.33333333333334</ele><time>2026-04-22T06:56:08.702Z</time></trkpt><trkpt lat="40.1423491" lon="9.6382552"><ele>146.66666666666666</ele><time>2026-04-22T06:56:09.707Z</time></trkpt><trkpt lat="40.1422867" lon="9.6383405"><ele>148.0</ele><time>2026-04-22T06:56:10.704Z</time></trkpt><trkpt lat="40.1422168" lon="9.6384124"><ele>149.33333333333331</ele><time>2026-04-22T06:56:11.703Z</time></trkpt><trkpt lat="40.142134" lon="9.6384608"><ele>150.66666666666666</ele><time>2026-04-22T06:56:12.705Z</time></trkpt><trkpt lat="40.1420553" lon="9.6385131"><ele>152.0</ele><time>2026-04-22T06:56:13.714Z</time></trkpt><trkpt lat="40.1419797" lon="9.6385649"><ele>152.0</ele><time>2026-04-22T06:56:14.705Z</time></trkpt><trkpt lat="40.1419072" lon="9.6386102"><ele>152.0</ele><time>2026-04-22T06:56:15.705Z</time></trkpt><trkpt lat="40.1418296" lon="9.6386468"><ele>152.0</ele><time>2026-04-22T06:56:16.699Z</time></trkpt><trkpt lat="40.141758" lon="9.6386792"><ele>152.0</ele><time>2026-04-22T06:56:17.7Z</time></trkpt><trkpt lat="40.1416836" lon="9.6387138"><ele>152.0</ele><time>2026-04-22T06:56:18.705Z</time></trkpt><trkpt lat="40.1416172" lon="9.638752"><ele>152.0</ele><time>2026-04-22T06:56:19.701Z</time></trkpt><trkpt lat="40.1415529" lon="9.6388133"><ele>151.66666666666666</ele><time>2026-04-22T06:56:20.709Z</time></trkpt><trkpt lat="40.1414862" lon="9.6388743"><ele>151.33333333333331</ele><time>2026-04-22T06:56:21.707Z</time></trkpt><trkpt lat="40.1414236" lon="9.6389221"><ele>151.0</ele><time>2026-04-22T06:56:22.701Z</time></trkpt><trkpt lat="40.1413532" lon="9.6389493"><ele>150.66666666666666</ele><time>2026-04-22T06:56:23.707Z</time></trkpt><trkpt lat="40.1412765" lon="9.6389549"><ele>150.33333333333334</ele><time>2026-04-22T06:56:24.705Z</time></trkpt><trkpt lat="40.1411923" lon="9.6389436"><ele>150.0</ele><time>2026-04-22T06:56:25.708Z</time></trkpt><trkpt lat="40.1411053" lon="9.6389197"><ele>150.0</ele><time>2026-04-22T06:56:26.704Z</time></trkpt><trkpt lat="40.1410122" lon="9.6389012"><ele>150.0</ele><time>2026-04-22T06:56:27.706Z</time></trkpt><trkpt lat="40.1409289" lon="9.6388893"><ele>150.0</ele><time>2026-04-22T06:56:28.718Z</time></trkpt><trkpt lat="40.1408543" lon="9.6388982"><ele>150.0</ele><time>2026-04-22T06:56:29.702Z</time></trkpt><trkpt lat="40.1407846" lon="9.6389253"><ele>150.0</ele><time>2026-04-22T06:56:30.706Z</time></trkpt><trkpt lat="40.1407148" lon="9.6389775"><ele>150.0</ele><time>2026-04-22T06:56:31.704Z</time></trkpt><trkpt lat="40.1406458" lon="9.6390462"><ele>150.16666666666666</ele><time>2026-04-22T06:56:32.702Z</time></trkpt><trkpt lat="40.1405883" lon="9.6391265"><ele>150.33333333333334</ele><time>2026-04-22T06:56:33.706Z</time></trkpt><trkpt lat="40.1405398" lon="9.6392211"><ele>150.5</ele><time>2026-04-22T06:56:34.706Z</time></trkpt><trkpt lat="40.1404973" lon="9.6393181"><ele>150.66666666666669</ele><time>2026-04-22T06:56:35.706Z</time></trkpt><trkpt lat="40.1404524" lon="9.6393943"><ele>150.83333333333334</ele><time>2026-04-22T06:56:36.704Z</time></trkpt><trkpt lat="40.1404039" lon="9.6394692"><ele>151.0</ele><time>2026-04-22T06:56:37.712Z</time></trkpt><trkpt lat="40.1403583" lon="9.6395497"><ele>151.0</ele><time>2026-04-22T06:56:38.71Z</time></trkpt><trkpt lat="40.1403089" lon="9.6396407"><ele>151.0</ele><time>2026-04-22T06:56:39.713Z</time></trkpt><trkpt lat="40.1402578" lon="9.6397375"><ele>151.0</ele><time>2026-04-22T06:56:40.709Z</time></trkpt><trkpt lat="40.1402162" lon="9.6398356"><ele>151.0</ele><time>2026-04-22T06:56:41.704Z</time></trkpt><trkpt lat="40.140167" lon="9.6399293"><ele>151.0</ele><time>2026-04-22T06:56:42.704Z</time></trkpt><trkpt lat="40.1401104" lon="9.6400133"><ele>151.0</ele><time>2026-04-22T06:56:43.719Z</time></trkpt><trkpt lat="40.1400549" lon="9.6400921"><ele>151.0</ele><time>2026-04-22T06:56:44.712Z</time></trkpt><trkpt lat="40.1399888" lon="9.6401604"><ele>151.0</ele><time>2026-04-22T06:56:45.712Z</time></trkpt><trkpt lat="40.1399083" lon="9.6402154"><ele>151.0</ele><time>2026-04-22T06:56:46.708Z</time></trkpt><trkpt lat="40.1398336" lon="9.6402765"><ele>151.0</ele><time>2026-04-22T06:56:47.71Z</time></trkpt><trkpt lat="40.1397768" lon="9.6403413"><ele>151.0</ele><time>2026-04-22T06:56:48.71Z</time></trkpt><trkpt lat="40.139714" lon="9.6403925"><ele>151.0</ele><time>2026-04-22T06:56:49.708Z</time></trkpt><trkpt lat="40.1396537" lon="9.6404267"><ele>151.6</ele><time>2026-04-22T06:56:50.708Z</time></trkpt><trkpt lat="40.1395143" lon="9.6404338"><ele>152.2</ele><time>2026-04-22T06:56:52.71Z</time></trkpt><trkpt lat="40.1394175" lon="9.6403936"><ele>152.8</ele><time>2026-04-22T06:56:53.711Z</time></trkpt><trkpt lat="40.1393267" lon="9.6403558"><ele>153.4</ele><time>2026-04-22T06:56:54.71Z</time></trkpt><trkpt lat="40.1392329" lon="9.6403173"><ele>154.0</ele><time>2026-04-22T06:56:55.716Z</time></trkpt><trkpt lat="40.1391303" lon="9.6402898"><ele>154.5</ele><time>2026-04-22T06:56:56.714Z</time></trkpt><trkpt lat="40.1390329" lon="9.6402666"><ele>155.0</ele><time>2026-04-22T06:56:57.716Z</time></trkpt><trkpt lat="40.1389445" lon="9.6402586"><ele>155.5</ele><time>2026-04-22T06:56:58.724Z</time></trkpt><trkpt lat="40.1388523" lon="9.6402547"><ele>156.0</ele><time>2026-04-22T06:56:59.708Z</time></trkpt><trkpt lat="40.1387691" lon="9.6402518"><ele>156.5</ele><time>2026-04-22T06:57:00.704Z</time></trkpt><trkpt lat="40.1386966" lon="9.6402523"><ele>157.0</ele><time>2026-04-22T06:57:01.715Z</time></trkpt><trkpt lat="40.1386236" lon="9.6402658"><ele>157.0</ele><time>2026-04-22T06:57:02.709Z</time></trkpt><trkpt lat="40.1385484" lon="9.6402939"><ele>157.0</ele><time>2026-04-22T06:57:03.714Z</time></trkpt><trkpt lat="40.1384683" lon="9.6403232"><ele>157.0</ele><time>2026-04-22T06:57:04.714Z</time></trkpt><trkpt lat="40.1383835" lon="9.6403465"><ele>157.0</ele><time>2026-04-22T06:57:05.707Z</time></trkpt><trkpt lat="40.1382916" lon="9.640365"><ele>157.0</ele><time>2026-04-22T06:57:06.712Z</time></trkpt><trkpt lat="40.1382014" lon="9.6403937"><ele>157.0</ele><time>2026-04-22T06:57:07.716Z</time></trkpt><trkpt lat="40.1381101" lon="9.6404342"><ele>156.5</ele><time>2026-04-22T06:57:08.712Z</time></trkpt><trkpt lat="40.1380234" lon="9.6404899"><ele>156.0</ele><time>2026-04-22T06:57:09.714Z</time></trkpt><trkpt lat="40.1379419" lon="9.6405507"><ele>155.5</ele><time>2026-04-22T06:57:10.716Z</time></trkpt><trkpt lat="40.1378702" lon="9.6406106"><ele>155.0</ele><time>2026-04-22T06:57:11.71Z</time></trkpt><trkpt lat="40.1378005" lon="9.6406697"><ele>154.5</ele><time>2026-04-22T06:57:12.709Z</time></trkpt><trkpt lat="40.137734" lon="9.6407366"><ele>154.0</ele><time>2026-04-22T06:57:13.719Z</time></trkpt><trkpt lat="40.1376736" lon="9.6408098"><ele>154.0</ele><time>2026-04-22T06:57:14.711Z</time></trkpt><trkpt lat="40.1376214" lon="9.6408892"><ele>154.0</ele><time>2026-04-22T06:57:15.724Z</time></trkpt><trkpt lat="40.1375787" lon="9.6409633"><ele>154.0</ele><time>2026-04-22T06:57:16.711Z</time></trkpt><trkpt lat="40.1375462" lon="9.6410342"><ele>154.0</ele><time>2026-04-22T06:57:17.714Z</time></trkpt><trkpt lat="40.1375104" lon="9.6411066"><ele>154.0</ele><time>2026-04-22T06:57:18.715Z</time></trkpt><trkpt lat="40.1374654" lon="9.6411725"><ele>154.0</ele><time>2026-04-22T06:57:19.713Z</time></trkpt><trkpt lat="40.1374182" lon="9.6412285"><ele>154.0</ele><time>2026-04-22T06:57:20.719Z</time></trkpt><trkpt lat="40.1373162" lon="9.6412918"><ele>156.2</ele><time>2026-04-22T06:57:22.719Z</time></trkpt><trkpt lat="40.1372241" lon="9.6413743"><ele>158.4</ele><time>2026-04-22T06:57:24.71Z</time></trkpt><trkpt lat="40.1371888" lon="9.6414492"><ele>160.6</ele><time>2026-04-22T06:57:25.717Z</time></trkpt><trkpt lat="40.1371653" lon="9.6415454"><ele>162.8</ele><time>2026-04-22T06:57:26.709Z</time></trkpt><trkpt lat="40.1371541" lon="9.6416777"><ele>165.0</ele><time>2026-04-22T06:57:27.705Z</time></trkpt><trkpt lat="40.1371443" lon="9.6418196"><ele>165.0</ele><time>2026-04-22T06:57:28.711Z</time></trkpt><trkpt lat="40.1371396" lon="9.6419534"><ele>165.0</ele><time>2026-04-22T06:57:29.717Z</time></trkpt><trkpt lat="40.1371339" lon="9.6420741"><ele>165.0</ele><time>2026-04-22T06:57:30.708Z</time></trkpt><trkpt lat="40.1371267" lon="9.6421873"><ele>165.0</ele><time>2026-04-22T06:57:31.712Z</time></trkpt><trkpt lat="40.1371079" lon="9.6422922"><ele>165.0</ele><time>2026-04-22T06:57:32.707Z</time></trkpt><trkpt lat="40.1370867" lon="9.6423933"><ele>165.0</ele><time>2026-04-22T06:57:33.713Z</time></trkpt><trkpt lat="40.1370587" lon="9.6424934"><ele>165.16666666666666</ele><time>2026-04-22T06:57:34.709Z</time></trkpt><trkpt lat="40.1370329" lon="9.6425892"><ele>165.33333333333334</ele><time>2026-04-22T06:57:35.703Z</time></trkpt><trkpt lat="40.1369986" lon="9.6426826"><ele>165.5</ele><time>2026-04-22T06:57:36.711Z</time></trkpt><trkpt lat="40.1369583" lon="9.6427767"><ele>165.66666666666669</ele><time>2026-04-22T06:57:37.708Z</time></trkpt><trkpt lat="40.1369323" lon="9.6428709"><ele>165.83333333333334</ele><time>2026-04-22T06:57:38.701Z</time></trkpt><trkpt lat="40.1369144" lon="9.6429722"><ele>166.0</ele><time>2026-04-22T06:57:39.707Z</time></trkpt><trkpt lat="40.1369062" lon="9.6430627"><ele>166.0</ele><time>2026-04-22T06:57:40.709Z</time></trkpt><trkpt lat="40.136898" lon="9.6431471"><ele>166.0</ele><time>2026-04-22T06:57:41.709Z</time></trkpt><trkpt lat="40.1368646" lon="9.6432817"><ele>166.0</ele><time>2026-04-22T06:57:43.716Z</time></trkpt><trkpt lat="40.1368167" lon="9.6433375"><ele>166.0</ele><time>2026-04-22T06:57:44.71Z</time></trkpt><trkpt lat="40.1367094" lon="9.643419"><ele>166.0</ele><time>2026-04-22T06:57:46.701Z</time></trkpt><trkpt lat="40.1366308" lon="9.643427"><ele>166.0</ele><time>2026-04-22T06:57:47.705Z</time></trkpt><trkpt lat="40.1365361" lon="9.6434083"><ele>166.0</ele><time>2026-04-22T06:57:48.704Z</time></trkpt><trkpt lat="40.1364368" lon="9.6433778"><ele>166.0</ele><time>2026-04-22T06:57:49.707Z</time></trkpt><trkpt lat="40.1363479" lon="9.6433513"><ele>166.0</ele><time>2026-04-22T06:57:50.707Z</time></trkpt><trkpt lat="40.1362684" lon="9.6433311"><ele>166.0</ele><time>2026-04-22T06:57:51.71Z</time></trkpt><trkpt lat="40.1362034" lon="9.6433003"><ele>166.0</ele><time>2026-04-22T06:57:52.71Z</time></trkpt><trkpt lat="40.1361067" lon="9.6432226"><ele>166.0</ele><time>2026-04-22T06:57:54.708Z</time></trkpt><trkpt lat="40.1360322" lon="9.6430956"><ele>166.0</ele><time>2026-04-22T06:57:56.711Z</time></trkpt><trkpt lat="40.1359263" lon="9.6430194"><ele>166.0</ele><time>2026-04-22T06:57:58.713Z</time></trkpt><trkpt lat="40.1358402" lon="9.6429907"><ele>166.0</ele><time>2026-04-22T06:57:59.718Z</time></trkpt><trkpt lat="40.1357514" lon="9.6429797"><ele>166.0</ele><time>2026-04-22T06:58:00.712Z</time></trkpt><trkpt lat="40.1356626" lon="9.6429662"><ele>166.4</ele><time>2026-04-22T06:58:01.706Z</time></trkpt><trkpt lat="40.1355891" lon="9.6429658"><ele>166.8</ele><time>2026-04-22T06:58:02.707Z</time></trkpt><trkpt lat="40.1354688" lon="9.6429533"><ele>167.20000000000002</ele><time>2026-04-22T06:58:04.708Z</time></trkpt><trkpt lat="40.1353397" lon="9.6429062"><ele>167.60000000000002</ele><time>2026-04-22T06:58:06.7Z</time></trkpt><trkpt lat="40.1352654" lon="9.6428685"><ele>168.0</ele><time>2026-04-22T06:58:07.708Z</time></trkpt><trkpt lat="40.1351918" lon="9.6428195"><ele>167.33333333333334</ele><time>2026-04-22T06:58:08.708Z</time></trkpt><trkpt lat="40.1351209" lon="9.6427675"><ele>166.66666666666666</ele><time>2026-04-22T06:58:09.712Z</time></trkpt><trkpt lat="40.1350557" lon="9.642728"><ele>166.0</ele><time>2026-04-22T06:58:10.705Z</time></trkpt><trkpt lat="40.1349948" lon="9.642685"><ele>165.33333333333331</ele><time>2026-04-22T06:58:11.701Z</time></trkpt><trkpt lat="40.1349417" lon="9.6426276"><ele>164.66666666666666</ele><time>2026-04-22T06:58:12.709Z</time></trkpt><trkpt lat="40.1348598" lon="9.6425315"><ele>164.0</ele><time>2026-04-22T06:58:14.705Z</time></trkpt><trkpt lat="40.134752" lon="9.642538"><ele>165.0</ele><time>2026-04-22T06:58:16.705Z</time></trkpt><trkpt lat="40.1346699" lon="9.6426131"><ele>166.0</ele><time>2026-04-22T06:58:18.701Z</time></trkpt><trkpt lat="40.1346724" lon="9.6427229"><ele>167.0</ele><time>2026-04-22T06:58:20.701Z</time></trkpt><trkpt lat="40.1347578" lon="9.6428457"><ele>168.0</ele><time>2026-04-22T06:58:22.704Z</time></trkpt><trkpt lat="40.1348236" lon="9.6429258"><ele>169.0</ele><time>2026-04-22T06:58:23.697Z</time></trkpt><trkpt lat="40.1348686" lon="9.643002"><ele>169.0</ele><time>2026-04-22T06:58:24.701Z</time></trkpt><trkpt lat="40.13488" lon="9.6431403"><ele>169.0</ele><time>2026-04-22T06:58:26.714Z</time></trkpt><trkpt lat="40.1348087" lon="9.6432382"><ele>169.0</ele><time>2026-04-22T06:58:28.706Z</time></trkpt><trkpt lat="40.1347271" lon="9.6432572"><ele>169.0</ele><time>2026-04-22T06:58:29.705Z</time></trkpt><trkpt lat="40.1346475" lon="9.6432671"><ele>169.0</ele><time>2026-04-22T06:58:30.7Z</time></trkpt><trkpt lat="40.1345827" lon="9.6432879"><ele>169.0</ele><time>2026-04-22T06:58:31.706Z</time></trkpt><trkpt lat="40.1345322" lon="9.6433833"><ele>169.0</ele><time>2026-04-22T06:58:33.697Z</time></trkpt><trkpt lat="40.1345586" lon="9.643501"><ele>169.0</ele><time>2026-04-22T06:58:35.685Z</time></trkpt><trkpt lat="40.1345989" lon="9.6435675"><ele>169.0</ele><time>2026-04-22T06:58:36.693Z</time></trkpt><trkpt lat="40.1346462" lon="9.6436283"><ele>169.0</ele><time>2026-04-22T06:58:37.704Z</time></trkpt><trkpt lat="40.1347159" lon="9.6437908"><ele>169.0</ele><time>2026-04-22T06:58:39.704Z</time></trkpt><trkpt lat="40.1347438" lon="9.643892"><ele>170.57142857142858</ele><time>2026-04-22T06:58:40.709Z</time></trkpt><trkpt lat="40.1347513" lon="9.6439839"><ele>172.14285714285714</ele><time>2026-04-22T06:58:41.704Z</time></trkpt><trkpt lat="40.1347531" lon="9.644076"><ele>173.71428571428572</ele><time>2026-04-22T06:58:42.707Z</time></trkpt><trkpt lat="40.1347591" lon="9.6441656"><ele>175.28571428571428</ele><time>2026-04-22T06:58:43.713Z</time></trkpt><trkpt lat="40.1347805" lon="9.6442514"><ele>176.85714285714286</ele><time>2026-04-22T06:58:44.708Z</time></trkpt><trkpt lat="40.1348157" lon="9.6443282"><ele>178.42857142857142</ele><time>2026-04-22T06:58:45.711Z</time></trkpt><trkpt lat="40.1348629" lon="9.644396"><ele>180.0</ele><time>2026-04-22T06:58:46.71Z</time></trkpt><trkpt lat="40.1349138" lon="9.6444618"><ele>181.5</ele><time>2026-04-22T06:58:47.701Z</time></trkpt><trkpt lat="40.1349578" lon="9.6445485"><ele>183.0</ele><time>2026-04-22T06:58:48.715Z</time></trkpt><trkpt lat="40.1349923" lon="9.6446447"><ele>184.5</ele><time>2026-04-22T06:58:49.707Z</time></trkpt><trkpt lat="40.13502" lon="9.6447503"><ele>186.0</ele><time>2026-04-22T06:58:50.714Z</time></trkpt><trkpt lat="40.1350382" lon="9.6448578"><ele>187.5</ele><time>2026-04-22T06:58:51.703Z</time></trkpt><trkpt lat="40.1350397" lon="9.6449688"><ele>189.0</ele><time>2026-04-22T06:58:52.71Z</time></trkpt><trkpt lat="40.1350286" lon="9.6450699"><ele>189.0</ele><time>2026-04-22T06:58:53.705Z</time></trkpt><trkpt lat="40.1350096" lon="9.6451703"><ele>189.0</ele><time>2026-04-22T06:58:54.701Z</time></trkpt><trkpt lat="40.1349804" lon="9.6452678"><ele>189.0</ele><time>2026-04-22T06:58:55.707Z</time></trkpt><trkpt lat="40.134954" lon="9.6453623"><ele>189.0</ele><time>2026-04-22T06:58:56.698Z</time></trkpt><trkpt lat="40.1349422" lon="9.645452"><ele>189.0</ele><time>2026-04-22T06:58:57.698Z</time></trkpt><trkpt lat="40.1349526" lon="9.6455461"><ele>189.0</ele><time>2026-04-22T06:58:58.693Z</time></trkpt><trkpt lat="40.1349683" lon="9.6456457"><ele>191.0</ele><time>2026-04-22T06:58:59.695Z</time></trkpt><trkpt lat="40.1349822" lon="9.6457406"><ele>193.0</ele><time>2026-04-22T06:59:00.704Z</time></trkpt><trkpt lat="40.1349831" lon="9.6458465"><ele>195.0</ele><time>2026-04-22T06:59:01.7Z</time></trkpt><trkpt lat="40.1349826" lon="9.645943"><ele>197.0</ele><time>2026-04-22T06:59:02.707Z</time></trkpt><trkpt lat="40.1349746" lon="9.6460357"><ele>199.0</ele><time>2026-04-22T06:59:03.71Z</time></trkpt><trkpt lat="40.1349746" lon="9.6461183"><ele>201.0</ele><time>2026-04-22T06:59:04.7Z</time></trkpt><trkpt lat="40.1349783" lon="9.6462502"><ele>204.0</ele><time>2026-04-22T06:59:06.701Z</time></trkpt><trkpt lat="40.1349186" lon="9.6463619"><ele>207.0</ele><time>2026-04-22T06:59:08.698Z</time></trkpt><trkpt lat="40.1348447" lon="9.6464604"><ele>210.00000000000003</ele><time>2026-04-22T06:59:10.697Z</time></trkpt><trkpt lat="40.1348333" lon="9.6465785"><ele>213.0</ele><time>2026-04-22T06:59:12.7Z</time></trkpt><trkpt lat="40.1348328" lon="9.6466939"><ele>216.0</ele><time>2026-04-22T06:59:14.697Z</time></trkpt><trkpt lat="40.1347278" lon="9.6467506"><ele>216.20000000000002</ele><time>2026-04-22T06:59:16.692Z</time></trkpt><trkpt lat="40.1346401" lon="9.6467862"><ele>216.40000000000003</ele><time>2026-04-22T06:59:18.697Z</time></trkpt><trkpt lat="40.1345747" lon="9.646883"><ele>216.6</ele><time>2026-04-22T06:59:20.694Z</time></trkpt><trkpt lat="40.1345408" lon="9.6469533"><ele>216.8</ele><time>2026-04-22T06:59:21.691Z</time></trkpt><trkpt lat="40.1344788" lon="9.6470906"><ele>217.0</ele><time>2026-04-22T06:59:23.688Z</time></trkpt><trkpt lat="40.1344546" lon="9.6472466"><ele>216.99999999999997</ele><time>2026-04-22T06:59:25.691Z</time></trkpt><trkpt lat="40.1344524" lon="9.6473311"><ele>217.0</ele><time>2026-04-22T06:59:26.688Z</time></trkpt><trkpt lat="40.1343993" lon="9.647477"><ele>217.0</ele><time>2026-04-22T06:59:28.69Z</time></trkpt><trkpt lat="40.1343557" lon="9.6475425"><ele>217.0</ele><time>2026-04-22T06:59:29.692Z</time></trkpt><trkpt lat="40.1343178" lon="9.6476089"><ele>216.99999999999997</ele><time>2026-04-22T06:59:30.693Z</time></trkpt><trkpt lat="40.1342753" lon="9.6476781"><ele>217.0</ele><time>2026-04-22T06:59:31.691Z</time></trkpt><trkpt lat="40.1342376" lon="9.6477607"><ele>217.99999999999997</ele><time>2026-04-22T06:59:32.693Z</time></trkpt><trkpt lat="40.1341947" lon="9.6478513"><ele>219.0</ele><time>2026-04-22T06:59:33.694Z</time></trkpt><trkpt lat="40.1341521" lon="9.6479428"><ele>220.0</ele><time>2026-04-22T06:59:34.685Z</time></trkpt><trkpt lat="40.1341177" lon="9.6480435"><ele>221.0</ele><time>2026-04-22T06:59:35.684Z</time></trkpt><trkpt lat="40.1340844" lon="9.6481527"><ele>221.99999999999997</ele><time>2026-04-22T06:59:36.691Z</time></trkpt><trkpt lat="40.1340559" lon="9.6482591"><ele>223.0</ele><time>2026-04-22T06:59:37.692Z</time></trkpt><trkpt lat="40.1340418" lon="9.6483612"><ele>224.57142857142856</ele><time>2026-04-22T06:59:38.691Z</time></trkpt><trkpt lat="40.1340365" lon="9.6484594"><ele>226.14285714285714</ele><time>2026-04-22T06:59:39.699Z</time></trkpt><trkpt lat="40.134035" lon="9.6485487"><ele>227.71428571428572</ele><time>2026-04-22T06:59:40.691Z</time></trkpt><trkpt lat="40.1340433" lon="9.6486379"><ele>229.28571428571428</ele><time>2026-04-22T06:59:41.69Z</time></trkpt><trkpt lat="40.1340641" lon="9.6487204"><ele>230.8571428571429</ele><time>2026-04-22T06:59:42.693Z</time></trkpt><trkpt lat="40.1340769" lon="9.6488058"><ele>232.42857142857144</ele><time>2026-04-22T06:59:43.697Z</time></trkpt><trkpt lat="40.1340786" lon="9.6488932"><ele>234.0</ele><time>2026-04-22T06:59:44.686Z</time></trkpt><trkpt lat="40.1340671" lon="9.6489817"><ele>236.5</ele><time>2026-04-22T06:59:45.688Z</time></trkpt><trkpt lat="40.1340442" lon="9.6490723"><ele>239.0</ele><time>2026-04-22T06:59:46.694Z</time></trkpt><trkpt lat="40.1340166" lon="9.6491673"><ele>241.5</ele><time>2026-04-22T06:59:47.686Z</time></trkpt><trkpt lat="40.1339846" lon="9.6492677"><ele>244.0</ele><time>2026-04-22T06:59:48.687Z</time></trkpt><trkpt lat="40.1339655" lon="9.6493732"><ele>246.5</ele><time>2026-04-22T06:59:49.691Z</time></trkpt><trkpt lat="40.1339668" lon="9.6494899"><ele>249.0</ele><time>2026-04-22T06:59:50.692Z</time></trkpt><trkpt lat="40.1339713" lon="9.6496144"><ele>249.0</ele><time>2026-04-22T06:59:51.692Z</time></trkpt><trkpt lat="40.1339671" lon="9.6497369"><ele>249.0</ele><time>2026-04-22T06:59:52.693Z</time></trkpt><trkpt lat="40.1339579" lon="9.6498584"><ele>249.0</ele><time>2026-04-22T06:59:53.695Z</time></trkpt><trkpt lat="40.1339503" lon="9.6499782"><ele>249.0</ele><time>2026-04-22T06:59:54.7Z</time></trkpt><trkpt lat="40.1339486" lon="9.6500872"><ele>249.0</ele><time>2026-04-22T06:59:55.691Z</time></trkpt><trkpt lat="40.1339541" lon="9.6501841"><ele>249.0</ele><time>2026-04-22T06:59:56.689Z</time></trkpt><trkpt lat="40.1339902" lon="9.6503281"><ele>249.0</ele><time>2026-04-22T06:59:58.686Z</time></trkpt><trkpt lat="40.1340407" lon="9.6504247"><ele>249.0</ele><time>2026-04-22T07:00:00.685Z</time></trkpt><trkpt lat="40.1339398" lon="9.6503716"><ele>249.0</ele><time>2026-04-22T07:00:04.701Z</time></trkpt><trkpt lat="40.1338984" lon="9.6503045"><ele>249.0</ele><time>2026-04-22T07:00:05.694Z</time></trkpt><trkpt lat="40.1338589" lon="9.6502396"><ele>249.0</ele><time>2026-04-22T07:00:06.689Z</time></trkpt><trkpt lat="40.1337626" lon="9.6501754"><ele>249.0</ele><time>2026-04-22T07:00:08.695Z</time></trkpt><trkpt lat="40.133693" lon="9.6501731"><ele>249.0</ele><time>2026-04-22T07:00:09.688Z</time></trkpt><trkpt lat="40.1336248" lon="9.6501958"><ele>249.0</ele><time>2026-04-22T07:00:10.685Z</time></trkpt><trkpt lat="40.1335606" lon="9.6502373"><ele>249.0</ele><time>2026-04-22T07:00:11.692Z</time></trkpt><trkpt lat="40.1335004" lon="9.6502693"><ele>249.0</ele><time>2026-04-22T07:00:12.679Z</time></trkpt><trkpt lat="40.1334156" lon="9.6503171"><ele>249.0</ele><time>2026-04-22T07:00:14.682Z</time></trkpt><trkpt lat="40.1333429" lon="9.6502938"><ele>249.0</ele><time>2026-04-22T07:00:16.683Z</time></trkpt><trkpt lat="40.1333177" lon="9.6501511"><ele>249.0</ele><time>2026-04-22T07:00:18.684Z</time></trkpt><trkpt lat="40.1333361" lon="9.6500539"><ele>249.0</ele><time>2026-04-22T07:00:19.689Z</time></trkpt><trkpt lat="40.1333545" lon="9.6499492"><ele>249.0</ele><time>2026-04-22T07:00:20.686Z</time></trkpt><trkpt lat="40.1333619" lon="9.6498385"><ele>249.0</ele><time>2026-04-22T07:00:21.689Z</time></trkpt><trkpt lat="40.133355" lon="9.6497423"><ele>249.0</ele><time>2026-04-22T07:00:22.692Z</time></trkpt><trkpt lat="40.1333302" lon="9.6496452"><ele>249.0</ele><time>2026-04-22T07:00:23.697Z</time></trkpt><trkpt lat="40.1333101" lon="9.6495564"><ele>249.0</ele><time>2026-04-22T07:00:24.696Z</time></trkpt><trkpt lat="40.1332882" lon="9.6494787"><ele>249.0</ele><time>2026-04-22T07:00:25.694Z</time></trkpt><trkpt lat="40.133239" lon="9.6493865"><ele>249.0</ele><time>2026-04-22T07:00:27.691Z</time></trkpt><trkpt lat="40.133132" lon="9.6493685"><ele>249.0</ele><time>2026-04-22T07:00:29.693Z</time></trkpt><trkpt lat="40.1330516" lon="9.6493594"><ele>249.0</ele><time>2026-04-22T07:00:30.692Z</time></trkpt><trkpt lat="40.1329663" lon="9.6493426"><ele>249.0</ele><time>2026-04-22T07:00:31.704Z</time></trkpt><trkpt lat="40.132896" lon="9.6493307"><ele>251.0</ele><time>2026-04-22T07:00:32.696Z</time></trkpt><trkpt lat="40.1327953" lon="9.6493459"><ele>252.99999999999997</ele><time>2026-04-22T07:00:34.692Z</time></trkpt><trkpt lat="40.1327385" lon="9.6494346"><ele>254.99999999999997</ele><time>2026-04-22T07:00:36.699Z</time></trkpt><trkpt lat="40.1327701" lon="9.6495656"><ele>257.0</ele><time>2026-04-22T07:00:38.701Z</time></trkpt><trkpt lat="40.1328" lon="9.6496892"><ele>259.0</ele><time>2026-04-22T07:00:40.691Z</time></trkpt><trkpt lat="40.1327341" lon="9.64979"><ele>258.7142857142857</ele><time>2026-04-22T07:00:42.701Z</time></trkpt><trkpt lat="40.1326848" lon="9.6498577"><ele>258.42857142857144</ele><time>2026-04-22T07:00:43.692Z</time></trkpt><trkpt lat="40.1326402" lon="9.6499298"><ele>258.1428571428571</ele><time>2026-04-22T07:00:44.696Z</time></trkpt><trkpt lat="40.1325942" lon="9.6499866"><ele>257.8571428571429</ele><time>2026-04-22T07:00:45.691Z</time></trkpt><trkpt lat="40.132531" lon="9.6500283"><ele>257.57142857142856</ele><time>2026-04-22T07:00:46.702Z</time></trkpt><trkpt lat="40.1324589" lon="9.6500822"><ele>257.2857142857143</ele><time>2026-04-22T07:00:47.696Z</time></trkpt><trkpt lat="40.1323854" lon="9.6501499"><ele>257.0</ele><time>2026-04-22T07:00:48.69Z</time></trkpt><trkpt lat="40.1323178" lon="9.6502116"><ele>258.8</ele><time>2026-04-22T07:00:49.702Z</time></trkpt><trkpt lat="40.1322019" lon="9.6502939"><ele>260.6</ele><time>2026-04-22T07:00:51.694Z</time></trkpt><trkpt lat="40.1321472" lon="9.6503516"><ele>262.40000000000003</ele><time>2026-04-22T07:00:52.694Z</time></trkpt><trkpt lat="40.1320956" lon="9.6504782"><ele>264.2</ele><time>2026-04-22T07:00:54.691Z</time></trkpt><trkpt lat="40.1321139" lon="9.6506336"><ele>266.0</ele><time>2026-04-22T07:00:56.702Z</time></trkpt><trkpt lat="40.1321301" lon="9.650742"><ele>266.0</ele><time>2026-04-22T07:00:57.693Z</time></trkpt><trkpt lat="40.1321383" lon="9.650851"><ele>266.0</ele><time>2026-04-22T07:00:58.699Z</time></trkpt><trkpt lat="40.1321337" lon="9.6509425"><ele>266.0</ele><time>2026-04-22T07:00:59.694Z</time></trkpt><trkpt lat="40.1321116" lon="9.6510515"><ele>266.0</ele><time>2026-04-22T07:01:01.695Z</time></trkpt><trkpt lat="40.132157" lon="9.6511155"><ele>266.0</ele><time>2026-04-22T07:01:03.694Z</time></trkpt><trkpt lat="40.1322594" lon="9.6512182"><ele>266.0</ele><time>2026-04-22T07:01:05.697Z</time></trkpt><trkpt lat="40.1323124" lon="9.6512824"><ele>266.83333333333337</ele><time>2026-04-22T07:01:06.699Z</time></trkpt><trkpt lat="40.1323573" lon="9.6513474"><ele>267.6666666666667</ele><time>2026-04-22T07:01:07.696Z</time></trkpt><trkpt lat="40.1323916" lon="9.6514918"><ele>268.5</ele><time>2026-04-22T07:01:09.698Z</time></trkpt><trkpt lat="40.1323797" lon="9.6515874"><ele>269.3333333333333</ele><time>2026-04-22T07:01:10.696Z</time></trkpt><trkpt lat="40.1323633" lon="9.6516865"><ele>270.16666666666663</ele><time>2026-04-22T07:01:11.701Z</time></trkpt><trkpt lat="40.1323472" lon="9.6517937"><ele>271.0</ele><time>2026-04-22T07:01:12.695Z</time></trkpt><trkpt lat="40.1323488" lon="9.6519158"><ele>271.8333333333333</ele><time>2026-04-22T07:01:13.709Z</time></trkpt><trkpt lat="40.132351" lon="9.6520394"><ele>272.66666666666663</ele><time>2026-04-22T07:01:14.706Z</time></trkpt><trkpt lat="40.132362" lon="9.6521564"><ele>273.5</ele><time>2026-04-22T07:01:15.703Z</time></trkpt><trkpt lat="40.1323836" lon="9.6522701"><ele>274.3333333333333</ele><time>2026-04-22T07:01:16.706Z</time></trkpt><trkpt lat="40.1324015" lon="9.6523763"><ele>275.1666666666667</ele><time>2026-04-22T07:01:17.698Z</time></trkpt><trkpt lat="40.1323986" lon="9.6524756"><ele>276.0</ele><time>2026-04-22T07:01:18.705Z</time></trkpt><trkpt lat="40.1323719" lon="9.6525749"><ele>276.0</ele><time>2026-04-22T07:01:19.696Z</time></trkpt><trkpt lat="40.1323428" lon="9.6526783"><ele>276.0</ele><time>2026-04-22T07:01:20.693Z</time></trkpt><trkpt lat="40.1322958" lon="9.652783"><ele>276.0</ele><time>2026-04-22T07:01:21.694Z</time></trkpt><trkpt lat="40.1322488" lon="9.6528885"><ele>276.0</ele><time>2026-04-22T07:01:22.709Z</time></trkpt><trkpt lat="40.1322078" lon="9.6529772"><ele>276.0</ele><time>2026-04-22T07:01:23.703Z</time></trkpt><trkpt lat="40.1321707" lon="9.6530669"><ele>276.0</ele><time>2026-04-22T07:01:24.704Z</time></trkpt><trkpt lat="40.1321481" lon="9.6531693"><ele>276.3333333333333</ele><time>2026-04-22T07:01:25.7Z</time></trkpt><trkpt lat="40.1321462" lon="9.6532669"><ele>276.6666666666667</ele><time>2026-04-22T07:01:26.7Z</time></trkpt><trkpt lat="40.1321475" lon="9.653384"><ele>277.0</ele><time>2026-04-22T07:01:27.705Z</time></trkpt><trkpt lat="40.1321586" lon="9.6534949"><ele>277.33333333333337</ele><time>2026-04-22T07:01:28.698Z</time></trkpt><trkpt lat="40.1321804" lon="9.6536019"><ele>277.6666666666667</ele><time>2026-04-22T07:01:29.697Z</time></trkpt><trkpt lat="40.1322186" lon="9.6537049"><ele>278.0</ele><time>2026-04-22T07:01:30.698Z</time></trkpt><trkpt lat="40.1322623" lon="9.6537953"><ele>278.33333333333337</ele><time>2026-04-22T07:01:31.702Z</time></trkpt><trkpt lat="40.1323051" lon="9.6538969"><ele>278.6666666666667</ele><time>2026-04-22T07:01:32.694Z</time></trkpt><trkpt lat="40.1323453" lon="9.6539982"><ele>279.0</ele><time>2026-04-22T07:01:33.695Z</time></trkpt><trkpt lat="40.13238" lon="9.6540905"><ele>279.3333333333333</ele><time>2026-04-22T07:01:34.69Z</time></trkpt><trkpt lat="40.1324172" lon="9.654179"><ele>279.66666666666663</ele><time>2026-04-22T07:01:35.701Z</time></trkpt><trkpt lat="40.1324533" lon="9.6542648"><ele>280.0</ele><time>2026-04-22T07:01:36.698Z</time></trkpt><trkpt lat="40.1324964" lon="9.6543403"><ele>280.0</ele><time>2026-04-22T07:01:37.7Z</time></trkpt><trkpt lat="40.1325409" lon="9.6544056"><ele>280.0</ele><time>2026-04-22T07:01:38.689Z</time></trkpt><trkpt lat="40.1325723" lon="9.6545153"><ele>280.0</ele><time>2026-04-22T07:01:40.689Z</time></trkpt><trkpt lat="40.132508" lon="9.6546012"><ele>280.0</ele><time>2026-04-22T07:01:42.693Z</time></trkpt><trkpt lat="40.1324338" lon="9.6546174"><ele>280.0</ele><time>2026-04-22T07:01:43.705Z</time></trkpt><trkpt lat="40.1323318" lon="9.6546335"><ele>280.0</ele><time>2026-04-22T07:01:44.698Z</time></trkpt><trkpt lat="40.1322306" lon="9.6546567"><ele>280.0</ele><time>2026-04-22T07:01:45.698Z</time></trkpt><trkpt lat="40.1321339" lon="9.6546795"><ele>280.0</ele><time>2026-04-22T07:01:46.701Z</time></trkpt><trkpt lat="40.1320523" lon="9.6546988"><ele>280.0</ele><time>2026-04-22T07:01:47.695Z</time></trkpt><trkpt lat="40.1319787" lon="9.6547162"><ele>280.0</ele><time>2026-04-22T07:01:48.698Z</time></trkpt><trkpt lat="40.1319151" lon="9.6547316"><ele>280.0</ele><time>2026-04-22T07:01:49.697Z</time></trkpt><trkpt lat="40.1318036" lon="9.6547694"><ele>280.0</ele><time>2026-04-22T07:01:51.701Z</time></trkpt><trkpt lat="40.1317235" lon="9.6548967"><ele>280.0</ele><time>2026-04-22T07:01:53.695Z</time></trkpt><trkpt lat="40.1316876" lon="9.6549756"><ele>280.0</ele><time>2026-04-22T07:01:54.686Z</time></trkpt><trkpt lat="40.1316055" lon="9.6550799"><ele>280.0</ele><time>2026-04-22T07:01:56.692Z</time></trkpt><trkpt lat="40.1315399" lon="9.6551024"><ele>280.0</ele><time>2026-04-22T07:01:57.686Z</time></trkpt><trkpt lat="40.1314585" lon="9.6551151"><ele>280.0</ele><time>2026-04-22T07:01:58.692Z</time></trkpt><trkpt lat="40.1313647" lon="9.6551185"><ele>280.0</ele><time>2026-04-22T07:01:59.687Z</time></trkpt><trkpt lat="40.1312764" lon="9.655101"><ele>280.0</ele><time>2026-04-22T07:02:00.695Z</time></trkpt><trkpt lat="40.13119" lon="9.6550745"><ele>280.0</ele><time>2026-04-22T07:02:01.699Z</time></trkpt><trkpt lat="40.1310977" lon="9.6550668"><ele>280.0</ele><time>2026-04-22T07:02:02.691Z</time></trkpt><trkpt lat="40.1310026" lon="9.6550662"><ele>280.0</ele><time>2026-04-22T07:02:03.694Z</time></trkpt><trkpt lat="40.1309016" lon="9.6550796"><ele>280.0</ele><time>2026-04-22T07:02:04.694Z</time></trkpt><trkpt lat="40.1307963" lon="9.6550929"><ele>279.0</ele><time>2026-04-22T07:02:05.693Z</time></trkpt><trkpt lat="40.1307002" lon="9.6551132"><ele>278.0</ele><time>2026-04-22T07:02:06.693Z</time></trkpt><trkpt lat="40.1306131" lon="9.6551377"><ele>277.0</ele><time>2026-04-22T07:02:07.695Z</time></trkpt><trkpt lat="40.1305251" lon="9.6551618"><ele>276.0</ele><time>2026-04-22T07:02:08.704Z</time></trkpt><trkpt lat="40.1304422" lon="9.6551875"><ele>275.0</ele><time>2026-04-22T07:02:09.701Z</time></trkpt><trkpt lat="40.1303588" lon="9.655223"><ele>274.0</ele><time>2026-04-22T07:02:10.694Z</time></trkpt><trkpt lat="40.1302781" lon="9.6552635"><ele>274.2</ele><time>2026-04-22T07:02:11.696Z</time></trkpt><trkpt lat="40.1301892" lon="9.6553006"><ele>274.4</ele><time>2026-04-22T07:02:12.691Z</time></trkpt><trkpt lat="40.1300954" lon="9.6553345"><ele>274.6</ele><time>2026-04-22T07:02:13.712Z</time></trkpt><trkpt lat="40.130004" lon="9.6553618"><ele>274.8</ele><time>2026-04-22T07:02:14.696Z</time></trkpt><trkpt lat="40.1299157" lon="9.6553815"><ele>275.0</ele><time>2026-04-22T07:02:15.7Z</time></trkpt><trkpt lat="40.1298338" lon="9.6554022"><ele>273.8</ele><time>2026-04-22T07:02:16.701Z</time></trkpt><trkpt lat="40.1297574" lon="9.6554169"><ele>272.6</ele><time>2026-04-22T07:02:17.709Z</time></trkpt><trkpt lat="40.129661" lon="9.655484"><ele>271.4</ele><time>2026-04-22T07:02:19.701Z</time></trkpt><trkpt lat="40.1296042" lon="9.6555894"><ele>270.2</ele><time>2026-04-22T07:02:21.701Z</time></trkpt><trkpt lat="40.1295743" lon="9.6557017"><ele>269.0</ele><time>2026-04-22T07:02:23.701Z</time></trkpt><trkpt lat="40.1295777" lon="9.655836"><ele>269.0</ele><time>2026-04-22T07:02:25.706Z</time></trkpt><trkpt lat="40.1295747" lon="9.6559601"><ele>269.0</ele><time>2026-04-22T07:02:27.699Z</time></trkpt><trkpt lat="40.1294893" lon="9.6559739"><ele>269.0</ele><time>2026-04-22T07:02:30.706Z</time></trkpt><trkpt lat="40.1294113" lon="9.6558615"><ele>269.0</ele><time>2026-04-22T07:02:32.705Z</time></trkpt><trkpt lat="40.1293695" lon="9.6557849"><ele>269.0</ele><time>2026-04-22T07:02:33.704Z</time></trkpt><trkpt lat="40.1293321" lon="9.6557145"><ele>269.0</ele><time>2026-04-22T07:02:34.696Z</time></trkpt><trkpt lat="40.1292928" lon="9.6555689"><ele>269.0</ele><time>2026-04-22T07:02:36.698Z</time></trkpt><trkpt lat="40.1293053" lon="9.6554003"><ele>269.0</ele><time>2026-04-22T07:02:38.702Z</time></trkpt><trkpt lat="40.1293068" lon="9.6552519"><ele>269.0</ele><time>2026-04-22T07:02:40.704Z</time></trkpt><trkpt lat="40.1292602" lon="9.6551549"><ele>269.0</ele><time>2026-04-22T07:02:42.704Z</time></trkpt><trkpt lat="40.129166" lon="9.6550843"><ele>269.0</ele><time>2026-04-22T07:02:44.705Z</time></trkpt><trkpt lat="40.1290657" lon="9.6550046"><ele>265.75</ele><time>2026-04-22T07:02:46.705Z</time></trkpt><trkpt lat="40.1289867" lon="9.6549051"><ele>262.5</ele><time>2026-04-22T07:02:48.708Z</time></trkpt><trkpt lat="40.1289013" lon="9.6548194"><ele>259.25</ele><time>2026-04-22T07:02:50.702Z</time></trkpt><trkpt lat="40.1287819" lon="9.6548343"><ele>256.0</ele><time>2026-04-22T07:02:52.702Z</time></trkpt><trkpt lat="40.1286556" lon="9.6548519"><ele>256.0</ele><time>2026-04-22T07:02:54.7Z</time></trkpt><trkpt lat="40.12859" lon="9.6548382"><ele>256.0</ele><time>2026-04-22T07:02:55.702Z</time></trkpt><trkpt lat="40.1284895" lon="9.6547768"><ele>256.0</ele><time>2026-04-22T07:02:57.7Z</time></trkpt><trkpt lat="40.1284006" lon="9.6547932"><ele>256.0</ele><time>2026-04-22T07:02:59.699Z</time></trkpt><trkpt lat="40.1283348" lon="9.6549079"><ele>256.0</ele><time>2026-04-22T07:03:01.696Z</time></trkpt><trkpt lat="40.1282826" lon="9.6549751"><ele>254.66666666666666</ele><time>2026-04-22T07:03:02.694Z</time></trkpt><trkpt lat="40.1282264" lon="9.6550156"><ele>253.33333333333331</ele><time>2026-04-22T07:03:03.698Z</time></trkpt><trkpt lat="40.1281708" lon="9.6550563"><ele>252.0</ele><time>2026-04-22T07:03:04.699Z</time></trkpt><trkpt lat="40.1280799" lon="9.6551408"><ele>250.66666666666669</ele><time>2026-04-22T07:03:06.694Z</time></trkpt><trkpt lat="40.1279956" lon="9.6552096"><ele>249.33333333333334</ele><time>2026-04-22T07:03:08.699Z</time></trkpt><trkpt lat="40.1279118" lon="9.6552127"><ele>248.0</ele><time>2026-04-22T07:03:09.694Z</time></trkpt><trkpt lat="40.1278207" lon="9.6552011"><ele>248.00000000000003</ele><time>2026-04-22T07:03:10.699Z</time></trkpt><trkpt lat="40.1277395" lon="9.6551942"><ele>248.0</ele><time>2026-04-22T07:03:11.697Z</time></trkpt><trkpt lat="40.1276554" lon="9.655188"><ele>248.0</ele><time>2026-04-22T07:03:12.698Z</time></trkpt><trkpt lat="40.1275753" lon="9.6551874"><ele>248.0</ele><time>2026-04-22T07:03:13.709Z</time></trkpt><trkpt lat="40.1275029" lon="9.6551838"><ele>248.00000000000003</ele><time>2026-04-22T07:03:14.7Z</time></trkpt><trkpt lat="40.127432" lon="9.6551803"><ele>248.0</ele><time>2026-04-22T07:03:15.698Z</time></trkpt><trkpt lat="40.1273535" lon="9.6551828"><ele>246.66666666666669</ele><time>2026-04-22T07:03:16.705Z</time></trkpt><trkpt lat="40.1272771" lon="9.6551852"><ele>245.33333333333334</ele><time>2026-04-22T07:03:17.697Z</time></trkpt><trkpt lat="40.1272037" lon="9.6551965"><ele>244.0</ele><time>2026-04-22T07:03:18.701Z</time></trkpt><trkpt lat="40.1271304" lon="9.6552088"><ele>242.66666666666669</ele><time>2026-04-22T07:03:19.697Z</time></trkpt><trkpt lat="40.1270679" lon="9.6552195"><ele>241.33333333333334</ele><time>2026-04-22T07:03:20.7Z</time></trkpt><trkpt lat="40.1269545" lon="9.6551826"><ele>240.0</ele><time>2026-04-22T07:03:22.712Z</time></trkpt><trkpt lat="40.1268798" lon="9.6550931"><ele>240.0</ele><time>2026-04-22T07:03:24.706Z</time></trkpt><trkpt lat="40.126797" lon="9.6550602"><ele>240.0</ele><time>2026-04-22T07:03:26.698Z</time></trkpt><trkpt lat="40.1266795" lon="9.6551081"><ele>240.0</ele><time>2026-04-22T07:03:28.707Z</time></trkpt><trkpt lat="40.126568" lon="9.6551179"><ele>240.0</ele><time>2026-04-22T07:03:30.703Z</time></trkpt><trkpt lat="40.1264616" lon="9.6550501"><ele>240.0</ele><time>2026-04-22T07:03:32.711Z</time></trkpt><trkpt lat="40.1264031" lon="9.6550076"><ele>239.83333333333334</ele><time>2026-04-22T07:03:33.705Z</time></trkpt><trkpt lat="40.1263288" lon="9.6549729"><ele>239.66666666666669</ele><time>2026-04-22T07:03:34.704Z</time></trkpt><trkpt lat="40.1262558" lon="9.6549612"><ele>239.5</ele><time>2026-04-22T07:03:35.71Z</time></trkpt><trkpt lat="40.1261519" lon="9.6549937"><ele>239.33333333333334</ele><time>2026-04-22T07:03:37.702Z</time></trkpt><trkpt lat="40.1260865" lon="9.6550975"><ele>239.16666666666669</ele><time>2026-04-22T07:03:39.704Z</time></trkpt><trkpt lat="40.1260211" lon="9.6550986"><ele>239.0</ele><time>2026-04-22T07:03:41.709Z</time></trkpt><trkpt lat="40.1259804" lon="9.6549617"><ele>239.00000000000003</ele><time>2026-04-22T07:03:43.716Z</time></trkpt><trkpt lat="40.1259637" lon="9.6548647"><ele>239.0</ele><time>2026-04-22T07:03:44.698Z</time></trkpt><trkpt lat="40.1259253" lon="9.654788"><ele>239.0</ele><time>2026-04-22T07:03:45.701Z</time></trkpt><trkpt lat="40.125793" lon="9.6547474"><ele>239.0</ele><time>2026-04-22T07:03:47.702Z</time></trkpt><trkpt lat="40.1257267" lon="9.6547578"><ele>239.00000000000003</ele><time>2026-04-22T07:03:48.709Z</time></trkpt><trkpt lat="40.1256574" lon="9.6547929"><ele>239.0</ele><time>2026-04-22T07:03:49.704Z</time></trkpt><trkpt lat="40.1255961" lon="9.6548333"><ele>239.79999999999998</ele><time>2026-04-22T07:03:50.701Z</time></trkpt><trkpt lat="40.1254923" lon="9.6548901"><ele>240.59999999999997</ele><time>2026-04-22T07:03:52.726Z</time></trkpt><trkpt lat="40.1254143" lon="9.6548499"><ele>241.4</ele><time>2026-04-22T07:03:54.715Z</time></trkpt><trkpt lat="40.1253741" lon="9.6547624"><ele>242.2</ele><time>2026-04-22T07:03:56.701Z</time></trkpt><trkpt lat="40.1253944" lon="9.6546228"><ele>243.0</ele><time>2026-04-22T07:03:58.693Z</time></trkpt><trkpt lat="40.1254277" lon="9.6545379"><ele>243.0</ele><time>2026-04-22T07:03:59.698Z</time></trkpt><trkpt lat="40.1254633" lon="9.6544491"><ele>243.0</ele><time>2026-04-22T07:04:00.698Z</time></trkpt><trkpt lat="40.1255052" lon="9.6543682"><ele>243.0</ele><time>2026-04-22T07:04:01.702Z</time></trkpt><trkpt lat="40.1255615" lon="9.6542535"><ele>243.0</ele><time>2026-04-22T07:04:03.711Z</time></trkpt><trkpt lat="40.1255531" lon="9.6541375"><ele>243.0</ele><time>2026-04-22T07:04:05.696Z</time></trkpt><trkpt lat="40.1255199" lon="9.6540665"><ele>243.0</ele><time>2026-04-22T07:04:06.703Z</time></trkpt><trkpt lat="40.1254789" lon="9.6539901"><ele>243.0</ele><time>2026-04-22T07:04:07.7Z</time></trkpt><trkpt lat="40.1253763" lon="9.6539042"><ele>243.0</ele><time>2026-04-22T07:04:09.71Z</time></trkpt><trkpt lat="40.1253189" lon="9.6538196"><ele>243.0</ele><time>2026-04-22T07:04:11.71Z</time></trkpt><trkpt lat="40.1252753" lon="9.6536518"><ele>243.0</ele><time>2026-04-22T07:04:13.722Z</time></trkpt><trkpt lat="40.1252387" lon="9.6535696"><ele>243.0</ele><time>2026-04-22T07:04:14.705Z</time></trkpt><trkpt lat="40.1251884" lon="9.6535046"><ele>243.0</ele><time>2026-04-22T07:04:15.711Z</time></trkpt><trkpt lat="40.1251091" lon="9.6534295"><ele>243.0</ele><time>2026-04-22T07:04:17.709Z</time></trkpt><trkpt lat="40.1250366" lon="9.653476"><ele>243.0</ele><time>2026-04-22T07:04:19.715Z</time></trkpt><trkpt lat="40.1250112" lon="9.6535539"><ele>243.0</ele><time>2026-04-22T07:04:20.707Z</time></trkpt><trkpt lat="40.1249859" lon="9.6536599"><ele>243.0</ele><time>2026-04-22T07:04:21.709Z</time></trkpt><trkpt lat="40.1249652" lon="9.653774"><ele>243.0</ele><time>2026-04-22T07:04:22.705Z</time></trkpt><trkpt lat="40.1249539" lon="9.6538924"><ele>243.0</ele><time>2026-04-22T07:04:23.714Z</time></trkpt><trkpt lat="40.1249402" lon="9.6540067"><ele>243.0</ele><time>2026-04-22T07:04:24.723Z</time></trkpt><trkpt lat="40.1249177" lon="9.6541025"><ele>243.0</ele><time>2026-04-22T07:04:25.702Z</time></trkpt><trkpt lat="40.1248656" lon="9.6542268"><ele>243.0</ele><time>2026-04-22T07:04:27.707Z</time></trkpt><trkpt lat="40.1247678" lon="9.6542764"><ele>243.0</ele><time>2026-04-22T07:04:29.708Z</time></trkpt><trkpt lat="40.1246875" lon="9.6542731"><ele>244.60000000000002</ele><time>2026-04-22T07:04:30.712Z</time></trkpt><trkpt lat="40.1246008" lon="9.6542643"><ele>246.20000000000002</ele><time>2026-04-22T07:04:31.71Z</time></trkpt><trkpt lat="40.1245175" lon="9.6542854"><ele>247.8</ele><time>2026-04-22T07:04:32.712Z</time></trkpt><trkpt lat="40.1244316" lon="9.6543307"><ele>249.4</ele><time>2026-04-22T07:04:33.711Z</time></trkpt><trkpt lat="40.1243409" lon="9.6543816"><ele>251.0</ele><time>2026-04-22T07:04:34.724Z</time></trkpt><trkpt lat="40.1242599" lon="9.6544509"><ele>251.33333333333334</ele><time>2026-04-22T07:04:35.714Z</time></trkpt><trkpt lat="40.1241902" lon="9.6545245"><ele>251.66666666666669</ele><time>2026-04-22T07:04:36.714Z</time></trkpt><trkpt lat="40.1241189" lon="9.6545945"><ele>252.0</ele><time>2026-04-22T07:04:37.717Z</time></trkpt><trkpt lat="40.1240565" lon="9.6546626"><ele>252.33333333333331</ele><time>2026-04-22T07:04:38.714Z</time></trkpt><trkpt lat="40.1239949" lon="9.6547285"><ele>252.66666666666666</ele><time>2026-04-22T07:04:39.712Z</time></trkpt><trkpt lat="40.1239363" lon="9.6547926"><ele>253.0</ele><time>2026-04-22T07:04:40.705Z</time></trkpt><trkpt lat="40.1238691" lon="9.6548617"><ele>253.60000000000002</ele><time>2026-04-22T07:04:41.71Z</time></trkpt><trkpt lat="40.1237954" lon="9.6549286"><ele>254.20000000000002</ele><time>2026-04-22T07:04:42.715Z</time></trkpt><trkpt lat="40.1237245" lon="9.6550017"><ele>254.8</ele><time>2026-04-22T07:04:43.724Z</time></trkpt><trkpt lat="40.1236577" lon="9.6550829"><ele>255.4</ele><time>2026-04-22T07:04:44.723Z</time></trkpt><trkpt lat="40.1235871" lon="9.6551624"><ele>256.0</ele><time>2026-04-22T07:04:45.717Z</time></trkpt><trkpt lat="40.1235167" lon="9.6552313"><ele>256.5</ele><time>2026-04-22T07:04:46.717Z</time></trkpt><trkpt lat="40.123458" lon="9.6552909"><ele>257.0</ele><time>2026-04-22T07:04:47.714Z</time></trkpt><trkpt lat="40.1233824" lon="9.6553313"><ele>257.5</ele><time>2026-04-22T07:04:48.71Z</time></trkpt><trkpt lat="40.1233014" lon="9.6553435"><ele>258.0</ele><time>2026-04-22T07:04:49.714Z</time></trkpt><trkpt lat="40.1232287" lon="9.6553526"><ele>258.5</ele><time>2026-04-22T07:04:50.708Z</time></trkpt><trkpt lat="40.1231629" lon="9.6553818"><ele>259.0</ele><time>2026-04-22T07:04:51.715Z</time></trkpt><trkpt lat="40.1230908" lon="9.655448"><ele>259.4</ele><time>2026-04-22T07:04:52.711Z</time></trkpt><trkpt lat="40.1230206" lon="9.6555283"><ele>259.79999999999995</ele><time>2026-04-22T07:04:53.717Z</time></trkpt><trkpt lat="40.1229503" lon="9.655618"><ele>260.20000000000005</ele><time>2026-04-22T07:04:54.728Z</time></trkpt><trkpt lat="40.122885" lon="9.6557072"><ele>260.6</ele><time>2026-04-22T07:04:55.714Z</time></trkpt><trkpt lat="40.1228201" lon="9.6557966"><ele>261.0</ele><time>2026-04-22T07:04:56.715Z</time></trkpt><trkpt lat="40.1227564" lon="9.6558831"><ele>261.0</ele><time>2026-04-22T07:04:57.709Z</time></trkpt><trkpt lat="40.1226917" lon="9.6559723"><ele>261.0</ele><time>2026-04-22T07:04:58.718Z</time></trkpt><trkpt lat="40.1226139" lon="9.6560508"><ele>261.0</ele><time>2026-04-22T07:04:59.716Z</time></trkpt><trkpt lat="40.1225366" lon="9.6561135"><ele>261.0</ele><time>2026-04-22T07:05:00.735Z</time></trkpt><trkpt lat="40.1224553" lon="9.6561685"><ele>261.0</ele><time>2026-04-22T07:05:01.71Z</time></trkpt><trkpt lat="40.1223718" lon="9.6562291"><ele>262.0</ele><time>2026-04-22T07:05:02.716Z</time></trkpt><trkpt lat="40.1222923" lon="9.6562896"><ele>263.0</ele><time>2026-04-22T07:05:03.714Z</time></trkpt><trkpt lat="40.1222148" lon="9.6563417"><ele>264.0</ele><time>2026-04-22T07:05:04.738Z</time></trkpt><trkpt lat="40.1221378" lon="9.6564031"><ele>265.0</ele><time>2026-04-22T07:05:05.711Z</time></trkpt><trkpt lat="40.1220536" lon="9.656465"><ele>266.0</ele><time>2026-04-22T07:05:06.715Z</time></trkpt><trkpt lat="40.1219571" lon="9.6565206"><ele>266.0</ele><time>2026-04-22T07:05:07.72Z</time></trkpt><trkpt lat="40.1218621" lon="9.6565661"><ele>266.0</ele><time>2026-04-22T07:05:08.713Z</time></trkpt><trkpt lat="40.1217665" lon="9.6566075"><ele>266.0</ele><time>2026-04-22T07:05:09.73Z</time></trkpt><trkpt lat="40.1216811" lon="9.6566464"><ele>266.0</ele><time>2026-04-22T07:05:10.717Z</time></trkpt><trkpt lat="40.1215955" lon="9.6566954"><ele>266.0</ele><time>2026-04-22T07:05:11.715Z</time></trkpt><trkpt lat="40.1215158" lon="9.6567724"><ele>264.6666666666667</ele><time>2026-04-22T07:05:12.721Z</time></trkpt><trkpt lat="40.1214335" lon="9.6568489"><ele>263.33333333333337</ele><time>2026-04-22T07:05:13.731Z</time></trkpt><trkpt lat="40.1213532" lon="9.6569035"><ele>262.0</ele><time>2026-04-22T07:05:14.741Z</time></trkpt><trkpt lat="40.1212791" lon="9.6569492"><ele>260.6666666666667</ele><time>2026-04-22T07:05:15.722Z</time></trkpt><trkpt lat="40.1212067" lon="9.6569932"><ele>259.3333333333333</ele><time>2026-04-22T07:05:16.724Z</time></trkpt><trkpt lat="40.1211425" lon="9.6570513"><ele>258.0</ele><time>2026-04-22T07:05:17.742Z</time></trkpt><trkpt lat="40.1210944" lon="9.6571115"><ele>260.1666666666667</ele><time>2026-04-22T07:05:18.744Z</time></trkpt><trkpt lat="40.1209877" lon="9.6571507"><ele>262.3333333333333</ele><time>2026-04-22T07:05:20.735Z</time></trkpt><trkpt lat="40.1209113" lon="9.6571285"><ele>264.5</ele><time>2026-04-22T07:05:21.71Z</time></trkpt><trkpt lat="40.1208462" lon="9.6570922"><ele>266.66666666666663</ele><time>2026-04-22T07:05:22.71Z</time></trkpt><trkpt lat="40.1207807" lon="9.6570841"><ele>268.8333333333333</ele><time>2026-04-22T07:05:23.709Z</time></trkpt><trkpt lat="40.1207148" lon="9.6570764"><ele>271.0</ele><time>2026-04-22T07:05:24.717Z</time></trkpt><trkpt lat="40.1206018" lon="9.657015"><ele>271.0</ele><time>2026-04-22T07:05:26.707Z</time></trkpt><trkpt lat="40.1205212" lon="9.6569482"><ele>271.0</ele><time>2026-04-22T07:05:28.712Z</time></trkpt><trkpt lat="40.1204438" lon="9.6569771"><ele>271.0</ele><time>2026-04-22T07:05:30.72Z</time></trkpt><trkpt lat="40.1203493" lon="9.6569744"><ele>271.0</ele><time>2026-04-22T07:05:32.715Z</time></trkpt><trkpt lat="40.1202806" lon="9.6568586"><ele>271.0</ele><time>2026-04-22T07:05:34.717Z</time></trkpt><trkpt lat="40.1202513" lon="9.6567752"><ele>269.0</ele><time>2026-04-22T07:05:35.718Z</time></trkpt><trkpt lat="40.1202056" lon="9.6566403"><ele>267.0</ele><time>2026-04-22T07:05:37.732Z</time></trkpt><trkpt lat="40.1201154" lon="9.6566266"><ele>265.0</ele><time>2026-04-22T07:05:39.719Z</time></trkpt><trkpt lat="40.1200071" lon="9.6567058"><ele>263.0</ele><time>2026-04-22T07:05:41.702Z</time></trkpt><trkpt lat="40.119948" lon="9.6567765"><ele>261.0</ele><time>2026-04-22T07:05:42.704Z</time></trkpt><trkpt lat="40.1198953" lon="9.6568453"><ele>261.0</ele><time>2026-04-22T07:05:43.71Z</time></trkpt><trkpt lat="40.1197841" lon="9.6569089"><ele>261.0</ele><time>2026-04-22T07:05:45.708Z</time></trkpt><trkpt lat="40.1196614" lon="9.6569182"><ele>261.0</ele><time>2026-04-22T07:05:47.703Z</time></trkpt><trkpt lat="40.1195973" lon="9.6569317"><ele>261.0</ele><time>2026-04-22T07:05:48.706Z</time></trkpt><trkpt lat="40.1194954" lon="9.6569282"><ele>261.0</ele><time>2026-04-22T07:05:50.709Z</time></trkpt><trkpt lat="40.1194535" lon="9.6568336"><ele>261.0</ele><time>2026-04-22T07:05:52.707Z</time></trkpt><trkpt lat="40.1195" lon="9.6567137"><ele>261.0</ele><time>2026-04-22T07:05:54.709Z</time></trkpt><trkpt lat="40.1195418" lon="9.6566055"><ele>261.0</ele><time>2026-04-22T07:05:56.713Z</time></trkpt><trkpt lat="40.1194808" lon="9.6565186"><ele>261.0</ele><time>2026-04-22T07:05:58.723Z</time></trkpt><trkpt lat="40.1194085" lon="9.6564888"><ele>261.0</ele><time>2026-04-22T07:05:59.73Z</time></trkpt><trkpt lat="40.1193374" lon="9.6564626"><ele>261.0</ele><time>2026-04-22T07:06:00.716Z</time></trkpt><trkpt lat="40.119271" lon="9.6564421"><ele>261.0</ele><time>2026-04-22T07:06:01.717Z</time></trkpt><trkpt lat="40.1191488" lon="9.6564188"><ele>261.0</ele><time>2026-04-22T07:06:03.714Z</time></trkpt><trkpt lat="40.1190419" lon="9.6564465"><ele>261.0</ele><time>2026-04-22T07:06:05.7Z</time></trkpt><trkpt lat="40.1189487" lon="9.6565515"><ele>261.0</ele><time>2026-04-22T07:06:07.704Z</time></trkpt><trkpt lat="40.1189048" lon="9.6566172"><ele>261.0</ele><time>2026-04-22T07:06:08.704Z</time></trkpt><trkpt lat="40.1188621" lon="9.656683"><ele>262.40000000000003</ele><time>2026-04-22T07:06:09.705Z</time></trkpt><trkpt lat="40.1187889" lon="9.6567602"><ele>263.8</ele><time>2026-04-22T07:06:11.702Z</time></trkpt><trkpt lat="40.1186963" lon="9.6568039"><ele>265.20000000000005</ele><time>2026-04-22T07:06:13.706Z</time></trkpt><trkpt lat="40.1186377" lon="9.6568978"><ele>266.6</ele><time>2026-04-22T07:06:15.701Z</time></trkpt><trkpt lat="40.1185713" lon="9.6570272"><ele>268.0</ele><time>2026-04-22T07:06:17.701Z</time></trkpt><trkpt lat="40.1184622" lon="9.6571027"><ele>268.0</ele><time>2026-04-22T07:06:19.701Z</time></trkpt><trkpt lat="40.1183444" lon="9.6570763"><ele>268.0</ele><time>2026-04-22T07:06:21.699Z</time></trkpt><trkpt lat="40.1182647" lon="9.6569566"><ele>268.0</ele><time>2026-04-22T07:06:23.698Z</time></trkpt><trkpt lat="40.1182432" lon="9.6568721"><ele>268.0</ele><time>2026-04-22T07:06:24.697Z</time></trkpt><trkpt lat="40.1182325" lon="9.6567621"><ele>268.0</ele><time>2026-04-22T07:06:25.704Z</time></trkpt><trkpt lat="40.1182315" lon="9.6566525"><ele>269.5</ele><time>2026-04-22T07:06:26.699Z</time></trkpt><trkpt lat="40.1182227" lon="9.6565583"><ele>271.0</ele><time>2026-04-22T07:06:27.7Z</time></trkpt><trkpt lat="40.118175" lon="9.6564262"><ele>272.5</ele><time>2026-04-22T07:06:29.699Z</time></trkpt><trkpt lat="40.1180783" lon="9.6563866"><ele>274.0</ele><time>2026-04-22T07:06:31.704Z</time></trkpt><trkpt lat="40.1180142" lon="9.6564084"><ele>275.5</ele><time>2026-04-22T07:06:32.699Z</time></trkpt><trkpt lat="40.1179391" lon="9.6564505"><ele>277.0</ele><time>2026-04-22T07:06:33.698Z</time></trkpt><trkpt lat="40.1178643" lon="9.6564943"><ele>277.0</ele><time>2026-04-22T07:06:34.697Z</time></trkpt><trkpt lat="40.117804" lon="9.6565237"><ele>277.0</ele><time>2026-04-22T07:06:35.703Z</time></trkpt><trkpt lat="40.1177196" lon="9.6565348"><ele>277.0</ele><time>2026-04-22T07:06:37.704Z</time></trkpt><trkpt lat="40.1176664" lon="9.6564849"><ele>277.0</ele><time>2026-04-22T07:07:27.722Z</time></trkpt><trkpt lat="40.1176496" lon="9.6563825"><ele>277.0</ele><time>2026-04-22T07:07:29.709Z</time></trkpt><trkpt lat="40.1176695" lon="9.6562849"><ele>277.0</ele><time>2026-04-22T07:07:31.729Z</time></trkpt><trkpt lat="40.1176386" lon="9.6561706"><ele>277.0</ele><time>2026-04-22T07:07:34.719Z</time></trkpt><trkpt lat="40.1175782" lon="9.6561455"><ele>277.0</ele><time>2026-04-22T07:07:42.719Z</time></trkpt><trkpt lat="40.1175159" lon="9.656177"><ele>277.0</ele><time>2026-04-22T07:07:45.704Z</time></trkpt><trkpt lat="40.1173869" lon="9.6562074"><ele>277.0</ele><time>2026-04-22T07:07:47.708Z</time></trkpt><trkpt lat="40.1172952" lon="9.6562182"><ele>277.0</ele><time>2026-04-22T07:07:48.705Z</time></trkpt><trkpt lat="40.117204" lon="9.6562354"><ele>277.0</ele><time>2026-04-22T07:07:49.711Z</time></trkpt><trkpt lat="40.1171161" lon="9.6562519"><ele>277.66666666666663</ele><time>2026-04-22T07:07:50.712Z</time></trkpt><trkpt lat="40.1170464" lon="9.6562603"><ele>278.3333333333333</ele><time>2026-04-22T07:07:51.708Z</time></trkpt><trkpt lat="40.1169804" lon="9.6562589"><ele>279.0</ele><time>2026-04-22T07:07:52.702Z</time></trkpt><trkpt lat="40.1168866" lon="9.6561943"><ele>279.6666666666667</ele><time>2026-04-22T07:07:54.706Z</time></trkpt><trkpt lat="40.1167882" lon="9.6561054"><ele>280.33333333333337</ele><time>2026-04-22T07:07:56.709Z</time></trkpt><trkpt lat="40.1167181" lon="9.6560741"><ele>281.0</ele><time>2026-04-22T07:07:57.711Z</time></trkpt><trkpt lat="40.1166536" lon="9.6560686"><ele>281.83333333333337</ele><time>2026-04-22T07:07:58.706Z</time></trkpt><trkpt lat="40.1165341" lon="9.6561233"><ele>282.6666666666667</ele><time>2026-04-22T07:08:00.706Z</time></trkpt><trkpt lat="40.1164736" lon="9.6562006"><ele>283.5</ele><time>2026-04-22T07:08:01.704Z</time></trkpt><trkpt lat="40.1164195" lon="9.6562595"><ele>284.3333333333333</ele><time>2026-04-22T07:08:02.704Z</time></trkpt><trkpt lat="40.1163423" lon="9.6562941"><ele>285.16666666666663</ele><time>2026-04-22T07:08:03.702Z</time></trkpt><trkpt lat="40.1162615" lon="9.6563198"><ele>286.0</ele><time>2026-04-22T07:08:04.704Z</time></trkpt><trkpt lat="40.1161831" lon="9.6563398"><ele>286.0</ele><time>2026-04-22T07:08:05.705Z</time></trkpt><trkpt lat="40.1161093" lon="9.6563574"><ele>286.0</ele><time>2026-04-22T07:08:06.703Z</time></trkpt><trkpt lat="40.1160269" lon="9.6563821"><ele>286.0</ele><time>2026-04-22T07:08:07.703Z</time></trkpt><trkpt lat="40.1159541" lon="9.6564113"><ele>286.0</ele><time>2026-04-22T07:08:08.706Z</time></trkpt><trkpt lat="40.1158822" lon="9.65645"><ele>286.0</ele><time>2026-04-22T07:08:09.703Z</time></trkpt><trkpt lat="40.1158116" lon="9.6565014"><ele>286.0</ele><time>2026-04-22T07:08:10.706Z</time></trkpt><trkpt lat="40.1157462" lon="9.6565562"><ele>286.3333333333333</ele><time>2026-04-22T07:08:11.705Z</time></trkpt><trkpt lat="40.1156785" lon="9.6565958"><ele>286.66666666666663</ele><time>2026-04-22T07:08:12.699Z</time></trkpt><trkpt lat="40.1156017" lon="9.6566161"><ele>287.0</ele><time>2026-04-22T07:08:13.71Z</time></trkpt><trkpt lat="40.1155303" lon="9.6566222"><ele>287.3333333333333</ele><time>2026-04-22T07:08:14.699Z</time></trkpt><trkpt lat="40.115465" lon="9.6566136"><ele>287.6666666666667</ele><time>2026-04-22T07:08:15.703Z</time></trkpt><trkpt lat="40.1153875" lon="9.6565896"><ele>288.0</ele><time>2026-04-22T07:08:16.713Z</time></trkpt><trkpt lat="40.1153089" lon="9.6565663"><ele>288.0</ele><time>2026-04-22T07:08:17.711Z</time></trkpt><trkpt lat="40.1152178" lon="9.6565502"><ele>288.0</ele><time>2026-04-22T07:08:18.709Z</time></trkpt><trkpt lat="40.1151267" lon="9.656549"><ele>288.0</ele><time>2026-04-22T07:08:19.713Z</time></trkpt><trkpt lat="40.1150272" lon="9.656554"><ele>288.0</ele><time>2026-04-22T07:08:20.711Z</time></trkpt><trkpt lat="40.114937" lon="9.6565679"><ele>288.0</ele><time>2026-04-22T07:08:21.707Z</time></trkpt><trkpt lat="40.1148571" lon="9.6565865"><ele>288.8333333333333</ele><time>2026-04-22T07:08:22.707Z</time></trkpt><trkpt lat="40.1147867" lon="9.6566105"><ele>289.6666666666667</ele><time>2026-04-22T07:08:23.71Z</time></trkpt><trkpt lat="40.1147173" lon="9.6566506"><ele>290.5</ele><time>2026-04-22T07:08:24.705Z</time></trkpt><trkpt lat="40.1146364" lon="9.6566909"><ele>291.33333333333337</ele><time>2026-04-22T07:08:25.7Z</time></trkpt><trkpt lat="40.1145564" lon="9.6567364"><ele>292.1666666666667</ele><time>2026-04-22T07:08:26.699Z</time></trkpt><trkpt lat="40.1144734" lon="9.6567798"><ele>293.0</ele><time>2026-04-22T07:08:27.707Z</time></trkpt><trkpt lat="40.1143954" lon="9.6568291"><ele>293.0</ele><time>2026-04-22T07:08:28.702Z</time></trkpt><trkpt lat="40.1143116" lon="9.6568883"><ele>293.0</ele><time>2026-04-22T07:08:29.701Z</time></trkpt><trkpt lat="40.1142316" lon="9.6569319"><ele>293.0</ele><time>2026-04-22T07:08:30.709Z</time></trkpt><trkpt lat="40.1141425" lon="9.6569754"><ele>293.0</ele><time>2026-04-22T07:08:31.706Z</time></trkpt><trkpt lat="40.114063" lon="9.6570177"><ele>293.0</ele><time>2026-04-22T07:08:32.695Z</time></trkpt><trkpt lat="40.1139825" lon="9.6570531"><ele>293.0</ele><time>2026-04-22T07:08:33.697Z</time></trkpt><trkpt lat="40.1138999" lon="9.6570879"><ele>295.4</ele><time>2026-04-22T07:08:34.703Z</time></trkpt><trkpt lat="40.1138108" lon="9.6571125"><ele>297.8</ele><time>2026-04-22T07:08:35.701Z</time></trkpt><trkpt lat="40.1137314" lon="9.6571323"><ele>300.2</ele><time>2026-04-22T07:08:36.7Z</time></trkpt><trkpt lat="40.1136467" lon="9.6571472"><ele>302.6</ele><time>2026-04-22T07:08:37.701Z</time></trkpt><trkpt lat="40.1135463" lon="9.6571625"><ele>305.0</ele><time>2026-04-22T07:08:38.693Z</time></trkpt><trkpt lat="40.1134413" lon="9.6571645"><ele>305.0</ele><time>2026-04-22T07:08:39.698Z</time></trkpt><trkpt lat="40.1133473" lon="9.6571659"><ele>305.0</ele><time>2026-04-22T07:08:40.689Z</time></trkpt><trkpt lat="40.1132603" lon="9.6571603"><ele>305.0</ele><time>2026-04-22T07:08:41.696Z</time></trkpt><trkpt lat="40.1131787" lon="9.6571583"><ele>305.0</ele><time>2026-04-22T07:08:42.696Z</time></trkpt><trkpt lat="40.1130888" lon="9.6571401"><ele>305.0</ele><time>2026-04-22T07:08:43.702Z</time></trkpt><trkpt lat="40.1129959" lon="9.6571018"><ele>304.8</ele><time>2026-04-22T07:08:44.699Z</time></trkpt><trkpt lat="40.1129075" lon="9.657062"><ele>304.6</ele><time>2026-04-22T07:08:45.694Z</time></trkpt><trkpt lat="40.1128081" lon="9.6570269"><ele>304.4</ele><time>2026-04-22T07:08:46.706Z</time></trkpt><trkpt lat="40.1127154" lon="9.6569974"><ele>304.2</ele><time>2026-04-22T07:08:47.697Z</time></trkpt><trkpt lat="40.1126275" lon="9.6569684"><ele>304.0</ele><time>2026-04-22T07:08:48.699Z</time></trkpt><trkpt lat="40.1125389" lon="9.6569449"><ele>304.0</ele><time>2026-04-22T07:08:49.702Z</time></trkpt><trkpt lat="40.1124461" lon="9.6569414"><ele>304.0</ele><time>2026-04-22T07:08:50.692Z</time></trkpt><trkpt lat="40.1123555" lon="9.6569721"><ele>304.0</ele><time>2026-04-22T07:08:51.697Z</time></trkpt><trkpt lat="40.1122687" lon="9.6570315"><ele>304.0</ele><time>2026-04-22T07:08:52.697Z</time></trkpt><trkpt lat="40.1121894" lon="9.6571051"><ele>304.0</ele><time>2026-04-22T07:08:53.694Z</time></trkpt><trkpt lat="40.1121131" lon="9.65718"><ele>305.0</ele><time>2026-04-22T07:08:54.697Z</time></trkpt><trkpt lat="40.1120302" lon="9.6572393"><ele>306.0</ele><time>2026-04-22T07:08:55.698Z</time></trkpt><trkpt lat="40.111941" lon="9.6572955"><ele>307.0</ele><time>2026-04-22T07:08:56.696Z</time></trkpt><trkpt lat="40.1118522" lon="9.6573618"><ele>308.0</ele><time>2026-04-22T07:08:57.698Z</time></trkpt><trkpt lat="40.1117663" lon="9.6574275"><ele>309.0</ele><time>2026-04-22T07:08:58.705Z</time></trkpt><trkpt lat="40.1117077" lon="9.6574901"><ele>309.00000000000006</ele><time>2026-04-22T07:08:59.69Z</time></trkpt><trkpt lat="40.1116555" lon="9.6575471"><ele>309.0</ele><time>2026-04-22T07:09:00.707Z</time></trkpt><trkpt lat="40.1115999" lon="9.6575891"><ele>309.0</ele><time>2026-04-22T07:09:01.692Z</time></trkpt><trkpt lat="40.1115353" lon="9.6576104"><ele>309.0</ele><time>2026-04-22T07:09:02.699Z</time></trkpt><trkpt lat="40.1114616" lon="9.6576015"><ele>309.0</ele><time>2026-04-22T07:09:03.697Z</time></trkpt><trkpt lat="40.1114002" lon="9.6575817"><ele>309.00000000000006</ele><time>2026-04-22T07:09:04.694Z</time></trkpt><trkpt lat="40.1113057" lon="9.657585"><ele>309.0</ele><time>2026-04-22T07:09:06.697Z</time></trkpt><trkpt lat="40.1112368" lon="9.6576226"><ele>310.0</ele><time>2026-04-22T07:09:08.7Z</time></trkpt><trkpt lat="40.1111987" lon="9.6575324"><ele>311.0</ele><time>2026-04-22T07:09:10.707Z</time></trkpt><trkpt lat="40.1112482" lon="9.6574231"><ele>312.0</ele><time>2026-04-22T07:09:12.698Z</time></trkpt><trkpt lat="40.1113449" lon="9.657322"><ele>313.0</ele><time>2026-04-22T07:09:14.694Z</time></trkpt><trkpt lat="40.1114093" lon="9.6572535"><ele>314.0</ele><time>2026-04-22T07:09:15.709Z</time></trkpt><trkpt lat="40.1114571" lon="9.6571776"><ele>314.0</ele><time>2026-04-22T07:09:16.704Z</time></trkpt><trkpt lat="40.1115038" lon="9.6570963"><ele>314.0</ele><time>2026-04-22T07:09:17.7Z</time></trkpt><trkpt lat="40.111546" lon="9.6570164"><ele>314.0</ele><time>2026-04-22T07:09:18.705Z</time></trkpt><trkpt lat="40.1115813" lon="9.6569467"><ele>314.0</ele><time>2026-04-22T07:09:19.706Z</time></trkpt><trkpt lat="40.1116286" lon="9.6568428"><ele>314.0</ele><time>2026-04-22T07:09:21.706Z</time></trkpt><trkpt lat="40.1115742" lon="9.6567685"><ele>314.0</ele><time>2026-04-22T07:09:24.704Z</time></trkpt><trkpt lat="40.1114634" lon="9.6568444"><ele>314.0</ele><time>2026-04-22T07:09:26.71Z</time></trkpt><trkpt lat="40.1114118" lon="9.6569162"><ele>314.0</ele><time>2026-04-22T07:09:27.708Z</time></trkpt><trkpt lat="40.1113556" lon="9.6569563"><ele>314.0</ele><time>2026-04-22T07:09:28.709Z</time></trkpt><trkpt lat="40.1112605" lon="9.6569113"><ele>314.0</ele><time>2026-04-22T07:09:30.702Z</time></trkpt><trkpt lat="40.1112007" lon="9.6568432"><ele>314.0</ele><time>2026-04-22T07:09:32.704Z</time></trkpt><trkpt lat="40.1110916" lon="9.6568278"><ele>314.0</ele><time>2026-04-22T07:09:34.704Z</time></trkpt><trkpt lat="40.1110154" lon="9.6568269"><ele>314.0</ele><time>2026-04-22T07:09:35.7Z</time></trkpt><trkpt lat="40.110934" lon="9.6568302"><ele>314.0</ele><time>2026-04-22T07:09:36.705Z</time></trkpt><trkpt lat="40.1108413" lon="9.6568347"><ele>314.0</ele><time>2026-04-22T07:09:37.708Z</time></trkpt><trkpt lat="40.1107611" lon="9.6568216"><ele>314.0</ele><time>2026-04-22T07:09:38.706Z</time></trkpt><trkpt lat="40.1106875" lon="9.6568131"><ele>314.0</ele><time>2026-04-22T07:09:39.704Z</time></trkpt><trkpt lat="40.1106175" lon="9.6568255"><ele>314.0</ele><time>2026-04-22T07:09:40.703Z</time></trkpt><trkpt lat="40.1105517" lon="9.6568448"><ele>314.83333333333337</ele><time>2026-04-22T07:09:41.707Z</time></trkpt><trkpt lat="40.110432" lon="9.6568818"><ele>315.6666666666667</ele><time>2026-04-22T07:09:43.71Z</time></trkpt><trkpt lat="40.1103743" lon="9.6569405"><ele>316.5</ele><time>2026-04-22T07:09:44.71Z</time></trkpt><trkpt lat="40.1103226" lon="9.6570076"><ele>317.3333333333333</ele><time>2026-04-22T07:09:45.708Z</time></trkpt><trkpt lat="40.1102643" lon="9.6570849"><ele>318.16666666666663</ele><time>2026-04-22T07:09:46.71Z</time></trkpt><trkpt lat="40.1101973" lon="9.6571697"><ele>319.0</ele><time>2026-04-22T07:09:47.706Z</time></trkpt><trkpt lat="40.1101386" lon="9.6572636"><ele>319.16666666666663</ele><time>2026-04-22T07:09:48.698Z</time></trkpt><trkpt lat="40.1101037" lon="9.6573498"><ele>319.3333333333333</ele><time>2026-04-22T07:09:49.708Z</time></trkpt><trkpt lat="40.1100189" lon="9.6574533"><ele>319.5</ele><time>2026-04-22T07:09:51.698Z</time></trkpt><trkpt lat="40.1099515" lon="9.6574942"><ele>319.6666666666667</ele><time>2026-04-22T07:09:52.698Z</time></trkpt><trkpt lat="40.1098707" lon="9.6575318"><ele>319.83333333333337</ele><time>2026-04-22T07:09:53.707Z</time></trkpt><trkpt lat="40.1097837" lon="9.6575585"><ele>320.0</ele><time>2026-04-22T07:09:54.704Z</time></trkpt><trkpt lat="40.1097024" lon="9.6575894"><ele>321.5</ele><time>2026-04-22T07:09:55.71Z</time></trkpt><trkpt lat="40.109626" lon="9.6576163"><ele>323.0</ele><time>2026-04-22T07:09:56.702Z</time></trkpt><trkpt lat="40.1095526" lon="9.6576528"><ele>324.5</ele><time>2026-04-22T07:09:57.703Z</time></trkpt><trkpt lat="40.1094852" lon="9.6577139"><ele>326.0</ele><time>2026-04-22T07:09:58.697Z</time></trkpt><trkpt lat="40.1094241" lon="9.6577708"><ele>327.5</ele><time>2026-04-22T07:09:59.701Z</time></trkpt><trkpt lat="40.109344" lon="9.6578726"><ele>329.0</ele><time>2026-04-22T07:10:01.699Z</time></trkpt><trkpt lat="40.1092846" lon="9.6580259"><ele>329.0</ele><time>2026-04-22T07:10:03.696Z</time></trkpt><trkpt lat="40.1092508" lon="9.6581206"><ele>329.0</ele><time>2026-04-22T07:10:04.697Z</time></trkpt><trkpt lat="40.1092383" lon="9.6582265"><ele>329.0</ele><time>2026-04-22T07:10:05.704Z</time></trkpt><trkpt lat="40.1092184" lon="9.6583166"><ele>329.0</ele><time>2026-04-22T07:10:06.697Z</time></trkpt><trkpt lat="40.109181" lon="9.6584273"><ele>329.0</ele><time>2026-04-22T07:10:08.7Z</time></trkpt><trkpt lat="40.1090971" lon="9.658497"><ele>329.0</ele><time>2026-04-22T07:10:10.702Z</time></trkpt><trkpt lat="40.1090075" lon="9.658462"><ele>331.0</ele><time>2026-04-22T07:10:12.703Z</time></trkpt><trkpt lat="40.1090116" lon="9.6583104"><ele>333.0</ele><time>2026-04-22T07:10:14.697Z</time></trkpt><trkpt lat="40.1090378" lon="9.6582317"><ele>335.0</ele><time>2026-04-22T07:10:15.691Z</time></trkpt><trkpt lat="40.1090388" lon="9.6580754"><ele>337.0</ele><time>2026-04-22T07:10:17.702Z</time></trkpt><trkpt lat="40.10903" lon="9.6579818"><ele>339.0</ele><time>2026-04-22T07:10:18.695Z</time></trkpt><trkpt lat="40.1090226" lon="9.6578655"><ele>338.8333333333333</ele><time>2026-04-22T07:10:19.701Z</time></trkpt><trkpt lat="40.109023" lon="9.6577564"><ele>338.6666666666667</ele><time>2026-04-22T07:10:20.698Z</time></trkpt><trkpt lat="40.1090311" lon="9.6576536"><ele>338.5</ele><time>2026-04-22T07:10:21.697Z</time></trkpt><trkpt lat="40.1090216" lon="9.6575566"><ele>338.33333333333337</ele><time>2026-04-22T07:10:22.699Z</time></trkpt><trkpt lat="40.1090233" lon="9.6574621"><ele>338.1666666666667</ele><time>2026-04-22T07:10:23.702Z</time></trkpt><trkpt lat="40.1090216" lon="9.6573727"><ele>338.0</ele><time>2026-04-22T07:10:24.7Z</time></trkpt><trkpt lat="40.1089787" lon="9.6572399"><ele>338.0</ele><time>2026-04-22T07:10:26.7Z</time></trkpt><trkpt lat="40.1089234" lon="9.6571994"><ele>338.0</ele><time>2026-04-22T07:10:27.707Z</time></trkpt><trkpt lat="40.1088459" lon="9.6571705"><ele>338.0</ele><time>2026-04-22T07:10:28.704Z</time></trkpt><trkpt lat="40.1087554" lon="9.6571502"><ele>338.0</ele><time>2026-04-22T07:10:29.708Z</time></trkpt><trkpt lat="40.1086622" lon="9.6571265"><ele>338.0</ele><time>2026-04-22T07:10:30.71Z</time></trkpt><trkpt lat="40.1085648" lon="9.6571102"><ele>338.0</ele><time>2026-04-22T07:10:31.706Z</time></trkpt><trkpt lat="40.1084764" lon="9.6570974"><ele>338.0</ele><time>2026-04-22T07:10:32.706Z</time></trkpt><trkpt lat="40.1083904" lon="9.6570624"><ele>338.0</ele><time>2026-04-22T07:10:33.711Z</time></trkpt><trkpt lat="40.1083052" lon="9.6570097"><ele>338.0</ele><time>2026-04-22T07:10:34.71Z</time></trkpt><trkpt lat="40.1082249" lon="9.6569511"><ele>338.0</ele><time>2026-04-22T07:10:35.704Z</time></trkpt><trkpt lat="40.1081412" lon="9.6568918"><ele>338.0</ele><time>2026-04-22T07:10:36.705Z</time></trkpt><trkpt lat="40.1080572" lon="9.656851"><ele>338.0</ele><time>2026-04-22T07:10:37.702Z</time></trkpt><trkpt lat="40.1079738" lon="9.6568169"><ele>338.0</ele><time>2026-04-22T07:10:38.706Z</time></trkpt><trkpt lat="40.10788" lon="9.6567929"><ele>338.0</ele><time>2026-04-22T07:10:39.711Z</time></trkpt><trkpt lat="40.1077906" lon="9.6567833"><ele>338.0</ele><time>2026-04-22T07:10:40.702Z</time></trkpt><trkpt lat="40.1077107" lon="9.6567896"><ele>338.0</ele><time>2026-04-22T07:10:41.706Z</time></trkpt><trkpt lat="40.1076306" lon="9.6567892"><ele>338.0</ele><time>2026-04-22T07:10:42.71Z</time></trkpt><trkpt lat="40.1075408" lon="9.6568003"><ele>338.0</ele><time>2026-04-22T07:10:43.712Z</time></trkpt><trkpt lat="40.1074531" lon="9.6568183"><ele>338.0</ele><time>2026-04-22T07:10:44.711Z</time></trkpt><trkpt lat="40.1073605" lon="9.6568522"><ele>338.0</ele><time>2026-04-22T07:10:45.715Z</time></trkpt><trkpt lat="40.1072682" lon="9.6569042"><ele>338.0</ele><time>2026-04-22T07:10:46.711Z</time></trkpt><trkpt lat="40.1071828" lon="9.6569539"><ele>338.0</ele><time>2026-04-22T07:10:47.705Z</time></trkpt><trkpt lat="40.107104" lon="9.6569987"><ele>339.79999999999995</ele><time>2026-04-22T07:10:48.711Z</time></trkpt><trkpt lat="40.1070164" lon="9.6570437"><ele>341.6</ele><time>2026-04-22T07:10:49.708Z</time></trkpt><trkpt lat="40.1069228" lon="9.6570729"><ele>343.4</ele><time>2026-04-22T07:10:50.705Z</time></trkpt><trkpt lat="40.1068334" lon="9.6570876"><ele>345.20000000000005</ele><time>2026-04-22T07:10:51.706Z</time></trkpt><trkpt lat="40.1067512" lon="9.6571149"><ele>347.0</ele><time>2026-04-22T07:10:52.707Z</time></trkpt><trkpt lat="40.1066551" lon="9.6571402"><ele>347.40000000000003</ele><time>2026-04-22T07:10:53.707Z</time></trkpt><trkpt lat="40.1065613" lon="9.6571828"><ele>347.8</ele><time>2026-04-22T07:10:54.704Z</time></trkpt><trkpt lat="40.1064686" lon="9.657232"><ele>348.2</ele><time>2026-04-22T07:10:55.709Z</time></trkpt><trkpt lat="40.1063773" lon="9.6572961"><ele>348.6</ele><time>2026-04-22T07:10:56.709Z</time></trkpt><trkpt lat="40.1062984" lon="9.6573548"><ele>349.0</ele><time>2026-04-22T07:10:57.698Z</time></trkpt><trkpt lat="40.1062194" lon="9.6573996"><ele>349.0</ele><time>2026-04-22T07:10:58.707Z</time></trkpt><trkpt lat="40.1061327" lon="9.6574449"><ele>349.0</ele><time>2026-04-22T07:10:59.701Z</time></trkpt><trkpt lat="40.106045" lon="9.6574916"><ele>349.0</ele><time>2026-04-22T07:11:00.705Z</time></trkpt><trkpt lat="40.1059593" lon="9.6575459"><ele>349.0</ele><time>2026-04-22T07:11:01.709Z</time></trkpt><trkpt lat="40.1058723" lon="9.6576134"><ele>349.0</ele><time>2026-04-22T07:11:02.71Z</time></trkpt><trkpt lat="40.1057946" lon="9.6576851"><ele>350.0</ele><time>2026-04-22T07:11:03.707Z</time></trkpt><trkpt lat="40.1057193" lon="9.6577645"><ele>351.0</ele><time>2026-04-22T07:11:04.715Z</time></trkpt><trkpt lat="40.105648" lon="9.6578522"><ele>352.0</ele><time>2026-04-22T07:11:05.698Z</time></trkpt><trkpt lat="40.1055822" lon="9.6579438"><ele>353.0</ele><time>2026-04-22T07:11:06.7Z</time></trkpt><trkpt lat="40.1055198" lon="9.6580463"><ele>354.0</ele><time>2026-04-22T07:11:07.702Z</time></trkpt><trkpt lat="40.1054622" lon="9.658145"><ele>354.0</ele><time>2026-04-22T07:11:08.705Z</time></trkpt><trkpt lat="40.1054038" lon="9.6582421"><ele>354.0</ele><time>2026-04-22T07:11:09.708Z</time></trkpt><trkpt lat="40.1053384" lon="9.6583452"><ele>354.0</ele><time>2026-04-22T07:11:10.707Z</time></trkpt><trkpt lat="40.1052681" lon="9.6584337"><ele>354.0</ele><time>2026-04-22T07:11:11.703Z</time></trkpt><trkpt lat="40.1051994" lon="9.658523"><ele>354.0</ele><time>2026-04-22T07:11:12.705Z</time></trkpt><trkpt lat="40.1051338" lon="9.6586258"><ele>354.4</ele><time>2026-04-22T07:11:13.712Z</time></trkpt><trkpt lat="40.1050659" lon="9.6587298"><ele>354.79999999999995</ele><time>2026-04-22T07:11:14.703Z</time></trkpt><trkpt lat="40.1050004" lon="9.6588359"><ele>355.20000000000005</ele><time>2026-04-22T07:11:15.709Z</time></trkpt><trkpt lat="40.1049433" lon="9.6589403"><ele>355.6</ele><time>2026-04-22T07:11:16.708Z</time></trkpt><trkpt lat="40.1048915" lon="9.6590457"><ele>356.0</ele><time>2026-04-22T07:11:17.71Z</time></trkpt><trkpt lat="40.1048379" lon="9.6591539"><ele>356.6</ele><time>2026-04-22T07:11:18.707Z</time></trkpt><trkpt lat="40.1047858" lon="9.6592678"><ele>357.20000000000005</ele><time>2026-04-22T07:11:19.707Z</time></trkpt><trkpt lat="40.1047246" lon="9.6593693"><ele>357.79999999999995</ele><time>2026-04-22T07:11:20.706Z</time></trkpt><trkpt lat="40.1046584" lon="9.6594678"><ele>358.4</ele><time>2026-04-22T07:11:21.713Z</time></trkpt><trkpt lat="40.1045869" lon="9.6595557"><ele>359.0</ele><time>2026-04-22T07:11:22.714Z</time></trkpt><trkpt lat="40.1045106" lon="9.6596389"><ele>359.4</ele><time>2026-04-22T07:11:23.719Z</time></trkpt><trkpt lat="40.104434" lon="9.6597188"><ele>359.79999999999995</ele><time>2026-04-22T07:11:24.713Z</time></trkpt><trkpt lat="40.1043612" lon="9.6597954"><ele>360.20000000000005</ele><time>2026-04-22T07:11:25.719Z</time></trkpt><trkpt lat="40.1043004" lon="9.6598812"><ele>360.6</ele><time>2026-04-22T07:11:26.707Z</time></trkpt><trkpt lat="40.1042381" lon="9.6599659"><ele>361.0</ele><time>2026-04-22T07:11:27.712Z</time></trkpt><trkpt lat="40.1041811" lon="9.6600538"><ele>361.0</ele><time>2026-04-22T07:11:28.708Z</time></trkpt><trkpt lat="40.1041236" lon="9.6601476"><ele>361.0</ele><time>2026-04-22T07:11:29.71Z</time></trkpt><trkpt lat="40.1040662" lon="9.6602436"><ele>361.0</ele><time>2026-04-22T07:11:30.717Z</time></trkpt><trkpt lat="40.1040176" lon="9.6603344"><ele>361.0</ele><time>2026-04-22T07:11:31.718Z</time></trkpt><trkpt lat="40.1039703" lon="9.6604183"><ele>361.0</ele><time>2026-04-22T07:11:32.717Z</time></trkpt><trkpt lat="40.1039231" lon="9.6604926"><ele>361.0</ele><time>2026-04-22T07:11:33.714Z</time></trkpt><trkpt lat="40.1038796" lon="9.6605573"><ele>361.8333333333333</ele><time>2026-04-22T07:11:34.714Z</time></trkpt><trkpt lat="40.1037885" lon="9.6606342"><ele>362.66666666666663</ele><time>2026-04-22T07:11:36.708Z</time></trkpt><trkpt lat="40.1037224" lon="9.6606097"><ele>363.5</ele><time>2026-04-22T07:11:37.714Z</time></trkpt><trkpt lat="40.1036655" lon="9.6605496"><ele>364.3333333333333</ele><time>2026-04-22T07:11:38.718Z</time></trkpt><trkpt lat="40.1036057" lon="9.6604635"><ele>365.1666666666667</ele><time>2026-04-22T07:11:39.724Z</time></trkpt><trkpt lat="40.1035542" lon="9.6603683"><ele>366.0</ele><time>2026-04-22T07:11:40.713Z</time></trkpt><trkpt lat="40.1034902" lon="9.6602765"><ele>366.0</ele><time>2026-04-22T07:11:41.715Z</time></trkpt><trkpt lat="40.1034105" lon="9.660208"><ele>366.0</ele><time>2026-04-22T07:11:42.716Z</time></trkpt><trkpt lat="40.1033229" lon="9.6601502"><ele>366.0</ele><time>2026-04-22T07:11:43.722Z</time></trkpt><trkpt lat="40.1032305" lon="9.6601132"><ele>366.0</ele><time>2026-04-22T07:11:44.715Z</time></trkpt><trkpt lat="40.1031339" lon="9.6600909"><ele>366.0</ele><time>2026-04-22T07:11:45.717Z</time></trkpt><trkpt lat="40.1030483" lon="9.6600717"><ele>366.6666666666667</ele><time>2026-04-22T07:11:46.712Z</time></trkpt><trkpt lat="40.1029623" lon="9.6600466"><ele>367.3333333333333</ele><time>2026-04-22T07:11:47.709Z</time></trkpt><trkpt lat="40.1028786" lon="9.6600196"><ele>368.0</ele><time>2026-04-22T07:11:48.722Z</time></trkpt><trkpt lat="40.1027913" lon="9.6599898"><ele>368.66666666666663</ele><time>2026-04-22T07:11:49.714Z</time></trkpt><trkpt lat="40.1027076" lon="9.6599949"><ele>369.3333333333333</ele><time>2026-04-22T07:11:50.707Z</time></trkpt><trkpt lat="40.1026214" lon="9.6600258"><ele>370.0</ele><time>2026-04-22T07:11:51.711Z</time></trkpt><trkpt lat="40.1025347" lon="9.6600817"><ele>370.0</ele><time>2026-04-22T07:11:52.712Z</time></trkpt><trkpt lat="40.102466" lon="9.6601427"><ele>370.0</ele><time>2026-04-22T07:11:53.714Z</time></trkpt><trkpt lat="40.1023995" lon="9.6601895"><ele>370.0</ele><time>2026-04-22T07:11:54.717Z</time></trkpt><trkpt lat="40.102324" lon="9.6602207"><ele>370.0</ele><time>2026-04-22T07:11:55.717Z</time></trkpt><trkpt lat="40.1022398" lon="9.6602563"><ele>370.0</ele><time>2026-04-22T07:11:56.714Z</time></trkpt><trkpt lat="40.1021543" lon="9.6602927"><ele>370.0</ele><time>2026-04-22T07:11:57.716Z</time></trkpt><trkpt lat="40.1020751" lon="9.6603425"><ele>370.66666666666663</ele><time>2026-04-22T07:11:58.716Z</time></trkpt><trkpt lat="40.1019938" lon="9.660382"><ele>371.3333333333333</ele><time>2026-04-22T07:11:59.712Z</time></trkpt><trkpt lat="40.1019125" lon="9.6604141"><ele>372.0</ele><time>2026-04-22T07:12:00.711Z</time></trkpt><trkpt lat="40.1018313" lon="9.6604243"><ele>372.6666666666667</ele><time>2026-04-22T07:12:01.716Z</time></trkpt><trkpt lat="40.1017566" lon="9.660439"><ele>373.33333333333337</ele><time>2026-04-22T07:12:02.714Z</time></trkpt><trkpt lat="40.1016831" lon="9.6604738"><ele>374.0</ele><time>2026-04-22T07:12:03.711Z</time></trkpt><trkpt lat="40.1016086" lon="9.6605121"><ele>375.1666666666667</ele><time>2026-04-22T07:12:04.704Z</time></trkpt><trkpt lat="40.1015538" lon="9.6605807"><ele>376.33333333333337</ele><time>2026-04-22T07:12:05.71Z</time></trkpt><trkpt lat="40.1015038" lon="9.6606657"><ele>377.5</ele><time>2026-04-22T07:12:06.719Z</time></trkpt><trkpt lat="40.1014597" lon="9.6607601"><ele>378.6666666666667</ele><time>2026-04-22T07:12:07.711Z</time></trkpt><trkpt lat="40.1014032" lon="9.660859"><ele>379.8333333333333</ele><time>2026-04-22T07:12:08.718Z</time></trkpt><trkpt lat="40.1013392" lon="9.660954"><ele>381.0</ele><time>2026-04-22T07:12:09.717Z</time></trkpt><trkpt lat="40.1012712" lon="9.661061"><ele>379.6</ele><time>2026-04-22T07:12:10.707Z</time></trkpt><trkpt lat="40.1012011" lon="9.661151"><ele>378.20000000000005</ele><time>2026-04-22T07:12:11.714Z</time></trkpt><trkpt lat="40.1011266" lon="9.6612343"><ele>376.79999999999995</ele><time>2026-04-22T07:12:12.711Z</time></trkpt><trkpt lat="40.1010468" lon="9.6613211"><ele>375.4</ele><time>2026-04-22T07:12:13.719Z</time></trkpt><trkpt lat="40.10097" lon="9.6614028"><ele>374.0</ele><time>2026-04-22T07:12:14.71Z</time></trkpt><trkpt lat="40.1008902" lon="9.6614731"><ele>374.0</ele><time>2026-04-22T07:12:15.712Z</time></trkpt><trkpt lat="40.1008108" lon="9.6615319"><ele>374.0</ele><time>2026-04-22T07:12:16.714Z</time></trkpt><trkpt lat="40.1007355" lon="9.6615997"><ele>374.0</ele><time>2026-04-22T07:12:17.717Z</time></trkpt><trkpt lat="40.1006584" lon="9.6616541"><ele>374.0</ele><time>2026-04-22T07:12:18.719Z</time></trkpt><trkpt lat="40.1005941" lon="9.6617016"><ele>374.0</ele><time>2026-04-22T07:12:19.71Z</time></trkpt><trkpt lat="40.100497" lon="9.661786"><ele>374.79999999999995</ele><time>2026-04-22T07:12:21.71Z</time></trkpt><trkpt lat="40.1004175" lon="9.6619108"><ele>375.59999999999997</ele><time>2026-04-22T07:12:23.713Z</time></trkpt><trkpt lat="40.1003649" lon="9.661988"><ele>376.4</ele><time>2026-04-22T07:12:24.714Z</time></trkpt><trkpt lat="40.1003048" lon="9.6620723"><ele>377.2</ele><time>2026-04-22T07:12:25.718Z</time></trkpt><trkpt lat="40.1002356" lon="9.6621442"><ele>378.0</ele><time>2026-04-22T07:12:26.712Z</time></trkpt><trkpt lat="40.1001605" lon="9.6622066"><ele>378.0</ele><time>2026-04-22T07:12:27.72Z</time></trkpt><trkpt lat="40.100087" lon="9.6622744"><ele>378.0</ele><time>2026-04-22T07:12:28.713Z</time></trkpt><trkpt lat="40.1000187" lon="9.6623577"><ele>378.0</ele><time>2026-04-22T07:12:29.71Z</time></trkpt><trkpt lat="40.0999588" lon="9.6624569"><ele>378.0</ele><time>2026-04-22T07:12:30.716Z</time></trkpt><trkpt lat="40.0999036" lon="9.6625541"><ele>378.0</ele><time>2026-04-22T07:12:31.721Z</time></trkpt><trkpt lat="40.0998527" lon="9.6626433"><ele>378.6666666666667</ele><time>2026-04-22T07:12:32.708Z</time></trkpt><trkpt lat="40.0997901" lon="9.6627282"><ele>379.3333333333333</ele><time>2026-04-22T07:12:33.717Z</time></trkpt><trkpt lat="40.0997248" lon="9.6628034"><ele>380.0</ele><time>2026-04-22T07:12:34.717Z</time></trkpt><trkpt lat="40.0996564" lon="9.6628727"><ele>380.66666666666663</ele><time>2026-04-22T07:12:35.717Z</time></trkpt><trkpt lat="40.0995947" lon="9.6629391"><ele>381.3333333333333</ele><time>2026-04-22T07:12:36.707Z</time></trkpt><trkpt lat="40.0995373" lon="9.6630262"><ele>382.0</ele><time>2026-04-22T07:12:37.715Z</time></trkpt><trkpt lat="40.099489" lon="9.6631343"><ele>382.0</ele><time>2026-04-22T07:12:38.718Z</time></trkpt><trkpt lat="40.0994325" lon="9.6632307"><ele>382.0</ele><time>2026-04-22T07:12:39.713Z</time></trkpt><trkpt lat="40.0993644" lon="9.663315"><ele>382.0</ele><time>2026-04-22T07:12:40.71Z</time></trkpt><trkpt lat="40.0992906" lon="9.6633949"><ele>382.0</ele><time>2026-04-22T07:12:41.721Z</time></trkpt><trkpt lat="40.0992037" lon="9.6634703"><ele>382.0</ele><time>2026-04-22T07:12:42.717Z</time></trkpt><trkpt lat="40.0991184" lon="9.6635416"><ele>381.40000000000003</ele><time>2026-04-22T07:12:43.725Z</time></trkpt><trkpt lat="40.0990326" lon="9.6636036"><ele>380.8</ele><time>2026-04-22T07:12:44.718Z</time></trkpt><trkpt lat="40.0989488" lon="9.66366"><ele>380.2</ele><time>2026-04-22T07:12:45.718Z</time></trkpt><trkpt lat="40.0988665" lon="9.6637005"><ele>379.6</ele><time>2026-04-22T07:12:46.713Z</time></trkpt><trkpt lat="40.0987874" lon="9.6637419"><ele>379.0</ele><time>2026-04-22T07:12:47.719Z</time></trkpt><trkpt lat="40.0987086" lon="9.6637857"><ele>379.0</ele><time>2026-04-22T07:12:48.713Z</time></trkpt><trkpt lat="40.0986365" lon="9.6638505"><ele>379.0</ele><time>2026-04-22T07:12:49.718Z</time></trkpt><trkpt lat="40.0985575" lon="9.6639334"><ele>379.0</ele><time>2026-04-22T07:12:50.714Z</time></trkpt><trkpt lat="40.0984717" lon="9.6640104"><ele>379.0</ele><time>2026-04-22T07:12:51.716Z</time></trkpt><trkpt lat="40.0983761" lon="9.6640753"><ele>379.0</ele><time>2026-04-22T07:12:52.715Z</time></trkpt><trkpt lat="40.0982741" lon="9.6641128"><ele>379.0</ele><time>2026-04-22T07:12:53.714Z</time></trkpt><trkpt lat="40.0981768" lon="9.6641553"><ele>379.0</ele><time>2026-04-22T07:12:54.709Z</time></trkpt><trkpt lat="40.0980842" lon="9.664211"><ele>379.0</ele><time>2026-04-22T07:12:55.714Z</time></trkpt><trkpt lat="40.0979897" lon="9.6642914"><ele>379.0</ele><time>2026-04-22T07:12:56.712Z</time></trkpt><trkpt lat="40.0979001" lon="9.6643794"><ele>379.0</ele><time>2026-04-22T07:12:57.718Z</time></trkpt><trkpt lat="40.0978142" lon="9.6644671"><ele>379.0</ele><time>2026-04-22T07:12:58.712Z</time></trkpt><trkpt lat="40.0977341" lon="9.6645609"><ele>379.0</ele><time>2026-04-22T07:12:59.715Z</time></trkpt><trkpt lat="40.0976585" lon="9.6646608"><ele>379.0</ele><time>2026-04-22T07:13:00.712Z</time></trkpt><trkpt lat="40.0975786" lon="9.66474"><ele>379.0</ele><time>2026-04-22T07:13:01.716Z</time></trkpt><trkpt lat="40.0974991" lon="9.6648126"><ele>379.0</ele><time>2026-04-22T07:13:02.711Z</time></trkpt><trkpt lat="40.0974218" lon="9.6648848"><ele>378.0</ele><time>2026-04-22T07:13:03.713Z</time></trkpt><trkpt lat="40.0973483" lon="9.6649718"><ele>377.0</ele><time>2026-04-22T07:13:04.711Z</time></trkpt><trkpt lat="40.0972859" lon="9.6650622"><ele>376.0</ele><time>2026-04-22T07:13:05.711Z</time></trkpt><trkpt lat="40.0972106" lon="9.6651563"><ele>375.0</ele><time>2026-04-22T07:13:06.711Z</time></trkpt><trkpt lat="40.0971545" lon="9.6652402"><ele>374.0</ele><time>2026-04-22T07:13:07.714Z</time></trkpt><trkpt lat="40.0971134" lon="9.6653347"><ele>374.0</ele><time>2026-04-22T07:13:08.706Z</time></trkpt><trkpt lat="40.0971007" lon="9.6654395"><ele>374.0</ele><time>2026-04-22T07:13:09.713Z</time></trkpt><trkpt lat="40.0970989" lon="9.6655413"><ele>374.0</ele><time>2026-04-22T07:13:10.705Z</time></trkpt><trkpt lat="40.0971143" lon="9.6656467"><ele>374.0</ele><time>2026-04-22T07:13:11.71Z</time></trkpt><trkpt lat="40.0971464" lon="9.665736"><ele>374.0</ele><time>2026-04-22T07:13:12.709Z</time></trkpt><trkpt lat="40.0971744" lon="9.6658821"><ele>374.0</ele><time>2026-04-22T07:13:14.706Z</time></trkpt><trkpt lat="40.0971439" lon="9.6659608"><ele>374.0</ele><time>2026-04-22T07:13:15.712Z</time></trkpt><trkpt lat="40.097093" lon="9.666052"><ele>374.0</ele><time>2026-04-22T07:13:16.707Z</time></trkpt><trkpt lat="40.0970357" lon="9.6661414"><ele>374.0</ele><time>2026-04-22T07:13:17.717Z</time></trkpt><trkpt lat="40.0969792" lon="9.6662285"><ele>374.0</ele><time>2026-04-22T07:13:18.709Z</time></trkpt><trkpt lat="40.0969164" lon="9.6663149"><ele>374.0</ele><time>2026-04-22T07:13:19.706Z</time></trkpt><trkpt lat="40.0968467" lon="9.666397"><ele>374.0</ele><time>2026-04-22T07:13:20.717Z</time></trkpt><trkpt lat="40.0967825" lon="9.6664603"><ele>374.1666666666667</ele><time>2026-04-22T07:13:21.706Z</time></trkpt><trkpt lat="40.0967152" lon="9.6665199"><ele>374.33333333333337</ele><time>2026-04-22T07:13:22.71Z</time></trkpt><trkpt lat="40.0966502" lon="9.6665787"><ele>374.5</ele><time>2026-04-22T07:13:23.71Z</time></trkpt><trkpt lat="40.0965807" lon="9.6666421"><ele>374.6666666666667</ele><time>2026-04-22T07:13:24.709Z</time></trkpt><trkpt lat="40.0965" lon="9.6666926"><ele>374.8333333333333</ele><time>2026-04-22T07:13:25.716Z</time></trkpt><trkpt lat="40.0964271" lon="9.6667453"><ele>375.0</ele><time>2026-04-22T07:13:26.713Z</time></trkpt><trkpt lat="40.0963505" lon="9.6667916"><ele>374.0</ele><time>2026-04-22T07:13:27.712Z</time></trkpt><trkpt lat="40.0962754" lon="9.6668283"><ele>373.0</ele><time>2026-04-22T07:13:28.712Z</time></trkpt><trkpt lat="40.0961963" lon="9.6668523"><ele>372.0</ele><time>2026-04-22T07:13:29.717Z</time></trkpt><trkpt lat="40.0961222" lon="9.6668655"><ele>371.0</ele><time>2026-04-22T07:13:30.713Z</time></trkpt><trkpt lat="40.0960397" lon="9.6668743"><ele>370.0</ele><time>2026-04-22T07:13:31.713Z</time></trkpt><trkpt lat="40.0959541" lon="9.6668706"><ele>369.0</ele><time>2026-04-22T07:13:32.717Z</time></trkpt><trkpt lat="40.0958723" lon="9.6668684"><ele>369.0</ele><time>2026-04-22T07:13:33.712Z</time></trkpt><trkpt lat="40.0957846" lon="9.6668715"><ele>369.0</ele><time>2026-04-22T07:13:34.715Z</time></trkpt><trkpt lat="40.0957046" lon="9.6668736"><ele>369.0</ele><time>2026-04-22T07:13:35.706Z</time></trkpt><trkpt lat="40.0956349" lon="9.6668982"><ele>369.0</ele><time>2026-04-22T07:13:36.71Z</time></trkpt><trkpt lat="40.0955747" lon="9.6669344"><ele>369.0</ele><time>2026-04-22T07:13:37.713Z</time></trkpt><trkpt lat="40.0954718" lon="9.6669869"><ele>369.0</ele><time>2026-04-22T07:13:39.711Z</time></trkpt><trkpt lat="40.0953564" lon="9.6670041"><ele>370.0</ele><time>2026-04-22T07:13:41.705Z</time></trkpt><trkpt lat="40.0952388" lon="9.6670282"><ele>371.0</ele><time>2026-04-22T07:13:43.728Z</time></trkpt><trkpt lat="40.0951721" lon="9.667049"><ele>372.0</ele><time>2026-04-22T07:13:44.706Z</time></trkpt><trkpt lat="40.0951002" lon="9.6670865"><ele>373.0</ele><time>2026-04-22T07:13:45.714Z</time></trkpt><trkpt lat="40.0950413" lon="9.6671286"><ele>374.0</ele><time>2026-04-22T07:13:46.719Z</time></trkpt><trkpt lat="40.094937" lon="9.6672024"><ele>372.6666666666667</ele><time>2026-04-22T07:13:48.715Z</time></trkpt><trkpt lat="40.094847" lon="9.6672959"><ele>371.33333333333337</ele><time>2026-04-22T07:13:50.71Z</time></trkpt><trkpt lat="40.0947488" lon="9.6673978"><ele>370.0</ele><time>2026-04-22T07:13:52.708Z</time></trkpt><trkpt lat="40.0946987" lon="9.6674506"><ele>368.6666666666667</ele><time>2026-04-22T07:13:53.716Z</time></trkpt><trkpt lat="40.0946468" lon="9.667499"><ele>367.3333333333333</ele><time>2026-04-22T07:13:54.712Z</time></trkpt><trkpt lat="40.0945906" lon="9.6675517"><ele>366.0</ele><time>2026-04-22T07:13:55.714Z</time></trkpt><trkpt lat="40.0945237" lon="9.6676037"><ele>366.0</ele><time>2026-04-22T07:13:56.715Z</time></trkpt><trkpt lat="40.0944525" lon="9.6676481"><ele>366.0</ele><time>2026-04-22T07:13:57.708Z</time></trkpt><trkpt lat="40.0943826" lon="9.6677002"><ele>366.0</ele><time>2026-04-22T07:13:58.715Z</time></trkpt><trkpt lat="40.0943029" lon="9.6677592"><ele>366.0</ele><time>2026-04-22T07:13:59.714Z</time></trkpt><trkpt lat="40.0942295" lon="9.6678274"><ele>366.0</ele><time>2026-04-22T07:14:00.72Z</time></trkpt><trkpt lat="40.0941755" lon="9.6679101"><ele>366.0</ele><time>2026-04-22T07:14:01.712Z</time></trkpt><trkpt lat="40.0941293" lon="9.6679955"><ele>365.3333333333333</ele><time>2026-04-22T07:14:02.715Z</time></trkpt><trkpt lat="40.0940804" lon="9.6680831"><ele>364.6666666666667</ele><time>2026-04-22T07:14:03.709Z</time></trkpt><trkpt lat="40.0940262" lon="9.6681623"><ele>364.0</ele><time>2026-04-22T07:14:04.718Z</time></trkpt><trkpt lat="40.0939626" lon="9.6682363"><ele>363.33333333333337</ele><time>2026-04-22T07:14:05.712Z</time></trkpt><trkpt lat="40.0938967" lon="9.6683089"><ele>362.6666666666667</ele><time>2026-04-22T07:14:06.717Z</time></trkpt><trkpt lat="40.0938295" lon="9.6683828"><ele>362.0</ele><time>2026-04-22T07:14:07.711Z</time></trkpt><trkpt lat="40.0937597" lon="9.668452"><ele>362.0</ele><time>2026-04-22T07:14:08.715Z</time></trkpt><trkpt lat="40.0936943" lon="9.6685188"><ele>362.0</ele><time>2026-04-22T07:14:09.712Z</time></trkpt><trkpt lat="40.0936242" lon="9.6685899"><ele>362.0</ele><time>2026-04-22T07:14:10.715Z</time></trkpt><trkpt lat="40.0935606" lon="9.6686625"><ele>362.0</ele><time>2026-04-22T07:14:11.713Z</time></trkpt><trkpt lat="40.0934888" lon="9.6687262"><ele>362.0</ele><time>2026-04-22T07:14:12.712Z</time></trkpt><trkpt lat="40.0934152" lon="9.6687877"><ele>362.0</ele><time>2026-04-22T07:14:13.718Z</time></trkpt><trkpt lat="40.093341" lon="9.6688439"><ele>362.33333333333337</ele><time>2026-04-22T07:14:14.712Z</time></trkpt><trkpt lat="40.093272" lon="9.6688994"><ele>362.6666666666667</ele><time>2026-04-22T07:14:15.708Z</time></trkpt><trkpt lat="40.0932071" lon="9.6689395"><ele>363.0</ele><time>2026-04-22T07:14:16.707Z</time></trkpt><trkpt lat="40.093135" lon="9.668983"><ele>363.3333333333333</ele><time>2026-04-22T07:14:17.701Z</time></trkpt><trkpt lat="40.0930529" lon="9.6690029"><ele>363.66666666666663</ele><time>2026-04-22T07:14:18.718Z</time></trkpt><trkpt lat="40.0929707" lon="9.6690072"><ele>364.0</ele><time>2026-04-22T07:14:19.701Z</time></trkpt><trkpt lat="40.09288" lon="9.6689831"><ele>364.0</ele><time>2026-04-22T07:14:20.71Z</time></trkpt><trkpt lat="40.0927908" lon="9.6689504"><ele>364.0</ele><time>2026-04-22T07:14:21.706Z</time></trkpt><trkpt lat="40.0927176" lon="9.6689241"><ele>364.0</ele><time>2026-04-22T07:14:22.71Z</time></trkpt><trkpt lat="40.0926485" lon="9.6689077"><ele>364.0</ele><time>2026-04-22T07:14:23.709Z</time></trkpt><trkpt lat="40.0925738" lon="9.668916"><ele>364.0</ele><time>2026-04-22T07:14:24.707Z</time></trkpt><trkpt lat="40.0924989" lon="9.6689317"><ele>364.0</ele><time>2026-04-22T07:14:25.708Z</time></trkpt><trkpt lat="40.0924269" lon="9.6689529"><ele>364.85714285714283</ele><time>2026-04-22T07:14:26.706Z</time></trkpt><trkpt lat="40.0923509" lon="9.6689614"><ele>365.7142857142857</ele><time>2026-04-22T07:14:27.713Z</time></trkpt><trkpt lat="40.0922755" lon="9.6689914"><ele>366.57142857142856</ele><time>2026-04-22T07:14:28.707Z</time></trkpt><trkpt lat="40.0922078" lon="9.6690384"><ele>367.42857142857144</ele><time>2026-04-22T07:14:29.709Z</time></trkpt><trkpt lat="40.0921451" lon="9.6690876"><ele>368.2857142857143</ele><time>2026-04-22T07:14:30.707Z</time></trkpt><trkpt lat="40.0920891" lon="9.6691447"><ele>369.1428571428571</ele><time>2026-04-22T07:14:31.709Z</time></trkpt><trkpt lat="40.092032" lon="9.6691995"><ele>370.0</ele><time>2026-04-22T07:14:32.715Z</time></trkpt><trkpt lat="40.0919654" lon="9.6692498"><ele>370.0</ele><time>2026-04-22T07:14:33.712Z</time></trkpt><trkpt lat="40.0919142" lon="9.6693219"><ele>370.0</ele><time>2026-04-22T07:14:34.703Z</time></trkpt><trkpt lat="40.0918752" lon="9.6694142"><ele>370.0</ele><time>2026-04-22T07:14:35.705Z</time></trkpt><trkpt lat="40.0918457" lon="9.6695142"><ele>370.0</ele><time>2026-04-22T07:14:36.713Z</time></trkpt><trkpt lat="40.0918231" lon="9.6696236"><ele>370.0</ele><time>2026-04-22T07:14:37.715Z</time></trkpt><trkpt lat="40.0917819" lon="9.6697306"><ele>370.0</ele><time>2026-04-22T07:14:38.716Z</time></trkpt><trkpt lat="40.0917387" lon="9.6698307"><ele>369.8333333333333</ele><time>2026-04-22T07:14:39.714Z</time></trkpt><trkpt lat="40.0917021" lon="9.6699189"><ele>369.66666666666663</ele><time>2026-04-22T07:14:40.715Z</time></trkpt><trkpt lat="40.0916675" lon="9.6700167"><ele>369.5</ele><time>2026-04-22T07:14:41.716Z</time></trkpt><trkpt lat="40.0916241" lon="9.6701041"><ele>369.3333333333333</ele><time>2026-04-22T07:14:42.712Z</time></trkpt><trkpt lat="40.0915703" lon="9.670193"><ele>369.1666666666667</ele><time>2026-04-22T07:14:43.717Z</time></trkpt><trkpt lat="40.0915171" lon="9.6702774"><ele>369.0</ele><time>2026-04-22T07:14:44.71Z</time></trkpt><trkpt lat="40.0914623" lon="9.670367"><ele>368.6</ele><time>2026-04-22T07:14:45.715Z</time></trkpt><trkpt lat="40.0914045" lon="9.6704641"><ele>368.2</ele><time>2026-04-22T07:14:46.713Z</time></trkpt><trkpt lat="40.0913533" lon="9.6705543"><ele>367.8</ele><time>2026-04-22T07:14:47.711Z</time></trkpt><trkpt lat="40.0912946" lon="9.6706289"><ele>367.40000000000003</ele><time>2026-04-22T07:14:48.715Z</time></trkpt><trkpt lat="40.0912168" lon="9.6706998"><ele>367.0</ele><time>2026-04-22T07:14:49.712Z</time></trkpt><trkpt lat="40.0911479" lon="9.6707841"><ele>367.0</ele><time>2026-04-22T07:14:50.717Z</time></trkpt><trkpt lat="40.0910747" lon="9.6708612"><ele>367.0</ele><time>2026-04-22T07:14:51.716Z</time></trkpt><trkpt lat="40.0909928" lon="9.6709225"><ele>367.0</ele><time>2026-04-22T07:14:52.715Z</time></trkpt><trkpt lat="40.0909175" lon="9.6709714"><ele>367.0</ele><time>2026-04-22T07:14:53.716Z</time></trkpt><trkpt lat="40.0908385" lon="9.67101"><ele>367.0</ele><time>2026-04-22T07:14:54.715Z</time></trkpt><trkpt lat="40.0907596" lon="9.6710414"><ele>367.0</ele><time>2026-04-22T07:14:55.715Z</time></trkpt><trkpt lat="40.0906862" lon="9.6710719"><ele>367.5</ele><time>2026-04-22T07:14:56.71Z</time></trkpt><trkpt lat="40.0906052" lon="9.6710931"><ele>368.0</ele><time>2026-04-22T07:14:57.717Z</time></trkpt><trkpt lat="40.0905227" lon="9.671102"><ele>368.5</ele><time>2026-04-22T07:14:58.714Z</time></trkpt><trkpt lat="40.0904398" lon="9.6710873"><ele>369.0</ele><time>2026-04-22T07:14:59.714Z</time></trkpt><trkpt lat="40.0903709" lon="9.6710566"><ele>369.5</ele><time>2026-04-22T07:15:00.7Z</time></trkpt><trkpt lat="40.0903025" lon="9.6710106"><ele>370.0</ele><time>2026-04-22T07:15:01.706Z</time></trkpt><trkpt lat="40.0902393" lon="9.6709649"><ele>370.0</ele><time>2026-04-22T07:15:02.705Z</time></trkpt><trkpt lat="40.0901712" lon="9.6709398"><ele>370.0</ele><time>2026-04-22T07:15:03.703Z</time></trkpt><trkpt lat="40.0900941" lon="9.6709376"><ele>370.0</ele><time>2026-04-22T07:15:04.706Z</time></trkpt><trkpt lat="40.0900162" lon="9.6709328"><ele>370.0</ele><time>2026-04-22T07:15:05.704Z</time></trkpt><trkpt lat="40.0899052" lon="9.6709102"><ele>370.0</ele><time>2026-04-22T07:15:07.697Z</time></trkpt><trkpt lat="40.0898217" lon="9.6707914"><ele>370.16666666666663</ele><time>2026-04-22T07:15:09.693Z</time></trkpt><trkpt lat="40.0897854" lon="9.6706936"><ele>370.3333333333333</ele><time>2026-04-22T07:15:10.701Z</time></trkpt><trkpt lat="40.089753" lon="9.6705934"><ele>370.5</ele><time>2026-04-22T07:15:11.705Z</time></trkpt><trkpt lat="40.0897212" lon="9.6704837"><ele>370.6666666666667</ele><time>2026-04-22T07:15:12.703Z</time></trkpt><trkpt lat="40.0896959" lon="9.6703758"><ele>370.83333333333337</ele><time>2026-04-22T07:15:13.712Z</time></trkpt><trkpt lat="40.0896737" lon="9.6702765"><ele>371.0</ele><time>2026-04-22T07:15:14.703Z</time></trkpt><trkpt lat="40.0896374" lon="9.670192"><ele>372.1666666666667</ele><time>2026-04-22T07:15:15.705Z</time></trkpt><trkpt lat="40.0895949" lon="9.6701013"><ele>373.33333333333337</ele><time>2026-04-22T07:15:16.705Z</time></trkpt><trkpt lat="40.0895448" lon="9.6700007"><ele>374.5</ele><time>2026-04-22T07:15:17.699Z</time></trkpt><trkpt lat="40.089493" lon="9.6699076"><ele>375.6666666666667</ele><time>2026-04-22T07:15:18.7Z</time></trkpt><trkpt lat="40.0894371" lon="9.6698063"><ele>376.8333333333333</ele><time>2026-04-22T07:15:19.696Z</time></trkpt><trkpt lat="40.0893952" lon="9.6697056"><ele>378.0</ele><time>2026-04-22T07:15:20.698Z</time></trkpt><trkpt lat="40.0893614" lon="9.6695958"><ele>378.0</ele><time>2026-04-22T07:15:21.701Z</time></trkpt><trkpt lat="40.0893175" lon="9.6694843"><ele>378.0</ele><time>2026-04-22T07:15:22.699Z</time></trkpt><trkpt lat="40.0892665" lon="9.6693808"><ele>378.0</ele><time>2026-04-22T07:15:23.702Z</time></trkpt><trkpt lat="40.0892228" lon="9.6692848"><ele>378.0</ele><time>2026-04-22T07:15:24.698Z</time></trkpt><trkpt lat="40.0891898" lon="9.6691895"><ele>378.0</ele><time>2026-04-22T07:15:25.699Z</time></trkpt><trkpt lat="40.0891633" lon="9.6690954"><ele>378.0</ele><time>2026-04-22T07:15:26.698Z</time></trkpt><trkpt lat="40.0891418" lon="9.6690031"><ele>378.6666666666667</ele><time>2026-04-22T07:15:27.705Z</time></trkpt><trkpt lat="40.0891248" lon="9.6689208"><ele>379.3333333333333</ele><time>2026-04-22T07:15:28.699Z</time></trkpt><trkpt lat="40.0890975" lon="9.6688418"><ele>380.0</ele><time>2026-04-22T07:15:29.698Z</time></trkpt><trkpt lat="40.0890566" lon="9.6687717"><ele>380.66666666666663</ele><time>2026-04-22T07:15:30.704Z</time></trkpt><trkpt lat="40.0889982" lon="9.668701"><ele>381.3333333333333</ele><time>2026-04-22T07:15:31.704Z</time></trkpt><trkpt lat="40.0889333" lon="9.6686039"><ele>382.0</ele><time>2026-04-22T07:15:32.7Z</time></trkpt><trkpt lat="40.0888901" lon="9.6685069"><ele>382.66666666666663</ele><time>2026-04-22T07:15:33.703Z</time></trkpt><trkpt lat="40.0888584" lon="9.6684034"><ele>383.3333333333333</ele><time>2026-04-22T07:15:34.706Z</time></trkpt><trkpt lat="40.0888366" lon="9.6682993"><ele>384.0</ele><time>2026-04-22T07:15:35.7Z</time></trkpt><trkpt lat="40.0888191" lon="9.6682161"><ele>384.66666666666663</ele><time>2026-04-22T07:15:36.698Z</time></trkpt><trkpt lat="40.0887417" lon="9.6680838"><ele>385.3333333333333</ele><time>2026-04-22T07:15:38.699Z</time></trkpt><trkpt lat="40.0886717" lon="9.668037"><ele>386.0</ele><time>2026-04-22T07:15:39.704Z</time></trkpt><trkpt lat="40.0885859" lon="9.6680279"><ele>386.0</ele><time>2026-04-22T07:15:40.698Z</time></trkpt><trkpt lat="40.0884935" lon="9.6680373"><ele>386.0</ele><time>2026-04-22T07:15:41.711Z</time></trkpt><trkpt lat="40.0883973" lon="9.668031"><ele>386.0</ele><time>2026-04-22T07:15:42.704Z</time></trkpt><trkpt lat="40.0883084" lon="9.6680222"><ele>386.0</ele><time>2026-04-22T07:15:43.71Z</time></trkpt><trkpt lat="40.0882125" lon="9.6680242"><ele>386.0</ele><time>2026-04-22T07:15:44.705Z</time></trkpt><trkpt lat="40.0881214" lon="9.6680349"><ele>385.66666666666663</ele><time>2026-04-22T07:15:45.705Z</time></trkpt><trkpt lat="40.0880344" lon="9.6680312"><ele>385.3333333333333</ele><time>2026-04-22T07:15:46.7Z</time></trkpt><trkpt lat="40.0879615" lon="9.6680314"><ele>385.0</ele><time>2026-04-22T07:15:47.705Z</time></trkpt><trkpt lat="40.087895" lon="9.6680361"><ele>384.66666666666663</ele><time>2026-04-22T07:15:48.699Z</time></trkpt><trkpt lat="40.0878271" lon="9.6680555"><ele>384.3333333333333</ele><time>2026-04-22T07:15:49.701Z</time></trkpt><trkpt lat="40.0877162" lon="9.6680625"><ele>384.0</ele><time>2026-04-22T07:15:51.701Z</time></trkpt><trkpt lat="40.0876464" lon="9.668063"><ele>384.0</ele><time>2026-04-22T07:15:53.71Z</time></trkpt><trkpt lat="40.0875824" lon="9.6680481"><ele>384.0</ele><time>2026-04-22T07:15:55.711Z</time></trkpt><trkpt lat="40.0874912" lon="9.6680434"><ele>384.0</ele><time>2026-04-22T07:15:57.716Z</time></trkpt><trkpt lat="40.0873765" lon="9.6680529"><ele>384.0</ele><time>2026-04-22T07:15:59.709Z</time></trkpt><trkpt lat="40.0872713" lon="9.6680586"><ele>384.0</ele><time>2026-04-22T07:16:01.706Z</time></trkpt><trkpt lat="40.0871956" lon="9.668049"><ele>384.0</ele><time>2026-04-22T07:16:04.706Z</time></trkpt><trkpt lat="40.0871781" lon="9.6681362"><ele>384.0</ele><time>2026-04-22T07:16:10.718Z</time></trkpt><trkpt lat="40.0872873" lon="9.6681006"><ele>384.0</ele><time>2026-04-22T07:16:13.712Z</time></trkpt><trkpt lat="40.0873643" lon="9.6680762"><ele>384.0</ele><time>2026-04-22T07:16:14.706Z</time></trkpt><trkpt lat="40.0874402" lon="9.6680541"><ele>384.0</ele><time>2026-04-22T07:16:15.712Z</time></trkpt><trkpt lat="40.0875236" lon="9.668044"><ele>384.0</ele><time>2026-04-22T07:16:16.709Z</time></trkpt><trkpt lat="40.0876034" lon="9.6680381"><ele>384.0</ele><time>2026-04-22T07:16:17.704Z</time></trkpt><trkpt lat="40.0876889" lon="9.6680262"><ele>384.0</ele><time>2026-04-22T07:16:18.717Z</time></trkpt><trkpt lat="40.0877654" lon="9.6680202"><ele>384.0</ele><time>2026-04-22T07:16:19.707Z</time></trkpt><trkpt lat="40.0878468" lon="9.6680144"><ele>384.0</ele><time>2026-04-22T07:16:20.715Z</time></trkpt><trkpt lat="40.0879272" lon="9.6680091"><ele>384.0</ele><time>2026-04-22T07:16:21.71Z</time></trkpt><trkpt lat="40.088003" lon="9.6680033"><ele>384.0</ele><time>2026-04-22T07:16:22.71Z</time></trkpt><trkpt lat="40.0880819" lon="9.6679995"><ele>384.0</ele><time>2026-04-22T07:16:23.706Z</time></trkpt><trkpt lat="40.0881657" lon="9.6680059"><ele>384.0</ele><time>2026-04-22T07:16:24.707Z</time></trkpt><trkpt lat="40.0882453" lon="9.6680065"><ele>384.0</ele><time>2026-04-22T07:16:25.704Z</time></trkpt><trkpt lat="40.0883275" lon="9.6680036"><ele>384.0</ele><time>2026-04-22T07:16:26.708Z</time></trkpt><trkpt lat="40.0884098" lon="9.6680208"><ele>384.0</ele><time>2026-04-22T07:16:27.706Z</time></trkpt><trkpt lat="40.0884908" lon="9.6680522"><ele>384.0</ele><time>2026-04-22T07:16:28.707Z</time></trkpt><trkpt lat="40.0885656" lon="9.6680772"><ele>384.2857142857143</ele><time>2026-04-22T07:16:29.711Z</time></trkpt><trkpt lat="40.0886321" lon="9.6680862"><ele>384.57142857142856</ele><time>2026-04-22T07:16:30.712Z</time></trkpt><trkpt lat="40.0886973" lon="9.6680878"><ele>384.8571428571429</ele><time>2026-04-22T07:16:31.711Z</time></trkpt><trkpt lat="40.0887641" lon="9.6680744"><ele>385.1428571428571</ele><time>2026-04-22T07:16:32.709Z</time></trkpt><trkpt lat="40.0888293" lon="9.6680586"><ele>385.42857142857144</ele><time>2026-04-22T07:16:33.707Z</time></trkpt><trkpt lat="40.0888953" lon="9.6680355"><ele>385.7142857142857</ele><time>2026-04-22T07:16:34.703Z</time></trkpt><trkpt lat="40.0889516" lon="9.6679956"><ele>386.0</ele><time>2026-04-22T07:16:35.704Z</time></trkpt><trkpt lat="40.0890085" lon="9.6679525"><ele>386.0</ele><time>2026-04-22T07:16:36.708Z</time></trkpt><trkpt lat="40.0890715" lon="9.6679177"><ele>386.0</ele><time>2026-04-22T07:16:37.706Z</time></trkpt><trkpt lat="40.089169" lon="9.6678278"><ele>386.0</ele><time>2026-04-22T07:16:39.709Z</time></trkpt><trkpt lat="40.0892297" lon="9.6676871"><ele>386.0</ele><time>2026-04-22T07:16:41.702Z</time></trkpt><trkpt lat="40.0892411" lon="9.6675993"><ele>386.0</ele><time>2026-04-22T07:16:42.708Z</time></trkpt><trkpt lat="40.0892341" lon="9.6675081"><ele>385.42857142857144</ele><time>2026-04-22T07:16:43.724Z</time></trkpt><trkpt lat="40.0892264" lon="9.6674159"><ele>384.8571428571429</ele><time>2026-04-22T07:16:44.71Z</time></trkpt><trkpt lat="40.089208" lon="9.6673251"><ele>384.28571428571433</ele><time>2026-04-22T07:16:45.717Z</time></trkpt><trkpt lat="40.089182" lon="9.667236"><ele>383.7142857142857</ele><time>2026-04-22T07:16:46.713Z</time></trkpt><trkpt lat="40.0891418" lon="9.6671665"><ele>383.1428571428571</ele><time>2026-04-22T07:16:47.711Z</time></trkpt><trkpt lat="40.0890845" lon="9.6671074"><ele>382.5714285714286</ele><time>2026-04-22T07:16:48.701Z</time></trkpt><trkpt lat="40.0890252" lon="9.6670637"><ele>382.0</ele><time>2026-04-22T07:16:49.706Z</time></trkpt><trkpt lat="40.0889605" lon="9.6670501"><ele>382.0</ele><time>2026-04-22T07:16:50.708Z</time></trkpt><trkpt lat="40.0888901" lon="9.6670503"><ele>382.0</ele><time>2026-04-22T07:16:51.711Z</time></trkpt><trkpt lat="40.0887768" lon="9.6670215"><ele>382.0</ele><time>2026-04-22T07:16:53.711Z</time></trkpt><trkpt lat="40.0886688" lon="9.6669685"><ele>382.0</ele><time>2026-04-22T07:16:55.715Z</time></trkpt><trkpt lat="40.0885682" lon="9.6669173"><ele>382.0</ele><time>2026-04-22T07:16:57.711Z</time></trkpt><trkpt lat="40.0884566" lon="9.6669372"><ele>382.0</ele><time>2026-04-22T07:16:59.709Z</time></trkpt><trkpt lat="40.0883886" lon="9.6669389"><ele>382.0</ele><time>2026-04-22T07:17:00.712Z</time></trkpt><trkpt lat="40.0883117" lon="9.6669432"><ele>382.0</ele><time>2026-04-22T07:17:01.709Z</time></trkpt><trkpt lat="40.0882299" lon="9.6669523"><ele>382.0</ele><time>2026-04-22T07:17:02.708Z</time></trkpt><trkpt lat="40.0881428" lon="9.666974"><ele>382.0</ele><time>2026-04-22T07:17:03.711Z</time></trkpt><trkpt lat="40.0880595" lon="9.6669916"><ele>382.0</ele><time>2026-04-22T07:17:04.715Z</time></trkpt><trkpt lat="40.087979" lon="9.6670097"><ele>382.0</ele><time>2026-04-22T07:17:05.708Z</time></trkpt><trkpt lat="40.0878937" lon="9.66703"><ele>382.0</ele><time>2026-04-22T07:17:06.709Z</time></trkpt><trkpt lat="40.0878146" lon="9.6670414"><ele>382.0</ele><time>2026-04-22T07:17:07.714Z</time></trkpt><trkpt lat="40.0877403" lon="9.6670602"><ele>382.0</ele><time>2026-04-22T07:17:08.708Z</time></trkpt><trkpt lat="40.0876655" lon="9.6670743"><ele>382.0</ele><time>2026-04-22T07:17:09.709Z</time></trkpt><trkpt lat="40.0875987" lon="9.6670812"><ele>382.0</ele><time>2026-04-22T07:17:10.708Z</time></trkpt><trkpt lat="40.0875338" lon="9.6670629"><ele>382.25</ele><time>2026-04-22T07:17:11.707Z</time></trkpt><trkpt lat="40.0874259" lon="9.6669908"><ele>382.5</ele><time>2026-04-22T07:17:13.72Z</time></trkpt><trkpt lat="40.087328" lon="9.6668923"><ele>382.75</ele><time>2026-04-22T07:17:15.713Z</time></trkpt><trkpt lat="40.0872224" lon="9.6668265"><ele>383.0</ele><time>2026-04-22T07:17:17.713Z</time></trkpt><trkpt lat="40.0871138" lon="9.6667777"><ele>383.0</ele><time>2026-04-22T07:17:19.717Z</time></trkpt><trkpt lat="40.0870337" lon="9.6667179"><ele>383.0</ele><time>2026-04-22T07:17:21.71Z</time></trkpt><trkpt lat="40.0869908" lon="9.6666016"><ele>383.0</ele><time>2026-04-22T07:17:23.717Z</time></trkpt><trkpt lat="40.0869764" lon="9.6664517"><ele>383.0</ele><time>2026-04-22T07:17:25.712Z</time></trkpt><trkpt lat="40.0869785" lon="9.6663612"><ele>383.0</ele><time>2026-04-22T07:17:26.715Z</time></trkpt><trkpt lat="40.0869796" lon="9.6662466"><ele>383.0</ele><time>2026-04-22T07:17:27.717Z</time></trkpt><trkpt lat="40.0869817" lon="9.6661267"><ele>383.0</ele><time>2026-04-22T07:17:28.714Z</time></trkpt><trkpt lat="40.0869853" lon="9.6660164"><ele>383.0</ele><time>2026-04-22T07:17:29.718Z</time></trkpt><trkpt lat="40.086985" lon="9.6659079"><ele>383.0</ele><time>2026-04-22T07:17:30.713Z</time></trkpt><trkpt lat="40.0869852" lon="9.6657893"><ele>383.0</ele><time>2026-04-22T07:17:31.716Z</time></trkpt><trkpt lat="40.0869772" lon="9.6656591"><ele>382.83333333333337</ele><time>2026-04-22T07:17:32.713Z</time></trkpt><trkpt lat="40.086962" lon="9.6655375"><ele>382.6666666666667</ele><time>2026-04-22T07:17:33.719Z</time></trkpt><trkpt lat="40.086936" lon="9.6654197"><ele>382.5</ele><time>2026-04-22T07:17:34.713Z</time></trkpt><trkpt lat="40.0869136" lon="9.6653163"><ele>382.3333333333333</ele><time>2026-04-22T07:17:35.72Z</time></trkpt><trkpt lat="40.0868887" lon="9.6652075"><ele>382.16666666666663</ele><time>2026-04-22T07:17:36.715Z</time></trkpt><trkpt lat="40.0868744" lon="9.665096"><ele>382.0</ele><time>2026-04-22T07:17:37.722Z</time></trkpt><trkpt lat="40.0868618" lon="9.6649941"><ele>381.8333333333333</ele><time>2026-04-22T07:17:38.721Z</time></trkpt><trkpt lat="40.0868523" lon="9.6648993"><ele>381.66666666666663</ele><time>2026-04-22T07:17:39.716Z</time></trkpt><trkpt lat="40.0868501" lon="9.6647902"><ele>381.5</ele><time>2026-04-22T07:17:40.712Z</time></trkpt><trkpt lat="40.0868507" lon="9.6646952"><ele>381.3333333333333</ele><time>2026-04-22T07:17:41.713Z</time></trkpt><trkpt lat="40.0868647" lon="9.664592"><ele>381.1666666666667</ele><time>2026-04-22T07:17:42.715Z</time></trkpt><trkpt lat="40.0868746" lon="9.6644937"><ele>381.0</ele><time>2026-04-22T07:17:43.724Z</time></trkpt><trkpt lat="40.0868959" lon="9.6644009"><ele>380.57142857142856</ele><time>2026-04-22T07:17:44.715Z</time></trkpt><trkpt lat="40.086913" lon="9.6643047"><ele>380.14285714285717</ele><time>2026-04-22T07:17:45.729Z</time></trkpt><trkpt lat="40.0869256" lon="9.6642127"><ele>379.7142857142857</ele><time>2026-04-22T07:17:46.715Z</time></trkpt><trkpt lat="40.0869211" lon="9.6641285"><ele>379.2857142857143</ele><time>2026-04-22T07:17:47.718Z</time></trkpt><trkpt lat="40.0869031" lon="9.664045"><ele>378.8571428571429</ele><time>2026-04-22T07:17:48.716Z</time></trkpt><trkpt lat="40.0868651" lon="9.663968"><ele>378.42857142857144</ele><time>2026-04-22T07:17:49.718Z</time></trkpt><trkpt lat="40.086817" lon="9.6638982"><ele>378.0</ele><time>2026-04-22T07:17:50.716Z</time></trkpt><trkpt lat="40.0867534" lon="9.6638383"><ele>378.0</ele><time>2026-04-22T07:17:51.712Z</time></trkpt><trkpt lat="40.086691" lon="9.6637913"><ele>378.0</ele><time>2026-04-22T07:17:52.718Z</time></trkpt><trkpt lat="40.0866307" lon="9.6637441"><ele>378.0</ele><time>2026-04-22T07:17:53.717Z</time></trkpt><trkpt lat="40.0865611" lon="9.6636984"><ele>378.0</ele><time>2026-04-22T07:17:54.715Z</time></trkpt><trkpt lat="40.0864913" lon="9.663665"><ele>378.0</ele><time>2026-04-22T07:17:55.726Z</time></trkpt><trkpt lat="40.086421" lon="9.6636446"><ele>378.0</ele><time>2026-04-22T07:17:56.721Z</time></trkpt><trkpt lat="40.0863014" lon="9.6636571"><ele>378.5</ele><time>2026-04-22T07:17:58.725Z</time></trkpt><trkpt lat="40.0862362" lon="9.6636623"><ele>379.0</ele><time>2026-04-22T07:17:59.718Z</time></trkpt><trkpt lat="40.0861682" lon="9.6636758"><ele>379.5</ele><time>2026-04-22T07:18:00.723Z</time></trkpt><trkpt lat="40.0861042" lon="9.6636834"><ele>380.0</ele><time>2026-04-22T07:18:01.717Z</time></trkpt><trkpt lat="40.086008" lon="9.6636567"><ele>380.5</ele><time>2026-04-22T07:18:03.712Z</time></trkpt><trkpt lat="40.0859414" lon="9.6635346"><ele>381.0</ele><time>2026-04-22T07:18:05.725Z</time></trkpt><trkpt lat="40.0858967" lon="9.6634112"><ele>381.0</ele><time>2026-04-22T07:18:07.721Z</time></trkpt><trkpt lat="40.0857978" lon="9.6633345"><ele>381.0</ele><time>2026-04-22T07:18:09.72Z</time></trkpt><trkpt lat="40.0857319" lon="9.663301"><ele>381.0</ele><time>2026-04-22T07:18:10.71Z</time></trkpt><trkpt lat="40.0856598" lon="9.6631899"><ele>381.0</ele><time>2026-04-22T07:18:12.709Z</time></trkpt><trkpt lat="40.085638" lon="9.6631067"><ele>381.0</ele><time>2026-04-22T07:18:13.721Z</time></trkpt><trkpt lat="40.085615" lon="9.6630177"><ele>381.0</ele><time>2026-04-22T07:18:14.712Z</time></trkpt><trkpt lat="40.0855816" lon="9.6629229"><ele>382.0</ele><time>2026-04-22T07:18:15.731Z</time></trkpt><trkpt lat="40.085554" lon="9.6628208"><ele>383.0</ele><time>2026-04-22T07:18:16.716Z</time></trkpt><trkpt lat="40.0855478" lon="9.6627304"><ele>384.0</ele><time>2026-04-22T07:18:17.718Z</time></trkpt><trkpt lat="40.085556" lon="9.6626433"><ele>385.0</ele><time>2026-04-22T07:18:18.716Z</time></trkpt><trkpt lat="40.0855742" lon="9.6625443"><ele>386.0</ele><time>2026-04-22T07:18:19.722Z</time></trkpt><trkpt lat="40.0855867" lon="9.6624527"><ele>387.0</ele><time>2026-04-22T07:18:20.722Z</time></trkpt><trkpt lat="40.0855841" lon="9.6623613"><ele>388.0</ele><time>2026-04-22T07:18:21.721Z</time></trkpt><trkpt lat="40.0855792" lon="9.6622728"><ele>388.59999999999997</ele><time>2026-04-22T07:18:22.72Z</time></trkpt><trkpt lat="40.085564" lon="9.6621344"><ele>389.2</ele><time>2026-04-22T07:18:24.723Z</time></trkpt><trkpt lat="40.0855538" lon="9.6620081"><ele>389.8</ele><time>2026-04-22T07:18:26.721Z</time></trkpt><trkpt lat="40.0855359" lon="9.6618968"><ele>390.4</ele><time>2026-04-22T07:18:28.722Z</time></trkpt><trkpt lat="40.0854913" lon="9.6618164"><ele>391.0</ele><time>2026-04-22T07:18:30.722Z</time></trkpt><trkpt lat="40.0854068" lon="9.6617634"><ele>391.20000000000005</ele><time>2026-04-22T07:18:32.717Z</time></trkpt><trkpt lat="40.0852869" lon="9.6617202"><ele>391.40000000000003</ele><time>2026-04-22T07:18:34.71Z</time></trkpt><trkpt lat="40.0852022" lon="9.6616639"><ele>391.6</ele><time>2026-04-22T07:18:36.714Z</time></trkpt><trkpt lat="40.0851336" lon="9.6615687"><ele>391.8</ele><time>2026-04-22T07:18:38.713Z</time></trkpt><trkpt lat="40.0850945" lon="9.6614331"><ele>392.0</ele><time>2026-04-22T07:18:40.712Z</time></trkpt><trkpt lat="40.0850824" lon="9.6613507"><ele>392.0</ele><time>2026-04-22T07:18:41.716Z</time></trkpt><trkpt lat="40.0850721" lon="9.6612677"><ele>392.0</ele><time>2026-04-22T07:18:42.718Z</time></trkpt><trkpt lat="40.0850644" lon="9.6611697"><ele>392.0</ele><time>2026-04-22T07:18:43.722Z</time></trkpt><trkpt lat="40.0850549" lon="9.6610784"><ele>392.0</ele><time>2026-04-22T07:18:44.72Z</time></trkpt><trkpt lat="40.0850427" lon="9.6609789"><ele>392.0</ele><time>2026-04-22T07:18:45.723Z</time></trkpt><trkpt lat="40.0850201" lon="9.6608844"><ele>392.0</ele><time>2026-04-22T07:18:46.713Z</time></trkpt><trkpt lat="40.0849885" lon="9.6607943"><ele>392.0</ele><time>2026-04-22T07:18:47.714Z</time></trkpt><trkpt lat="40.0849524" lon="9.6606992"><ele>392.16666666666663</ele><time>2026-04-22T07:18:48.716Z</time></trkpt><trkpt lat="40.0849333" lon="9.6605971"><ele>392.3333333333333</ele><time>2026-04-22T07:18:49.713Z</time></trkpt><trkpt lat="40.0849042" lon="9.6604849"><ele>392.5</ele><time>2026-04-22T07:18:50.716Z</time></trkpt><trkpt lat="40.0848729" lon="9.6603902"><ele>392.66666666666663</ele><time>2026-04-22T07:18:51.717Z</time></trkpt><trkpt lat="40.0848359" lon="9.6603094"><ele>392.8333333333333</ele><time>2026-04-22T07:18:52.717Z</time></trkpt><trkpt lat="40.0847958" lon="9.6602411"><ele>393.0</ele><time>2026-04-22T07:18:53.714Z</time></trkpt><trkpt lat="40.0847528" lon="9.6601587"><ele>393.7142857142857</ele><time>2026-04-22T07:18:54.712Z</time></trkpt><trkpt lat="40.0847133" lon="9.6600777"><ele>394.42857142857144</ele><time>2026-04-22T07:18:55.732Z</time></trkpt><trkpt lat="40.0846722" lon="9.6599982"><ele>395.1428571428571</ele><time>2026-04-22T07:18:56.717Z</time></trkpt><trkpt lat="40.0846375" lon="9.6599232"><ele>395.8571428571429</ele><time>2026-04-22T07:18:57.715Z</time></trkpt><trkpt lat="40.0846074" lon="9.6598429"><ele>396.57142857142856</ele><time>2026-04-22T07:18:58.717Z</time></trkpt><trkpt lat="40.0845857" lon="9.6597614"><ele>397.2857142857143</ele><time>2026-04-22T07:18:59.718Z</time></trkpt><trkpt lat="40.0845804" lon="9.6596758"><ele>398.0</ele><time>2026-04-22T07:19:00.719Z</time></trkpt><trkpt lat="40.0845677" lon="9.659585"><ele>397.99999999999994</ele><time>2026-04-22T07:19:01.72Z</time></trkpt><trkpt lat="40.084539" lon="9.6595063"><ele>398.0</ele><time>2026-04-22T07:19:02.721Z</time></trkpt><trkpt lat="40.0844738" lon="9.6593837"><ele>398.0</ele><time>2026-04-22T07:19:04.712Z</time></trkpt><trkpt lat="40.0844557" lon="9.6592374"><ele>398.0</ele><time>2026-04-22T07:19:06.712Z</time></trkpt><trkpt lat="40.0844485" lon="9.6591485"><ele>397.99999999999994</ele><time>2026-04-22T07:19:07.715Z</time></trkpt><trkpt lat="40.0844258" lon="9.6590703"><ele>398.0</ele><time>2026-04-22T07:19:08.713Z</time></trkpt><trkpt lat="40.0843612" lon="9.6589174"><ele>397.49999999999994</ele><time>2026-04-22T07:19:10.719Z</time></trkpt><trkpt lat="40.084312" lon="9.6588345"><ele>397.0</ele><time>2026-04-22T07:19:11.711Z</time></trkpt><trkpt lat="40.0842475" lon="9.6587629"><ele>396.5</ele><time>2026-04-22T07:19:12.715Z</time></trkpt><trkpt lat="40.0841825" lon="9.6586872"><ele>396.0</ele><time>2026-04-22T07:19:13.719Z</time></trkpt><trkpt lat="40.0841345" lon="9.6586157"><ele>395.49999999999994</ele><time>2026-04-22T07:19:14.714Z</time></trkpt><trkpt lat="40.0840894" lon="9.6585397"><ele>395.0</ele><time>2026-04-22T07:19:15.726Z</time></trkpt><trkpt lat="40.0840429" lon="9.6584789"><ele>394.99999999999994</ele><time>2026-04-22T07:19:16.716Z</time></trkpt><trkpt lat="40.0839889" lon="9.6584339"><ele>395.0</ele><time>2026-04-22T07:19:17.711Z</time></trkpt><trkpt lat="40.0838818" lon="9.6584022"><ele>395.0</ele><time>2026-04-22T07:19:19.718Z</time></trkpt><trkpt lat="40.0838104" lon="9.658398"><ele>395.0</ele><time>2026-04-22T07:19:20.709Z</time></trkpt><trkpt lat="40.0837398" lon="9.6583809"><ele>394.99999999999994</ele><time>2026-04-22T07:19:21.707Z</time></trkpt><trkpt lat="40.0836669" lon="9.6583449"><ele>395.0</ele><time>2026-04-22T07:19:22.708Z</time></trkpt><trkpt lat="40.0836048" lon="9.6583032"><ele>394.99999999999994</ele><time>2026-04-22T07:19:23.708Z</time></trkpt><trkpt lat="40.0835439" lon="9.6582572"><ele>395.0</ele><time>2026-04-22T07:19:24.707Z</time></trkpt><trkpt lat="40.0834394" lon="9.6581653"><ele>395.0</ele><time>2026-04-22T07:19:26.713Z</time></trkpt><trkpt lat="40.083387" lon="9.6581034"><ele>395.0</ele><time>2026-04-22T07:19:27.714Z</time></trkpt><trkpt lat="40.0833328" lon="9.6580382"><ele>394.99999999999994</ele><time>2026-04-22T07:19:28.713Z</time></trkpt><trkpt lat="40.0832773" lon="9.6579731"><ele>395.0</ele><time>2026-04-22T07:19:29.709Z</time></trkpt><trkpt lat="40.083228" lon="9.6579177"><ele>394.99999999999994</ele><time>2026-04-22T07:19:30.712Z</time></trkpt><trkpt lat="40.0831555" lon="9.6578007"><ele>395.0</ele><time>2026-04-22T07:19:32.713Z</time></trkpt><trkpt lat="40.0830878" lon="9.6576715"><ele>395.0</ele><time>2026-04-22T07:19:34.71Z</time></trkpt><trkpt lat="40.0830492" lon="9.6576035"><ele>395.0</ele><time>2026-04-22T07:19:35.728Z</time></trkpt><trkpt lat="40.0830011" lon="9.6575413"><ele>394.99999999999994</ele><time>2026-04-22T07:19:36.713Z</time></trkpt><trkpt lat="40.0829503" lon="9.6574832"><ele>395.0</ele><time>2026-04-22T07:19:37.713Z</time></trkpt><trkpt lat="40.0829036" lon="9.6574235"><ele>395.0</ele><time>2026-04-22T07:19:38.708Z</time></trkpt><trkpt lat="40.0828257" lon="9.6573165"><ele>395.0</ele><time>2026-04-22T07:19:40.707Z</time></trkpt><trkpt lat="40.082733" lon="9.6572216"><ele>395.0</ele><time>2026-04-22T07:19:42.71Z</time></trkpt><trkpt lat="40.0826121" lon="9.6571777"><ele>395.0</ele><time>2026-04-22T07:19:44.7Z</time></trkpt><trkpt lat="40.0825462" lon="9.6571575"><ele>395.0</ele><time>2026-04-22T07:19:45.712Z</time></trkpt><trkpt lat="40.082435" lon="9.6571077"><ele>395.3333333333333</ele><time>2026-04-22T07:19:47.701Z</time></trkpt><trkpt lat="40.0823716" lon="9.6570856"><ele>395.66666666666663</ele><time>2026-04-22T07:19:48.702Z</time></trkpt><trkpt lat="40.0823034" lon="9.6570574"><ele>396.0</ele><time>2026-04-22T07:19:49.703Z</time></trkpt><trkpt lat="40.0822358" lon="9.6570307"><ele>396.33333333333337</ele><time>2026-04-22T07:19:50.697Z</time></trkpt><trkpt lat="40.0821691" lon="9.6570025"><ele>396.6666666666667</ele><time>2026-04-22T07:19:51.699Z</time></trkpt><trkpt lat="40.0821024" lon="9.65698"><ele>397.0</ele><time>2026-04-22T07:19:52.701Z</time></trkpt><trkpt lat="40.081968" lon="9.6569785"><ele>397.00000000000006</ele><time>2026-04-22T07:19:54.696Z</time></trkpt><trkpt lat="40.0818997" lon="9.6569765"><ele>397.0</ele><time>2026-04-22T07:19:55.711Z</time></trkpt><trkpt lat="40.081837" lon="9.6569499"><ele>397.0</ele><time>2026-04-22T07:19:56.692Z</time></trkpt><trkpt lat="40.0817184" lon="9.6569365"><ele>397.0</ele><time>2026-04-22T07:19:58.7Z</time></trkpt><trkpt lat="40.0816073" lon="9.6569324"><ele>397.00000000000006</ele><time>2026-04-22T07:20:00.697Z</time></trkpt><trkpt lat="40.0815446" lon="9.6569415"><ele>397.0</ele><time>2026-04-22T07:20:01.703Z</time></trkpt><trkpt lat="40.0814459" lon="9.6569854"><ele>398.6</ele><time>2026-04-22T07:20:03.699Z</time></trkpt><trkpt lat="40.0813449" lon="9.657067"><ele>400.20000000000005</ele><time>2026-04-22T07:20:05.687Z</time></trkpt><trkpt lat="40.0812477" lon="9.6571363"><ele>401.8</ele><time>2026-04-22T07:20:07.68Z</time></trkpt><trkpt lat="40.0811857" lon="9.6571779"><ele>403.4</ele><time>2026-04-22T07:20:08.693Z</time></trkpt><trkpt lat="40.0811309" lon="9.6572198"><ele>405.0</ele><time>2026-04-22T07:20:09.691Z</time></trkpt><trkpt lat="40.0810293" lon="9.657232"><ele>405.0</ele><time>2026-04-22T07:20:11.686Z</time></trkpt><trkpt lat="40.080933" lon="9.6571856"><ele>405.0</ele><time>2026-04-22T07:20:13.689Z</time></trkpt><trkpt lat="40.0808097" lon="9.6571134"><ele>405.0</ele><time>2026-04-22T07:20:15.687Z</time></trkpt><trkpt lat="40.0807346" lon="9.6570717"><ele>405.0</ele><time>2026-04-22T07:20:16.693Z</time></trkpt><trkpt lat="40.0806529" lon="9.6570246"><ele>405.0</ele><time>2026-04-22T07:20:17.692Z</time></trkpt><trkpt lat="40.0805805" lon="9.6569946"><ele>405.5</ele><time>2026-04-22T07:20:18.692Z</time></trkpt><trkpt lat="40.080508" lon="9.6569699"><ele>406.0</ele><time>2026-04-22T07:20:19.694Z</time></trkpt><trkpt lat="40.0804341" lon="9.6569352"><ele>406.5</ele><time>2026-04-22T07:20:20.695Z</time></trkpt><trkpt lat="40.0803575" lon="9.6568981"><ele>407.0</ele><time>2026-04-22T07:20:21.689Z</time></trkpt><trkpt lat="40.0802923" lon="9.6568507"><ele>407.5</ele><time>2026-04-22T07:20:22.693Z</time></trkpt><trkpt lat="40.0802424" lon="9.6567841"><ele>408.0</ele><time>2026-04-22T07:20:23.686Z</time></trkpt><trkpt lat="40.0801932" lon="9.6567085"><ele>408.0</ele><time>2026-04-22T07:20:24.69Z</time></trkpt><trkpt lat="40.0801374" lon="9.6566099"><ele>408.0</ele><time>2026-04-22T07:20:25.688Z</time></trkpt><trkpt lat="40.0800793" lon="9.656523"><ele>408.0</ele><time>2026-04-22T07:20:26.692Z</time></trkpt><trkpt lat="40.0800259" lon="9.6564347"><ele>408.0</ele><time>2026-04-22T07:20:27.696Z</time></trkpt><trkpt lat="40.0799663" lon="9.6563585"><ele>408.0</ele><time>2026-04-22T07:20:28.699Z</time></trkpt><trkpt lat="40.0799155" lon="9.6562729"><ele>408.0</ele><time>2026-04-22T07:20:29.694Z</time></trkpt><trkpt lat="40.0798725" lon="9.6562023"><ele>409.6666666666667</ele><time>2026-04-22T07:20:30.697Z</time></trkpt><trkpt lat="40.0798177" lon="9.6560486"><ele>411.33333333333337</ele><time>2026-04-22T07:20:32.698Z</time></trkpt><trkpt lat="40.079808" lon="9.655955"><ele>413.0</ele><time>2026-04-22T07:20:33.697Z</time></trkpt><trkpt lat="40.0798033" lon="9.6558657"><ele>414.6666666666667</ele><time>2026-04-22T07:20:34.699Z</time></trkpt><trkpt lat="40.0797981" lon="9.6557804"><ele>416.33333333333337</ele><time>2026-04-22T07:20:35.696Z</time></trkpt><trkpt lat="40.0798028" lon="9.6556924"><ele>418.0</ele><time>2026-04-22T07:20:36.698Z</time></trkpt><trkpt lat="40.0798064" lon="9.6556024"><ele>418.0</ele><time>2026-04-22T07:20:37.697Z</time></trkpt><trkpt lat="40.0797975" lon="9.6555126"><ele>418.0</ele><time>2026-04-22T07:20:38.693Z</time></trkpt><trkpt lat="40.0797749" lon="9.6554227"><ele>418.0</ele><time>2026-04-22T07:20:39.694Z</time></trkpt><trkpt lat="40.0797441" lon="9.655345"><ele>418.0</ele><time>2026-04-22T07:20:40.697Z</time></trkpt><trkpt lat="40.0797071" lon="9.6552685"><ele>418.0</ele><time>2026-04-22T07:20:41.694Z</time></trkpt><trkpt lat="40.0796576" lon="9.6552037"><ele>418.0</ele><time>2026-04-22T07:20:42.692Z</time></trkpt><trkpt lat="40.0796065" lon="9.6551506"><ele>418.0</ele><time>2026-04-22T07:20:43.704Z</time></trkpt><trkpt lat="40.0795614" lon="9.6550903"><ele>415.0</ele><time>2026-04-22T07:20:44.692Z</time></trkpt><trkpt lat="40.0794776" lon="9.6549754"><ele>412.0</ele><time>2026-04-22T07:20:46.686Z</time></trkpt><trkpt lat="40.0794217" lon="9.6549054"><ele>409.0</ele><time>2026-04-22T07:20:47.687Z</time></trkpt><trkpt lat="40.0793306" lon="9.6547854"><ele>406.0</ele><time>2026-04-22T07:20:49.686Z</time></trkpt><trkpt lat="40.0792277" lon="9.6546915"><ele>406.00000000000006</ele><time>2026-04-22T07:20:51.69Z</time></trkpt><trkpt lat="40.0791768" lon="9.6546393"><ele>406.0</ele><time>2026-04-22T07:20:52.69Z</time></trkpt><trkpt lat="40.0791202" lon="9.6545978"><ele>406.0</ele><time>2026-04-22T07:20:53.685Z</time></trkpt><trkpt lat="40.0789965" lon="9.6545679"><ele>406.0</ele><time>2026-04-22T07:20:55.687Z</time></trkpt><trkpt lat="40.0789275" lon="9.654579"><ele>406.00000000000006</ele><time>2026-04-22T07:20:56.687Z</time></trkpt><trkpt lat="40.0788625" lon="9.6545937"><ele>406.0</ele><time>2026-04-22T07:20:57.694Z</time></trkpt><trkpt lat="40.0788004" lon="9.654576"><ele>407.4</ele><time>2026-04-22T07:20:58.682Z</time></trkpt><trkpt lat="40.0787104" lon="9.6545192"><ele>408.8</ele><time>2026-04-22T07:21:00.682Z</time></trkpt><trkpt lat="40.0786013" lon="9.654467"><ele>410.2</ele><time>2026-04-22T07:21:02.682Z</time></trkpt><trkpt lat="40.0784927" lon="9.654415"><ele>411.59999999999997</ele><time>2026-04-22T07:21:04.688Z</time></trkpt><trkpt lat="40.0784496" lon="9.6543538"><ele>413.0</ele><time>2026-04-22T07:21:05.685Z</time></trkpt><trkpt lat="40.0783552" lon="9.6542645"><ele>413.79999999999995</ele><time>2026-04-22T07:21:07.681Z</time></trkpt><trkpt lat="40.0782248" lon="9.654251"><ele>414.6</ele><time>2026-04-22T07:21:09.685Z</time></trkpt><trkpt lat="40.0781325" lon="9.6542271"><ele>415.4</ele><time>2026-04-22T07:21:11.685Z</time></trkpt><trkpt lat="40.0780172" lon="9.6541692"><ele>416.20000000000005</ele><time>2026-04-22T07:21:13.686Z</time></trkpt><trkpt lat="40.0779847" lon="9.654095"><ele>417.0</ele><time>2026-04-22T07:21:14.685Z</time></trkpt><trkpt lat="40.0779513" lon="9.6540009"><ele>417.0</ele><time>2026-04-22T07:21:15.69Z</time></trkpt><trkpt lat="40.0779298" lon="9.6539119"><ele>417.0</ele><time>2026-04-22T07:21:16.686Z</time></trkpt><trkpt lat="40.0778919" lon="9.653844"><ele>417.0</ele><time>2026-04-22T07:21:17.684Z</time></trkpt><trkpt lat="40.0778454" lon="9.6537836"><ele>417.0</ele><time>2026-04-22T07:21:18.673Z</time></trkpt><trkpt lat="40.0777201" lon="9.6537132"><ele>417.0</ele><time>2026-04-22T07:21:20.674Z</time></trkpt><trkpt lat="40.0776402" lon="9.6536885"><ele>417.0</ele><time>2026-04-22T07:21:21.674Z</time></trkpt><trkpt lat="40.0775622" lon="9.6536797"><ele>417.0</ele><time>2026-04-22T07:21:22.674Z</time></trkpt><trkpt lat="40.0774445" lon="9.6536595"><ele>417.0</ele><time>2026-04-22T07:21:24.681Z</time></trkpt><trkpt lat="40.0773796" lon="9.6536417"><ele>417.0</ele><time>2026-04-22T07:21:25.676Z</time></trkpt><trkpt lat="40.0772794" lon="9.6535401"><ele>417.0</ele><time>2026-04-22T07:21:27.678Z</time></trkpt><trkpt lat="40.0772191" lon="9.6535017"><ele>417.0</ele><time>2026-04-22T07:21:28.68Z</time></trkpt><trkpt lat="40.0771203" lon="9.6534522"><ele>416.8333333333333</ele><time>2026-04-22T07:21:30.683Z</time></trkpt><trkpt lat="40.077057" lon="9.6534338"><ele>416.66666666666663</ele><time>2026-04-22T07:21:31.678Z</time></trkpt><trkpt lat="40.0769933" lon="9.6534075"><ele>416.5</ele><time>2026-04-22T07:21:32.673Z</time></trkpt><trkpt lat="40.0769238" lon="9.653407"><ele>416.3333333333333</ele><time>2026-04-22T07:21:33.683Z</time></trkpt><trkpt lat="40.0768614" lon="9.653391"><ele>416.16666666666663</ele><time>2026-04-22T07:21:34.678Z</time></trkpt><trkpt lat="40.0767463" lon="9.6533596"><ele>416.0</ele><time>2026-04-22T07:21:36.686Z</time></trkpt><trkpt lat="40.0766516" lon="9.653312"><ele>417.99999999999994</ele><time>2026-04-22T07:21:38.687Z</time></trkpt><trkpt lat="40.0765559" lon="9.6532495"><ele>420.0</ele><time>2026-04-22T07:21:40.691Z</time></trkpt><trkpt lat="40.0764833" lon="9.6532061"><ele>422.0</ele><time>2026-04-22T07:21:41.694Z</time></trkpt><trkpt lat="40.0764083" lon="9.6531789"><ele>424.0</ele><time>2026-04-22T07:21:42.686Z</time></trkpt><trkpt lat="40.0763423" lon="9.6531459"><ele>425.99999999999994</ele><time>2026-04-22T07:21:43.696Z</time></trkpt><trkpt lat="40.076281" lon="9.6531061"><ele>428.0</ele><time>2026-04-22T07:21:44.692Z</time></trkpt><trkpt lat="40.0762168" lon="9.6530618"><ele>428.00000000000006</ele><time>2026-04-22T07:21:45.696Z</time></trkpt><trkpt lat="40.0761633" lon="9.6530074"><ele>428.0</ele><time>2026-04-22T07:21:46.689Z</time></trkpt><trkpt lat="40.0761168" lon="9.6529374"><ele>428.0</ele><time>2026-04-22T07:21:47.692Z</time></trkpt><trkpt lat="40.0760685" lon="9.6528585"><ele>428.0</ele><time>2026-04-22T07:21:48.694Z</time></trkpt><trkpt lat="40.0760255" lon="9.6527687"><ele>428.0</ele><time>2026-04-22T07:21:49.694Z</time></trkpt><trkpt lat="40.0759835" lon="9.6526916"><ele>428.00000000000006</ele><time>2026-04-22T07:21:50.695Z</time></trkpt><trkpt lat="40.0759467" lon="9.6526225"><ele>428.0</ele><time>2026-04-22T07:21:51.691Z</time></trkpt><trkpt lat="40.0758831" lon="9.65248"><ele>428.8571428571429</ele><time>2026-04-22T07:21:53.687Z</time></trkpt><trkpt lat="40.075837" lon="9.6524179"><ele>429.7142857142857</ele><time>2026-04-22T07:21:54.689Z</time></trkpt><trkpt lat="40.0757858" lon="9.6523564"><ele>430.57142857142856</ele><time>2026-04-22T07:21:55.685Z</time></trkpt><trkpt lat="40.075728" lon="9.6523045"><ele>431.42857142857144</ele><time>2026-04-22T07:21:56.689Z</time></trkpt><trkpt lat="40.0756725" lon="9.6522538"><ele>432.2857142857143</ele><time>2026-04-22T07:21:57.69Z</time></trkpt><trkpt lat="40.075606" lon="9.6522119"><ele>433.14285714285717</ele><time>2026-04-22T07:21:58.687Z</time></trkpt><trkpt lat="40.0755421" lon="9.65216"><ele>434.0</ele><time>2026-04-22T07:21:59.692Z</time></trkpt><trkpt lat="40.075482" lon="9.652101"><ele>434.0</ele><time>2026-04-22T07:22:00.693Z</time></trkpt><trkpt lat="40.0754248" lon="9.6520375"><ele>434.0</ele><time>2026-04-22T07:22:01.69Z</time></trkpt><trkpt lat="40.0753624" lon="9.6519844"><ele>434.0</ele><time>2026-04-22T07:22:02.689Z</time></trkpt><trkpt lat="40.0752933" lon="9.6519337"><ele>434.0</ele><time>2026-04-22T07:22:03.692Z</time></trkpt><trkpt lat="40.0752315" lon="9.6518867"><ele>434.0</ele><time>2026-04-22T07:22:04.689Z</time></trkpt><trkpt lat="40.0751725" lon="9.651827"><ele>434.0</ele><time>2026-04-22T07:22:05.689Z</time></trkpt><trkpt lat="40.0751223" lon="9.6517657"><ele>434.0</ele><time>2026-04-22T07:22:06.686Z</time></trkpt><trkpt lat="40.0750717" lon="9.6517009"><ele>434.7142857142857</ele><time>2026-04-22T07:22:07.69Z</time></trkpt><trkpt lat="40.0750234" lon="9.6516447"><ele>435.42857142857144</ele><time>2026-04-22T07:22:08.687Z</time></trkpt><trkpt lat="40.0749714" lon="9.6515913"><ele>436.1428571428571</ele><time>2026-04-22T07:22:09.69Z</time></trkpt><trkpt lat="40.0749022" lon="9.6515479"><ele>436.8571428571429</ele><time>2026-04-22T07:22:10.691Z</time></trkpt><trkpt lat="40.0748348" lon="9.6515061"><ele>437.57142857142856</ele><time>2026-04-22T07:22:11.69Z</time></trkpt><trkpt lat="40.0747765" lon="9.6514612"><ele>438.2857142857143</ele><time>2026-04-22T07:22:12.691Z</time></trkpt><trkpt lat="40.0747211" lon="9.6514085"><ele>439.0</ele><time>2026-04-22T07:22:13.692Z</time></trkpt><trkpt lat="40.0746673" lon="9.6513506"><ele>439.0</ele><time>2026-04-22T07:22:14.692Z</time></trkpt><trkpt lat="40.0745689" lon="9.651253"><ele>439.0</ele><time>2026-04-22T07:22:16.688Z</time></trkpt><trkpt lat="40.074475" lon="9.6511784"><ele>439.0</ele><time>2026-04-22T07:22:18.69Z</time></trkpt><trkpt lat="40.0744075" lon="9.6510607"><ele>439.0</ele><time>2026-04-22T07:22:20.685Z</time></trkpt><trkpt lat="40.074388" lon="9.6509765"><ele>439.0</ele><time>2026-04-22T07:22:21.686Z</time></trkpt><trkpt lat="40.0743641" lon="9.6508889"><ele>437.6</ele><time>2026-04-22T07:22:22.687Z</time></trkpt><trkpt lat="40.074331" lon="9.650757"><ele>436.2</ele><time>2026-04-22T07:22:24.681Z</time></trkpt><trkpt lat="40.0743462" lon="9.6506226"><ele>434.80000000000007</ele><time>2026-04-22T07:22:26.681Z</time></trkpt><trkpt lat="40.0743529" lon="9.6505404"><ele>433.40000000000003</ele><time>2026-04-22T07:22:27.681Z</time></trkpt><trkpt lat="40.0743398" lon="9.650372"><ele>432.0</ele><time>2026-04-22T07:22:29.687Z</time></trkpt><trkpt lat="40.0743383" lon="9.6502345"><ele>432.0</ele><time>2026-04-22T07:22:31.686Z</time></trkpt><trkpt lat="40.0742679" lon="9.6501551"><ele>432.00000000000006</ele><time>2026-04-22T07:22:33.685Z</time></trkpt><trkpt lat="40.0741619" lon="9.6501038"><ele>432.00000000000006</ele><time>2026-04-22T07:22:35.684Z</time></trkpt><trkpt lat="40.0740922" lon="9.6499745"><ele>432.0</ele><time>2026-04-22T07:22:37.689Z</time></trkpt><trkpt lat="40.0740693" lon="9.6498974"><ele>432.0</ele><time>2026-04-22T07:22:38.688Z</time></trkpt><trkpt lat="40.0740359" lon="9.6497437"><ele>435.0</ele><time>2026-04-22T07:22:40.689Z</time></trkpt><trkpt lat="40.0739591" lon="9.649625"><ele>438.00000000000006</ele><time>2026-04-22T07:22:42.69Z</time></trkpt><trkpt lat="40.0738851" lon="9.6495139"><ele>441.00000000000006</ele><time>2026-04-22T07:22:44.685Z</time></trkpt><trkpt lat="40.0738368" lon="9.6493674"><ele>444.0</ele><time>2026-04-22T07:22:46.683Z</time></trkpt><trkpt lat="40.0738092" lon="9.6492718"><ele>447.0</ele><time>2026-04-22T07:22:47.686Z</time></trkpt><trkpt lat="40.0737813" lon="9.6491824"><ele>446.99999999999994</ele><time>2026-04-22T07:22:48.686Z</time></trkpt><trkpt lat="40.0737593" lon="9.6490928"><ele>447.0</ele><time>2026-04-22T07:22:49.686Z</time></trkpt><trkpt lat="40.0737512" lon="9.6490004"><ele>447.0</ele><time>2026-04-22T07:22:50.689Z</time></trkpt><trkpt lat="40.0737552" lon="9.6489165"><ele>447.0</ele><time>2026-04-22T07:22:51.683Z</time></trkpt><trkpt lat="40.0737649" lon="9.6488345"><ele>447.0</ele><time>2026-04-22T07:22:52.69Z</time></trkpt><trkpt lat="40.0737756" lon="9.6487474"><ele>446.99999999999994</ele><time>2026-04-22T07:22:53.685Z</time></trkpt><trkpt lat="40.0737907" lon="9.6486448"><ele>447.0</ele><time>2026-04-22T07:22:54.692Z</time></trkpt><trkpt lat="40.0737872" lon="9.6485376"><ele>446.5</ele><time>2026-04-22T07:22:55.689Z</time></trkpt><trkpt lat="40.0737855" lon="9.6484401"><ele>446.0</ele><time>2026-04-22T07:22:56.697Z</time></trkpt><trkpt lat="40.0737877" lon="9.6483317"><ele>445.5</ele><time>2026-04-22T07:22:57.695Z</time></trkpt><trkpt lat="40.0737916" lon="9.6482223"><ele>445.0</ele><time>2026-04-22T07:22:58.693Z</time></trkpt><trkpt lat="40.0737874" lon="9.6481267"><ele>444.5</ele><time>2026-04-22T07:22:59.689Z</time></trkpt><trkpt lat="40.0737806" lon="9.648033"><ele>444.0</ele><time>2026-04-22T07:23:00.692Z</time></trkpt><trkpt lat="40.0737749" lon="9.6479432"><ele>443.8333333333333</ele><time>2026-04-22T07:23:01.691Z</time></trkpt><trkpt lat="40.0737337" lon="9.6477791"><ele>443.66666666666663</ele><time>2026-04-22T07:23:03.692Z</time></trkpt><trkpt lat="40.0737048" lon="9.6477003"><ele>443.5</ele><time>2026-04-22T07:23:04.694Z</time></trkpt><trkpt lat="40.0736734" lon="9.6476171"><ele>443.3333333333333</ele><time>2026-04-22T07:23:05.686Z</time></trkpt><trkpt lat="40.0736267" lon="9.6475254"><ele>443.16666666666663</ele><time>2026-04-22T07:23:06.693Z</time></trkpt><trkpt lat="40.0735735" lon="9.6474404"><ele>443.0</ele><time>2026-04-22T07:23:07.69Z</time></trkpt><trkpt lat="40.0735133" lon="9.6473631"><ele>442.99999999999994</ele><time>2026-04-22T07:23:08.69Z</time></trkpt><trkpt lat="40.0734424" lon="9.6472959"><ele>443.0</ele><time>2026-04-22T07:23:09.695Z</time></trkpt><trkpt lat="40.0733733" lon="9.6472258"><ele>443.0</ele><time>2026-04-22T07:23:10.69Z</time></trkpt><trkpt lat="40.0733084" lon="9.6471539"><ele>443.0</ele><time>2026-04-22T07:23:11.693Z</time></trkpt><trkpt lat="40.0732521" lon="9.6470746"><ele>442.99999999999994</ele><time>2026-04-22T07:23:12.689Z</time></trkpt><trkpt lat="40.0731977" lon="9.6469874"><ele>443.0</ele><time>2026-04-22T07:23:13.69Z</time></trkpt><trkpt lat="40.0731537" lon="9.6469103"><ele>445.49999999999994</ele><time>2026-04-22T07:23:14.691Z</time></trkpt><trkpt lat="40.0731057" lon="9.6468377"><ele>448.0</ele><time>2026-04-22T07:23:15.689Z</time></trkpt><trkpt lat="40.0730624" lon="9.6467616"><ele>450.5</ele><time>2026-04-22T07:23:16.686Z</time></trkpt><trkpt lat="40.0730178" lon="9.6466807"><ele>453.0</ele><time>2026-04-22T07:23:17.692Z</time></trkpt><trkpt lat="40.072974" lon="9.6466023"><ele>455.49999999999994</ele><time>2026-04-22T07:23:18.69Z</time></trkpt><trkpt lat="40.0729261" lon="9.6465202"><ele>458.0</ele><time>2026-04-22T07:23:19.687Z</time></trkpt><trkpt lat="40.0728814" lon="9.6464341"><ele>458.0</ele><time>2026-04-22T07:23:20.686Z</time></trkpt><trkpt lat="40.0728494" lon="9.6463483"><ele>457.99999999999994</ele><time>2026-04-22T07:23:21.683Z</time></trkpt><trkpt lat="40.0728192" lon="9.6462677"><ele>457.99999999999994</ele><time>2026-04-22T07:23:22.68Z</time></trkpt><trkpt lat="40.0727658" lon="9.6461412"><ele>458.0</ele><time>2026-04-22T07:23:24.673Z</time></trkpt><trkpt lat="40.0727175" lon="9.6460205"><ele>458.0</ele><time>2026-04-22T07:23:26.679Z</time></trkpt><trkpt lat="40.0727045" lon="9.6458758"><ele>455.16666666666663</ele><time>2026-04-22T07:23:28.676Z</time></trkpt><trkpt lat="40.0727175" lon="9.6457662"><ele>452.3333333333333</ele><time>2026-04-22T07:23:30.686Z</time></trkpt><trkpt lat="40.0727287" lon="9.6456717"><ele>449.5</ele><time>2026-04-22T07:23:32.692Z</time></trkpt><trkpt lat="40.0726626" lon="9.6457001"><ele>446.66666666666663</ele><time>2026-04-22T07:24:40.699Z</time></trkpt><trkpt lat="40.0726433" lon="9.6456157"><ele>443.8333333333333</ele><time>2026-04-22T07:24:47.695Z</time></trkpt><trkpt lat="40.0726226" lon="9.645471"><ele>441.0</ele><time>2026-04-22T07:24:49.695Z</time></trkpt><trkpt lat="40.0726094" lon="9.6453853"><ele>441.2857142857143</ele><time>2026-04-22T07:24:50.692Z</time></trkpt><trkpt lat="40.0725812" lon="9.6452944"><ele>441.57142857142856</ele><time>2026-04-22T07:24:51.692Z</time></trkpt><trkpt lat="40.072555" lon="9.6452112"><ele>441.8571428571429</ele><time>2026-04-22T07:24:52.689Z</time></trkpt><trkpt lat="40.0725357" lon="9.6451214"><ele>442.1428571428571</ele><time>2026-04-22T07:24:53.689Z</time></trkpt><trkpt lat="40.0725321" lon="9.6450357"><ele>442.42857142857144</ele><time>2026-04-22T07:24:54.691Z</time></trkpt><trkpt lat="40.0725299" lon="9.6449364"><ele>442.7142857142857</ele><time>2026-04-22T07:24:55.686Z</time></trkpt><trkpt lat="40.072522" lon="9.6448323"><ele>443.0</ele><time>2026-04-22T07:24:56.686Z</time></trkpt><trkpt lat="40.0725022" lon="9.6447346"><ele>443.0</ele><time>2026-04-22T07:24:57.691Z</time></trkpt><trkpt lat="40.0724499" lon="9.6445998"><ele>442.99999999999994</ele><time>2026-04-22T07:24:59.686Z</time></trkpt><trkpt lat="40.0724171" lon="9.6444504"><ele>442.99999999999994</ele><time>2026-04-22T07:25:01.697Z</time></trkpt><trkpt lat="40.0724033" lon="9.6443289"><ele>443.0</ele><time>2026-04-22T07:25:03.696Z</time></trkpt><trkpt lat="40.0724107" lon="9.6441877"><ele>443.0</ele><time>2026-04-22T07:25:05.698Z</time></trkpt><trkpt lat="40.0724273" lon="9.6441074"><ele>445.3333333333333</ele><time>2026-04-22T07:25:06.697Z</time></trkpt><trkpt lat="40.0724289" lon="9.643997"><ele>447.66666666666663</ele><time>2026-04-22T07:25:08.704Z</time></trkpt><trkpt lat="40.0723471" lon="9.6439101"><ele>450.0</ele><time>2026-04-22T07:25:10.7Z</time></trkpt><trkpt lat="40.0722893" lon="9.6438771"><ele>452.33333333333337</ele><time>2026-04-22T07:25:11.699Z</time></trkpt><trkpt lat="40.0722214" lon="9.643863"><ele>454.6666666666667</ele><time>2026-04-22T07:25:12.699Z</time></trkpt><trkpt lat="40.0721518" lon="9.6438661"><ele>457.0</ele><time>2026-04-22T07:25:13.701Z</time></trkpt><trkpt lat="40.072084" lon="9.6438764"><ele>457.00000000000006</ele><time>2026-04-22T07:25:14.708Z</time></trkpt><trkpt lat="40.0720221" lon="9.6438926"><ele>457.0</ele><time>2026-04-22T07:25:15.7Z</time></trkpt><trkpt lat="40.071943" lon="9.6439174"><ele>457.0</ele><time>2026-04-22T07:25:17.706Z</time></trkpt><trkpt lat="40.0718985" lon="9.6440089"><ele>457.0</ele><time>2026-04-22T07:25:20.713Z</time></trkpt><trkpt lat="40.0719491" lon="9.6441051"><ele>457.00000000000006</ele><time>2026-04-22T07:25:22.718Z</time></trkpt><trkpt lat="40.0719806" lon="9.6441969"><ele>457.0</ele><time>2026-04-22T07:25:24.705Z</time></trkpt><trkpt lat="40.0719837" lon="9.6443053"><ele>457.00000000000006</ele><time>2026-04-22T07:25:26.706Z</time></trkpt><trkpt lat="40.0719119" lon="9.6443488"><ele>457.0</ele><time>2026-04-22T07:25:28.703Z</time></trkpt><trkpt lat="40.0718124" lon="9.6442814"><ele>457.0</ele><time>2026-04-22T07:25:30.709Z</time></trkpt><trkpt lat="40.0717698" lon="9.6442025"><ele>457.0</ele><time>2026-04-22T07:25:31.699Z</time></trkpt><trkpt lat="40.0717362" lon="9.6441149"><ele>457.00000000000006</ele><time>2026-04-22T07:25:32.702Z</time></trkpt><trkpt lat="40.0717119" lon="9.6440334"><ele>457.0</ele><time>2026-04-22T07:25:33.699Z</time></trkpt><trkpt lat="40.0716821" lon="9.6439495"><ele>457.00000000000006</ele><time>2026-04-22T07:25:34.696Z</time></trkpt><trkpt lat="40.0716481" lon="9.6438687"><ele>457.0</ele><time>2026-04-22T07:25:35.697Z</time></trkpt><trkpt lat="40.0716197" lon="9.6437851"><ele>457.0</ele><time>2026-04-22T07:25:36.691Z</time></trkpt><trkpt lat="40.0715915" lon="9.6436738"><ele>457.0</ele><time>2026-04-22T07:25:37.707Z</time></trkpt><trkpt lat="40.0715591" lon="9.6435569"><ele>457.00000000000006</ele><time>2026-04-22T07:25:38.704Z</time></trkpt><trkpt lat="40.0715304" lon="9.6434407"><ele>457.0</ele><time>2026-04-22T07:25:39.705Z</time></trkpt><trkpt lat="40.0715018" lon="9.643331"><ele>459.6666666666667</ele><time>2026-04-22T07:25:40.707Z</time></trkpt><trkpt lat="40.0714703" lon="9.6432302"><ele>462.33333333333337</ele><time>2026-04-22T07:25:41.699Z</time></trkpt><trkpt lat="40.0714388" lon="9.6431245"><ele>465.0</ele><time>2026-04-22T07:25:42.702Z</time></trkpt><trkpt lat="40.0714039" lon="9.6430197"><ele>467.66666666666663</ele><time>2026-04-22T07:25:43.705Z</time></trkpt><trkpt lat="40.0713622" lon="9.6429095"><ele>470.3333333333333</ele><time>2026-04-22T07:25:44.706Z</time></trkpt><trkpt lat="40.0713215" lon="9.6428041"><ele>473.0</ele><time>2026-04-22T07:25:45.701Z</time></trkpt><trkpt lat="40.0712779" lon="9.6427098"><ele>473.0</ele><time>2026-04-22T07:25:46.71Z</time></trkpt><trkpt lat="40.0712394" lon="9.642622"><ele>473.0</ele><time>2026-04-22T07:25:47.708Z</time></trkpt><trkpt lat="40.0711979" lon="9.6425425"><ele>473.0</ele><time>2026-04-22T07:25:48.711Z</time></trkpt><trkpt lat="40.0711597" lon="9.6424654"><ele>473.0</ele><time>2026-04-22T07:25:49.709Z</time></trkpt><trkpt lat="40.071125" lon="9.6423946"><ele>473.0</ele><time>2026-04-22T07:25:50.705Z</time></trkpt><trkpt lat="40.0710822" lon="9.642327"><ele>473.0</ele><time>2026-04-22T07:25:51.713Z</time></trkpt><trkpt lat="40.0710344" lon="9.6422601"><ele>473.0</ele><time>2026-04-22T07:25:52.714Z</time></trkpt><trkpt lat="40.0709731" lon="9.6421778"><ele>472.99999999999994</ele><time>2026-04-22T07:25:53.703Z</time></trkpt><trkpt lat="40.0709163" lon="9.6420862"><ele>473.0</ele><time>2026-04-22T07:25:54.701Z</time></trkpt><trkpt lat="40.0708607" lon="9.6419892"><ele>473.0</ele><time>2026-04-22T07:25:55.707Z</time></trkpt><trkpt lat="40.0708052" lon="9.6418983"><ele>473.0</ele><time>2026-04-22T07:25:56.705Z</time></trkpt><trkpt lat="40.0707518" lon="9.6418106"><ele>472.99999999999994</ele><time>2026-04-22T07:25:57.702Z</time></trkpt><trkpt lat="40.0707101" lon="9.6417214"><ele>473.0</ele><time>2026-04-22T07:25:58.702Z</time></trkpt><trkpt lat="40.0706823" lon="9.6416411"><ele>472.2</ele><time>2026-04-22T07:25:59.705Z</time></trkpt><trkpt lat="40.0706585" lon="9.6414871"><ele>471.4</ele><time>2026-04-22T07:26:01.712Z</time></trkpt><trkpt lat="40.0706297" lon="9.6413441"><ele>470.59999999999997</ele><time>2026-04-22T07:26:03.704Z</time></trkpt><trkpt lat="40.0705699" lon="9.641251"><ele>469.79999999999995</ele><time>2026-04-22T07:26:05.709Z</time></trkpt><trkpt lat="40.0705015" lon="9.6411775"><ele>469.0</ele><time>2026-04-22T07:26:07.705Z</time></trkpt><trkpt lat="40.0704313" lon="9.641108"><ele>469.0</ele><time>2026-04-22T07:26:09.704Z</time></trkpt><trkpt lat="40.0703282" lon="9.6410823"><ele>469.0</ele><time>2026-04-22T07:26:11.708Z</time></trkpt><trkpt lat="40.0702657" lon="9.6411023"><ele>469.0</ele><time>2026-04-22T07:26:12.704Z</time></trkpt><trkpt lat="40.0701966" lon="9.6411306"><ele>469.0</ele><time>2026-04-22T07:26:13.713Z</time></trkpt><trkpt lat="40.0701302" lon="9.6411559"><ele>469.0</ele><time>2026-04-22T07:26:14.702Z</time></trkpt><trkpt lat="40.0700679" lon="9.6411856"><ele>469.0</ele><time>2026-04-22T07:26:15.707Z</time></trkpt><trkpt lat="40.0700055" lon="9.6412227"><ele>469.0</ele><time>2026-04-22T07:26:16.702Z</time></trkpt><trkpt lat="40.0699443" lon="9.641253"><ele>468.79999999999995</ele><time>2026-04-22T07:26:17.704Z</time></trkpt><trkpt lat="40.0698806" lon="9.6412758"><ele>468.59999999999997</ele><time>2026-04-22T07:26:18.704Z</time></trkpt><trkpt lat="40.0697755" lon="9.6413166"><ele>468.4</ele><time>2026-04-22T07:26:20.704Z</time></trkpt><trkpt lat="40.0696853" lon="9.6412926"><ele>468.2</ele><time>2026-04-22T07:26:22.71Z</time></trkpt><trkpt lat="40.069591" lon="9.641174"><ele>468.0</ele><time>2026-04-22T07:26:24.707Z</time></trkpt><trkpt lat="40.0695364" lon="9.6411005"><ele>468.0</ele><time>2026-04-22T07:26:25.705Z</time></trkpt><trkpt lat="40.0694838" lon="9.6410181"><ele>468.0</ele><time>2026-04-22T07:26:26.708Z</time></trkpt><trkpt lat="40.0694376" lon="9.6409309"><ele>468.0</ele><time>2026-04-22T07:26:27.709Z</time></trkpt><trkpt lat="40.0693909" lon="9.6408483"><ele>468.0</ele><time>2026-04-22T07:26:28.708Z</time></trkpt><trkpt lat="40.0693318" lon="9.6407826"><ele>468.0</ele><time>2026-04-22T07:26:29.71Z</time></trkpt><trkpt lat="40.069262" lon="9.6407432"><ele>468.0</ele><time>2026-04-22T07:26:30.704Z</time></trkpt><trkpt lat="40.0691955" lon="9.6407153"><ele>468.0</ele><time>2026-04-22T07:26:31.705Z</time></trkpt><trkpt lat="40.0691378" lon="9.6406751"><ele>468.00000000000006</ele><time>2026-04-22T07:26:32.703Z</time></trkpt><trkpt lat="40.0690851" lon="9.6406111"><ele>468.0</ele><time>2026-04-22T07:26:33.7Z</time></trkpt><trkpt lat="40.0690378" lon="9.6405393"><ele>468.0</ele><time>2026-04-22T07:26:34.707Z</time></trkpt><trkpt lat="40.0689951" lon="9.640473"><ele>468.00000000000006</ele><time>2026-04-22T07:26:35.706Z</time></trkpt><trkpt lat="40.068948" lon="9.6404125"><ele>468.0</ele><time>2026-04-22T07:26:36.704Z</time></trkpt><trkpt lat="40.0689082" lon="9.6403432"><ele>468.0</ele><time>2026-04-22T07:26:37.702Z</time></trkpt><trkpt lat="40.0688695" lon="9.6402558"><ele>469.6666666666667</ele><time>2026-04-22T07:26:38.7Z</time></trkpt><trkpt lat="40.0688374" lon="9.6401623"><ele>471.33333333333337</ele><time>2026-04-22T07:26:39.705Z</time></trkpt><trkpt lat="40.0688108" lon="9.6400628"><ele>473.0</ele><time>2026-04-22T07:26:40.698Z</time></trkpt><trkpt lat="40.068782" lon="9.6399659"><ele>474.6666666666667</ele><time>2026-04-22T07:26:41.699Z</time></trkpt><trkpt lat="40.0687381" lon="9.6398768"><ele>476.33333333333337</ele><time>2026-04-22T07:26:42.7Z</time></trkpt><trkpt lat="40.0686813" lon="9.6397864"><ele>478.0</ele><time>2026-04-22T07:26:43.709Z</time></trkpt><trkpt lat="40.0686237" lon="9.6396997"><ele>478.00000000000006</ele><time>2026-04-22T07:26:44.701Z</time></trkpt><trkpt lat="40.0685737" lon="9.6396159"><ele>478.0</ele><time>2026-04-22T07:26:45.699Z</time></trkpt><trkpt lat="40.0685128" lon="9.6395369"><ele>478.0</ele><time>2026-04-22T07:26:46.701Z</time></trkpt><trkpt lat="40.0684507" lon="9.6394665"><ele>478.0</ele><time>2026-04-22T07:26:47.7Z</time></trkpt><trkpt lat="40.0683806" lon="9.6394145"><ele>478.00000000000006</ele><time>2026-04-22T07:26:48.699Z</time></trkpt><trkpt lat="40.0683023" lon="9.6393792"><ele>478.0</ele><time>2026-04-22T07:26:49.7Z</time></trkpt><trkpt lat="40.0682283" lon="9.6393436"><ele>478.33333333333337</ele><time>2026-04-22T07:26:50.702Z</time></trkpt><trkpt lat="40.068163" lon="9.6393037"><ele>478.6666666666667</ele><time>2026-04-22T07:26:51.703Z</time></trkpt><trkpt lat="40.0681138" lon="9.639247"><ele>479.0</ele><time>2026-04-22T07:26:52.709Z</time></trkpt><trkpt lat="40.0680764" lon="9.6391658"><ele>479.33333333333337</ele><time>2026-04-22T07:26:53.704Z</time></trkpt><trkpt lat="40.0680439" lon="9.63907"><ele>479.6666666666667</ele><time>2026-04-22T07:26:54.704Z</time></trkpt><trkpt lat="40.068012" lon="9.6389728"><ele>480.0</ele><time>2026-04-22T07:26:55.709Z</time></trkpt><trkpt lat="40.0679695" lon="9.6388853"><ele>480.0</ele><time>2026-04-22T07:26:56.7Z</time></trkpt><trkpt lat="40.0679046" lon="9.638772"><ele>480.0</ele><time>2026-04-22T07:26:58.71Z</time></trkpt><trkpt lat="40.0678013" lon="9.6387459"><ele>480.0</ele><time>2026-04-22T07:27:00.707Z</time></trkpt><trkpt lat="40.0676825" lon="9.6387132"><ele>480.0</ele><time>2026-04-22T07:27:02.706Z</time></trkpt><trkpt lat="40.0676232" lon="9.638675"><ele>480.0</ele><time>2026-04-22T07:27:03.707Z</time></trkpt><trkpt lat="40.0675189" lon="9.6386143"><ele>479.6666666666667</ele><time>2026-04-22T07:27:05.701Z</time></trkpt><trkpt lat="40.0674099" lon="9.6386393"><ele>479.33333333333337</ele><time>2026-04-22T07:27:07.694Z</time></trkpt><trkpt lat="40.0673446" lon="9.6386604"><ele>479.0</ele><time>2026-04-22T07:27:08.697Z</time></trkpt><trkpt lat="40.0672808" lon="9.638657"><ele>478.6666666666667</ele><time>2026-04-22T07:27:09.689Z</time></trkpt><trkpt lat="40.0672113" lon="9.6386354"><ele>478.33333333333337</ele><time>2026-04-22T07:27:10.695Z</time></trkpt><trkpt lat="40.067139" lon="9.6386061"><ele>478.0</ele><time>2026-04-22T07:27:11.696Z</time></trkpt><trkpt lat="40.0670618" lon="9.6385746"><ele>478.00000000000006</ele><time>2026-04-22T07:27:12.696Z</time></trkpt><trkpt lat="40.0669876" lon="9.6385436"><ele>478.0</ele><time>2026-04-22T07:27:13.697Z</time></trkpt><trkpt lat="40.0669187" lon="9.6385078"><ele>478.0</ele><time>2026-04-22T07:27:14.694Z</time></trkpt><trkpt lat="40.0668592" lon="9.6384784"><ele>478.0</ele><time>2026-04-22T07:27:15.697Z</time></trkpt><trkpt lat="40.0667417" lon="9.6384065"><ele>478.00000000000006</ele><time>2026-04-22T07:27:17.695Z</time></trkpt><trkpt lat="40.066683" lon="9.6383398"><ele>478.0</ele><time>2026-04-22T07:27:18.696Z</time></trkpt><trkpt lat="40.0666283" lon="9.6382774"><ele>481.00000000000006</ele><time>2026-04-22T07:27:19.694Z</time></trkpt><trkpt lat="40.0665798" lon="9.6382242"><ele>484.0</ele><time>2026-04-22T07:27:20.697Z</time></trkpt><trkpt lat="40.0664873" lon="9.6381542"><ele>487.0</ele><time>2026-04-22T07:27:22.695Z</time></trkpt><trkpt lat="40.0664359" lon="9.6380949"><ele>490.0</ele><time>2026-04-22T07:27:23.694Z</time></trkpt><trkpt lat="40.0663801" lon="9.6380351"><ele>493.00000000000006</ele><time>2026-04-22T07:27:24.696Z</time></trkpt><trkpt lat="40.0663219" lon="9.6379601"><ele>496.0</ele><time>2026-04-22T07:27:25.69Z</time></trkpt><trkpt lat="40.0662567" lon="9.6378702"><ele>493.50000000000006</ele><time>2026-04-22T07:27:26.693Z</time></trkpt><trkpt lat="40.0662002" lon="9.6377794"><ele>491.0</ele><time>2026-04-22T07:27:27.699Z</time></trkpt><trkpt lat="40.0661449" lon="9.6377114"><ele>488.5</ele><time>2026-04-22T07:27:28.696Z</time></trkpt><trkpt lat="40.0660821" lon="9.6376521"><ele>486.0</ele><time>2026-04-22T07:27:29.691Z</time></trkpt><trkpt lat="40.06601" lon="9.637595"><ele>483.50000000000006</ele><time>2026-04-22T07:27:30.694Z</time></trkpt><trkpt lat="40.065933" lon="9.6375409"><ele>481.0</ele><time>2026-04-22T07:27:31.695Z</time></trkpt><trkpt lat="40.0658559" lon="9.6374947"><ele>482.83333333333337</ele><time>2026-04-22T07:27:32.693Z</time></trkpt><trkpt lat="40.0657778" lon="9.6374598"><ele>484.6666666666667</ele><time>2026-04-22T07:27:33.694Z</time></trkpt><trkpt lat="40.065708" lon="9.6374384"><ele>486.5</ele><time>2026-04-22T07:27:34.692Z</time></trkpt><trkpt lat="40.0656346" lon="9.6374165"><ele>488.33333333333337</ele><time>2026-04-22T07:27:35.694Z</time></trkpt><trkpt lat="40.0655619" lon="9.6373993"><ele>490.1666666666667</ele><time>2026-04-22T07:27:36.69Z</time></trkpt><trkpt lat="40.0654788" lon="9.6373848"><ele>492.0</ele><time>2026-04-22T07:27:37.698Z</time></trkpt><trkpt lat="40.065409" lon="9.637358"><ele>492.0</ele><time>2026-04-22T07:27:38.69Z</time></trkpt><trkpt lat="40.0653291" lon="9.6373189"><ele>492.0</ele><time>2026-04-22T07:27:39.692Z</time></trkpt><trkpt lat="40.0652542" lon="9.6372648"><ele>492.0</ele><time>2026-04-22T07:27:40.692Z</time></trkpt><trkpt lat="40.0651906" lon="9.6371998"><ele>492.0</ele><time>2026-04-22T07:27:41.687Z</time></trkpt><trkpt lat="40.0651199" lon="9.63715"><ele>492.0</ele><time>2026-04-22T07:27:42.696Z</time></trkpt><trkpt lat="40.0650426" lon="9.6371033"><ele>492.0</ele><time>2026-04-22T07:27:43.697Z</time></trkpt><trkpt lat="40.0649592" lon="9.6370635"><ele>491.3333333333333</ele><time>2026-04-22T07:27:44.69Z</time></trkpt><trkpt lat="40.0648789" lon="9.6370157"><ele>490.66666666666663</ele><time>2026-04-22T07:27:45.691Z</time></trkpt><trkpt lat="40.0648043" lon="9.6369692"><ele>490.0</ele><time>2026-04-22T07:27:46.692Z</time></trkpt><trkpt lat="40.0647376" lon="9.6369129"><ele>489.3333333333333</ele><time>2026-04-22T07:27:47.692Z</time></trkpt><trkpt lat="40.0646769" lon="9.6368601"><ele>488.66666666666663</ele><time>2026-04-22T07:27:48.698Z</time></trkpt><trkpt lat="40.0646229" lon="9.6368076"><ele>488.0</ele><time>2026-04-22T07:27:49.689Z</time></trkpt><trkpt lat="40.0645238" lon="9.6367162"><ele>487.99999999999994</ele><time>2026-04-22T07:27:51.695Z</time></trkpt><trkpt lat="40.0644127" lon="9.6366414"><ele>488.0</ele><time>2026-04-22T07:27:53.691Z</time></trkpt><trkpt lat="40.0643493" lon="9.6366073"><ele>488.0</ele><time>2026-04-22T07:27:54.694Z</time></trkpt><trkpt lat="40.0642879" lon="9.6365778"><ele>488.0</ele><time>2026-04-22T07:27:55.695Z</time></trkpt><trkpt lat="40.0642257" lon="9.636548"><ele>487.99999999999994</ele><time>2026-04-22T07:27:56.687Z</time></trkpt><trkpt lat="40.0641552" lon="9.6365182"><ele>488.0</ele><time>2026-04-22T07:27:57.697Z</time></trkpt><trkpt lat="40.0640906" lon="9.6364861"><ele>487.99999999999994</ele><time>2026-04-22T07:27:58.692Z</time></trkpt><trkpt lat="40.0639934" lon="9.6363968"><ele>488.0</ele><time>2026-04-22T07:28:00.686Z</time></trkpt><trkpt lat="40.0639474" lon="9.6363329"><ele>488.0</ele><time>2026-04-22T07:28:01.693Z</time></trkpt><trkpt lat="40.0638955" lon="9.6362592"><ele>488.0</ele><time>2026-04-22T07:28:02.694Z</time></trkpt><trkpt lat="40.0638381" lon="9.6361705"><ele>487.99999999999994</ele><time>2026-04-22T07:28:03.691Z</time></trkpt><trkpt lat="40.0637688" lon="9.6360808"><ele>488.0</ele><time>2026-04-22T07:28:04.696Z</time></trkpt><trkpt lat="40.063704" lon="9.6359885"><ele>487.99999999999994</ele><time>2026-04-22T07:28:05.697Z</time></trkpt><trkpt lat="40.0636538" lon="9.6359002"><ele>488.0</ele><time>2026-04-22T07:28:06.693Z</time></trkpt><trkpt lat="40.0636095" lon="9.6358144"><ele>487.99999999999994</ele><time>2026-04-22T07:28:07.703Z</time></trkpt><trkpt lat="40.0635689" lon="9.6357402"><ele>487.99999999999994</ele><time>2026-04-22T07:28:08.703Z</time></trkpt><trkpt lat="40.0635286" lon="9.6356765"><ele>488.0</ele><time>2026-04-22T07:28:09.712Z</time></trkpt><trkpt lat="40.0634913" lon="9.6356028"><ele>487.99999999999994</ele><time>2026-04-22T07:28:10.711Z</time></trkpt><trkpt lat="40.0634514" lon="9.6355157"><ele>487.99999999999994</ele><time>2026-04-22T07:28:11.711Z</time></trkpt><trkpt lat="40.0634118" lon="9.6354331"><ele>487.99999999999994</ele><time>2026-04-22T07:28:12.708Z</time></trkpt><trkpt lat="40.0633835" lon="9.6353509"><ele>488.0</ele><time>2026-04-22T07:28:13.721Z</time></trkpt><trkpt lat="40.06336" lon="9.6352568"><ele>488.0</ele><time>2026-04-22T07:28:14.705Z</time></trkpt><trkpt lat="40.0633362" lon="9.6351558"><ele>488.0</ele><time>2026-04-22T07:28:15.706Z</time></trkpt><trkpt lat="40.0633039" lon="9.6350542"><ele>487.99999999999994</ele><time>2026-04-22T07:28:16.709Z</time></trkpt><trkpt lat="40.0632707" lon="9.634946"><ele>488.0</ele><time>2026-04-22T07:28:17.706Z</time></trkpt><trkpt lat="40.0632456" lon="9.6348357"><ele>487.8333333333333</ele><time>2026-04-22T07:28:18.71Z</time></trkpt><trkpt lat="40.0632131" lon="9.6347251"><ele>487.66666666666663</ele><time>2026-04-22T07:28:19.713Z</time></trkpt><trkpt lat="40.0631834" lon="9.6346174"><ele>487.5</ele><time>2026-04-22T07:28:20.713Z</time></trkpt><trkpt lat="40.0631499" lon="9.6345026"><ele>487.33333333333337</ele><time>2026-04-22T07:28:21.717Z</time></trkpt><trkpt lat="40.0631177" lon="9.634397"><ele>487.1666666666667</ele><time>2026-04-22T07:28:22.716Z</time></trkpt><trkpt lat="40.0630932" lon="9.634301"><ele>487.0</ele><time>2026-04-22T07:28:23.72Z</time></trkpt><trkpt lat="40.0630725" lon="9.634217"><ele>487.00000000000006</ele><time>2026-04-22T07:28:24.713Z</time></trkpt><trkpt lat="40.063041" lon="9.6341356"><ele>487.0</ele><time>2026-04-22T07:28:25.715Z</time></trkpt><trkpt lat="40.0630028" lon="9.6340688"><ele>487.0</ele><time>2026-04-22T07:28:26.718Z</time></trkpt><trkpt lat="40.0628904" lon="9.6339928"><ele>487.0</ele><time>2026-04-22T07:28:28.709Z</time></trkpt><trkpt lat="40.0628143" lon="9.6339712"><ele>487.00000000000006</ele><time>2026-04-22T07:28:29.702Z</time></trkpt><trkpt lat="40.0627324" lon="9.6339556"><ele>487.0</ele><time>2026-04-22T07:28:30.708Z</time></trkpt><trkpt lat="40.0626489" lon="9.6339121"><ele>487.00000000000006</ele><time>2026-04-22T07:28:31.706Z</time></trkpt><trkpt lat="40.0625818" lon="9.6338605"><ele>487.0</ele><time>2026-04-22T07:28:32.713Z</time></trkpt><trkpt lat="40.0625172" lon="9.6337943"><ele>487.0</ele><time>2026-04-22T07:28:33.709Z</time></trkpt><trkpt lat="40.0624666" lon="9.6337268"><ele>487.0</ele><time>2026-04-22T07:28:34.718Z</time></trkpt><trkpt lat="40.0624192" lon="9.633652"><ele>487.00000000000006</ele><time>2026-04-22T07:28:35.709Z</time></trkpt><trkpt lat="40.0623799" lon="9.6335869"><ele>487.0</ele><time>2026-04-22T07:28:36.715Z</time></trkpt><trkpt lat="40.0623224" lon="9.6334551"><ele>486.6666666666667</ele><time>2026-04-22T07:28:38.714Z</time></trkpt><trkpt lat="40.0622972" lon="9.6333146"><ele>486.33333333333337</ele><time>2026-04-22T07:28:40.71Z</time></trkpt><trkpt lat="40.0622776" lon="9.6332338"><ele>486.0</ele><time>2026-04-22T07:28:41.706Z</time></trkpt><trkpt lat="40.062245" lon="9.6331519"><ele>485.66666666666663</ele><time>2026-04-22T07:28:42.704Z</time></trkpt><trkpt lat="40.0621859" lon="9.6330699"><ele>485.3333333333333</ele><time>2026-04-22T07:28:43.714Z</time></trkpt><trkpt lat="40.0621166" lon="9.6329971"><ele>485.0</ele><time>2026-04-22T07:28:44.697Z</time></trkpt><trkpt lat="40.0620485" lon="9.6329394"><ele>485.0</ele><time>2026-04-22T07:28:45.708Z</time></trkpt><trkpt lat="40.0619701" lon="9.6329024"><ele>485.0</ele><time>2026-04-22T07:28:46.704Z</time></trkpt><trkpt lat="40.0618717" lon="9.6328817"><ele>485.0</ele><time>2026-04-22T07:28:48.704Z</time></trkpt><trkpt lat="40.0617966" lon="9.6328878"><ele>485.0</ele><time>2026-04-22T07:28:59.709Z</time></trkpt><trkpt lat="40.0616787" lon="9.6328764"><ele>485.0</ele><time>2026-04-22T07:29:01.7Z</time></trkpt><trkpt lat="40.0615906" lon="9.632843"><ele>485.4</ele><time>2026-04-22T07:29:02.708Z</time></trkpt><trkpt lat="40.0614847" lon="9.6327966"><ele>485.8</ele><time>2026-04-22T07:29:03.705Z</time></trkpt><trkpt lat="40.0613903" lon="9.6327687"><ele>486.20000000000005</ele><time>2026-04-22T07:29:04.704Z</time></trkpt><trkpt lat="40.0612974" lon="9.6327329"><ele>486.6</ele><time>2026-04-22T07:29:05.709Z</time></trkpt><trkpt lat="40.0612146" lon="9.6327048"><ele>487.0</ele><time>2026-04-22T07:29:06.71Z</time></trkpt><trkpt lat="40.0611304" lon="9.6326774"><ele>487.00000000000006</ele><time>2026-04-22T07:29:07.707Z</time></trkpt><trkpt lat="40.0610424" lon="9.6326555"><ele>487.0</ele><time>2026-04-22T07:29:08.709Z</time></trkpt><trkpt lat="40.0609575" lon="9.6326389"><ele>487.0</ele><time>2026-04-22T07:29:09.702Z</time></trkpt><trkpt lat="40.0608685" lon="9.6326117"><ele>487.0</ele><time>2026-04-22T07:29:10.708Z</time></trkpt><trkpt lat="40.0607833" lon="9.6325868"><ele>487.00000000000006</ele><time>2026-04-22T07:29:11.706Z</time></trkpt><trkpt lat="40.0607013" lon="9.6325484"><ele>487.0</ele><time>2026-04-22T07:29:12.708Z</time></trkpt><trkpt lat="40.0606238" lon="9.6325094"><ele>487.1666666666667</ele><time>2026-04-22T07:29:13.717Z</time></trkpt><trkpt lat="40.0605497" lon="9.6324727"><ele>487.33333333333337</ele><time>2026-04-22T07:29:14.706Z</time></trkpt><trkpt lat="40.0604896" lon="9.6324452"><ele>487.5</ele><time>2026-04-22T07:29:15.709Z</time></trkpt><trkpt lat="40.0603816" lon="9.6324182"><ele>487.66666666666663</ele><time>2026-04-22T07:29:17.706Z</time></trkpt><trkpt lat="40.0603192" lon="9.6324058"><ele>487.8333333333333</ele><time>2026-04-22T07:29:18.706Z</time></trkpt><trkpt lat="40.0602538" lon="9.6323871"><ele>488.0</ele><time>2026-04-22T07:29:19.704Z</time></trkpt><trkpt lat="40.0601541" lon="9.6323419"><ele>487.99999999999994</ele><time>2026-04-22T07:29:21.706Z</time></trkpt><trkpt lat="40.0600306" lon="9.6323075"><ele>488.0</ele><time>2026-04-22T07:29:23.709Z</time></trkpt><trkpt lat="40.0599659" lon="9.6322782"><ele>488.0</ele><time>2026-04-22T07:29:24.707Z</time></trkpt><trkpt lat="40.0599074" lon="9.632236"><ele>488.0</ele><time>2026-04-22T07:29:25.703Z</time></trkpt><trkpt lat="40.0598598" lon="9.6321807"><ele>487.99999999999994</ele><time>2026-04-22T07:29:26.708Z</time></trkpt><trkpt lat="40.0597971" lon="9.6320767"><ele>488.0</ele><time>2026-04-22T07:29:28.703Z</time></trkpt><trkpt lat="40.0597744" lon="9.6319386"><ele>489.59999999999997</ele><time>2026-04-22T07:29:30.705Z</time></trkpt><trkpt lat="40.0597721" lon="9.6317832"><ele>491.19999999999993</ele><time>2026-04-22T07:29:32.703Z</time></trkpt><trkpt lat="40.0597529" lon="9.6316392"><ele>492.8</ele><time>2026-04-22T07:29:34.702Z</time></trkpt><trkpt lat="40.0596542" lon="9.6315392"><ele>494.4</ele><time>2026-04-22T07:29:36.7Z</time></trkpt><trkpt lat="40.0595859" lon="9.6314983"><ele>496.0</ele><time>2026-04-22T07:29:37.707Z</time></trkpt><trkpt lat="40.0595131" lon="9.6314589"><ele>496.0</ele><time>2026-04-22T07:29:38.706Z</time></trkpt><trkpt lat="40.0594424" lon="9.6314263"><ele>496.00000000000006</ele><time>2026-04-22T07:29:39.708Z</time></trkpt><trkpt lat="40.0593669" lon="9.6314163"><ele>496.0</ele><time>2026-04-22T07:29:40.702Z</time></trkpt><trkpt lat="40.0592873" lon="9.6314177"><ele>496.0</ele><time>2026-04-22T07:29:41.702Z</time></trkpt><trkpt lat="40.0592125" lon="9.6314196"><ele>496.00000000000006</ele><time>2026-04-22T07:29:42.706Z</time></trkpt><trkpt lat="40.0591382" lon="9.6314217"><ele>496.0</ele><time>2026-04-22T07:29:43.711Z</time></trkpt><trkpt lat="40.0590697" lon="9.6314317"><ele>496.0</ele><time>2026-04-22T07:29:44.702Z</time></trkpt><trkpt lat="40.0589988" lon="9.6314413"><ele>498.28571428571433</ele><time>2026-04-22T07:29:45.705Z</time></trkpt><trkpt lat="40.0589297" lon="9.6314409"><ele>500.5714285714286</ele><time>2026-04-22T07:29:46.705Z</time></trkpt><trkpt lat="40.0588623" lon="9.6314216"><ele>502.8571428571429</ele><time>2026-04-22T07:29:47.704Z</time></trkpt><trkpt lat="40.0587994" lon="9.6313802"><ele>505.1428571428571</ele><time>2026-04-22T07:29:48.702Z</time></trkpt><trkpt lat="40.0587376" lon="9.6313244"><ele>507.4285714285714</ele><time>2026-04-22T07:29:49.699Z</time></trkpt><trkpt lat="40.0586728" lon="9.6312764"><ele>509.71428571428567</ele><time>2026-04-22T07:29:50.703Z</time></trkpt><trkpt lat="40.0585945" lon="9.6312291"><ele>512.0</ele><time>2026-04-22T07:29:51.709Z</time></trkpt><trkpt lat="40.0585146" lon="9.6311742"><ele>512.5</ele><time>2026-04-22T07:29:52.709Z</time></trkpt><trkpt lat="40.0584359" lon="9.6311303"><ele>513.0</ele><time>2026-04-22T07:29:53.711Z</time></trkpt><trkpt lat="40.0583541" lon="9.6310785"><ele>513.5</ele><time>2026-04-22T07:29:54.709Z</time></trkpt><trkpt lat="40.058279" lon="9.6310261"><ele>514.0</ele><time>2026-04-22T07:29:55.709Z</time></trkpt><trkpt lat="40.0582055" lon="9.6309743"><ele>514.5</ele><time>2026-04-22T07:29:56.711Z</time></trkpt><trkpt lat="40.0581335" lon="9.6309311"><ele>515.0</ele><time>2026-04-22T07:29:57.708Z</time></trkpt><trkpt lat="40.0580672" lon="9.6308934"><ele>515.0</ele><time>2026-04-22T07:29:58.709Z</time></trkpt><trkpt lat="40.0579984" lon="9.630864"><ele>515.0</ele><time>2026-04-22T07:29:59.71Z</time></trkpt><trkpt lat="40.0579292" lon="9.6308532"><ele>515.0</ele><time>2026-04-22T07:30:00.706Z</time></trkpt><trkpt lat="40.0578517" lon="9.6308555"><ele>515.0</ele><time>2026-04-22T07:30:01.712Z</time></trkpt><trkpt lat="40.0577755" lon="9.6308635"><ele>515.0</ele><time>2026-04-22T07:30:02.709Z</time></trkpt><trkpt lat="40.0576989" lon="9.6308676"><ele>515.0</ele><time>2026-04-22T07:30:03.703Z</time></trkpt><trkpt lat="40.05762" lon="9.6308746"><ele>515.0</ele><time>2026-04-22T07:30:04.705Z</time></trkpt><trkpt lat="40.0575498" lon="9.6308878"><ele>515.0</ele><time>2026-04-22T07:30:05.703Z</time></trkpt><trkpt lat="40.0574361" lon="9.6309358"><ele>515.0</ele><time>2026-04-22T07:30:07.704Z</time></trkpt><trkpt lat="40.0573585" lon="9.6310537"><ele>515.0</ele><time>2026-04-22T07:30:09.707Z</time></trkpt><trkpt lat="40.0573286" lon="9.6311503"><ele>515.0</ele><time>2026-04-22T07:30:10.7Z</time></trkpt><trkpt lat="40.0573101" lon="9.6312625"><ele>517.3333333333333</ele><time>2026-04-22T07:30:11.703Z</time></trkpt><trkpt lat="40.0572971" lon="9.631377"><ele>519.6666666666666</ele><time>2026-04-22T07:30:12.701Z</time></trkpt><trkpt lat="40.0572878" lon="9.6314891"><ele>522.0</ele><time>2026-04-22T07:30:13.706Z</time></trkpt><trkpt lat="40.0572734" lon="9.6316018"><ele>524.3333333333334</ele><time>2026-04-22T07:30:14.708Z</time></trkpt><trkpt lat="40.0572567" lon="9.6317064"><ele>526.6666666666667</ele><time>2026-04-22T07:30:15.703Z</time></trkpt><trkpt lat="40.0572293" lon="9.6318001"><ele>529.0</ele><time>2026-04-22T07:30:16.704Z</time></trkpt><trkpt lat="40.0571938" lon="9.6318902"><ele>530.1666666666667</ele><time>2026-04-22T07:30:17.707Z</time></trkpt><trkpt lat="40.0571557" lon="9.6319859"><ele>531.3333333333334</ele><time>2026-04-22T07:30:18.7Z</time></trkpt><trkpt lat="40.0571151" lon="9.6320839"><ele>532.5</ele><time>2026-04-22T07:30:19.702Z</time></trkpt><trkpt lat="40.0570873" lon="9.6321892"><ele>533.6666666666666</ele><time>2026-04-22T07:30:20.702Z</time></trkpt><trkpt lat="40.0570701" lon="9.6323054"><ele>534.8333333333333</ele><time>2026-04-22T07:30:21.701Z</time></trkpt><trkpt lat="40.0570682" lon="9.6324176"><ele>536.0</ele><time>2026-04-22T07:30:22.71Z</time></trkpt><trkpt lat="40.0570673" lon="9.6325147"><ele>536.0</ele><time>2026-04-22T07:30:23.705Z</time></trkpt><trkpt lat="40.0570502" lon="9.6325982"><ele>536.0</ele><time>2026-04-22T07:30:24.704Z</time></trkpt><trkpt lat="40.0570166" lon="9.6326863"><ele>536.0</ele><time>2026-04-22T07:30:25.703Z</time></trkpt><trkpt lat="40.0569723" lon="9.6327695"><ele>536.0</ele><time>2026-04-22T07:30:26.707Z</time></trkpt><trkpt lat="40.0569046" lon="9.6328347"><ele>536.0</ele><time>2026-04-22T07:30:27.701Z</time></trkpt><trkpt lat="40.0568237" lon="9.6328896"><ele>536.0</ele><time>2026-04-22T07:30:28.7Z</time></trkpt><trkpt lat="40.05674" lon="9.632935"><ele>538.5</ele><time>2026-04-22T07:30:29.71Z</time></trkpt><trkpt lat="40.0566616" lon="9.6329868"><ele>541.0</ele><time>2026-04-22T07:30:30.712Z</time></trkpt><trkpt lat="40.0565995" lon="9.6330459"><ele>543.5</ele><time>2026-04-22T07:30:31.713Z</time></trkpt><trkpt lat="40.0565476" lon="9.6331148"><ele>546.0</ele><time>2026-04-22T07:30:32.706Z</time></trkpt><trkpt lat="40.0565034" lon="9.6331985"><ele>548.5</ele><time>2026-04-22T07:30:33.707Z</time></trkpt><trkpt lat="40.056467" lon="9.6332923"><ele>551.0</ele><time>2026-04-22T07:30:34.704Z</time></trkpt><trkpt lat="40.056434" lon="9.6333834"><ele>551.8333333333333</ele><time>2026-04-22T07:30:35.702Z</time></trkpt><trkpt lat="40.0564016" lon="9.6334799"><ele>552.6666666666666</ele><time>2026-04-22T07:30:36.705Z</time></trkpt><trkpt lat="40.0563735" lon="9.6335818"><ele>553.5</ele><time>2026-04-22T07:30:37.703Z</time></trkpt><trkpt lat="40.0563524" lon="9.6336681"><ele>554.3333333333334</ele><time>2026-04-22T07:30:38.701Z</time></trkpt><trkpt lat="40.0563212" lon="9.6337977"><ele>555.1666666666667</ele><time>2026-04-22T07:30:40.701Z</time></trkpt><trkpt lat="40.0562409" lon="9.6338649"><ele>556.0</ele><time>2026-04-22T07:30:42.699Z</time></trkpt><trkpt lat="40.0561777" lon="9.6338884"><ele>558.1428571428571</ele><time>2026-04-22T07:30:43.705Z</time></trkpt><trkpt lat="40.0561122" lon="9.6339266"><ele>560.2857142857143</ele><time>2026-04-22T07:30:44.704Z</time></trkpt><trkpt lat="40.0560352" lon="9.6339627"><ele>562.4285714285714</ele><time>2026-04-22T07:30:45.703Z</time></trkpt><trkpt lat="40.0559591" lon="9.6339828"><ele>564.5714285714286</ele><time>2026-04-22T07:30:46.704Z</time></trkpt><trkpt lat="40.0558841" lon="9.6339809"><ele>566.7142857142857</ele><time>2026-04-22T07:30:47.707Z</time></trkpt><trkpt lat="40.0558149" lon="9.6339761"><ele>568.8571428571429</ele><time>2026-04-22T07:30:48.705Z</time></trkpt><trkpt lat="40.0557499" lon="9.6339705"><ele>571.0</ele><time>2026-04-22T07:30:49.71Z</time></trkpt><trkpt lat="40.0556859" lon="9.6339528"><ele>571.1666666666667</ele><time>2026-04-22T07:30:50.704Z</time></trkpt><trkpt lat="40.0555787" lon="9.6338981"><ele>571.3333333333334</ele><time>2026-04-22T07:30:52.707Z</time></trkpt><trkpt lat="40.0554949" lon="9.6338434"><ele>571.5</ele><time>2026-04-22T07:30:54.703Z</time></trkpt><trkpt lat="40.0554734" lon="9.6337278"><ele>571.6666666666666</ele><time>2026-04-22T07:30:56.7Z</time></trkpt><trkpt lat="40.0554896" lon="9.6336383"><ele>571.8333333333333</ele><time>2026-04-22T07:30:57.705Z</time></trkpt><trkpt lat="40.0555187" lon="9.6335432"><ele>572.0</ele><time>2026-04-22T07:30:58.7Z</time></trkpt><trkpt lat="40.0555545" lon="9.6334551"><ele>571.9999999999999</ele><time>2026-04-22T07:30:59.697Z</time></trkpt><trkpt lat="40.0555763" lon="9.6333626"><ele>572.0</ele><time>2026-04-22T07:31:00.7Z</time></trkpt><trkpt lat="40.0555934" lon="9.6332645"><ele>572.0</ele><time>2026-04-22T07:31:01.701Z</time></trkpt><trkpt lat="40.0555969" lon="9.633167"><ele>572.0</ele><time>2026-04-22T07:31:02.704Z</time></trkpt><trkpt lat="40.0555852" lon="9.6330835"><ele>572.0</ele><time>2026-04-22T07:31:03.706Z</time></trkpt><trkpt lat="40.0555646" lon="9.632997"><ele>571.9999999999999</ele><time>2026-04-22T07:31:04.707Z</time></trkpt><trkpt lat="40.0555331" lon="9.6329143"><ele>572.0</ele><time>2026-04-22T07:31:05.697Z</time></trkpt><trkpt lat="40.0555001" lon="9.6328273"><ele>570.2</ele><time>2026-04-22T07:31:06.709Z</time></trkpt><trkpt lat="40.0554753" lon="9.632742"><ele>568.4000000000001</ele><time>2026-04-22T07:31:07.711Z</time></trkpt><trkpt lat="40.0554354" lon="9.6326095"><ele>566.5999999999999</ele><time>2026-04-22T07:31:09.699Z</time></trkpt><trkpt lat="40.0553718" lon="9.6325524"><ele>564.8</ele><time>2026-04-22T07:31:11.709Z</time></trkpt><trkpt lat="40.0552779" lon="9.6326353"><ele>563.0</ele><time>2026-04-22T07:31:13.702Z</time></trkpt><trkpt lat="40.0552204" lon="9.6327121"><ele>564.8</ele><time>2026-04-22T07:31:14.7Z</time></trkpt><trkpt lat="40.0551579" lon="9.6328107"><ele>566.5999999999999</ele><time>2026-04-22T07:31:15.702Z</time></trkpt><trkpt lat="40.0550958" lon="9.6329263"><ele>568.4000000000001</ele><time>2026-04-22T07:31:16.704Z</time></trkpt><trkpt lat="40.0550405" lon="9.6330449"><ele>570.2</ele><time>2026-04-22T07:31:17.699Z</time></trkpt><trkpt lat="40.0549844" lon="9.6331536"><ele>572.0</ele><time>2026-04-22T07:31:18.723Z</time></trkpt><trkpt lat="40.0549284" lon="9.6332599"><ele>574.5</ele><time>2026-04-22T07:31:19.707Z</time></trkpt><trkpt lat="40.0548697" lon="9.6333539"><ele>577.0</ele><time>2026-04-22T07:31:20.705Z</time></trkpt><trkpt lat="40.0548126" lon="9.6334393"><ele>579.5</ele><time>2026-04-22T07:31:21.705Z</time></trkpt><trkpt lat="40.054769" lon="9.6335251"><ele>582.0</ele><time>2026-04-22T07:31:22.705Z</time></trkpt><trkpt lat="40.0547328" lon="9.6335991"><ele>584.5</ele><time>2026-04-22T07:31:23.703Z</time></trkpt><trkpt lat="40.0546699" lon="9.6336842"><ele>587.0</ele><time>2026-04-22T07:31:25.701Z</time></trkpt><trkpt lat="40.0545893" lon="9.6336169"><ele>587.1666666666666</ele><time>2026-04-22T07:31:28.702Z</time></trkpt><trkpt lat="40.0545841" lon="9.6335349"><ele>587.3333333333333</ele><time>2026-04-22T07:31:29.691Z</time></trkpt><trkpt lat="40.0546062" lon="9.6334035"><ele>587.5</ele><time>2026-04-22T07:31:30.697Z</time></trkpt><trkpt lat="40.0546187" lon="9.6332835"><ele>587.6666666666666</ele><time>2026-04-22T07:31:31.688Z</time></trkpt><trkpt lat="40.0546079" lon="9.6331666"><ele>587.8333333333334</ele><time>2026-04-22T07:31:32.705Z</time></trkpt><trkpt lat="40.0545861" lon="9.6330518"><ele>588.0</ele><time>2026-04-22T07:31:33.698Z</time></trkpt><trkpt lat="40.0545565" lon="9.6329357"><ele>588.0</ele><time>2026-04-22T07:31:34.702Z</time></trkpt><trkpt lat="40.0545366" lon="9.6328315"><ele>588.0</ele><time>2026-04-22T07:31:35.707Z</time></trkpt><trkpt lat="40.0545075" lon="9.6327183"><ele>588.0</ele><time>2026-04-22T07:31:36.705Z</time></trkpt><trkpt lat="40.0544771" lon="9.63261"><ele>588.0</ele><time>2026-04-22T07:31:37.709Z</time></trkpt><trkpt lat="40.054457" lon="9.6325036"><ele>588.0</ele><time>2026-04-22T07:31:38.709Z</time></trkpt><trkpt lat="40.0544434" lon="9.6323965"><ele>588.0</ele><time>2026-04-22T07:31:39.705Z</time></trkpt><trkpt lat="40.0544379" lon="9.632291"><ele>587.8333333333334</ele><time>2026-04-22T07:31:40.708Z</time></trkpt><trkpt lat="40.0544423" lon="9.6321823"><ele>587.6666666666666</ele><time>2026-04-22T07:31:41.703Z</time></trkpt><trkpt lat="40.0544424" lon="9.6320818"><ele>587.5</ele><time>2026-04-22T07:31:42.708Z</time></trkpt><trkpt lat="40.0544344" lon="9.6319396"><ele>587.3333333333333</ele><time>2026-04-22T07:31:44.701Z</time></trkpt><trkpt lat="40.0543891" lon="9.6318678"><ele>587.1666666666666</ele><time>2026-04-22T07:31:45.711Z</time></trkpt><trkpt lat="40.0543336" lon="9.6318114"><ele>587.0</ele><time>2026-04-22T07:31:46.705Z</time></trkpt><trkpt lat="40.0542563" lon="9.6317533"><ele>585.8000000000001</ele><time>2026-04-22T07:31:47.713Z</time></trkpt><trkpt lat="40.0541827" lon="9.6316726"><ele>584.6</ele><time>2026-04-22T07:31:48.702Z</time></trkpt><trkpt lat="40.0541007" lon="9.6315781"><ele>583.4000000000001</ele><time>2026-04-22T07:31:49.709Z</time></trkpt><trkpt lat="40.054036" lon="9.6314881"><ele>582.2</ele><time>2026-04-22T07:31:50.71Z</time></trkpt><trkpt lat="40.0539778" lon="9.6313815"><ele>581.0</ele><time>2026-04-22T07:31:51.708Z</time></trkpt><trkpt lat="40.0539311" lon="9.6312684"><ele>580.7142857142857</ele><time>2026-04-22T07:31:52.705Z</time></trkpt><trkpt lat="40.0538949" lon="9.6311716"><ele>580.4285714285714</ele><time>2026-04-22T07:31:53.704Z</time></trkpt><trkpt lat="40.0538684" lon="9.6310786"><ele>580.1428571428571</ele><time>2026-04-22T07:31:54.699Z</time></trkpt><trkpt lat="40.0538678" lon="9.630992"><ele>579.8571428571429</ele><time>2026-04-22T07:31:55.704Z</time></trkpt><trkpt lat="40.0538849" lon="9.6309061"><ele>579.5714285714286</ele><time>2026-04-22T07:31:56.699Z</time></trkpt><trkpt lat="40.0539225" lon="9.6308374"><ele>579.2857142857142</ele><time>2026-04-22T07:31:57.701Z</time></trkpt><trkpt lat="40.0539743" lon="9.6307694"><ele>579.0</ele><time>2026-04-22T07:31:58.699Z</time></trkpt><trkpt lat="40.0540459" lon="9.6307277"><ele>579.6666666666666</ele><time>2026-04-22T07:31:59.697Z</time></trkpt><trkpt lat="40.0541098" lon="9.630686"><ele>580.3333333333334</ele><time>2026-04-22T07:32:00.693Z</time></trkpt><trkpt lat="40.0541983" lon="9.6305729"><ele>581.0</ele><time>2026-04-22T07:32:02.688Z</time></trkpt><trkpt lat="40.0542235" lon="9.6304713"><ele>581.6666666666667</ele><time>2026-04-22T07:32:03.703Z</time></trkpt><trkpt lat="40.0542325" lon="9.6303552"><ele>582.3333333333334</ele><time>2026-04-22T07:32:04.7Z</time></trkpt><trkpt lat="40.0542408" lon="9.6302518"><ele>583.0</ele><time>2026-04-22T07:32:05.713Z</time></trkpt><trkpt lat="40.0542647" lon="9.6301552"><ele>583.5</ele><time>2026-04-22T07:32:06.704Z</time></trkpt><trkpt lat="40.0543031" lon="9.6300578"><ele>584.0</ele><time>2026-04-22T07:32:07.704Z</time></trkpt><trkpt lat="40.0543321" lon="9.6299618"><ele>584.5</ele><time>2026-04-22T07:32:08.703Z</time></trkpt><trkpt lat="40.0543502" lon="9.6298621"><ele>585.0</ele><time>2026-04-22T07:32:09.706Z</time></trkpt><trkpt lat="40.0543797" lon="9.6297646"><ele>585.5</ele><time>2026-04-22T07:32:10.704Z</time></trkpt><trkpt lat="40.054418" lon="9.6296565"><ele>586.0</ele><time>2026-04-22T07:32:11.706Z</time></trkpt><trkpt lat="40.0544676" lon="9.629564"><ele>585.9999999999999</ele><time>2026-04-22T07:32:12.718Z</time></trkpt><trkpt lat="40.0545162" lon="9.6294815"><ele>586.0</ele><time>2026-04-22T07:32:13.716Z</time></trkpt><trkpt lat="40.0545636" lon="9.6294144"><ele>586.0</ele><time>2026-04-22T07:32:14.717Z</time></trkpt><trkpt lat="40.0546069" lon="9.6293373"><ele>586.0</ele><time>2026-04-22T07:32:15.713Z</time></trkpt><trkpt lat="40.0546525" lon="9.6292533"><ele>586.0</ele><time>2026-04-22T07:32:16.724Z</time></trkpt><trkpt lat="40.0546909" lon="9.6291698"><ele>585.9999999999999</ele><time>2026-04-22T07:32:17.72Z</time></trkpt><trkpt lat="40.0547238" lon="9.6290932"><ele>586.0</ele><time>2026-04-22T07:32:18.718Z</time></trkpt><trkpt lat="40.0547957" lon="9.6289698"><ele>586.5</ele><time>2026-04-22T07:32:20.719Z</time></trkpt><trkpt lat="40.054871" lon="9.6288603"><ele>587.0</ele><time>2026-04-22T07:32:22.717Z</time></trkpt><trkpt lat="40.0549047" lon="9.6287314"><ele>587.5</ele><time>2026-04-22T07:32:24.715Z</time></trkpt><trkpt lat="40.0549287" lon="9.6285814"><ele>588.0</ele><time>2026-04-22T07:32:26.715Z</time></trkpt><trkpt lat="40.0549708" lon="9.6284348"><ele>588.0</ele><time>2026-04-22T07:32:28.715Z</time></trkpt><trkpt lat="40.0549999" lon="9.6282978"><ele>588.0</ele><time>2026-04-22T07:32:30.716Z</time></trkpt><trkpt lat="40.0550153" lon="9.6282026"><ele>588.0</ele><time>2026-04-22T07:32:32.717Z</time></trkpt><trkpt lat="40.0550089" lon="9.6281149"><ele>588.0</ele><time>2026-04-22T07:32:48.72Z</time></trkpt><trkpt lat="40.055001" lon="9.6280331"><ele>588.0</ele><time>2026-04-22T07:32:50.729Z</time></trkpt><trkpt lat="40.0549609" lon="9.6279118"><ele>588.0</ele><time>2026-04-22T07:32:52.726Z</time></trkpt><trkpt lat="40.0549289" lon="9.6278304"><ele>585.3333333333334</ele><time>2026-04-22T07:32:53.72Z</time></trkpt><trkpt lat="40.0549037" lon="9.6277474"><ele>582.6666666666666</ele><time>2026-04-22T07:32:54.726Z</time></trkpt><trkpt lat="40.0548519" lon="9.6276377"><ele>580.0</ele><time>2026-04-22T07:32:56.726Z</time></trkpt><trkpt lat="40.0548012" lon="9.6275877"><ele>577.3333333333333</ele><time>2026-04-22T07:32:58.726Z</time></trkpt><trkpt lat="40.0547165" lon="9.6275423"><ele>574.6666666666666</ele><time>2026-04-22T07:33:00.721Z</time></trkpt><trkpt lat="40.0546278" lon="9.6274909"><ele>572.0</ele><time>2026-04-22T07:33:02.713Z</time></trkpt><trkpt lat="40.0545523" lon="9.6274395"><ele>572.0</ele><time>2026-04-22T07:33:04.718Z</time></trkpt><trkpt lat="40.0545028" lon="9.6273746"><ele>572.0</ele><time>2026-04-22T07:33:06.721Z</time></trkpt><trkpt lat="40.0544469" lon="9.6273106"><ele>572.0</ele><time>2026-04-22T07:33:10.727Z</time></trkpt><trkpt lat="40.0544181" lon="9.6272137"><ele>572.0</ele><time>2026-04-22T07:33:12.731Z</time></trkpt><trkpt lat="40.0544242" lon="9.6270707"><ele>572.0</ele><time>2026-04-22T07:33:14.718Z</time></trkpt><trkpt lat="40.0544138" lon="9.6269749"><ele>572.0</ele><time>2026-04-22T07:33:15.72Z</time></trkpt><trkpt lat="40.054386" lon="9.6268533"><ele>571.3333333333333</ele><time>2026-04-22T07:33:16.721Z</time></trkpt><trkpt lat="40.0543489" lon="9.626741"><ele>570.6666666666666</ele><time>2026-04-22T07:33:17.722Z</time></trkpt><trkpt lat="40.0543287" lon="9.6266189"><ele>570.0</ele><time>2026-04-22T07:33:18.724Z</time></trkpt><trkpt lat="40.0543213" lon="9.6265095"><ele>569.3333333333334</ele><time>2026-04-22T07:33:19.716Z</time></trkpt><trkpt lat="40.0543237" lon="9.6264106"><ele>568.6666666666667</ele><time>2026-04-22T07:33:20.725Z</time></trkpt><trkpt lat="40.0543345" lon="9.6263179"><ele>568.0</ele><time>2026-04-22T07:33:21.719Z</time></trkpt><trkpt lat="40.0543678" lon="9.6262437"><ele>569.0</ele><time>2026-04-22T07:33:22.719Z</time></trkpt><trkpt lat="40.0544515" lon="9.626143"><ele>570.0</ele><time>2026-04-22T07:33:24.723Z</time></trkpt><trkpt lat="40.0545492" lon="9.6260717"><ele>571.0</ele><time>2026-04-22T07:33:26.728Z</time></trkpt><trkpt lat="40.0546045" lon="9.6260091"><ele>572.0</ele><time>2026-04-22T07:33:28.732Z</time></trkpt><trkpt lat="40.0546117" lon="9.6259102"><ele>573.0</ele><time>2026-04-22T07:34:22.733Z</time></trkpt><trkpt lat="40.0545657" lon="9.6257899"><ele>573.0</ele><time>2026-04-22T07:34:24.736Z</time></trkpt><trkpt lat="40.0545379" lon="9.625618"><ele>573.0</ele><time>2026-04-22T07:34:26.712Z</time></trkpt><trkpt lat="40.0545462" lon="9.6255015"><ele>573.0</ele><time>2026-04-22T07:34:27.72Z</time></trkpt><trkpt lat="40.0545858" lon="9.6253669"><ele>573.0</ele><time>2026-04-22T07:34:28.72Z</time></trkpt><trkpt lat="40.054646" lon="9.6252564"><ele>573.0</ele><time>2026-04-22T07:34:29.716Z</time></trkpt><trkpt lat="40.0547157" lon="9.6251485"><ele>574.6</ele><time>2026-04-22T07:34:30.723Z</time></trkpt><trkpt lat="40.0547888" lon="9.6250397"><ele>576.1999999999999</ele><time>2026-04-22T07:34:31.726Z</time></trkpt><trkpt lat="40.0548557" lon="9.6249442"><ele>577.8</ele><time>2026-04-22T07:34:32.798Z</time></trkpt><trkpt lat="40.0549242" lon="9.6248553"><ele>579.4</ele><time>2026-04-22T07:34:33.808Z</time></trkpt><trkpt lat="40.0549992" lon="9.6247823"><ele>581.0</ele><time>2026-04-22T07:34:34.794Z</time></trkpt><trkpt lat="40.0550853" lon="9.6247272"><ele>584.25</ele><time>2026-04-22T07:34:35.794Z</time></trkpt><trkpt lat="40.0552113" lon="9.624699"><ele>587.5</ele><time>2026-04-22T07:34:36.698Z</time></trkpt><trkpt lat="40.0553321" lon="9.6246995"><ele>590.75</ele><time>2026-04-22T07:34:37.701Z</time></trkpt><trkpt lat="40.0554509" lon="9.6247415"><ele>594.0</ele><time>2026-04-22T07:34:38.702Z</time></trkpt><trkpt lat="40.0555609" lon="9.6248134"><ele>594.0</ele><time>2026-04-22T07:34:39.695Z</time></trkpt><trkpt lat="40.0556628" lon="9.6248925"><ele>594.0</ele><time>2026-04-22T07:34:40.695Z</time></trkpt><trkpt lat="40.0557718" lon="9.6249651"><ele>594.0</ele><time>2026-04-22T07:34:41.69Z</time></trkpt><trkpt lat="40.0558986" lon="9.6250109"><ele>594.0</ele><time>2026-04-22T07:34:42.704Z</time></trkpt><trkpt lat="40.0560272" lon="9.6250102"><ele>595.25</ele><time>2026-04-22T07:34:43.702Z</time></trkpt><trkpt lat="40.0561558" lon="9.6249895"><ele>596.5</ele><time>2026-04-22T07:34:44.701Z</time></trkpt><trkpt lat="40.056285" lon="9.6249311"><ele>597.75</ele><time>2026-04-22T07:34:45.699Z</time></trkpt><trkpt lat="40.0564057" lon="9.6248413"><ele>599.0</ele><time>2026-04-22T07:34:46.692Z</time></trkpt><trkpt lat="40.0565177" lon="9.6247238"><ele>599.0</ele><time>2026-04-22T07:34:47.697Z</time></trkpt><trkpt lat="40.0566148" lon="9.6245704"><ele>599.0</ele><time>2026-04-22T07:34:48.698Z</time></trkpt><trkpt lat="40.0566833" lon="9.6243785"><ele>599.0</ele><time>2026-04-22T07:34:49.696Z</time></trkpt><trkpt lat="40.0567308" lon="9.624197"><ele>602.25</ele><time>2026-04-22T07:34:50.703Z</time></trkpt><trkpt lat="40.0567758" lon="9.6240265"><ele>605.5</ele><time>2026-04-22T07:34:51.706Z</time></trkpt><trkpt lat="40.0567754" lon="9.6238426"><ele>608.75</ele><time>2026-04-22T07:34:52.703Z</time></trkpt><trkpt lat="40.0567472" lon="9.6236524"><ele>612.0</ele><time>2026-04-22T07:34:53.702Z</time></trkpt><trkpt lat="40.0567382" lon="9.6234535"><ele>614.0</ele><time>2026-04-22T07:34:54.704Z</time></trkpt><trkpt lat="40.056747" lon="9.6232643"><ele>616.0</ele><time>2026-04-22T07:34:55.703Z</time></trkpt><trkpt lat="40.056777" lon="9.6230796"><ele>618.0</ele><time>2026-04-22T07:34:56.693Z</time></trkpt><trkpt lat="40.0568202" lon="9.6229168"><ele>620.0</ele><time>2026-04-22T07:34:57.7Z</time></trkpt><trkpt lat="40.0568677" lon="9.6227351"><ele>621.75</ele><time>2026-04-22T07:34:58.7Z</time></trkpt><trkpt lat="40.0569012" lon="9.6225582"><ele>623.5</ele><time>2026-04-22T07:34:59.701Z</time></trkpt><trkpt lat="40.0568994" lon="9.6223936"><ele>625.25</ele><time>2026-04-22T07:35:00.697Z</time></trkpt><trkpt lat="40.0568649" lon="9.6222428"><ele>627.0</ele><time>2026-04-22T07:35:01.709Z</time></trkpt><trkpt lat="40.0567795" lon="9.6221181"><ele>627.0</ele><time>2026-04-22T07:35:02.702Z</time></trkpt><trkpt lat="40.0566746" lon="9.6219818"><ele>627.0</ele><time>2026-04-22T07:35:03.702Z</time></trkpt><trkpt lat="40.0565818" lon="9.6218337"><ele>627.0</ele><time>2026-04-22T07:35:04.708Z</time></trkpt><trkpt lat="40.0565187" lon="9.6216957"><ele>627.0</ele><time>2026-04-22T07:35:05.704Z</time></trkpt><trkpt lat="40.0564447" lon="9.6215164"><ele>632.3333333333334</ele><time>2026-04-22T07:35:06.706Z</time></trkpt><trkpt lat="40.0563897" lon="9.6213335"><ele>637.6666666666667</ele><time>2026-04-22T07:35:07.705Z</time></trkpt><trkpt lat="40.0563362" lon="9.6211173"><ele>643.0</ele><time>2026-04-22T07:35:08.713Z</time></trkpt><trkpt lat="40.0562925" lon="9.6209141"><ele>643.0</ele><time>2026-04-22T07:35:09.706Z</time></trkpt><trkpt lat="40.0562375" lon="9.6207228"><ele>643.0</ele><time>2026-04-22T07:35:10.703Z</time></trkpt><trkpt lat="40.0562114" lon="9.6205156"><ele>643.0</ele><time>2026-04-22T07:35:11.712Z</time></trkpt><trkpt lat="40.0561933" lon="9.6203188"><ele>643.0</ele><time>2026-04-22T07:35:12.71Z</time></trkpt><trkpt lat="40.0561356" lon="9.6201039"><ele>643.0</ele><time>2026-04-22T07:35:13.72Z</time></trkpt><trkpt lat="40.0561048" lon="9.6198984"><ele>643.0</ele><time>2026-04-22T07:35:14.712Z</time></trkpt><trkpt lat="40.0560506" lon="9.6196993"><ele>643.0</ele><time>2026-04-22T07:35:15.715Z</time></trkpt><trkpt lat="40.0560052" lon="9.6195076"><ele>643.0</ele><time>2026-04-22T07:35:16.711Z</time></trkpt><trkpt lat="40.0559359" lon="9.6193282"><ele>643.0</ele><time>2026-04-22T07:35:17.709Z</time></trkpt><trkpt lat="40.0558497" lon="9.6191718"><ele>644.75</ele><time>2026-04-22T07:35:18.714Z</time></trkpt><trkpt lat="40.055778" lon="9.619013"><ele>646.5</ele><time>2026-04-22T07:35:19.71Z</time></trkpt><trkpt lat="40.0557352" lon="9.6188441"><ele>648.25</ele><time>2026-04-22T07:35:20.707Z</time></trkpt><trkpt lat="40.0557069" lon="9.6186727"><ele>650.0</ele><time>2026-04-22T07:35:21.707Z</time></trkpt><trkpt lat="40.0557301" lon="9.6184878"><ele>650.25</ele><time>2026-04-22T07:35:22.704Z</time></trkpt><trkpt lat="40.05577" lon="9.6183064"><ele>650.5</ele><time>2026-04-22T07:35:23.706Z</time></trkpt><trkpt lat="40.0558083" lon="9.6181304"><ele>650.75</ele><time>2026-04-22T07:35:24.706Z</time></trkpt><trkpt lat="40.0558423" lon="9.6179527"><ele>651.0</ele><time>2026-04-22T07:35:25.706Z</time></trkpt><trkpt lat="40.0558826" lon="9.617762"><ele>651.0</ele><time>2026-04-22T07:35:26.7Z</time></trkpt><trkpt lat="40.0559069" lon="9.6175779"><ele>651.0</ele><time>2026-04-22T07:35:27.705Z</time></trkpt><trkpt lat="40.0559072" lon="9.6173894"><ele>651.0</ele><time>2026-04-22T07:35:28.705Z</time></trkpt><trkpt lat="40.0559075" lon="9.6171986"><ele>651.0</ele><time>2026-04-22T07:35:29.704Z</time></trkpt><trkpt lat="40.0558645" lon="9.617011"><ele>650.25</ele><time>2026-04-22T07:35:30.7Z</time></trkpt><trkpt lat="40.0558124" lon="9.6168316"><ele>649.5</ele><time>2026-04-22T07:35:31.699Z</time></trkpt><trkpt lat="40.0557436" lon="9.6166705"><ele>648.75</ele><time>2026-04-22T07:35:32.71Z</time></trkpt><trkpt lat="40.0556553" lon="9.6164985"><ele>648.0</ele><time>2026-04-22T07:35:33.71Z</time></trkpt><trkpt lat="40.0556066" lon="9.6163577"><ele>652.5</ele><time>2026-04-22T07:35:34.707Z</time></trkpt><trkpt lat="40.0555846" lon="9.6162412"><ele>657.0</ele><time>2026-04-22T07:35:35.706Z</time></trkpt><trkpt lat="40.0555439" lon="9.6160998"><ele>661.5</ele><time>2026-04-22T07:35:36.703Z</time></trkpt><trkpt lat="40.0554715" lon="9.6159776"><ele>666.0</ele><time>2026-04-22T07:35:37.701Z</time></trkpt><trkpt lat="40.0553674" lon="9.6158829"><ele>666.0</ele><time>2026-04-22T07:35:38.697Z</time></trkpt><trkpt lat="40.0552779" lon="9.6158042"><ele>666.0</ele><time>2026-04-22T07:35:39.708Z</time></trkpt><trkpt lat="40.05521" lon="9.6157599"><ele>666.0</ele><time>2026-04-22T07:35:40.704Z</time></trkpt><trkpt lat="40.0551464" lon="9.615722"><ele>666.0</ele><time>2026-04-22T07:35:41.702Z</time></trkpt><trkpt lat="40.0550291" lon="9.6156698"><ele>666.0</ele><time>2026-04-22T07:35:43.702Z</time></trkpt><trkpt lat="40.0549432" lon="9.6156557"><ele>669.0</ele><time>2026-04-22T07:35:44.696Z</time></trkpt><trkpt lat="40.0548593" lon="9.6156468"><ele>672.0</ele><time>2026-04-22T07:35:45.705Z</time></trkpt><trkpt lat="40.0547677" lon="9.6156232"><ele>675.0</ele><time>2026-04-22T07:35:46.693Z</time></trkpt><trkpt lat="40.0546865" lon="9.6155874"><ele>678.0</ele><time>2026-04-22T07:35:47.693Z</time></trkpt><trkpt lat="40.0545845" lon="9.6155417"><ele>681.0</ele><time>2026-04-22T07:35:49.698Z</time></trkpt><trkpt lat="40.0545695" lon="9.6154502"><ele>684.0</ele><time>2026-04-22T07:35:51.7Z</time></trkpt><trkpt lat="40.0546613" lon="9.6153581"><ele>684.3333333333334</ele><time>2026-04-22T07:35:53.705Z</time></trkpt><trkpt lat="40.0547054" lon="9.6152959"><ele>684.6666666666666</ele><time>2026-04-22T07:35:55.705Z</time></trkpt><trkpt lat="40.0546094" lon="9.6152402"><ele>685.0</ele><time>2026-04-22T07:35:58.7Z</time></trkpt><trkpt lat="40.0544892" lon="9.6152703"><ele>685.3333333333333</ele><time>2026-04-22T07:36:00.702Z</time></trkpt><trkpt lat="40.0544195" lon="9.6152811"><ele>685.6666666666666</ele><time>2026-04-22T07:36:01.706Z</time></trkpt><trkpt lat="40.0543486" lon="9.6152794"><ele>686.0</ele><time>2026-04-22T07:36:02.704Z</time></trkpt><trkpt lat="40.0542361" lon="9.6152505"><ele>685.6666666666666</ele><time>2026-04-22T07:36:04.696Z</time></trkpt><trkpt lat="40.0541733" lon="9.615351"><ele>685.3333333333333</ele><time>2026-04-22T07:36:06.702Z</time></trkpt><trkpt lat="40.0541687" lon="9.6154856"><ele>685.0</ele><time>2026-04-22T07:36:08.701Z</time></trkpt><trkpt lat="40.0541834" lon="9.6155659"><ele>684.6666666666666</ele><time>2026-04-22T07:36:09.696Z</time></trkpt><trkpt lat="40.0541928" lon="9.6156482"><ele>684.3333333333334</ele><time>2026-04-22T07:36:10.7Z</time></trkpt><trkpt lat="40.0542048" lon="9.6157477"><ele>684.0</ele><time>2026-04-22T07:36:11.703Z</time></trkpt><trkpt lat="40.05421" lon="9.6158457"><ele>684.0</ele><time>2026-04-22T07:36:12.701Z</time></trkpt><trkpt lat="40.0542192" lon="9.6159407"><ele>684.0</ele><time>2026-04-22T07:36:13.711Z</time></trkpt><trkpt lat="40.0542241" lon="9.6160254"><ele>684.0</ele><time>2026-04-22T07:36:14.705Z</time></trkpt><trkpt lat="40.0542256" lon="9.6161411"><ele>684.0</ele><time>2026-04-22T07:36:16.705Z</time></trkpt><trkpt lat="40.0541433" lon="9.6161913"><ele>684.0</ele><time>2026-04-22T07:36:19.708Z</time></trkpt><trkpt lat="40.0540634" lon="9.6160928"><ele>684.0</ele><time>2026-04-22T07:36:21.709Z</time></trkpt><trkpt lat="40.0540178" lon="9.6160079"><ele>683.8000000000001</ele><time>2026-04-22T07:36:22.712Z</time></trkpt><trkpt lat="40.0539657" lon="9.6159267"><ele>683.6</ele><time>2026-04-22T07:36:23.721Z</time></trkpt><trkpt lat="40.0539082" lon="9.6158493"><ele>683.4</ele><time>2026-04-22T07:36:24.718Z</time></trkpt><trkpt lat="40.0538297" lon="9.615731"><ele>683.2</ele><time>2026-04-22T07:36:26.725Z</time></trkpt><trkpt lat="40.0537553" lon="9.6156208"><ele>683.0</ele><time>2026-04-22T07:36:28.728Z</time></trkpt><trkpt lat="40.0537052" lon="9.6155119"><ele>683.0</ele><time>2026-04-22T07:36:30.723Z</time></trkpt><trkpt lat="40.053682" lon="9.6154256"><ele>683.0</ele><time>2026-04-22T07:36:31.723Z</time></trkpt><trkpt lat="40.0536784" lon="9.6152574"><ele>683.0</ele><time>2026-04-22T07:36:33.721Z</time></trkpt><trkpt lat="40.0536867" lon="9.6151753"><ele>683.0</ele><time>2026-04-22T07:36:34.718Z</time></trkpt><trkpt lat="40.0536913" lon="9.6150885"><ele>683.0</ele><time>2026-04-22T07:36:35.71Z</time></trkpt><trkpt lat="40.0536914" lon="9.6149968"><ele>683.0</ele><time>2026-04-22T07:36:36.717Z</time></trkpt><trkpt lat="40.0536888" lon="9.6149064"><ele>683.4</ele><time>2026-04-22T07:36:37.723Z</time></trkpt><trkpt lat="40.0536913" lon="9.6148126"><ele>683.8</ele><time>2026-04-22T07:36:38.722Z</time></trkpt><trkpt lat="40.0536785" lon="9.6147164"><ele>684.2</ele><time>2026-04-22T07:36:39.718Z</time></trkpt><trkpt lat="40.0536691" lon="9.6145522"><ele>684.6</ele><time>2026-04-22T07:36:41.723Z</time></trkpt><trkpt lat="40.0537251" lon="9.6144272"><ele>685.0</ele><time>2026-04-22T07:36:43.72Z</time></trkpt><trkpt lat="40.0537738" lon="9.6143595"><ele>685.0</ele><time>2026-04-22T07:36:45.727Z</time></trkpt><trkpt lat="40.0538187" lon="9.6142528"><ele>685.0</ele><time>2026-04-22T07:36:48.73Z</time></trkpt><trkpt lat="40.0538318" lon="9.6141389"><ele>685.0</ele><time>2026-04-22T07:36:50.729Z</time></trkpt><trkpt lat="40.0538067" lon="9.6140374"><ele>685.0</ele><time>2026-04-22T07:36:52.724Z</time></trkpt><trkpt lat="40.0537199" lon="9.6139774"><ele>685.0</ele><time>2026-04-22T07:36:54.707Z</time></trkpt><trkpt lat="40.0536164" lon="9.6139969"><ele>685.0</ele><time>2026-04-22T07:36:56.712Z</time></trkpt><trkpt lat="40.0535112" lon="9.614029"><ele>685.0</ele><time>2026-04-22T07:36:58.706Z</time></trkpt><trkpt lat="40.0534193" lon="9.614076"><ele>685.0</ele><time>2026-04-22T07:37:00.698Z</time></trkpt><trkpt lat="40.053319" lon="9.6141467"><ele>685.0</ele><time>2026-04-22T07:37:02.704Z</time></trkpt><trkpt lat="40.0531972" lon="9.6142022"><ele>682.8333333333334</ele><time>2026-04-22T07:37:04.702Z</time></trkpt><trkpt lat="40.0531365" lon="9.614226"><ele>680.6666666666667</ele><time>2026-04-22T07:37:05.708Z</time></trkpt><trkpt lat="40.0530314" lon="9.6142751"><ele>678.5</ele><time>2026-04-22T07:37:07.707Z</time></trkpt><trkpt lat="40.0529679" lon="9.6142866"><ele>676.3333333333334</ele><time>2026-04-22T07:37:08.712Z</time></trkpt><trkpt lat="40.052862" lon="9.6143179"><ele>674.1666666666666</ele><time>2026-04-22T07:37:10.723Z</time></trkpt><trkpt lat="40.0527722" lon="9.6143553"><ele>672.0</ele><time>2026-04-22T07:37:12.717Z</time></trkpt><trkpt lat="40.0527042" lon="9.6143954"><ele>672.0</ele><time>2026-04-22T07:37:14.728Z</time></trkpt><trkpt lat="40.0526175" lon="9.6144282"><ele>672.0</ele><time>2026-04-22T07:37:16.729Z</time></trkpt><trkpt lat="40.0525323" lon="9.6144367"><ele>672.0</ele><time>2026-04-22T07:37:18.724Z</time></trkpt><trkpt lat="40.0524093" lon="9.6143856"><ele>672.0</ele><time>2026-04-22T07:37:20.724Z</time></trkpt><trkpt lat="40.0523502" lon="9.6143399"><ele>672.0</ele><time>2026-04-22T07:37:21.727Z</time></trkpt><trkpt lat="40.0522398" lon="9.614263"><ele>670.8333333333334</ele><time>2026-04-22T07:37:23.733Z</time></trkpt><trkpt lat="40.052181" lon="9.6142305"><ele>669.6666666666666</ele><time>2026-04-22T07:37:24.732Z</time></trkpt><trkpt lat="40.0520873" lon="9.6141413"><ele>668.5</ele><time>2026-04-22T07:37:26.733Z</time></trkpt><trkpt lat="40.0519995" lon="9.6140514"><ele>667.3333333333333</ele><time>2026-04-22T07:37:28.73Z</time></trkpt><trkpt lat="40.0519446" lon="9.6140017"><ele>666.1666666666666</ele><time>2026-04-22T07:37:29.725Z</time></trkpt><trkpt lat="40.0518851" lon="9.613957"><ele>665.0</ele><time>2026-04-22T07:37:30.727Z</time></trkpt><trkpt lat="40.0518166" lon="9.6139136"><ele>665.0</ele><time>2026-04-22T07:37:31.723Z</time></trkpt><trkpt lat="40.051749" lon="9.6138647"><ele>665.0</ele><time>2026-04-22T07:37:32.726Z</time></trkpt><trkpt lat="40.0516933" lon="9.6138261"><ele>665.0</ele><time>2026-04-22T07:37:33.727Z</time></trkpt><trkpt lat="40.0516262" lon="9.6137859"><ele>665.0</ele><time>2026-04-22T07:37:34.727Z</time></trkpt><trkpt lat="40.0515687" lon="9.6137481"><ele>665.0</ele><time>2026-04-22T07:37:35.735Z</time></trkpt><trkpt lat="40.0514985" lon="9.6137143"><ele>665.0</ele><time>2026-04-22T07:37:36.729Z</time></trkpt><trkpt lat="40.0514282" lon="9.6136831"><ele>665.0</ele><time>2026-04-22T07:37:37.733Z</time></trkpt><trkpt lat="40.0513563" lon="9.613657"><ele>665.5</ele><time>2026-04-22T07:37:38.733Z</time></trkpt><trkpt lat="40.0512886" lon="9.6136455"><ele>666.0</ele><time>2026-04-22T07:37:39.727Z</time></trkpt><trkpt lat="40.0512276" lon="9.6136183"><ele>666.5</ele><time>2026-04-22T07:37:40.719Z</time></trkpt><trkpt lat="40.0511504" lon="9.6134877"><ele>667.0</ele><time>2026-04-22T07:37:42.724Z</time></trkpt><trkpt lat="40.0511435" lon="9.613396"><ele>667.5</ele><time>2026-04-22T07:37:43.731Z</time></trkpt><trkpt lat="40.0511411" lon="9.6133056"><ele>668.0</ele><time>2026-04-22T07:37:44.723Z</time></trkpt><trkpt lat="40.0511419" lon="9.6132159"><ele>668.0</ele><time>2026-04-22T07:37:45.726Z</time></trkpt><trkpt lat="40.0511328" lon="9.6131322"><ele>668.0</ele><time>2026-04-22T07:37:46.729Z</time></trkpt><trkpt lat="40.0511011" lon="9.6129875"><ele>668.0</ele><time>2026-04-22T07:37:48.73Z</time></trkpt><trkpt lat="40.0510536" lon="9.6128504"><ele>668.0</ele><time>2026-04-22T07:37:50.726Z</time></trkpt><trkpt lat="40.0510256" lon="9.6127201"><ele>668.0</ele><time>2026-04-22T07:37:52.727Z</time></trkpt><trkpt lat="40.0510174" lon="9.6125757"><ele>667.2</ele><time>2026-04-22T07:37:54.723Z</time></trkpt><trkpt lat="40.0510238" lon="9.6124382"><ele>666.4</ele><time>2026-04-22T07:37:56.716Z</time></trkpt><trkpt lat="40.0510293" lon="9.6123152"><ele>665.6</ele><time>2026-04-22T07:37:58.727Z</time></trkpt><trkpt lat="40.0510294" lon="9.612199"><ele>664.8000000000001</ele><time>2026-04-22T07:38:00.729Z</time></trkpt><trkpt lat="40.0510424" lon="9.6120682"><ele>664.0</ele><time>2026-04-22T07:38:02.731Z</time></trkpt><trkpt lat="40.0510419" lon="9.6119378"><ele>661.4000000000001</ele><time>2026-04-22T07:38:04.729Z</time></trkpt><trkpt lat="40.0510324" lon="9.6118058"><ele>658.8</ele><time>2026-04-22T07:38:06.728Z</time></trkpt><trkpt lat="40.0510261" lon="9.6116858"><ele>656.2</ele><time>2026-04-22T07:38:08.725Z</time></trkpt><trkpt lat="40.0510343" lon="9.6115696"><ele>653.5999999999999</ele><time>2026-04-22T07:38:10.726Z</time></trkpt><trkpt lat="40.0510126" lon="9.6114552"><ele>651.0</ele><time>2026-04-22T07:38:12.727Z</time></trkpt><trkpt lat="40.0509861" lon="9.611344"><ele>651.0</ele><time>2026-04-22T07:38:14.73Z</time></trkpt><trkpt lat="40.0510283" lon="9.6112357"><ele>651.0</ele><time>2026-04-22T07:38:17.728Z</time></trkpt><trkpt lat="40.0511371" lon="9.6112549"><ele>651.0</ele><time>2026-04-22T07:38:19.725Z</time></trkpt><trkpt lat="40.0511926" lon="9.6112995"><ele>651.0</ele><time>2026-04-22T07:38:20.719Z</time></trkpt><trkpt lat="40.0512868" lon="9.6114046"><ele>651.0</ele><time>2026-04-22T07:38:22.729Z</time></trkpt><trkpt lat="40.0513315" lon="9.6114648"><ele>651.0</ele><time>2026-04-22T07:38:23.721Z</time></trkpt><trkpt lat="40.0514068" lon="9.6115828"><ele>651.0</ele><time>2026-04-22T07:38:25.719Z</time></trkpt><trkpt lat="40.0514574" lon="9.6117052"><ele>651.0</ele><time>2026-04-22T07:38:27.722Z</time></trkpt><trkpt lat="40.051515" lon="9.6118236"><ele>651.0</ele><time>2026-04-22T07:38:29.723Z</time></trkpt><trkpt lat="40.0515805" lon="9.6119521"><ele>651.0</ele><time>2026-04-22T07:38:31.726Z</time></trkpt><trkpt lat="40.0516439" lon="9.6120486"><ele>651.0</ele><time>2026-04-22T07:38:33.708Z</time></trkpt><trkpt lat="40.0517202" lon="9.6121293"><ele>651.0</ele><time>2026-04-22T07:38:35.719Z</time></trkpt><trkpt lat="40.0517945" lon="9.6121742"><ele>651.0</ele><time>2026-04-22T07:38:37.722Z</time></trkpt><trkpt lat="40.0518925" lon="9.6121975"><ele>651.0</ele><time>2026-04-22T07:38:39.719Z</time></trkpt><trkpt lat="40.0519833" lon="9.612265"><ele>651.0</ele><time>2026-04-22T07:38:41.721Z</time></trkpt><trkpt lat="40.0520656" lon="9.6123484"><ele>651.0</ele><time>2026-04-22T07:38:43.723Z</time></trkpt><trkpt lat="40.0521377" lon="9.6123746"><ele>651.0</ele><time>2026-04-22T07:38:45.721Z</time></trkpt><trkpt lat="40.0522169" lon="9.6123609"><ele>651.0</ele><time>2026-04-22T07:38:47.724Z</time></trkpt><trkpt lat="40.0523092" lon="9.6124291"><ele>651.0</ele><time>2026-04-22T07:38:49.724Z</time></trkpt><trkpt lat="40.0523993" lon="9.6124645"><ele>648.8333333333334</ele><time>2026-04-22T07:38:51.717Z</time></trkpt><trkpt lat="40.0524912" lon="9.6124668"><ele>646.6666666666666</ele><time>2026-04-22T07:38:53.719Z</time></trkpt><trkpt lat="40.0525635" lon="9.6124535"><ele>644.5</ele><time>2026-04-22T07:38:55.716Z</time></trkpt><trkpt lat="40.0526053" lon="9.6123593"><ele>642.3333333333333</ele><time>2026-04-22T07:38:57.714Z</time></trkpt><trkpt lat="40.0525812" lon="9.6122246"><ele>640.1666666666666</ele><time>2026-04-22T07:38:59.712Z</time></trkpt><trkpt lat="40.0525856" lon="9.6121111"><ele>638.0</ele><time>2026-04-22T07:39:01.719Z</time></trkpt><trkpt lat="40.0526142" lon="9.6119887"><ele>634.1999999999999</ele><time>2026-04-22T07:39:03.718Z</time></trkpt><trkpt lat="40.0526229" lon="9.6118499"><ele>630.4</ele><time>2026-04-22T07:39:05.708Z</time></trkpt><trkpt lat="40.0526426" lon="9.6117057"><ele>626.5999999999999</ele><time>2026-04-22T07:39:07.701Z</time></trkpt><trkpt lat="40.0526793" lon="9.6115434"><ele>622.8</ele><time>2026-04-22T07:39:09.706Z</time></trkpt><trkpt lat="40.0527065" lon="9.6114587"><ele>619.0</ele><time>2026-04-22T07:39:10.709Z</time></trkpt><trkpt lat="40.0527401" lon="9.6113845"><ele>619.0</ele><time>2026-04-22T07:39:11.706Z</time></trkpt><trkpt lat="40.0528194" lon="9.6112673"><ele>619.0</ele><time>2026-04-22T07:39:13.708Z</time></trkpt><trkpt lat="40.0529042" lon="9.6111467"><ele>619.0</ele><time>2026-04-22T07:39:15.699Z</time></trkpt><trkpt lat="40.0530015" lon="9.6110724"><ele>619.0</ele><time>2026-04-22T07:39:17.706Z</time></trkpt><trkpt lat="40.0530969" lon="9.6109887"><ele>615.8333333333334</ele><time>2026-04-22T07:39:19.701Z</time></trkpt><trkpt lat="40.0531436" lon="9.6108355"><ele>612.6666666666667</ele><time>2026-04-22T07:39:21.698Z</time></trkpt><trkpt lat="40.0531592" lon="9.6107548"><ele>609.5</ele><time>2026-04-22T07:39:22.705Z</time></trkpt><trkpt lat="40.0531672" lon="9.6106658"><ele>606.3333333333334</ele><time>2026-04-22T07:39:23.697Z</time></trkpt><trkpt lat="40.0531682" lon="9.6105717"><ele>603.1666666666666</ele><time>2026-04-22T07:39:24.7Z</time></trkpt><trkpt lat="40.0531541" lon="9.6104713"><ele>600.0</ele><time>2026-04-22T07:39:25.7Z</time></trkpt><trkpt lat="40.0531421" lon="9.6103783"><ele>596.6666666666666</ele><time>2026-04-22T07:39:26.694Z</time></trkpt><trkpt lat="40.0531314" lon="9.6102226"><ele>593.3333333333334</ele><time>2026-04-22T07:39:28.705Z</time></trkpt><trkpt lat="40.0531166" lon="9.6100793"><ele>590.0</ele><time>2026-04-22T07:39:30.7Z</time></trkpt><trkpt lat="40.0531069" lon="9.6099957"><ele>586.6666666666667</ele><time>2026-04-22T07:39:31.705Z</time></trkpt><trkpt lat="40.0531103" lon="9.609902"><ele>583.3333333333334</ele><time>2026-04-22T07:39:32.708Z</time></trkpt><trkpt lat="40.0531333" lon="9.6098054"><ele>580.0</ele><time>2026-04-22T07:39:33.706Z</time></trkpt><trkpt lat="40.0531572" lon="9.6097273"><ele>580.0</ele><time>2026-04-22T07:39:34.709Z</time></trkpt><trkpt lat="40.0531801" lon="9.6096394"><ele>580.0</ele><time>2026-04-22T07:39:35.707Z</time></trkpt><trkpt lat="40.0532144" lon="9.6095474"><ele>580.0</ele><time>2026-04-22T07:39:36.705Z</time></trkpt><trkpt lat="40.0532345" lon="9.6094641"><ele>580.0</ele><time>2026-04-22T07:39:37.712Z</time></trkpt><trkpt lat="40.0532669" lon="9.609381"><ele>580.0</ele><time>2026-04-22T07:39:38.708Z</time></trkpt><trkpt lat="40.0533109" lon="9.6093051"><ele>580.0</ele><time>2026-04-22T07:39:39.708Z</time></trkpt><trkpt lat="40.0533587" lon="9.6092417"><ele>580.0</ele><time>2026-04-22T07:39:40.705Z</time></trkpt><trkpt lat="40.0534093" lon="9.6091813"><ele>581.1666666666667</ele><time>2026-04-22T07:39:41.709Z</time></trkpt><trkpt lat="40.0534616" lon="9.6091216"><ele>582.3333333333334</ele><time>2026-04-22T07:39:42.703Z</time></trkpt><trkpt lat="40.0535212" lon="9.6090328"><ele>583.5</ele><time>2026-04-22T07:39:44.699Z</time></trkpt><trkpt lat="40.0535325" lon="9.608925"><ele>584.6666666666666</ele><time>2026-04-22T07:39:46.7Z</time></trkpt><trkpt lat="40.0535368" lon="9.6088069"><ele>585.8333333333333</ele><time>2026-04-22T07:39:48.708Z</time></trkpt><trkpt lat="40.0535748" lon="9.608686"><ele>587.0</ele><time>2026-04-22T07:39:50.715Z</time></trkpt><trkpt lat="40.0536552" lon="9.6085847"><ele>587.0</ele><time>2026-04-22T07:39:52.72Z</time></trkpt><trkpt lat="40.0537204" lon="9.6084777"><ele>587.0</ele><time>2026-04-22T07:39:54.703Z</time></trkpt><trkpt lat="40.0537528" lon="9.6084038"><ele>587.0</ele><time>2026-04-22T07:39:55.711Z</time></trkpt><trkpt lat="40.0537918" lon="9.6083275"><ele>587.0</ele><time>2026-04-22T07:39:56.705Z</time></trkpt><trkpt lat="40.0538401" lon="9.6082505"><ele>587.0</ele><time>2026-04-22T07:39:57.703Z</time></trkpt><trkpt lat="40.0538979" lon="9.6081806"><ele>587.0</ele><time>2026-04-22T07:39:58.707Z</time></trkpt><trkpt lat="40.0539558" lon="9.6081199"><ele>587.0</ele><time>2026-04-22T07:39:59.713Z</time></trkpt><trkpt lat="40.0540059" lon="9.6080616"><ele>587.0</ele><time>2026-04-22T07:40:00.706Z</time></trkpt><trkpt lat="40.0540623" lon="9.6079947"><ele>587.0</ele><time>2026-04-22T07:40:01.708Z</time></trkpt><trkpt lat="40.0541262" lon="9.6078549"><ele>587.0</ele><time>2026-04-22T07:40:03.701Z</time></trkpt><trkpt lat="40.0541621" lon="9.6077805"><ele>587.0</ele><time>2026-04-22T07:40:04.699Z</time></trkpt><trkpt lat="40.0542072" lon="9.6077038"><ele>587.0</ele><time>2026-04-22T07:40:05.697Z</time></trkpt><trkpt lat="40.0542502" lon="9.6076181"><ele>591.0</ele><time>2026-04-22T07:40:06.707Z</time></trkpt><trkpt lat="40.0542854" lon="9.6075275"><ele>595.0</ele><time>2026-04-22T07:40:07.697Z</time></trkpt><trkpt lat="40.0543138" lon="9.6074422"><ele>599.0</ele><time>2026-04-22T07:40:08.699Z</time></trkpt><trkpt lat="40.0543432" lon="9.6073608"><ele>603.0</ele><time>2026-04-22T07:40:09.701Z</time></trkpt><trkpt lat="40.0543656" lon="9.6072756"><ele>607.0</ele><time>2026-04-22T07:40:10.696Z</time></trkpt><trkpt lat="40.0543925" lon="9.60719"><ele>611.0</ele><time>2026-04-22T07:40:11.71Z</time></trkpt><trkpt lat="40.05442" lon="9.6071022"><ele>615.0</ele><time>2026-04-22T07:40:12.706Z</time></trkpt><trkpt lat="40.0544487" lon="9.6070272"><ele>613.5714285714286</ele><time>2026-04-22T07:40:13.709Z</time></trkpt><trkpt lat="40.054478" lon="9.606951"><ele>612.1428571428572</ele><time>2026-04-22T07:40:14.711Z</time></trkpt><trkpt lat="40.0545242" lon="9.6068717"><ele>610.7142857142858</ele><time>2026-04-22T07:40:15.708Z</time></trkpt><trkpt lat="40.0545738" lon="9.606792"><ele>609.2857142857142</ele><time>2026-04-22T07:40:16.712Z</time></trkpt><trkpt lat="40.0546362" lon="9.6067179"><ele>607.8571428571429</ele><time>2026-04-22T07:40:17.72Z</time></trkpt><trkpt lat="40.0547011" lon="9.6066703"><ele>606.4285714285714</ele><time>2026-04-22T07:40:18.716Z</time></trkpt><trkpt lat="40.0547564" lon="9.6066182"><ele>605.0</ele><time>2026-04-22T07:40:19.714Z</time></trkpt><trkpt lat="40.0548221" lon="9.6065697"><ele>605.0</ele><time>2026-04-22T07:40:20.725Z</time></trkpt><trkpt lat="40.0548842" lon="9.6065327"><ele>605.0</ele><time>2026-04-22T07:40:21.72Z</time></trkpt><trkpt lat="40.0549522" lon="9.6065012"><ele>605.0</ele><time>2026-04-22T07:40:22.724Z</time></trkpt><trkpt lat="40.0550246" lon="9.6064845"><ele>605.0</ele><time>2026-04-22T07:40:23.72Z</time></trkpt><trkpt lat="40.0550859" lon="9.6064563"><ele>605.0</ele><time>2026-04-22T07:40:24.717Z</time></trkpt><trkpt lat="40.0552062" lon="9.6064092"><ele>605.0</ele><time>2026-04-22T07:40:26.719Z</time></trkpt><trkpt lat="40.0552692" lon="9.6063912"><ele>609.3333333333333</ele><time>2026-04-22T07:40:27.713Z</time></trkpt><trkpt lat="40.0553416" lon="9.6063821"><ele>613.6666666666666</ele><time>2026-04-22T07:40:28.717Z</time></trkpt><trkpt lat="40.0554101" lon="9.6063858"><ele>618.0</ele><time>2026-04-22T07:40:29.717Z</time></trkpt><trkpt lat="40.0554837" lon="9.6064046"><ele>622.3333333333334</ele><time>2026-04-22T07:40:30.714Z</time></trkpt><trkpt lat="40.0555566" lon="9.6064359"><ele>626.6666666666667</ele><time>2026-04-22T07:40:31.723Z</time></trkpt><trkpt lat="40.0556061" lon="9.606499"><ele>631.0</ele><time>2026-04-22T07:40:32.72Z</time></trkpt><trkpt lat="40.0556889" lon="9.6065501"><ele>631.0</ele><time>2026-04-22T07:40:34.721Z</time></trkpt><trkpt lat="40.0557724" lon="9.6065943"><ele>631.0</ele><time>2026-04-22T07:40:36.726Z</time></trkpt><trkpt lat="40.0558102" lon="9.606709"><ele>631.0</ele><time>2026-04-22T07:40:38.714Z</time></trkpt><trkpt lat="40.0557752" lon="9.606869"><ele>631.0</ele><time>2026-04-22T07:40:40.717Z</time></trkpt><trkpt lat="40.0557502" lon="9.6069646"><ele>631.0</ele><time>2026-04-22T07:40:41.718Z</time></trkpt><trkpt lat="40.0557369" lon="9.6070488"><ele>630.5</ele><time>2026-04-22T07:40:42.716Z</time></trkpt><trkpt lat="40.0557626" lon="9.6072088"><ele>630.0</ele><time>2026-04-22T07:40:44.712Z</time></trkpt><trkpt lat="40.0557813" lon="9.6072893"><ele>629.5</ele><time>2026-04-22T07:40:45.713Z</time></trkpt><trkpt lat="40.0558173" lon="9.6073638"><ele>629.0</ele><time>2026-04-22T07:40:46.714Z</time></trkpt><trkpt lat="40.0558526" lon="9.6074482"><ele>628.5</ele><time>2026-04-22T07:40:47.712Z</time></trkpt><trkpt lat="40.0558895" lon="9.6075252"><ele>628.0</ele><time>2026-04-22T07:40:48.713Z</time></trkpt><trkpt lat="40.0559267" lon="9.6075918"><ele>628.0</ele><time>2026-04-22T07:40:49.716Z</time></trkpt><trkpt lat="40.0559615" lon="9.6076605"><ele>628.0</ele><time>2026-04-22T07:40:50.706Z</time></trkpt><trkpt lat="40.0560108" lon="9.6077458"><ele>628.0</ele><time>2026-04-22T07:40:52.708Z</time></trkpt><trkpt lat="40.0560804" lon="9.6078017"><ele>628.0</ele><time>2026-04-22T07:40:54.707Z</time></trkpt><trkpt lat="40.056165" lon="9.6077946"><ele>628.0</ele><time>2026-04-22T07:40:56.722Z</time></trkpt><trkpt lat="40.0562589" lon="9.6078055"><ele>628.0</ele><time>2026-04-22T07:40:58.716Z</time></trkpt><trkpt lat="40.0563289" lon="9.6078833"><ele>630.3333333333334</ele><time>2026-04-22T07:41:00.713Z</time></trkpt><trkpt lat="40.0563817" lon="9.6080297"><ele>632.6666666666667</ele><time>2026-04-22T07:41:02.717Z</time></trkpt><trkpt lat="40.0563888" lon="9.6081195"><ele>635.0</ele><time>2026-04-22T07:41:03.715Z</time></trkpt><trkpt lat="40.0563866" lon="9.6082177"><ele>637.3333333333334</ele><time>2026-04-22T07:41:04.714Z</time></trkpt><trkpt lat="40.056379" lon="9.6083069"><ele>639.6666666666666</ele><time>2026-04-22T07:41:05.715Z</time></trkpt><trkpt lat="40.0563768" lon="9.6083954"><ele>642.0</ele><time>2026-04-22T07:41:06.715Z</time></trkpt><trkpt lat="40.0563845" lon="9.6084883"><ele>642.0</ele><time>2026-04-22T07:41:07.716Z</time></trkpt><trkpt lat="40.0563938" lon="9.6085759"><ele>642.0</ele><time>2026-04-22T07:41:08.713Z</time></trkpt><trkpt lat="40.0564056" lon="9.6086627"><ele>642.0</ele><time>2026-04-22T07:41:09.714Z</time></trkpt><trkpt lat="40.0564161" lon="9.6087882"><ele>642.0</ele><time>2026-04-22T07:41:11.712Z</time></trkpt><trkpt lat="40.0564695" lon="9.6088574"><ele>642.0</ele><time>2026-04-22T07:41:13.726Z</time></trkpt><trkpt lat="40.0565732" lon="9.6088855"><ele>642.0</ele><time>2026-04-22T07:41:15.711Z</time></trkpt><trkpt lat="40.0566906" lon="9.6089097"><ele>636.6666666666666</ele><time>2026-04-22T07:41:17.71Z</time></trkpt><trkpt lat="40.0567275" lon="9.6090105"><ele>631.3333333333334</ele><time>2026-04-22T07:41:19.719Z</time></trkpt><trkpt lat="40.0567451" lon="9.6090966"><ele>626.0</ele><time>2026-04-22T07:41:20.718Z</time></trkpt><trkpt lat="40.05677" lon="9.6091996"><ele>620.6666666666667</ele><time>2026-04-22T07:41:21.715Z</time></trkpt><trkpt lat="40.0568137" lon="9.6092846"><ele>615.3333333333334</ele><time>2026-04-22T07:41:22.713Z</time></trkpt><trkpt lat="40.0568985" lon="9.6093807"><ele>610.0</ele><time>2026-04-22T07:41:24.715Z</time></trkpt><trkpt lat="40.056967" lon="9.609488"><ele>610.0</ele><time>2026-04-22T07:41:26.717Z</time></trkpt><trkpt lat="40.0570113" lon="9.609612"><ele>610.0</ele><time>2026-04-22T07:41:28.719Z</time></trkpt><trkpt lat="40.0570648" lon="9.6096635"><ele>610.0</ele><time>2026-04-22T07:41:30.712Z</time></trkpt><trkpt lat="40.057135" lon="9.6096185"><ele>610.0</ele><time>2026-04-22T07:41:32.711Z</time></trkpt><trkpt lat="40.0572293" lon="9.6095339"><ele>610.0</ele><time>2026-04-22T07:41:34.71Z</time></trkpt><trkpt lat="40.0572902" lon="9.6094901"><ele>610.0</ele><time>2026-04-22T07:41:35.706Z</time></trkpt><trkpt lat="40.0573495" lon="9.6094518"><ele>610.0</ele><time>2026-04-22T07:41:36.708Z</time></trkpt><trkpt lat="40.0574146" lon="9.6094454"><ele>610.0</ele><time>2026-04-22T07:41:37.709Z</time></trkpt><trkpt lat="40.0574866" lon="9.6094625"><ele>610.0</ele><time>2026-04-22T07:41:38.722Z</time></trkpt><trkpt lat="40.057599" lon="9.6094904"><ele>610.0</ele><time>2026-04-22T07:41:40.713Z</time></trkpt><trkpt lat="40.0577058" lon="9.6095091"><ele>610.0</ele><time>2026-04-22T07:41:42.717Z</time></trkpt><trkpt lat="40.0578177" lon="9.6095492"><ele>606.8</ele><time>2026-04-22T07:41:44.709Z</time></trkpt><trkpt lat="40.0579257" lon="9.6095658"><ele>603.6</ele><time>2026-04-22T07:41:46.713Z</time></trkpt><trkpt lat="40.0580211" lon="9.6095175"><ele>600.4</ele><time>2026-04-22T07:41:48.708Z</time></trkpt><trkpt lat="40.0580989" lon="9.6093983"><ele>597.2</ele><time>2026-04-22T07:41:50.717Z</time></trkpt><trkpt lat="40.0581358" lon="9.6093259"><ele>594.0</ele><time>2026-04-22T07:41:51.713Z</time></trkpt><trkpt lat="40.0581822" lon="9.609264"><ele>594.0</ele><time>2026-04-22T07:41:52.719Z</time></trkpt><trkpt lat="40.0582377" lon="9.6092078"><ele>594.0</ele><time>2026-04-22T07:41:53.713Z</time></trkpt><trkpt lat="40.0582989" lon="9.6091495"><ele>594.0</ele><time>2026-04-22T07:41:54.713Z</time></trkpt><trkpt lat="40.0583639" lon="9.6090952"><ele>594.0</ele><time>2026-04-22T07:41:55.714Z</time></trkpt><trkpt lat="40.0584305" lon="9.6090566"><ele>594.0</ele><time>2026-04-22T07:41:56.697Z</time></trkpt><trkpt lat="40.0584939" lon="9.6090307"><ele>594.0</ele><time>2026-04-22T07:41:57.703Z</time></trkpt><trkpt lat="40.0585572" lon="9.6090067"><ele>594.0</ele><time>2026-04-22T07:41:58.701Z</time></trkpt><trkpt lat="40.0586218" lon="9.6089925"><ele>595.4285714285714</ele><time>2026-04-22T07:41:59.704Z</time></trkpt><trkpt lat="40.0586867" lon="9.6089761"><ele>596.8571428571429</ele><time>2026-04-22T07:42:00.706Z</time></trkpt><trkpt lat="40.0587608" lon="9.6089712"><ele>598.2857142857143</ele><time>2026-04-22T07:42:01.697Z</time></trkpt><trkpt lat="40.0588321" lon="9.6089639"><ele>599.7142857142858</ele><time>2026-04-22T07:42:02.707Z</time></trkpt><trkpt lat="40.0588968" lon="9.608947"><ele>601.1428571428571</ele><time>2026-04-22T07:42:03.701Z</time></trkpt><trkpt lat="40.0589597" lon="9.6089092"><ele>602.5714285714287</ele><time>2026-04-22T07:42:04.704Z</time></trkpt><trkpt lat="40.0590142" lon="9.6088667"><ele>604.0</ele><time>2026-04-22T07:42:05.706Z</time></trkpt><trkpt lat="40.0590669" lon="9.6088178"><ele>602.6666666666667</ele><time>2026-04-22T07:42:06.697Z</time></trkpt><trkpt lat="40.0591875" lon="9.6087504"><ele>601.3333333333334</ele><time>2026-04-22T07:42:08.702Z</time></trkpt><trkpt lat="40.0592551" lon="9.6087163"><ele>600.0</ele><time>2026-04-22T07:42:09.705Z</time></trkpt><trkpt lat="40.0593206" lon="9.6086736"><ele>598.6666666666666</ele><time>2026-04-22T07:42:10.702Z</time></trkpt><trkpt lat="40.0594001" lon="9.6086237"><ele>597.3333333333333</ele><time>2026-04-22T07:42:11.699Z</time></trkpt><trkpt lat="40.0594765" lon="9.6086095"><ele>596.0</ele><time>2026-04-22T07:42:12.696Z</time></trkpt><trkpt lat="40.0595872" lon="9.6085863"><ele>596.0</ele><time>2026-04-22T07:42:14.703Z</time></trkpt><trkpt lat="40.0596499" lon="9.608565"><ele>596.0</ele><time>2026-04-22T07:42:15.702Z</time></trkpt><trkpt lat="40.0597143" lon="9.6085341"><ele>596.0</ele><time>2026-04-22T07:42:16.702Z</time></trkpt><trkpt lat="40.0598258" lon="9.6084904"><ele>596.0</ele><time>2026-04-22T07:42:18.706Z</time></trkpt><trkpt lat="40.0598994" lon="9.6084099"><ele>596.0</ele><time>2026-04-22T07:42:20.701Z</time></trkpt><trkpt lat="40.0599675" lon="9.6083159"><ele>596.0</ele><time>2026-04-22T07:42:22.706Z</time></trkpt><trkpt lat="40.0600407" lon="9.6082244"><ele>601.4</ele><time>2026-04-22T07:42:24.703Z</time></trkpt><trkpt lat="40.0601394" lon="9.6081586"><ele>606.8</ele><time>2026-04-22T07:42:26.705Z</time></trkpt><trkpt lat="40.0602459" lon="9.6081059"><ele>612.1999999999999</ele><time>2026-04-22T07:42:28.708Z</time></trkpt><trkpt lat="40.0603451" lon="9.6080842"><ele>617.6</ele><time>2026-04-22T07:42:30.708Z</time></trkpt><trkpt lat="40.0604357" lon="9.6081086"><ele>623.0</ele><time>2026-04-22T07:42:32.713Z</time></trkpt><trkpt lat="40.0605241" lon="9.6081473"><ele>623.0</ele><time>2026-04-22T07:42:34.704Z</time></trkpt><trkpt lat="40.0606441" lon="9.6081363"><ele>623.0</ele><time>2026-04-22T07:42:36.702Z</time></trkpt><trkpt lat="40.0607395" lon="9.6081177"><ele>623.0</ele><time>2026-04-22T07:42:38.703Z</time></trkpt><trkpt lat="40.0608462" lon="9.6080676"><ele>623.0</ele><time>2026-04-22T07:42:40.698Z</time></trkpt><trkpt lat="40.0608992" lon="9.6080224"><ele>623.0</ele><time>2026-04-22T07:42:41.696Z</time></trkpt><trkpt lat="40.0609607" lon="9.6079746"><ele>624.3333333333333</ele><time>2026-04-22T07:42:42.698Z</time></trkpt><trkpt lat="40.0610213" lon="9.6079427"><ele>625.6666666666666</ele><time>2026-04-22T07:42:43.706Z</time></trkpt><trkpt lat="40.0610839" lon="9.6079021"><ele>627.0</ele><time>2026-04-22T07:42:44.699Z</time></trkpt><trkpt lat="40.0611448" lon="9.6078589"><ele>628.3333333333334</ele><time>2026-04-22T07:42:45.706Z</time></trkpt><trkpt lat="40.0612091" lon="9.6078207"><ele>629.6666666666667</ele><time>2026-04-22T07:42:46.698Z</time></trkpt><trkpt lat="40.0613167" lon="9.6077666"><ele>631.0</ele><time>2026-04-22T07:42:48.701Z</time></trkpt><trkpt lat="40.0614132" lon="9.6077056"><ele>626.6</ele><time>2026-04-22T07:42:50.703Z</time></trkpt><trkpt lat="40.0614878" lon="9.6076142"><ele>622.2</ele><time>2026-04-22T07:42:52.7Z</time></trkpt><trkpt lat="40.0615833" lon="9.6075405"><ele>617.8</ele><time>2026-04-22T07:42:54.706Z</time></trkpt><trkpt lat="40.0616586" lon="9.6074502"><ele>613.4</ele><time>2026-04-22T07:42:56.704Z</time></trkpt><trkpt lat="40.0617233" lon="9.6073381"><ele>609.0</ele><time>2026-04-22T07:42:58.699Z</time></trkpt><trkpt lat="40.0617722" lon="9.607215"><ele>609.0</ele><time>2026-04-22T07:43:00.703Z</time></trkpt><trkpt lat="40.0618083" lon="9.6070936"><ele>609.0</ele><time>2026-04-22T07:43:02.702Z</time></trkpt><trkpt lat="40.0618355" lon="9.6069538"><ele>609.0</ele><time>2026-04-22T07:43:04.706Z</time></trkpt><trkpt lat="40.0618575" lon="9.6068346"><ele>609.0</ele><time>2026-04-22T07:43:06.701Z</time></trkpt><trkpt lat="40.0619202" lon="9.6067234"><ele>609.0</ele><time>2026-04-22T07:43:08.702Z</time></trkpt><trkpt lat="40.0620076" lon="9.6066343"><ele>603.0</ele><time>2026-04-22T07:43:10.7Z</time></trkpt><trkpt lat="40.0621177" lon="9.6065579"><ele>597.0</ele><time>2026-04-22T07:43:12.707Z</time></trkpt><trkpt lat="40.0622068" lon="9.6064801"><ele>591.0</ele><time>2026-04-22T07:43:14.706Z</time></trkpt><trkpt lat="40.062276" lon="9.6063946"><ele>585.0</ele><time>2026-04-22T07:43:16.707Z</time></trkpt><trkpt lat="40.0623193" lon="9.606284"><ele>579.0</ele><time>2026-04-22T07:43:18.711Z</time></trkpt><trkpt lat="40.0623364" lon="9.606159"><ele>577.8</ele><time>2026-04-22T07:43:20.712Z</time></trkpt><trkpt lat="40.062353" lon="9.6060244"><ele>576.5999999999999</ele><time>2026-04-22T07:43:22.708Z</time></trkpt><trkpt lat="40.0623917" lon="9.6058985"><ele>575.4</ele><time>2026-04-22T07:43:24.705Z</time></trkpt><trkpt lat="40.0624409" lon="9.6057796"><ele>574.1999999999999</ele><time>2026-04-22T07:43:26.709Z</time></trkpt><trkpt lat="40.0624857" lon="9.6056591"><ele>573.0</ele><time>2026-04-22T07:43:28.704Z</time></trkpt><trkpt lat="40.0625315" lon="9.6055648"><ele>573.0</ele><time>2026-04-22T07:43:30.701Z</time></trkpt><trkpt lat="40.0625875" lon="9.6054642"><ele>573.0</ele><time>2026-04-22T07:43:32.71Z</time></trkpt><trkpt lat="40.0626461" lon="9.6053806"><ele>573.0</ele><time>2026-04-22T07:43:34.716Z</time></trkpt><trkpt lat="40.0626884" lon="9.6052841"><ele>573.0</ele><time>2026-04-22T07:43:36.715Z</time></trkpt><trkpt lat="40.0627085" lon="9.6051901"><ele>573.0</ele><time>2026-04-22T07:43:38.708Z</time></trkpt><trkpt lat="40.0627669" lon="9.6051542"><ele>573.0</ele><time>2026-04-22T07:43:40.716Z</time></trkpt><trkpt lat="40.0628192" lon="9.6052189"><ele>573.0</ele><time>2026-04-22T07:43:42.714Z</time></trkpt><trkpt lat="40.0628031" lon="9.6053577"><ele>573.0</ele><time>2026-04-22T07:43:44.712Z</time></trkpt><trkpt lat="40.0627984" lon="9.605444"><ele>573.0</ele><time>2026-04-22T07:43:45.702Z</time></trkpt><trkpt lat="40.0628379" lon="9.605597"><ele>573.0</ele><time>2026-04-22T07:43:47.708Z</time></trkpt><trkpt lat="40.0628869" lon="9.6057321"><ele>573.0</ele><time>2026-04-22T07:43:49.703Z</time></trkpt><trkpt lat="40.0629351" lon="9.6058592"><ele>573.0</ele><time>2026-04-22T07:43:51.709Z</time></trkpt><trkpt lat="40.0629514" lon="9.6059772"><ele>573.0</ele><time>2026-04-22T07:43:53.711Z</time></trkpt><trkpt lat="40.0629465" lon="9.6061274"><ele>573.0</ele><time>2026-04-22T07:43:55.703Z</time></trkpt><trkpt lat="40.0629675" lon="9.606266"><ele>573.0</ele><time>2026-04-22T07:43:57.702Z</time></trkpt><trkpt lat="40.0630049" lon="9.606376"><ele>573.0</ele><time>2026-04-22T07:43:59.704Z</time></trkpt><trkpt lat="40.0630946" lon="9.6064666"><ele>572.4</ele><time>2026-04-22T07:44:01.709Z</time></trkpt><trkpt lat="40.063183" lon="9.6065041"><ele>571.8</ele><time>2026-04-22T07:44:03.699Z</time></trkpt><trkpt lat="40.0632827" lon="9.6064994"><ele>571.2</ele><time>2026-04-22T07:44:05.701Z</time></trkpt><trkpt lat="40.0633736" lon="9.6065006"><ele>570.6</ele><time>2026-04-22T07:44:07.69Z</time></trkpt><trkpt lat="40.0634717" lon="9.6064936"><ele>570.0</ele><time>2026-04-22T07:44:09.703Z</time></trkpt><trkpt lat="40.0635782" lon="9.6064955"><ele>570.0</ele><time>2026-04-22T07:44:11.713Z</time></trkpt><trkpt lat="40.0637035" lon="9.6065322"><ele>570.0</ele><time>2026-04-22T07:44:13.705Z</time></trkpt><trkpt lat="40.0637729" lon="9.6065494"><ele>570.0</ele><time>2026-04-22T07:44:14.706Z</time></trkpt><trkpt lat="40.0638484" lon="9.6065717"><ele>570.0</ele><time>2026-04-22T07:44:15.705Z</time></trkpt><trkpt lat="40.0639317" lon="9.6066038"><ele>570.0</ele><time>2026-04-22T07:44:16.705Z</time></trkpt><trkpt lat="40.0640114" lon="9.6066388"><ele>570.0</ele><time>2026-04-22T07:44:17.704Z</time></trkpt><trkpt lat="40.0640875" lon="9.6066737"><ele>565.8333333333334</ele><time>2026-04-22T07:44:18.705Z</time></trkpt><trkpt lat="40.0641678" lon="9.6066951"><ele>561.6666666666666</ele><time>2026-04-22T07:44:19.709Z</time></trkpt><trkpt lat="40.0642428" lon="9.6067281"><ele>557.5</ele><time>2026-04-22T07:44:20.704Z</time></trkpt><trkpt lat="40.0643137" lon="9.6067751"><ele>553.3333333333333</ele><time>2026-04-22T07:44:21.719Z</time></trkpt><trkpt lat="40.0643804" lon="9.6068121"><ele>549.1666666666666</ele><time>2026-04-22T07:44:22.705Z</time></trkpt><trkpt lat="40.064451" lon="9.6068578"><ele>545.0</ele><time>2026-04-22T07:44:23.705Z</time></trkpt><trkpt lat="40.0645216" lon="9.6069021"><ele>550.3333333333333</ele><time>2026-04-22T07:44:24.703Z</time></trkpt><trkpt lat="40.0646384" lon="9.6069961"><ele>555.6666666666666</ele><time>2026-04-22T07:44:26.705Z</time></trkpt><trkpt lat="40.0647072" lon="9.6070513"><ele>561.0</ele><time>2026-04-22T07:44:27.705Z</time></trkpt><trkpt lat="40.0647731" lon="9.6071061"><ele>566.3333333333334</ele><time>2026-04-22T07:44:28.709Z</time></trkpt><trkpt lat="40.064827" lon="9.6071578"><ele>571.6666666666667</ele><time>2026-04-22T07:44:29.706Z</time></trkpt><trkpt lat="40.0648833" lon="9.6072137"><ele>577.0</ele><time>2026-04-22T07:44:30.708Z</time></trkpt><trkpt lat="40.0649394" lon="9.6072564"><ele>569.2</ele><time>2026-04-22T07:44:31.717Z</time></trkpt><trkpt lat="40.0650193" lon="9.6073767"><ele>561.4000000000001</ele><time>2026-04-22T07:44:33.713Z</time></trkpt><trkpt lat="40.0650616" lon="9.6075004"><ele>553.5999999999999</ele><time>2026-04-22T07:44:35.707Z</time></trkpt><trkpt lat="40.0651169" lon="9.6075939"><ele>545.8</ele><time>2026-04-22T07:44:37.697Z</time></trkpt><trkpt lat="40.0652105" lon="9.6076017"><ele>538.0</ele><time>2026-04-22T07:44:39.707Z</time></trkpt><trkpt lat="40.0652734" lon="9.6075949"><ele>538.0</ele><time>2026-04-22T07:44:40.701Z</time></trkpt><trkpt lat="40.065377" lon="9.6076791"><ele>538.0</ele><time>2026-04-22T07:44:42.708Z</time></trkpt><trkpt lat="40.0654481" lon="9.6077864"><ele>538.0</ele><time>2026-04-22T07:44:44.713Z</time></trkpt><trkpt lat="40.0655339" lon="9.6078649"><ele>538.0</ele><time>2026-04-22T07:44:46.703Z</time></trkpt><trkpt lat="40.0656316" lon="9.6078989"><ele>538.0</ele><time>2026-04-22T07:44:48.692Z</time></trkpt><trkpt lat="40.0657111" lon="9.6078506"><ele>533.25</ele><time>2026-04-22T07:44:50.699Z</time></trkpt><trkpt lat="40.0657891" lon="9.6077514"><ele>528.5</ele><time>2026-04-22T07:44:52.696Z</time></trkpt><trkpt lat="40.0658736" lon="9.6076473"><ele>523.75</ele><time>2026-04-22T07:44:54.706Z</time></trkpt><trkpt lat="40.0659767" lon="9.607567"><ele>519.0</ele><time>2026-04-22T07:44:56.701Z</time></trkpt><trkpt lat="40.0660877" lon="9.6074851"><ele>519.0</ele><time>2026-04-22T07:44:58.697Z</time></trkpt><trkpt lat="40.0661452" lon="9.6074451"><ele>519.0</ele><time>2026-04-22T07:44:59.699Z</time></trkpt><trkpt lat="40.0662543" lon="9.6073728"><ele>519.0</ele><time>2026-04-22T07:45:01.712Z</time></trkpt><trkpt lat="40.0663586" lon="9.6073265"><ele>519.0</ele><time>2026-04-22T07:45:03.7Z</time></trkpt><trkpt lat="40.0664008" lon="9.6072306"><ele>519.0</ele><time>2026-04-22T07:45:05.686Z</time></trkpt><trkpt lat="40.0663712" lon="9.6071004"><ele>519.0</ele><time>2026-04-22T07:45:07.682Z</time></trkpt><trkpt lat="40.0663294" lon="9.6070278"><ele>519.0</ele><time>2026-04-22T07:45:08.686Z</time></trkpt><trkpt lat="40.0662841" lon="9.6069545"><ele>519.0</ele><time>2026-04-22T07:45:09.693Z</time></trkpt><trkpt lat="40.066229" lon="9.6068215"><ele>519.0</ele><time>2026-04-22T07:45:11.706Z</time></trkpt><trkpt lat="40.0661964" lon="9.6066678"><ele>519.0</ele><time>2026-04-22T07:45:13.699Z</time></trkpt><trkpt lat="40.0661644" lon="9.6065024"><ele>516.2857142857142</ele><time>2026-04-22T07:45:15.688Z</time></trkpt><trkpt lat="40.0661312" lon="9.6064283"><ele>513.5714285714286</ele><time>2026-04-22T07:45:16.689Z</time></trkpt><trkpt lat="40.0661154" lon="9.6063403"><ele>510.85714285714283</ele><time>2026-04-22T07:45:17.692Z</time></trkpt><trkpt lat="40.0661012" lon="9.6062504"><ele>508.1428571428571</ele><time>2026-04-22T07:45:18.691Z</time></trkpt><trkpt lat="40.0660847" lon="9.6061651"><ele>505.42857142857144</ele><time>2026-04-22T07:45:19.695Z</time></trkpt><trkpt lat="40.0660685" lon="9.606077"><ele>502.71428571428567</ele><time>2026-04-22T07:45:20.694Z</time></trkpt><trkpt lat="40.0660401" lon="9.6059929"><ele>500.0</ele><time>2026-04-22T07:45:21.702Z</time></trkpt><trkpt lat="40.0660104" lon="9.6059085"><ele>498.3333333333333</ele><time>2026-04-22T07:45:22.696Z</time></trkpt><trkpt lat="40.0659785" lon="9.6058219"><ele>496.66666666666663</ele><time>2026-04-22T07:45:23.696Z</time></trkpt><trkpt lat="40.0659503" lon="9.6057432"><ele>495.0</ele><time>2026-04-22T07:45:24.691Z</time></trkpt><trkpt lat="40.0659248" lon="9.6056643"><ele>493.33333333333337</ele><time>2026-04-22T07:45:25.689Z</time></trkpt><trkpt lat="40.0659051" lon="9.6055152"><ele>491.6666666666667</ele><time>2026-04-22T07:45:27.687Z</time></trkpt><trkpt lat="40.0658622" lon="9.6053797"><ele>490.0</ele><time>2026-04-22T07:45:29.698Z</time></trkpt><trkpt lat="40.0658298" lon="9.6052718"><ele>488.2</ele><time>2026-04-22T07:45:31.707Z</time></trkpt><trkpt lat="40.0658572" lon="9.6051581"><ele>486.4</ele><time>2026-04-22T07:45:33.689Z</time></trkpt><trkpt lat="40.065909" lon="9.6049909"><ele>484.6</ele><time>2026-04-22T07:45:35.696Z</time></trkpt><trkpt lat="40.0659478" lon="9.6049079"><ele>482.8</ele><time>2026-04-22T07:45:36.694Z</time></trkpt><trkpt lat="40.065995" lon="9.6048295"><ele>481.0</ele><time>2026-04-22T07:45:37.697Z</time></trkpt><trkpt lat="40.0660471" lon="9.6047568"><ele>481.00000000000006</ele><time>2026-04-22T07:45:38.695Z</time></trkpt><trkpt lat="40.0661076" lon="9.6046823"><ele>481.0</ele><time>2026-04-22T07:45:39.693Z</time></trkpt><trkpt lat="40.0661668" lon="9.6046072"><ele>481.0</ele><time>2026-04-22T07:45:40.69Z</time></trkpt><trkpt lat="40.0662278" lon="9.6045489"><ele>481.0</ele><time>2026-04-22T07:45:41.705Z</time></trkpt><trkpt lat="40.0662863" lon="9.6044873"><ele>481.00000000000006</ele><time>2026-04-22T07:45:42.69Z</time></trkpt><trkpt lat="40.0663424" lon="9.6044107"><ele>481.0</ele><time>2026-04-22T07:45:43.709Z</time></trkpt><trkpt lat="40.0663909" lon="9.6043306"><ele>477.50000000000006</ele><time>2026-04-22T07:45:44.69Z</time></trkpt><trkpt lat="40.0664377" lon="9.6042523"><ele>474.0</ele><time>2026-04-22T07:45:45.696Z</time></trkpt><trkpt lat="40.0664876" lon="9.604174"><ele>470.5</ele><time>2026-04-22T07:45:46.695Z</time></trkpt><trkpt lat="40.0665396" lon="9.6040965"><ele>467.0</ele><time>2026-04-22T07:45:47.691Z</time></trkpt><trkpt lat="40.0665783" lon="9.6039991"><ele>463.50000000000006</ele><time>2026-04-22T07:45:48.69Z</time></trkpt><trkpt lat="40.0666117" lon="9.6038909"><ele>460.0</ele><time>2026-04-22T07:45:49.693Z</time></trkpt><trkpt lat="40.0666483" lon="9.6037794"><ele>463.6666666666667</ele><time>2026-04-22T07:45:50.687Z</time></trkpt><trkpt lat="40.0666868" lon="9.6036777"><ele>467.33333333333337</ele><time>2026-04-22T07:45:51.705Z</time></trkpt><trkpt lat="40.0667285" lon="9.6035802"><ele>471.0</ele><time>2026-04-22T07:45:52.688Z</time></trkpt><trkpt lat="40.066773" lon="9.603483"><ele>474.66666666666663</ele><time>2026-04-22T07:45:53.694Z</time></trkpt><trkpt lat="40.066822" lon="9.6033927"><ele>478.3333333333333</ele><time>2026-04-22T07:45:54.689Z</time></trkpt><trkpt lat="40.0668725" lon="9.6033093"><ele>482.0</ele><time>2026-04-22T07:45:55.694Z</time></trkpt><trkpt lat="40.0669349" lon="9.6032415"><ele>481.99999999999994</ele><time>2026-04-22T07:45:56.692Z</time></trkpt><trkpt lat="40.0670015" lon="9.603182"><ele>482.0</ele><time>2026-04-22T07:45:57.689Z</time></trkpt><trkpt lat="40.067067" lon="9.6031258"><ele>482.0</ele><time>2026-04-22T07:45:58.692Z</time></trkpt><trkpt lat="40.0671323" lon="9.6030706"><ele>482.0</ele><time>2026-04-22T07:45:59.69Z</time></trkpt><trkpt lat="40.0671939" lon="9.6030205"><ele>481.99999999999994</ele><time>2026-04-22T07:46:00.688Z</time></trkpt><trkpt lat="40.0672658" lon="9.6029803"><ele>482.0</ele><time>2026-04-22T07:46:01.708Z</time></trkpt><trkpt lat="40.0673415" lon="9.6029422"><ele>482.0</ele><time>2026-04-22T07:46:02.692Z</time></trkpt><trkpt lat="40.0674199" lon="9.602906"><ele>482.00000000000006</ele><time>2026-04-22T07:46:03.691Z</time></trkpt><trkpt lat="40.0674924" lon="9.602888"><ele>482.0</ele><time>2026-04-22T07:46:04.693Z</time></trkpt><trkpt lat="40.0675647" lon="9.6028723"><ele>482.0</ele><time>2026-04-22T07:46:05.689Z</time></trkpt><trkpt lat="40.0676405" lon="9.6028466"><ele>482.00000000000006</ele><time>2026-04-22T07:46:06.688Z</time></trkpt><trkpt lat="40.0677074" lon="9.6028175"><ele>482.0</ele><time>2026-04-22T07:46:07.687Z</time></trkpt><trkpt lat="40.0677595" lon="9.6027692"><ele>482.0</ele><time>2026-04-22T07:46:08.687Z</time></trkpt><trkpt lat="40.067809" lon="9.6026952"><ele>483.49999999999994</ele><time>2026-04-22T07:46:09.688Z</time></trkpt><trkpt lat="40.0678504" lon="9.6026131"><ele>485.0</ele><time>2026-04-22T07:46:10.684Z</time></trkpt><trkpt lat="40.067879" lon="9.6025246"><ele>486.5</ele><time>2026-04-22T07:46:11.7Z</time></trkpt><trkpt lat="40.0678975" lon="9.6024191"><ele>488.0</ele><time>2026-04-22T07:46:12.683Z</time></trkpt><trkpt lat="40.0679076" lon="9.6023107"><ele>489.49999999999994</ele><time>2026-04-22T07:46:13.688Z</time></trkpt><trkpt lat="40.0679209" lon="9.6022114"><ele>491.0</ele><time>2026-04-22T07:46:14.682Z</time></trkpt><trkpt lat="40.0679388" lon="9.602115"><ele>490.99999999999994</ele><time>2026-04-22T07:46:15.685Z</time></trkpt><trkpt lat="40.0679681" lon="9.6020199"><ele>491.0</ele><time>2026-04-22T07:46:16.685Z</time></trkpt><trkpt lat="40.0680026" lon="9.6019203"><ele>491.0</ele><time>2026-04-22T07:46:17.689Z</time></trkpt><trkpt lat="40.0680298" lon="9.6018289"><ele>491.0</ele><time>2026-04-22T07:46:18.686Z</time></trkpt><trkpt lat="40.0680575" lon="9.6017499"><ele>490.99999999999994</ele><time>2026-04-22T07:46:19.689Z</time></trkpt><trkpt lat="40.0681149" lon="9.6016579"><ele>491.0</ele><time>2026-04-22T07:46:21.683Z</time></trkpt><trkpt lat="40.0681126" lon="9.6017478"><ele>487.20000000000005</ele><time>2026-04-22T08:09:58.705Z</time></trkpt><trkpt lat="40.0681847" lon="9.6017611"><ele>483.40000000000003</ele><time>2026-04-22T08:10:52.7Z</time></trkpt><trkpt lat="40.0682838" lon="9.6017651"><ele>479.6</ele><time>2026-04-22T08:10:54.7Z</time></trkpt><trkpt lat="40.068394" lon="9.6017525"><ele>475.8</ele><time>2026-04-22T08:10:56.7Z</time></trkpt><trkpt lat="40.0684843" lon="9.6017217"><ele>472.0</ele><time>2026-04-22T08:10:58.704Z</time></trkpt><trkpt lat="40.068565" lon="9.6016636"><ele>479.6666666666667</ele><time>2026-04-22T08:11:00.709Z</time></trkpt><trkpt lat="40.0686536" lon="9.6016211"><ele>487.33333333333337</ele><time>2026-04-22T08:11:02.697Z</time></trkpt><trkpt lat="40.0687287" lon="9.601577"><ele>495.0</ele><time>2026-04-22T08:11:04.695Z</time></trkpt><trkpt lat="40.0687606" lon="9.6014927"><ele>502.66666666666663</ele><time>2026-04-22T08:11:06.689Z</time></trkpt><trkpt lat="40.0687676" lon="9.6013814"><ele>510.3333333333333</ele><time>2026-04-22T08:11:08.694Z</time></trkpt><trkpt lat="40.0687735" lon="9.6012942"><ele>518.0</ele><time>2026-04-22T08:11:10.694Z</time></trkpt><trkpt lat="40.0688346" lon="9.6012076"><ele>515.1666666666666</ele><time>2026-04-22T08:11:13.699Z</time></trkpt><trkpt lat="40.068857" lon="9.6011072"><ele>512.3333333333333</ele><time>2026-04-22T08:11:15.691Z</time></trkpt><trkpt lat="40.068866" lon="9.6010203"><ele>509.5</ele><time>2026-04-22T08:11:16.692Z</time></trkpt><trkpt lat="40.0688808" lon="9.6009357"><ele>506.66666666666663</ele><time>2026-04-22T08:11:17.69Z</time></trkpt><trkpt lat="40.0688882" lon="9.6008539"><ele>503.8333333333333</ele><time>2026-04-22T08:11:18.682Z</time></trkpt><trkpt lat="40.0689076" lon="9.6006997"><ele>501.0</ele><time>2026-04-22T08:11:20.681Z</time></trkpt><trkpt lat="40.0689103" lon="9.6005575"><ele>501.0</ele><time>2026-04-22T08:11:22.693Z</time></trkpt><trkpt lat="40.0689178" lon="9.60043"><ele>501.0</ele><time>2026-04-22T08:11:24.694Z</time></trkpt><trkpt lat="40.0689529" lon="9.6003443"><ele>501.0</ele><time>2026-04-22T08:11:26.707Z</time></trkpt><trkpt lat="40.0689963" lon="9.6002624"><ele>501.0</ele><time>2026-04-22T08:11:28.705Z</time></trkpt><trkpt lat="40.0690306" lon="9.6001627"><ele>501.0</ele><time>2026-04-22T08:11:30.703Z</time></trkpt><trkpt lat="40.0690987" lon="9.6000451"><ele>501.0</ele><time>2026-04-22T08:11:33.703Z</time></trkpt><trkpt lat="40.0691743" lon="9.5999587"><ele>507.4</ele><time>2026-04-22T08:11:35.707Z</time></trkpt><trkpt lat="40.069245" lon="9.5998716"><ele>513.8</ele><time>2026-04-22T08:11:37.702Z</time></trkpt><trkpt lat="40.0693272" lon="9.5998028"><ele>520.1999999999999</ele><time>2026-04-22T08:11:39.708Z</time></trkpt><trkpt lat="40.0694105" lon="9.5997226"><ele>526.6</ele><time>2026-04-22T08:11:41.7Z</time></trkpt><trkpt lat="40.069476" lon="9.5996425"><ele>533.0</ele><time>2026-04-22T08:11:43.707Z</time></trkpt><trkpt lat="40.069539" lon="9.599532"><ele>530.1999999999999</ele><time>2026-04-22T08:11:45.696Z</time></trkpt><trkpt lat="40.0696019" lon="9.5994353"><ele>527.4</ele><time>2026-04-22T08:11:47.703Z</time></trkpt><trkpt lat="40.06968" lon="9.5993572"><ele>524.5999999999999</ele><time>2026-04-22T08:11:49.702Z</time></trkpt><trkpt lat="40.0697738" lon="9.5993176"><ele>521.8</ele><time>2026-04-22T08:11:51.695Z</time></trkpt><trkpt lat="40.0698598" lon="9.5992707"><ele>519.0</ele><time>2026-04-22T08:11:53.7Z</time></trkpt><trkpt lat="40.0699607" lon="9.5992408"><ele>519.0</ele><time>2026-04-22T08:11:55.698Z</time></trkpt><trkpt lat="40.0700543" lon="9.599238"><ele>519.0</ele><time>2026-04-22T08:11:57.697Z</time></trkpt><trkpt lat="40.0701714" lon="9.5992154"><ele>519.0</ele><time>2026-04-22T08:11:59.694Z</time></trkpt><trkpt lat="40.0702642" lon="9.5991546"><ele>519.0</ele><time>2026-04-22T08:12:01.698Z</time></trkpt><trkpt lat="40.0703436" lon="9.5990835"><ele>519.0</ele><time>2026-04-22T08:12:03.699Z</time></trkpt><trkpt lat="40.0704367" lon="9.5990334"><ele>519.0</ele><time>2026-04-22T08:12:05.696Z</time></trkpt><trkpt lat="40.0705465" lon="9.598977"><ele>519.0</ele><time>2026-04-22T08:12:07.695Z</time></trkpt><trkpt lat="40.0706499" lon="9.5989441"><ele>519.0</ele><time>2026-04-22T08:12:09.695Z</time></trkpt><trkpt lat="40.0707521" lon="9.5989049"><ele>519.0</ele><time>2026-04-22T08:12:11.698Z</time></trkpt><trkpt lat="40.0708416" lon="9.598844"><ele>519.0</ele><time>2026-04-22T08:12:13.701Z</time></trkpt><trkpt lat="40.070928" lon="9.5987711"><ele>521.0</ele><time>2026-04-22T08:12:15.698Z</time></trkpt><trkpt lat="40.0710202" lon="9.5986855"><ele>523.0</ele><time>2026-04-22T08:12:17.704Z</time></trkpt><trkpt lat="40.0710935" lon="9.5985756"><ele>525.0</ele><time>2026-04-22T08:12:19.707Z</time></trkpt><trkpt lat="40.0711487" lon="9.5984486"><ele>527.0</ele><time>2026-04-22T08:12:21.706Z</time></trkpt><trkpt lat="40.0711674" lon="9.5983327"><ele>529.0</ele><time>2026-04-22T08:12:23.702Z</time></trkpt><trkpt lat="40.0712006" lon="9.5982193"><ele>522.6</ele><time>2026-04-22T08:12:25.699Z</time></trkpt><trkpt lat="40.0712301" lon="9.5981027"><ele>516.2</ele><time>2026-04-22T08:12:27.702Z</time></trkpt><trkpt lat="40.071281" lon="9.5979865"><ele>509.80000000000007</ele><time>2026-04-22T08:12:29.698Z</time></trkpt><trkpt lat="40.07134" lon="9.5978661"><ele>503.40000000000003</ele><time>2026-04-22T08:12:31.698Z</time></trkpt><trkpt lat="40.0713933" lon="9.5977548"><ele>497.0</ele><time>2026-04-22T08:12:33.7Z</time></trkpt><trkpt lat="40.0714341" lon="9.5976407"><ele>497.0</ele><time>2026-04-22T08:12:35.695Z</time></trkpt><trkpt lat="40.0714771" lon="9.5975221"><ele>497.00000000000006</ele><time>2026-04-22T08:12:37.691Z</time></trkpt><trkpt lat="40.0715156" lon="9.5973942"><ele>497.00000000000006</ele><time>2026-04-22T08:12:39.698Z</time></trkpt><trkpt lat="40.0715561" lon="9.5972693"><ele>497.0</ele><time>2026-04-22T08:12:41.703Z</time></trkpt><trkpt lat="40.0716037" lon="9.5971711"><ele>497.0</ele><time>2026-04-22T08:12:43.7Z</time></trkpt><trkpt lat="40.0716457" lon="9.597055"><ele>496.99999999999994</ele><time>2026-04-22T08:12:45.699Z</time></trkpt><trkpt lat="40.0717115" lon="9.5969593"><ele>497.0</ele><time>2026-04-22T08:12:47.697Z</time></trkpt><trkpt lat="40.0717942" lon="9.5969481"><ele>497.0</ele><time>2026-04-22T08:12:49.695Z</time></trkpt><trkpt lat="40.0719007" lon="9.5970117"><ele>497.0</ele><time>2026-04-22T08:12:51.701Z</time></trkpt><trkpt lat="40.0719608" lon="9.59705"><ele>496.99999999999994</ele><time>2026-04-22T08:12:52.695Z</time></trkpt><trkpt lat="40.0720197" lon="9.597086"><ele>497.0</ele><time>2026-04-22T08:12:53.697Z</time></trkpt><trkpt lat="40.0721204" lon="9.5971408"><ele>497.0</ele><time>2026-04-22T08:12:55.69Z</time></trkpt><trkpt lat="40.0722237" lon="9.5972048"><ele>497.00000000000006</ele><time>2026-04-22T08:12:57.688Z</time></trkpt><trkpt lat="40.0723028" lon="9.5972862"><ele>497.00000000000006</ele><time>2026-04-22T08:12:59.692Z</time></trkpt><trkpt lat="40.072355" lon="9.597387"><ele>497.0</ele><time>2026-04-22T08:13:01.692Z</time></trkpt><trkpt lat="40.0723955" lon="9.5975046"><ele>497.0</ele><time>2026-04-22T08:13:03.687Z</time></trkpt><trkpt lat="40.0724533" lon="9.5976263"><ele>494.8333333333333</ele><time>2026-04-22T08:13:05.694Z</time></trkpt><trkpt lat="40.0724923" lon="9.597692"><ele>492.66666666666663</ele><time>2026-04-22T08:13:06.685Z</time></trkpt><trkpt lat="40.0725334" lon="9.5977609"><ele>490.5</ele><time>2026-04-22T08:13:07.688Z</time></trkpt><trkpt lat="40.0725746" lon="9.5978256"><ele>488.33333333333337</ele><time>2026-04-22T08:13:08.687Z</time></trkpt><trkpt lat="40.0726646" lon="9.5979202"><ele>486.1666666666667</ele><time>2026-04-22T08:13:10.688Z</time></trkpt><trkpt lat="40.0727362" lon="9.5980101"><ele>484.0</ele><time>2026-04-22T08:13:12.683Z</time></trkpt><trkpt lat="40.0727885" lon="9.5981294"><ele>484.00000000000006</ele><time>2026-04-22T08:13:14.684Z</time></trkpt><trkpt lat="40.07283" lon="9.5982303"><ele>484.0</ele><time>2026-04-22T08:13:16.689Z</time></trkpt><trkpt lat="40.0728414" lon="9.5983462"><ele>484.0</ele><time>2026-04-22T08:13:18.693Z</time></trkpt><trkpt lat="40.0728168" lon="9.5984607"><ele>484.0</ele><time>2026-04-22T08:13:20.689Z</time></trkpt><trkpt lat="40.0728119" lon="9.5985645"><ele>484.00000000000006</ele><time>2026-04-22T08:13:22.69Z</time></trkpt><trkpt lat="40.0728687" lon="9.5986024"><ele>484.0</ele><time>2026-04-22T08:13:24.688Z</time></trkpt><trkpt lat="40.0729347" lon="9.5985549"><ele>484.0</ele><time>2026-04-22T08:13:26.69Z</time></trkpt><trkpt lat="40.0729871" lon="9.5984868"><ele>484.0</ele><time>2026-04-22T08:13:28.686Z</time></trkpt><trkpt lat="40.0730849" lon="9.598453"><ele>484.0</ele><time>2026-04-22T08:13:30.686Z</time></trkpt><trkpt lat="40.0731907" lon="9.5984344"><ele>484.0</ele><time>2026-04-22T08:13:32.687Z</time></trkpt><trkpt lat="40.0732818" lon="9.5984176"><ele>484.0</ele><time>2026-04-22T08:13:34.682Z</time></trkpt><trkpt lat="40.073372" lon="9.598354"><ele>480.50000000000006</ele><time>2026-04-22T08:13:36.692Z</time></trkpt><trkpt lat="40.0734745" lon="9.5982554"><ele>477.0</ele><time>2026-04-22T08:13:38.688Z</time></trkpt><trkpt lat="40.0735261" lon="9.5982016"><ele>473.5</ele><time>2026-04-22T08:13:39.682Z</time></trkpt><trkpt lat="40.0735893" lon="9.598148"><ele>470.0</ele><time>2026-04-22T08:13:40.683Z</time></trkpt><trkpt lat="40.0736599" lon="9.5981134"><ele>466.50000000000006</ele><time>2026-04-22T08:13:41.69Z</time></trkpt><trkpt lat="40.0737363" lon="9.5980897"><ele>463.0</ele><time>2026-04-22T08:13:42.689Z</time></trkpt><trkpt lat="40.0738028" lon="9.5980612"><ele>463.0</ele><time>2026-04-22T08:13:43.704Z</time></trkpt><trkpt lat="40.0738666" lon="9.5980056"><ele>462.99999999999994</ele><time>2026-04-22T08:13:44.689Z</time></trkpt><trkpt lat="40.0739227" lon="9.597951"><ele>462.99999999999994</ele><time>2026-04-22T08:13:45.695Z</time></trkpt><trkpt lat="40.0740086" lon="9.5978584"><ele>463.0</ele><time>2026-04-22T08:13:47.695Z</time></trkpt><trkpt lat="40.0741019" lon="9.5977281"><ele>463.0</ele><time>2026-04-22T08:13:49.697Z</time></trkpt><trkpt lat="40.0741597" lon="9.5976516"><ele>463.6666666666667</ele><time>2026-04-22T08:13:50.697Z</time></trkpt><trkpt lat="40.0742237" lon="9.5975753"><ele>464.33333333333337</ele><time>2026-04-22T08:13:51.701Z</time></trkpt><trkpt lat="40.0742922" lon="9.5975011"><ele>465.0</ele><time>2026-04-22T08:13:52.701Z</time></trkpt><trkpt lat="40.0743581" lon="9.5974394"><ele>465.66666666666663</ele><time>2026-04-22T08:13:53.699Z</time></trkpt><trkpt lat="40.0744193" lon="9.5973745"><ele>466.3333333333333</ele><time>2026-04-22T08:13:54.703Z</time></trkpt><trkpt lat="40.0744736" lon="9.5973135"><ele>467.0</ele><time>2026-04-22T08:13:55.696Z</time></trkpt><trkpt lat="40.0745266" lon="9.5972472"><ele>466.99999999999994</ele><time>2026-04-22T08:13:56.699Z</time></trkpt><trkpt lat="40.0745821" lon="9.5971822"><ele>467.0</ele><time>2026-04-22T08:13:57.709Z</time></trkpt><trkpt lat="40.0746417" lon="9.5971248"><ele>467.0</ele><time>2026-04-22T08:13:58.7Z</time></trkpt><trkpt lat="40.0747038" lon="9.5970639"><ele>467.0</ele><time>2026-04-22T08:13:59.697Z</time></trkpt><trkpt lat="40.0747669" lon="9.5969983"><ele>466.99999999999994</ele><time>2026-04-22T08:14:00.694Z</time></trkpt><trkpt lat="40.0748249" lon="9.5969321"><ele>467.0</ele><time>2026-04-22T08:14:01.698Z</time></trkpt><trkpt lat="40.0748823" lon="9.5968561"><ele>470.8333333333333</ele><time>2026-04-22T08:14:02.698Z</time></trkpt><trkpt lat="40.0749421" lon="9.596772"><ele>474.66666666666663</ele><time>2026-04-22T08:14:03.697Z</time></trkpt><trkpt lat="40.0749988" lon="9.5966869"><ele>478.5</ele><time>2026-04-22T08:14:04.697Z</time></trkpt><trkpt lat="40.0750448" lon="9.5966052"><ele>482.33333333333337</ele><time>2026-04-22T08:14:05.693Z</time></trkpt><trkpt lat="40.0750854" lon="9.5965247"><ele>486.1666666666667</ele><time>2026-04-22T08:14:06.693Z</time></trkpt><trkpt lat="40.0751305" lon="9.5964375"><ele>490.0</ele><time>2026-04-22T08:14:07.693Z</time></trkpt><trkpt lat="40.0751763" lon="9.5963434"><ele>490.00000000000006</ele><time>2026-04-22T08:14:08.693Z</time></trkpt><trkpt lat="40.0752082" lon="9.5962535"><ele>490.0</ele><time>2026-04-22T08:14:09.691Z</time></trkpt><trkpt lat="40.0752377" lon="9.5961438"><ele>490.0</ele><time>2026-04-22T08:14:11.688Z</time></trkpt><trkpt lat="40.075315" lon="9.5961161"><ele>490.0</ele><time>2026-04-22T08:14:13.705Z</time></trkpt><trkpt lat="40.0753994" lon="9.5961901"><ele>490.00000000000006</ele><time>2026-04-22T08:14:15.697Z</time></trkpt><trkpt lat="40.0754422" lon="9.5962517"><ele>490.0</ele><time>2026-04-22T08:14:16.698Z</time></trkpt><trkpt lat="40.0754982" lon="9.596315"><ele>490.00000000000006</ele><time>2026-04-22T08:14:17.694Z</time></trkpt><trkpt lat="40.0755679" lon="9.596356"><ele>490.0</ele><time>2026-04-22T08:14:18.687Z</time></trkpt><trkpt lat="40.0756438" lon="9.5963849"><ele>490.0</ele><time>2026-04-22T08:14:19.69Z</time></trkpt><trkpt lat="40.0757175" lon="9.5964081"><ele>490.0</ele><time>2026-04-22T08:14:20.692Z</time></trkpt><trkpt lat="40.0757826" lon="9.596435"><ele>490.00000000000006</ele><time>2026-04-22T08:14:21.699Z</time></trkpt><trkpt lat="40.0758442" lon="9.5964556"><ele>490.0</ele><time>2026-04-22T08:14:22.692Z</time></trkpt><trkpt lat="40.0759445" lon="9.5965012"><ele>495.00000000000006</ele><time>2026-04-22T08:14:24.68Z</time></trkpt><trkpt lat="40.0760631" lon="9.5965387"><ele>500.0</ele><time>2026-04-22T08:14:26.693Z</time></trkpt><trkpt lat="40.0761295" lon="9.5965552"><ele>505.0</ele><time>2026-04-22T08:14:27.691Z</time></trkpt><trkpt lat="40.0761989" lon="9.5965745"><ele>510.0</ele><time>2026-04-22T08:14:28.687Z</time></trkpt><trkpt lat="40.0762719" lon="9.5965975"><ele>515.0</ele><time>2026-04-22T08:14:29.692Z</time></trkpt><trkpt lat="40.0763415" lon="9.5966222"><ele>520.0</ele><time>2026-04-22T08:14:30.687Z</time></trkpt><trkpt lat="40.0764051" lon="9.5966377"><ele>520.0</ele><time>2026-04-22T08:14:31.686Z</time></trkpt><trkpt lat="40.0765132" lon="9.596652"><ele>520.0</ele><time>2026-04-22T08:14:33.688Z</time></trkpt><trkpt lat="40.076633" lon="9.5966621"><ele>520.0</ele><time>2026-04-22T08:14:35.69Z</time></trkpt><trkpt lat="40.0767014" lon="9.5966982"><ele>520.0</ele><time>2026-04-22T08:14:36.691Z</time></trkpt><trkpt lat="40.0767706" lon="9.5967305"><ele>520.0</ele><time>2026-04-22T08:14:37.69Z</time></trkpt><trkpt lat="40.0768623" lon="9.5967985"><ele>521.6666666666667</ele><time>2026-04-22T08:14:39.696Z</time></trkpt><trkpt lat="40.0769292" lon="9.5968791"><ele>523.3333333333334</ele><time>2026-04-22T08:14:41.699Z</time></trkpt><trkpt lat="40.0770237" lon="9.5969053"><ele>525.0</ele><time>2026-04-22T08:14:43.697Z</time></trkpt><trkpt lat="40.0771431" lon="9.5968837"><ele>526.6666666666666</ele><time>2026-04-22T08:14:45.69Z</time></trkpt><trkpt lat="40.0772041" lon="9.5968578"><ele>528.3333333333333</ele><time>2026-04-22T08:14:46.698Z</time></trkpt><trkpt lat="40.0772652" lon="9.5968309"><ele>530.0</ele><time>2026-04-22T08:14:47.695Z</time></trkpt><trkpt lat="40.077333" lon="9.596805"><ele>529.9999999999999</ele><time>2026-04-22T08:14:48.695Z</time></trkpt><trkpt lat="40.0774016" lon="9.5967769"><ele>530.0</ele><time>2026-04-22T08:14:49.695Z</time></trkpt><trkpt lat="40.0774737" lon="9.5967426"><ele>530.0</ele><time>2026-04-22T08:14:50.694Z</time></trkpt><trkpt lat="40.0775443" lon="9.5967001"><ele>530.0</ele><time>2026-04-22T08:14:51.7Z</time></trkpt><trkpt lat="40.0776072" lon="9.5966635"><ele>530.0</ele><time>2026-04-22T08:14:52.694Z</time></trkpt><trkpt lat="40.0776725" lon="9.5966238"><ele>529.9999999999999</ele><time>2026-04-22T08:14:53.702Z</time></trkpt><trkpt lat="40.0777368" lon="9.5965814"><ele>530.0</ele><time>2026-04-22T08:14:54.701Z</time></trkpt><trkpt lat="40.0778083" lon="9.5965243"><ele>532.3333333333333</ele><time>2026-04-22T08:14:55.702Z</time></trkpt><trkpt lat="40.0778716" lon="9.596471"><ele>534.6666666666666</ele><time>2026-04-22T08:14:56.701Z</time></trkpt><trkpt lat="40.0779511" lon="9.5964315"><ele>537.0</ele><time>2026-04-22T08:14:58.692Z</time></trkpt><trkpt lat="40.0780679" lon="9.5964991"><ele>539.3333333333334</ele><time>2026-04-22T08:15:00.689Z</time></trkpt><trkpt lat="40.0781256" lon="9.596552"><ele>541.6666666666667</ele><time>2026-04-22T08:15:01.689Z</time></trkpt><trkpt lat="40.0781789" lon="9.5966133"><ele>544.0</ele><time>2026-04-22T08:15:02.685Z</time></trkpt><trkpt lat="40.0782445" lon="9.5966661"><ele>545.7142857142857</ele><time>2026-04-22T08:15:03.683Z</time></trkpt><trkpt lat="40.0783126" lon="9.5967007"><ele>547.4285714285714</ele><time>2026-04-22T08:15:04.689Z</time></trkpt><trkpt lat="40.0783702" lon="9.5967381"><ele>549.1428571428571</ele><time>2026-04-22T08:15:05.688Z</time></trkpt><trkpt lat="40.0784394" lon="9.5967657"><ele>550.8571428571429</ele><time>2026-04-22T08:15:06.686Z</time></trkpt><trkpt lat="40.0785099" lon="9.5967935"><ele>552.5714285714286</ele><time>2026-04-22T08:15:07.691Z</time></trkpt><trkpt lat="40.0785767" lon="9.5968117"><ele>554.2857142857142</ele><time>2026-04-22T08:15:08.683Z</time></trkpt><trkpt lat="40.0786454" lon="9.5968261"><ele>556.0</ele><time>2026-04-22T08:15:09.687Z</time></trkpt><trkpt lat="40.0787094" lon="9.5968324"><ele>556.0</ele><time>2026-04-22T08:15:10.684Z</time></trkpt><trkpt lat="40.0788174" lon="9.5968275"><ele>556.0</ele><time>2026-04-22T08:15:12.686Z</time></trkpt><trkpt lat="40.0788774" lon="9.5968012"><ele>556.0</ele><time>2026-04-22T08:15:13.693Z</time></trkpt><trkpt lat="40.0789892" lon="9.5967384"><ele>556.0</ele><time>2026-04-22T08:15:15.693Z</time></trkpt><trkpt lat="40.0790777" lon="9.5966865"><ele>556.0</ele><time>2026-04-22T08:15:17.691Z</time></trkpt><trkpt lat="40.0791626" lon="9.5966097"><ele>556.8</ele><time>2026-04-22T08:15:19.694Z</time></trkpt><trkpt lat="40.0792415" lon="9.5965506"><ele>557.6</ele><time>2026-04-22T08:15:21.708Z</time></trkpt><trkpt lat="40.0793251" lon="9.5964843"><ele>558.4</ele><time>2026-04-22T08:15:23.698Z</time></trkpt><trkpt lat="40.0794301" lon="9.5964057"><ele>559.2</ele><time>2026-04-22T08:15:25.698Z</time></trkpt><trkpt lat="40.0795376" lon="9.5963445"><ele>560.0</ele><time>2026-04-22T08:15:27.693Z</time></trkpt><trkpt lat="40.0796398" lon="9.5963309"><ele>560.0</ele><time>2026-04-22T08:15:29.696Z</time></trkpt><trkpt lat="40.0797274" lon="9.5963207"><ele>560.0</ele><time>2026-04-22T08:15:31.712Z</time></trkpt><trkpt lat="40.0798184" lon="9.5963137"><ele>560.0</ele><time>2026-04-22T08:15:33.692Z</time></trkpt><trkpt lat="40.0799079" lon="9.5963483"><ele>560.0</ele><time>2026-04-22T08:15:35.693Z</time></trkpt><trkpt lat="40.0799697" lon="9.5963672"><ele>560.0</ele><time>2026-04-22T08:15:36.688Z</time></trkpt><trkpt lat="40.0800808" lon="9.5963607"><ele>560.0</ele><time>2026-04-22T08:15:38.694Z</time></trkpt><trkpt lat="40.0801857" lon="9.5963599"><ele>561.0</ele><time>2026-04-22T08:15:40.688Z</time></trkpt><trkpt lat="40.0802833" lon="9.5963744"><ele>562.0</ele><time>2026-04-22T08:15:42.688Z</time></trkpt><trkpt lat="40.0803841" lon="9.5963225"><ele>563.0</ele><time>2026-04-22T08:15:44.683Z</time></trkpt><trkpt lat="40.0804645" lon="9.5962204"><ele>564.0</ele><time>2026-04-22T08:15:46.687Z</time></trkpt><trkpt lat="40.0805531" lon="9.5961249"><ele>565.0</ele><time>2026-04-22T08:15:48.69Z</time></trkpt><trkpt lat="40.0806333" lon="9.5960095"><ele>556.2</ele><time>2026-04-22T08:15:50.686Z</time></trkpt><trkpt lat="40.0806973" lon="9.5959218"><ele>547.4</ele><time>2026-04-22T08:15:52.685Z</time></trkpt><trkpt lat="40.0807291" lon="9.595802"><ele>538.6</ele><time>2026-04-22T08:15:54.692Z</time></trkpt><trkpt lat="40.0807256" lon="9.5956615"><ele>529.8</ele><time>2026-04-22T08:15:56.695Z</time></trkpt><trkpt lat="40.0807193" lon="9.5955209"><ele>521.0</ele><time>2026-04-22T08:15:58.691Z</time></trkpt><trkpt lat="40.0807223" lon="9.5953841"><ele>520.25</ele><time>2026-04-22T08:16:00.686Z</time></trkpt><trkpt lat="40.0808001" lon="9.595264"><ele>519.5</ele><time>2026-04-22T08:16:02.684Z</time></trkpt><trkpt lat="40.0808915" lon="9.5951851"><ele>518.75</ele><time>2026-04-22T08:16:04.693Z</time></trkpt><trkpt lat="40.0809878" lon="9.5951848"><ele>518.0</ele><time>2026-04-22T08:16:06.694Z</time></trkpt><trkpt lat="40.0811087" lon="9.5952197"><ele>518.0</ele><time>2026-04-22T08:16:08.688Z</time></trkpt><trkpt lat="40.08117" lon="9.5952525"><ele>518.0</ele><time>2026-04-22T08:16:09.693Z</time></trkpt><trkpt lat="40.0812272" lon="9.5952897"><ele>518.0</ele><time>2026-04-22T08:16:10.692Z</time></trkpt><trkpt lat="40.0813064" lon="9.5953798"><ele>518.0</ele><time>2026-04-22T08:16:12.687Z</time></trkpt><trkpt lat="40.0813812" lon="9.5954377"><ele>518.0</ele><time>2026-04-22T08:16:14.69Z</time></trkpt><trkpt lat="40.0814662" lon="9.5954808"><ele>518.0</ele><time>2026-04-22T08:16:16.691Z</time></trkpt><trkpt lat="40.0815466" lon="9.5955603"><ele>517.6</ele><time>2026-04-22T08:16:18.686Z</time></trkpt><trkpt lat="40.0816114" lon="9.5956796"><ele>517.1999999999999</ele><time>2026-04-22T08:16:20.694Z</time></trkpt><trkpt lat="40.0816534" lon="9.5958124"><ele>516.8</ele><time>2026-04-22T08:16:22.686Z</time></trkpt><trkpt lat="40.0816875" lon="9.5959184"><ele>516.4</ele><time>2026-04-22T08:16:24.694Z</time></trkpt><trkpt lat="40.0817396" lon="9.596011"><ele>516.0</ele><time>2026-04-22T08:16:26.698Z</time></trkpt><trkpt lat="40.0817766" lon="9.5960791"><ele>518.0</ele><time>2026-04-22T08:16:28.69Z</time></trkpt><trkpt lat="40.0818039" lon="9.5961917"><ele>520.0</ele><time>2026-04-22T08:16:30.685Z</time></trkpt><trkpt lat="40.0818125" lon="9.5963222"><ele>522.0</ele><time>2026-04-22T08:16:32.69Z</time></trkpt><trkpt lat="40.0818703" lon="9.5964313"><ele>524.0</ele><time>2026-04-22T08:16:34.685Z</time></trkpt><trkpt lat="40.0819482" lon="9.5965347"><ele>526.0</ele><time>2026-04-22T08:16:36.682Z</time></trkpt><trkpt lat="40.0820202" lon="9.5966304"><ele>526.0</ele><time>2026-04-22T08:16:38.688Z</time></trkpt><trkpt lat="40.0820566" lon="9.596743"><ele>526.0</ele><time>2026-04-22T08:16:40.683Z</time></trkpt><trkpt lat="40.0820469" lon="9.5969116"><ele>526.0</ele><time>2026-04-22T08:16:42.686Z</time></trkpt><trkpt lat="40.0820676" lon="9.5970511"><ele>526.0</ele><time>2026-04-22T08:16:44.684Z</time></trkpt><trkpt lat="40.082135" lon="9.5971665"><ele>526.0</ele><time>2026-04-22T08:16:46.682Z</time></trkpt><trkpt lat="40.0821864" lon="9.5972247"><ele>528.3333333333334</ele><time>2026-04-22T08:16:47.678Z</time></trkpt><trkpt lat="40.0822314" lon="9.5972885"><ele>530.6666666666667</ele><time>2026-04-22T08:16:48.673Z</time></trkpt><trkpt lat="40.0823167" lon="9.597378"><ele>533.0</ele><time>2026-04-22T08:16:50.676Z</time></trkpt><trkpt lat="40.082405" lon="9.5973911"><ele>535.3333333333334</ele><time>2026-04-22T08:16:52.679Z</time></trkpt><trkpt lat="40.0824838" lon="9.5973749"><ele>537.6666666666666</ele><time>2026-04-22T08:16:54.684Z</time></trkpt><trkpt lat="40.0825457" lon="9.597351"><ele>540.0</ele><time>2026-04-22T08:17:20.636Z</time></trkpt><trkpt lat="40.0826646" lon="9.5973427"><ele>532.4</ele><time>2026-04-22T08:17:22.701Z</time></trkpt><trkpt lat="40.0827926" lon="9.5973577"><ele>524.8</ele><time>2026-04-22T08:17:23.682Z</time></trkpt><trkpt lat="40.0828697" lon="9.5974026"><ele>517.2</ele><time>2026-04-22T08:17:24.687Z</time></trkpt><trkpt lat="40.082931" lon="9.5975218"><ele>509.6</ele><time>2026-04-22T08:17:26.687Z</time></trkpt><trkpt lat="40.0829167" lon="9.5976635"><ele>502.0</ele><time>2026-04-22T08:17:28.69Z</time></trkpt><trkpt lat="40.082891" lon="9.5977395"><ele>505.33333333333337</ele><time>2026-04-22T08:17:29.688Z</time></trkpt><trkpt lat="40.0828621" lon="9.5978896"><ele>508.6666666666667</ele><time>2026-04-22T08:17:31.692Z</time></trkpt><trkpt lat="40.0828629" lon="9.5979756"><ele>512.0</ele><time>2026-04-22T08:17:32.699Z</time></trkpt><trkpt lat="40.0828649" lon="9.5980591"><ele>515.3333333333334</ele><time>2026-04-22T08:17:33.693Z</time></trkpt><trkpt lat="40.0828867" lon="9.5981999"><ele>518.6666666666666</ele><time>2026-04-22T08:17:35.688Z</time></trkpt><trkpt lat="40.08292" lon="9.5982955"><ele>522.0</ele><time>2026-04-22T08:17:37.688Z</time></trkpt><trkpt lat="40.0829873" lon="9.5983495"><ele>522.0</ele><time>2026-04-22T08:17:39.69Z</time></trkpt><trkpt lat="40.0830727" lon="9.5984037"><ele>522.0</ele><time>2026-04-22T08:17:41.68Z</time></trkpt><trkpt lat="40.0831452" lon="9.5984586"><ele>522.0</ele><time>2026-04-22T08:17:43.691Z</time></trkpt><trkpt lat="40.0832308" lon="9.5984442"><ele>522.0</ele><time>2026-04-22T08:17:45.68Z</time></trkpt><trkpt lat="40.0833208" lon="9.5983899"><ele>522.0</ele><time>2026-04-22T08:17:47.683Z</time></trkpt><trkpt lat="40.0834026" lon="9.5983742"><ele>522.0</ele><time>2026-04-22T08:17:49.687Z</time></trkpt><trkpt lat="40.0835081" lon="9.5983967"><ele>517.4</ele><time>2026-04-22T08:17:51.685Z</time></trkpt><trkpt lat="40.0836284" lon="9.5984023"><ele>512.8000000000001</ele><time>2026-04-22T08:17:53.682Z</time></trkpt><trkpt lat="40.0837372" lon="9.5983465"><ele>508.2</ele><time>2026-04-22T08:17:55.685Z</time></trkpt><trkpt lat="40.083824" lon="9.5982363"><ele>503.6</ele><time>2026-04-22T08:17:57.685Z</time></trkpt><trkpt lat="40.0838626" lon="9.598169"><ele>499.0</ele><time>2026-04-22T08:17:58.678Z</time></trkpt><trkpt lat="40.0839287" lon="9.598067"><ele>499.0</ele><time>2026-04-22T08:18:00.687Z</time></trkpt><trkpt lat="40.0840308" lon="9.5979969"><ele>499.0</ele><time>2026-04-22T08:18:02.685Z</time></trkpt><trkpt lat="40.0841298" lon="9.597945"><ele>499.0</ele><time>2026-04-22T08:18:04.685Z</time></trkpt><trkpt lat="40.0842368" lon="9.5979003"><ele>499.0</ele><time>2026-04-22T08:18:06.698Z</time></trkpt><trkpt lat="40.0843015" lon="9.5978911"><ele>499.0</ele><time>2026-04-22T08:18:07.685Z</time></trkpt><trkpt lat="40.0843668" lon="9.5979035"><ele>498.0</ele><time>2026-04-22T08:18:08.683Z</time></trkpt><trkpt lat="40.0844667" lon="9.5979877"><ele>497.0</ele><time>2026-04-22T08:18:10.681Z</time></trkpt><trkpt lat="40.0845268" lon="9.5981055"><ele>496.0</ele><time>2026-04-22T08:18:12.693Z</time></trkpt><trkpt lat="40.0845955" lon="9.59821"><ele>495.0</ele><time>2026-04-22T08:18:14.679Z</time></trkpt><trkpt lat="40.0846607" lon="9.5982515"><ele>494.0</ele><time>2026-04-22T08:18:16.684Z</time></trkpt><trkpt lat="40.0847466" lon="9.5982928"><ele>494.0</ele><time>2026-04-22T08:18:18.684Z</time></trkpt><trkpt lat="40.0848151" lon="9.5984115"><ele>494.0</ele><time>2026-04-22T08:18:20.679Z</time></trkpt><trkpt lat="40.0848307" lon="9.5985227"><ele>494.0</ele><time>2026-04-22T08:18:22.681Z</time></trkpt><trkpt lat="40.0848899" lon="9.5985846"><ele>494.0</ele><time>2026-04-22T08:18:24.683Z</time></trkpt><trkpt lat="40.0849851" lon="9.5985791"><ele>494.0</ele><time>2026-04-22T08:18:26.682Z</time></trkpt><trkpt lat="40.0850955" lon="9.5985366"><ele>492.49999999999994</ele><time>2026-04-22T08:18:28.681Z</time></trkpt><trkpt lat="40.0851648" lon="9.5984347"><ele>491.0</ele><time>2026-04-22T08:18:30.686Z</time></trkpt><trkpt lat="40.085215" lon="9.5983325"><ele>489.5</ele><time>2026-04-22T08:18:32.688Z</time></trkpt><trkpt lat="40.0852818" lon="9.5982912"><ele>488.0</ele><time>2026-04-22T08:18:34.678Z</time></trkpt><trkpt lat="40.0853537" lon="9.5982232"><ele>486.49999999999994</ele><time>2026-04-22T08:18:36.678Z</time></trkpt><trkpt lat="40.0854069" lon="9.5981379"><ele>485.0</ele><time>2026-04-22T08:18:38.685Z</time></trkpt><trkpt lat="40.0854081" lon="9.598034"><ele>485.0</ele><time>2026-04-22T08:18:40.686Z</time></trkpt><trkpt lat="40.085357" lon="9.5979235"><ele>485.0</ele><time>2026-04-22T08:18:42.678Z</time></trkpt><trkpt lat="40.0852741" lon="9.5978707"><ele>485.0</ele><time>2026-04-22T08:18:44.677Z</time></trkpt><trkpt lat="40.0851858" lon="9.5978253"><ele>485.0</ele><time>2026-04-22T08:18:46.682Z</time></trkpt><trkpt lat="40.0851174" lon="9.5977357"><ele>485.0</ele><time>2026-04-22T08:18:48.677Z</time></trkpt><trkpt lat="40.0850913" lon="9.5975994"><ele>481.75</ele><time>2026-04-22T08:18:50.684Z</time></trkpt><trkpt lat="40.0851033" lon="9.5974547"><ele>478.5</ele><time>2026-04-22T08:18:52.681Z</time></trkpt><trkpt lat="40.085139" lon="9.5972947"><ele>475.25</ele><time>2026-04-22T08:18:54.682Z</time></trkpt><trkpt lat="40.0851574" lon="9.5971488"><ele>472.0</ele><time>2026-04-22T08:18:56.691Z</time></trkpt><trkpt lat="40.085135" lon="9.5970233"><ele>472.33333333333337</ele><time>2026-04-22T08:18:58.686Z</time></trkpt><trkpt lat="40.0850685" lon="9.5968918"><ele>472.6666666666667</ele><time>2026-04-22T08:19:00.686Z</time></trkpt><trkpt lat="40.0850302" lon="9.5968217"><ele>473.0</ele><time>2026-04-22T08:19:01.679Z</time></trkpt><trkpt lat="40.0849964" lon="9.5967394"><ele>473.33333333333337</ele><time>2026-04-22T08:19:02.694Z</time></trkpt><trkpt lat="40.0849682" lon="9.5966642"><ele>473.6666666666667</ele><time>2026-04-22T08:19:03.689Z</time></trkpt><trkpt lat="40.0849448" lon="9.5965857"><ele>474.0</ele><time>2026-04-22T08:19:04.686Z</time></trkpt><trkpt lat="40.0848797" lon="9.5964575"><ele>468.0</ele><time>2026-04-22T08:19:06.685Z</time></trkpt><trkpt lat="40.0848228" lon="9.5963105"><ele>462.0</ele><time>2026-04-22T08:19:08.679Z</time></trkpt><trkpt lat="40.0848111" lon="9.5962174"><ele>456.0</ele><time>2026-04-22T08:19:09.682Z</time></trkpt><trkpt lat="40.0848104" lon="9.5961156"><ele>450.0</ele><time>2026-04-22T08:19:10.688Z</time></trkpt><trkpt lat="40.0848165" lon="9.5960304"><ele>444.0</ele><time>2026-04-22T08:19:11.688Z</time></trkpt><trkpt lat="40.0848462" lon="9.5958853"><ele>442.25</ele><time>2026-04-22T08:19:13.69Z</time></trkpt><trkpt lat="40.0849265" lon="9.5957738"><ele>440.5</ele><time>2026-04-22T08:19:15.685Z</time></trkpt><trkpt lat="40.0850238" lon="9.5956665"><ele>438.75</ele><time>2026-04-22T08:19:17.692Z</time></trkpt><trkpt lat="40.0851076" lon="9.5955396"><ele>437.0</ele><time>2026-04-22T08:19:19.69Z</time></trkpt><trkpt lat="40.0851701" lon="9.595431"><ele>441.0</ele><time>2026-04-22T08:19:21.689Z</time></trkpt><trkpt lat="40.0852268" lon="9.5953409"><ele>445.00000000000006</ele><time>2026-04-22T08:19:23.689Z</time></trkpt><trkpt lat="40.0852374" lon="9.5952397"><ele>449.00000000000006</ele><time>2026-04-22T08:19:25.694Z</time></trkpt><trkpt lat="40.0851931" lon="9.5951113"><ele>453.0</ele><time>2026-04-22T08:19:27.69Z</time></trkpt><trkpt lat="40.0851716" lon="9.5949884"><ele>457.0</ele><time>2026-04-22T08:19:29.691Z</time></trkpt><trkpt lat="40.0852231" lon="9.5948923"><ele>457.00000000000006</ele><time>2026-04-22T08:19:31.691Z</time></trkpt><trkpt lat="40.0852993" lon="9.5947554"><ele>457.0</ele><time>2026-04-22T08:19:33.692Z</time></trkpt><trkpt lat="40.0853142" lon="9.5946738"><ele>457.0</ele><time>2026-04-22T08:19:34.683Z</time></trkpt><trkpt lat="40.0853302" lon="9.5945936"><ele>457.0</ele><time>2026-04-22T08:19:35.687Z</time></trkpt><trkpt lat="40.0853492" lon="9.5945109"><ele>457.00000000000006</ele><time>2026-04-22T08:19:36.692Z</time></trkpt><trkpt lat="40.0853759" lon="9.5944329"><ele>457.0</ele><time>2026-04-22T08:19:37.687Z</time></trkpt><trkpt lat="40.0854629" lon="9.5943367"><ele>457.1666666666667</ele><time>2026-04-22T08:19:39.696Z</time></trkpt><trkpt lat="40.0855544" lon="9.5942826"><ele>457.33333333333337</ele><time>2026-04-22T08:19:41.69Z</time></trkpt><trkpt lat="40.0856329" lon="9.5943207"><ele>457.5</ele><time>2026-04-22T08:19:43.69Z</time></trkpt><trkpt lat="40.0857038" lon="9.5944183"><ele>457.66666666666663</ele><time>2026-04-22T08:19:45.69Z</time></trkpt><trkpt lat="40.0857621" lon="9.5944723"><ele>457.8333333333333</ele><time>2026-04-22T08:19:47.686Z</time></trkpt><trkpt lat="40.085833" lon="9.5944067"><ele>458.0</ele><time>2026-04-22T08:19:49.686Z</time></trkpt><trkpt lat="40.0859415" lon="9.5943294"><ele>458.0</ele><time>2026-04-22T08:19:51.681Z</time></trkpt><trkpt lat="40.0860302" lon="9.59424"><ele>458.0</ele><time>2026-04-22T08:19:53.684Z</time></trkpt><trkpt lat="40.0860788" lon="9.5941056"><ele>458.0</ele><time>2026-04-22T08:19:55.686Z</time></trkpt><trkpt lat="40.0861005" lon="9.5939499"><ele>458.0</ele><time>2026-04-22T08:19:57.685Z</time></trkpt><trkpt lat="40.0861258" lon="9.5938059"><ele>457.99999999999994</ele><time>2026-04-22T08:19:59.688Z</time></trkpt><trkpt lat="40.0861657" lon="9.5937023"><ele>458.0</ele><time>2026-04-22T08:20:01.687Z</time></trkpt><trkpt lat="40.0862583" lon="9.5937197"><ele>458.0</ele><time>2026-04-22T08:20:04.686Z</time></trkpt><trkpt lat="40.086298" lon="9.5937863"><ele>458.0</ele><time>2026-04-22T08:20:05.688Z</time></trkpt><trkpt lat="40.0863324" lon="9.5938622"><ele>457.99999999999994</ele><time>2026-04-22T08:20:06.679Z</time></trkpt><trkpt lat="40.0863704" lon="9.5939437"><ele>458.0</ele><time>2026-04-22T08:20:07.683Z</time></trkpt><trkpt lat="40.0864086" lon="9.5940259"><ele>458.0</ele><time>2026-04-22T08:20:08.688Z</time></trkpt><trkpt lat="40.086439" lon="9.5941135"><ele>458.0</ele><time>2026-04-22T08:20:09.677Z</time></trkpt><trkpt lat="40.086461" lon="9.5942034"><ele>458.0</ele><time>2026-04-22T08:20:10.677Z</time></trkpt><trkpt lat="40.0864904" lon="9.5942914"><ele>458.0</ele><time>2026-04-22T08:20:11.681Z</time></trkpt><trkpt lat="40.0865152" lon="9.5943808"><ele>458.0</ele><time>2026-04-22T08:20:12.681Z</time></trkpt><trkpt lat="40.0865372" lon="9.5944633"><ele>458.0</ele><time>2026-04-22T08:20:13.684Z</time></trkpt><trkpt lat="40.0865471" lon="9.5945565"><ele>458.0</ele><time>2026-04-22T08:20:14.68Z</time></trkpt><trkpt lat="40.0865616" lon="9.5946421"><ele>460.16666666666663</ele><time>2026-04-22T08:20:15.682Z</time></trkpt><trkpt lat="40.0865712" lon="9.5947351"><ele>462.3333333333333</ele><time>2026-04-22T08:20:16.678Z</time></trkpt><trkpt lat="40.0865855" lon="9.5948193"><ele>464.5</ele><time>2026-04-22T08:20:17.68Z</time></trkpt><trkpt lat="40.0866251" lon="9.5949754"><ele>466.66666666666663</ele><time>2026-04-22T08:20:19.672Z</time></trkpt><trkpt lat="40.0866579" lon="9.5950525"><ele>468.8333333333333</ele><time>2026-04-22T08:20:20.677Z</time></trkpt><trkpt lat="40.0866944" lon="9.5951261"><ele>471.0</ele><time>2026-04-22T08:20:21.678Z</time></trkpt><trkpt lat="40.086725" lon="9.5952009"><ele>471.0</ele><time>2026-04-22T08:20:22.677Z</time></trkpt><trkpt lat="40.0867516" lon="9.5952792"><ele>471.0</ele><time>2026-04-22T08:20:23.673Z</time></trkpt><trkpt lat="40.0868462" lon="9.5954026"><ele>471.0</ele><time>2026-04-22T08:20:25.671Z</time></trkpt><trkpt lat="40.0869021" lon="9.5954659"><ele>471.0</ele><time>2026-04-22T08:20:26.673Z</time></trkpt><trkpt lat="40.0869828" lon="9.5955998"><ele>471.0</ele><time>2026-04-22T08:20:28.67Z</time></trkpt><trkpt lat="40.0870691" lon="9.5957294"><ele>474.6666666666667</ele><time>2026-04-22T08:20:30.673Z</time></trkpt><trkpt lat="40.0871182" lon="9.595783"><ele>478.33333333333337</ele><time>2026-04-22T08:20:31.674Z</time></trkpt><trkpt lat="40.0871805" lon="9.5958592"><ele>482.0</ele><time>2026-04-22T08:20:33.672Z</time></trkpt><trkpt lat="40.087228" lon="9.5959359"><ele>485.6666666666667</ele><time>2026-04-22T08:20:35.68Z</time></trkpt><trkpt lat="40.0873061" lon="9.5959355"><ele>489.33333333333337</ele><time>2026-04-22T08:20:38.676Z</time></trkpt><trkpt lat="40.0872922" lon="9.595779"><ele>493.0</ele><time>2026-04-22T08:20:41.681Z</time></trkpt><trkpt lat="40.0872614" lon="9.595606"><ele>493.00000000000006</ele><time>2026-04-22T08:20:43.676Z</time></trkpt><trkpt lat="40.0872539" lon="9.5955037"><ele>493.0</ele><time>2026-04-22T08:20:44.678Z</time></trkpt><trkpt lat="40.0872523" lon="9.5954088"><ele>493.0</ele><time>2026-04-22T08:20:45.683Z</time></trkpt><trkpt lat="40.0872568" lon="9.5953091"><ele>493.0</ele><time>2026-04-22T08:20:46.678Z</time></trkpt><trkpt lat="40.0872672" lon="9.5952184"><ele>493.00000000000006</ele><time>2026-04-22T08:20:47.687Z</time></trkpt><trkpt lat="40.0873145" lon="9.5950796"><ele>493.0</ele><time>2026-04-22T08:20:49.685Z</time></trkpt><trkpt lat="40.0873079" lon="9.594953"><ele>491.0</ele><time>2026-04-22T08:20:51.683Z</time></trkpt><trkpt lat="40.0873066" lon="9.5948544"><ele>488.99999999999994</ele><time>2026-04-22T08:20:53.684Z</time></trkpt><trkpt lat="40.0873436" lon="9.5947428"><ele>486.99999999999994</ele><time>2026-04-22T08:20:55.692Z</time></trkpt><trkpt lat="40.0874289" lon="9.5946522"><ele>485.0</ele><time>2026-04-22T08:20:57.688Z</time></trkpt><trkpt lat="40.0875446" lon="9.5946017"><ele>483.0</ele><time>2026-04-22T08:20:59.686Z</time></trkpt><trkpt lat="40.0876158" lon="9.5945053"><ele>480.5</ele><time>2026-04-22T08:21:01.683Z</time></trkpt><trkpt lat="40.0876203" lon="9.5943843"><ele>478.0</ele><time>2026-04-22T08:21:03.695Z</time></trkpt><trkpt lat="40.0876325" lon="9.5942631"><ele>475.5</ele><time>2026-04-22T08:21:05.694Z</time></trkpt><trkpt lat="40.0877054" lon="9.5942168"><ele>473.0</ele><time>2026-04-22T08:21:07.692Z</time></trkpt><trkpt lat="40.087804" lon="9.5942284"><ele>470.5</ele><time>2026-04-22T08:21:09.684Z</time></trkpt><trkpt lat="40.0878681" lon="9.5942525"><ele>468.0</ele><time>2026-04-22T08:21:10.689Z</time></trkpt><trkpt lat="40.0879798" lon="9.594317"><ele>468.0</ele><time>2026-04-22T08:21:12.683Z</time></trkpt><trkpt lat="40.0880698" lon="9.5943966"><ele>467.99999999999994</ele><time>2026-04-22T08:21:14.691Z</time></trkpt><trkpt lat="40.0881337" lon="9.5944956"><ele>467.99999999999994</ele><time>2026-04-22T08:21:16.68Z</time></trkpt><trkpt lat="40.0882348" lon="9.5945474"><ele>468.0</ele><time>2026-04-22T08:21:18.676Z</time></trkpt><trkpt lat="40.0883039" lon="9.5945474"><ele>468.0</ele><time>2026-04-22T08:21:19.682Z</time></trkpt><trkpt lat="40.0883675" lon="9.5945299"><ele>469.4</ele><time>2026-04-22T08:21:20.69Z</time></trkpt><trkpt lat="40.0884359" lon="9.5945007"><ele>470.79999999999995</ele><time>2026-04-22T08:21:21.686Z</time></trkpt><trkpt lat="40.0885439" lon="9.5944775"><ele>472.2</ele><time>2026-04-22T08:21:23.691Z</time></trkpt><trkpt lat="40.0886573" lon="9.5944497"><ele>473.6</ele><time>2026-04-22T08:21:25.692Z</time></trkpt><trkpt lat="40.0887236" lon="9.5944542"><ele>475.0</ele><time>2026-04-22T08:21:26.692Z</time></trkpt><trkpt lat="40.0888455" lon="9.594475"><ele>475.0</ele><time>2026-04-22T08:21:28.693Z</time></trkpt><trkpt lat="40.0889362" lon="9.5944663"><ele>475.0</ele><time>2026-04-22T08:21:30.68Z</time></trkpt><trkpt lat="40.0890238" lon="9.5943962"><ele>475.0</ele><time>2026-04-22T08:21:32.693Z</time></trkpt><trkpt lat="40.0890763" lon="9.5943484"><ele>475.0</ele><time>2026-04-22T08:21:33.691Z</time></trkpt><trkpt lat="40.089192" lon="9.5942627"><ele>475.0</ele><time>2026-04-22T08:21:35.69Z</time></trkpt><trkpt lat="40.0892651" lon="9.5942351"><ele>476.00000000000006</ele><time>2026-04-22T08:21:36.693Z</time></trkpt><trkpt lat="40.0893341" lon="9.5942359"><ele>477.0</ele><time>2026-04-22T08:21:37.693Z</time></trkpt><trkpt lat="40.0894185" lon="9.5942268"><ele>478.0</ele><time>2026-04-22T08:21:38.693Z</time></trkpt><trkpt lat="40.0894995" lon="9.5942202"><ele>479.0</ele><time>2026-04-22T08:21:39.693Z</time></trkpt><trkpt lat="40.0895728" lon="9.5942028"><ele>480.00000000000006</ele><time>2026-04-22T08:21:40.687Z</time></trkpt><trkpt lat="40.0896475" lon="9.5942136"><ele>481.0</ele><time>2026-04-22T08:21:41.69Z</time></trkpt><trkpt lat="40.0897301" lon="9.5942158"><ele>481.0</ele><time>2026-04-22T08:21:42.687Z</time></trkpt><trkpt lat="40.0897928" lon="9.594224"><ele>481.0</ele><time>2026-04-22T08:21:43.688Z</time></trkpt><trkpt lat="40.0899004" lon="9.5942482"><ele>481.0</ele><time>2026-04-22T08:21:45.691Z</time></trkpt><trkpt lat="40.090014" lon="9.5942723"><ele>481.0</ele><time>2026-04-22T08:21:47.683Z</time></trkpt><trkpt lat="40.0901376" lon="9.594224"><ele>481.0</ele><time>2026-04-22T08:21:49.685Z</time></trkpt><trkpt lat="40.0902404" lon="9.5941371"><ele>482.6</ele><time>2026-04-22T08:21:51.685Z</time></trkpt><trkpt lat="40.0902874" lon="9.5940815"><ele>484.20000000000005</ele><time>2026-04-22T08:21:52.686Z</time></trkpt><trkpt lat="40.0903746" lon="9.5939521"><ele>485.79999999999995</ele><time>2026-04-22T08:21:54.688Z</time></trkpt><trkpt lat="40.0904705" lon="9.593873"><ele>487.4</ele><time>2026-04-22T08:21:56.695Z</time></trkpt><trkpt lat="40.0905165" lon="9.5937509"><ele>489.0</ele><time>2026-04-22T08:21:58.684Z</time></trkpt><trkpt lat="40.0905222" lon="9.5936671"><ele>486.1666666666667</ele><time>2026-04-22T08:21:59.689Z</time></trkpt><trkpt lat="40.0905172" lon="9.5935816"><ele>483.33333333333337</ele><time>2026-04-22T08:22:00.691Z</time></trkpt><trkpt lat="40.0904811" lon="9.5934161"><ele>480.5</ele><time>2026-04-22T08:22:02.693Z</time></trkpt><trkpt lat="40.0904616" lon="9.5933167"><ele>477.6666666666667</ele><time>2026-04-22T08:22:03.695Z</time></trkpt><trkpt lat="40.0904595" lon="9.5932155"><ele>474.83333333333337</ele><time>2026-04-22T08:22:04.697Z</time></trkpt><trkpt lat="40.0904639" lon="9.5931295"><ele>472.0</ele><time>2026-04-22T08:22:05.693Z</time></trkpt><trkpt lat="40.0904677" lon="9.5930454"><ele>472.0</ele><time>2026-04-22T08:22:06.696Z</time></trkpt><trkpt lat="40.0904594" lon="9.5928992"><ele>472.00000000000006</ele><time>2026-04-22T08:22:08.691Z</time></trkpt><trkpt lat="40.0904233" lon="9.5927454"><ele>472.00000000000006</ele><time>2026-04-22T08:22:10.69Z</time></trkpt><trkpt lat="40.0903929" lon="9.5926532"><ele>472.0</ele><time>2026-04-22T08:22:11.7Z</time></trkpt><trkpt lat="40.0903587" lon="9.592559"><ele>472.0</ele><time>2026-04-22T08:22:12.692Z</time></trkpt><trkpt lat="40.0903221" lon="9.5924729"><ele>471.8</ele><time>2026-04-22T08:22:13.695Z</time></trkpt><trkpt lat="40.090294" lon="9.5923839"><ele>471.6</ele><time>2026-04-22T08:22:14.693Z</time></trkpt><trkpt lat="40.090258" lon="9.5922381"><ele>471.40000000000003</ele><time>2026-04-22T08:22:16.69Z</time></trkpt><trkpt lat="40.0902849" lon="9.5920677"><ele>471.20000000000005</ele><time>2026-04-22T08:22:18.693Z</time></trkpt><trkpt lat="40.0903183" lon="9.5919775"><ele>471.0</ele><time>2026-04-22T08:22:19.696Z</time></trkpt><trkpt lat="40.0903632" lon="9.5918816"><ele>470.3333333333333</ele><time>2026-04-22T08:22:20.696Z</time></trkpt><trkpt lat="40.0904149" lon="9.5917946"><ele>469.66666666666663</ele><time>2026-04-22T08:22:21.702Z</time></trkpt><trkpt lat="40.0904721" lon="9.5917053"><ele>469.0</ele><time>2026-04-22T08:22:22.701Z</time></trkpt><trkpt lat="40.0905221" lon="9.5916097"><ele>468.3333333333333</ele><time>2026-04-22T08:22:23.7Z</time></trkpt><trkpt lat="40.0905575" lon="9.5915128"><ele>467.66666666666663</ele><time>2026-04-22T08:22:24.698Z</time></trkpt><trkpt lat="40.0905833" lon="9.5914091"><ele>467.0</ele><time>2026-04-22T08:22:25.699Z</time></trkpt><trkpt lat="40.0906143" lon="9.5913087"><ele>466.99999999999994</ele><time>2026-04-22T08:22:26.704Z</time></trkpt><trkpt lat="40.0906373" lon="9.5912048"><ele>467.0</ele><time>2026-04-22T08:22:27.698Z</time></trkpt><trkpt lat="40.0906576" lon="9.59111"><ele>466.99999999999994</ele><time>2026-04-22T08:22:28.698Z</time></trkpt><trkpt lat="40.0906803" lon="9.5910223"><ele>466.99999999999994</ele><time>2026-04-22T08:22:29.701Z</time></trkpt><trkpt lat="40.0907121" lon="9.5909411"><ele>467.0</ele><time>2026-04-22T08:22:30.699Z</time></trkpt><trkpt lat="40.0907461" lon="9.5908665"><ele>466.99999999999994</ele><time>2026-04-22T08:22:31.697Z</time></trkpt><trkpt lat="40.0907714" lon="9.5907897"><ele>466.99999999999994</ele><time>2026-04-22T08:22:32.696Z</time></trkpt><trkpt lat="40.0908465" lon="9.5906544"><ele>466.16666666666663</ele><time>2026-04-22T08:22:34.694Z</time></trkpt><trkpt lat="40.090897" lon="9.5906031"><ele>465.3333333333333</ele><time>2026-04-22T08:22:35.695Z</time></trkpt><trkpt lat="40.0909968" lon="9.5905046"><ele>464.5</ele><time>2026-04-22T08:22:37.696Z</time></trkpt><trkpt lat="40.0910557" lon="9.590444"><ele>463.66666666666663</ele><time>2026-04-22T08:22:38.694Z</time></trkpt><trkpt lat="40.0911108" lon="9.5903898"><ele>462.8333333333333</ele><time>2026-04-22T08:22:39.697Z</time></trkpt><trkpt lat="40.0911739" lon="9.5903554"><ele>462.0</ele><time>2026-04-22T08:22:40.696Z</time></trkpt><trkpt lat="40.0912344" lon="9.5903306"><ele>462.0</ele><time>2026-04-22T08:22:41.695Z</time></trkpt><trkpt lat="40.0913562" lon="9.5903273"><ele>462.0</ele><time>2026-04-22T08:22:43.705Z</time></trkpt><trkpt lat="40.0914227" lon="9.5903313"><ele>462.0</ele><time>2026-04-22T08:22:44.693Z</time></trkpt><trkpt lat="40.0915008" lon="9.5903479"><ele>462.0</ele><time>2026-04-22T08:22:45.702Z</time></trkpt><trkpt lat="40.0915726" lon="9.5903676"><ele>462.0</ele><time>2026-04-22T08:22:46.694Z</time></trkpt><trkpt lat="40.0916421" lon="9.5903986"><ele>462.0</ele><time>2026-04-22T08:22:47.699Z</time></trkpt><trkpt lat="40.0917021" lon="9.5904404"><ele>469.6666666666667</ele><time>2026-04-22T08:22:48.695Z</time></trkpt><trkpt lat="40.0917777" lon="9.5904909"><ele>477.33333333333337</ele><time>2026-04-22T08:22:49.696Z</time></trkpt><trkpt lat="40.0918454" lon="9.5905348"><ele>485.0</ele><time>2026-04-22T08:22:50.693Z</time></trkpt><trkpt lat="40.0919226" lon="9.590577"><ele>492.6666666666667</ele><time>2026-04-22T08:22:51.696Z</time></trkpt><trkpt lat="40.0920029" lon="9.5906107"><ele>500.33333333333337</ele><time>2026-04-22T08:22:52.69Z</time></trkpt><trkpt lat="40.0920755" lon="9.590634"><ele>508.0</ele><time>2026-04-22T08:22:53.687Z</time></trkpt><trkpt lat="40.0921476" lon="9.5906602"><ele>508.0</ele><time>2026-04-22T08:22:54.685Z</time></trkpt><trkpt lat="40.0922194" lon="9.5906865"><ele>507.99999999999994</ele><time>2026-04-22T08:22:55.688Z</time></trkpt><trkpt lat="40.0923014" lon="9.5906989"><ele>507.99999999999994</ele><time>2026-04-22T08:22:56.694Z</time></trkpt><trkpt lat="40.0923697" lon="9.5906972"><ele>508.0</ele><time>2026-04-22T08:22:57.683Z</time></trkpt><trkpt lat="40.0924858" lon="9.5907397"><ele>508.0</ele><time>2026-04-22T08:22:59.683Z</time></trkpt><trkpt lat="40.092566" lon="9.590865"><ele>505.33333333333337</ele><time>2026-04-22T08:23:01.688Z</time></trkpt><trkpt lat="40.0925922" lon="9.5909531"><ele>502.6666666666667</ele><time>2026-04-22T08:23:02.686Z</time></trkpt><trkpt lat="40.0926139" lon="9.5910316"><ele>500.0</ele><time>2026-04-22T08:23:03.688Z</time></trkpt><trkpt lat="40.0926645" lon="9.5911574"><ele>497.33333333333337</ele><time>2026-04-22T08:23:05.683Z</time></trkpt><trkpt lat="40.0927188" lon="9.5912015"><ele>494.6666666666667</ele><time>2026-04-22T08:23:06.686Z</time></trkpt><trkpt lat="40.0928308" lon="9.591228"><ele>492.0</ele><time>2026-04-22T08:23:08.682Z</time></trkpt><trkpt lat="40.0929398" lon="9.5912583"><ele>497.6666666666667</ele><time>2026-04-22T08:23:10.678Z</time></trkpt><trkpt lat="40.0930285" lon="9.5913892"><ele>503.33333333333337</ele><time>2026-04-22T08:23:12.682Z</time></trkpt><trkpt lat="40.0930462" lon="9.5914791"><ele>509.0</ele><time>2026-04-22T08:23:13.688Z</time></trkpt><trkpt lat="40.093073" lon="9.5915617"><ele>514.6666666666667</ele><time>2026-04-22T08:23:14.686Z</time></trkpt><trkpt lat="40.0931092" lon="9.5916333"><ele>520.3333333333334</ele><time>2026-04-22T08:23:15.685Z</time></trkpt><trkpt lat="40.0931671" lon="9.5916749"><ele>526.0</ele><time>2026-04-22T08:23:16.684Z</time></trkpt><trkpt lat="40.0932399" lon="9.5917016"><ele>526.8</ele><time>2026-04-22T08:23:17.687Z</time></trkpt><trkpt lat="40.0933437" lon="9.5917769"><ele>527.6</ele><time>2026-04-22T08:23:19.691Z</time></trkpt><trkpt lat="40.093437" lon="9.5918826"><ele>528.4</ele><time>2026-04-22T08:23:21.684Z</time></trkpt><trkpt lat="40.0934844" lon="9.5919471"><ele>529.2</ele><time>2026-04-22T08:23:22.685Z</time></trkpt><trkpt lat="40.0935337" lon="9.5920076"><ele>530.0</ele><time>2026-04-22T08:23:23.685Z</time></trkpt><trkpt lat="40.0936179" lon="9.592114"><ele>530.0</ele><time>2026-04-22T08:23:25.683Z</time></trkpt><trkpt lat="40.0936983" lon="9.5921836"><ele>530.0</ele><time>2026-04-22T08:23:27.68Z</time></trkpt><trkpt lat="40.093777" lon="9.5921921"><ele>530.0</ele><time>2026-04-22T08:23:29.688Z</time></trkpt><trkpt lat="40.093831" lon="9.5921218"><ele>530.0</ele><time>2026-04-22T08:23:31.689Z</time></trkpt><trkpt lat="40.0938373" lon="9.5920008"><ele>530.0</ele><time>2026-04-22T08:23:33.696Z</time></trkpt><trkpt lat="40.0938154" lon="9.59186"><ele>525.8</ele><time>2026-04-22T08:23:35.684Z</time></trkpt><trkpt lat="40.0938548" lon="9.5917372"><ele>521.6</ele><time>2026-04-22T08:23:37.686Z</time></trkpt><trkpt lat="40.0939535" lon="9.5916332"><ele>517.4</ele><time>2026-04-22T08:23:39.695Z</time></trkpt><trkpt lat="40.0940922" lon="9.5916058"><ele>513.2</ele><time>2026-04-22T08:23:41.7Z</time></trkpt><trkpt lat="40.0941706" lon="9.5916246"><ele>509.0</ele><time>2026-04-22T08:23:42.693Z</time></trkpt><trkpt lat="40.0942609" lon="9.59164"><ele>509.0</ele><time>2026-04-22T08:23:43.697Z</time></trkpt><trkpt lat="40.0943559" lon="9.5916609"><ele>509.0</ele><time>2026-04-22T08:23:44.688Z</time></trkpt><trkpt lat="40.0944436" lon="9.5916671"><ele>509.0</ele><time>2026-04-22T08:23:45.693Z</time></trkpt><trkpt lat="40.0945159" lon="9.5916772"><ele>509.0</ele><time>2026-04-22T08:23:46.693Z</time></trkpt><trkpt lat="40.0946153" lon="9.5916484"><ele>509.0</ele><time>2026-04-22T08:23:48.688Z</time></trkpt><trkpt lat="40.094715" lon="9.5915724"><ele>508.99999999999994</ele><time>2026-04-22T08:23:50.689Z</time></trkpt><trkpt lat="40.0947716" lon="9.5915333"><ele>509.0</ele><time>2026-04-22T08:23:51.689Z</time></trkpt><trkpt lat="40.0948365" lon="9.5915067"><ele>509.0</ele><time>2026-04-22T08:23:52.691Z</time></trkpt><trkpt lat="40.0949604" lon="9.591538"><ele>509.0</ele><time>2026-04-22T08:23:54.685Z</time></trkpt><trkpt lat="40.0950221" lon="9.5915899"><ele>508.99999999999994</ele><time>2026-04-22T08:23:55.693Z</time></trkpt><trkpt lat="40.0950908" lon="9.5916646"><ele>509.0</ele><time>2026-04-22T08:23:56.69Z</time></trkpt><trkpt lat="40.0951572" lon="9.5917344"><ele>510.42857142857133</ele><time>2026-04-22T08:23:57.692Z</time></trkpt><trkpt lat="40.0952158" lon="9.5918148"><ele>511.85714285714283</ele><time>2026-04-22T08:23:58.694Z</time></trkpt><trkpt lat="40.0952631" lon="9.5918925"><ele>513.2857142857142</ele><time>2026-04-22T08:23:59.694Z</time></trkpt><trkpt lat="40.0953289" lon="9.5919362"><ele>514.7142857142857</ele><time>2026-04-22T08:24:00.694Z</time></trkpt><trkpt lat="40.0953963" lon="9.5919779"><ele>516.1428571428571</ele><time>2026-04-22T08:24:01.692Z</time></trkpt><trkpt lat="40.095461" lon="9.5920199"><ele>517.5714285714286</ele><time>2026-04-22T08:24:02.691Z</time></trkpt><trkpt lat="40.0955103" lon="9.5920738"><ele>519.0</ele><time>2026-04-22T08:24:03.689Z</time></trkpt><trkpt lat="40.0955572" lon="9.5921343"><ele>521.1666666666666</ele><time>2026-04-22T08:24:04.686Z</time></trkpt><trkpt lat="40.0955986" lon="9.592215"><ele>523.3333333333334</ele><time>2026-04-22T08:24:05.687Z</time></trkpt><trkpt lat="40.0956378" lon="9.5923008"><ele>525.5</ele><time>2026-04-22T08:24:06.689Z</time></trkpt><trkpt lat="40.0956834" lon="9.592384"><ele>527.6666666666667</ele><time>2026-04-22T08:24:07.685Z</time></trkpt><trkpt lat="40.0957123" lon="9.5924635"><ele>529.8333333333334</ele><time>2026-04-22T08:24:08.685Z</time></trkpt><trkpt lat="40.095782" lon="9.592572"><ele>532.0</ele><time>2026-04-22T08:24:10.678Z</time></trkpt><trkpt lat="40.0958862" lon="9.5926416"><ele>532.0</ele><time>2026-04-22T08:24:12.685Z</time></trkpt><trkpt lat="40.0960129" lon="9.5926632"><ele>532.0</ele><time>2026-04-22T08:24:14.679Z</time></trkpt><trkpt lat="40.0960914" lon="9.5926655"><ele>532.0</ele><time>2026-04-22T08:24:15.679Z</time></trkpt><trkpt lat="40.0961587" lon="9.5926866"><ele>532.0</ele><time>2026-04-22T08:24:16.68Z</time></trkpt><trkpt lat="40.0962626" lon="9.5926893"><ele>532.0</ele><time>2026-04-22T08:24:18.678Z</time></trkpt><trkpt lat="40.0963512" lon="9.5926406"><ele>532.0</ele><time>2026-04-22T08:24:20.685Z</time></trkpt><trkpt lat="40.0964195" lon="9.5925532"><ele>532.0</ele><time>2026-04-22T08:24:22.696Z</time></trkpt><trkpt lat="40.0965114" lon="9.5924417"><ele>532.0</ele><time>2026-04-22T08:24:24.703Z</time></trkpt><trkpt lat="40.0965571" lon="9.592383"><ele>532.0</ele><time>2026-04-22T08:24:25.701Z</time></trkpt><trkpt lat="40.096615" lon="9.5923216"><ele>532.0</ele><time>2026-04-22T08:24:26.704Z</time></trkpt><trkpt lat="40.0966752" lon="9.592248"><ele>532.0</ele><time>2026-04-22T08:24:27.696Z</time></trkpt><trkpt lat="40.0967374" lon="9.5921897"><ele>531.5</ele><time>2026-04-22T08:24:28.698Z</time></trkpt><trkpt lat="40.0968003" lon="9.592128"><ele>531.0</ele><time>2026-04-22T08:24:29.697Z</time></trkpt><trkpt lat="40.0968569" lon="9.5920513"><ele>530.5</ele><time>2026-04-22T08:24:30.695Z</time></trkpt><trkpt lat="40.0969144" lon="9.59199"><ele>530.0</ele><time>2026-04-22T08:24:31.693Z</time></trkpt><trkpt lat="40.096956" lon="9.5919162"><ele>529.5</ele><time>2026-04-22T08:24:32.688Z</time></trkpt><trkpt lat="40.0969961" lon="9.5918465"><ele>529.0</ele><time>2026-04-22T08:24:33.703Z</time></trkpt><trkpt lat="40.0970816" lon="9.5917255"><ele>529.0</ele><time>2026-04-22T08:24:35.693Z</time></trkpt><trkpt lat="40.0971447" lon="9.5916642"><ele>529.0</ele><time>2026-04-22T08:24:36.692Z</time></trkpt><trkpt lat="40.0972154" lon="9.5915995"><ele>529.0</ele><time>2026-04-22T08:24:37.691Z</time></trkpt><trkpt lat="40.0972797" lon="9.5915431"><ele>529.0</ele><time>2026-04-22T08:24:38.694Z</time></trkpt><trkpt lat="40.0973486" lon="9.5914951"><ele>529.0</ele><time>2026-04-22T08:24:39.689Z</time></trkpt><trkpt lat="40.0974312" lon="9.591459"><ele>529.0</ele><time>2026-04-22T08:24:40.688Z</time></trkpt><trkpt lat="40.0975004" lon="9.5914299"><ele>531.8333333333334</ele><time>2026-04-22T08:24:41.694Z</time></trkpt><trkpt lat="40.0975729" lon="9.5914128"><ele>534.6666666666667</ele><time>2026-04-22T08:24:42.686Z</time></trkpt><trkpt lat="40.0976446" lon="9.5914108"><ele>537.5</ele><time>2026-04-22T08:24:43.698Z</time></trkpt><trkpt lat="40.0977204" lon="9.5914156"><ele>540.3333333333334</ele><time>2026-04-22T08:24:44.687Z</time></trkpt><trkpt lat="40.0977934" lon="9.5914164"><ele>543.1666666666666</ele><time>2026-04-22T08:24:45.689Z</time></trkpt><trkpt lat="40.0978851" lon="9.5914297"><ele>546.0</ele><time>2026-04-22T08:24:46.689Z</time></trkpt><trkpt lat="40.0979639" lon="9.5914129"><ele>546.0</ele><time>2026-04-22T08:24:47.698Z</time></trkpt><trkpt lat="40.0980377" lon="9.5913977"><ele>546.0</ele><time>2026-04-22T08:24:48.691Z</time></trkpt><trkpt lat="40.0981011" lon="9.5913911"><ele>546.0</ele><time>2026-04-22T08:24:49.69Z</time></trkpt><trkpt lat="40.0981665" lon="9.5913791"><ele>546.0</ele><time>2026-04-22T08:24:50.691Z</time></trkpt><trkpt lat="40.0982772" lon="9.5913493"><ele>546.0</ele><time>2026-04-22T08:24:52.685Z</time></trkpt><trkpt lat="40.0983835" lon="9.5912498"><ele>546.0</ele><time>2026-04-22T08:24:54.686Z</time></trkpt><trkpt lat="40.0984357" lon="9.5911827"><ele>544.5</ele><time>2026-04-22T08:24:55.686Z</time></trkpt><trkpt lat="40.0985228" lon="9.5910388"><ele>543.0</ele><time>2026-04-22T08:24:57.687Z</time></trkpt><trkpt lat="40.0985643" lon="9.5909717"><ele>541.5</ele><time>2026-04-22T08:24:58.69Z</time></trkpt><trkpt lat="40.0986052" lon="9.5909086"><ele>540.0</ele><time>2026-04-22T08:24:59.689Z</time></trkpt><trkpt lat="40.0986419" lon="9.5908355"><ele>538.5</ele><time>2026-04-22T08:25:00.689Z</time></trkpt><trkpt lat="40.0987163" lon="9.5907249"><ele>537.0</ele><time>2026-04-22T08:25:02.696Z</time></trkpt><trkpt lat="40.0988012" lon="9.5905917"><ele>536.9999999999999</ele><time>2026-04-22T08:25:04.693Z</time></trkpt><trkpt lat="40.0988352" lon="9.5905078"><ele>537.0</ele><time>2026-04-22T08:25:05.697Z</time></trkpt><trkpt lat="40.0988766" lon="9.5904236"><ele>537.0</ele><time>2026-04-22T08:25:06.692Z</time></trkpt><trkpt lat="40.0989192" lon="9.5903453"><ele>537.0</ele><time>2026-04-22T08:25:07.696Z</time></trkpt><trkpt lat="40.0989627" lon="9.5902606"><ele>537.0</ele><time>2026-04-22T08:25:08.694Z</time></trkpt><trkpt lat="40.0990016" lon="9.5901858"><ele>536.9999999999999</ele><time>2026-04-22T08:25:09.697Z</time></trkpt><trkpt lat="40.0990467" lon="9.5901227"><ele>537.0</ele><time>2026-04-22T08:25:10.695Z</time></trkpt><trkpt lat="40.0991477" lon="9.5900502"><ele>538.5</ele><time>2026-04-22T08:25:12.69Z</time></trkpt><trkpt lat="40.0992387" lon="9.590062"><ele>540.0</ele><time>2026-04-22T08:25:14.689Z</time></trkpt><trkpt lat="40.0992531" lon="9.5901586"><ele>541.5</ele><time>2026-04-22T08:25:16.696Z</time></trkpt><trkpt lat="40.0992006" lon="9.5902723"><ele>543.0</ele><time>2026-04-22T08:25:18.695Z</time></trkpt><trkpt lat="40.0991625" lon="9.5903431"><ele>544.5</ele><time>2026-04-22T08:25:19.691Z</time></trkpt><trkpt lat="40.0991241" lon="9.590436"><ele>546.0</ele><time>2026-04-22T08:25:20.696Z</time></trkpt><trkpt lat="40.0991156" lon="9.5905419"><ele>548.0</ele><time>2026-04-22T08:25:21.692Z</time></trkpt><trkpt lat="40.099133" lon="9.5906429"><ele>550.0</ele><time>2026-04-22T08:25:22.691Z</time></trkpt><trkpt lat="40.0991432" lon="9.5907319"><ele>552.0</ele><time>2026-04-22T08:25:23.695Z</time></trkpt><trkpt lat="40.0991463" lon="9.5908276"><ele>554.0</ele><time>2026-04-22T08:25:24.692Z</time></trkpt><trkpt lat="40.0991546" lon="9.5909125"><ele>556.0</ele><time>2026-04-22T08:25:25.696Z</time></trkpt><trkpt lat="40.0991577" lon="9.5910175"><ele>558.0</ele><time>2026-04-22T08:25:27.692Z</time></trkpt><trkpt lat="40.0992527" lon="9.5909805"><ele>558.0</ele><time>2026-04-22T08:25:30.701Z</time></trkpt><trkpt lat="40.0992995" lon="9.5908558"><ele>558.0</ele><time>2026-04-22T08:25:32.69Z</time></trkpt><trkpt lat="40.0993347" lon="9.5907773"><ele>558.0</ele><time>2026-04-22T08:25:33.69Z</time></trkpt><trkpt lat="40.0993764" lon="9.5907144"><ele>558.0</ele><time>2026-04-22T08:25:34.692Z</time></trkpt><trkpt lat="40.0994407" lon="9.5906657"><ele>558.0</ele><time>2026-04-22T08:25:35.692Z</time></trkpt><trkpt lat="40.0995153" lon="9.5906332"><ele>558.0</ele><time>2026-04-22T08:25:36.682Z</time></trkpt><trkpt lat="40.0995893" lon="9.5906024"><ele>558.0</ele><time>2026-04-22T08:25:37.691Z</time></trkpt><trkpt lat="40.0996663" lon="9.5905869"><ele>558.0</ele><time>2026-04-22T08:25:38.694Z</time></trkpt><trkpt lat="40.0997272" lon="9.5905446"><ele>558.0</ele><time>2026-04-22T08:25:39.692Z</time></trkpt><trkpt lat="40.0998177" lon="9.5904586"><ele>558.0</ele><time>2026-04-22T08:25:41.688Z</time></trkpt><trkpt lat="40.0998939" lon="9.5903881"><ele>558.0</ele><time>2026-04-22T08:25:43.695Z</time></trkpt><trkpt lat="40.0999571" lon="9.5902774"><ele>558.5</ele><time>2026-04-22T08:25:45.697Z</time></trkpt><trkpt lat="40.0999913" lon="9.5902045"><ele>559.0</ele><time>2026-04-22T08:25:46.695Z</time></trkpt><trkpt lat="40.1000293" lon="9.5901373"><ele>559.5</ele><time>2026-04-22T08:25:47.695Z</time></trkpt><trkpt lat="40.1001197" lon="9.5900411"><ele>560.0</ele><time>2026-04-22T08:25:49.694Z</time></trkpt><trkpt lat="40.100235" lon="9.589971"><ele>560.5</ele><time>2026-04-22T08:25:51.693Z</time></trkpt><trkpt lat="40.1002997" lon="9.5899324"><ele>561.0</ele><time>2026-04-22T08:25:52.691Z</time></trkpt><trkpt lat="40.100362" lon="9.5899055"><ele>561.0</ele><time>2026-04-22T08:25:53.694Z</time></trkpt><trkpt lat="40.1004566" lon="9.5898215"><ele>561.0</ele><time>2026-04-22T08:25:55.695Z</time></trkpt><trkpt lat="40.1005317" lon="9.5896881"><ele>561.0</ele><time>2026-04-22T08:25:57.698Z</time></trkpt><trkpt lat="40.1005625" lon="9.5896042"><ele>561.0</ele><time>2026-04-22T08:25:58.697Z</time></trkpt><trkpt lat="40.1006171" lon="9.5894666"><ele>561.0</ele><time>2026-04-22T08:26:00.696Z</time></trkpt><trkpt lat="40.1006734" lon="9.589362"><ele>557.6</ele><time>2026-04-22T08:26:02.69Z</time></trkpt><trkpt lat="40.1007045" lon="9.5892651"><ele>554.2</ele><time>2026-04-22T08:26:04.69Z</time></trkpt><trkpt lat="40.1007149" lon="9.5891137"><ele>550.8</ele><time>2026-04-22T08:26:06.686Z</time></trkpt><trkpt lat="40.1006603" lon="9.5889582"><ele>547.4</ele><time>2026-04-22T08:26:08.692Z</time></trkpt><trkpt lat="40.1006306" lon="9.5888816"><ele>544.0</ele><time>2026-04-22T08:26:09.694Z</time></trkpt><trkpt lat="40.1005898" lon="9.5887409"><ele>542.8333333333334</ele><time>2026-04-22T08:26:11.691Z</time></trkpt><trkpt lat="40.1005975" lon="9.5885961"><ele>541.6666666666667</ele><time>2026-04-22T08:26:13.697Z</time></trkpt><trkpt lat="40.1006244" lon="9.5885136"><ele>540.5</ele><time>2026-04-22T08:26:14.701Z</time></trkpt><trkpt lat="40.1006629" lon="9.5884383"><ele>539.3333333333334</ele><time>2026-04-22T08:26:15.693Z</time></trkpt><trkpt lat="40.1006938" lon="9.5883615"><ele>538.1666666666666</ele><time>2026-04-22T08:26:16.698Z</time></trkpt><trkpt lat="40.1007355" lon="9.5882126"><ele>537.0</ele><time>2026-04-22T08:26:18.694Z</time></trkpt><trkpt lat="40.1007458" lon="9.5880554"><ele>537.0</ele><time>2026-04-22T08:26:20.694Z</time></trkpt><trkpt lat="40.1007279" lon="9.5879679"><ele>537.0</ele><time>2026-04-22T08:26:21.694Z</time></trkpt><trkpt lat="40.1006785" lon="9.587811"><ele>537.0</ele><time>2026-04-22T08:26:23.692Z</time></trkpt><trkpt lat="40.100657" lon="9.5877122"><ele>537.0</ele><time>2026-04-22T08:26:24.693Z</time></trkpt><trkpt lat="40.100646" lon="9.5875988"><ele>537.0</ele><time>2026-04-22T08:26:25.692Z</time></trkpt><trkpt lat="40.1006536" lon="9.5874955"><ele>537.0</ele><time>2026-04-22T08:26:26.69Z</time></trkpt><trkpt lat="40.1006584" lon="9.5874085"><ele>537.0</ele><time>2026-04-22T08:26:27.687Z</time></trkpt><trkpt lat="40.1006786" lon="9.5872472"><ele>537.0</ele><time>2026-04-22T08:26:29.69Z</time></trkpt><trkpt lat="40.1006953" lon="9.5871098"><ele>537.0</ele><time>2026-04-22T08:26:31.688Z</time></trkpt><trkpt lat="40.1007205" lon="9.5869818"><ele>537.0</ele><time>2026-04-22T08:26:33.69Z</time></trkpt><trkpt lat="40.1007433" lon="9.5868933"><ele>537.0</ele><time>2026-04-22T08:26:35.691Z</time></trkpt><trkpt lat="40.100714" lon="9.5868202"><ele>537.0</ele><time>2026-04-22T08:26:37.694Z</time></trkpt><trkpt lat="40.1006542" lon="9.5867512"><ele>537.0</ele><time>2026-04-22T08:26:38.689Z</time></trkpt><trkpt lat="40.1005922" lon="9.5866929"><ele>537.0</ele><time>2026-04-22T08:26:39.691Z</time></trkpt><trkpt lat="40.1005352" lon="9.5866452"><ele>537.0</ele><time>2026-04-22T08:26:40.696Z</time></trkpt><trkpt lat="40.1004484" lon="9.586533"><ele>537.0</ele><time>2026-04-22T08:26:42.693Z</time></trkpt><trkpt lat="40.1003701" lon="9.5864346"><ele>537.0</ele><time>2026-04-22T08:26:44.69Z</time></trkpt><trkpt lat="40.1003431" lon="9.5862808"><ele>537.0</ele><time>2026-04-22T08:26:46.696Z</time></trkpt><trkpt lat="40.1003182" lon="9.5861407"><ele>537.0</ele><time>2026-04-22T08:26:48.685Z</time></trkpt><trkpt lat="40.1002617" lon="9.5860637"><ele>537.0</ele><time>2026-04-22T08:26:50.695Z</time></trkpt><trkpt lat="40.1001711" lon="9.5860431"><ele>537.0</ele><time>2026-04-22T08:26:52.692Z</time></trkpt><trkpt lat="40.1001007" lon="9.5860605"><ele>536.6666666666666</ele><time>2026-04-22T08:26:53.692Z</time></trkpt><trkpt lat="40.1000241" lon="9.5860771"><ele>536.3333333333334</ele><time>2026-04-22T08:26:54.692Z</time></trkpt><trkpt lat="40.0999401" lon="9.5860833"><ele>536.0</ele><time>2026-04-22T08:26:55.697Z</time></trkpt><trkpt lat="40.0998542" lon="9.5860774"><ele>535.6666666666667</ele><time>2026-04-22T08:26:56.698Z</time></trkpt><trkpt lat="40.0997691" lon="9.5860512"><ele>535.3333333333334</ele><time>2026-04-22T08:26:57.697Z</time></trkpt><trkpt lat="40.0996843" lon="9.5860119"><ele>535.0</ele><time>2026-04-22T08:26:58.697Z</time></trkpt><trkpt lat="40.0996109" lon="9.5859763"><ele>535.0</ele><time>2026-04-22T08:26:59.693Z</time></trkpt><trkpt lat="40.0995483" lon="9.5859477"><ele>535.0</ele><time>2026-04-22T08:27:00.695Z</time></trkpt><trkpt lat="40.0994861" lon="9.5859115"><ele>535.0</ele><time>2026-04-22T08:27:01.698Z</time></trkpt><trkpt lat="40.0994239" lon="9.5858813"><ele>535.0</ele><time>2026-04-22T08:27:02.692Z</time></trkpt><trkpt lat="40.0993607" lon="9.5858393"><ele>535.0</ele><time>2026-04-22T08:27:03.697Z</time></trkpt><trkpt lat="40.0992806" lon="9.5857636"><ele>535.0</ele><time>2026-04-22T08:27:05.693Z</time></trkpt><trkpt lat="40.099213" lon="9.5856289"><ele>535.0</ele><time>2026-04-22T08:27:07.689Z</time></trkpt><trkpt lat="40.0991851" lon="9.5855444"><ele>535.0</ele><time>2026-04-22T08:27:08.694Z</time></trkpt><trkpt lat="40.0991471" lon="9.5854643"><ele>535.0</ele><time>2026-04-22T08:27:09.698Z</time></trkpt><trkpt lat="40.0991059" lon="9.5853821"><ele>535.0</ele><time>2026-04-22T08:27:10.693Z</time></trkpt><trkpt lat="40.0990686" lon="9.5853061"><ele>535.0</ele><time>2026-04-22T08:27:11.691Z</time></trkpt><trkpt lat="40.09902" lon="9.5852096"><ele>535.0</ele><time>2026-04-22T08:27:13.701Z</time></trkpt><trkpt lat="40.0989806" lon="9.5851453"><ele>535.0</ele><time>2026-04-22T08:27:56.719Z</time></trkpt><trkpt lat="40.0989836" lon="9.5850197"><ele>536.6666666666667</ele><time>2026-04-22T08:27:59.707Z</time></trkpt><trkpt lat="40.0990261" lon="9.5849503"><ele>538.3333333333334</ele><time>2026-04-22T08:28:00.698Z</time></trkpt><trkpt lat="40.0990788" lon="9.5848934"><ele>540.0</ele><time>2026-04-22T08:28:01.703Z</time></trkpt><trkpt lat="40.0991214" lon="9.5848318"><ele>541.6666666666666</ele><time>2026-04-22T08:28:02.705Z</time></trkpt><trkpt lat="40.0991934" lon="9.5846948"><ele>543.3333333333333</ele><time>2026-04-22T08:28:04.696Z</time></trkpt><trkpt lat="40.099227" lon="9.5846185"><ele>545.0</ele><time>2026-04-22T08:28:05.7Z</time></trkpt><trkpt lat="40.0992547" lon="9.5845377"><ele>543.8</ele><time>2026-04-22T08:28:06.7Z</time></trkpt><trkpt lat="40.0993047" lon="9.5843977"><ele>542.6</ele><time>2026-04-22T08:28:08.698Z</time></trkpt><trkpt lat="40.0993714" lon="9.5842789"><ele>541.4</ele><time>2026-04-22T08:28:10.698Z</time></trkpt><trkpt lat="40.0994202" lon="9.5841771"><ele>540.2</ele><time>2026-04-22T08:28:12.704Z</time></trkpt><trkpt lat="40.0994716" lon="9.5840621"><ele>539.0</ele><time>2026-04-22T08:28:14.698Z</time></trkpt><trkpt lat="40.0995339" lon="9.5839466"><ele>539.0</ele><time>2026-04-22T08:28:16.699Z</time></trkpt><trkpt lat="40.0995772" lon="9.5838253"><ele>539.0</ele><time>2026-04-22T08:28:18.697Z</time></trkpt><trkpt lat="40.0996138" lon="9.5836962"><ele>539.0</ele><time>2026-04-22T08:28:20.691Z</time></trkpt><trkpt lat="40.0995987" lon="9.5836127"><ele>539.0</ele><time>2026-04-22T08:28:21.693Z</time></trkpt><trkpt lat="40.0995804" lon="9.5834846"><ele>539.0</ele><time>2026-04-22T08:28:23.713Z</time></trkpt><trkpt lat="40.0995307" lon="9.5834281"><ele>539.0</ele><time>2026-04-22T08:28:25.702Z</time></trkpt><trkpt lat="40.0994626" lon="9.583435"><ele>538.8</ele><time>2026-04-22T08:28:27.694Z</time></trkpt><trkpt lat="40.0993518" lon="9.5834769"><ele>538.5999999999999</ele><time>2026-04-22T08:28:29.698Z</time></trkpt><trkpt lat="40.0992196" lon="9.5835267"><ele>538.4</ele><time>2026-04-22T08:28:31.695Z</time></trkpt><trkpt lat="40.0991461" lon="9.5835479"><ele>538.1999999999999</ele><time>2026-04-22T08:28:32.698Z</time></trkpt><trkpt lat="40.0990617" lon="9.5835658"><ele>538.0</ele><time>2026-04-22T08:28:33.706Z</time></trkpt><trkpt lat="40.0989864" lon="9.5835866"><ele>538.0</ele><time>2026-04-22T08:28:34.697Z</time></trkpt><trkpt lat="40.0988978" lon="9.5835892"><ele>538.0</ele><time>2026-04-22T08:28:35.702Z</time></trkpt><trkpt lat="40.0988081" lon="9.5835773"><ele>538.0</ele><time>2026-04-22T08:28:36.697Z</time></trkpt><trkpt lat="40.0987273" lon="9.5835645"><ele>538.0</ele><time>2026-04-22T08:28:37.7Z</time></trkpt><trkpt lat="40.098646" lon="9.583545"><ele>538.0</ele><time>2026-04-22T08:28:38.694Z</time></trkpt><trkpt lat="40.0985666" lon="9.5835306"><ele>538.0</ele><time>2026-04-22T08:28:39.7Z</time></trkpt><trkpt lat="40.0984927" lon="9.58351"><ele>538.0</ele><time>2026-04-22T08:28:40.704Z</time></trkpt><trkpt lat="40.0984135" lon="9.5834937"><ele>538.0</ele><time>2026-04-22T08:28:41.705Z</time></trkpt><trkpt lat="40.0983455" lon="9.5834871"><ele>538.0</ele><time>2026-04-22T08:28:42.701Z</time></trkpt><trkpt lat="40.0982353" lon="9.5835006"><ele>538.0</ele><time>2026-04-22T08:28:44.703Z</time></trkpt><trkpt lat="40.0981249" lon="9.5835157"><ele>538.0</ele><time>2026-04-22T08:28:46.701Z</time></trkpt><trkpt lat="40.0980444" lon="9.5834564"><ele>535.0</ele><time>2026-04-22T08:28:48.693Z</time></trkpt><trkpt lat="40.0980218" lon="9.5833012"><ele>532.0</ele><time>2026-04-22T08:28:50.703Z</time></trkpt><trkpt lat="40.0980131" lon="9.5831964"><ele>529.0</ele><time>2026-04-22T08:28:51.699Z</time></trkpt><trkpt lat="40.0980051" lon="9.5830955"><ele>526.0</ele><time>2026-04-22T08:28:52.702Z</time></trkpt><trkpt lat="40.0979953" lon="9.5830069"><ele>523.0</ele><time>2026-04-22T08:28:53.714Z</time></trkpt><trkpt lat="40.0979728" lon="9.5828648"><ele>524.1999999999999</ele><time>2026-04-22T08:28:55.706Z</time></trkpt><trkpt lat="40.0979523" lon="9.5827414"><ele>525.4</ele><time>2026-04-22T08:28:57.708Z</time></trkpt><trkpt lat="40.0978961" lon="9.5826962"><ele>526.5999999999999</ele><time>2026-04-22T08:28:59.705Z</time></trkpt><trkpt lat="40.0977903" lon="9.5827386"><ele>527.8</ele><time>2026-04-22T08:29:01.703Z</time></trkpt><trkpt lat="40.0976738" lon="9.5828089"><ele>529.0</ele><time>2026-04-22T08:29:03.704Z</time></trkpt><trkpt lat="40.0975657" lon="9.5828417"><ele>529.0</ele><time>2026-04-22T08:29:05.697Z</time></trkpt><trkpt lat="40.0974626" lon="9.5828461"><ele>529.0</ele><time>2026-04-22T08:29:07.701Z</time></trkpt><trkpt lat="40.0973611" lon="9.5827771"><ele>529.0</ele><time>2026-04-22T08:29:09.694Z</time></trkpt><trkpt lat="40.0972865" lon="9.5826739"><ele>529.0</ele><time>2026-04-22T08:29:11.7Z</time></trkpt><trkpt lat="40.0972123" lon="9.5825539"><ele>529.0</ele><time>2026-04-22T08:29:13.71Z</time></trkpt><trkpt lat="40.0971398" lon="9.5824941"><ele>527.8333333333334</ele><time>2026-04-22T08:29:15.696Z</time></trkpt><trkpt lat="40.0970729" lon="9.5825225"><ele>526.6666666666667</ele><time>2026-04-22T08:29:16.699Z</time></trkpt><trkpt lat="40.0970044" lon="9.582559"><ele>525.5</ele><time>2026-04-22T08:29:17.698Z</time></trkpt><trkpt lat="40.0969362" lon="9.5825807"><ele>524.3333333333334</ele><time>2026-04-22T08:29:18.695Z</time></trkpt><trkpt lat="40.0968738" lon="9.58261"><ele>523.1666666666666</ele><time>2026-04-22T08:29:19.696Z</time></trkpt><trkpt lat="40.0968089" lon="9.582622"><ele>522.0</ele><time>2026-04-22T08:29:20.702Z</time></trkpt><trkpt lat="40.0966782" lon="9.5826478"><ele>522.0</ele><time>2026-04-22T08:29:22.705Z</time></trkpt><trkpt lat="40.0966107" lon="9.5826591"><ele>522.0</ele><time>2026-04-22T08:29:23.701Z</time></trkpt><trkpt lat="40.0965347" lon="9.5826665"><ele>522.0</ele><time>2026-04-22T08:29:24.716Z</time></trkpt><trkpt lat="40.0964681" lon="9.582668"><ele>522.0</ele><time>2026-04-22T08:29:25.704Z</time></trkpt><trkpt lat="40.0964047" lon="9.5826889"><ele>522.0</ele><time>2026-04-22T08:29:26.707Z</time></trkpt><trkpt lat="40.0963328" lon="9.5827014"><ele>522.0</ele><time>2026-04-22T08:29:27.704Z</time></trkpt><trkpt lat="40.0962351" lon="9.5827436"><ele>523.5</ele><time>2026-04-22T08:29:29.705Z</time></trkpt><trkpt lat="40.0961483" lon="9.5828282"><ele>525.0</ele><time>2026-04-22T08:29:31.706Z</time></trkpt><trkpt lat="40.0960306" lon="9.5829017"><ele>526.5</ele><time>2026-04-22T08:29:33.705Z</time></trkpt><trkpt lat="40.0959582" lon="9.5829313"><ele>528.0</ele><time>2026-04-22T08:29:34.715Z</time></trkpt><trkpt lat="40.0958988" lon="9.5829646"><ele>529.5</ele><time>2026-04-22T08:29:35.705Z</time></trkpt><trkpt lat="40.0958401" lon="9.5830028"><ele>531.0</ele><time>2026-04-22T08:29:36.702Z</time></trkpt><trkpt lat="40.0957828" lon="9.5830676"><ele>528.1428571428571</ele><time>2026-04-22T08:29:37.707Z</time></trkpt><trkpt lat="40.0957218" lon="9.5831237"><ele>525.2857142857143</ele><time>2026-04-22T08:29:38.708Z</time></trkpt><trkpt lat="40.0956614" lon="9.5831771"><ele>522.4285714285714</ele><time>2026-04-22T08:29:39.704Z</time></trkpt><trkpt lat="40.0956044" lon="9.5832234"><ele>519.5714285714286</ele><time>2026-04-22T08:29:40.705Z</time></trkpt><trkpt lat="40.0955453" lon="9.5832669"><ele>516.7142857142858</ele><time>2026-04-22T08:29:41.709Z</time></trkpt><trkpt lat="40.0954864" lon="9.5833142"><ele>513.8571428571429</ele><time>2026-04-22T08:29:42.702Z</time></trkpt><trkpt lat="40.0954284" lon="9.5833663"><ele>511.0</ele><time>2026-04-22T08:29:43.704Z</time></trkpt><trkpt lat="40.0953306" lon="9.5834556"><ele>511.00000000000006</ele><time>2026-04-22T08:29:45.716Z</time></trkpt><trkpt lat="40.095231" lon="9.5835295"><ele>511.0</ele><time>2026-04-22T08:29:47.707Z</time></trkpt><trkpt lat="40.0951658" lon="9.5835326"><ele>511.0</ele><time>2026-04-22T08:29:48.699Z</time></trkpt><trkpt lat="40.0950952" lon="9.5835163"><ele>511.0</ele><time>2026-04-22T08:29:49.7Z</time></trkpt><trkpt lat="40.0950244" lon="9.5834899"><ele>511.00000000000006</ele><time>2026-04-22T08:29:50.699Z</time></trkpt><trkpt lat="40.0949625" lon="9.5834414"><ele>511.0</ele><time>2026-04-22T08:29:51.702Z</time></trkpt><trkpt lat="40.0949033" lon="9.5833791"><ele>508.0</ele><time>2026-04-22T08:29:52.703Z</time></trkpt><trkpt lat="40.0948433" lon="9.583322"><ele>505.0</ele><time>2026-04-22T08:29:53.698Z</time></trkpt><trkpt lat="40.0947851" lon="9.5832696"><ele>502.0</ele><time>2026-04-22T08:29:54.698Z</time></trkpt><trkpt lat="40.0947255" lon="9.5832338"><ele>499.0</ele><time>2026-04-22T08:29:55.713Z</time></trkpt><trkpt lat="40.094664" lon="9.5831893"><ele>496.0</ele><time>2026-04-22T08:29:56.698Z</time></trkpt><trkpt lat="40.0946031" lon="9.5831384"><ele>493.0</ele><time>2026-04-22T08:29:57.701Z</time></trkpt><trkpt lat="40.0945496" lon="9.5830774"><ele>490.0</ele><time>2026-04-22T08:29:58.702Z</time></trkpt><trkpt lat="40.0944887" lon="9.5830249"><ele>490.0</ele><time>2026-04-22T08:29:59.699Z</time></trkpt><trkpt lat="40.0943834" lon="9.582928"><ele>490.0</ele><time>2026-04-22T08:30:01.698Z</time></trkpt><trkpt lat="40.0942908" lon="9.5828222"><ele>490.0</ele><time>2026-04-22T08:30:03.698Z</time></trkpt><trkpt lat="40.0941949" lon="9.5827391"><ele>490.0</ele><time>2026-04-22T08:30:05.72Z</time></trkpt><trkpt lat="40.0941138" lon="9.5826363"><ele>491.2</ele><time>2026-04-22T08:30:07.698Z</time></trkpt><trkpt lat="40.0940294" lon="9.5825214"><ele>492.4</ele><time>2026-04-22T08:30:09.698Z</time></trkpt><trkpt lat="40.0939606" lon="9.5824006"><ele>493.6</ele><time>2026-04-22T08:30:11.705Z</time></trkpt><trkpt lat="40.0939116" lon="9.5822883"><ele>494.8</ele><time>2026-04-22T08:30:13.71Z</time></trkpt><trkpt lat="40.09385" lon="9.5821738"><ele>496.0</ele><time>2026-04-22T08:30:15.716Z</time></trkpt><trkpt lat="40.093806" lon="9.5820681"><ele>500.8</ele><time>2026-04-22T08:30:17.705Z</time></trkpt><trkpt lat="40.0937895" lon="9.5819649"><ele>505.6</ele><time>2026-04-22T08:30:19.717Z</time></trkpt><trkpt lat="40.0937819" lon="9.5818582"><ele>510.4</ele><time>2026-04-22T08:30:21.702Z</time></trkpt><trkpt lat="40.0937057" lon="9.581793"><ele>515.2</ele><time>2026-04-22T08:30:24.7Z</time></trkpt><trkpt lat="40.0936317" lon="9.5818334"><ele>520.0</ele><time>2026-04-22T08:30:26.7Z</time></trkpt><trkpt lat="40.0935479" lon="9.5819724"><ele>520.4</ele><time>2026-04-22T08:30:28.703Z</time></trkpt><trkpt lat="40.0934925" lon="9.5820582"><ele>520.8</ele><time>2026-04-22T08:30:29.7Z</time></trkpt><trkpt lat="40.0934464" lon="9.5821416"><ele>521.2</ele><time>2026-04-22T08:30:30.694Z</time></trkpt><trkpt lat="40.0933998" lon="9.5822086"><ele>521.6</ele><time>2026-04-22T08:30:31.693Z</time></trkpt><trkpt lat="40.093304" lon="9.5822865"><ele>522.0</ele><time>2026-04-22T08:30:33.697Z</time></trkpt><trkpt lat="40.0931808" lon="9.5823249"><ele>522.0</ele><time>2026-04-22T08:30:35.71Z</time></trkpt><trkpt lat="40.0931122" lon="9.5823368"><ele>522.0</ele><time>2026-04-22T08:30:36.696Z</time></trkpt><trkpt lat="40.0930491" lon="9.5823445"><ele>522.0</ele><time>2026-04-22T08:30:37.694Z</time></trkpt><trkpt lat="40.092953" lon="9.5823556"><ele>522.0</ele><time>2026-04-22T08:30:39.689Z</time></trkpt><trkpt lat="40.0928833" lon="9.5824066"><ele>522.0</ele><time>2026-04-22T08:30:41.704Z</time></trkpt><trkpt lat="40.0928421" lon="9.5825169"><ele>522.0</ele><time>2026-04-22T08:30:43.703Z</time></trkpt><trkpt lat="40.0928115" lon="9.5826528"><ele>522.0</ele><time>2026-04-22T08:30:45.7Z</time></trkpt><trkpt lat="40.0927284" lon="9.5827488"><ele>522.0</ele><time>2026-04-22T08:30:47.7Z</time></trkpt><trkpt lat="40.0926523" lon="9.5827759"><ele>522.0</ele><time>2026-04-22T08:30:48.697Z</time></trkpt><trkpt lat="40.0925719" lon="9.5827995"><ele>522.0</ele><time>2026-04-22T08:30:49.699Z</time></trkpt><trkpt lat="40.092492" lon="9.58283"><ele>522.0</ele><time>2026-04-22T08:30:50.703Z</time></trkpt><trkpt lat="40.092412" lon="9.5828601"><ele>522.0</ele><time>2026-04-22T08:30:51.709Z</time></trkpt><trkpt lat="40.0923481" lon="9.5828964"><ele>520.8571428571429</ele><time>2026-04-22T08:30:52.7Z</time></trkpt><trkpt lat="40.0922806" lon="9.5829258"><ele>519.7142857142857</ele><time>2026-04-22T08:30:53.704Z</time></trkpt><trkpt lat="40.0922051" lon="9.5829368"><ele>518.5714285714286</ele><time>2026-04-22T08:30:54.695Z</time></trkpt><trkpt lat="40.0921384" lon="9.5829553"><ele>517.4285714285714</ele><time>2026-04-22T08:30:55.703Z</time></trkpt><trkpt lat="40.0920778" lon="9.5829979"><ele>516.2857142857143</ele><time>2026-04-22T08:30:56.699Z</time></trkpt><trkpt lat="40.0920301" lon="9.5830639"><ele>515.1428571428571</ele><time>2026-04-22T08:30:57.704Z</time></trkpt><trkpt lat="40.0919835" lon="9.5831358"><ele>514.0</ele><time>2026-04-22T08:30:58.699Z</time></trkpt><trkpt lat="40.091939" lon="9.5831959"><ele>514.0</ele><time>2026-04-22T08:30:59.705Z</time></trkpt><trkpt lat="40.0918355" lon="9.5832633"><ele>514.0</ele><time>2026-04-22T08:31:01.706Z</time></trkpt><trkpt lat="40.0917642" lon="9.5832775"><ele>514.0</ele><time>2026-04-22T08:31:02.705Z</time></trkpt><trkpt lat="40.0916864" lon="9.5833014"><ele>514.0</ele><time>2026-04-22T08:31:03.709Z</time></trkpt><trkpt lat="40.0916238" lon="9.5833133"><ele>514.0</ele><time>2026-04-22T08:31:04.708Z</time></trkpt><trkpt lat="40.0915263" lon="9.583308"><ele>514.0</ele><time>2026-04-22T08:31:06.705Z</time></trkpt><trkpt lat="40.0914073" lon="9.5832454"><ele>514.0</ele><time>2026-04-22T08:31:08.703Z</time></trkpt><trkpt lat="40.0913457" lon="9.5832118"><ele>514.0</ele><time>2026-04-22T08:31:09.702Z</time></trkpt><trkpt lat="40.091279" lon="9.583151"><ele>514.0</ele><time>2026-04-22T08:31:10.698Z</time></trkpt><trkpt lat="40.0912175" lon="9.5830928"><ele>514.0</ele><time>2026-04-22T08:31:11.707Z</time></trkpt><trkpt lat="40.0911575" lon="9.5830553"><ele>514.0</ele><time>2026-04-22T08:31:12.697Z</time></trkpt><trkpt lat="40.0910449" lon="9.5830631"><ele>514.0</ele><time>2026-04-22T08:31:14.711Z</time></trkpt><trkpt lat="40.0909774" lon="9.5830784"><ele>514.0</ele><time>2026-04-22T08:31:15.709Z</time></trkpt><trkpt lat="40.0909065" lon="9.5830925"><ele>514.0</ele><time>2026-04-22T08:31:16.702Z</time></trkpt><trkpt lat="40.0908304" lon="9.5830956"><ele>514.0</ele><time>2026-04-22T08:31:17.707Z</time></trkpt><trkpt lat="40.0907552" lon="9.5830905"><ele>514.0</ele><time>2026-04-22T08:31:18.707Z</time></trkpt><trkpt lat="40.0906916" lon="9.5830709"><ele>514.0</ele><time>2026-04-22T08:31:19.705Z</time></trkpt><trkpt lat="40.0905793" lon="9.5829955"><ele>514.0</ele><time>2026-04-22T08:31:21.708Z</time></trkpt><trkpt lat="40.090525" lon="9.5829521"><ele>514.1666666666667</ele><time>2026-04-22T08:31:22.707Z</time></trkpt><trkpt lat="40.0904699" lon="9.5829"><ele>514.3333333333334</ele><time>2026-04-22T08:31:23.707Z</time></trkpt><trkpt lat="40.0904208" lon="9.5828334"><ele>514.5</ele><time>2026-04-22T08:31:24.711Z</time></trkpt><trkpt lat="40.0903688" lon="9.5827667"><ele>514.6666666666666</ele><time>2026-04-22T08:31:25.719Z</time></trkpt><trkpt lat="40.0902766" lon="9.5826729"><ele>514.8333333333333</ele><time>2026-04-22T08:31:27.714Z</time></trkpt><trkpt lat="40.0901969" lon="9.5825652"><ele>515.0</ele><time>2026-04-22T08:31:29.708Z</time></trkpt><trkpt lat="40.0901246" lon="9.5825046"><ele>521.4</ele><time>2026-04-22T08:31:31.699Z</time></trkpt><trkpt lat="40.090057" lon="9.5825321"><ele>527.8</ele><time>2026-04-22T08:31:33.698Z</time></trkpt><trkpt lat="40.0899707" lon="9.5826478"><ele>534.2</ele><time>2026-04-22T08:31:35.709Z</time></trkpt><trkpt lat="40.0899137" lon="9.5827054"><ele>540.6</ele><time>2026-04-22T08:31:36.693Z</time></trkpt><trkpt lat="40.0898491" lon="9.5827514"><ele>547.0</ele><time>2026-04-22T08:31:37.701Z</time></trkpt><trkpt lat="40.0897539" lon="9.5828241"><ele>547.1666666666667</ele><time>2026-04-22T08:31:39.7Z</time></trkpt><trkpt lat="40.0896918" lon="9.5828434"><ele>547.3333333333334</ele><time>2026-04-22T08:31:40.702Z</time></trkpt><trkpt lat="40.0895702" lon="9.582847"><ele>547.5</ele><time>2026-04-22T08:31:42.693Z</time></trkpt><trkpt lat="40.0895051" lon="9.5828492"><ele>547.6666666666666</ele><time>2026-04-22T08:31:43.697Z</time></trkpt><trkpt lat="40.0894427" lon="9.5828731"><ele>547.8333333333333</ele><time>2026-04-22T08:31:44.693Z</time></trkpt><trkpt lat="40.0893625" lon="9.5829628"><ele>548.0</ele><time>2026-04-22T08:31:46.677Z</time></trkpt><trkpt lat="40.0893354" lon="9.5831096"><ele>548.0000000000001</ele><time>2026-04-22T08:31:48.679Z</time></trkpt><trkpt lat="40.0893213" lon="9.58321"><ele>548.0</ele><time>2026-04-22T08:31:49.681Z</time></trkpt><trkpt lat="40.0893036" lon="9.5833028"><ele>548.0</ele><time>2026-04-22T08:31:50.685Z</time></trkpt><trkpt lat="40.0892819" lon="9.5833863"><ele>548.0</ele><time>2026-04-22T08:31:51.689Z</time></trkpt><trkpt lat="40.0892398" lon="9.5834548"><ele>548.0</ele><time>2026-04-22T08:31:52.685Z</time></trkpt><trkpt lat="40.0891801" lon="9.5835004"><ele>548.0000000000001</ele><time>2026-04-22T08:31:53.691Z</time></trkpt><trkpt lat="40.0891067" lon="9.5835313"><ele>548.0</ele><time>2026-04-22T08:31:54.692Z</time></trkpt><trkpt lat="40.089034" lon="9.5835459"><ele>549.3333333333333</ele><time>2026-04-22T08:31:55.697Z</time></trkpt><trkpt lat="40.0889541" lon="9.5835436"><ele>550.6666666666666</ele><time>2026-04-22T08:31:56.695Z</time></trkpt><trkpt lat="40.0888868" lon="9.5835295"><ele>552.0</ele><time>2026-04-22T08:31:57.69Z</time></trkpt><trkpt lat="40.0888084" lon="9.5835122"><ele>553.3333333333334</ele><time>2026-04-22T08:31:58.695Z</time></trkpt><trkpt lat="40.0887301" lon="9.5834846"><ele>554.6666666666667</ele><time>2026-04-22T08:31:59.686Z</time></trkpt><trkpt lat="40.0886528" lon="9.5834657"><ele>556.0</ele><time>2026-04-22T08:32:00.687Z</time></trkpt><trkpt lat="40.0885748" lon="9.5834372"><ele>556.0</ele><time>2026-04-22T08:32:01.691Z</time></trkpt><trkpt lat="40.0885015" lon="9.5833887"><ele>556.0</ele><time>2026-04-22T08:32:02.687Z</time></trkpt><trkpt lat="40.0884489" lon="9.5833158"><ele>556.0</ele><time>2026-04-22T08:32:03.693Z</time></trkpt><trkpt lat="40.0884071" lon="9.5832461"><ele>556.0</ele><time>2026-04-22T08:32:04.696Z</time></trkpt><trkpt lat="40.0883018" lon="9.5831959"><ele>556.0</ele><time>2026-04-22T08:32:06.683Z</time></trkpt><trkpt lat="40.0881785" lon="9.5831749"><ele>558.5</ele><time>2026-04-22T08:32:08.688Z</time></trkpt><trkpt lat="40.0881089" lon="9.5831531"><ele>561.0</ele><time>2026-04-22T08:32:09.69Z</time></trkpt><trkpt lat="40.0880305" lon="9.583144"><ele>563.5</ele><time>2026-04-22T08:32:10.683Z</time></trkpt><trkpt lat="40.0879601" lon="9.5831603"><ele>566.0</ele><time>2026-04-22T08:32:11.686Z</time></trkpt><trkpt lat="40.0878915" lon="9.583182"><ele>568.5</ele><time>2026-04-22T08:32:12.686Z</time></trkpt><trkpt lat="40.0878093" lon="9.5831957"><ele>571.0</ele><time>2026-04-22T08:32:13.695Z</time></trkpt><trkpt lat="40.0877218" lon="9.5831935"><ele>571.0</ele><time>2026-04-22T08:32:14.685Z</time></trkpt><trkpt lat="40.0876462" lon="9.5831672"><ele>571.0</ele><time>2026-04-22T08:32:15.684Z</time></trkpt><trkpt lat="40.0875696" lon="9.5831271"><ele>571.0</ele><time>2026-04-22T08:32:16.687Z</time></trkpt><trkpt lat="40.0875079" lon="9.5831107"><ele>571.0</ele><time>2026-04-22T08:32:17.678Z</time></trkpt><trkpt lat="40.0874123" lon="9.5830923"><ele>571.0</ele><time>2026-04-22T08:32:19.687Z</time></trkpt><trkpt lat="40.0873393" lon="9.5831899"><ele>571.0</ele><time>2026-04-22T08:32:22.685Z</time></trkpt><trkpt lat="40.0872938" lon="9.5832559"><ele>573.5</ele><time>2026-04-22T08:32:23.686Z</time></trkpt><trkpt lat="40.0872506" lon="9.5833239"><ele>576.0</ele><time>2026-04-22T08:32:24.685Z</time></trkpt><trkpt lat="40.0871975" lon="9.5833933"><ele>578.5</ele><time>2026-04-22T08:32:25.694Z</time></trkpt><trkpt lat="40.0871368" lon="9.5834244"><ele>581.0</ele><time>2026-04-22T08:32:26.698Z</time></trkpt><trkpt lat="40.0870661" lon="9.5834494"><ele>583.5</ele><time>2026-04-22T08:32:27.689Z</time></trkpt><trkpt lat="40.0869837" lon="9.583436"><ele>586.0</ele><time>2026-04-22T08:32:28.686Z</time></trkpt><trkpt lat="40.0868876" lon="9.5833985"><ele>586.0</ele><time>2026-04-22T08:32:29.688Z</time></trkpt><trkpt lat="40.0867994" lon="9.5833494"><ele>586.0</ele><time>2026-04-22T08:32:30.69Z</time></trkpt><trkpt lat="40.0867052" lon="9.5832986"><ele>586.0</ele><time>2026-04-22T08:32:31.688Z</time></trkpt><trkpt lat="40.086622" lon="9.5832597"><ele>586.0</ele><time>2026-04-22T08:32:32.68Z</time></trkpt><trkpt lat="40.0865271" lon="9.5832412"><ele>586.0</ele><time>2026-04-22T08:32:33.684Z</time></trkpt><trkpt lat="40.0864499" lon="9.5832072"><ele>584.3333333333334</ele><time>2026-04-22T08:32:34.682Z</time></trkpt><trkpt lat="40.0863845" lon="9.5831758"><ele>582.6666666666667</ele><time>2026-04-22T08:32:35.691Z</time></trkpt><trkpt lat="40.0863144" lon="9.5831235"><ele>581.0</ele><time>2026-04-22T08:32:36.69Z</time></trkpt><trkpt lat="40.086247" lon="9.5830618"><ele>579.3333333333334</ele><time>2026-04-22T08:32:37.691Z</time></trkpt><trkpt lat="40.0861822" lon="9.5830087"><ele>577.6666666666666</ele><time>2026-04-22T08:32:38.696Z</time></trkpt><trkpt lat="40.0861168" lon="9.5829479"><ele>576.0</ele><time>2026-04-22T08:32:39.691Z</time></trkpt><trkpt lat="40.0860544" lon="9.5828889"><ele>581.0</ele><time>2026-04-22T08:32:40.691Z</time></trkpt><trkpt lat="40.0859914" lon="9.5828285"><ele>586.0</ele><time>2026-04-22T08:32:41.69Z</time></trkpt><trkpt lat="40.0859299" lon="9.5827698"><ele>591.0</ele><time>2026-04-22T08:32:42.692Z</time></trkpt><trkpt lat="40.0858683" lon="9.5826968"><ele>596.0</ele><time>2026-04-22T08:32:43.696Z</time></trkpt><trkpt lat="40.0858069" lon="9.5826289"><ele>601.0</ele><time>2026-04-22T08:32:44.689Z</time></trkpt><trkpt lat="40.0857432" lon="9.5825738"><ele>606.0</ele><time>2026-04-22T08:32:45.694Z</time></trkpt><trkpt lat="40.0856772" lon="9.5825368"><ele>606.0</ele><time>2026-04-22T08:32:46.689Z</time></trkpt><trkpt lat="40.085618" lon="9.5825037"><ele>606.0</ele><time>2026-04-22T08:32:47.692Z</time></trkpt><trkpt lat="40.0855495" lon="9.5824834"><ele>606.0</ele><time>2026-04-22T08:32:48.687Z</time></trkpt><trkpt lat="40.08547" lon="9.5824696"><ele>606.0</ele><time>2026-04-22T08:32:49.689Z</time></trkpt><trkpt lat="40.0853953" lon="9.5824724"><ele>606.0</ele><time>2026-04-22T08:32:50.694Z</time></trkpt><trkpt lat="40.0853286" lon="9.5824799"><ele>606.0</ele><time>2026-04-22T08:32:51.691Z</time></trkpt><trkpt lat="40.085252" lon="9.5824807"><ele>606.0</ele><time>2026-04-22T08:32:52.692Z</time></trkpt><trkpt lat="40.0851799" lon="9.5824493"><ele>606.0</ele><time>2026-04-22T08:32:53.683Z</time></trkpt><trkpt lat="40.0851218" lon="9.5823969"><ele>606.0</ele><time>2026-04-22T08:32:54.692Z</time></trkpt><trkpt lat="40.0850648" lon="9.5823459"><ele>606.0</ele><time>2026-04-22T08:32:55.693Z</time></trkpt><trkpt lat="40.0850118" lon="9.5822965"><ele>606.0</ele><time>2026-04-22T08:32:56.692Z</time></trkpt><trkpt lat="40.0849363" lon="9.58224"><ele>606.0</ele><time>2026-04-22T08:32:58.699Z</time></trkpt><trkpt lat="40.0849164" lon="9.5821526"><ele>606.0</ele><time>2026-04-22T08:33:00.707Z</time></trkpt><trkpt lat="40.0850034" lon="9.5820489"><ele>607.6666666666666</ele><time>2026-04-22T08:33:02.697Z</time></trkpt><trkpt lat="40.0850556" lon="9.5819928"><ele>609.3333333333334</ele><time>2026-04-22T08:33:03.692Z</time></trkpt><trkpt lat="40.0851023" lon="9.5819306"><ele>611.0</ele><time>2026-04-22T08:33:04.69Z</time></trkpt><trkpt lat="40.0851334" lon="9.5818545"><ele>612.6666666666667</ele><time>2026-04-22T08:33:05.691Z</time></trkpt><trkpt lat="40.0851564" lon="9.5817516"><ele>614.3333333333334</ele><time>2026-04-22T08:33:06.677Z</time></trkpt><trkpt lat="40.0851766" lon="9.5816377"><ele>616.0</ele><time>2026-04-22T08:33:07.685Z</time></trkpt><trkpt lat="40.085205" lon="9.581518"><ele>616.0</ele><time>2026-04-22T08:33:08.681Z</time></trkpt><trkpt lat="40.0852283" lon="9.5814076"><ele>616.0</ele><time>2026-04-22T08:33:09.682Z</time></trkpt><trkpt lat="40.0852617" lon="9.5813045"><ele>616.0</ele><time>2026-04-22T08:33:10.685Z</time></trkpt><trkpt lat="40.0852911" lon="9.5812114"><ele>616.0</ele><time>2026-04-22T08:33:11.681Z</time></trkpt><trkpt lat="40.0853415" lon="9.5811194"><ele>616.0</ele><time>2026-04-22T08:33:12.675Z</time></trkpt><trkpt lat="40.085362" lon="9.5810328"><ele>616.0</ele><time>2026-04-22T08:33:13.682Z</time></trkpt><trkpt lat="40.0853696" lon="9.5809447"><ele>615.5</ele><time>2026-04-22T08:33:14.68Z</time></trkpt><trkpt lat="40.0853802" lon="9.5808612"><ele>615.0</ele><time>2026-04-22T08:33:15.679Z</time></trkpt><trkpt lat="40.0853474" lon="9.5807085"><ele>614.5</ele><time>2026-04-22T08:33:17.677Z</time></trkpt><trkpt lat="40.0853136" lon="9.5806366"><ele>614.0</ele><time>2026-04-22T08:33:18.683Z</time></trkpt><trkpt lat="40.0852671" lon="9.5805708"><ele>613.5</ele><time>2026-04-22T08:33:19.686Z</time></trkpt><trkpt lat="40.0852197" lon="9.5804943"><ele>613.0</ele><time>2026-04-22T08:33:20.686Z</time></trkpt><trkpt lat="40.0851865" lon="9.5803889"><ele>613.4285714285714</ele><time>2026-04-22T08:33:21.683Z</time></trkpt><trkpt lat="40.0851618" lon="9.5802997"><ele>613.8571428571429</ele><time>2026-04-22T08:33:22.679Z</time></trkpt><trkpt lat="40.0851739" lon="9.5801993"><ele>614.2857142857142</ele><time>2026-04-22T08:33:23.679Z</time></trkpt><trkpt lat="40.0852027" lon="9.5800969"><ele>614.7142857142858</ele><time>2026-04-22T08:33:24.687Z</time></trkpt><trkpt lat="40.0852356" lon="9.580024"><ele>615.1428571428571</ele><time>2026-04-22T08:33:25.691Z</time></trkpt><trkpt lat="40.0852762" lon="9.5799551"><ele>615.5714285714286</ele><time>2026-04-22T08:33:26.679Z</time></trkpt><trkpt lat="40.0853383" lon="9.5798982"><ele>616.0</ele><time>2026-04-22T08:33:27.68Z</time></trkpt><trkpt lat="40.0854216" lon="9.579859"><ele>616.0</ele><time>2026-04-22T08:33:28.679Z</time></trkpt><trkpt lat="40.0855067" lon="9.5798302"><ele>616.0</ele><time>2026-04-22T08:33:29.682Z</time></trkpt><trkpt lat="40.0855911" lon="9.5797858"><ele>616.0</ele><time>2026-04-22T08:33:30.678Z</time></trkpt><trkpt lat="40.0856834" lon="9.5797448"><ele>616.0</ele><time>2026-04-22T08:33:31.678Z</time></trkpt><trkpt lat="40.0857785" lon="9.5797059"><ele>616.0</ele><time>2026-04-22T08:33:32.68Z</time></trkpt><trkpt lat="40.0858718" lon="9.5796661"><ele>622.0</ele><time>2026-04-22T08:33:33.683Z</time></trkpt><trkpt lat="40.0859599" lon="9.5796376"><ele>628.0</ele><time>2026-04-22T08:33:34.679Z</time></trkpt><trkpt lat="40.0860625" lon="9.5796197"><ele>634.0</ele><time>2026-04-22T08:33:35.678Z</time></trkpt><trkpt lat="40.0861498" lon="9.5796213"><ele>640.0</ele><time>2026-04-22T08:33:36.679Z</time></trkpt><trkpt lat="40.0862219" lon="9.5796226"><ele>646.0</ele><time>2026-04-22T08:33:37.671Z</time></trkpt><trkpt lat="40.0863377" lon="9.5795946"><ele>646.0</ele><time>2026-04-22T08:33:39.668Z</time></trkpt><trkpt lat="40.0864683" lon="9.5795768"><ele>646.0</ele><time>2026-04-22T08:33:41.671Z</time></trkpt><trkpt lat="40.0865387" lon="9.579588"><ele>646.0</ele><time>2026-04-22T08:33:42.676Z</time></trkpt><trkpt lat="40.0866098" lon="9.5795769"><ele>646.0</ele><time>2026-04-22T08:33:43.672Z</time></trkpt><trkpt lat="40.0866917" lon="9.5795867"><ele>646.0</ele><time>2026-04-22T08:33:44.68Z</time></trkpt><trkpt lat="40.0867586" lon="9.579571"><ele>646.0</ele><time>2026-04-22T08:33:45.681Z</time></trkpt><trkpt lat="40.0868351" lon="9.5795441"><ele>643.7142857142858</ele><time>2026-04-22T08:33:46.676Z</time></trkpt><trkpt lat="40.0868999" lon="9.5795081"><ele>641.4285714285714</ele><time>2026-04-22T08:33:47.673Z</time></trkpt><trkpt lat="40.0869561" lon="9.5794611"><ele>639.1428571428571</ele><time>2026-04-22T08:33:48.667Z</time></trkpt><trkpt lat="40.0870139" lon="9.5794135"><ele>636.8571428571429</ele><time>2026-04-22T08:33:49.676Z</time></trkpt><trkpt lat="40.0870571" lon="9.5793382"><ele>634.5714285714286</ele><time>2026-04-22T08:33:50.674Z</time></trkpt><trkpt lat="40.0870994" lon="9.5792544"><ele>632.2857142857143</ele><time>2026-04-22T08:33:51.687Z</time></trkpt><trkpt lat="40.0871356" lon="9.5791659"><ele>630.0</ele><time>2026-04-22T08:33:52.69Z</time></trkpt><trkpt lat="40.0871627" lon="9.5790711"><ele>630.0</ele><time>2026-04-22T08:33:53.687Z</time></trkpt><trkpt lat="40.087206" lon="9.5789841"><ele>630.0</ele><time>2026-04-22T08:33:54.685Z</time></trkpt><trkpt lat="40.0872335" lon="9.5789021"><ele>630.0</ele><time>2026-04-22T08:33:55.684Z</time></trkpt><trkpt lat="40.0872688" lon="9.5788249"><ele>630.0</ele><time>2026-04-22T08:33:56.683Z</time></trkpt><trkpt lat="40.0873186" lon="9.5787583"><ele>630.0</ele><time>2026-04-22T08:33:57.686Z</time></trkpt><trkpt lat="40.0873633" lon="9.5786868"><ele>630.0</ele><time>2026-04-22T08:33:58.678Z</time></trkpt><trkpt lat="40.0874205" lon="9.57865"><ele>630.0</ele><time>2026-04-22T08:33:59.68Z</time></trkpt><trkpt lat="40.0875167" lon="9.5785918"><ele>632.0</ele><time>2026-04-22T08:34:01.679Z</time></trkpt><trkpt lat="40.087589" lon="9.5786431"><ele>634.0</ele><time>2026-04-22T08:34:03.681Z</time></trkpt><trkpt lat="40.0875728" lon="9.5787794"><ele>636.0</ele><time>2026-04-22T08:35:31.701Z</time></trkpt><trkpt lat="40.0875368" lon="9.5788527"><ele>638.0</ele><time>2026-04-22T08:35:32.699Z</time></trkpt><trkpt lat="40.0875028" lon="9.5789502"><ele>640.0</ele><time>2026-04-22T08:35:33.692Z</time></trkpt><trkpt lat="40.0874804" lon="9.5790555"><ele>642.0</ele><time>2026-04-22T08:35:34.701Z</time></trkpt><trkpt lat="40.0874625" lon="9.5791552"><ele>640.0</ele><time>2026-04-22T08:35:35.697Z</time></trkpt><trkpt lat="40.0874493" lon="9.5792616"><ele>638.0</ele><time>2026-04-22T08:35:36.694Z</time></trkpt><trkpt lat="40.0874233" lon="9.5793547"><ele>636.0</ele><time>2026-04-22T08:35:37.69Z</time></trkpt><trkpt lat="40.0874084" lon="9.5794496"><ele>634.0</ele><time>2026-04-22T08:35:38.695Z</time></trkpt><trkpt lat="40.0873879" lon="9.5795515"><ele>632.0</ele><time>2026-04-22T08:35:39.692Z</time></trkpt><trkpt lat="40.0873818" lon="9.5796567"><ele>630.0</ele><time>2026-04-22T08:35:40.691Z</time></trkpt><trkpt lat="40.0873685" lon="9.5797589"><ele>634.1666666666666</ele><time>2026-04-22T08:35:41.693Z</time></trkpt><trkpt lat="40.0873518" lon="9.5798579"><ele>638.3333333333334</ele><time>2026-04-22T08:35:42.69Z</time></trkpt><trkpt lat="40.0873374" lon="9.5799513"><ele>642.5</ele><time>2026-04-22T08:35:43.688Z</time></trkpt><trkpt lat="40.0873169" lon="9.5800372"><ele>646.6666666666667</ele><time>2026-04-22T08:35:44.692Z</time></trkpt><trkpt lat="40.087282" lon="9.5801709"><ele>650.8333333333334</ele><time>2026-04-22T08:35:46.683Z</time></trkpt><trkpt lat="40.0873238" lon="9.5802781"><ele>655.0</ele><time>2026-04-22T08:35:48.687Z</time></trkpt><trkpt lat="40.0874333" lon="9.5803171"><ele>657.3333333333334</ele><time>2026-04-22T08:35:50.69Z</time></trkpt><trkpt lat="40.0875429" lon="9.5803025"><ele>659.6666666666667</ele><time>2026-04-22T08:35:52.698Z</time></trkpt><trkpt lat="40.0876146" lon="9.5803043"><ele>662.0</ele><time>2026-04-22T08:35:53.689Z</time></trkpt><trkpt lat="40.087692" lon="9.5802917"><ele>664.3333333333334</ele><time>2026-04-22T08:35:54.699Z</time></trkpt><trkpt lat="40.087789" lon="9.5802809"><ele>666.6666666666666</ele><time>2026-04-22T08:35:55.694Z</time></trkpt><trkpt lat="40.0878791" lon="9.5802725"><ele>669.0</ele><time>2026-04-22T08:35:56.698Z</time></trkpt><trkpt lat="40.0879533" lon="9.5802836"><ele>669.0</ele><time>2026-04-22T08:35:57.698Z</time></trkpt><trkpt lat="40.0880308" lon="9.58027"><ele>669.0</ele><time>2026-04-22T08:35:58.697Z</time></trkpt><trkpt lat="40.0881022" lon="9.580236"><ele>669.0</ele><time>2026-04-22T08:35:59.697Z</time></trkpt><trkpt lat="40.0881685" lon="9.5801991"><ele>669.0</ele><time>2026-04-22T08:36:00.695Z</time></trkpt><trkpt lat="40.0882303" lon="9.5801634"><ele>669.0</ele><time>2026-04-22T08:36:01.692Z</time></trkpt><trkpt lat="40.0882985" lon="9.5801279"><ele>669.0</ele><time>2026-04-22T08:36:02.687Z</time></trkpt><trkpt lat="40.0883859" lon="9.5800917"><ele>671.5</ele><time>2026-04-22T08:36:03.685Z</time></trkpt><trkpt lat="40.0884665" lon="9.5800697"><ele>674.0</ele><time>2026-04-22T08:36:04.695Z</time></trkpt><trkpt lat="40.0885501" lon="9.5800584"><ele>676.5</ele><time>2026-04-22T08:36:05.691Z</time></trkpt><trkpt lat="40.0886314" lon="9.5800634"><ele>679.0</ele><time>2026-04-22T08:36:06.684Z</time></trkpt><trkpt lat="40.0887107" lon="9.5800463"><ele>681.5</ele><time>2026-04-22T08:36:07.685Z</time></trkpt><trkpt lat="40.0887859" lon="9.5800216"><ele>684.0</ele><time>2026-04-22T08:36:08.689Z</time></trkpt><trkpt lat="40.0888612" lon="9.5799997"><ele>684.0</ele><time>2026-04-22T08:36:09.682Z</time></trkpt><trkpt lat="40.0889325" lon="9.579983"><ele>684.0</ele><time>2026-04-22T08:36:10.692Z</time></trkpt><trkpt lat="40.088998" lon="9.5799599"><ele>684.0</ele><time>2026-04-22T08:36:11.688Z</time></trkpt><trkpt lat="40.0890781" lon="9.5799308"><ele>684.0</ele><time>2026-04-22T08:36:13.692Z</time></trkpt><trkpt lat="40.089142" lon="9.5798419"><ele>684.0</ele><time>2026-04-22T08:36:15.689Z</time></trkpt><trkpt lat="40.0891956" lon="9.579783"><ele>684.0</ele><time>2026-04-22T08:36:16.694Z</time></trkpt><trkpt lat="40.0892515" lon="9.5797122"><ele>685.0</ele><time>2026-04-22T08:36:17.693Z</time></trkpt><trkpt lat="40.0893112" lon="9.5796347"><ele>686.0</ele><time>2026-04-22T08:36:18.692Z</time></trkpt><trkpt lat="40.0893772" lon="9.5795616"><ele>687.0</ele><time>2026-04-22T08:36:19.698Z</time></trkpt><trkpt lat="40.0894451" lon="9.5795002"><ele>688.0</ele><time>2026-04-22T08:36:20.691Z</time></trkpt><trkpt lat="40.0895142" lon="9.5794514"><ele>689.0</ele><time>2026-04-22T08:36:21.69Z</time></trkpt><trkpt lat="40.08958" lon="9.5794022"><ele>690.0</ele><time>2026-04-22T08:36:22.694Z</time></trkpt><trkpt lat="40.0896333" lon="9.5793566"><ele>690.0</ele><time>2026-04-22T08:36:23.685Z</time></trkpt><trkpt lat="40.0896864" lon="9.5792986"><ele>690.0</ele><time>2026-04-22T08:36:24.685Z</time></trkpt><trkpt lat="40.089769" lon="9.5791899"><ele>690.0</ele><time>2026-04-22T08:36:26.693Z</time></trkpt><trkpt lat="40.0898429" lon="9.5790709"><ele>690.0</ele><time>2026-04-22T08:36:28.686Z</time></trkpt><trkpt lat="40.0899218" lon="9.5789668"><ele>690.0</ele><time>2026-04-22T08:36:30.689Z</time></trkpt><trkpt lat="40.0900057" lon="9.5788664"><ele>688.6</ele><time>2026-04-22T08:36:32.692Z</time></trkpt><trkpt lat="40.0900676" lon="9.5787521"><ele>687.2</ele><time>2026-04-22T08:36:34.691Z</time></trkpt><trkpt lat="40.090135" lon="9.5786651"><ele>685.8</ele><time>2026-04-22T08:36:36.694Z</time></trkpt><trkpt lat="40.0902069" lon="9.5786115"><ele>684.4</ele><time>2026-04-22T08:36:38.694Z</time></trkpt><trkpt lat="40.0902926" lon="9.5785521"><ele>683.0</ele><time>2026-04-22T08:36:40.697Z</time></trkpt><trkpt lat="40.0903874" lon="9.5784853"><ele>682.8</ele><time>2026-04-22T08:36:42.686Z</time></trkpt><trkpt lat="40.0905093" lon="9.5784455"><ele>682.5999999999999</ele><time>2026-04-22T08:36:44.693Z</time></trkpt><trkpt lat="40.0906076" lon="9.5784095"><ele>682.4000000000001</ele><time>2026-04-22T08:36:46.688Z</time></trkpt><trkpt lat="40.0907151" lon="9.5783438"><ele>682.2</ele><time>2026-04-22T08:36:48.689Z</time></trkpt><trkpt lat="40.0907727" lon="9.5783052"><ele>682.0</ele><time>2026-04-22T08:36:49.692Z</time></trkpt><trkpt lat="40.0908446" lon="9.578269"><ele>681.8333333333334</ele><time>2026-04-22T08:36:50.688Z</time></trkpt><trkpt lat="40.0909043" lon="9.5782406"><ele>681.6666666666667</ele><time>2026-04-22T08:36:51.691Z</time></trkpt><trkpt lat="40.0909681" lon="9.5782002"><ele>681.5</ele><time>2026-04-22T08:36:52.686Z</time></trkpt><trkpt lat="40.0910375" lon="9.5781611"><ele>681.3333333333334</ele><time>2026-04-22T08:36:53.695Z</time></trkpt><trkpt lat="40.0911153" lon="9.5781107"><ele>681.1666666666666</ele><time>2026-04-22T08:36:54.698Z</time></trkpt><trkpt lat="40.0911953" lon="9.5780583"><ele>681.0</ele><time>2026-04-22T08:36:55.69Z</time></trkpt><trkpt lat="40.0912662" lon="9.5779984"><ele>681.0</ele><time>2026-04-22T08:36:56.696Z</time></trkpt><trkpt lat="40.0913406" lon="9.5779488"><ele>681.0</ele><time>2026-04-22T08:36:57.699Z</time></trkpt><trkpt lat="40.0914181" lon="9.5779144"><ele>681.0</ele><time>2026-04-22T08:36:58.693Z</time></trkpt><trkpt lat="40.0915008" lon="9.5778885"><ele>681.0</ele><time>2026-04-22T08:36:59.691Z</time></trkpt><trkpt lat="40.0915736" lon="9.5778793"><ele>681.0</ele><time>2026-04-22T08:37:00.691Z</time></trkpt><trkpt lat="40.0916501" lon="9.5778653"><ele>681.0</ele><time>2026-04-22T08:37:01.693Z</time></trkpt><trkpt lat="40.0917245" lon="9.5778495"><ele>681.0</ele><time>2026-04-22T08:37:02.688Z</time></trkpt><trkpt lat="40.0917928" lon="9.5778594"><ele>681.0</ele><time>2026-04-22T08:37:03.689Z</time></trkpt><trkpt lat="40.0918652" lon="9.5778793"><ele>681.0</ele><time>2026-04-22T08:37:04.684Z</time></trkpt><trkpt lat="40.0919907" lon="9.5779103"><ele>681.0</ele><time>2026-04-22T08:37:06.689Z</time></trkpt><trkpt lat="40.0921178" lon="9.5778873"><ele>681.0</ele><time>2026-04-22T08:37:08.687Z</time></trkpt><trkpt lat="40.0921821" lon="9.5778559"><ele>682.8333333333334</ele><time>2026-04-22T08:37:09.681Z</time></trkpt><trkpt lat="40.0922388" lon="9.5777979"><ele>684.6666666666666</ele><time>2026-04-22T08:37:10.687Z</time></trkpt><trkpt lat="40.0922989" lon="9.5777462"><ele>686.5</ele><time>2026-04-22T08:37:11.696Z</time></trkpt><trkpt lat="40.0923475" lon="9.5776888"><ele>688.3333333333333</ele><time>2026-04-22T08:37:12.687Z</time></trkpt><trkpt lat="40.0924085" lon="9.5776327"><ele>690.1666666666666</ele><time>2026-04-22T08:37:13.694Z</time></trkpt><trkpt lat="40.0924784" lon="9.5775697"><ele>692.0</ele><time>2026-04-22T08:37:14.688Z</time></trkpt><trkpt lat="40.0925371" lon="9.5774962"><ele>693.0</ele><time>2026-04-22T08:37:15.687Z</time></trkpt><trkpt lat="40.0925888" lon="9.5774349"><ele>694.0</ele><time>2026-04-22T08:37:16.695Z</time></trkpt><trkpt lat="40.092633" lon="9.5773601"><ele>695.0</ele><time>2026-04-22T08:37:17.69Z</time></trkpt><trkpt lat="40.0926703" lon="9.5772781"><ele>696.0</ele><time>2026-04-22T08:37:18.691Z</time></trkpt><trkpt lat="40.0927006" lon="9.5771843"><ele>697.0</ele><time>2026-04-22T08:37:19.697Z</time></trkpt><trkpt lat="40.0927439" lon="9.5770879"><ele>698.0</ele><time>2026-04-22T08:37:20.691Z</time></trkpt><trkpt lat="40.0927793" lon="9.5769958"><ele>698.6666666666666</ele><time>2026-04-22T08:37:21.692Z</time></trkpt><trkpt lat="40.0928272" lon="9.5769151"><ele>699.3333333333333</ele><time>2026-04-22T08:37:22.687Z</time></trkpt><trkpt lat="40.0928798" lon="9.5768385"><ele>700.0</ele><time>2026-04-22T08:37:23.693Z</time></trkpt><trkpt lat="40.092931" lon="9.5767618"><ele>700.6666666666666</ele><time>2026-04-22T08:37:24.693Z</time></trkpt><trkpt lat="40.0929944" lon="9.5766977"><ele>701.3333333333334</ele><time>2026-04-22T08:37:25.698Z</time></trkpt><trkpt lat="40.0930636" lon="9.5766351"><ele>702.0</ele><time>2026-04-22T08:37:26.697Z</time></trkpt><trkpt lat="40.09312" lon="9.5765801"><ele>702.0</ele><time>2026-04-22T08:37:27.692Z</time></trkpt><trkpt lat="40.0931854" lon="9.5765289"><ele>702.0</ele><time>2026-04-22T08:37:28.697Z</time></trkpt><trkpt lat="40.0932485" lon="9.5764837"><ele>702.0</ele><time>2026-04-22T08:37:29.689Z</time></trkpt><trkpt lat="40.0933075" lon="9.576429"><ele>702.0</ele><time>2026-04-22T08:37:30.692Z</time></trkpt><trkpt lat="40.0933612" lon="9.5763739"><ele>702.0</ele><time>2026-04-22T08:37:31.685Z</time></trkpt><trkpt lat="40.0934067" lon="9.5763124"><ele>702.0</ele><time>2026-04-22T08:37:32.693Z</time></trkpt><trkpt lat="40.0935078" lon="9.5762295"><ele>702.3333333333334</ele><time>2026-04-22T08:37:34.684Z</time></trkpt><trkpt lat="40.0935571" lon="9.5761681"><ele>702.6666666666666</ele><time>2026-04-22T08:37:35.69Z</time></trkpt><trkpt lat="40.0935974" lon="9.5760919"><ele>703.0</ele><time>2026-04-22T08:37:36.697Z</time></trkpt><trkpt lat="40.0936444" lon="9.5760198"><ele>703.3333333333333</ele><time>2026-04-22T08:37:37.69Z</time></trkpt><trkpt lat="40.0937504" lon="9.5758963"><ele>703.6666666666666</ele><time>2026-04-22T08:37:39.698Z</time></trkpt><trkpt lat="40.093812" lon="9.5758408"><ele>704.0</ele><time>2026-04-22T08:37:40.69Z</time></trkpt><trkpt lat="40.0938628" lon="9.5757853"><ele>704.0</ele><time>2026-04-22T08:37:41.691Z</time></trkpt><trkpt lat="40.0939101" lon="9.5757185"><ele>704.0</ele><time>2026-04-22T08:37:42.691Z</time></trkpt><trkpt lat="40.093961" lon="9.5756558"><ele>704.0</ele><time>2026-04-22T08:37:43.689Z</time></trkpt><trkpt lat="40.0940109" lon="9.5755742"><ele>704.0</ele><time>2026-04-22T08:37:44.688Z</time></trkpt><trkpt lat="40.0940613" lon="9.5755003"><ele>704.0</ele><time>2026-04-22T08:37:45.686Z</time></trkpt><trkpt lat="40.0941193" lon="9.575426"><ele>704.0</ele><time>2026-04-22T08:37:46.691Z</time></trkpt><trkpt lat="40.0941832" lon="9.5753712"><ele>702.2857142857143</ele><time>2026-04-22T08:37:47.699Z</time></trkpt><trkpt lat="40.094251" lon="9.575329"><ele>700.5714285714286</ele><time>2026-04-22T08:37:48.697Z</time></trkpt><trkpt lat="40.0943226" lon="9.575304"><ele>698.8571428571429</ele><time>2026-04-22T08:37:49.696Z</time></trkpt><trkpt lat="40.0944018" lon="9.575275"><ele>697.1428571428571</ele><time>2026-04-22T08:37:50.69Z</time></trkpt><trkpt lat="40.0944728" lon="9.5752437"><ele>695.4285714285714</ele><time>2026-04-22T08:37:51.686Z</time></trkpt><trkpt lat="40.094536" lon="9.5752014"><ele>693.7142857142857</ele><time>2026-04-22T08:37:52.693Z</time></trkpt><trkpt lat="40.0945866" lon="9.5751432"><ele>692.0</ele><time>2026-04-22T08:37:53.692Z</time></trkpt><trkpt lat="40.094638" lon="9.5750776"><ele>692.0</ele><time>2026-04-22T08:37:54.691Z</time></trkpt><trkpt lat="40.0946876" lon="9.5750235"><ele>692.0</ele><time>2026-04-22T08:37:55.69Z</time></trkpt><trkpt lat="40.0947518" lon="9.5749737"><ele>692.0</ele><time>2026-04-22T08:37:56.696Z</time></trkpt><trkpt lat="40.0948174" lon="9.5749333"><ele>692.0</ele><time>2026-04-22T08:37:57.696Z</time></trkpt><trkpt lat="40.0948847" lon="9.5748927"><ele>692.0</ele><time>2026-04-22T08:37:58.7Z</time></trkpt><trkpt lat="40.0949518" lon="9.5748396"><ele>692.0</ele><time>2026-04-22T08:37:59.694Z</time></trkpt><trkpt lat="40.0950165" lon="9.5747896"><ele>692.0</ele><time>2026-04-22T08:38:00.692Z</time></trkpt><trkpt lat="40.0950774" lon="9.5747357"><ele>693.0</ele><time>2026-04-22T08:38:01.698Z</time></trkpt><trkpt lat="40.0951345" lon="9.5746752"><ele>694.0</ele><time>2026-04-22T08:38:02.69Z</time></trkpt><trkpt lat="40.0951893" lon="9.5745976"><ele>695.0</ele><time>2026-04-22T08:38:03.695Z</time></trkpt><trkpt lat="40.0952462" lon="9.5745231"><ele>696.0</ele><time>2026-04-22T08:38:04.693Z</time></trkpt><trkpt lat="40.0953049" lon="9.5744549"><ele>697.0</ele><time>2026-04-22T08:38:05.69Z</time></trkpt><trkpt lat="40.0953571" lon="9.5743887"><ele>698.0</ele><time>2026-04-22T08:38:06.689Z</time></trkpt><trkpt lat="40.0954033" lon="9.5743186"><ele>699.0</ele><time>2026-04-22T08:38:07.687Z</time></trkpt><trkpt lat="40.0954316" lon="9.5742331"><ele>700.0</ele><time>2026-04-22T08:38:08.693Z</time></trkpt><trkpt lat="40.0954605" lon="9.574144"><ele>701.0</ele><time>2026-04-22T08:38:09.688Z</time></trkpt><trkpt lat="40.0954893" lon="9.5740486"><ele>702.0</ele><time>2026-04-22T08:38:10.688Z</time></trkpt><trkpt lat="40.095528" lon="9.5739549"><ele>703.0</ele><time>2026-04-22T08:38:11.698Z</time></trkpt><trkpt lat="40.0955788" lon="9.5738676"><ele>704.0</ele><time>2026-04-22T08:38:12.69Z</time></trkpt><trkpt lat="40.0956482" lon="9.5738052"><ele>704.0</ele><time>2026-04-22T08:38:13.697Z</time></trkpt><trkpt lat="40.0957268" lon="9.5737488"><ele>704.0</ele><time>2026-04-22T08:38:14.713Z</time></trkpt><trkpt lat="40.0958068" lon="9.5736928"><ele>704.0</ele><time>2026-04-22T08:38:15.704Z</time></trkpt><trkpt lat="40.0958847" lon="9.5736169"><ele>704.0</ele><time>2026-04-22T08:38:16.704Z</time></trkpt><trkpt lat="40.0959687" lon="9.5735506"><ele>704.0</ele><time>2026-04-22T08:38:17.702Z</time></trkpt><trkpt lat="40.0960583" lon="9.5734948"><ele>705.1666666666666</ele><time>2026-04-22T08:38:18.708Z</time></trkpt><trkpt lat="40.0961418" lon="9.5734455"><ele>706.3333333333333</ele><time>2026-04-22T08:38:19.701Z</time></trkpt><trkpt lat="40.0962147" lon="9.5733964"><ele>707.5</ele><time>2026-04-22T08:38:20.703Z</time></trkpt><trkpt lat="40.0962811" lon="9.5733302"><ele>708.6666666666666</ele><time>2026-04-22T08:38:21.699Z</time></trkpt><trkpt lat="40.0963473" lon="9.5732745"><ele>709.8333333333334</ele><time>2026-04-22T08:38:22.7Z</time></trkpt><trkpt lat="40.0964156" lon="9.5732228"><ele>711.0</ele><time>2026-04-22T08:38:23.697Z</time></trkpt><trkpt lat="40.0964822" lon="9.5731749"><ele>711.0</ele><time>2026-04-22T08:38:24.695Z</time></trkpt><trkpt lat="40.0965561" lon="9.5731317"><ele>711.0</ele><time>2026-04-22T08:38:25.705Z</time></trkpt><trkpt lat="40.0966407" lon="9.5730666"><ele>711.0</ele><time>2026-04-22T08:38:26.698Z</time></trkpt><trkpt lat="40.0967294" lon="9.5730201"><ele>711.0</ele><time>2026-04-22T08:38:27.697Z</time></trkpt><trkpt lat="40.0968087" lon="9.5729787"><ele>711.0</ele><time>2026-04-22T08:38:28.699Z</time></trkpt><trkpt lat="40.0968794" lon="9.5729348"><ele>711.0</ele><time>2026-04-22T08:38:29.7Z</time></trkpt><trkpt lat="40.096954" lon="9.5729009"><ele>712.1999999999999</ele><time>2026-04-22T08:38:30.701Z</time></trkpt><trkpt lat="40.0970217" lon="9.5728715"><ele>713.4</ele><time>2026-04-22T08:38:31.696Z</time></trkpt><trkpt lat="40.0970839" lon="9.5728372"><ele>714.6</ele><time>2026-04-22T08:38:32.69Z</time></trkpt><trkpt lat="40.0971829" lon="9.5727331"><ele>715.8</ele><time>2026-04-22T08:38:34.675Z</time></trkpt><trkpt lat="40.0972537" lon="9.5725855"><ele>717.0</ele><time>2026-04-22T08:38:36.684Z</time></trkpt><trkpt lat="40.0972805" lon="9.5724912"><ele>717.0</ele><time>2026-04-22T08:38:37.679Z</time></trkpt><trkpt lat="40.0972983" lon="9.5723994"><ele>717.0</ele><time>2026-04-22T08:38:38.683Z</time></trkpt><trkpt lat="40.0972973" lon="9.5723087"><ele>717.0</ele><time>2026-04-22T08:38:39.689Z</time></trkpt><trkpt lat="40.097273" lon="9.5722258"><ele>717.0</ele><time>2026-04-22T08:38:40.687Z</time></trkpt><trkpt lat="40.097208" lon="9.5720895"><ele>717.0</ele><time>2026-04-22T08:38:42.685Z</time></trkpt><trkpt lat="40.0971712" lon="9.5719444"><ele>718.0</ele><time>2026-04-22T08:38:44.692Z</time></trkpt><trkpt lat="40.0972233" lon="9.5717759"><ele>719.0</ele><time>2026-04-22T08:38:46.687Z</time></trkpt><trkpt lat="40.0972567" lon="9.5716769"><ele>720.0</ele><time>2026-04-22T08:38:47.696Z</time></trkpt><trkpt lat="40.0972929" lon="9.5715755"><ele>721.0</ele><time>2026-04-22T08:38:48.695Z</time></trkpt><trkpt lat="40.0973151" lon="9.57147"><ele>722.0</ele><time>2026-04-22T08:38:49.697Z</time></trkpt><trkpt lat="40.0973415" lon="9.5713784"><ele>722.0</ele><time>2026-04-22T08:38:50.688Z</time></trkpt><trkpt lat="40.0973627" lon="9.5712924"><ele>722.0</ele><time>2026-04-22T08:38:51.691Z</time></trkpt><trkpt lat="40.0973971" lon="9.5711648"><ele>722.0</ele><time>2026-04-22T08:38:53.685Z</time></trkpt><trkpt lat="40.0974008" lon="9.5710372"><ele>722.0</ele><time>2026-04-22T08:38:55.691Z</time></trkpt><trkpt lat="40.0974007" lon="9.5709088"><ele>722.0</ele><time>2026-04-22T08:38:57.69Z</time></trkpt><trkpt lat="40.097372" lon="9.5708304"><ele>722.0</ele><time>2026-04-22T08:40:07.702Z</time></trkpt><trkpt lat="40.0972921" lon="9.5707996"><ele>727.0</ele><time>2026-04-22T08:42:17.695Z</time></trkpt><trkpt lat="40.0971678" lon="9.5708259"><ele>732.0</ele><time>2026-04-22T08:42:19.694Z</time></trkpt><trkpt lat="40.0970965" lon="9.5708284"><ele>737.0</ele><time>2026-04-22T08:42:20.696Z</time></trkpt><trkpt lat="40.0970207" lon="9.5708305"><ele>742.0</ele><time>2026-04-22T08:42:21.698Z</time></trkpt><trkpt lat="40.0969478" lon="9.5708348"><ele>747.0</ele><time>2026-04-22T08:42:22.696Z</time></trkpt><trkpt lat="40.0968278" lon="9.5708469"><ele>747.0</ele><time>2026-04-22T08:42:24.702Z</time></trkpt><trkpt lat="40.0967139" lon="9.5708647"><ele>747.0</ele><time>2026-04-22T08:42:26.7Z</time></trkpt><trkpt lat="40.0966019" lon="9.5708821"><ele>747.0</ele><time>2026-04-22T08:42:28.701Z</time></trkpt><trkpt lat="40.0964857" lon="9.5708532"><ele>747.0</ele><time>2026-04-22T08:42:30.698Z</time></trkpt><trkpt lat="40.0964238" lon="9.5708323"><ele>747.0</ele><time>2026-04-22T08:42:31.695Z</time></trkpt><trkpt lat="40.0963665" lon="9.570798"><ele>744.8571428571428</ele><time>2026-04-22T08:42:32.697Z</time></trkpt><trkpt lat="40.0962984" lon="9.5707532"><ele>742.7142857142857</ele><time>2026-04-22T08:42:33.698Z</time></trkpt><trkpt lat="40.0962339" lon="9.570709"><ele>740.5714285714286</ele><time>2026-04-22T08:42:34.69Z</time></trkpt><trkpt lat="40.0961735" lon="9.5706579"><ele>738.4285714285713</ele><time>2026-04-22T08:42:35.696Z</time></trkpt><trkpt lat="40.0961136" lon="9.5706154"><ele>736.2857142857143</ele><time>2026-04-22T08:42:36.691Z</time></trkpt><trkpt lat="40.096051" lon="9.5705742"><ele>734.1428571428571</ele><time>2026-04-22T08:42:37.694Z</time></trkpt><trkpt lat="40.0959958" lon="9.5705209"><ele>732.0</ele><time>2026-04-22T08:42:38.694Z</time></trkpt><trkpt lat="40.0959378" lon="9.5704631"><ele>732.0</ele><time>2026-04-22T08:42:39.695Z</time></trkpt><trkpt lat="40.0958758" lon="9.5703974"><ele>732.0</ele><time>2026-04-22T08:42:40.69Z</time></trkpt><trkpt lat="40.0958248" lon="9.5703344"><ele>732.0</ele><time>2026-04-22T08:42:41.694Z</time></trkpt><trkpt lat="40.095774" lon="9.5702773"><ele>732.0</ele><time>2026-04-22T08:42:42.699Z</time></trkpt><trkpt lat="40.0957172" lon="9.5702117"><ele>732.0</ele><time>2026-04-22T08:42:43.698Z</time></trkpt><trkpt lat="40.095661" lon="9.5701502"><ele>732.0</ele><time>2026-04-22T08:42:44.692Z</time></trkpt><trkpt lat="40.0955999" lon="9.5701044"><ele>732.0</ele><time>2026-04-22T08:42:45.696Z</time></trkpt><trkpt lat="40.0955212" lon="9.5700726"><ele>732.5</ele><time>2026-04-22T08:42:46.691Z</time></trkpt><trkpt lat="40.0954409" lon="9.5700494"><ele>733.0</ele><time>2026-04-22T08:42:47.699Z</time></trkpt><trkpt lat="40.0953567" lon="9.5700335"><ele>733.5</ele><time>2026-04-22T08:42:48.692Z</time></trkpt><trkpt lat="40.0952853" lon="9.5700035"><ele>734.0</ele><time>2026-04-22T08:42:49.692Z</time></trkpt><trkpt lat="40.095217" lon="9.5699345"><ele>734.5</ele><time>2026-04-22T08:42:50.694Z</time></trkpt><trkpt lat="40.0951624" lon="9.5698472"><ele>735.0</ele><time>2026-04-22T08:42:51.699Z</time></trkpt><trkpt lat="40.0951005" lon="9.5697703"><ele>735.0</ele><time>2026-04-22T08:42:52.693Z</time></trkpt><trkpt lat="40.0950423" lon="9.5696956"><ele>735.0</ele><time>2026-04-22T08:42:53.694Z</time></trkpt><trkpt lat="40.0949891" lon="9.5696201"><ele>735.0</ele><time>2026-04-22T08:42:54.694Z</time></trkpt><trkpt lat="40.0949267" lon="9.5695543"><ele>735.0</ele><time>2026-04-22T08:42:55.695Z</time></trkpt><trkpt lat="40.0948755" lon="9.5694829"><ele>735.0</ele><time>2026-04-22T08:42:56.7Z</time></trkpt><trkpt lat="40.094793" lon="9.5693693"><ele>735.0</ele><time>2026-04-22T08:42:58.704Z</time></trkpt><trkpt lat="40.0947344" lon="9.5693054"><ele>735.6666666666666</ele><time>2026-04-22T08:42:59.694Z</time></trkpt><trkpt lat="40.0946778" lon="9.5692192"><ele>736.3333333333334</ele><time>2026-04-22T08:43:00.697Z</time></trkpt><trkpt lat="40.0946241" lon="9.5691345"><ele>737.0</ele><time>2026-04-22T08:43:01.695Z</time></trkpt><trkpt lat="40.0945888" lon="9.5690333"><ele>737.6666666666667</ele><time>2026-04-22T08:43:02.699Z</time></trkpt><trkpt lat="40.0945368" lon="9.5689335"><ele>738.3333333333334</ele><time>2026-04-22T08:43:03.697Z</time></trkpt><trkpt lat="40.094486" lon="9.568829"><ele>739.0</ele><time>2026-04-22T08:43:04.692Z</time></trkpt><trkpt lat="40.0944282" lon="9.5687203"><ele>743.0</ele><time>2026-04-22T08:43:05.699Z</time></trkpt><trkpt lat="40.0943673" lon="9.5686292"><ele>747.0</ele><time>2026-04-22T08:43:06.697Z</time></trkpt><trkpt lat="40.0943088" lon="9.5685408"><ele>751.0</ele><time>2026-04-22T08:43:07.69Z</time></trkpt><trkpt lat="40.0942445" lon="9.5684874"><ele>755.0</ele><time>2026-04-22T08:43:08.7Z</time></trkpt><trkpt lat="40.094179" lon="9.5684522"><ele>759.0</ele><time>2026-04-22T08:43:09.697Z</time></trkpt><trkpt lat="40.0941091" lon="9.5683945"><ele>763.0</ele><time>2026-04-22T08:43:10.695Z</time></trkpt><trkpt lat="40.0940212" lon="9.5683212"><ele>763.0</ele><time>2026-04-22T08:43:11.696Z</time></trkpt><trkpt lat="40.0939412" lon="9.5682478"><ele>763.0</ele><time>2026-04-22T08:43:12.701Z</time></trkpt><trkpt lat="40.0938596" lon="9.5681891"><ele>763.0</ele><time>2026-04-22T08:43:13.691Z</time></trkpt><trkpt lat="40.0937874" lon="9.5681614"><ele>763.0</ele><time>2026-04-22T08:43:14.696Z</time></trkpt><trkpt lat="40.0937022" lon="9.5681311"><ele>763.0</ele><time>2026-04-22T08:43:16.702Z</time></trkpt><trkpt lat="40.0936816" lon="9.5680488"><ele>763.0</ele><time>2026-04-22T08:43:18.706Z</time></trkpt><trkpt lat="40.0937499" lon="9.5679401"><ele>763.0</ele><time>2026-04-22T08:43:20.699Z</time></trkpt><trkpt lat="40.0938229" lon="9.5678983"><ele>763.0</ele><time>2026-04-22T08:43:21.711Z</time></trkpt><trkpt lat="40.0939136" lon="9.5678479"><ele>763.0</ele><time>2026-04-22T08:43:22.711Z</time></trkpt><trkpt lat="40.0939776" lon="9.56778"><ele>763.0</ele><time>2026-04-22T08:43:23.714Z</time></trkpt><trkpt lat="40.0940355" lon="9.5676846"><ele>763.0</ele><time>2026-04-22T08:43:24.706Z</time></trkpt><trkpt lat="40.0940926" lon="9.5675904"><ele>763.0</ele><time>2026-04-22T08:43:25.712Z</time></trkpt><trkpt lat="40.0941383" lon="9.5675063"><ele>764.1428571428571</ele><time>2026-04-22T08:43:26.707Z</time></trkpt><trkpt lat="40.0941687" lon="9.567423"><ele>765.2857142857142</ele><time>2026-04-22T08:43:27.719Z</time></trkpt><trkpt lat="40.0941945" lon="9.5673446"><ele>766.4285714285714</ele><time>2026-04-22T08:43:28.707Z</time></trkpt><trkpt lat="40.0942147" lon="9.5672587"><ele>767.5714285714286</ele><time>2026-04-22T08:43:29.702Z</time></trkpt><trkpt lat="40.0942188" lon="9.5671631"><ele>768.7142857142857</ele><time>2026-04-22T08:43:30.71Z</time></trkpt><trkpt lat="40.0942238" lon="9.5670737"><ele>769.8571428571429</ele><time>2026-04-22T08:43:31.705Z</time></trkpt><trkpt lat="40.0942299" lon="9.5669901"><ele>771.0</ele><time>2026-04-22T08:43:32.71Z</time></trkpt><trkpt lat="40.0942448" lon="9.566906"><ele>771.0</ele><time>2026-04-22T08:43:33.715Z</time></trkpt><trkpt lat="40.0942572" lon="9.5668181"><ele>771.0</ele><time>2026-04-22T08:43:34.705Z</time></trkpt><trkpt lat="40.094258" lon="9.5667247"><ele>771.0</ele><time>2026-04-22T08:43:35.708Z</time></trkpt><trkpt lat="40.0942438" lon="9.5666373"><ele>771.0</ele><time>2026-04-22T08:43:36.705Z</time></trkpt><trkpt lat="40.0942183" lon="9.5665423"><ele>771.0</ele><time>2026-04-22T08:43:37.709Z</time></trkpt><trkpt lat="40.0941846" lon="9.566437"><ele>771.0</ele><time>2026-04-22T08:43:38.709Z</time></trkpt><trkpt lat="40.0941501" lon="9.566343"><ele>771.0</ele><time>2026-04-22T08:43:39.709Z</time></trkpt><trkpt lat="40.0941228" lon="9.5662429"><ele>771.0</ele><time>2026-04-22T08:43:40.707Z</time></trkpt><trkpt lat="40.0941041" lon="9.5661445"><ele>771.0</ele><time>2026-04-22T08:43:41.71Z</time></trkpt><trkpt lat="40.0940925" lon="9.566055"><ele>771.0</ele><time>2026-04-22T08:43:42.712Z</time></trkpt><trkpt lat="40.0940715" lon="9.5659757"><ele>771.0</ele><time>2026-04-22T08:43:43.727Z</time></trkpt><trkpt lat="40.0940484" lon="9.5658857"><ele>771.0</ele><time>2026-04-22T08:43:44.716Z</time></trkpt><trkpt lat="40.0940209" lon="9.5657909"><ele>771.0</ele><time>2026-04-22T08:43:45.71Z</time></trkpt><trkpt lat="40.0939971" lon="9.5656938"><ele>770.7142857142858</ele><time>2026-04-22T08:43:46.709Z</time></trkpt><trkpt lat="40.0939907" lon="9.5656058"><ele>770.4285714285713</ele><time>2026-04-22T08:43:47.717Z</time></trkpt><trkpt lat="40.0939911" lon="9.5655201"><ele>770.1428571428571</ele><time>2026-04-22T08:43:48.708Z</time></trkpt><trkpt lat="40.0939997" lon="9.565435"><ele>769.8571428571429</ele><time>2026-04-22T08:43:49.706Z</time></trkpt><trkpt lat="40.0940075" lon="9.5653418"><ele>769.5714285714287</ele><time>2026-04-22T08:43:50.703Z</time></trkpt><trkpt lat="40.0940141" lon="9.5652458"><ele>769.2857142857142</ele><time>2026-04-22T08:43:51.706Z</time></trkpt><trkpt lat="40.0940155" lon="9.5651598"><ele>769.0</ele><time>2026-04-22T08:43:52.707Z</time></trkpt><trkpt lat="40.0939866" lon="9.5649933"><ele>768.9999999999999</ele><time>2026-04-22T08:43:54.707Z</time></trkpt><trkpt lat="40.0939492" lon="9.5648903"><ele>769.0</ele><time>2026-04-22T08:43:55.709Z</time></trkpt><trkpt lat="40.0939096" lon="9.5647828"><ele>769.0</ele><time>2026-04-22T08:43:56.704Z</time></trkpt><trkpt lat="40.0938688" lon="9.5646736"><ele>769.0</ele><time>2026-04-22T08:43:57.708Z</time></trkpt><trkpt lat="40.0938271" lon="9.56458"><ele>768.9999999999999</ele><time>2026-04-22T08:43:58.712Z</time></trkpt><trkpt lat="40.0937818" lon="9.5644977"><ele>769.0</ele><time>2026-04-22T08:43:59.706Z</time></trkpt><trkpt lat="40.0937442" lon="9.5644114"><ele>767.8571428571428</ele><time>2026-04-22T08:44:00.718Z</time></trkpt><trkpt lat="40.0937086" lon="9.5643361"><ele>766.7142857142858</ele><time>2026-04-22T08:44:01.706Z</time></trkpt><trkpt lat="40.0936767" lon="9.5642578"><ele>765.5714285714286</ele><time>2026-04-22T08:44:02.703Z</time></trkpt><trkpt lat="40.0936322" lon="9.5641837"><ele>764.4285714285713</ele><time>2026-04-22T08:44:03.716Z</time></trkpt><trkpt lat="40.0935918" lon="9.5640939"><ele>763.2857142857142</ele><time>2026-04-22T08:44:04.7Z</time></trkpt><trkpt lat="40.093558" lon="9.5640142"><ele>762.1428571428571</ele><time>2026-04-22T08:44:05.706Z</time></trkpt><trkpt lat="40.0935272" lon="9.5639133"><ele>761.0</ele><time>2026-04-22T08:44:06.701Z</time></trkpt><trkpt lat="40.0935074" lon="9.563809"><ele>761.0</ele><time>2026-04-22T08:44:07.708Z</time></trkpt><trkpt lat="40.0934838" lon="9.5637176"><ele>761.0</ele><time>2026-04-22T08:44:08.699Z</time></trkpt><trkpt lat="40.0934572" lon="9.5636272"><ele>761.0</ele><time>2026-04-22T08:44:09.702Z</time></trkpt><trkpt lat="40.0934154" lon="9.5635535"><ele>761.0</ele><time>2026-04-22T08:44:10.706Z</time></trkpt><trkpt lat="40.0933411" lon="9.5634167"><ele>761.0</ele><time>2026-04-22T08:44:12.705Z</time></trkpt><trkpt lat="40.093311" lon="9.5633441"><ele>761.0</ele><time>2026-04-22T08:44:13.714Z</time></trkpt><trkpt lat="40.0932966" lon="9.5632639"><ele>760.0</ele><time>2026-04-22T08:44:14.701Z</time></trkpt><trkpt lat="40.093304" lon="9.5631227"><ele>759.0</ele><time>2026-04-22T08:44:16.701Z</time></trkpt><trkpt lat="40.0933176" lon="9.5629908"><ele>758.0</ele><time>2026-04-22T08:44:18.703Z</time></trkpt><trkpt lat="40.0933176" lon="9.5628991"><ele>757.0</ele><time>2026-04-22T08:44:19.714Z</time></trkpt><trkpt lat="40.0933187" lon="9.5628124"><ele>756.0</ele><time>2026-04-22T08:44:20.705Z</time></trkpt><trkpt lat="40.0933128" lon="9.5627172"><ele>755.0</ele><time>2026-04-22T08:44:21.71Z</time></trkpt><trkpt lat="40.0932978" lon="9.5626322"><ele>754.5</ele><time>2026-04-22T08:44:22.701Z</time></trkpt><trkpt lat="40.0932825" lon="9.5625469"><ele>754.0</ele><time>2026-04-22T08:44:23.717Z</time></trkpt><trkpt lat="40.0932493" lon="9.5624657"><ele>753.5</ele><time>2026-04-22T08:44:24.712Z</time></trkpt><trkpt lat="40.093218" lon="9.5623757"><ele>753.0</ele><time>2026-04-22T08:44:25.711Z</time></trkpt><trkpt lat="40.0931831" lon="9.5622901"><ele>752.5</ele><time>2026-04-22T08:44:26.708Z</time></trkpt><trkpt lat="40.0931462" lon="9.5621932"><ele>752.0</ele><time>2026-04-22T08:44:27.711Z</time></trkpt><trkpt lat="40.0931072" lon="9.5620945"><ele>752.0</ele><time>2026-04-22T08:44:28.716Z</time></trkpt><trkpt lat="40.0930842" lon="9.5620044"><ele>752.0</ele><time>2026-04-22T08:44:29.704Z</time></trkpt><trkpt lat="40.0930666" lon="9.561918"><ele>752.0</ele><time>2026-04-22T08:44:30.713Z</time></trkpt><trkpt lat="40.0930643" lon="9.5617697"><ele>752.0</ele><time>2026-04-22T08:44:32.704Z</time></trkpt><trkpt lat="40.0930775" lon="9.561684"><ele>752.0</ele><time>2026-04-22T08:44:33.721Z</time></trkpt><trkpt lat="40.093102" lon="9.5615737"><ele>752.0</ele><time>2026-04-22T08:44:34.713Z</time></trkpt><trkpt lat="40.0931228" lon="9.5614683"><ele>752.0</ele><time>2026-04-22T08:44:35.714Z</time></trkpt><trkpt lat="40.0931452" lon="9.5613695"><ele>752.0</ele><time>2026-04-22T08:44:36.711Z</time></trkpt><trkpt lat="40.0931605" lon="9.5612731"><ele>752.0</ele><time>2026-04-22T08:44:37.712Z</time></trkpt><trkpt lat="40.0931733" lon="9.5611846"><ele>752.0</ele><time>2026-04-22T08:44:38.715Z</time></trkpt><trkpt lat="40.0931754" lon="9.5610946"><ele>752.0</ele><time>2026-04-22T08:44:39.71Z</time></trkpt><trkpt lat="40.0931622" lon="9.5610114"><ele>752.0</ele><time>2026-04-22T08:44:40.702Z</time></trkpt><trkpt lat="40.0931381" lon="9.5609255"><ele>752.0</ele><time>2026-04-22T08:44:41.708Z</time></trkpt><trkpt lat="40.0931074" lon="9.5608509"><ele>751.0</ele><time>2026-04-22T08:44:42.708Z</time></trkpt><trkpt lat="40.0930685" lon="9.5607004"><ele>750.0</ele><time>2026-04-22T08:44:44.711Z</time></trkpt><trkpt lat="40.0930557" lon="9.5606192"><ele>749.0</ele><time>2026-04-22T08:44:45.705Z</time></trkpt><trkpt lat="40.0930627" lon="9.5605006"><ele>748.0</ele><time>2026-04-22T08:44:47.704Z</time></trkpt><trkpt lat="40.0931327" lon="9.5604297"><ele>747.0</ele><time>2026-04-22T08:44:49.703Z</time></trkpt><trkpt lat="40.0932339" lon="9.5603871"><ele>746.3333333333334</ele><time>2026-04-22T08:44:51.703Z</time></trkpt><trkpt lat="40.0933083" lon="9.5603773"><ele>745.6666666666666</ele><time>2026-04-22T08:44:52.7Z</time></trkpt><trkpt lat="40.093388" lon="9.5603633"><ele>745.0</ele><time>2026-04-22T08:44:53.699Z</time></trkpt><trkpt lat="40.0934787" lon="9.5603415"><ele>744.3333333333333</ele><time>2026-04-22T08:44:54.697Z</time></trkpt><trkpt lat="40.0935568" lon="9.5603068"><ele>743.6666666666666</ele><time>2026-04-22T08:44:55.698Z</time></trkpt><trkpt lat="40.0936279" lon="9.5602755"><ele>743.0</ele><time>2026-04-22T08:44:56.697Z</time></trkpt><trkpt lat="40.0936919" lon="9.5602393"><ele>742.1428571428572</ele><time>2026-04-22T08:44:57.697Z</time></trkpt><trkpt lat="40.0937598" lon="9.5602111"><ele>741.2857142857142</ele><time>2026-04-22T08:44:58.694Z</time></trkpt><trkpt lat="40.0938263" lon="9.5601976"><ele>740.4285714285714</ele><time>2026-04-22T08:44:59.7Z</time></trkpt><trkpt lat="40.093901" lon="9.5602006"><ele>739.5714285714287</ele><time>2026-04-22T08:45:00.693Z</time></trkpt><trkpt lat="40.0939732" lon="9.5602162"><ele>738.7142857142858</ele><time>2026-04-22T08:45:01.691Z</time></trkpt><trkpt lat="40.0940426" lon="9.5602302"><ele>737.8571428571429</ele><time>2026-04-22T08:45:02.69Z</time></trkpt><trkpt lat="40.0941129" lon="9.5602266"><ele>737.0</ele><time>2026-04-22T08:45:03.693Z</time></trkpt><trkpt lat="40.094191" lon="9.5602191"><ele>736.8333333333333</ele><time>2026-04-22T08:45:04.699Z</time></trkpt><trkpt lat="40.094267" lon="9.5602128"><ele>736.6666666666666</ele><time>2026-04-22T08:45:05.695Z</time></trkpt><trkpt lat="40.0943383" lon="9.5602131"><ele>736.5</ele><time>2026-04-22T08:45:06.696Z</time></trkpt><trkpt lat="40.0944064" lon="9.5602135"><ele>736.3333333333334</ele><time>2026-04-22T08:45:07.692Z</time></trkpt><trkpt lat="40.0944714" lon="9.5602098"><ele>736.1666666666667</ele><time>2026-04-22T08:45:08.697Z</time></trkpt><trkpt lat="40.0945861" lon="9.5602052"><ele>736.0</ele><time>2026-04-22T08:45:10.694Z</time></trkpt><trkpt lat="40.0946898" lon="9.5601598"><ele>736.0</ele><time>2026-04-22T08:45:12.698Z</time></trkpt><trkpt lat="40.0947855" lon="9.5600769"><ele>736.0</ele><time>2026-04-22T08:45:14.695Z</time></trkpt><trkpt lat="40.0948782" lon="9.5599922"><ele>736.0</ele><time>2026-04-22T08:45:16.695Z</time></trkpt><trkpt lat="40.0949934" lon="9.5599602"><ele>736.0</ele><time>2026-04-22T08:45:18.693Z</time></trkpt><trkpt lat="40.0951158" lon="9.559923"><ele>734.4</ele><time>2026-04-22T08:45:20.693Z</time></trkpt><trkpt lat="40.0952229" lon="9.5598814"><ele>732.8</ele><time>2026-04-22T08:45:22.694Z</time></trkpt><trkpt lat="40.0953194" lon="9.559919"><ele>731.1999999999999</ele><time>2026-04-22T08:45:24.692Z</time></trkpt><trkpt lat="40.0954026" lon="9.5599907"><ele>729.5999999999999</ele><time>2026-04-22T08:45:26.704Z</time></trkpt><trkpt lat="40.0954705" lon="9.5600776"><ele>728.0</ele><time>2026-04-22T08:45:28.703Z</time></trkpt><trkpt lat="40.0955287" lon="9.5601639"><ele>728.0</ele><time>2026-04-22T08:45:30.7Z</time></trkpt><trkpt lat="40.0956129" lon="9.5602373"><ele>728.0</ele><time>2026-04-22T08:45:32.693Z</time></trkpt><trkpt lat="40.0956755" lon="9.5602803"><ele>728.0</ele><time>2026-04-22T08:45:34.704Z</time></trkpt><trkpt lat="40.0957668" lon="9.5602917"><ele>728.0</ele><time>2026-04-22T08:45:36.698Z</time></trkpt><trkpt lat="40.095888" lon="9.5602826"><ele>728.0</ele><time>2026-04-22T08:45:38.695Z</time></trkpt><trkpt lat="40.0959627" lon="9.5602472"><ele>726.5999999999999</ele><time>2026-04-22T08:45:40.693Z</time></trkpt><trkpt lat="40.0960124" lon="9.5601741"><ele>725.1999999999999</ele><time>2026-04-22T08:45:42.699Z</time></trkpt><trkpt lat="40.0960734" lon="9.5600491"><ele>723.8</ele><time>2026-04-22T08:45:44.698Z</time></trkpt><trkpt lat="40.0961135" lon="9.5599822"><ele>722.4</ele><time>2026-04-22T08:45:45.692Z</time></trkpt><trkpt lat="40.0961688" lon="9.5598448"><ele>721.0</ele><time>2026-04-22T08:45:47.696Z</time></trkpt><trkpt lat="40.0962206" lon="9.5597081"><ele>721.0</ele><time>2026-04-22T08:45:49.695Z</time></trkpt><trkpt lat="40.096264" lon="9.5596468"><ele>721.0</ele><time>2026-04-22T08:45:50.691Z</time></trkpt><trkpt lat="40.0963118" lon="9.5595013"><ele>721.0</ele><time>2026-04-22T08:45:52.693Z</time></trkpt><trkpt lat="40.0963408" lon="9.5594252"><ele>721.0</ele><time>2026-04-22T08:45:53.69Z</time></trkpt><trkpt lat="40.0963686" lon="9.5593478"><ele>721.0</ele><time>2026-04-22T08:45:54.695Z</time></trkpt><trkpt lat="40.0964269" lon="9.5592231"><ele>721.0</ele><time>2026-04-22T08:45:56.689Z</time></trkpt><trkpt lat="40.0965205" lon="9.5591382"><ele>720.0</ele><time>2026-04-22T08:45:58.7Z</time></trkpt><trkpt lat="40.0966389" lon="9.5591306"><ele>719.0</ele><time>2026-04-22T08:46:00.692Z</time></trkpt><trkpt lat="40.0967046" lon="9.5591306"><ele>718.0</ele><time>2026-04-22T08:46:01.697Z</time></trkpt><trkpt lat="40.0967707" lon="9.5591299"><ele>717.0</ele><time>2026-04-22T08:46:02.687Z</time></trkpt><trkpt lat="40.0968383" lon="9.5591304"><ele>716.0</ele><time>2026-04-22T08:46:03.696Z</time></trkpt><trkpt lat="40.0969007" lon="9.5591454"><ele>715.0</ele><time>2026-04-22T08:46:04.69Z</time></trkpt><trkpt lat="40.0969932" lon="9.5592265"><ele>715.0</ele><time>2026-04-22T08:46:06.693Z</time></trkpt><trkpt lat="40.0970587" lon="9.5593542"><ele>715.0</ele><time>2026-04-22T08:46:08.7Z</time></trkpt><trkpt lat="40.0971125" lon="9.55944"><ele>715.0</ele><time>2026-04-22T08:46:10.691Z</time></trkpt><trkpt lat="40.0971671" lon="9.559362"><ele>715.0</ele><time>2026-04-22T08:46:19.697Z</time></trkpt><trkpt lat="40.097111" lon="9.5591943"><ele>715.0</ele><time>2026-04-22T08:46:21.691Z</time></trkpt><trkpt lat="40.097051" lon="9.5590703"><ele>715.0</ele><time>2026-04-22T08:46:22.691Z</time></trkpt><trkpt lat="40.0969959" lon="9.5589306"><ele>715.0</ele><time>2026-04-22T08:46:23.702Z</time></trkpt><trkpt lat="40.0969528" lon="9.5587878"><ele>715.0</ele><time>2026-04-22T08:46:24.693Z</time></trkpt><trkpt lat="40.0969351" lon="9.5586382"><ele>715.0</ele><time>2026-04-22T08:46:25.694Z</time></trkpt><trkpt lat="40.0969478" lon="9.5584765"><ele>714.5</ele><time>2026-04-22T08:46:26.694Z</time></trkpt><trkpt lat="40.0970058" lon="9.5582994"><ele>714.0</ele><time>2026-04-22T08:46:27.697Z</time></trkpt><trkpt lat="40.0970728" lon="9.5581341"><ele>713.5</ele><time>2026-04-22T08:46:28.71Z</time></trkpt><trkpt lat="40.097145" lon="9.5579705"><ele>713.0</ele><time>2026-04-22T08:46:29.696Z</time></trkpt><trkpt lat="40.0972149" lon="9.5578121"><ele>714.0</ele><time>2026-04-22T08:46:30.7Z</time></trkpt><trkpt lat="40.0972635" lon="9.5576574"><ele>715.0</ele><time>2026-04-22T08:46:31.697Z</time></trkpt><trkpt lat="40.0973117" lon="9.5575058"><ele>716.0</ele><time>2026-04-22T08:46:32.699Z</time></trkpt><trkpt lat="40.097356" lon="9.5573401"><ele>717.0</ele><time>2026-04-22T08:46:33.698Z</time></trkpt><trkpt lat="40.0973697" lon="9.5571559"><ele>717.3333333333334</ele><time>2026-04-22T08:46:34.695Z</time></trkpt><trkpt lat="40.0973565" lon="9.5569556"><ele>717.6666666666667</ele><time>2026-04-22T08:46:35.697Z</time></trkpt><trkpt lat="40.0973168" lon="9.5567566"><ele>718.0</ele><time>2026-04-22T08:46:36.7Z</time></trkpt><trkpt lat="40.0973063" lon="9.5565501"><ele>718.0</ele><time>2026-04-22T08:46:37.699Z</time></trkpt><trkpt lat="40.0972924" lon="9.5563373"><ele>718.0</ele><time>2026-04-22T08:46:38.709Z</time></trkpt><trkpt lat="40.0972849" lon="9.5561253"><ele>718.0</ele><time>2026-04-22T08:46:39.703Z</time></trkpt><trkpt lat="40.0972607" lon="9.5559363"><ele>716.75</ele><time>2026-04-22T08:46:40.703Z</time></trkpt><trkpt lat="40.0972417" lon="9.5557472"><ele>715.5</ele><time>2026-04-22T08:46:41.703Z</time></trkpt><trkpt lat="40.097231" lon="9.5555665"><ele>714.25</ele><time>2026-04-22T08:46:42.703Z</time></trkpt><trkpt lat="40.0972034" lon="9.5553948"><ele>713.0</ele><time>2026-04-22T08:46:43.715Z</time></trkpt><trkpt lat="40.0971817" lon="9.5552233"><ele>711.75</ele><time>2026-04-22T08:46:44.721Z</time></trkpt><trkpt lat="40.0971281" lon="9.5550701"><ele>710.5</ele><time>2026-04-22T08:46:45.713Z</time></trkpt><trkpt lat="40.0970729" lon="9.5549241"><ele>709.25</ele><time>2026-04-22T08:46:46.715Z</time></trkpt><trkpt lat="40.096996" lon="9.5547647"><ele>708.0</ele><time>2026-04-22T08:46:47.715Z</time></trkpt><trkpt lat="40.0969073" lon="9.5546189"><ele>706.3333333333334</ele><time>2026-04-22T08:46:48.727Z</time></trkpt><trkpt lat="40.0967876" lon="9.5544426"><ele>704.6666666666667</ele><time>2026-04-22T08:46:49.717Z</time></trkpt><trkpt lat="40.0967026" lon="9.5542851"><ele>703.0</ele><time>2026-04-22T08:46:50.715Z</time></trkpt><trkpt lat="40.0966159" lon="9.5541363"><ele>704.0</ele><time>2026-04-22T08:46:51.715Z</time></trkpt><trkpt lat="40.0965207" lon="9.554011"><ele>705.0</ele><time>2026-04-22T08:46:52.718Z</time></trkpt><trkpt lat="40.0964451" lon="9.5538654"><ele>706.0</ele><time>2026-04-22T08:46:53.713Z</time></trkpt><trkpt lat="40.0963631" lon="9.5537359"><ele>707.0</ele><time>2026-04-22T08:46:54.714Z</time></trkpt><trkpt lat="40.0962867" lon="9.5536305"><ele>704.75</ele><time>2026-04-22T08:46:55.721Z</time></trkpt><trkpt lat="40.096212" lon="9.5535196"><ele>702.5</ele><time>2026-04-22T08:46:56.712Z</time></trkpt><trkpt lat="40.0960968" lon="9.5534257"><ele>700.25</ele><time>2026-04-22T08:46:57.714Z</time></trkpt><trkpt lat="40.0959458" lon="9.5533963"><ele>698.0</ele><time>2026-04-22T08:46:58.723Z</time></trkpt><trkpt lat="40.0958088" lon="9.5533845"><ele>698.5</ele><time>2026-04-22T08:46:59.713Z</time></trkpt><trkpt lat="40.0956756" lon="9.5533819"><ele>699.0</ele><time>2026-04-22T08:47:00.714Z</time></trkpt><trkpt lat="40.0955671" lon="9.5533427"><ele>699.5</ele><time>2026-04-22T08:47:01.715Z</time></trkpt><trkpt lat="40.0954607" lon="9.5533042"><ele>700.0</ele><time>2026-04-22T08:47:02.703Z</time></trkpt><trkpt lat="40.0953777" lon="9.5532423"><ele>700.0</ele><time>2026-04-22T08:47:03.706Z</time></trkpt><trkpt lat="40.0953371" lon="9.5531193"><ele>700.0</ele><time>2026-04-22T08:47:04.702Z</time></trkpt><trkpt lat="40.0953225" lon="9.5529932"><ele>700.0</ele><time>2026-04-22T08:47:05.707Z</time></trkpt><trkpt lat="40.095304" lon="9.5528785"><ele>700.0</ele><time>2026-04-22T08:47:06.705Z</time></trkpt><trkpt lat="40.0953015" lon="9.5527546"><ele>700.0</ele><time>2026-04-22T08:47:07.707Z</time></trkpt><trkpt lat="40.095307" lon="9.5526381"><ele>698.8333333333334</ele><time>2026-04-22T08:47:08.72Z</time></trkpt><trkpt lat="40.0953284" lon="9.552518"><ele>697.6666666666667</ele><time>2026-04-22T08:47:09.709Z</time></trkpt><trkpt lat="40.0953422" lon="9.5524257"><ele>696.5</ele><time>2026-04-22T08:47:10.706Z</time></trkpt><trkpt lat="40.0953584" lon="9.552344"><ele>695.3333333333334</ele><time>2026-04-22T08:47:11.7Z</time></trkpt><trkpt lat="40.0953732" lon="9.5522559"><ele>694.1666666666666</ele><time>2026-04-22T08:47:13.717Z</time></trkpt><trkpt lat="40.0952931" lon="9.5522015"><ele>693.0</ele><time>2026-04-22T08:47:16.711Z</time></trkpt><trkpt lat="40.0951981" lon="9.5522136"><ele>693.0</ele><time>2026-04-22T08:47:18.726Z</time></trkpt><trkpt lat="40.0950748" lon="9.5522667"><ele>693.0</ele><time>2026-04-22T08:47:20.706Z</time></trkpt><trkpt lat="40.0949814" lon="9.552345"><ele>693.0</ele><time>2026-04-22T08:47:22.708Z</time></trkpt><trkpt lat="40.0948886" lon="9.5524336"><ele>693.0</ele><time>2026-04-22T08:47:24.704Z</time></trkpt><trkpt lat="40.0948207" lon="9.5524584"><ele>693.0</ele><time>2026-04-22T08:47:25.704Z</time></trkpt><trkpt lat="40.0947412" lon="9.5524753"><ele>693.8333333333334</ele><time>2026-04-22T08:47:26.712Z</time></trkpt><trkpt lat="40.0946546" lon="9.552479"><ele>694.6666666666666</ele><time>2026-04-22T08:47:27.708Z</time></trkpt><trkpt lat="40.0945835" lon="9.5524902"><ele>695.5</ele><time>2026-04-22T08:47:28.708Z</time></trkpt><trkpt lat="40.0945188" lon="9.5525051"><ele>696.3333333333333</ele><time>2026-04-22T08:47:29.717Z</time></trkpt><trkpt lat="40.0944554" lon="9.5525093"><ele>697.1666666666666</ele><time>2026-04-22T08:47:30.715Z</time></trkpt><trkpt lat="40.0943489" lon="9.5525052"><ele>698.0</ele><time>2026-04-22T08:47:32.704Z</time></trkpt><trkpt lat="40.0942746" lon="9.5524231"><ele>698.0</ele><time>2026-04-22T08:47:34.707Z</time></trkpt><trkpt lat="40.0942014" lon="9.552285"><ele>698.0</ele><time>2026-04-22T08:47:36.704Z</time></trkpt><trkpt lat="40.0941697" lon="9.5522014"><ele>698.0</ele><time>2026-04-22T08:47:37.706Z</time></trkpt><trkpt lat="40.0941344" lon="9.5521222"><ele>698.0</ele><time>2026-04-22T08:47:38.705Z</time></trkpt><trkpt lat="40.0940964" lon="9.5520519"><ele>698.0</ele><time>2026-04-22T08:47:39.717Z</time></trkpt><trkpt lat="40.0940573" lon="9.5519786"><ele>698.0</ele><time>2026-04-22T08:47:40.704Z</time></trkpt><trkpt lat="40.0940351" lon="9.5519"><ele>697.2</ele><time>2026-04-22T08:47:41.706Z</time></trkpt><trkpt lat="40.094021" lon="9.5517537"><ele>696.4</ele><time>2026-04-22T08:47:43.717Z</time></trkpt><trkpt lat="40.0939786" lon="9.5516248"><ele>695.6</ele><time>2026-04-22T08:47:45.703Z</time></trkpt><trkpt lat="40.0938989" lon="9.5515507"><ele>694.8000000000001</ele><time>2026-04-22T08:47:47.705Z</time></trkpt><trkpt lat="40.0937968" lon="9.5515341"><ele>694.0</ele><time>2026-04-22T08:47:49.715Z</time></trkpt><trkpt lat="40.0936785" lon="9.5515089"><ele>694.0</ele><time>2026-04-22T08:47:51.71Z</time></trkpt><trkpt lat="40.0936119" lon="9.5515088"><ele>694.0</ele><time>2026-04-22T08:47:52.705Z</time></trkpt><trkpt lat="40.0935475" lon="9.5515012"><ele>694.0</ele><time>2026-04-22T08:47:53.709Z</time></trkpt><trkpt lat="40.0934791" lon="9.5514894"><ele>694.0</ele><time>2026-04-22T08:47:54.704Z</time></trkpt><trkpt lat="40.0934049" lon="9.5514863"><ele>694.0</ele><time>2026-04-22T08:47:55.709Z</time></trkpt><trkpt lat="40.093329" lon="9.5514911"><ele>694.0</ele><time>2026-04-22T08:47:56.708Z</time></trkpt><trkpt lat="40.0932656" lon="9.5515042"><ele>694.0</ele><time>2026-04-22T08:47:57.711Z</time></trkpt><trkpt lat="40.093201" lon="9.551493"><ele>694.5</ele><time>2026-04-22T08:47:58.711Z</time></trkpt><trkpt lat="40.0931283" lon="9.5514793"><ele>695.0</ele><time>2026-04-22T08:47:59.714Z</time></trkpt><trkpt lat="40.0930612" lon="9.5514615"><ele>695.5</ele><time>2026-04-22T08:48:00.704Z</time></trkpt><trkpt lat="40.0929902" lon="9.5514587"><ele>696.0</ele><time>2026-04-22T08:48:01.701Z</time></trkpt><trkpt lat="40.0929205" lon="9.5514694"><ele>696.5</ele><time>2026-04-22T08:48:02.7Z</time></trkpt><trkpt lat="40.0928032" lon="9.5514597"><ele>697.0</ele><time>2026-04-22T08:48:04.707Z</time></trkpt><trkpt lat="40.0927326" lon="9.5514298"><ele>697.0</ele><time>2026-04-22T08:48:05.709Z</time></trkpt><trkpt lat="40.0926644" lon="9.5514029"><ele>697.0</ele><time>2026-04-22T08:48:06.712Z</time></trkpt><trkpt lat="40.0926011" lon="9.5513709"><ele>697.0</ele><time>2026-04-22T08:48:07.709Z</time></trkpt><trkpt lat="40.0925341" lon="9.5513512"><ele>697.0</ele><time>2026-04-22T08:48:08.707Z</time></trkpt><trkpt lat="40.0924713" lon="9.5513351"><ele>697.0</ele><time>2026-04-22T08:48:09.72Z</time></trkpt><trkpt lat="40.0923492" lon="9.5513199"><ele>697.0</ele><time>2026-04-22T08:48:11.712Z</time></trkpt><trkpt lat="40.0922326" lon="9.5513131"><ele>698.6</ele><time>2026-04-22T08:48:13.716Z</time></trkpt><trkpt lat="40.0921286" lon="9.5513268"><ele>700.2</ele><time>2026-04-22T08:48:15.708Z</time></trkpt><trkpt lat="40.0920257" lon="9.5513362"><ele>701.8</ele><time>2026-04-22T08:48:17.703Z</time></trkpt><trkpt lat="40.091903" lon="9.551305"><ele>703.4</ele><time>2026-04-22T08:48:19.715Z</time></trkpt><trkpt lat="40.0918471" lon="9.5512657"><ele>705.0</ele><time>2026-04-22T08:48:20.697Z</time></trkpt><trkpt lat="40.0917899" lon="9.5512232"><ele>704.6666666666666</ele><time>2026-04-22T08:48:21.698Z</time></trkpt><trkpt lat="40.0917491" lon="9.5511571"><ele>704.3333333333334</ele><time>2026-04-22T08:48:22.701Z</time></trkpt><trkpt lat="40.091688" lon="9.5510158"><ele>704.0</ele><time>2026-04-22T08:48:24.703Z</time></trkpt><trkpt lat="40.0916463" lon="9.5509244"><ele>703.6666666666667</ele><time>2026-04-22T08:48:25.704Z</time></trkpt><trkpt lat="40.0915921" lon="9.5508413"><ele>703.3333333333334</ele><time>2026-04-22T08:48:26.713Z</time></trkpt><trkpt lat="40.0915388" lon="9.5507713"><ele>703.0</ele><time>2026-04-22T08:48:27.71Z</time></trkpt><trkpt lat="40.0914772" lon="9.5506981"><ele>703.0</ele><time>2026-04-22T08:48:28.713Z</time></trkpt><trkpt lat="40.0914149" lon="9.550608"><ele>703.0</ele><time>2026-04-22T08:48:29.726Z</time></trkpt><trkpt lat="40.0913566" lon="9.5505289"><ele>703.0</ele><time>2026-04-22T08:48:30.71Z</time></trkpt><trkpt lat="40.0912973" lon="9.550469"><ele>703.0</ele><time>2026-04-22T08:48:31.709Z</time></trkpt><trkpt lat="40.0912326" lon="9.5504081"><ele>703.0</ele><time>2026-04-22T08:48:32.713Z</time></trkpt><trkpt lat="40.0911713" lon="9.5503665"><ele>703.0</ele><time>2026-04-22T08:48:33.708Z</time></trkpt><trkpt lat="40.0910355" lon="9.5503466"><ele>703.8</ele><time>2026-04-22T08:48:35.706Z</time></trkpt><trkpt lat="40.0909533" lon="9.5503477"><ele>704.5999999999999</ele><time>2026-04-22T08:48:36.705Z</time></trkpt><trkpt lat="40.0908735" lon="9.5503456"><ele>705.4000000000001</ele><time>2026-04-22T08:48:37.705Z</time></trkpt><trkpt lat="40.0908038" lon="9.5503192"><ele>706.2</ele><time>2026-04-22T08:48:38.702Z</time></trkpt><trkpt lat="40.0907203" lon="9.5501975"><ele>707.0</ele><time>2026-04-22T08:48:40.698Z</time></trkpt><trkpt lat="40.0907006" lon="9.5500285"><ele>707.3333333333333</ele><time>2026-04-22T08:48:42.715Z</time></trkpt><trkpt lat="40.0907015" lon="9.5499229"><ele>707.6666666666666</ele><time>2026-04-22T08:48:43.709Z</time></trkpt><trkpt lat="40.0906857" lon="9.5498331"><ele>708.0</ele><time>2026-04-22T08:48:44.707Z</time></trkpt><trkpt lat="40.0906663" lon="9.5497411"><ele>708.3333333333334</ele><time>2026-04-22T08:48:45.705Z</time></trkpt><trkpt lat="40.090644" lon="9.5496492"><ele>708.6666666666667</ele><time>2026-04-22T08:48:46.706Z</time></trkpt><trkpt lat="40.0906257" lon="9.5495573"><ele>709.0</ele><time>2026-04-22T08:48:47.709Z</time></trkpt><trkpt lat="40.09061" lon="9.5494067"><ele>709.1666666666667</ele><time>2026-04-22T08:48:49.705Z</time></trkpt><trkpt lat="40.0906325" lon="9.5492571"><ele>709.3333333333334</ele><time>2026-04-22T08:48:51.708Z</time></trkpt><trkpt lat="40.090705" lon="9.5491347"><ele>709.5</ele><time>2026-04-22T08:48:53.707Z</time></trkpt><trkpt lat="40.0907399" lon="9.5490603"><ele>709.6666666666666</ele><time>2026-04-22T08:48:54.706Z</time></trkpt><trkpt lat="40.0907777" lon="9.5489791"><ele>709.8333333333333</ele><time>2026-04-22T08:48:55.711Z</time></trkpt><trkpt lat="40.0908043" lon="9.5489033"><ele>710.0</ele><time>2026-04-22T08:48:56.697Z</time></trkpt><trkpt lat="40.0908178" lon="9.5487421"><ele>710.6</ele><time>2026-04-22T08:48:58.709Z</time></trkpt><trkpt lat="40.0908123" lon="9.548588"><ele>711.2</ele><time>2026-04-22T08:49:00.713Z</time></trkpt><trkpt lat="40.0908173" lon="9.5484432"><ele>711.8</ele><time>2026-04-22T08:49:02.702Z</time></trkpt><trkpt lat="40.0908189" lon="9.5483572"><ele>712.4</ele><time>2026-04-22T08:49:03.706Z</time></trkpt><trkpt lat="40.0908172" lon="9.5482706"><ele>713.0</ele><time>2026-04-22T08:49:04.706Z</time></trkpt><trkpt lat="40.0908176" lon="9.548123"><ele>713.0</ele><time>2026-04-22T08:49:06.707Z</time></trkpt><trkpt lat="40.0908235" lon="9.5480228"><ele>713.0</ele><time>2026-04-22T08:49:08.709Z</time></trkpt><trkpt lat="40.0908431" lon="9.5479266"><ele>713.0</ele><time>2026-04-22T08:49:10.707Z</time></trkpt><trkpt lat="40.0908554" lon="9.5478067"><ele>713.0</ele><time>2026-04-22T08:49:12.714Z</time></trkpt><trkpt lat="40.0908707" lon="9.5476525"><ele>713.0</ele><time>2026-04-22T08:49:14.706Z</time></trkpt><trkpt lat="40.0908648" lon="9.5475064"><ele>713.8</ele><time>2026-04-22T08:49:16.705Z</time></trkpt><trkpt lat="40.0908409" lon="9.5473543"><ele>714.5999999999999</ele><time>2026-04-22T08:49:18.703Z</time></trkpt><trkpt lat="40.0908185" lon="9.5471932"><ele>715.4000000000001</ele><time>2026-04-22T08:49:20.706Z</time></trkpt><trkpt lat="40.0908017" lon="9.5471077"><ele>716.2</ele><time>2026-04-22T08:49:21.707Z</time></trkpt><trkpt lat="40.0907871" lon="9.5470162"><ele>717.0</ele><time>2026-04-22T08:49:22.707Z</time></trkpt><trkpt lat="40.0907861" lon="9.5469189"><ele>718.0</ele><time>2026-04-22T08:49:23.712Z</time></trkpt><trkpt lat="40.0907883" lon="9.5468315"><ele>719.0</ele><time>2026-04-22T08:49:24.704Z</time></trkpt><trkpt lat="40.090786" lon="9.5466803"><ele>720.0</ele><time>2026-04-22T08:49:26.699Z</time></trkpt><trkpt lat="40.0907175" lon="9.5465534"><ele>721.0</ele><time>2026-04-22T08:49:28.713Z</time></trkpt><trkpt lat="40.090675" lon="9.5464677"><ele>722.0</ele><time>2026-04-22T08:49:29.703Z</time></trkpt><trkpt lat="40.0906416" lon="9.54638"><ele>723.1666666666666</ele><time>2026-04-22T08:49:30.716Z</time></trkpt><trkpt lat="40.0906127" lon="9.5462874"><ele>724.3333333333333</ele><time>2026-04-22T08:49:31.704Z</time></trkpt><trkpt lat="40.0905856" lon="9.5461923"><ele>725.5</ele><time>2026-04-22T08:49:32.709Z</time></trkpt><trkpt lat="40.0905654" lon="9.5460966"><ele>726.6666666666666</ele><time>2026-04-22T08:49:33.704Z</time></trkpt><trkpt lat="40.090544" lon="9.54601"><ele>727.8333333333334</ele><time>2026-04-22T08:49:34.712Z</time></trkpt><trkpt lat="40.0905135" lon="9.5458764"><ele>729.0</ele><time>2026-04-22T08:49:36.707Z</time></trkpt><trkpt lat="40.0904561" lon="9.5457358"><ele>729.6</ele><time>2026-04-22T08:49:38.706Z</time></trkpt><trkpt lat="40.090435" lon="9.5456578"><ele>730.2</ele><time>2026-04-22T08:49:39.712Z</time></trkpt><trkpt lat="40.0904161" lon="9.5455792"><ele>730.8000000000001</ele><time>2026-04-22T08:49:40.707Z</time></trkpt><trkpt lat="40.0903912" lon="9.5454363"><ele>731.4000000000001</ele><time>2026-04-22T08:49:42.704Z</time></trkpt><trkpt lat="40.0903699" lon="9.5452896"><ele>732.0</ele><time>2026-04-22T08:49:44.709Z</time></trkpt><trkpt lat="40.0903456" lon="9.5451245"><ele>732.8</ele><time>2026-04-22T08:49:46.717Z</time></trkpt><trkpt lat="40.0903349" lon="9.5449681"><ele>733.6</ele><time>2026-04-22T08:49:48.716Z</time></trkpt><trkpt lat="40.0903543" lon="9.5448424"><ele>734.4</ele><time>2026-04-22T08:49:50.711Z</time></trkpt><trkpt lat="40.0904009" lon="9.5447318"><ele>735.1999999999999</ele><time>2026-04-22T08:49:52.712Z</time></trkpt><trkpt lat="40.0904521" lon="9.5446458"><ele>736.0</ele><time>2026-04-22T08:49:54.718Z</time></trkpt><trkpt lat="40.090465" lon="9.5445461"><ele>736.8333333333334</ele><time>2026-04-22T08:50:06.705Z</time></trkpt><trkpt lat="40.0904523" lon="9.544393"><ele>737.6666666666667</ele><time>2026-04-22T08:50:08.711Z</time></trkpt><trkpt lat="40.0904478" lon="9.5442957"><ele>738.5</ele><time>2026-04-22T08:50:09.71Z</time></trkpt><trkpt lat="40.0904667" lon="9.5442018"><ele>739.3333333333334</ele><time>2026-04-22T08:50:10.711Z</time></trkpt><trkpt lat="40.0904956" lon="9.5440991"><ele>740.1666666666666</ele><time>2026-04-22T08:50:11.706Z</time></trkpt><trkpt lat="40.0905235" lon="9.5440015"><ele>741.0</ele><time>2026-04-22T08:50:12.711Z</time></trkpt><trkpt lat="40.0905413" lon="9.5438932"><ele>741.0</ele><time>2026-04-22T08:50:13.719Z</time></trkpt><trkpt lat="40.0905483" lon="9.5437778"><ele>741.0</ele><time>2026-04-22T08:50:14.714Z</time></trkpt><trkpt lat="40.0905513" lon="9.5436887"><ele>741.0</ele><time>2026-04-22T08:50:15.707Z</time></trkpt><trkpt lat="40.0905559" lon="9.5435961"><ele>741.0</ele><time>2026-04-22T08:50:16.713Z</time></trkpt><trkpt lat="40.0905651" lon="9.5435016"><ele>741.0</ele><time>2026-04-22T08:50:17.714Z</time></trkpt><trkpt lat="40.090585" lon="9.5434066"><ele>741.0</ele><time>2026-04-22T08:50:18.713Z</time></trkpt><trkpt lat="40.0905885" lon="9.5433087"><ele>741.1428571428571</ele><time>2026-04-22T08:50:19.712Z</time></trkpt><trkpt lat="40.0905892" lon="9.5432143"><ele>741.2857142857143</ele><time>2026-04-22T08:50:20.716Z</time></trkpt><trkpt lat="40.0905848" lon="9.5431135"><ele>741.4285714285714</ele><time>2026-04-22T08:50:21.714Z</time></trkpt><trkpt lat="40.090581" lon="9.5430208"><ele>741.5714285714286</ele><time>2026-04-22T08:50:22.708Z</time></trkpt><trkpt lat="40.090582" lon="9.542926"><ele>741.7142857142858</ele><time>2026-04-22T08:50:23.713Z</time></trkpt><trkpt lat="40.0905903" lon="9.5428382"><ele>741.8571428571429</ele><time>2026-04-22T08:50:24.716Z</time></trkpt><trkpt lat="40.0906008" lon="9.5427482"><ele>742.0</ele><time>2026-04-22T08:50:25.711Z</time></trkpt><trkpt lat="40.09061" lon="9.5426535"><ele>741.7142857142857</ele><time>2026-04-22T08:50:26.712Z</time></trkpt><trkpt lat="40.0906096" lon="9.5425529"><ele>741.4285714285714</ele><time>2026-04-22T08:50:27.716Z</time></trkpt><trkpt lat="40.0906106" lon="9.5424576"><ele>741.1428571428571</ele><time>2026-04-22T08:50:28.709Z</time></trkpt><trkpt lat="40.0906015" lon="9.5423622"><ele>740.8571428571429</ele><time>2026-04-22T08:50:29.715Z</time></trkpt><trkpt lat="40.0905849" lon="9.5422754"><ele>740.5714285714286</ele><time>2026-04-22T08:50:30.722Z</time></trkpt><trkpt lat="40.0905554" lon="9.5421915"><ele>740.2857142857142</ele><time>2026-04-22T08:50:31.712Z</time></trkpt><trkpt lat="40.0905222" lon="9.5420985"><ele>740.0</ele><time>2026-04-22T08:50:32.712Z</time></trkpt><trkpt lat="40.0904846" lon="9.5420091"><ele>739.5</ele><time>2026-04-22T08:50:33.709Z</time></trkpt><trkpt lat="40.0904375" lon="9.5419395"><ele>739.0</ele><time>2026-04-22T08:50:34.71Z</time></trkpt><trkpt lat="40.0903808" lon="9.5418732"><ele>738.5</ele><time>2026-04-22T08:50:35.716Z</time></trkpt><trkpt lat="40.0903273" lon="9.5418159"><ele>738.0</ele><time>2026-04-22T08:50:36.716Z</time></trkpt><trkpt lat="40.0902503" lon="9.5417073"><ele>737.5</ele><time>2026-04-22T08:50:38.709Z</time></trkpt><trkpt lat="40.0902248" lon="9.5415581"><ele>737.0</ele><time>2026-04-22T08:50:40.702Z</time></trkpt><trkpt lat="40.0902295" lon="9.5414637"><ele>737.0000000000001</ele><time>2026-04-22T08:50:41.708Z</time></trkpt><trkpt lat="40.0902338" lon="9.5413587"><ele>737.0</ele><time>2026-04-22T08:50:42.713Z</time></trkpt><trkpt lat="40.0902156" lon="9.5412502"><ele>737.0</ele><time>2026-04-22T08:50:43.714Z</time></trkpt><trkpt lat="40.0901853" lon="9.5411531"><ele>737.0</ele><time>2026-04-22T08:50:44.709Z</time></trkpt><trkpt lat="40.0901537" lon="9.5410762"><ele>737.0</ele><time>2026-04-22T08:50:45.713Z</time></trkpt><trkpt lat="40.0901245" lon="9.5409927"><ele>737.0000000000001</ele><time>2026-04-22T08:50:46.708Z</time></trkpt><trkpt lat="40.0901008" lon="9.5409135"><ele>737.0</ele><time>2026-04-22T08:50:47.708Z</time></trkpt><trkpt lat="40.0900895" lon="9.5408277"><ele>737.1428571428572</ele><time>2026-04-22T08:50:48.712Z</time></trkpt><trkpt lat="40.0900794" lon="9.5407319"><ele>737.2857142857143</ele><time>2026-04-22T08:50:49.705Z</time></trkpt><trkpt lat="40.0900741" lon="9.5406372"><ele>737.4285714285714</ele><time>2026-04-22T08:50:50.707Z</time></trkpt><trkpt lat="40.0900686" lon="9.5405484"><ele>737.5714285714287</ele><time>2026-04-22T08:50:51.706Z</time></trkpt><trkpt lat="40.0900708" lon="9.5404462"><ele>737.7142857142857</ele><time>2026-04-22T08:50:52.701Z</time></trkpt><trkpt lat="40.0900614" lon="9.5403544"><ele>737.8571428571429</ele><time>2026-04-22T08:50:53.703Z</time></trkpt><trkpt lat="40.0900549" lon="9.5402666"><ele>738.0</ele><time>2026-04-22T08:50:54.708Z</time></trkpt><trkpt lat="40.0900457" lon="9.5401693"><ele>737.1666666666666</ele><time>2026-04-22T08:50:55.704Z</time></trkpt><trkpt lat="40.0900348" lon="9.5400765"><ele>736.3333333333334</ele><time>2026-04-22T08:50:56.711Z</time></trkpt><trkpt lat="40.0900308" lon="9.5399671"><ele>735.5</ele><time>2026-04-22T08:50:57.703Z</time></trkpt><trkpt lat="40.090035" lon="9.5398567"><ele>734.6666666666667</ele><time>2026-04-22T08:50:58.702Z</time></trkpt><trkpt lat="40.0900343" lon="9.5397484"><ele>733.8333333333334</ele><time>2026-04-22T08:50:59.702Z</time></trkpt><trkpt lat="40.0900396" lon="9.5396517"><ele>733.0</ele><time>2026-04-22T08:51:00.707Z</time></trkpt><trkpt lat="40.0900331" lon="9.5395436"><ele>732.3333333333334</ele><time>2026-04-22T08:51:01.702Z</time></trkpt><trkpt lat="40.0900459" lon="9.5394341"><ele>731.6666666666667</ele><time>2026-04-22T08:51:02.701Z</time></trkpt><trkpt lat="40.0900744" lon="9.5393287"><ele>731.0</ele><time>2026-04-22T08:51:03.707Z</time></trkpt><trkpt lat="40.0901127" lon="9.5392314"><ele>730.3333333333334</ele><time>2026-04-22T08:51:04.704Z</time></trkpt><trkpt lat="40.0901463" lon="9.5391178"><ele>729.6666666666666</ele><time>2026-04-22T08:51:05.707Z</time></trkpt><trkpt lat="40.090183" lon="9.5390085"><ele>729.0</ele><time>2026-04-22T08:51:06.705Z</time></trkpt><trkpt lat="40.0902131" lon="9.5389038"><ele>729.0</ele><time>2026-04-22T08:51:07.711Z</time></trkpt><trkpt lat="40.0902491" lon="9.5387901"><ele>729.0</ele><time>2026-04-22T08:51:08.704Z</time></trkpt><trkpt lat="40.0902779" lon="9.5386741"><ele>729.0</ele><time>2026-04-22T08:51:09.709Z</time></trkpt><trkpt lat="40.0903045" lon="9.5385623"><ele>729.0</ele><time>2026-04-22T08:51:10.709Z</time></trkpt><trkpt lat="40.0903069" lon="9.538458"><ele>729.0</ele><time>2026-04-22T08:51:11.702Z</time></trkpt><trkpt lat="40.09031" lon="9.5383468"><ele>729.0</ele><time>2026-04-22T08:51:12.702Z</time></trkpt><trkpt lat="40.0903139" lon="9.5382536"><ele>728.5</ele><time>2026-04-22T08:51:13.712Z</time></trkpt><trkpt lat="40.0903218" lon="9.5381485"><ele>728.0</ele><time>2026-04-22T08:51:14.703Z</time></trkpt><trkpt lat="40.0903317" lon="9.5380373"><ele>727.5</ele><time>2026-04-22T08:51:15.719Z</time></trkpt><trkpt lat="40.090347" lon="9.5379235"><ele>727.0</ele><time>2026-04-22T08:51:16.704Z</time></trkpt><trkpt lat="40.0903526" lon="9.5378198"><ele>726.5</ele><time>2026-04-22T08:51:17.712Z</time></trkpt><trkpt lat="40.0903431" lon="9.5377081"><ele>726.0</ele><time>2026-04-22T08:51:18.704Z</time></trkpt><trkpt lat="40.0903219" lon="9.5375974"><ele>726.0</ele><time>2026-04-22T08:51:19.708Z</time></trkpt><trkpt lat="40.0902916" lon="9.5374941"><ele>726.0</ele><time>2026-04-22T08:51:20.704Z</time></trkpt><trkpt lat="40.0902576" lon="9.5374065"><ele>726.0</ele><time>2026-04-22T08:51:21.709Z</time></trkpt><trkpt lat="40.0902265" lon="9.5373295"><ele>726.0</ele><time>2026-04-22T08:51:22.711Z</time></trkpt><trkpt lat="40.0901856" lon="9.5372443"><ele>726.0</ele><time>2026-04-22T08:51:23.703Z</time></trkpt><trkpt lat="40.0901505" lon="9.5371401"><ele>726.0</ele><time>2026-04-22T08:51:24.708Z</time></trkpt><trkpt lat="40.0901254" lon="9.5370319"><ele>725.5</ele><time>2026-04-22T08:51:25.718Z</time></trkpt><trkpt lat="40.0901069" lon="9.5369205"><ele>725.0</ele><time>2026-04-22T08:51:26.712Z</time></trkpt><trkpt lat="40.0900904" lon="9.5368012"><ele>724.5</ele><time>2026-04-22T08:51:27.708Z</time></trkpt><trkpt lat="40.0900801" lon="9.5366927"><ele>724.0</ele><time>2026-04-22T08:51:28.713Z</time></trkpt><trkpt lat="40.0900851" lon="9.5365941"><ele>723.5</ele><time>2026-04-22T08:51:29.713Z</time></trkpt><trkpt lat="40.0900956" lon="9.5364976"><ele>723.0</ele><time>2026-04-22T08:51:30.711Z</time></trkpt><trkpt lat="40.0901167" lon="9.5364009"><ele>723.0</ele><time>2026-04-22T08:51:31.706Z</time></trkpt><trkpt lat="40.0901461" lon="9.536305"><ele>723.0</ele><time>2026-04-22T08:51:32.711Z</time></trkpt><trkpt lat="40.090192" lon="9.5362036"><ele>723.0</ele><time>2026-04-22T08:51:33.711Z</time></trkpt><trkpt lat="40.0902573" lon="9.5360979"><ele>723.0</ele><time>2026-04-22T08:51:34.708Z</time></trkpt><trkpt lat="40.0903218" lon="9.5359855"><ele>723.0</ele><time>2026-04-22T08:51:35.706Z</time></trkpt><trkpt lat="40.0903861" lon="9.5358812"><ele>722.2</ele><time>2026-04-22T08:51:36.707Z</time></trkpt><trkpt lat="40.0904479" lon="9.535772"><ele>721.4</ele><time>2026-04-22T08:51:37.706Z</time></trkpt><trkpt lat="40.0905109" lon="9.5356744"><ele>720.6</ele><time>2026-04-22T08:51:38.709Z</time></trkpt><trkpt lat="40.0905764" lon="9.5355932"><ele>719.8000000000001</ele><time>2026-04-22T08:51:39.709Z</time></trkpt><trkpt lat="40.0906408" lon="9.5355275"><ele>719.0</ele><time>2026-04-22T08:51:40.707Z</time></trkpt><trkpt lat="40.0907069" lon="9.5354568"><ele>720.4000000000001</ele><time>2026-04-22T08:51:41.704Z</time></trkpt><trkpt lat="40.0907776" lon="9.5353849"><ele>721.8</ele><time>2026-04-22T08:51:42.713Z</time></trkpt><trkpt lat="40.0908672" lon="9.5353215"><ele>723.2</ele><time>2026-04-22T08:51:43.714Z</time></trkpt><trkpt lat="40.0909515" lon="9.5352493"><ele>724.5999999999999</ele><time>2026-04-22T08:51:44.734Z</time></trkpt><trkpt lat="40.0910265" lon="9.5351752"><ele>726.0</ele><time>2026-04-22T08:51:45.803Z</time></trkpt><trkpt lat="40.0911033" lon="9.5351175"><ele>726.0</ele><time>2026-04-22T08:51:46.783Z</time></trkpt><trkpt lat="40.0911879" lon="9.5350677"><ele>726.0</ele><time>2026-04-22T08:51:47.788Z</time></trkpt><trkpt lat="40.0912727" lon="9.5350222"><ele>726.0</ele><time>2026-04-22T08:51:48.791Z</time></trkpt><trkpt lat="40.0913523" lon="9.5349773"><ele>726.0</ele><time>2026-04-22T08:51:49.788Z</time></trkpt><trkpt lat="40.0914555" lon="9.5349331"><ele>726.0</ele><time>2026-04-22T08:51:50.791Z</time></trkpt><trkpt lat="40.0915422" lon="9.5348899"><ele>727.1999999999999</ele><time>2026-04-22T08:51:51.8Z</time></trkpt><trkpt lat="40.0916269" lon="9.534843"><ele>728.4</ele><time>2026-04-22T08:51:52.789Z</time></trkpt><trkpt lat="40.0917121" lon="9.5347972"><ele>729.6</ele><time>2026-04-22T08:51:53.79Z</time></trkpt><trkpt lat="40.091799" lon="9.5347501"><ele>730.8</ele><time>2026-04-22T08:51:54.788Z</time></trkpt><trkpt lat="40.0918864" lon="9.5347023"><ele>732.0</ele><time>2026-04-22T08:51:55.785Z</time></trkpt><trkpt lat="40.0920031" lon="9.5347206"><ele>732.0</ele><time>2026-04-22T08:51:56.793Z</time></trkpt><trkpt lat="40.0920967" lon="9.5346885"><ele>732.0</ele><time>2026-04-22T08:51:57.788Z</time></trkpt><trkpt lat="40.0921984" lon="9.534657"><ele>732.0</ele><time>2026-04-22T08:51:58.775Z</time></trkpt><trkpt lat="40.0922891" lon="9.5345998"><ele>732.0</ele><time>2026-04-22T08:51:59.774Z</time></trkpt><trkpt lat="40.0923726" lon="9.5345276"><ele>732.0</ele><time>2026-04-22T08:52:00.777Z</time></trkpt><trkpt lat="40.0924453" lon="9.5344768"><ele>731.6</ele><time>2026-04-22T08:52:01.769Z</time></trkpt><trkpt lat="40.0925218" lon="9.5344108"><ele>731.2</ele><time>2026-04-22T08:52:02.789Z</time></trkpt><trkpt lat="40.0925923" lon="9.5343451"><ele>730.8</ele><time>2026-04-22T08:52:03.788Z</time></trkpt><trkpt lat="40.0926535" lon="9.5342847"><ele>730.4</ele><time>2026-04-22T08:52:04.768Z</time></trkpt><trkpt lat="40.0927062" lon="9.5342322"><ele>730.0</ele><time>2026-04-22T08:52:05.77Z</time></trkpt><trkpt lat="40.0928198" lon="9.5341239"><ele>730.0</ele><time>2026-04-22T08:52:07.767Z</time></trkpt><trkpt lat="40.092902" lon="9.534048"><ele>730.0</ele><time>2026-04-22T08:52:08.781Z</time></trkpt><trkpt lat="40.0929855" lon="9.5339727"><ele>730.0</ele><time>2026-04-22T08:52:09.794Z</time></trkpt><trkpt lat="40.0931741" lon="9.5338349"><ele>730.0</ele><time>2026-04-22T08:52:11.793Z</time></trkpt><trkpt lat="40.0932837" lon="9.5337917"><ele>729.6</ele><time>2026-04-22T08:52:12.786Z</time></trkpt><trkpt lat="40.0933719" lon="9.5337924"><ele>729.2</ele><time>2026-04-22T08:52:13.775Z</time></trkpt><trkpt lat="40.0934699" lon="9.5338258"><ele>728.8</ele><time>2026-04-22T08:52:14.771Z</time></trkpt><trkpt lat="40.0935687" lon="9.5338738"><ele>728.4</ele><time>2026-04-22T08:52:15.768Z</time></trkpt><trkpt lat="40.0936694" lon="9.5339275"><ele>728.0</ele><time>2026-04-22T08:52:16.773Z</time></trkpt><trkpt lat="40.093776" lon="9.5339807"><ele>728.0</ele><time>2026-04-22T08:52:17.792Z</time></trkpt><trkpt lat="40.0938762" lon="9.5340148"><ele>728.0</ele><time>2026-04-22T08:52:18.782Z</time></trkpt><trkpt lat="40.0939754" lon="9.5340562"><ele>728.0</ele><time>2026-04-22T08:52:19.783Z</time></trkpt><trkpt lat="40.0940753" lon="9.5341004"><ele>728.0</ele><time>2026-04-22T08:52:20.778Z</time></trkpt><trkpt lat="40.0941682" lon="9.534152"><ele>728.0</ele><time>2026-04-22T08:52:21.787Z</time></trkpt><trkpt lat="40.09426" lon="9.534209"><ele>727.8</ele><time>2026-04-22T08:52:22.783Z</time></trkpt><trkpt lat="40.0943518" lon="9.5342684"><ele>727.5999999999999</ele><time>2026-04-22T08:52:23.784Z</time></trkpt><trkpt lat="40.0944401" lon="9.534337"><ele>727.4000000000001</ele><time>2026-04-22T08:52:24.79Z</time></trkpt><trkpt lat="40.0945239" lon="9.5343983"><ele>727.2</ele><time>2026-04-22T08:52:25.787Z</time></trkpt><trkpt lat="40.0946014" lon="9.5344487"><ele>727.0</ele><time>2026-04-22T08:52:26.789Z</time></trkpt><trkpt lat="40.0946686" lon="9.5344949"><ele>727.0</ele><time>2026-04-22T08:52:27.798Z</time></trkpt><trkpt lat="40.0947362" lon="9.5345319"><ele>727.0</ele><time>2026-04-22T08:52:28.793Z</time></trkpt><trkpt lat="40.0948061" lon="9.5345501"><ele>727.0</ele><time>2026-04-22T08:52:29.794Z</time></trkpt><trkpt lat="40.0948724" lon="9.5345462"><ele>727.0</ele><time>2026-04-22T08:52:30.798Z</time></trkpt><trkpt lat="40.0949732" lon="9.5345474"><ele>727.0</ele><time>2026-04-22T08:52:31.781Z</time></trkpt><trkpt lat="40.0950466" lon="9.5345344"><ele>727.0</ele><time>2026-04-22T08:52:32.78Z</time></trkpt><trkpt lat="40.0951169" lon="9.5345129"><ele>726.8</ele><time>2026-04-22T08:52:33.778Z</time></trkpt><trkpt lat="40.0951823" lon="9.5344752"><ele>726.6</ele><time>2026-04-22T08:52:34.773Z</time></trkpt><trkpt lat="40.095272" lon="9.534422"><ele>726.4</ele><time>2026-04-22T08:52:35.788Z</time></trkpt><trkpt lat="40.0953793" lon="9.5343423"><ele>726.1999999999999</ele><time>2026-04-22T08:52:36.782Z</time></trkpt><trkpt lat="40.0954936" lon="9.5342597"><ele>726.0</ele><time>2026-04-22T08:52:37.775Z</time></trkpt><trkpt lat="40.0956046" lon="9.5341764"><ele>726.0</ele><time>2026-04-22T08:52:38.775Z</time></trkpt><trkpt lat="40.0957211" lon="9.5340885"><ele>726.0</ele><time>2026-04-22T08:52:39.779Z</time></trkpt><trkpt lat="40.0958337" lon="9.5340038"><ele>726.0</ele><time>2026-04-22T08:52:40.781Z</time></trkpt><trkpt lat="40.0959368" lon="9.5339245"><ele>726.0</ele><time>2026-04-22T08:52:41.788Z</time></trkpt><trkpt lat="40.0960351" lon="9.533837"><ele>726.0</ele><time>2026-04-22T08:52:42.784Z</time></trkpt><trkpt lat="40.0961246" lon="9.5337292"><ele>726.0</ele><time>2026-04-22T08:52:43.796Z</time></trkpt><trkpt lat="40.0961938" lon="9.5335928"><ele>726.0</ele><time>2026-04-22T08:52:44.79Z</time></trkpt><trkpt lat="40.0962306" lon="9.5334349"><ele>726.0</ele><time>2026-04-22T08:52:45.777Z</time></trkpt><trkpt lat="40.0962468" lon="9.5332766"><ele>726.25</ele><time>2026-04-22T08:52:46.776Z</time></trkpt><trkpt lat="40.096261" lon="9.5331014"><ele>726.5</ele><time>2026-04-22T08:52:47.778Z</time></trkpt><trkpt lat="40.096259" lon="9.5329267"><ele>726.75</ele><time>2026-04-22T08:52:48.782Z</time></trkpt><trkpt lat="40.096257" lon="9.5327553"><ele>727.0</ele><time>2026-04-22T08:52:49.8Z</time></trkpt><trkpt lat="40.0962561" lon="9.5325905"><ele>726.5</ele><time>2026-04-22T08:52:50.808Z</time></trkpt><trkpt lat="40.0962569" lon="9.5324386"><ele>726.0</ele><time>2026-04-22T08:52:51.805Z</time></trkpt><trkpt lat="40.0962562" lon="9.5322969"><ele>725.5</ele><time>2026-04-22T08:52:52.81Z</time></trkpt><trkpt lat="40.096254" lon="9.5321511"><ele>725.0</ele><time>2026-04-22T08:52:53.796Z</time></trkpt><trkpt lat="40.0962552" lon="9.5319973"><ele>725.0</ele><time>2026-04-22T08:52:54.796Z</time></trkpt><trkpt lat="40.0962571" lon="9.531843"><ele>725.0</ele><time>2026-04-22T08:52:55.799Z</time></trkpt><trkpt lat="40.0962589" lon="9.5316862"><ele>725.0</ele><time>2026-04-22T08:52:56.8Z</time></trkpt><trkpt lat="40.0962604" lon="9.5315256"><ele>725.0</ele><time>2026-04-22T08:52:57.793Z</time></trkpt><trkpt lat="40.096262" lon="9.5313629"><ele>725.0</ele><time>2026-04-22T08:52:58.804Z</time></trkpt><trkpt lat="40.0962659" lon="9.5311999"><ele>725.0</ele><time>2026-04-22T08:52:59.793Z</time></trkpt><trkpt lat="40.0962692" lon="9.5310401"><ele>725.0</ele><time>2026-04-22T08:53:00.808Z</time></trkpt><trkpt lat="40.09628" lon="9.530888"><ele>725.0</ele><time>2026-04-22T08:53:01.803Z</time></trkpt><trkpt lat="40.0962921" lon="9.5307542"><ele>725.0</ele><time>2026-04-22T08:53:02.794Z</time></trkpt><trkpt lat="40.0963188" lon="9.5306301"><ele>725.0</ele><time>2026-04-22T08:53:03.793Z</time></trkpt><trkpt lat="40.0963663" lon="9.5305206"><ele>725.0</ele><time>2026-04-22T08:53:04.781Z</time></trkpt><trkpt lat="40.0964399" lon="9.5304289"><ele>725.0</ele><time>2026-04-22T08:53:05.778Z</time></trkpt><trkpt lat="40.0965225" lon="9.5303494"><ele>725.0</ele><time>2026-04-22T08:53:06.776Z</time></trkpt><trkpt lat="40.0966106" lon="9.5302921"><ele>726.4</ele><time>2026-04-22T08:53:07.768Z</time></trkpt><trkpt lat="40.0967092" lon="9.5302599"><ele>727.8</ele><time>2026-04-22T08:53:08.781Z</time></trkpt><trkpt lat="40.0968273" lon="9.5302314"><ele>729.2</ele><time>2026-04-22T08:53:09.79Z</time></trkpt><trkpt lat="40.0969194" lon="9.5302278"><ele>730.6</ele><time>2026-04-22T08:53:10.771Z</time></trkpt><trkpt lat="40.0970107" lon="9.5302246"><ele>732.0</ele><time>2026-04-22T08:53:11.774Z</time></trkpt><trkpt lat="40.0970877" lon="9.530214"><ele>732.0</ele><time>2026-04-22T08:53:12.775Z</time></trkpt><trkpt lat="40.0971474" lon="9.5301782"><ele>732.0</ele><time>2026-04-22T08:53:13.778Z</time></trkpt><trkpt lat="40.0972051" lon="9.5300493"><ele>732.0</ele><time>2026-04-22T08:53:15.792Z</time></trkpt><trkpt lat="40.0972155" lon="9.5299661"><ele>732.0</ele><time>2026-04-22T08:53:16.783Z</time></trkpt><trkpt lat="40.0972215" lon="9.5298604"><ele>732.0</ele><time>2026-04-22T08:53:17.696Z</time></trkpt><trkpt lat="40.0972119" lon="9.5297076"><ele>732.0</ele><time>2026-04-22T08:53:18.693Z</time></trkpt><trkpt lat="40.0972167" lon="9.5295657"><ele>732.0</ele><time>2026-04-22T08:53:19.693Z</time></trkpt><trkpt lat="40.0972384" lon="9.5294267"><ele>732.0</ele><time>2026-04-22T08:53:20.704Z</time></trkpt><trkpt lat="40.0972815" lon="9.5293049"><ele>732.0</ele><time>2026-04-22T08:53:21.703Z</time></trkpt><trkpt lat="40.097339" lon="9.5291887"><ele>732.0</ele><time>2026-04-22T08:53:22.706Z</time></trkpt><trkpt lat="40.0974364" lon="9.5291164"><ele>732.0</ele><time>2026-04-22T08:53:23.702Z</time></trkpt><trkpt lat="40.0975558" lon="9.5290598"><ele>732.6</ele><time>2026-04-22T08:53:24.71Z</time></trkpt><trkpt lat="40.0976672" lon="9.5290152"><ele>733.2</ele><time>2026-04-22T08:53:25.703Z</time></trkpt><trkpt lat="40.0977696" lon="9.5289697"><ele>733.8</ele><time>2026-04-22T08:53:26.715Z</time></trkpt><trkpt lat="40.0978634" lon="9.5289428"><ele>734.4</ele><time>2026-04-22T08:53:27.703Z</time></trkpt><trkpt lat="40.0979576" lon="9.5289601"><ele>735.0</ele><time>2026-04-22T08:53:28.706Z</time></trkpt><trkpt lat="40.098071" lon="9.5290145"><ele>735.0</ele><time>2026-04-22T08:53:29.701Z</time></trkpt><trkpt lat="40.0981681" lon="9.529067"><ele>735.0</ele><time>2026-04-22T08:53:30.696Z</time></trkpt><trkpt lat="40.0982694" lon="9.5290922"><ele>735.0</ele><time>2026-04-22T08:53:31.697Z</time></trkpt><trkpt lat="40.0983779" lon="9.5290765"><ele>735.0</ele><time>2026-04-22T08:53:32.688Z</time></trkpt><trkpt lat="40.0984977" lon="9.529012"><ele>735.0</ele><time>2026-04-22T08:53:33.692Z</time></trkpt><trkpt lat="40.0986283" lon="9.5289376"><ele>735.75</ele><time>2026-04-22T08:53:34.691Z</time></trkpt><trkpt lat="40.0987552" lon="9.5288665"><ele>736.5</ele><time>2026-04-22T08:53:35.697Z</time></trkpt><trkpt lat="40.0988704" lon="9.5287851"><ele>737.25</ele><time>2026-04-22T08:53:36.698Z</time></trkpt><trkpt lat="40.0989725" lon="9.5286991"><ele>738.0</ele><time>2026-04-22T08:53:37.698Z</time></trkpt><trkpt lat="40.0990791" lon="9.5286089"><ele>734.0</ele><time>2026-04-22T08:53:38.696Z</time></trkpt><trkpt lat="40.0991769" lon="9.5285146"><ele>730.0</ele><time>2026-04-22T08:53:39.695Z</time></trkpt><trkpt lat="40.0992834" lon="9.528425"><ele>726.0</ele><time>2026-04-22T08:53:40.693Z</time></trkpt><trkpt lat="40.0993777" lon="9.5283382"><ele>722.0</ele><time>2026-04-22T08:53:41.694Z</time></trkpt><trkpt lat="40.0994786" lon="9.5282589"><ele>722.0</ele><time>2026-04-22T08:53:42.702Z</time></trkpt><trkpt lat="40.0995886" lon="9.5281972"><ele>722.0</ele><time>2026-04-22T08:53:43.702Z</time></trkpt><trkpt lat="40.0997125" lon="9.5281563"><ele>722.0</ele><time>2026-04-22T08:53:44.698Z</time></trkpt><trkpt lat="40.0998281" lon="9.528122"><ele>722.0</ele><time>2026-04-22T08:53:45.696Z</time></trkpt><trkpt lat="40.0999478" lon="9.5281143"><ele>721.6666666666666</ele><time>2026-04-22T08:53:46.701Z</time></trkpt><trkpt lat="40.1000553" lon="9.528102"><ele>721.3333333333333</ele><time>2026-04-22T08:53:47.698Z</time></trkpt><trkpt lat="40.100147" lon="9.5280927"><ele>721.0</ele><time>2026-04-22T08:53:48.687Z</time></trkpt><trkpt lat="40.100221" lon="9.5280577"><ele>720.6666666666666</ele><time>2026-04-22T08:53:49.683Z</time></trkpt><trkpt lat="40.1002818" lon="9.5279993"><ele>720.3333333333334</ele><time>2026-04-22T08:53:50.685Z</time></trkpt><trkpt lat="40.100326" lon="9.527913"><ele>720.0</ele><time>2026-04-22T08:53:51.689Z</time></trkpt><trkpt lat="40.100352" lon="9.5277936"><ele>720.0</ele><time>2026-04-22T08:53:52.687Z</time></trkpt><trkpt lat="40.1003421" lon="9.5276596"><ele>720.0</ele><time>2026-04-22T08:53:53.685Z</time></trkpt><trkpt lat="40.1003081" lon="9.5275211"><ele>720.0</ele><time>2026-04-22T08:53:54.689Z</time></trkpt><trkpt lat="40.1002702" lon="9.5273891"><ele>720.0</ele><time>2026-04-22T08:53:55.692Z</time></trkpt><trkpt lat="40.1002254" lon="9.52724"><ele>720.0</ele><time>2026-04-22T08:53:56.696Z</time></trkpt><trkpt lat="40.1002041" lon="9.5270971"><ele>722.8</ele><time>2026-04-22T08:53:57.699Z</time></trkpt><trkpt lat="40.1001703" lon="9.5269729"><ele>725.6</ele><time>2026-04-22T08:53:58.694Z</time></trkpt><trkpt lat="40.1001171" lon="9.5268458"><ele>728.4000000000001</ele><time>2026-04-22T08:53:59.693Z</time></trkpt><trkpt lat="40.1000569" lon="9.5267565"><ele>731.2</ele><time>2026-04-22T08:54:00.7Z</time></trkpt><trkpt lat="40.0999555" lon="9.5267006"><ele>734.0</ele><time>2026-04-22T08:54:01.693Z</time></trkpt><trkpt lat="40.0998411" lon="9.526646"><ele>726.5</ele><time>2026-04-22T08:54:02.695Z</time></trkpt><trkpt lat="40.0997293" lon="9.5265954"><ele>719.0</ele><time>2026-04-22T08:54:03.69Z</time></trkpt><trkpt lat="40.099614" lon="9.5265395"><ele>711.5</ele><time>2026-04-22T08:54:04.693Z</time></trkpt><trkpt lat="40.0995052" lon="9.5264702"><ele>704.0</ele><time>2026-04-22T08:54:05.699Z</time></trkpt><trkpt lat="40.099404" lon="9.5263892"><ele>704.0</ele><time>2026-04-22T08:54:06.7Z</time></trkpt><trkpt lat="40.0993115" lon="9.5263081"><ele>704.0</ele><time>2026-04-22T08:54:07.698Z</time></trkpt><trkpt lat="40.099219" lon="9.5262285"><ele>704.0</ele><time>2026-04-22T08:54:08.698Z</time></trkpt><trkpt lat="40.0991192" lon="9.5261614"><ele>704.0</ele><time>2026-04-22T08:54:09.706Z</time></trkpt><trkpt lat="40.0990332" lon="9.5260862"><ele>704.0</ele><time>2026-04-22T08:54:10.708Z</time></trkpt><trkpt lat="40.098947" lon="9.5260276"><ele>701.4000000000001</ele><time>2026-04-22T08:54:11.704Z</time></trkpt><trkpt lat="40.0988756" lon="9.5259592"><ele>698.8</ele><time>2026-04-22T08:54:12.7Z</time></trkpt><trkpt lat="40.0988247" lon="9.5258722"><ele>696.2</ele><time>2026-04-22T08:54:13.702Z</time></trkpt><trkpt lat="40.0988115" lon="9.5257535"><ele>693.5999999999999</ele><time>2026-04-22T08:54:14.696Z</time></trkpt><trkpt lat="40.0988366" lon="9.5255923"><ele>691.0</ele><time>2026-04-22T08:54:15.688Z</time></trkpt><trkpt lat="40.0988819" lon="9.5254351"><ele>688.5</ele><time>2026-04-22T08:54:16.69Z</time></trkpt><trkpt lat="40.0989283" lon="9.5252757"><ele>686.0</ele><time>2026-04-22T08:54:17.694Z</time></trkpt><trkpt lat="40.0989947" lon="9.5251352"><ele>683.5</ele><time>2026-04-22T08:54:18.69Z</time></trkpt><trkpt lat="40.0990631" lon="9.5250088"><ele>681.0</ele><time>2026-04-22T08:54:19.7Z</time></trkpt><trkpt lat="40.099125" lon="9.5248983"><ele>683.0</ele><time>2026-04-22T08:54:20.695Z</time></trkpt><trkpt lat="40.0991811" lon="9.5247987"><ele>685.0</ele><time>2026-04-22T08:54:21.697Z</time></trkpt><trkpt lat="40.0992255" lon="9.5247086"><ele>687.0</ele><time>2026-04-22T08:54:22.702Z</time></trkpt><trkpt lat="40.0992436" lon="9.5246148"><ele>689.0</ele><time>2026-04-22T08:54:23.695Z</time></trkpt><trkpt lat="40.0992224" lon="9.5245122"><ele>691.0</ele><time>2026-04-22T08:54:24.701Z</time></trkpt><trkpt lat="40.0991895" lon="9.5244309"><ele>693.0</ele><time>2026-04-22T08:54:25.697Z</time></trkpt><trkpt lat="40.0991242" lon="9.5243995"><ele>690.5999999999999</ele><time>2026-04-22T08:54:26.697Z</time></trkpt><trkpt lat="40.0990368" lon="9.5244218"><ele>688.1999999999999</ele><time>2026-04-22T08:54:27.696Z</time></trkpt><trkpt lat="40.0989552" lon="9.5244968"><ele>685.8</ele><time>2026-04-22T08:54:28.684Z</time></trkpt><trkpt lat="40.0988914" lon="9.5246367"><ele>683.4</ele><time>2026-04-22T08:54:29.686Z</time></trkpt><trkpt lat="40.0988558" lon="9.5247868"><ele>681.0</ele><time>2026-04-22T08:54:30.697Z</time></trkpt><trkpt lat="40.0988124" lon="9.5249406"><ele>681.0</ele><time>2026-04-22T08:54:31.696Z</time></trkpt><trkpt lat="40.0987609" lon="9.5250699"><ele>681.0</ele><time>2026-04-22T08:54:32.697Z</time></trkpt><trkpt lat="40.098711" lon="9.5251958"><ele>681.0</ele><time>2026-04-22T08:54:33.691Z</time></trkpt><trkpt lat="40.098641" lon="9.5252967"><ele>681.0</ele><time>2026-04-22T08:54:34.692Z</time></trkpt><trkpt lat="40.0985596" lon="9.5253849"><ele>681.0</ele><time>2026-04-22T08:54:35.697Z</time></trkpt><trkpt lat="40.0984738" lon="9.5254564"><ele>683.0</ele><time>2026-04-22T08:54:36.701Z</time></trkpt><trkpt lat="40.0983809" lon="9.5255082"><ele>685.0</ele><time>2026-04-22T08:54:37.703Z</time></trkpt><trkpt lat="40.0982896" lon="9.5255568"><ele>687.0</ele><time>2026-04-22T08:54:38.709Z</time></trkpt><trkpt lat="40.0982033" lon="9.5256097"><ele>689.0</ele><time>2026-04-22T08:54:39.708Z</time></trkpt><trkpt lat="40.0981211" lon="9.5256615"><ele>691.0</ele><time>2026-04-22T08:54:40.711Z</time></trkpt><trkpt lat="40.0980405" lon="9.5257231"><ele>686.8333333333334</ele><time>2026-04-22T08:54:41.699Z</time></trkpt><trkpt lat="40.0979766" lon="9.5258033"><ele>682.6666666666667</ele><time>2026-04-22T08:54:42.696Z</time></trkpt><trkpt lat="40.0979532" lon="9.5259132"><ele>678.5</ele><time>2026-04-22T08:54:43.711Z</time></trkpt><trkpt lat="40.0979796" lon="9.5260174"><ele>674.3333333333334</ele><time>2026-04-22T08:54:44.699Z</time></trkpt><trkpt lat="40.0980228" lon="9.5261324"><ele>670.1666666666666</ele><time>2026-04-22T08:54:45.707Z</time></trkpt><trkpt lat="40.0980546" lon="9.5262225"><ele>666.0</ele><time>2026-04-22T08:54:46.706Z</time></trkpt><trkpt lat="40.0980638" lon="9.5263126"><ele>666.0</ele><time>2026-04-22T08:54:47.705Z</time></trkpt><trkpt lat="40.0979851" lon="9.5264113"><ele>666.0</ele><time>2026-04-22T08:54:49.707Z</time></trkpt><trkpt lat="40.0978756" lon="9.526289"><ele>666.0</ele><time>2026-04-22T08:54:51.687Z</time></trkpt><trkpt lat="40.0978334" lon="9.5261838"><ele>666.0</ele><time>2026-04-22T08:54:52.69Z</time></trkpt><trkpt lat="40.0977808" lon="9.5260622"><ele>666.0</ele><time>2026-04-22T08:54:53.695Z</time></trkpt><trkpt lat="40.0977285" lon="9.5259269"><ele>666.0</ele><time>2026-04-22T08:54:54.703Z</time></trkpt><trkpt lat="40.0976814" lon="9.525786"><ele>666.0</ele><time>2026-04-22T08:54:55.711Z</time></trkpt><trkpt lat="40.097641" lon="9.5256356"><ele>666.0</ele><time>2026-04-22T08:54:56.712Z</time></trkpt><trkpt lat="40.0976226" lon="9.5254782"><ele>664.5</ele><time>2026-04-22T08:54:57.704Z</time></trkpt><trkpt lat="40.0976171" lon="9.5253195"><ele>663.0</ele><time>2026-04-22T08:54:58.705Z</time></trkpt><trkpt lat="40.097634" lon="9.5251579"><ele>661.5</ele><time>2026-04-22T08:54:59.706Z</time></trkpt><trkpt lat="40.0976715" lon="9.525"><ele>660.0</ele><time>2026-04-22T08:55:00.715Z</time></trkpt><trkpt lat="40.0977336" lon="9.5248662"><ele>660.0</ele><time>2026-04-22T08:55:01.695Z</time></trkpt><trkpt lat="40.0978064" lon="9.5247538"><ele>660.0</ele><time>2026-04-22T08:55:02.705Z</time></trkpt><trkpt lat="40.0979187" lon="9.5247068"><ele>660.0</ele><time>2026-04-22T08:55:03.696Z</time></trkpt><trkpt lat="40.0980341" lon="9.524691"><ele>660.0</ele><time>2026-04-22T08:55:04.708Z</time></trkpt><trkpt lat="40.098122" lon="9.5246618"><ele>660.0</ele><time>2026-04-22T08:55:05.693Z</time></trkpt><trkpt lat="40.098201" lon="9.5246136"><ele>661.25</ele><time>2026-04-22T08:55:06.687Z</time></trkpt><trkpt lat="40.0982782" lon="9.5245285"><ele>662.5</ele><time>2026-04-22T08:55:07.694Z</time></trkpt><trkpt lat="40.0983365" lon="9.5244073"><ele>663.75</ele><time>2026-04-22T08:55:08.695Z</time></trkpt><trkpt lat="40.0983662" lon="9.5242505"><ele>665.0</ele><time>2026-04-22T08:55:09.703Z</time></trkpt><trkpt lat="40.0983813" lon="9.5240952"><ele>665.0</ele><time>2026-04-22T08:55:10.705Z</time></trkpt><trkpt lat="40.098388" lon="9.5239396"><ele>665.0</ele><time>2026-04-22T08:55:11.709Z</time></trkpt><trkpt lat="40.0983853" lon="9.5237975"><ele>665.0</ele><time>2026-04-22T08:55:12.705Z</time></trkpt><trkpt lat="40.0983948" lon="9.5236647"><ele>665.0</ele><time>2026-04-22T08:55:13.715Z</time></trkpt><trkpt lat="40.0984125" lon="9.5235433"><ele>665.0</ele><time>2026-04-22T08:55:14.706Z</time></trkpt><trkpt lat="40.0984449" lon="9.5234337"><ele>662.0</ele><time>2026-04-22T08:55:15.708Z</time></trkpt><trkpt lat="40.0984996" lon="9.5233538"><ele>659.0</ele><time>2026-04-22T08:55:16.699Z</time></trkpt><trkpt lat="40.0985903" lon="9.5233138"><ele>656.0</ele><time>2026-04-22T08:55:17.7Z</time></trkpt><trkpt lat="40.0986942" lon="9.5232766"><ele>653.0</ele><time>2026-04-22T08:55:18.704Z</time></trkpt><trkpt lat="40.0988033" lon="9.5232339"><ele>650.0</ele><time>2026-04-22T08:55:19.705Z</time></trkpt><trkpt lat="40.098912" lon="9.5231984"><ele>650.0</ele><time>2026-04-22T08:55:20.71Z</time></trkpt><trkpt lat="40.099016" lon="9.5231765"><ele>650.0</ele><time>2026-04-22T08:55:21.706Z</time></trkpt><trkpt lat="40.0991138" lon="9.5231788"><ele>650.0</ele><time>2026-04-22T08:55:22.698Z</time></trkpt><trkpt lat="40.0992054" lon="9.5231905"><ele>650.0</ele><time>2026-04-22T08:55:23.701Z</time></trkpt><trkpt lat="40.09929" lon="9.5232114"><ele>650.0</ele><time>2026-04-22T08:55:24.698Z</time></trkpt><trkpt lat="40.0993806" lon="9.5232254"><ele>653.25</ele><time>2026-04-22T08:55:25.698Z</time></trkpt><trkpt lat="40.0994769" lon="9.5232094"><ele>656.5</ele><time>2026-04-22T08:55:26.683Z</time></trkpt><trkpt lat="40.0995872" lon="9.5231673"><ele>659.75</ele><time>2026-04-22T08:55:27.684Z</time></trkpt><trkpt lat="40.099706" lon="9.5230951"><ele>663.0</ele><time>2026-04-22T08:55:28.72Z</time></trkpt><trkpt lat="40.0998148" lon="9.5230164"><ele>667.0</ele><time>2026-04-22T08:55:29.707Z</time></trkpt><trkpt lat="40.0999261" lon="9.5229502"><ele>671.0</ele><time>2026-04-22T08:55:30.711Z</time></trkpt><trkpt lat="40.1000328" lon="9.5228804"><ele>675.0</ele><time>2026-04-22T08:55:31.7Z</time></trkpt><trkpt lat="40.1001553" lon="9.5228186"><ele>679.0</ele><time>2026-04-22T08:55:32.703Z</time></trkpt><trkpt lat="40.1002694" lon="9.52276"><ele>667.25</ele><time>2026-04-22T08:55:33.778Z</time></trkpt><trkpt lat="40.10038" lon="9.5227011"><ele>655.5</ele><time>2026-04-22T08:55:34.783Z</time></trkpt><trkpt lat="40.1004848" lon="9.5226448"><ele>643.75</ele><time>2026-04-22T08:55:35.782Z</time></trkpt><trkpt lat="40.100589" lon="9.5225879"><ele>632.0</ele><time>2026-04-22T08:55:36.689Z</time></trkpt><trkpt lat="40.1007063" lon="9.5225769"><ele>634.25</ele><time>2026-04-22T08:55:37.69Z</time></trkpt><trkpt lat="40.1008305" lon="9.5226071"><ele>636.5</ele><time>2026-04-22T08:55:38.684Z</time></trkpt><trkpt lat="40.1009493" lon="9.5226578"><ele>638.75</ele><time>2026-04-22T08:55:39.686Z</time></trkpt><trkpt lat="40.1010662" lon="9.5226714"><ele>641.0</ele><time>2026-04-22T08:55:40.681Z</time></trkpt><trkpt lat="40.1011784" lon="9.5226498"><ele>641.0</ele><time>2026-04-22T08:55:41.689Z</time></trkpt><trkpt lat="40.1012901" lon="9.5225755"><ele>641.0</ele><time>2026-04-22T08:55:42.689Z</time></trkpt><trkpt lat="40.1014034" lon="9.522498"><ele>641.0</ele><time>2026-04-22T08:55:43.688Z</time></trkpt><trkpt lat="40.1015092" lon="9.522405"><ele>641.0</ele><time>2026-04-22T08:55:44.686Z</time></trkpt><trkpt lat="40.1015975" lon="9.522296"><ele>638.75</ele><time>2026-04-22T08:55:45.685Z</time></trkpt><trkpt lat="40.101679" lon="9.5221558"><ele>636.5</ele><time>2026-04-22T08:55:46.698Z</time></trkpt><trkpt lat="40.1017649" lon="9.5220168"><ele>634.25</ele><time>2026-04-22T08:55:47.704Z</time></trkpt><trkpt lat="40.1018577" lon="9.5218813"><ele>632.0</ele><time>2026-04-22T08:55:48.698Z</time></trkpt><trkpt lat="40.1019618" lon="9.5217699"><ele>632.0</ele><time>2026-04-22T08:55:49.691Z</time></trkpt><trkpt lat="40.1020585" lon="9.5216622"><ele>632.0</ele><time>2026-04-22T08:55:50.701Z</time></trkpt><trkpt lat="40.1021575" lon="9.5215634"><ele>632.0</ele><time>2026-04-22T08:55:51.694Z</time></trkpt><trkpt lat="40.1022474" lon="9.5214463"><ele>632.0</ele><time>2026-04-22T08:55:52.694Z</time></trkpt><trkpt lat="40.1023321" lon="9.5213213"><ele>631.25</ele><time>2026-04-22T08:55:53.697Z</time></trkpt><trkpt lat="40.102411" lon="9.5211958"><ele>630.5</ele><time>2026-04-22T08:55:54.696Z</time></trkpt><trkpt lat="40.1024781" lon="9.5210669"><ele>629.75</ele><time>2026-04-22T08:55:55.696Z</time></trkpt><trkpt lat="40.1025568" lon="9.5209423"><ele>629.0</ele><time>2026-04-22T08:55:56.698Z</time></trkpt><trkpt lat="40.1026462" lon="9.5208313"><ele>629.0</ele><time>2026-04-22T08:55:57.697Z</time></trkpt><trkpt lat="40.102737" lon="9.5207272"><ele>629.0</ele><time>2026-04-22T08:55:58.697Z</time></trkpt><trkpt lat="40.1028344" lon="9.5206256"><ele>629.0</ele><time>2026-04-22T08:55:59.701Z</time></trkpt><trkpt lat="40.1029326" lon="9.5205172"><ele>629.0</ele><time>2026-04-22T08:56:00.701Z</time></trkpt><trkpt lat="40.1030305" lon="9.5204153"><ele>632.0</ele><time>2026-04-22T08:56:01.694Z</time></trkpt><trkpt lat="40.1031272" lon="9.5203201"><ele>635.0</ele><time>2026-04-22T08:56:02.697Z</time></trkpt><trkpt lat="40.1031985" lon="9.5202176"><ele>638.0</ele><time>2026-04-22T08:56:03.687Z</time></trkpt><trkpt lat="40.1032603" lon="9.5200896"><ele>641.0</ele><time>2026-04-22T08:56:04.696Z</time></trkpt><trkpt lat="40.1033045" lon="9.519956"><ele>641.0</ele><time>2026-04-22T08:56:05.688Z</time></trkpt><trkpt lat="40.1033545" lon="9.5198423"><ele>641.0</ele><time>2026-04-22T08:56:06.694Z</time></trkpt><trkpt lat="40.1033863" lon="9.5197208"><ele>641.0</ele><time>2026-04-22T08:56:07.689Z</time></trkpt><trkpt lat="40.103415" lon="9.5195807"><ele>641.0</ele><time>2026-04-22T08:56:08.692Z</time></trkpt><trkpt lat="40.1034189" lon="9.5194215"><ele>641.0</ele><time>2026-04-22T08:56:09.688Z</time></trkpt><trkpt lat="40.1034259" lon="9.5192755"><ele>640.8333333333333</ele><time>2026-04-22T08:56:10.693Z</time></trkpt><trkpt lat="40.1034305" lon="9.5191668"><ele>640.6666666666666</ele><time>2026-04-22T08:56:11.692Z</time></trkpt><trkpt lat="40.1034184" lon="9.5190666"><ele>640.5</ele><time>2026-04-22T08:56:12.692Z</time></trkpt><trkpt lat="40.10339" lon="9.5189814"><ele>640.3333333333334</ele><time>2026-04-22T08:56:13.705Z</time></trkpt><trkpt lat="40.1033243" lon="9.5189377"><ele>640.1666666666667</ele><time>2026-04-22T08:56:14.697Z</time></trkpt><trkpt lat="40.1032404" lon="9.5189452"><ele>640.0</ele><time>2026-04-22T08:56:15.686Z</time></trkpt><trkpt lat="40.103143" lon="9.5190093"><ele>639.5</ele><time>2026-04-22T08:56:16.685Z</time></trkpt><trkpt lat="40.1030559" lon="9.5191213"><ele>639.0</ele><time>2026-04-22T08:56:17.687Z</time></trkpt><trkpt lat="40.1029607" lon="9.519261"><ele>638.5</ele><time>2026-04-22T08:56:18.686Z</time></trkpt><trkpt lat="40.1028521" lon="9.5193922"><ele>638.0</ele><time>2026-04-22T08:56:19.685Z</time></trkpt><trkpt lat="40.1027383" lon="9.5195017"><ele>632.25</ele><time>2026-04-22T08:56:20.688Z</time></trkpt><trkpt lat="40.1026106" lon="9.5195753"><ele>626.5</ele><time>2026-04-22T08:56:21.685Z</time></trkpt><trkpt lat="40.1024724" lon="9.5196448"><ele>620.75</ele><time>2026-04-22T08:56:22.685Z</time></trkpt><trkpt lat="40.1023304" lon="9.5197035"><ele>615.0</ele><time>2026-04-22T08:56:23.687Z</time></trkpt><trkpt lat="40.1021891" lon="9.5197258"><ele>611.5</ele><time>2026-04-22T08:56:24.687Z</time></trkpt><trkpt lat="40.1020539" lon="9.5197125"><ele>608.0</ele><time>2026-04-22T08:56:25.69Z</time></trkpt><trkpt lat="40.1019175" lon="9.5196736"><ele>604.5</ele><time>2026-04-22T08:56:26.686Z</time></trkpt><trkpt lat="40.1017876" lon="9.5196267"><ele>601.0</ele><time>2026-04-22T08:56:27.686Z</time></trkpt><trkpt lat="40.1016551" lon="9.5195831"><ele>604.0</ele><time>2026-04-22T08:56:28.692Z</time></trkpt><trkpt lat="40.1015285" lon="9.5195518"><ele>607.0</ele><time>2026-04-22T08:56:29.694Z</time></trkpt><trkpt lat="40.1013959" lon="9.5195258"><ele>610.0</ele><time>2026-04-22T08:56:30.701Z</time></trkpt><trkpt lat="40.1012766" lon="9.5195149"><ele>613.0</ele><time>2026-04-22T08:56:31.701Z</time></trkpt><trkpt lat="40.1011725" lon="9.5195477"><ele>609.4</ele><time>2026-04-22T08:56:32.694Z</time></trkpt><trkpt lat="40.1010806" lon="9.5196124"><ele>605.8</ele><time>2026-04-22T08:56:33.693Z</time></trkpt><trkpt lat="40.1010071" lon="9.5197019"><ele>602.2</ele><time>2026-04-22T08:56:34.686Z</time></trkpt><trkpt lat="40.1009491" lon="9.5197762"><ele>598.6</ele><time>2026-04-22T08:56:35.699Z</time></trkpt><trkpt lat="40.1008745" lon="9.5198065"><ele>595.0</ele><time>2026-04-22T08:56:36.698Z</time></trkpt><trkpt lat="40.1007901" lon="9.5197833"><ele>592.5</ele><time>2026-04-22T08:56:37.689Z</time></trkpt><trkpt lat="40.1007033" lon="9.519709"><ele>590.0</ele><time>2026-04-22T08:56:38.7Z</time></trkpt><trkpt lat="40.1006388" lon="9.5195616"><ele>587.5</ele><time>2026-04-22T08:56:39.706Z</time></trkpt><trkpt lat="40.1005727" lon="9.519409"><ele>585.0</ele><time>2026-04-22T08:56:40.707Z</time></trkpt><trkpt lat="40.1004972" lon="9.5192532"><ele>585.0</ele><time>2026-04-22T08:56:41.706Z</time></trkpt><trkpt lat="40.1004287" lon="9.5191079"><ele>585.0</ele><time>2026-04-22T08:56:42.708Z</time></trkpt><trkpt lat="40.1003621" lon="9.5189557"><ele>585.0</ele><time>2026-04-22T08:56:43.71Z</time></trkpt><trkpt lat="40.1002954" lon="9.5188111"><ele>585.0</ele><time>2026-04-22T08:56:44.701Z</time></trkpt><trkpt lat="40.1002071" lon="9.5186996"><ele>582.75</ele><time>2026-04-22T08:56:45.696Z</time></trkpt><trkpt lat="40.1001107" lon="9.5186208"><ele>580.5</ele><time>2026-04-22T08:56:46.699Z</time></trkpt><trkpt lat="40.0999991" lon="9.5185598"><ele>578.25</ele><time>2026-04-22T08:56:47.705Z</time></trkpt><trkpt lat="40.0998812" lon="9.5185002"><ele>576.0</ele><time>2026-04-22T08:56:48.699Z</time></trkpt><trkpt lat="40.0997703" lon="9.5184154"><ele>576.0</ele><time>2026-04-22T08:56:49.702Z</time></trkpt><trkpt lat="40.0996644" lon="9.518323"><ele>576.0</ele><time>2026-04-22T08:56:50.706Z</time></trkpt><trkpt lat="40.0995636" lon="9.5182061"><ele>576.0</ele><time>2026-04-22T08:56:51.702Z</time></trkpt><trkpt lat="40.0994569" lon="9.5180885"><ele>576.0</ele><time>2026-04-22T08:56:52.71Z</time></trkpt><trkpt lat="40.0993578" lon="9.5179505"><ele>572.5</ele><time>2026-04-22T08:56:53.707Z</time></trkpt><trkpt lat="40.0992433" lon="9.5178292"><ele>569.0</ele><time>2026-04-22T08:56:54.708Z</time></trkpt><trkpt lat="40.0991434" lon="9.5176997"><ele>565.5</ele><time>2026-04-22T08:56:55.706Z</time></trkpt><trkpt lat="40.099032" lon="9.5175888"><ele>562.0</ele><time>2026-04-22T08:56:56.707Z</time></trkpt><trkpt lat="40.0989265" lon="9.517463"><ele>562.0</ele><time>2026-04-22T08:56:57.713Z</time></trkpt><trkpt lat="40.0988404" lon="9.5173187"><ele>562.0</ele><time>2026-04-22T08:56:58.705Z</time></trkpt><trkpt lat="40.0987486" lon="9.5171715"><ele>562.0</ele><time>2026-04-22T08:56:59.711Z</time></trkpt><trkpt lat="40.0986574" lon="9.5170023"><ele>562.0</ele><time>2026-04-22T08:57:00.711Z</time></trkpt><trkpt lat="40.0985607" lon="9.5168402"><ele>566.3333333333334</ele><time>2026-04-22T08:57:01.704Z</time></trkpt><trkpt lat="40.0984909" lon="9.516674"><ele>570.6666666666666</ele><time>2026-04-22T08:57:02.713Z</time></trkpt><trkpt lat="40.0984084" lon="9.5165047"><ele>575.0</ele><time>2026-04-22T08:57:03.713Z</time></trkpt><trkpt lat="40.0983192" lon="9.5163191"><ele>569.5</ele><time>2026-04-22T08:57:04.708Z</time></trkpt><trkpt lat="40.0982458" lon="9.516138"><ele>564.0</ele><time>2026-04-22T08:57:05.707Z</time></trkpt><trkpt lat="40.0981902" lon="9.5159832"><ele>558.5</ele><time>2026-04-22T08:57:06.709Z</time></trkpt><trkpt lat="40.0981106" lon="9.515816"><ele>553.0</ele><time>2026-04-22T08:57:07.711Z</time></trkpt><trkpt lat="40.0980255" lon="9.5156708"><ele>553.0</ele><time>2026-04-22T08:57:08.708Z</time></trkpt><trkpt lat="40.0979237" lon="9.5155445"><ele>553.0</ele><time>2026-04-22T08:57:09.712Z</time></trkpt><trkpt lat="40.0978325" lon="9.5154212"><ele>553.0</ele><time>2026-04-22T08:57:10.711Z</time></trkpt><trkpt lat="40.0977539" lon="9.5153125"><ele>553.0</ele><time>2026-04-22T08:57:11.704Z</time></trkpt><trkpt lat="40.097691" lon="9.5151506"><ele>555.5</ele><time>2026-04-22T08:57:12.708Z</time></trkpt><trkpt lat="40.0976206" lon="9.5149981"><ele>558.0</ele><time>2026-04-22T08:57:13.708Z</time></trkpt><trkpt lat="40.0975715" lon="9.5148279"><ele>560.5</ele><time>2026-04-22T08:57:14.708Z</time></trkpt><trkpt lat="40.0975299" lon="9.5146573"><ele>563.0</ele><time>2026-04-22T08:57:15.731Z</time></trkpt><trkpt lat="40.0974895" lon="9.5144996"><ele>565.5</ele><time>2026-04-22T08:57:16.716Z</time></trkpt><trkpt lat="40.0974504" lon="9.5143393"><ele>568.0</ele><time>2026-04-22T08:57:17.719Z</time></trkpt><trkpt lat="40.0974104" lon="9.5141775"><ele>570.5</ele><time>2026-04-22T08:57:18.722Z</time></trkpt><trkpt lat="40.0973619" lon="9.5140334"><ele>573.0</ele><time>2026-04-22T08:57:19.709Z</time></trkpt><trkpt lat="40.0973017" lon="9.51391"><ele>569.0</ele><time>2026-04-22T08:57:20.702Z</time></trkpt><trkpt lat="40.0972212" lon="9.5138007"><ele>565.0</ele><time>2026-04-22T08:57:21.706Z</time></trkpt><trkpt lat="40.0971244" lon="9.5137191"><ele>561.0</ele><time>2026-04-22T08:57:22.707Z</time></trkpt><trkpt lat="40.0970208" lon="9.5136432"><ele>557.0</ele><time>2026-04-22T08:57:23.704Z</time></trkpt><trkpt lat="40.0969178" lon="9.5135703"><ele>557.0</ele><time>2026-04-22T08:57:24.709Z</time></trkpt><trkpt lat="40.0968129" lon="9.5135015"><ele>557.0</ele><time>2026-04-22T08:57:25.709Z</time></trkpt><trkpt lat="40.0967048" lon="9.5134393"><ele>557.0</ele><time>2026-04-22T08:57:26.711Z</time></trkpt><trkpt lat="40.0966071" lon="9.513381"><ele>557.0</ele><time>2026-04-22T08:57:27.71Z</time></trkpt><trkpt lat="40.0965099" lon="9.5133296"><ele>557.0</ele><time>2026-04-22T08:57:28.71Z</time></trkpt><trkpt lat="40.0964188" lon="9.513283"><ele>554.0</ele><time>2026-04-22T08:57:29.71Z</time></trkpt><trkpt lat="40.0963317" lon="9.5132219"><ele>551.0</ele><time>2026-04-22T08:57:30.712Z</time></trkpt><trkpt lat="40.0962604" lon="9.5131435"><ele>548.0</ele><time>2026-04-22T08:57:31.696Z</time></trkpt><trkpt lat="40.0962024" lon="9.5130327"><ele>545.0</ele><time>2026-04-22T08:57:32.704Z</time></trkpt><trkpt lat="40.09617" lon="9.5129108"><ele>542.0</ele><time>2026-04-22T08:57:33.711Z</time></trkpt><trkpt lat="40.096174" lon="9.5127764"><ele>542.0</ele><time>2026-04-22T08:57:34.707Z</time></trkpt><trkpt lat="40.0961976" lon="9.5126448"><ele>542.0</ele><time>2026-04-22T08:57:35.71Z</time></trkpt><trkpt lat="40.0962099" lon="9.5125224"><ele>542.0</ele><time>2026-04-22T08:57:36.694Z</time></trkpt><trkpt lat="40.0962083" lon="9.512415"><ele>542.0</ele><time>2026-04-22T08:57:37.701Z</time></trkpt><trkpt lat="40.0961984" lon="9.5123091"><ele>542.0</ele><time>2026-04-22T08:57:38.698Z</time></trkpt><trkpt lat="40.0961597" lon="9.51224"><ele>542.0</ele><time>2026-04-22T08:57:39.702Z</time></trkpt><trkpt lat="40.0960938" lon="9.5121927"><ele>542.0</ele><time>2026-04-22T08:57:40.702Z</time></trkpt><trkpt lat="40.0960113" lon="9.5121793"><ele>542.0</ele><time>2026-04-22T08:57:41.703Z</time></trkpt><trkpt lat="40.0959258" lon="9.5121809"><ele>542.0</ele><time>2026-04-22T08:57:42.702Z</time></trkpt><trkpt lat="40.0958395" lon="9.5121837"><ele>542.0</ele><time>2026-04-22T08:57:43.705Z</time></trkpt><trkpt lat="40.0957613" lon="9.5121771"><ele>542.0</ele><time>2026-04-22T08:57:44.695Z</time></trkpt><trkpt lat="40.0956865" lon="9.5121546"><ele>542.0</ele><time>2026-04-22T08:57:45.697Z</time></trkpt><trkpt lat="40.0956037" lon="9.5121255"><ele>541.1666666666666</ele><time>2026-04-22T08:57:46.695Z</time></trkpt><trkpt lat="40.095524" lon="9.5120731"><ele>540.3333333333333</ele><time>2026-04-22T08:57:47.699Z</time></trkpt><trkpt lat="40.095454" lon="9.5120316"><ele>539.5</ele><time>2026-04-22T08:57:48.709Z</time></trkpt><trkpt lat="40.0953807" lon="9.5119797"><ele>538.6666666666666</ele><time>2026-04-22T08:57:49.708Z</time></trkpt><trkpt lat="40.0953145" lon="9.5119284"><ele>537.8333333333334</ele><time>2026-04-22T08:57:50.714Z</time></trkpt><trkpt lat="40.095238" lon="9.5118843"><ele>537.0</ele><time>2026-04-22T08:57:51.717Z</time></trkpt><trkpt lat="40.0951683" lon="9.5118347"><ele>537.0</ele><time>2026-04-22T08:57:52.71Z</time></trkpt><trkpt lat="40.0950943" lon="9.5117844"><ele>537.0</ele><time>2026-04-22T08:57:53.706Z</time></trkpt><trkpt lat="40.095025" lon="9.5117247"><ele>537.0</ele><time>2026-04-22T08:57:54.71Z</time></trkpt><trkpt lat="40.0949624" lon="9.5116736"><ele>537.0</ele><time>2026-04-22T08:57:55.712Z</time></trkpt><trkpt lat="40.0949117" lon="9.5116137"><ele>537.0</ele><time>2026-04-22T08:57:56.714Z</time></trkpt><trkpt lat="40.0948786" lon="9.5115421"><ele>537.0</ele><time>2026-04-22T08:57:57.698Z</time></trkpt><trkpt lat="40.094886" lon="9.5114014"><ele>537.0</ele><time>2026-04-22T08:57:59.693Z</time></trkpt><trkpt lat="40.0949283" lon="9.5113357"><ele>537.0</ele><time>2026-04-22T08:58:00.699Z</time></trkpt><trkpt lat="40.0949879" lon="9.5112257"><ele>537.0</ele><time>2026-04-22T08:58:02.691Z</time></trkpt><trkpt lat="40.0950236" lon="9.511152"><ele>537.0</ele><time>2026-04-22T09:00:38.697Z</time></trkpt><trkpt lat="40.0949723" lon="9.5110775"><ele>537.0</ele><time>2026-04-22T09:00:42.7Z</time></trkpt><trkpt lat="40.0949155" lon="9.5111653"><ele>537.0</ele><time>2026-04-22T09:00:44.703Z</time></trkpt><trkpt lat="40.0948859" lon="9.5112821"><ele>537.4</ele><time>2026-04-22T09:00:46.694Z</time></trkpt><trkpt lat="40.0949353" lon="9.5111884"><ele>537.8000000000001</ele><time>2026-04-22T09:00:53.693Z</time></trkpt><trkpt lat="40.0949686" lon="9.5110955"><ele>538.2</ele><time>2026-04-22T09:00:55.69Z</time></trkpt><trkpt lat="40.0949674" lon="9.5110127"><ele>538.6</ele><time>2026-04-22T09:00:56.709Z</time></trkpt><trkpt lat="40.0949534" lon="9.5108514"><ele>539.0</ele><time>2026-04-22T09:00:58.703Z</time></trkpt><trkpt lat="40.0948817" lon="9.510725"><ele>536.0</ele><time>2026-04-22T09:01:00.7Z</time></trkpt><trkpt lat="40.0948185" lon="9.5106891"><ele>533.0</ele><time>2026-04-22T09:01:01.706Z</time></trkpt><trkpt lat="40.0947491" lon="9.5106605"><ele>530.0</ele><time>2026-04-22T09:01:02.696Z</time></trkpt><trkpt lat="40.0946779" lon="9.5106431"><ele>527.0</ele><time>2026-04-22T09:01:03.692Z</time></trkpt><trkpt lat="40.0946053" lon="9.5106343"><ele>524.0</ele><time>2026-04-22T09:01:04.692Z</time></trkpt><trkpt lat="40.0945357" lon="9.5106203"><ele>521.0</ele><time>2026-04-22T09:01:05.703Z</time></trkpt><trkpt lat="40.094479" lon="9.5105844"><ele>518.0</ele><time>2026-04-22T09:01:06.695Z</time></trkpt><trkpt lat="40.0944211" lon="9.5105491"><ele>518.0</ele><time>2026-04-22T09:01:07.694Z</time></trkpt><trkpt lat="40.09434" lon="9.5104353"><ele>518.0</ele><time>2026-04-22T09:01:09.705Z</time></trkpt><trkpt lat="40.0942876" lon="9.5103309"><ele>518.0</ele><time>2026-04-22T09:01:11.697Z</time></trkpt><trkpt lat="40.094228" lon="9.5102648"><ele>518.0</ele><time>2026-04-22T09:01:29.715Z</time></trkpt><trkpt lat="40.0941638" lon="9.5101663"><ele>518.0</ele><time>2026-04-22T09:01:32.716Z</time></trkpt><trkpt lat="40.0941131" lon="9.5100794"><ele>517.0</ele><time>2026-04-22T09:01:34.714Z</time></trkpt><trkpt lat="40.0940772" lon="9.5100075"><ele>516.0</ele><time>2026-04-22T09:01:36.716Z</time></trkpt><trkpt lat="40.0940232" lon="9.5099275"><ele>515.0</ele><time>2026-04-22T09:01:39.719Z</time></trkpt><trkpt lat="40.0939662" lon="9.5098769"><ele>514.0</ele><time>2026-04-22T09:02:25.729Z</time></trkpt><trkpt lat="40.0939823" lon="9.5097946"><ele>513.0</ele><time>2026-04-22T09:03:17.717Z</time></trkpt><trkpt lat="40.0939996" lon="9.5096693"><ele>512.0</ele><time>2026-04-22T09:03:19.714Z</time></trkpt><trkpt lat="40.094045" lon="9.5095345"><ele>512.0</ele><time>2026-04-22T09:03:21.727Z</time></trkpt><trkpt lat="40.0940743" lon="9.5094586"><ele>512.0</ele><time>2026-04-22T09:03:37.729Z</time></trkpt></trkseg><trkseg><trkpt lat="40.094187" lon="9.509964"><ele>526.0</ele><time>2026-04-22T09:42:20.203Z</time></trkpt><trkpt lat="40.0940498" lon="9.5098833"><ele>526.0</ele><time>2026-04-22T09:42:25.21Z</time></trkpt><trkpt lat="40.0940135" lon="9.5098073"><ele>526.0</ele><time>2026-04-22T09:43:15.688Z</time></trkpt><trkpt lat="40.0940799" lon="9.5099144"><ele>526.0</ele><time>2026-04-22T09:46:21.674Z</time></trkpt><trkpt lat="40.0941374" lon="9.5099938"><ele>526.0</ele><time>2026-04-22T09:46:23.666Z</time></trkpt><trkpt lat="40.094205" lon="9.5100104"><ele>526.0</ele><time>2026-04-22T09:46:26.647Z</time></trkpt><trkpt lat="40.0941536" lon="9.5099576"><ele>526.0</ele><time>2026-04-22T09:46:43.657Z</time></trkpt><trkpt lat="40.0941048" lon="9.5098804"><ele>526.0</ele><time>2026-04-22T09:46:45.654Z</time></trkpt><trkpt lat="40.0940632" lon="9.5097699"><ele>526.0</ele><time>2026-04-22T09:46:47.65Z</time></trkpt><trkpt lat="40.0940122" lon="9.5096282"><ele>526.0</ele><time>2026-04-22T09:46:49.652Z</time></trkpt><trkpt lat="40.0940207" lon="9.5094788"><ele>526.0</ele><time>2026-04-22T09:46:51.658Z</time></trkpt><trkpt lat="40.0940514" lon="9.5093208"><ele>526.0</ele><time>2026-04-22T09:46:53.647Z</time></trkpt><trkpt lat="40.0940779" lon="9.5091834"><ele>526.0</ele><time>2026-04-22T09:46:55.639Z</time></trkpt><trkpt lat="40.0941145" lon="9.5090362"><ele>526.0</ele><time>2026-04-22T09:46:57.631Z</time></trkpt><trkpt lat="40.0941296" lon="9.5089436"><ele>526.0</ele><time>2026-04-22T09:46:59.63Z</time></trkpt><trkpt lat="40.0941038" lon="9.5088329"><ele>523.6666666666667</ele><time>2026-04-22T09:47:01.64Z</time></trkpt><trkpt lat="40.0940506" lon="9.5087696"><ele>521.3333333333334</ele><time>2026-04-22T09:47:03.643Z</time></trkpt><trkpt lat="40.0939768" lon="9.508794"><ele>519.0</ele><time>2026-04-22T09:47:05.639Z</time></trkpt><trkpt lat="40.0939155" lon="9.5087741"><ele>516.6666666666666</ele><time>2026-04-22T09:47:10.636Z</time></trkpt><trkpt lat="40.0938381" lon="9.5087815"><ele>514.3333333333333</ele><time>2026-04-22T09:47:12.652Z</time></trkpt><trkpt lat="40.0937322" lon="9.5088091"><ele>512.0</ele><time>2026-04-22T09:47:14.647Z</time></trkpt><trkpt lat="40.0936505" lon="9.5088356"><ele>511.99999999999994</ele><time>2026-04-22T09:47:16.647Z</time></trkpt><trkpt lat="40.0935642" lon="9.5088409"><ele>512.0</ele><time>2026-04-22T09:47:18.642Z</time></trkpt><trkpt lat="40.0934789" lon="9.5088825"><ele>512.0</ele><time>2026-04-22T09:47:20.635Z</time></trkpt><trkpt lat="40.0934158" lon="9.5089273"><ele>512.0</ele><time>2026-04-22T09:47:22.638Z</time></trkpt><trkpt lat="40.0933955" lon="9.5090271"><ele>511.99999999999994</ele><time>2026-04-22T09:47:25.67Z</time></trkpt><trkpt lat="40.0934259" lon="9.5091113"><ele>512.0</ele><time>2026-04-22T09:47:28.664Z</time></trkpt><trkpt lat="40.0934917" lon="9.5091896"><ele>511.99999999999994</ele><time>2026-04-22T09:47:30.666Z</time></trkpt><trkpt lat="40.0935558" lon="9.5092856"><ele>512.0</ele><time>2026-04-22T09:47:32.662Z</time></trkpt><trkpt lat="40.0936022" lon="9.5093414"><ele>512.0</ele><time>2026-04-22T09:47:33.664Z</time></trkpt><trkpt lat="40.0936929" lon="9.5094271"><ele>512.0</ele><time>2026-04-22T09:47:35.661Z</time></trkpt><trkpt lat="40.0937428" lon="9.5095386"><ele>511.99999999999994</ele><time>2026-04-22T09:47:37.652Z</time></trkpt><trkpt lat="40.0937466" lon="9.5096286"><ele>512.0</ele><time>2026-04-22T09:47:38.66Z</time></trkpt><trkpt lat="40.0937253" lon="9.5097262"><ele>511.3333333333333</ele><time>2026-04-22T09:47:39.653Z</time></trkpt><trkpt lat="40.0937115" lon="9.5098211"><ele>510.66666666666663</ele><time>2026-04-22T09:47:40.659Z</time></trkpt><trkpt lat="40.0936927" lon="9.5099176"><ele>510.0</ele><time>2026-04-22T09:47:41.655Z</time></trkpt><trkpt lat="40.0936655" lon="9.5100113"><ele>509.33333333333337</ele><time>2026-04-22T09:47:42.655Z</time></trkpt><trkpt lat="40.0936302" lon="9.5101017"><ele>508.6666666666667</ele><time>2026-04-22T09:47:43.645Z</time></trkpt><trkpt lat="40.0935789" lon="9.5101899"><ele>508.0</ele><time>2026-04-22T09:47:44.65Z</time></trkpt><trkpt lat="40.0935286" lon="9.5102758"><ele>508.00000000000006</ele><time>2026-04-22T09:47:45.655Z</time></trkpt><trkpt lat="40.0934762" lon="9.5103439"><ele>508.0</ele><time>2026-04-22T09:47:46.65Z</time></trkpt><trkpt lat="40.0933858" lon="9.5104303"><ele>508.0</ele><time>2026-04-22T09:47:48.66Z</time></trkpt><trkpt lat="40.0933108" lon="9.5105202"><ele>508.0</ele><time>2026-04-22T09:47:50.67Z</time></trkpt><trkpt lat="40.0932646" lon="9.5105894"><ele>508.00000000000006</ele><time>2026-04-22T09:47:51.668Z</time></trkpt><trkpt lat="40.093202" lon="9.5106582"><ele>508.0</ele><time>2026-04-22T09:47:52.666Z</time></trkpt><trkpt lat="40.0931384" lon="9.5107242"><ele>504.4</ele><time>2026-04-22T09:47:53.668Z</time></trkpt><trkpt lat="40.0930676" lon="9.5107935"><ele>500.79999999999995</ele><time>2026-04-22T09:47:54.66Z</time></trkpt><trkpt lat="40.0929831" lon="9.5108496"><ele>497.2</ele><time>2026-04-22T09:47:55.66Z</time></trkpt><trkpt lat="40.0928987" lon="9.5109105"><ele>493.6</ele><time>2026-04-22T09:47:56.665Z</time></trkpt><trkpt lat="40.0928107" lon="9.5109603"><ele>490.0</ele><time>2026-04-22T09:47:57.656Z</time></trkpt><trkpt lat="40.0927292" lon="9.5110078"><ele>490.0</ele><time>2026-04-22T09:47:58.662Z</time></trkpt><trkpt lat="40.0926507" lon="9.5110559"><ele>490.0</ele><time>2026-04-22T09:47:59.657Z</time></trkpt><trkpt lat="40.0925812" lon="9.5111004"><ele>490.0</ele><time>2026-04-22T09:48:00.658Z</time></trkpt><trkpt lat="40.0925112" lon="9.5111301"><ele>490.0</ele><time>2026-04-22T09:48:01.657Z</time></trkpt><trkpt lat="40.092444" lon="9.5111455"><ele>490.0</ele><time>2026-04-22T09:48:02.658Z</time></trkpt><trkpt lat="40.0923744" lon="9.5111288"><ele>490.0</ele><time>2026-04-22T09:48:03.66Z</time></trkpt><trkpt lat="40.0923126" lon="9.5111043"><ele>490.0</ele><time>2026-04-22T09:48:04.655Z</time></trkpt><trkpt lat="40.09222" lon="9.5111241"><ele>487.33333333333337</ele><time>2026-04-22T09:48:06.652Z</time></trkpt><trkpt lat="40.0922069" lon="9.5112505"><ele>484.6666666666667</ele><time>2026-04-22T09:48:08.652Z</time></trkpt><trkpt lat="40.0922454" lon="9.5113473"><ele>482.0</ele><time>2026-04-22T09:48:09.65Z</time></trkpt><trkpt lat="40.0922837" lon="9.5114265"><ele>479.33333333333337</ele><time>2026-04-22T09:48:10.655Z</time></trkpt><trkpt lat="40.0923571" lon="9.5115141"><ele>476.6666666666667</ele><time>2026-04-22T09:48:12.651Z</time></trkpt><trkpt lat="40.092325" lon="9.5116146"><ele>474.0</ele><time>2026-04-22T09:48:15.661Z</time></trkpt><trkpt lat="40.09223" lon="9.5117086"><ele>474.0</ele><time>2026-04-22T09:48:17.659Z</time></trkpt><trkpt lat="40.0921212" lon="9.5118044"><ele>474.0</ele><time>2026-04-22T09:48:19.659Z</time></trkpt><trkpt lat="40.0920376" lon="9.5119152"><ele>474.0</ele><time>2026-04-22T09:48:21.658Z</time></trkpt><trkpt lat="40.0919883" lon="9.512037"><ele>474.0</ele><time>2026-04-22T09:48:23.663Z</time></trkpt><trkpt lat="40.0919058" lon="9.5121781"><ele>472.5</ele><time>2026-04-22T09:48:25.659Z</time></trkpt><trkpt lat="40.0918329" lon="9.512303"><ele>471.0</ele><time>2026-04-22T09:48:27.66Z</time></trkpt><trkpt lat="40.0917914" lon="9.5124403"><ele>469.5</ele><time>2026-04-22T09:48:29.659Z</time></trkpt><trkpt lat="40.0917246" lon="9.5125733"><ele>468.0</ele><time>2026-04-22T09:48:31.658Z</time></trkpt><trkpt lat="40.0916468" lon="9.5126698"><ele>466.4</ele><time>2026-04-22T09:48:33.667Z</time></trkpt><trkpt lat="40.0915633" lon="9.5127583"><ele>464.79999999999995</ele><time>2026-04-22T09:48:35.664Z</time></trkpt><trkpt lat="40.0915088" lon="9.5128547"><ele>463.2</ele><time>2026-04-22T09:48:37.665Z</time></trkpt><trkpt lat="40.0915123" lon="9.5129677"><ele>461.6</ele><time>2026-04-22T09:48:39.661Z</time></trkpt><trkpt lat="40.0915786" lon="9.5130914"><ele>460.0</ele><time>2026-04-22T09:48:41.661Z</time></trkpt><trkpt lat="40.0916551" lon="9.5131811"><ele>460.0</ele><time>2026-04-22T09:48:43.662Z</time></trkpt><trkpt lat="40.0917521" lon="9.513235"><ele>460.0</ele><time>2026-04-22T09:48:45.667Z</time></trkpt><trkpt lat="40.091865" lon="9.5132679"><ele>460.0</ele><time>2026-04-22T09:48:47.662Z</time></trkpt><trkpt lat="40.0919808" lon="9.5132462"><ele>460.0</ele><time>2026-04-22T09:48:49.664Z</time></trkpt><trkpt lat="40.0920869" lon="9.5132305"><ele>460.0</ele><time>2026-04-22T09:48:51.661Z</time></trkpt><trkpt lat="40.0921645" lon="9.5132278"><ele>460.00000000000006</ele><time>2026-04-22T09:48:53.667Z</time></trkpt><trkpt lat="40.0922355" lon="9.5132235"><ele>460.0</ele><time>2026-04-22T09:48:55.673Z</time></trkpt><trkpt lat="40.0923097" lon="9.5132447"><ele>460.0</ele><time>2026-04-22T09:48:58.658Z</time></trkpt><trkpt lat="40.0923776" lon="9.5131704"><ele>460.0</ele><time>2026-04-22T09:49:00.655Z</time></trkpt><trkpt lat="40.0924399" lon="9.5131414"><ele>460.00000000000006</ele><time>2026-04-22T09:49:02.66Z</time></trkpt><trkpt lat="40.0925249" lon="9.5132077"><ele>460.0</ele><time>2026-04-22T09:49:04.657Z</time></trkpt><trkpt lat="40.092559" lon="9.5132999"><ele>460.6666666666667</ele><time>2026-04-22T09:49:05.662Z</time></trkpt><trkpt lat="40.0925833" lon="9.5133893"><ele>461.33333333333337</ele><time>2026-04-22T09:49:06.669Z</time></trkpt><trkpt lat="40.0926047" lon="9.5134787"><ele>462.0</ele><time>2026-04-22T09:49:07.67Z</time></trkpt><trkpt lat="40.0926228" lon="9.5135587"><ele>462.66666666666663</ele><time>2026-04-22T09:49:08.668Z</time></trkpt><trkpt lat="40.0926366" lon="9.5137216"><ele>463.3333333333333</ele><time>2026-04-22T09:49:10.661Z</time></trkpt><trkpt lat="40.0926411" lon="9.5138709"><ele>464.0</ele><time>2026-04-22T09:49:12.667Z</time></trkpt><trkpt lat="40.0926542" lon="9.5140205"><ele>464.0</ele><time>2026-04-22T09:49:14.673Z</time></trkpt><trkpt lat="40.0926812" lon="9.5141328"><ele>464.0</ele><time>2026-04-22T09:49:16.669Z</time></trkpt><trkpt lat="40.0927179" lon="9.5142298"><ele>464.0</ele><time>2026-04-22T09:49:18.668Z</time></trkpt><trkpt lat="40.0927038" lon="9.5143463"><ele>464.0</ele><time>2026-04-22T09:49:20.663Z</time></trkpt><trkpt lat="40.092641" lon="9.5144627"><ele>464.0</ele><time>2026-04-22T09:49:22.669Z</time></trkpt><trkpt lat="40.0925824" lon="9.5145839"><ele>463.0</ele><time>2026-04-22T09:49:24.659Z</time></trkpt><trkpt lat="40.0925767" lon="9.5147244"><ele>462.0</ele><time>2026-04-22T09:49:26.674Z</time></trkpt><trkpt lat="40.0925808" lon="9.5148339"><ele>461.0</ele><time>2026-04-22T09:49:28.667Z</time></trkpt><trkpt lat="40.0926124" lon="9.5149511"><ele>460.0</ele><time>2026-04-22T09:49:30.661Z</time></trkpt><trkpt lat="40.0926675" lon="9.5150508"><ele>459.0</ele><time>2026-04-22T09:49:32.661Z</time></trkpt><trkpt lat="40.092683" lon="9.5151398"><ele>459.0</ele><time>2026-04-22T09:49:34.662Z</time></trkpt><trkpt lat="40.0927154" lon="9.5152425"><ele>459.0</ele><time>2026-04-22T09:49:36.66Z</time></trkpt><trkpt lat="40.0927565" lon="9.5153228"><ele>459.0</ele><time>2026-04-22T09:49:38.681Z</time></trkpt><trkpt lat="40.0928216" lon="9.51536"><ele>459.0</ele><time>2026-04-22T09:49:42.669Z</time></trkpt><trkpt lat="40.0929147" lon="9.5153552"><ele>459.0</ele><time>2026-04-22T09:49:44.665Z</time></trkpt><trkpt lat="40.0930432" lon="9.5153464"><ele>459.0</ele><time>2026-04-22T09:49:46.666Z</time></trkpt><trkpt lat="40.0931123" lon="9.515344"><ele>459.0</ele><time>2026-04-22T09:49:47.665Z</time></trkpt><trkpt lat="40.0931788" lon="9.5153399"><ele>459.0</ele><time>2026-04-22T09:49:48.677Z</time></trkpt><trkpt lat="40.0932416" lon="9.5153221"><ele>459.0</ele><time>2026-04-22T09:49:49.663Z</time></trkpt><trkpt lat="40.0933064" lon="9.5153062"><ele>459.0</ele><time>2026-04-22T09:49:50.668Z</time></trkpt><trkpt lat="40.0934248" lon="9.5152689"><ele>459.0</ele><time>2026-04-22T09:49:52.662Z</time></trkpt><trkpt lat="40.0935427" lon="9.5152116"><ele>460.5</ele><time>2026-04-22T09:49:54.665Z</time></trkpt><trkpt lat="40.093613" lon="9.5151787"><ele>462.0</ele><time>2026-04-22T09:49:55.667Z</time></trkpt><trkpt lat="40.0936885" lon="9.5151377"><ele>463.5</ele><time>2026-04-22T09:49:56.663Z</time></trkpt><trkpt lat="40.0937617" lon="9.5150982"><ele>465.0</ele><time>2026-04-22T09:49:57.673Z</time></trkpt><trkpt lat="40.0938308" lon="9.5150699"><ele>466.5</ele><time>2026-04-22T09:49:58.676Z</time></trkpt><trkpt lat="40.0939036" lon="9.51504"><ele>468.0</ele><time>2026-04-22T09:49:59.662Z</time></trkpt><trkpt lat="40.0939773" lon="9.515008"><ele>468.0</ele><time>2026-04-22T09:50:00.663Z</time></trkpt><trkpt lat="40.0940469" lon="9.5149816"><ele>467.99999999999994</ele><time>2026-04-22T09:50:01.667Z</time></trkpt><trkpt lat="40.0941557" lon="9.5149268"><ele>467.99999999999994</ele><time>2026-04-22T09:50:03.668Z</time></trkpt><trkpt lat="40.0942411" lon="9.5148895"><ele>468.0</ele><time>2026-04-22T09:50:05.662Z</time></trkpt><trkpt lat="40.0943108" lon="9.5149087"><ele>468.0</ele><time>2026-04-22T09:50:07.659Z</time></trkpt><trkpt lat="40.0942948" lon="9.5150614"><ele>469.14285714285717</ele><time>2026-04-22T09:50:09.689Z</time></trkpt><trkpt lat="40.0942718" lon="9.5151469"><ele>470.28571428571433</ele><time>2026-04-22T09:50:10.68Z</time></trkpt><trkpt lat="40.0942487" lon="9.5152253"><ele>471.42857142857144</ele><time>2026-04-22T09:50:11.663Z</time></trkpt><trkpt lat="40.0942404" lon="9.5153357"><ele>472.57142857142856</ele><time>2026-04-22T09:50:12.665Z</time></trkpt><trkpt lat="40.094243" lon="9.5154319"><ele>473.7142857142857</ele><time>2026-04-22T09:50:13.689Z</time></trkpt><trkpt lat="40.0942375" lon="9.5155276"><ele>474.8571428571429</ele><time>2026-04-22T09:50:14.684Z</time></trkpt><trkpt lat="40.0942336" lon="9.515627"><ele>476.0</ele><time>2026-04-22T09:50:15.69Z</time></trkpt><trkpt lat="40.0942274" lon="9.5157183"><ele>476.0</ele><time>2026-04-22T09:50:16.69Z</time></trkpt><trkpt lat="40.094191" lon="9.5158685"><ele>476.0</ele><time>2026-04-22T09:50:18.686Z</time></trkpt><trkpt lat="40.0941501" lon="9.5159916"><ele>476.0</ele><time>2026-04-22T09:50:20.661Z</time></trkpt><trkpt lat="40.0941621" lon="9.516102"><ele>476.0</ele><time>2026-04-22T09:50:21.666Z</time></trkpt><trkpt lat="40.0941552" lon="9.5161956"><ele>476.0</ele><time>2026-04-22T09:50:22.69Z</time></trkpt><trkpt lat="40.0941629" lon="9.516293"><ele>475.42857142857144</ele><time>2026-04-22T09:50:23.687Z</time></trkpt><trkpt lat="40.0941724" lon="9.5163772"><ele>474.8571428571429</ele><time>2026-04-22T09:50:24.692Z</time></trkpt><trkpt lat="40.0941726" lon="9.5164612"><ele>474.2857142857143</ele><time>2026-04-22T09:50:25.684Z</time></trkpt><trkpt lat="40.0941844" lon="9.516546"><ele>473.7142857142857</ele><time>2026-04-22T09:50:26.69Z</time></trkpt><trkpt lat="40.0942047" lon="9.5166391"><ele>473.14285714285717</ele><time>2026-04-22T09:50:27.691Z</time></trkpt><trkpt lat="40.0942277" lon="9.5167245"><ele>472.57142857142856</ele><time>2026-04-22T09:50:28.671Z</time></trkpt><trkpt lat="40.094253" lon="9.516815"><ele>472.0</ele><time>2026-04-22T09:50:29.677Z</time></trkpt><trkpt lat="40.094263" lon="9.5169695"><ele>472.00000000000006</ele><time>2026-04-22T09:50:31.663Z</time></trkpt><trkpt lat="40.0942518" lon="9.5170505"><ele>472.0</ele><time>2026-04-22T09:50:32.667Z</time></trkpt><trkpt lat="40.0942374" lon="9.5172084"><ele>472.0</ele><time>2026-04-22T09:50:34.666Z</time></trkpt><trkpt lat="40.0942314" lon="9.5172993"><ele>472.0</ele><time>2026-04-22T09:50:35.694Z</time></trkpt><trkpt lat="40.0942302" lon="9.5173892"><ele>472.00000000000006</ele><time>2026-04-22T09:50:36.69Z</time></trkpt><trkpt lat="40.0942342" lon="9.5174829"><ele>472.0</ele><time>2026-04-22T09:50:37.696Z</time></trkpt><trkpt lat="40.0942437" lon="9.5175686"><ele>470.6</ele><time>2026-04-22T09:50:38.696Z</time></trkpt><trkpt lat="40.0942588" lon="9.5176549"><ele>469.20000000000005</ele><time>2026-04-22T09:50:39.701Z</time></trkpt><trkpt lat="40.0942802" lon="9.5177337"><ele>467.8</ele><time>2026-04-22T09:50:40.666Z</time></trkpt><trkpt lat="40.0943038" lon="9.5178767"><ele>466.4</ele><time>2026-04-22T09:50:42.669Z</time></trkpt><trkpt lat="40.0942755" lon="9.5180081"><ele>465.0</ele><time>2026-04-22T09:50:44.668Z</time></trkpt><trkpt lat="40.094231" lon="9.5181583"><ele>463.8</ele><time>2026-04-22T09:50:46.677Z</time></trkpt><trkpt lat="40.0942265" lon="9.5182433"><ele>462.6</ele><time>2026-04-22T09:50:47.671Z</time></trkpt><trkpt lat="40.094235" lon="9.5183854"><ele>461.4</ele><time>2026-04-22T09:50:49.696Z</time></trkpt><trkpt lat="40.0942349" lon="9.5185248"><ele>460.2</ele><time>2026-04-22T09:50:51.666Z</time></trkpt><trkpt lat="40.0941861" lon="9.5186441"><ele>459.0</ele><time>2026-04-22T09:50:53.69Z</time></trkpt><trkpt lat="40.0941347" lon="9.5187816"><ele>458.5</ele><time>2026-04-22T09:50:55.69Z</time></trkpt><trkpt lat="40.0941182" lon="9.5189367"><ele>458.0</ele><time>2026-04-22T09:50:57.67Z</time></trkpt><trkpt lat="40.0941194" lon="9.5190284"><ele>457.5</ele><time>2026-04-22T09:50:58.682Z</time></trkpt><trkpt lat="40.0941235" lon="9.5191232"><ele>457.0</ele><time>2026-04-22T09:50:59.672Z</time></trkpt><trkpt lat="40.0941328" lon="9.5192179"><ele>456.5</ele><time>2026-04-22T09:51:00.67Z</time></trkpt><trkpt lat="40.0941516" lon="9.5193068"><ele>456.0</ele><time>2026-04-22T09:51:01.679Z</time></trkpt><trkpt lat="40.094175" lon="9.519388"><ele>456.0</ele><time>2026-04-22T09:51:02.671Z</time></trkpt><trkpt lat="40.0942063" lon="9.5194699"><ele>456.0</ele><time>2026-04-22T09:51:03.675Z</time></trkpt><trkpt lat="40.0942512" lon="9.5196134"><ele>456.0</ele><time>2026-04-22T09:51:05.694Z</time></trkpt><trkpt lat="40.0942704" lon="9.5196923"><ele>456.0</ele><time>2026-04-22T09:51:06.691Z</time></trkpt><trkpt lat="40.0942528" lon="9.5198522"><ele>456.0</ele><time>2026-04-22T09:51:08.68Z</time></trkpt><trkpt lat="40.0942156" lon="9.5199315"><ele>456.0</ele><time>2026-04-22T09:51:09.683Z</time></trkpt><trkpt lat="40.0941625" lon="9.5199967"><ele>455.1666666666667</ele><time>2026-04-22T09:51:10.678Z</time></trkpt><trkpt lat="40.0940868" lon="9.5200379"><ele>454.33333333333337</ele><time>2026-04-22T09:51:11.686Z</time></trkpt><trkpt lat="40.0940127" lon="9.5200691"><ele>453.5</ele><time>2026-04-22T09:51:12.678Z</time></trkpt><trkpt lat="40.093927" lon="9.5200694"><ele>452.6666666666667</ele><time>2026-04-22T09:51:13.684Z</time></trkpt><trkpt lat="40.0938465" lon="9.5200843"><ele>451.83333333333337</ele><time>2026-04-22T09:51:14.677Z</time></trkpt><trkpt lat="40.0937695" lon="9.5200895"><ele>451.0</ele><time>2026-04-22T09:51:15.685Z</time></trkpt><trkpt lat="40.0936982" lon="9.5200836"><ele>451.00000000000006</ele><time>2026-04-22T09:51:16.684Z</time></trkpt><trkpt lat="40.0936283" lon="9.5200834"><ele>451.0</ele><time>2026-04-22T09:51:17.662Z</time></trkpt><trkpt lat="40.0935596" lon="9.5200671"><ele>451.0</ele><time>2026-04-22T09:51:18.662Z</time></trkpt><trkpt lat="40.0934863" lon="9.5200637"><ele>451.0</ele><time>2026-04-22T09:51:19.681Z</time></trkpt><trkpt lat="40.0934002" lon="9.5200635"><ele>451.00000000000006</ele><time>2026-04-22T09:51:20.682Z</time></trkpt><trkpt lat="40.0933145" lon="9.5200905"><ele>451.0</ele><time>2026-04-22T09:51:21.695Z</time></trkpt><trkpt lat="40.0932366" lon="9.5201316"><ele>449.20000000000005</ele><time>2026-04-22T09:51:22.68Z</time></trkpt><trkpt lat="40.0931508" lon="9.5201722"><ele>447.40000000000003</ele><time>2026-04-22T09:51:23.678Z</time></trkpt><trkpt lat="40.0930639" lon="9.5202322"><ele>445.6</ele><time>2026-04-22T09:51:24.684Z</time></trkpt><trkpt lat="40.0929804" lon="9.5202946"><ele>443.8</ele><time>2026-04-22T09:51:25.675Z</time></trkpt><trkpt lat="40.0929028" lon="9.5203392"><ele>442.0</ele><time>2026-04-22T09:51:26.677Z</time></trkpt><trkpt lat="40.0928212" lon="9.5203894"><ele>444.50000000000006</ele><time>2026-04-22T09:51:27.687Z</time></trkpt><trkpt lat="40.092744" lon="9.5204365"><ele>447.0</ele><time>2026-04-22T09:51:28.658Z</time></trkpt><trkpt lat="40.0926608" lon="9.5204761"><ele>449.5</ele><time>2026-04-22T09:51:29.683Z</time></trkpt><trkpt lat="40.0925748" lon="9.5205111"><ele>452.0</ele><time>2026-04-22T09:51:30.695Z</time></trkpt><trkpt lat="40.0924906" lon="9.5205327"><ele>454.50000000000006</ele><time>2026-04-22T09:51:31.696Z</time></trkpt><trkpt lat="40.0924125" lon="9.5205562"><ele>457.0</ele><time>2026-04-22T09:51:32.661Z</time></trkpt><trkpt lat="40.0923376" lon="9.5205564"><ele>457.4285714285715</ele><time>2026-04-22T09:51:33.68Z</time></trkpt><trkpt lat="40.0922696" lon="9.5205484"><ele>457.8571428571429</ele><time>2026-04-22T09:51:34.655Z</time></trkpt><trkpt lat="40.0922036" lon="9.5205199"><ele>458.2857142857143</ele><time>2026-04-22T09:51:35.663Z</time></trkpt><trkpt lat="40.0921373" lon="9.5204771"><ele>458.7142857142857</ele><time>2026-04-22T09:51:36.662Z</time></trkpt><trkpt lat="40.0920692" lon="9.5204272"><ele>459.1428571428571</ele><time>2026-04-22T09:51:37.688Z</time></trkpt><trkpt lat="40.0919997" lon="9.5203945"><ele>459.5714285714285</ele><time>2026-04-22T09:51:38.688Z</time></trkpt><trkpt lat="40.0919267" lon="9.5203818"><ele>459.99999999999994</ele><time>2026-04-22T09:51:39.665Z</time></trkpt><trkpt lat="40.0918515" lon="9.5203893"><ele>456.1666666666667</ele><time>2026-04-22T09:51:40.692Z</time></trkpt><trkpt lat="40.091775" lon="9.5203908"><ele>452.33333333333337</ele><time>2026-04-22T09:51:41.694Z</time></trkpt><trkpt lat="40.0916962" lon="9.5203794"><ele>448.5</ele><time>2026-04-22T09:51:42.658Z</time></trkpt><trkpt lat="40.0916211" lon="9.5203477"><ele>444.66666666666663</ele><time>2026-04-22T09:51:43.662Z</time></trkpt><trkpt lat="40.0915503" lon="9.5203023"><ele>440.8333333333333</ele><time>2026-04-22T09:51:44.68Z</time></trkpt><trkpt lat="40.0914768" lon="9.5202611"><ele>437.0</ele><time>2026-04-22T09:51:45.678Z</time></trkpt><trkpt lat="40.0913995" lon="9.5202159"><ele>436.49999999999994</ele><time>2026-04-22T09:51:46.654Z</time></trkpt><trkpt lat="40.0913312" lon="9.520154"><ele>436.0</ele><time>2026-04-22T09:51:47.65Z</time></trkpt><trkpt lat="40.0912664" lon="9.5201054"><ele>435.5</ele><time>2026-04-22T09:51:48.657Z</time></trkpt><trkpt lat="40.0912037" lon="9.520058"><ele>435.0</ele><time>2026-04-22T09:51:49.659Z</time></trkpt><trkpt lat="40.0911421" lon="9.5200079"><ele>434.49999999999994</ele><time>2026-04-22T09:51:50.66Z</time></trkpt><trkpt lat="40.0910391" lon="9.5199276"><ele>434.0</ele><time>2026-04-22T09:51:52.652Z</time></trkpt><trkpt lat="40.0909467" lon="9.5199371"><ele>434.0</ele><time>2026-04-22T09:51:54.658Z</time></trkpt><trkpt lat="40.0908366" lon="9.520047"><ele>434.0</ele><time>2026-04-22T09:51:56.669Z</time></trkpt><trkpt lat="40.0907791" lon="9.5201142"><ele>434.0</ele><time>2026-04-22T09:51:57.662Z</time></trkpt><trkpt lat="40.0907116" lon="9.5201903"><ele>434.0</ele><time>2026-04-22T09:51:58.685Z</time></trkpt><trkpt lat="40.0906371" lon="9.5202504"><ele>434.0</ele><time>2026-04-22T09:51:59.683Z</time></trkpt><trkpt lat="40.0905547" lon="9.5203014"><ele>433.6</ele><time>2026-04-22T09:52:00.681Z</time></trkpt><trkpt lat="40.090468" lon="9.5203515"><ele>433.2</ele><time>2026-04-22T09:52:01.702Z</time></trkpt><trkpt lat="40.0903834" lon="9.5204064"><ele>432.80000000000007</ele><time>2026-04-22T09:52:02.675Z</time></trkpt><trkpt lat="40.0903002" lon="9.5204541"><ele>432.40000000000003</ele><time>2026-04-22T09:52:03.678Z</time></trkpt><trkpt lat="40.0902098" lon="9.5205015"><ele>432.0</ele><time>2026-04-22T09:52:04.679Z</time></trkpt><trkpt lat="40.0901168" lon="9.5205462"><ele>434.1666666666667</ele><time>2026-04-22T09:52:05.679Z</time></trkpt><trkpt lat="40.0900279" lon="9.5205785"><ele>436.33333333333337</ele><time>2026-04-22T09:52:06.687Z</time></trkpt><trkpt lat="40.089943" lon="9.5206022"><ele>438.5</ele><time>2026-04-22T09:52:07.681Z</time></trkpt><trkpt lat="40.0898638" lon="9.5206402"><ele>440.6666666666667</ele><time>2026-04-22T09:52:08.676Z</time></trkpt><trkpt lat="40.0897927" lon="9.520695"><ele>442.83333333333337</ele><time>2026-04-22T09:52:09.678Z</time></trkpt><trkpt lat="40.0897333" lon="9.5207359"><ele>445.0</ele><time>2026-04-22T09:52:10.691Z</time></trkpt><trkpt lat="40.089666" lon="9.520758"><ele>445.00000000000006</ele><time>2026-04-22T09:52:11.703Z</time></trkpt><trkpt lat="40.0895954" lon="9.5207601"><ele>445.0</ele><time>2026-04-22T09:52:12.692Z</time></trkpt><trkpt lat="40.0895218" lon="9.5207814"><ele>445.0</ele><time>2026-04-22T09:52:13.669Z</time></trkpt><trkpt lat="40.0894426" lon="9.5208344"><ele>445.0</ele><time>2026-04-22T09:52:14.684Z</time></trkpt><trkpt lat="40.0893737" lon="9.5209151"><ele>445.00000000000006</ele><time>2026-04-22T09:52:15.684Z</time></trkpt><trkpt lat="40.0893278" lon="9.5209792"><ele>445.0</ele><time>2026-04-22T09:52:16.691Z</time></trkpt><trkpt lat="40.0892525" lon="9.5210601"><ele>445.00000000000006</ele><time>2026-04-22T09:52:18.685Z</time></trkpt><trkpt lat="40.0891883" lon="9.521055"><ele>445.0</ele><time>2026-04-22T09:52:19.679Z</time></trkpt><trkpt lat="40.089118" lon="9.5210191"><ele>445.0</ele><time>2026-04-22T09:52:20.665Z</time></trkpt><trkpt lat="40.0890509" lon="9.5209409"><ele>445.0</ele><time>2026-04-22T09:52:21.67Z</time></trkpt><trkpt lat="40.0889823" lon="9.5208761"><ele>445.00000000000006</ele><time>2026-04-22T09:52:22.657Z</time></trkpt><trkpt lat="40.0889064" lon="9.5208297"><ele>445.0</ele><time>2026-04-22T09:52:23.658Z</time></trkpt><trkpt lat="40.0888258" lon="9.5208013"><ele>445.83333333333337</ele><time>2026-04-22T09:52:24.659Z</time></trkpt><trkpt lat="40.0887443" lon="9.5207644"><ele>446.6666666666667</ele><time>2026-04-22T09:52:25.656Z</time></trkpt><trkpt lat="40.0886669" lon="9.5207396"><ele>447.5</ele><time>2026-04-22T09:52:26.663Z</time></trkpt><trkpt lat="40.0885911" lon="9.5207056"><ele>448.33333333333337</ele><time>2026-04-22T09:52:27.665Z</time></trkpt><trkpt lat="40.0885097" lon="9.5206771"><ele>449.1666666666667</ele><time>2026-04-22T09:52:28.658Z</time></trkpt><trkpt lat="40.0884403" lon="9.5206704"><ele>450.0</ele><time>2026-04-22T09:52:29.663Z</time></trkpt><trkpt lat="40.0883749" lon="9.5206637"><ele>450.0</ele><time>2026-04-22T09:52:30.665Z</time></trkpt><trkpt lat="40.0883027" lon="9.5206659"><ele>450.0</ele><time>2026-04-22T09:52:31.676Z</time></trkpt><trkpt lat="40.0882159" lon="9.5206616"><ele>450.0</ele><time>2026-04-22T09:52:32.672Z</time></trkpt><trkpt lat="40.088129" lon="9.5206585"><ele>450.0</ele><time>2026-04-22T09:52:33.669Z</time></trkpt><trkpt lat="40.0880482" lon="9.5206396"><ele>450.0</ele><time>2026-04-22T09:52:34.671Z</time></trkpt><trkpt lat="40.0879683" lon="9.5206302"><ele>450.0</ele><time>2026-04-22T09:52:35.662Z</time></trkpt><trkpt lat="40.0878846" lon="9.5206169"><ele>448.6666666666667</ele><time>2026-04-22T09:52:36.672Z</time></trkpt><trkpt lat="40.0877903" lon="9.5206188"><ele>447.33333333333337</ele><time>2026-04-22T09:52:37.669Z</time></trkpt><trkpt lat="40.0877022" lon="9.5206288"><ele>446.0</ele><time>2026-04-22T09:52:38.672Z</time></trkpt><trkpt lat="40.0876164" lon="9.5206443"><ele>444.6666666666667</ele><time>2026-04-22T09:52:39.692Z</time></trkpt><trkpt lat="40.0875418" lon="9.5206538"><ele>443.33333333333337</ele><time>2026-04-22T09:52:40.697Z</time></trkpt><trkpt lat="40.0874587" lon="9.5206551"><ele>442.0</ele><time>2026-04-22T09:52:41.678Z</time></trkpt><trkpt lat="40.0873714" lon="9.5206405"><ele>439.33333333333337</ele><time>2026-04-22T09:52:42.676Z</time></trkpt><trkpt lat="40.0872914" lon="9.5205969"><ele>436.6666666666667</ele><time>2026-04-22T09:52:43.67Z</time></trkpt><trkpt lat="40.0872112" lon="9.5205688"><ele>434.0</ele><time>2026-04-22T09:52:44.698Z</time></trkpt><trkpt lat="40.0871348" lon="9.5205749"><ele>431.33333333333337</ele><time>2026-04-22T09:52:45.692Z</time></trkpt><trkpt lat="40.0870501" lon="9.5205805"><ele>428.6666666666667</ele><time>2026-04-22T09:52:46.696Z</time></trkpt><trkpt lat="40.0869622" lon="9.5205949"><ele>426.0</ele><time>2026-04-22T09:52:47.685Z</time></trkpt><trkpt lat="40.0868704" lon="9.5206052"><ele>426.0</ele><time>2026-04-22T09:52:48.683Z</time></trkpt><trkpt lat="40.0867767" lon="9.5206185"><ele>426.0</ele><time>2026-04-22T09:52:49.688Z</time></trkpt><trkpt lat="40.0866924" lon="9.5206164"><ele>426.0</ele><time>2026-04-22T09:52:50.692Z</time></trkpt><trkpt lat="40.0866106" lon="9.5206149"><ele>426.0</ele><time>2026-04-22T09:52:51.7Z</time></trkpt><trkpt lat="40.0865268" lon="9.5206331"><ele>426.0</ele><time>2026-04-22T09:52:52.664Z</time></trkpt><trkpt lat="40.0864436" lon="9.5206785"><ele>426.0</ele><time>2026-04-22T09:52:53.669Z</time></trkpt><trkpt lat="40.0863506" lon="9.520741"><ele>421.6</ele><time>2026-04-22T09:52:54.662Z</time></trkpt><trkpt lat="40.0862704" lon="9.5208231"><ele>417.20000000000005</ele><time>2026-04-22T09:52:55.663Z</time></trkpt><trkpt lat="40.0861957" lon="9.5209087"><ele>412.79999999999995</ele><time>2026-04-22T09:52:56.662Z</time></trkpt><trkpt lat="40.0861185" lon="9.5209958"><ele>408.4</ele><time>2026-04-22T09:52:57.679Z</time></trkpt><trkpt lat="40.0860404" lon="9.5210705"><ele>404.0</ele><time>2026-04-22T09:52:58.666Z</time></trkpt><trkpt lat="40.0859557" lon="9.5211472"><ele>404.0</ele><time>2026-04-22T09:52:59.666Z</time></trkpt><trkpt lat="40.0858562" lon="9.5212103"><ele>404.0</ele><time>2026-04-22T09:53:00.663Z</time></trkpt><trkpt lat="40.0857692" lon="9.5212842"><ele>404.0</ele><time>2026-04-22T09:53:01.68Z</time></trkpt><trkpt lat="40.0856872" lon="9.5213561"><ele>404.0</ele><time>2026-04-22T09:53:02.687Z</time></trkpt><trkpt lat="40.0856063" lon="9.521428"><ele>404.0</ele><time>2026-04-22T09:53:03.695Z</time></trkpt><trkpt lat="40.0855308" lon="9.5215013"><ele>402.4</ele><time>2026-04-22T09:53:04.68Z</time></trkpt><trkpt lat="40.0854556" lon="9.5215756"><ele>400.79999999999995</ele><time>2026-04-22T09:53:05.687Z</time></trkpt><trkpt lat="40.0853753" lon="9.5216368"><ele>399.20000000000005</ele><time>2026-04-22T09:53:06.663Z</time></trkpt><trkpt lat="40.0852877" lon="9.521699"><ele>397.6</ele><time>2026-04-22T09:53:07.662Z</time></trkpt><trkpt lat="40.0852055" lon="9.5217612"><ele>396.0</ele><time>2026-04-22T09:53:08.671Z</time></trkpt><trkpt lat="40.0851262" lon="9.5218131"><ele>396.0</ele><time>2026-04-22T09:53:09.691Z</time></trkpt><trkpt lat="40.0850576" lon="9.5218584"><ele>396.0</ele><time>2026-04-22T09:53:10.686Z</time></trkpt><trkpt lat="40.0849838" lon="9.5218961"><ele>396.0</ele><time>2026-04-22T09:53:11.7Z</time></trkpt><trkpt lat="40.0849129" lon="9.5219328"><ele>396.0</ele><time>2026-04-22T09:53:12.687Z</time></trkpt><trkpt lat="40.0848334" lon="9.5219631"><ele>396.0</ele><time>2026-04-22T09:53:13.694Z</time></trkpt><trkpt lat="40.0847495" lon="9.5220037"><ele>396.0</ele><time>2026-04-22T09:53:14.688Z</time></trkpt><trkpt lat="40.0846793" lon="9.5220625"><ele>396.8333333333333</ele><time>2026-04-22T09:53:15.688Z</time></trkpt><trkpt lat="40.0846175" lon="9.522126"><ele>397.66666666666663</ele><time>2026-04-22T09:53:16.696Z</time></trkpt><trkpt lat="40.0845637" lon="9.5222029"><ele>398.5</ele><time>2026-04-22T09:53:17.687Z</time></trkpt><trkpt lat="40.084535" lon="9.5223"><ele>399.3333333333333</ele><time>2026-04-22T09:53:18.703Z</time></trkpt><trkpt lat="40.0845083" lon="9.5223789"><ele>400.16666666666663</ele><time>2026-04-22T09:53:19.69Z</time></trkpt><trkpt lat="40.0844345" lon="9.5224723"><ele>401.0</ele><time>2026-04-22T09:53:21.695Z</time></trkpt><trkpt lat="40.0843323" lon="9.5224627"><ele>400.99999999999994</ele><time>2026-04-22T09:53:23.661Z</time></trkpt><trkpt lat="40.0842333" lon="9.522335"><ele>401.0</ele><time>2026-04-22T09:53:25.666Z</time></trkpt><trkpt lat="40.0841845" lon="9.522252"><ele>401.0</ele><time>2026-04-22T09:53:26.659Z</time></trkpt><trkpt lat="40.0841444" lon="9.5221576"><ele>401.0</ele><time>2026-04-22T09:53:27.66Z</time></trkpt><trkpt lat="40.0840957" lon="9.522089"><ele>400.99999999999994</ele><time>2026-04-22T09:53:28.664Z</time></trkpt><trkpt lat="40.0840356" lon="9.5220389"><ele>401.0</ele><time>2026-04-22T09:53:29.658Z</time></trkpt><trkpt lat="40.0839637" lon="9.5219911"><ele>398.16666666666663</ele><time>2026-04-22T09:53:30.657Z</time></trkpt><trkpt lat="40.083884" lon="9.5219659"><ele>395.3333333333333</ele><time>2026-04-22T09:53:31.694Z</time></trkpt><trkpt lat="40.0838054" lon="9.5219569"><ele>392.5</ele><time>2026-04-22T09:53:32.66Z</time></trkpt><trkpt lat="40.0837243" lon="9.5219513"><ele>389.66666666666663</ele><time>2026-04-22T09:53:33.696Z</time></trkpt><trkpt lat="40.0836463" lon="9.5219685"><ele>386.8333333333333</ele><time>2026-04-22T09:53:34.701Z</time></trkpt><trkpt lat="40.0835705" lon="9.5220017"><ele>384.0</ele><time>2026-04-22T09:53:35.69Z</time></trkpt><trkpt lat="40.0834983" lon="9.5220543"><ele>387.1666666666667</ele><time>2026-04-22T09:53:36.694Z</time></trkpt><trkpt lat="40.0834304" lon="9.5221115"><ele>390.33333333333337</ele><time>2026-04-22T09:53:37.688Z</time></trkpt><trkpt lat="40.0833654" lon="9.5221687"><ele>393.5</ele><time>2026-04-22T09:53:38.69Z</time></trkpt><trkpt lat="40.0833025" lon="9.5222185"><ele>396.6666666666667</ele><time>2026-04-22T09:53:39.684Z</time></trkpt><trkpt lat="40.0832232" lon="9.5222435"><ele>399.83333333333337</ele><time>2026-04-22T09:53:40.656Z</time></trkpt><trkpt lat="40.083136" lon="9.5222434"><ele>403.0</ele><time>2026-04-22T09:53:41.65Z</time></trkpt><trkpt lat="40.0830489" lon="9.5222094"><ele>403.0</ele><time>2026-04-22T09:53:42.653Z</time></trkpt><trkpt lat="40.0829598" lon="9.522156"><ele>403.0</ele><time>2026-04-22T09:53:43.659Z</time></trkpt><trkpt lat="40.0828761" lon="9.5220978"><ele>403.0</ele><time>2026-04-22T09:53:44.666Z</time></trkpt><trkpt lat="40.082787" lon="9.5220513"><ele>403.0</ele><time>2026-04-22T09:53:45.674Z</time></trkpt><trkpt lat="40.0827026" lon="9.5220234"><ele>403.0</ele><time>2026-04-22T09:53:46.667Z</time></trkpt><trkpt lat="40.0826157" lon="9.5220036"><ele>398.59999999999997</ele><time>2026-04-22T09:53:47.665Z</time></trkpt><trkpt lat="40.082524" lon="9.5219931"><ele>394.2</ele><time>2026-04-22T09:53:48.665Z</time></trkpt><trkpt lat="40.082421" lon="9.5219772"><ele>389.8</ele><time>2026-04-22T09:53:49.689Z</time></trkpt><trkpt lat="40.082317" lon="9.5219775"><ele>385.4</ele><time>2026-04-22T09:53:50.671Z</time></trkpt><trkpt lat="40.0822168" lon="9.5219765"><ele>381.0</ele><time>2026-04-22T09:53:51.667Z</time></trkpt><trkpt lat="40.082121" lon="9.5219832"><ele>379.8</ele><time>2026-04-22T09:53:52.669Z</time></trkpt><trkpt lat="40.0820307" lon="9.5219902"><ele>378.6</ele><time>2026-04-22T09:53:53.676Z</time></trkpt><trkpt lat="40.0819495" lon="9.5219977"><ele>377.4</ele><time>2026-04-22T09:53:54.692Z</time></trkpt><trkpt lat="40.0818698" lon="9.5219921"><ele>376.2</ele><time>2026-04-22T09:53:55.696Z</time></trkpt><trkpt lat="40.0817945" lon="9.521984"><ele>375.0</ele><time>2026-04-22T09:53:56.672Z</time></trkpt><trkpt lat="40.081669" lon="9.5219482"><ele>375.0</ele><time>2026-04-22T09:53:58.671Z</time></trkpt><trkpt lat="40.0816021" lon="9.5219588"><ele>375.0</ele><time>2026-04-22T09:53:59.691Z</time></trkpt><trkpt lat="40.0815226" lon="9.5219855"><ele>375.0</ele><time>2026-04-22T09:54:00.686Z</time></trkpt><trkpt lat="40.0814347" lon="9.5220482"><ele>375.0</ele><time>2026-04-22T09:54:01.687Z</time></trkpt><trkpt lat="40.0813534" lon="9.5221346"><ele>375.0</ele><time>2026-04-22T09:54:02.684Z</time></trkpt><trkpt lat="40.0812695" lon="9.5222224"><ele>376.5</ele><time>2026-04-22T09:54:03.688Z</time></trkpt><trkpt lat="40.0811929" lon="9.5222798"><ele>378.0</ele><time>2026-04-22T09:54:04.689Z</time></trkpt><trkpt lat="40.0811159" lon="9.5223377"><ele>379.5</ele><time>2026-04-22T09:54:05.699Z</time></trkpt><trkpt lat="40.0810371" lon="9.5223789"><ele>381.0</ele><time>2026-04-22T09:54:06.686Z</time></trkpt><trkpt lat="40.0809612" lon="9.5224198"><ele>382.5</ele><time>2026-04-22T09:54:07.677Z</time></trkpt><trkpt lat="40.0808773" lon="9.5224389"><ele>384.0</ele><time>2026-04-22T09:54:08.657Z</time></trkpt><trkpt lat="40.0807986" lon="9.5224543"><ele>384.5</ele><time>2026-04-22T09:54:09.66Z</time></trkpt><trkpt lat="40.0807188" lon="9.5224675"><ele>385.0</ele><time>2026-04-22T09:54:10.664Z</time></trkpt><trkpt lat="40.0806421" lon="9.5224685"><ele>385.5</ele><time>2026-04-22T09:54:11.657Z</time></trkpt><trkpt lat="40.0805611" lon="9.5224535"><ele>386.0</ele><time>2026-04-22T09:54:12.664Z</time></trkpt><trkpt lat="40.0804777" lon="9.5224367"><ele>386.5</ele><time>2026-04-22T09:54:13.669Z</time></trkpt><trkpt lat="40.0804018" lon="9.5224174"><ele>387.0</ele><time>2026-04-22T09:54:14.66Z</time></trkpt><trkpt lat="40.0803298" lon="9.5223884"><ele>387.0</ele><time>2026-04-22T09:54:15.67Z</time></trkpt><trkpt lat="40.0802542" lon="9.5223488"><ele>387.0</ele><time>2026-04-22T09:54:16.664Z</time></trkpt><trkpt lat="40.0801676" lon="9.5223121"><ele>387.0</ele><time>2026-04-22T09:54:17.658Z</time></trkpt><trkpt lat="40.0800895" lon="9.5222782"><ele>387.0</ele><time>2026-04-22T09:54:18.681Z</time></trkpt><trkpt lat="40.0800263" lon="9.5222399"><ele>387.0</ele><time>2026-04-22T09:54:19.659Z</time></trkpt><trkpt lat="40.0799397" lon="9.5221701"><ele>387.0</ele><time>2026-04-22T09:54:21.678Z</time></trkpt><trkpt lat="40.0798855" lon="9.5220835"><ele>383.6</ele><time>2026-04-22T09:54:23.684Z</time></trkpt><trkpt lat="40.0798894" lon="9.5219861"><ele>380.20000000000005</ele><time>2026-04-22T09:54:25.696Z</time></trkpt><trkpt lat="40.0799413" lon="9.5218547"><ele>376.8</ele><time>2026-04-22T09:54:27.665Z</time></trkpt><trkpt lat="40.0799722" lon="9.5217573"><ele>373.4</ele><time>2026-04-22T09:54:28.666Z</time></trkpt><trkpt lat="40.0799957" lon="9.5216751"><ele>370.0</ele><time>2026-04-22T09:54:29.667Z</time></trkpt><trkpt lat="40.0800247" lon="9.52152"><ele>370.0</ele><time>2026-04-22T09:54:31.655Z</time></trkpt><trkpt lat="40.079996" lon="9.5213926"><ele>370.0</ele><time>2026-04-22T09:54:33.655Z</time></trkpt><trkpt lat="40.0799438" lon="9.5213359"><ele>370.0</ele><time>2026-04-22T09:54:34.65Z</time></trkpt><trkpt lat="40.0798923" lon="9.5212715"><ele>370.0</ele><time>2026-04-22T09:54:35.69Z</time></trkpt><trkpt lat="40.0798425" lon="9.5212149"><ele>370.0</ele><time>2026-04-22T09:54:36.7Z</time></trkpt><trkpt lat="40.0797833" lon="9.5211492"><ele>370.0</ele><time>2026-04-22T09:54:37.669Z</time></trkpt><trkpt lat="40.0797108" lon="9.5210951"><ele>370.0</ele><time>2026-04-22T09:54:38.665Z</time></trkpt><trkpt lat="40.0796402" lon="9.5210568"><ele>370.0</ele><time>2026-04-22T09:54:39.667Z</time></trkpt><trkpt lat="40.0795661" lon="9.52103"><ele>370.0</ele><time>2026-04-22T09:54:40.67Z</time></trkpt><trkpt lat="40.0794876" lon="9.5209985"><ele>370.0</ele><time>2026-04-22T09:54:41.666Z</time></trkpt><trkpt lat="40.079422" lon="9.5209579"><ele>370.0</ele><time>2026-04-22T09:54:42.678Z</time></trkpt><trkpt lat="40.0793094" lon="9.5208783"><ele>370.0</ele><time>2026-04-22T09:54:44.67Z</time></trkpt><trkpt lat="40.0792539" lon="9.5208382"><ele>370.0</ele><time>2026-04-22T09:54:45.665Z</time></trkpt><trkpt lat="40.0791751" lon="9.5207785"><ele>370.0</ele><time>2026-04-22T09:54:47.665Z</time></trkpt><trkpt lat="40.0790907" lon="9.5207547"><ele>370.0</ele><time>2026-04-22T09:54:49.668Z</time></trkpt><trkpt lat="40.0790283" lon="9.5207682"><ele>370.0</ele><time>2026-04-22T09:54:50.656Z</time></trkpt><trkpt lat="40.0789385" lon="9.5207877"><ele>370.0</ele><time>2026-04-22T09:54:51.672Z</time></trkpt><trkpt lat="40.0788449" lon="9.520803"><ele>370.0</ele><time>2026-04-22T09:54:52.672Z</time></trkpt><trkpt lat="40.078745" lon="9.5208082"><ele>368.8</ele><time>2026-04-22T09:54:53.675Z</time></trkpt><trkpt lat="40.078645" lon="9.5208117"><ele>367.6</ele><time>2026-04-22T09:54:54.666Z</time></trkpt><trkpt lat="40.0785495" lon="9.5208184"><ele>366.4</ele><time>2026-04-22T09:54:55.669Z</time></trkpt><trkpt lat="40.0784512" lon="9.5208225"><ele>365.2</ele><time>2026-04-22T09:54:56.676Z</time></trkpt><trkpt lat="40.078345" lon="9.5208264"><ele>364.0</ele><time>2026-04-22T09:54:57.672Z</time></trkpt><trkpt lat="40.0782413" lon="9.5208249"><ele>362.79999999999995</ele><time>2026-04-22T09:54:58.681Z</time></trkpt><trkpt lat="40.0781418" lon="9.5208334"><ele>361.59999999999997</ele><time>2026-04-22T09:54:59.67Z</time></trkpt><trkpt lat="40.0780407" lon="9.520836"><ele>360.4</ele><time>2026-04-22T09:55:00.668Z</time></trkpt><trkpt lat="40.0779362" lon="9.5208153"><ele>359.2</ele><time>2026-04-22T09:55:01.694Z</time></trkpt><trkpt lat="40.0778322" lon="9.5208082"><ele>358.0</ele><time>2026-04-22T09:55:02.702Z</time></trkpt><trkpt lat="40.0777297" lon="9.5208057"><ele>358.0</ele><time>2026-04-22T09:55:03.679Z</time></trkpt><trkpt lat="40.0776375" lon="9.5208021"><ele>358.0</ele><time>2026-04-22T09:55:04.669Z</time></trkpt><trkpt lat="40.0775343" lon="9.5207979"><ele>358.0</ele><time>2026-04-22T09:55:05.675Z</time></trkpt><trkpt lat="40.0774227" lon="9.5208083"><ele>358.0</ele><time>2026-04-22T09:55:06.668Z</time></trkpt><trkpt lat="40.0773143" lon="9.520827"><ele>358.0</ele><time>2026-04-22T09:55:07.678Z</time></trkpt><trkpt lat="40.0771989" lon="9.5208263"><ele>358.2</ele><time>2026-04-22T09:55:08.662Z</time></trkpt><trkpt lat="40.0770796" lon="9.5208324"><ele>358.4</ele><time>2026-04-22T09:55:09.662Z</time></trkpt><trkpt lat="40.0769692" lon="9.5208361"><ele>358.59999999999997</ele><time>2026-04-22T09:55:10.665Z</time></trkpt><trkpt lat="40.0768726" lon="9.520841"><ele>358.79999999999995</ele><time>2026-04-22T09:55:11.662Z</time></trkpt><trkpt lat="40.0767757" lon="9.5208488"><ele>359.0</ele><time>2026-04-22T09:55:12.663Z</time></trkpt><trkpt lat="40.0766715" lon="9.5208489"><ele>358.0</ele><time>2026-04-22T09:55:13.665Z</time></trkpt><trkpt lat="40.0765604" lon="9.5208392"><ele>357.0</ele><time>2026-04-22T09:55:14.745Z</time></trkpt><trkpt lat="40.0764442" lon="9.520836"><ele>356.0</ele><time>2026-04-22T09:55:15.74Z</time></trkpt><trkpt lat="40.0763322" lon="9.5208234"><ele>355.0</ele><time>2026-04-22T09:55:16.747Z</time></trkpt><trkpt lat="40.0762289" lon="9.5208014"><ele>354.0</ele><time>2026-04-22T09:55:17.75Z</time></trkpt><trkpt lat="40.0761226" lon="9.5207748"><ele>354.0</ele><time>2026-04-22T09:55:18.753Z</time></trkpt><trkpt lat="40.0760063" lon="9.5207467"><ele>354.0</ele><time>2026-04-22T09:55:19.754Z</time></trkpt><trkpt lat="40.0759006" lon="9.5207189"><ele>354.0</ele><time>2026-04-22T09:55:20.743Z</time></trkpt><trkpt lat="40.075794" lon="9.5206925"><ele>354.0</ele><time>2026-04-22T09:55:21.749Z</time></trkpt><trkpt lat="40.0756841" lon="9.5206687"><ele>354.0</ele><time>2026-04-22T09:55:22.749Z</time></trkpt><trkpt lat="40.0755757" lon="9.520647"><ele>354.2</ele><time>2026-04-22T09:55:23.743Z</time></trkpt><trkpt lat="40.0754696" lon="9.5206301"><ele>354.4</ele><time>2026-04-22T09:55:24.748Z</time></trkpt><trkpt lat="40.0753629" lon="9.5206211"><ele>354.6</ele><time>2026-04-22T09:55:25.748Z</time></trkpt><trkpt lat="40.07526" lon="9.5205743"><ele>354.8</ele><time>2026-04-22T09:55:26.741Z</time></trkpt><trkpt lat="40.0751523" lon="9.5205768"><ele>355.0</ele><time>2026-04-22T09:55:27.746Z</time></trkpt><trkpt lat="40.0750419" lon="9.5205807"><ele>353.8</ele><time>2026-04-22T09:55:28.743Z</time></trkpt><trkpt lat="40.0749313" lon="9.5205916"><ele>352.6</ele><time>2026-04-22T09:55:29.75Z</time></trkpt><trkpt lat="40.074823" lon="9.5206111"><ele>351.4</ele><time>2026-04-22T09:55:30.767Z</time></trkpt><trkpt lat="40.0747213" lon="9.5206263"><ele>350.2</ele><time>2026-04-22T09:55:31.768Z</time></trkpt><trkpt lat="40.0746171" lon="9.5206527"><ele>349.0</ele><time>2026-04-22T09:55:32.772Z</time></trkpt><trkpt lat="40.0745207" lon="9.5206722"><ele>349.0</ele><time>2026-04-22T09:55:33.687Z</time></trkpt><trkpt lat="40.074415" lon="9.520681"><ele>349.0</ele><time>2026-04-22T09:55:34.704Z</time></trkpt><trkpt lat="40.0743116" lon="9.5206774"><ele>349.0</ele><time>2026-04-22T09:55:35.701Z</time></trkpt><trkpt lat="40.074205" lon="9.5206642"><ele>349.0</ele><time>2026-04-22T09:55:36.671Z</time></trkpt><trkpt lat="40.0740992" lon="9.5206212"><ele>349.0</ele><time>2026-04-22T09:55:37.66Z</time></trkpt><trkpt lat="40.074" lon="9.5205704"><ele>347.6</ele><time>2026-04-22T09:55:38.693Z</time></trkpt><trkpt lat="40.0739168" lon="9.5205119"><ele>346.2</ele><time>2026-04-22T09:55:39.668Z</time></trkpt><trkpt lat="40.0738368" lon="9.5204854"><ele>344.8</ele><time>2026-04-22T09:55:40.66Z</time></trkpt><trkpt lat="40.0737504" lon="9.5204775"><ele>343.40000000000003</ele><time>2026-04-22T09:55:41.651Z</time></trkpt><trkpt lat="40.0736662" lon="9.5205125"><ele>342.0</ele><time>2026-04-22T09:55:42.651Z</time></trkpt><trkpt lat="40.0735778" lon="9.5205739"><ele>342.0</ele><time>2026-04-22T09:55:43.684Z</time></trkpt><trkpt lat="40.0734928" lon="9.5206472"><ele>342.0</ele><time>2026-04-22T09:55:44.688Z</time></trkpt><trkpt lat="40.0733964" lon="9.5207261"><ele>342.0</ele><time>2026-04-22T09:55:45.689Z</time></trkpt><trkpt lat="40.0732946" lon="9.520796"><ele>342.0</ele><time>2026-04-22T09:55:46.693Z</time></trkpt><trkpt lat="40.0731805" lon="9.5208325"><ele>342.0</ele><time>2026-04-22T09:55:47.694Z</time></trkpt><trkpt lat="40.0730647" lon="9.5208607"><ele>340.20000000000005</ele><time>2026-04-22T09:55:48.693Z</time></trkpt><trkpt lat="40.0729466" lon="9.5208769"><ele>338.4</ele><time>2026-04-22T09:55:49.669Z</time></trkpt><trkpt lat="40.07283" lon="9.5208721"><ele>336.6</ele><time>2026-04-22T09:55:50.678Z</time></trkpt><trkpt lat="40.0727227" lon="9.5208495"><ele>334.79999999999995</ele><time>2026-04-22T09:55:51.67Z</time></trkpt><trkpt lat="40.0726275" lon="9.520822"><ele>333.0</ele><time>2026-04-22T09:55:52.677Z</time></trkpt><trkpt lat="40.0725242" lon="9.5207832"><ele>331.59999999999997</ele><time>2026-04-22T09:55:53.676Z</time></trkpt><trkpt lat="40.0724254" lon="9.5207429"><ele>330.2</ele><time>2026-04-22T09:55:54.746Z</time></trkpt><trkpt lat="40.072325" lon="9.5207089"><ele>328.8</ele><time>2026-04-22T09:55:55.747Z</time></trkpt><trkpt lat="40.0722261" lon="9.5206773"><ele>327.4</ele><time>2026-04-22T09:55:56.748Z</time></trkpt><trkpt lat="40.0721261" lon="9.5206513"><ele>326.0</ele><time>2026-04-22T09:55:57.776Z</time></trkpt><trkpt lat="40.0720213" lon="9.5206417"><ele>326.0</ele><time>2026-04-22T09:55:58.762Z</time></trkpt><trkpt lat="40.0719148" lon="9.520617"><ele>326.0</ele><time>2026-04-22T09:55:59.747Z</time></trkpt><trkpt lat="40.0718031" lon="9.520631"><ele>326.0</ele><time>2026-04-22T09:56:00.729Z</time></trkpt><trkpt lat="40.0716919" lon="9.520641"><ele>326.0</ele><time>2026-04-22T09:56:01.734Z</time></trkpt><trkpt lat="40.0715799" lon="9.520652"><ele>326.0</ele><time>2026-04-22T09:56:02.729Z</time></trkpt><trkpt lat="40.0714679" lon="9.5206646"><ele>325.75</ele><time>2026-04-22T09:56:03.731Z</time></trkpt><trkpt lat="40.0713558" lon="9.5206688"><ele>325.5</ele><time>2026-04-22T09:56:04.744Z</time></trkpt><trkpt lat="40.0712362" lon="9.5206792"><ele>325.25</ele><time>2026-04-22T09:56:05.746Z</time></trkpt><trkpt lat="40.0711205" lon="9.5206964"><ele>325.0</ele><time>2026-04-22T09:56:06.746Z</time></trkpt><trkpt lat="40.0710072" lon="9.5207208"><ele>325.0</ele><time>2026-04-22T09:56:07.74Z</time></trkpt><trkpt lat="40.0708949" lon="9.5207513"><ele>325.0</ele><time>2026-04-22T09:56:08.748Z</time></trkpt><trkpt lat="40.0707869" lon="9.5207857"><ele>325.0</ele><time>2026-04-22T09:56:09.762Z</time></trkpt><trkpt lat="40.0706773" lon="9.5208241"><ele>325.0</ele><time>2026-04-22T09:56:10.756Z</time></trkpt><trkpt lat="40.0705715" lon="9.520861"><ele>325.0</ele><time>2026-04-22T09:56:11.757Z</time></trkpt><trkpt lat="40.0704668" lon="9.5208996"><ele>325.4</ele><time>2026-04-22T09:56:12.772Z</time></trkpt><trkpt lat="40.0703612" lon="9.5209403"><ele>325.8</ele><time>2026-04-22T09:56:13.768Z</time></trkpt><trkpt lat="40.0702551" lon="9.5209809"><ele>326.20000000000005</ele><time>2026-04-22T09:56:14.768Z</time></trkpt><trkpt lat="40.0701481" lon="9.5210248"><ele>326.6</ele><time>2026-04-22T09:56:15.765Z</time></trkpt><trkpt lat="40.0700442" lon="9.5210587"><ele>327.0</ele><time>2026-04-22T09:56:16.769Z</time></trkpt><trkpt lat="40.0699403" lon="9.5210834"><ele>327.20000000000005</ele><time>2026-04-22T09:56:17.767Z</time></trkpt><trkpt lat="40.0698363" lon="9.5211045"><ele>327.4</ele><time>2026-04-22T09:56:18.775Z</time></trkpt><trkpt lat="40.0697334" lon="9.5211243"><ele>327.6</ele><time>2026-04-22T09:56:19.761Z</time></trkpt><trkpt lat="40.0696389" lon="9.5211434"><ele>327.79999999999995</ele><time>2026-04-22T09:56:20.766Z</time></trkpt><trkpt lat="40.0695469" lon="9.5211595"><ele>328.0</ele><time>2026-04-22T09:56:21.766Z</time></trkpt><trkpt lat="40.0694538" lon="9.5211651"><ele>328.0</ele><time>2026-04-22T09:56:22.738Z</time></trkpt><trkpt lat="40.069361" lon="9.5211518"><ele>328.0</ele><time>2026-04-22T09:56:23.745Z</time></trkpt><trkpt lat="40.0692709" lon="9.5211295"><ele>328.0</ele><time>2026-04-22T09:56:24.736Z</time></trkpt><trkpt lat="40.0691849" lon="9.5210906"><ele>328.0</ele><time>2026-04-22T09:56:25.752Z</time></trkpt><trkpt lat="40.0690939" lon="9.5210394"><ele>328.0</ele><time>2026-04-22T09:56:26.751Z</time></trkpt><trkpt lat="40.0690118" lon="9.5209769"><ele>328.16666666666663</ele><time>2026-04-22T09:56:27.722Z</time></trkpt><trkpt lat="40.0689353" lon="9.5209205"><ele>328.3333333333333</ele><time>2026-04-22T09:56:28.725Z</time></trkpt><trkpt lat="40.0688614" lon="9.520874"><ele>328.5</ele><time>2026-04-22T09:56:29.738Z</time></trkpt><trkpt lat="40.0687887" lon="9.5208484"><ele>328.6666666666667</ele><time>2026-04-22T09:56:30.737Z</time></trkpt><trkpt lat="40.0687138" lon="9.5208449"><ele>328.83333333333337</ele><time>2026-04-22T09:56:31.758Z</time></trkpt><trkpt lat="40.0686242" lon="9.5208667"><ele>329.0</ele><time>2026-04-22T09:56:32.747Z</time></trkpt><trkpt lat="40.0685077" lon="9.5209107"><ele>329.0</ele><time>2026-04-22T09:56:33.664Z</time></trkpt><trkpt lat="40.0684015" lon="9.5209452"><ele>329.0</ele><time>2026-04-22T09:56:34.665Z</time></trkpt><trkpt lat="40.0683063" lon="9.5209597"><ele>329.0</ele><time>2026-04-22T09:56:35.667Z</time></trkpt><trkpt lat="40.0682293" lon="9.5209551"><ele>329.0</ele><time>2026-04-22T09:56:36.655Z</time></trkpt><trkpt lat="40.0681338" lon="9.5209398"><ele>329.0</ele><time>2026-04-22T09:56:37.655Z</time></trkpt><trkpt lat="40.0680332" lon="9.5209207"><ele>328.0</ele><time>2026-04-22T09:56:38.655Z</time></trkpt><trkpt lat="40.0679247" lon="9.5209143"><ele>327.0</ele><time>2026-04-22T09:56:39.663Z</time></trkpt><trkpt lat="40.0678107" lon="9.5209163"><ele>326.0</ele><time>2026-04-22T09:56:40.662Z</time></trkpt><trkpt lat="40.067696" lon="9.5209342"><ele>325.0</ele><time>2026-04-22T09:56:41.661Z</time></trkpt><trkpt lat="40.067572" lon="9.5209487"><ele>325.0</ele><time>2026-04-22T09:56:42.657Z</time></trkpt><trkpt lat="40.0674601" lon="9.5209757"><ele>325.0</ele><time>2026-04-22T09:56:43.677Z</time></trkpt><trkpt lat="40.06736" lon="9.5210076"><ele>325.0</ele><time>2026-04-22T09:56:44.653Z</time></trkpt><trkpt lat="40.0672592" lon="9.5210434"><ele>325.0</ele><time>2026-04-22T09:56:45.682Z</time></trkpt><trkpt lat="40.0671584" lon="9.5210685"><ele>325.0</ele><time>2026-04-22T09:56:46.693Z</time></trkpt><trkpt lat="40.0670604" lon="9.5211008"><ele>325.0</ele><time>2026-04-22T09:56:47.684Z</time></trkpt><trkpt lat="40.0669666" lon="9.5211363"><ele>325.0</ele><time>2026-04-22T09:56:48.688Z</time></trkpt><trkpt lat="40.0668709" lon="9.5211736"><ele>325.0</ele><time>2026-04-22T09:56:49.686Z</time></trkpt><trkpt lat="40.0667754" lon="9.5212119"><ele>325.0</ele><time>2026-04-22T09:56:50.678Z</time></trkpt><trkpt lat="40.0666972" lon="9.5212532"><ele>325.0</ele><time>2026-04-22T09:56:51.675Z</time></trkpt><trkpt lat="40.0666198" lon="9.5213059"><ele>323.8</ele><time>2026-04-22T09:56:52.674Z</time></trkpt><trkpt lat="40.0665444" lon="9.5214149"><ele>322.6</ele><time>2026-04-22T09:56:53.676Z</time></trkpt><trkpt lat="40.066467" lon="9.521523"><ele>321.4</ele><time>2026-04-22T09:56:54.68Z</time></trkpt><trkpt lat="40.0663941" lon="9.5216325"><ele>320.2</ele><time>2026-04-22T09:56:55.678Z</time></trkpt><trkpt lat="40.0663255" lon="9.5217419"><ele>319.0</ele><time>2026-04-22T09:56:56.678Z</time></trkpt><trkpt lat="40.0662684" lon="9.5218395"><ele>319.0</ele><time>2026-04-22T09:56:57.689Z</time></trkpt><trkpt lat="40.0662018" lon="9.5219154"><ele>319.0</ele><time>2026-04-22T09:56:58.676Z</time></trkpt><trkpt lat="40.0661207" lon="9.5219805"><ele>319.0</ele><time>2026-04-22T09:56:59.68Z</time></trkpt><trkpt lat="40.0660366" lon="9.5220327"><ele>319.0</ele><time>2026-04-22T09:57:00.676Z</time></trkpt><trkpt lat="40.0659545" lon="9.5220783"><ele>319.0</ele><time>2026-04-22T09:57:01.682Z</time></trkpt><trkpt lat="40.0658676" lon="9.5221131"><ele>316.4</ele><time>2026-04-22T09:57:02.686Z</time></trkpt><trkpt lat="40.0657771" lon="9.5221348"><ele>313.79999999999995</ele><time>2026-04-22T09:57:03.682Z</time></trkpt><trkpt lat="40.0656818" lon="9.5221651"><ele>311.20000000000005</ele><time>2026-04-22T09:57:04.69Z</time></trkpt><trkpt lat="40.0655773" lon="9.5221868"><ele>308.6</ele><time>2026-04-22T09:57:05.69Z</time></trkpt><trkpt lat="40.0654755" lon="9.5222143"><ele>306.0</ele><time>2026-04-22T09:57:06.687Z</time></trkpt><trkpt lat="40.0653653" lon="9.5222319"><ele>306.0</ele><time>2026-04-22T09:57:07.695Z</time></trkpt><trkpt lat="40.0652635" lon="9.5222334"><ele>306.0</ele><time>2026-04-22T09:57:08.688Z</time></trkpt><trkpt lat="40.0651581" lon="9.5222125"><ele>306.0</ele><time>2026-04-22T09:57:09.687Z</time></trkpt><trkpt lat="40.0650489" lon="9.5221716"><ele>306.0</ele><time>2026-04-22T09:57:10.661Z</time></trkpt><trkpt lat="40.0649442" lon="9.5221146"><ele>306.0</ele><time>2026-04-22T09:57:11.693Z</time></trkpt><trkpt lat="40.0648491" lon="9.5220483"><ele>304.40000000000003</ele><time>2026-04-22T09:57:12.663Z</time></trkpt><trkpt lat="40.0647474" lon="9.5219806"><ele>302.8</ele><time>2026-04-22T09:57:13.68Z</time></trkpt><trkpt lat="40.0646441" lon="9.5219291"><ele>301.20000000000005</ele><time>2026-04-22T09:57:14.685Z</time></trkpt><trkpt lat="40.0645408" lon="9.5218702"><ele>299.6</ele><time>2026-04-22T09:57:15.669Z</time></trkpt><trkpt lat="40.0644478" lon="9.5218077"><ele>298.0</ele><time>2026-04-22T09:57:16.665Z</time></trkpt><trkpt lat="40.0643532" lon="9.5217509"><ele>298.0</ele><time>2026-04-22T09:57:17.663Z</time></trkpt><trkpt lat="40.0642525" lon="9.5217031"><ele>298.0</ele><time>2026-04-22T09:57:18.698Z</time></trkpt><trkpt lat="40.0641518" lon="9.521653"><ele>298.0</ele><time>2026-04-22T09:57:19.659Z</time></trkpt><trkpt lat="40.064057" lon="9.5216054"><ele>298.0</ele><time>2026-04-22T09:57:20.657Z</time></trkpt><trkpt lat="40.0639671" lon="9.5215554"><ele>298.0</ele><time>2026-04-22T09:57:21.659Z</time></trkpt><trkpt lat="40.0638863" lon="9.5215016"><ele>297.2</ele><time>2026-04-22T09:57:22.655Z</time></trkpt><trkpt lat="40.0638199" lon="9.5214384"><ele>296.4</ele><time>2026-04-22T09:57:23.653Z</time></trkpt><trkpt lat="40.0637565" lon="9.5213546"><ele>295.59999999999997</ele><time>2026-04-22T09:57:24.677Z</time></trkpt><trkpt lat="40.063701" lon="9.5212495"><ele>294.8</ele><time>2026-04-22T09:57:25.676Z</time></trkpt><trkpt lat="40.0636458" lon="9.5211323"><ele>294.0</ele><time>2026-04-22T09:57:26.684Z</time></trkpt><trkpt lat="40.0635944" lon="9.5210183"><ele>293.8333333333333</ele><time>2026-04-22T09:57:27.674Z</time></trkpt><trkpt lat="40.0635584" lon="9.5209064"><ele>293.6666666666667</ele><time>2026-04-22T09:57:28.679Z</time></trkpt><trkpt lat="40.063539" lon="9.5207944"><ele>293.5</ele><time>2026-04-22T09:57:29.678Z</time></trkpt><trkpt lat="40.0635208" lon="9.5206833"><ele>293.33333333333337</ele><time>2026-04-22T09:57:30.68Z</time></trkpt><trkpt lat="40.0634976" lon="9.5205886"><ele>293.1666666666667</ele><time>2026-04-22T09:57:31.657Z</time></trkpt><trkpt lat="40.0634571" lon="9.5205116"><ele>293.0</ele><time>2026-04-22T09:57:32.654Z</time></trkpt><trkpt lat="40.0633957" lon="9.5204267"><ele>295.0</ele><time>2026-04-22T09:57:33.654Z</time></trkpt><trkpt lat="40.0633192" lon="9.5203526"><ele>297.0</ele><time>2026-04-22T09:57:34.64Z</time></trkpt><trkpt lat="40.0632312" lon="9.520286"><ele>299.0</ele><time>2026-04-22T09:57:35.654Z</time></trkpt><trkpt lat="40.0631461" lon="9.5202365"><ele>301.0</ele><time>2026-04-22T09:57:36.677Z</time></trkpt><trkpt lat="40.0630601" lon="9.5201762"><ele>303.0</ele><time>2026-04-22T09:57:37.653Z</time></trkpt><trkpt lat="40.062989" lon="9.5200996"><ele>303.8333333333333</ele><time>2026-04-22T09:57:38.649Z</time></trkpt><trkpt lat="40.0629276" lon="9.5200245"><ele>304.6666666666667</ele><time>2026-04-22T09:57:39.653Z</time></trkpt><trkpt lat="40.0628783" lon="9.5199613"><ele>305.5</ele><time>2026-04-22T09:57:40.645Z</time></trkpt><trkpt lat="40.0627657" lon="9.5199252"><ele>306.33333333333337</ele><time>2026-04-22T09:57:42.649Z</time></trkpt><trkpt lat="40.0627033" lon="9.5199554"><ele>307.1666666666667</ele><time>2026-04-22T09:57:43.636Z</time></trkpt><trkpt lat="40.0626378" lon="9.5200301"><ele>308.0</ele><time>2026-04-22T09:57:44.633Z</time></trkpt><trkpt lat="40.0625576" lon="9.5200998"><ele>308.0</ele><time>2026-04-22T09:57:45.639Z</time></trkpt><trkpt lat="40.0624886" lon="9.5201664"><ele>308.0</ele><time>2026-04-22T09:57:46.682Z</time></trkpt><trkpt lat="40.0624181" lon="9.5202147"><ele>308.0</ele><time>2026-04-22T09:57:47.672Z</time></trkpt><trkpt lat="40.0623624" lon="9.5202595"><ele>308.0</ele><time>2026-04-22T09:57:48.686Z</time></trkpt><trkpt lat="40.0622569" lon="9.5202583"><ele>308.0</ele><time>2026-04-22T09:57:50.676Z</time></trkpt><trkpt lat="40.0621935" lon="9.5202193"><ele>308.0</ele><time>2026-04-22T09:57:52.652Z</time></trkpt><trkpt lat="40.0621039" lon="9.5201916"><ele>309.4</ele><time>2026-04-22T09:57:54.65Z</time></trkpt><trkpt lat="40.0619741" lon="9.5202443"><ele>310.8</ele><time>2026-04-22T09:57:56.68Z</time></trkpt><trkpt lat="40.0618953" lon="9.5202948"><ele>312.2</ele><time>2026-04-22T09:57:57.683Z</time></trkpt><trkpt lat="40.0617984" lon="9.5203584"><ele>313.6</ele><time>2026-04-22T09:57:58.688Z</time></trkpt><trkpt lat="40.0616989" lon="9.5204087"><ele>315.0</ele><time>2026-04-22T09:57:59.682Z</time></trkpt><trkpt lat="40.0615843" lon="9.5204635"><ele>310.0</ele><time>2026-04-22T09:58:00.688Z</time></trkpt><trkpt lat="40.0614588" lon="9.5204883"><ele>305.0</ele><time>2026-04-22T09:58:01.687Z</time></trkpt><trkpt lat="40.0613299" lon="9.5205149"><ele>300.0</ele><time>2026-04-22T09:58:02.659Z</time></trkpt><trkpt lat="40.0612059" lon="9.5205344"><ele>295.0</ele><time>2026-04-22T09:58:03.657Z</time></trkpt><trkpt lat="40.0610847" lon="9.5205596"><ele>295.0</ele><time>2026-04-22T09:58:04.661Z</time></trkpt><trkpt lat="40.0609516" lon="9.5205709"><ele>295.0</ele><time>2026-04-22T09:58:05.663Z</time></trkpt><trkpt lat="40.0608227" lon="9.5205559"><ele>295.0</ele><time>2026-04-22T09:58:06.662Z</time></trkpt><trkpt lat="40.0607043" lon="9.520533"><ele>295.0</ele><time>2026-04-22T09:58:07.663Z</time></trkpt><trkpt lat="40.0605847" lon="9.5204976"><ele>295.75</ele><time>2026-04-22T09:58:08.661Z</time></trkpt><trkpt lat="40.0604726" lon="9.5204583"><ele>296.5</ele><time>2026-04-22T09:58:09.667Z</time></trkpt><trkpt lat="40.0603537" lon="9.5204193"><ele>297.25</ele><time>2026-04-22T09:58:10.659Z</time></trkpt><trkpt lat="40.0602392" lon="9.5203934"><ele>298.0</ele><time>2026-04-22T09:58:11.663Z</time></trkpt><trkpt lat="40.0601282" lon="9.520365"><ele>298.0</ele><time>2026-04-22T09:58:12.661Z</time></trkpt><trkpt lat="40.0600071" lon="9.5203264"><ele>298.0</ele><time>2026-04-22T09:58:13.666Z</time></trkpt><trkpt lat="40.0598808" lon="9.5202866"><ele>298.0</ele><time>2026-04-22T09:58:14.662Z</time></trkpt><trkpt lat="40.0597521" lon="9.5202503"><ele>298.0</ele><time>2026-04-22T09:58:15.661Z</time></trkpt><trkpt lat="40.0596151" lon="9.5202141"><ele>298.25</ele><time>2026-04-22T09:58:16.658Z</time></trkpt><trkpt lat="40.0594814" lon="9.5201765"><ele>298.5</ele><time>2026-04-22T09:58:17.659Z</time></trkpt><trkpt lat="40.059354" lon="9.520137"><ele>298.75</ele><time>2026-04-22T09:58:18.656Z</time></trkpt><trkpt lat="40.0592321" lon="9.5201176"><ele>299.0</ele><time>2026-04-22T09:58:19.654Z</time></trkpt><trkpt lat="40.0590937" lon="9.5201004"><ele>299.0</ele><time>2026-04-22T09:58:20.653Z</time></trkpt><trkpt lat="40.0589641" lon="9.5201214"><ele>299.0</ele><time>2026-04-22T09:58:21.65Z</time></trkpt><trkpt lat="40.0588253" lon="9.5201353"><ele>299.0</ele><time>2026-04-22T09:58:22.673Z</time></trkpt><trkpt lat="40.0587048" lon="9.5201982"><ele>299.0</ele><time>2026-04-22T09:58:23.675Z</time></trkpt><trkpt lat="40.0585764" lon="9.5202493"><ele>299.0</ele><time>2026-04-22T09:58:24.673Z</time></trkpt><trkpt lat="40.0584508" lon="9.5203182"><ele>299.0</ele><time>2026-04-22T09:58:25.676Z</time></trkpt><trkpt lat="40.0583316" lon="9.5203874"><ele>299.0</ele><time>2026-04-22T09:58:26.675Z</time></trkpt><trkpt lat="40.0582107" lon="9.5204245"><ele>299.0</ele><time>2026-04-22T09:58:27.678Z</time></trkpt><trkpt lat="40.0580798" lon="9.5204817"><ele>295.25</ele><time>2026-04-22T09:58:28.674Z</time></trkpt><trkpt lat="40.0579459" lon="9.5205452"><ele>291.5</ele><time>2026-04-22T09:58:29.662Z</time></trkpt><trkpt lat="40.0578144" lon="9.52062"><ele>287.75</ele><time>2026-04-22T09:58:30.664Z</time></trkpt><trkpt lat="40.0576777" lon="9.5206714"><ele>284.0</ele><time>2026-04-22T09:58:31.669Z</time></trkpt><trkpt lat="40.0575505" lon="9.5207369"><ele>283.75</ele><time>2026-04-22T09:58:32.679Z</time></trkpt><trkpt lat="40.0574139" lon="9.5208155"><ele>283.5</ele><time>2026-04-22T09:58:33.673Z</time></trkpt><trkpt lat="40.0572809" lon="9.5208741"><ele>283.25</ele><time>2026-04-22T09:58:34.689Z</time></trkpt><trkpt lat="40.0571544" lon="9.5209464"><ele>283.0</ele><time>2026-04-22T09:58:35.676Z</time></trkpt><trkpt lat="40.0570247" lon="9.5210154"><ele>283.0</ele><time>2026-04-22T09:58:36.684Z</time></trkpt><trkpt lat="40.0569043" lon="9.5210703"><ele>283.0</ele><time>2026-04-22T09:58:37.677Z</time></trkpt><trkpt lat="40.0567806" lon="9.5211177"><ele>283.0</ele><time>2026-04-22T09:58:38.682Z</time></trkpt><trkpt lat="40.0566459" lon="9.5211683"><ele>283.0</ele><time>2026-04-22T09:58:39.68Z</time></trkpt><trkpt lat="40.056512" lon="9.5212383"><ele>281.0</ele><time>2026-04-22T09:58:40.679Z</time></trkpt><trkpt lat="40.0563755" lon="9.5212976"><ele>279.0</ele><time>2026-04-22T09:58:41.677Z</time></trkpt><trkpt lat="40.056248" lon="9.5213617"><ele>277.0</ele><time>2026-04-22T09:58:42.68Z</time></trkpt><trkpt lat="40.0561246" lon="9.5214108"><ele>275.0</ele><time>2026-04-22T09:58:43.687Z</time></trkpt><trkpt lat="40.0560058" lon="9.5214717"><ele>275.0</ele><time>2026-04-22T09:58:44.683Z</time></trkpt><trkpt lat="40.0558952" lon="9.5215408"><ele>275.0</ele><time>2026-04-22T09:58:45.685Z</time></trkpt><trkpt lat="40.0557797" lon="9.5215856"><ele>275.0</ele><time>2026-04-22T09:58:46.683Z</time></trkpt><trkpt lat="40.0556668" lon="9.5216436"><ele>275.0</ele><time>2026-04-22T09:58:47.679Z</time></trkpt><trkpt lat="40.0555658" lon="9.5216908"><ele>276.75</ele><time>2026-04-22T09:58:48.682Z</time></trkpt><trkpt lat="40.0554658" lon="9.521742"><ele>278.5</ele><time>2026-04-22T09:58:49.676Z</time></trkpt><trkpt lat="40.0553638" lon="9.5217985"><ele>280.25</ele><time>2026-04-22T09:58:50.677Z</time></trkpt><trkpt lat="40.0552469" lon="9.5218488"><ele>282.0</ele><time>2026-04-22T09:58:51.683Z</time></trkpt><trkpt lat="40.0551255" lon="9.5219078"><ele>282.0</ele><time>2026-04-22T09:58:52.695Z</time></trkpt><trkpt lat="40.0549986" lon="9.5219732"><ele>282.0</ele><time>2026-04-22T09:58:53.695Z</time></trkpt><trkpt lat="40.0548735" lon="9.5220395"><ele>282.0</ele><time>2026-04-22T09:58:54.692Z</time></trkpt><trkpt lat="40.0547471" lon="9.5220954"><ele>282.0</ele><time>2026-04-22T09:58:55.77Z</time></trkpt><trkpt lat="40.054624" lon="9.5221612"><ele>280.0</ele><time>2026-04-22T09:58:56.769Z</time></trkpt><trkpt lat="40.0545061" lon="9.5222271"><ele>278.0</ele><time>2026-04-22T09:58:57.77Z</time></trkpt><trkpt lat="40.0543913" lon="9.5222985"><ele>276.0</ele><time>2026-04-22T09:58:58.765Z</time></trkpt><trkpt lat="40.0542877" lon="9.5223906"><ele>274.0</ele><time>2026-04-22T09:58:59.764Z</time></trkpt><trkpt lat="40.05419" lon="9.5224882"><ele>274.25</ele><time>2026-04-22T09:59:00.77Z</time></trkpt><trkpt lat="40.0541002" lon="9.5225972"><ele>274.5</ele><time>2026-04-22T09:59:01.76Z</time></trkpt><trkpt lat="40.0540216" lon="9.5227167"><ele>274.75</ele><time>2026-04-22T09:59:02.753Z</time></trkpt><trkpt lat="40.0539539" lon="9.5228359"><ele>275.0</ele><time>2026-04-22T09:59:03.751Z</time></trkpt><trkpt lat="40.0538942" lon="9.5229534"><ele>275.0</ele><time>2026-04-22T09:59:04.757Z</time></trkpt><trkpt lat="40.0538384" lon="9.5230639"><ele>275.0</ele><time>2026-04-22T09:59:05.77Z</time></trkpt><trkpt lat="40.0537662" lon="9.523175"><ele>275.0</ele><time>2026-04-22T09:59:06.771Z</time></trkpt><trkpt lat="40.0536889" lon="9.5232872"><ele>275.0</ele><time>2026-04-22T09:59:07.772Z</time></trkpt><trkpt lat="40.0536023" lon="9.5233924"><ele>275.0</ele><time>2026-04-22T09:59:08.775Z</time></trkpt><trkpt lat="40.0535028" lon="9.5234856"><ele>275.0</ele><time>2026-04-22T09:59:09.768Z</time></trkpt><trkpt lat="40.0533907" lon="9.5235654"><ele>275.0</ele><time>2026-04-22T09:59:10.773Z</time></trkpt><trkpt lat="40.0532675" lon="9.5236335"><ele>275.0</ele><time>2026-04-22T09:59:11.757Z</time></trkpt><trkpt lat="40.053141" lon="9.523685"><ele>275.0</ele><time>2026-04-22T09:59:12.761Z</time></trkpt><trkpt lat="40.0530101" lon="9.5237254"><ele>274.75</ele><time>2026-04-22T09:59:13.758Z</time></trkpt><trkpt lat="40.0528784" lon="9.5237631"><ele>274.5</ele><time>2026-04-22T09:59:14.762Z</time></trkpt><trkpt lat="40.0527419" lon="9.5237975"><ele>274.25</ele><time>2026-04-22T09:59:15.783Z</time></trkpt><trkpt lat="40.0526071" lon="9.5238321"><ele>274.0</ele><time>2026-04-22T09:59:16.751Z</time></trkpt><trkpt lat="40.0524733" lon="9.5238698"><ele>271.25</ele><time>2026-04-22T09:59:17.781Z</time></trkpt><trkpt lat="40.0523398" lon="9.5239067"><ele>268.5</ele><time>2026-04-22T09:59:18.781Z</time></trkpt><trkpt lat="40.0522053" lon="9.5239436"><ele>265.75</ele><time>2026-04-22T09:59:19.776Z</time></trkpt><trkpt lat="40.0520703" lon="9.5239844"><ele>263.0</ele><time>2026-04-22T09:59:20.772Z</time></trkpt><trkpt lat="40.051932" lon="9.5240258"><ele>263.0</ele><time>2026-04-22T09:59:21.776Z</time></trkpt><trkpt lat="40.0517945" lon="9.5240656"><ele>263.0</ele><time>2026-04-22T09:59:22.772Z</time></trkpt><trkpt lat="40.0516586" lon="9.5241059"><ele>263.0</ele><time>2026-04-22T09:59:23.777Z</time></trkpt><trkpt lat="40.0515215" lon="9.5241459"><ele>263.0</ele><time>2026-04-22T09:59:24.775Z</time></trkpt><trkpt lat="40.0513855" lon="9.5241802"><ele>262.0</ele><time>2026-04-22T09:59:25.777Z</time></trkpt><trkpt lat="40.0512467" lon="9.5242203"><ele>261.0</ele><time>2026-04-22T09:59:26.772Z</time></trkpt><trkpt lat="40.0511079" lon="9.5242535"><ele>260.0</ele><time>2026-04-22T09:59:27.751Z</time></trkpt><trkpt lat="40.050971" lon="9.5242938"><ele>259.0</ele><time>2026-04-22T09:59:28.743Z</time></trkpt><trkpt lat="40.0508371" lon="9.5243335"><ele>259.5</ele><time>2026-04-22T09:59:29.763Z</time></trkpt><trkpt lat="40.0507028" lon="9.5243733"><ele>260.0</ele><time>2026-04-22T09:59:30.774Z</time></trkpt><trkpt lat="40.0505719" lon="9.5244024"><ele>260.5</ele><time>2026-04-22T09:59:31.766Z</time></trkpt><trkpt lat="40.0504471" lon="9.5244353"><ele>261.0</ele><time>2026-04-22T09:59:32.767Z</time></trkpt><trkpt lat="40.0503256" lon="9.5244719"><ele>261.0</ele><time>2026-04-22T09:59:33.768Z</time></trkpt><trkpt lat="40.0502014" lon="9.5245092"><ele>261.0</ele><time>2026-04-22T09:59:34.772Z</time></trkpt><trkpt lat="40.0500773" lon="9.5245483"><ele>261.0</ele><time>2026-04-22T09:59:35.776Z</time></trkpt><trkpt lat="40.0499551" lon="9.5245916"><ele>261.0</ele><time>2026-04-22T09:59:36.776Z</time></trkpt><trkpt lat="40.0498435" lon="9.5246329"><ele>260.0</ele><time>2026-04-22T09:59:37.782Z</time></trkpt><trkpt lat="40.0497264" lon="9.5246722"><ele>259.0</ele><time>2026-04-22T09:59:38.774Z</time></trkpt><trkpt lat="40.0496099" lon="9.5247102"><ele>258.0</ele><time>2026-04-22T09:59:39.77Z</time></trkpt><trkpt lat="40.0494995" lon="9.5247445"><ele>257.0</ele><time>2026-04-22T09:59:40.762Z</time></trkpt><trkpt lat="40.0493936" lon="9.5247796"><ele>257.0</ele><time>2026-04-22T09:59:41.744Z</time></trkpt><trkpt lat="40.0492916" lon="9.5248138"><ele>257.0</ele><time>2026-04-22T09:59:42.74Z</time></trkpt><trkpt lat="40.0491961" lon="9.5248418"><ele>257.0</ele><time>2026-04-22T09:59:43.756Z</time></trkpt><trkpt lat="40.0491132" lon="9.5248736"><ele>257.0</ele><time>2026-04-22T09:59:44.756Z</time></trkpt><trkpt lat="40.0490442" lon="9.5249007"><ele>257.0</ele><time>2026-04-22T09:59:45.736Z</time></trkpt><trkpt lat="40.0489654" lon="9.5249243"><ele>257.0</ele><time>2026-04-22T09:59:47.753Z</time></trkpt><trkpt lat="40.0489763" lon="9.5248366"><ele>256.8</ele><time>2026-04-22T10:01:05.65Z</time></trkpt><trkpt lat="40.0490198" lon="9.5247507"><ele>256.6</ele><time>2026-04-22T10:01:08.637Z</time></trkpt><trkpt lat="40.0490822" lon="9.5246374"><ele>256.40000000000003</ele><time>2026-04-22T10:01:10.644Z</time></trkpt><trkpt lat="40.0490904" lon="9.5245548"><ele>256.2</ele><time>2026-04-22T10:01:11.641Z</time></trkpt><trkpt lat="40.0490755" lon="9.5243827"><ele>256.0</ele><time>2026-04-22T10:01:13.649Z</time></trkpt><trkpt lat="40.0490644" lon="9.5242789"><ele>255.99999999999997</ele><time>2026-04-22T10:01:14.648Z</time></trkpt><trkpt lat="40.0490546" lon="9.5241931"><ele>256.0</ele><time>2026-04-22T10:01:15.645Z</time></trkpt><trkpt lat="40.0490554" lon="9.5240475"><ele>256.0</ele><time>2026-04-22T10:01:17.67Z</time></trkpt><trkpt lat="40.0490461" lon="9.5238851"><ele>256.0</ele><time>2026-04-22T10:01:19.652Z</time></trkpt><trkpt lat="40.0490381" lon="9.5237911"><ele>255.99999999999997</ele><time>2026-04-22T10:01:20.646Z</time></trkpt><trkpt lat="40.0490247" lon="9.5237055"><ele>256.0</ele><time>2026-04-22T10:01:21.655Z</time></trkpt><trkpt lat="40.0490025" lon="9.5236109"><ele>255.60000000000002</ele><time>2026-04-22T10:01:22.646Z</time></trkpt><trkpt lat="40.0489895" lon="9.5235191"><ele>255.20000000000002</ele><time>2026-04-22T10:01:23.646Z</time></trkpt><trkpt lat="40.0489674" lon="9.5233594"><ele>254.79999999999998</ele><time>2026-04-22T10:01:25.644Z</time></trkpt><trkpt lat="40.048966" lon="9.523213"><ele>254.39999999999998</ele><time>2026-04-22T10:01:27.651Z</time></trkpt><trkpt lat="40.0489693" lon="9.523105"><ele>254.0</ele><time>2026-04-22T10:01:29.652Z</time></trkpt><trkpt lat="40.0489817" lon="9.5230117"><ele>254.0</ele><time>2026-04-22T10:02:28.643Z</time></trkpt><trkpt lat="40.0489868" lon="9.522925"><ele>253.99999999999997</ele><time>2026-04-22T10:02:30.642Z</time></trkpt><trkpt lat="40.0490391" lon="9.5227594"><ele>253.99999999999997</ele><time>2026-04-22T10:02:32.642Z</time></trkpt><trkpt lat="40.0490915" lon="9.522648"><ele>254.0</ele><time>2026-04-22T10:02:33.648Z</time></trkpt><trkpt lat="40.0491576" lon="9.5225292"><ele>254.0</ele><time>2026-04-22T10:02:34.641Z</time></trkpt><trkpt lat="40.0491932" lon="9.5224189"><ele>256.1666666666667</ele><time>2026-04-22T10:02:35.647Z</time></trkpt><trkpt lat="40.0492159" lon="9.5223232"><ele>258.33333333333337</ele><time>2026-04-22T10:02:36.639Z</time></trkpt><trkpt lat="40.0492258" lon="9.5222195"><ele>260.5</ele><time>2026-04-22T10:02:37.646Z</time></trkpt><trkpt lat="40.0492272" lon="9.5221166"><ele>262.6666666666667</ele><time>2026-04-22T10:02:38.647Z</time></trkpt><trkpt lat="40.0492197" lon="9.5220074"><ele>264.8333333333333</ele><time>2026-04-22T10:02:39.642Z</time></trkpt><trkpt lat="40.0492038" lon="9.5219051"><ele>267.0</ele><time>2026-04-22T10:02:40.649Z</time></trkpt><trkpt lat="40.0491725" lon="9.5217979"><ele>267.8333333333333</ele><time>2026-04-22T10:02:41.644Z</time></trkpt><trkpt lat="40.0491341" lon="9.521687"><ele>268.6666666666667</ele><time>2026-04-22T10:02:42.67Z</time></trkpt><trkpt lat="40.0491075" lon="9.5215894"><ele>269.5</ele><time>2026-04-22T10:02:43.647Z</time></trkpt><trkpt lat="40.0490907" lon="9.5215078"><ele>270.33333333333337</ele><time>2026-04-22T10:02:44.645Z</time></trkpt><trkpt lat="40.0490868" lon="9.5213825"><ele>271.1666666666667</ele><time>2026-04-22T10:02:46.665Z</time></trkpt><trkpt lat="40.0491169" lon="9.5212378"><ele>272.0</ele><time>2026-04-22T10:02:48.668Z</time></trkpt><trkpt lat="40.0491428" lon="9.5211603"><ele>272.83333333333337</ele><time>2026-04-22T10:02:49.658Z</time></trkpt><trkpt lat="40.0491785" lon="9.5210825"><ele>273.6666666666667</ele><time>2026-04-22T10:02:50.655Z</time></trkpt><trkpt lat="40.0492101" lon="9.5209947"><ele>274.5</ele><time>2026-04-22T10:02:51.668Z</time></trkpt><trkpt lat="40.049246" lon="9.5208973"><ele>275.3333333333333</ele><time>2026-04-22T10:02:52.672Z</time></trkpt><trkpt lat="40.049288" lon="9.5208005"><ele>276.16666666666663</ele><time>2026-04-22T10:02:53.674Z</time></trkpt><trkpt lat="40.0493215" lon="9.5207012"><ele>277.0</ele><time>2026-04-22T10:02:54.667Z</time></trkpt><trkpt lat="40.0493595" lon="9.5205958"><ele>277.0</ele><time>2026-04-22T10:02:55.665Z</time></trkpt><trkpt lat="40.0494089" lon="9.5204913"><ele>277.0</ele><time>2026-04-22T10:02:56.673Z</time></trkpt><trkpt lat="40.0494524" lon="9.5203777"><ele>277.0</ele><time>2026-04-22T10:02:57.666Z</time></trkpt><trkpt lat="40.0494863" lon="9.5202534"><ele>277.0</ele><time>2026-04-22T10:02:58.666Z</time></trkpt><trkpt lat="40.0495073" lon="9.5201168"><ele>277.0</ele><time>2026-04-22T10:02:59.67Z</time></trkpt><trkpt lat="40.0495388" lon="9.5199925"><ele>277.2</ele><time>2026-04-22T10:03:00.736Z</time></trkpt><trkpt lat="40.0495819" lon="9.5198718"><ele>277.4</ele><time>2026-04-22T10:03:01.741Z</time></trkpt><trkpt lat="40.0496303" lon="9.5197632"><ele>277.6</ele><time>2026-04-22T10:03:02.765Z</time></trkpt><trkpt lat="40.0496871" lon="9.5196589"><ele>277.8</ele><time>2026-04-22T10:03:03.749Z</time></trkpt><trkpt lat="40.0497505" lon="9.5195586"><ele>278.0</ele><time>2026-04-22T10:03:04.734Z</time></trkpt><trkpt lat="40.0498182" lon="9.5194641"><ele>278.0</ele><time>2026-04-22T10:03:05.72Z</time></trkpt><trkpt lat="40.0498804" lon="9.5193721"><ele>278.0</ele><time>2026-04-22T10:03:06.757Z</time></trkpt><trkpt lat="40.0499422" lon="9.5192782"><ele>278.0</ele><time>2026-04-22T10:03:07.738Z</time></trkpt><trkpt lat="40.0500023" lon="9.5191814"><ele>278.0</ele><time>2026-04-22T10:03:08.742Z</time></trkpt><trkpt lat="40.050066" lon="9.5190853"><ele>278.0</ele><time>2026-04-22T10:03:09.741Z</time></trkpt><trkpt lat="40.0501245" lon="9.5189917"><ele>280.2</ele><time>2026-04-22T10:03:10.743Z</time></trkpt><trkpt lat="40.0501828" lon="9.5188951"><ele>282.4</ele><time>2026-04-22T10:03:11.744Z</time></trkpt><trkpt lat="40.0502413" lon="9.5187982"><ele>284.59999999999997</ele><time>2026-04-22T10:03:12.741Z</time></trkpt><trkpt lat="40.0502906" lon="9.5186667"><ele>286.8</ele><time>2026-04-22T10:03:13.736Z</time></trkpt><trkpt lat="40.0503472" lon="9.51857"><ele>289.0</ele><time>2026-04-22T10:03:14.744Z</time></trkpt><trkpt lat="40.0504073" lon="9.5184744"><ele>289.0</ele><time>2026-04-22T10:03:15.739Z</time></trkpt><trkpt lat="40.0504676" lon="9.518384"><ele>289.0</ele><time>2026-04-22T10:03:16.765Z</time></trkpt><trkpt lat="40.0505301" lon="9.5182997"><ele>289.0</ele><time>2026-04-22T10:03:17.744Z</time></trkpt><trkpt lat="40.0505995" lon="9.5182214"><ele>289.0</ele><time>2026-04-22T10:03:18.763Z</time></trkpt><trkpt lat="40.0506663" lon="9.518141"><ele>289.0</ele><time>2026-04-22T10:03:19.738Z</time></trkpt><trkpt lat="40.0507336" lon="9.5180656"><ele>292.5</ele><time>2026-04-22T10:03:20.763Z</time></trkpt><trkpt lat="40.0507993" lon="9.5179892"><ele>296.0</ele><time>2026-04-22T10:03:21.764Z</time></trkpt><trkpt lat="40.0509582" lon="9.5178243"><ele>299.5</ele><time>2026-04-22T10:03:23.679Z</time></trkpt><trkpt lat="40.0510421" lon="9.5177758"><ele>303.0</ele><time>2026-04-22T10:03:24.642Z</time></trkpt><trkpt lat="40.0511368" lon="9.517728"><ele>303.0</ele><time>2026-04-22T10:03:25.648Z</time></trkpt><trkpt lat="40.0512195" lon="9.5176872"><ele>303.0</ele><time>2026-04-22T10:03:26.648Z</time></trkpt><trkpt lat="40.0512886" lon="9.5176265"><ele>303.0</ele><time>2026-04-22T10:03:27.673Z</time></trkpt><trkpt lat="40.0513549" lon="9.5175542"><ele>303.0</ele><time>2026-04-22T10:03:28.663Z</time></trkpt><trkpt lat="40.0514199" lon="9.5174775"><ele>303.0</ele><time>2026-04-22T10:03:29.664Z</time></trkpt><trkpt lat="40.0514956" lon="9.5174064"><ele>303.0</ele><time>2026-04-22T10:03:30.677Z</time></trkpt><trkpt lat="40.0515825" lon="9.5173596"><ele>305.8333333333333</ele><time>2026-04-22T10:03:31.674Z</time></trkpt><trkpt lat="40.0516575" lon="9.5173126"><ele>308.6666666666667</ele><time>2026-04-22T10:03:32.646Z</time></trkpt><trkpt lat="40.0517327" lon="9.5172752"><ele>311.5</ele><time>2026-04-22T10:03:33.671Z</time></trkpt><trkpt lat="40.051811" lon="9.5172584"><ele>314.33333333333337</ele><time>2026-04-22T10:03:34.674Z</time></trkpt><trkpt lat="40.0518813" lon="9.5172303"><ele>317.1666666666667</ele><time>2026-04-22T10:03:35.673Z</time></trkpt><trkpt lat="40.0519493" lon="9.5172001"><ele>320.0</ele><time>2026-04-22T10:03:36.671Z</time></trkpt><trkpt lat="40.0520212" lon="9.5171756"><ele>320.0</ele><time>2026-04-22T10:03:37.669Z</time></trkpt><trkpt lat="40.0520847" lon="9.5171457"><ele>320.0</ele><time>2026-04-22T10:03:38.649Z</time></trkpt><trkpt lat="40.0521518" lon="9.5171326"><ele>320.0</ele><time>2026-04-22T10:03:39.648Z</time></trkpt><trkpt lat="40.052264" lon="9.5170778"><ele>320.0</ele><time>2026-04-22T10:03:41.652Z</time></trkpt><trkpt lat="40.0523388" lon="9.51695"><ele>320.0</ele><time>2026-04-22T10:03:43.66Z</time></trkpt><trkpt lat="40.0523754" lon="9.5168529"><ele>320.4</ele><time>2026-04-22T10:03:44.641Z</time></trkpt><trkpt lat="40.0524093" lon="9.5167394"><ele>320.8</ele><time>2026-04-22T10:03:45.648Z</time></trkpt><trkpt lat="40.0524384" lon="9.5166252"><ele>321.20000000000005</ele><time>2026-04-22T10:03:46.645Z</time></trkpt><trkpt lat="40.0524683" lon="9.5165098"><ele>321.6</ele><time>2026-04-22T10:03:47.656Z</time></trkpt><trkpt lat="40.0525038" lon="9.5163896"><ele>322.0</ele><time>2026-04-22T10:03:48.656Z</time></trkpt><trkpt lat="40.0525336" lon="9.5162778"><ele>321.6</ele><time>2026-04-22T10:03:49.659Z</time></trkpt><trkpt lat="40.0525712" lon="9.5161771"><ele>321.20000000000005</ele><time>2026-04-22T10:03:50.659Z</time></trkpt><trkpt lat="40.0526168" lon="9.5160918"><ele>320.8</ele><time>2026-04-22T10:03:51.651Z</time></trkpt><trkpt lat="40.0526848" lon="9.5160101"><ele>320.4</ele><time>2026-04-22T10:03:52.681Z</time></trkpt><trkpt lat="40.0527621" lon="9.5159273"><ele>320.0</ele><time>2026-04-22T10:03:53.678Z</time></trkpt><trkpt lat="40.0528346" lon="9.51585"><ele>320.0</ele><time>2026-04-22T10:03:54.679Z</time></trkpt><trkpt lat="40.0529033" lon="9.5157659"><ele>320.0</ele><time>2026-04-22T10:03:55.68Z</time></trkpt><trkpt lat="40.0529761" lon="9.5157114"><ele>320.0</ele><time>2026-04-22T10:03:56.664Z</time></trkpt><trkpt lat="40.0530577" lon="9.5156573"><ele>320.0</ele><time>2026-04-22T10:03:57.666Z</time></trkpt><trkpt lat="40.0531325" lon="9.515599"><ele>320.0</ele><time>2026-04-22T10:03:58.652Z</time></trkpt><trkpt lat="40.0532064" lon="9.5155365"><ele>320.0</ele><time>2026-04-22T10:03:59.653Z</time></trkpt><trkpt lat="40.053278" lon="9.5154727"><ele>321.5</ele><time>2026-04-22T10:04:00.673Z</time></trkpt><trkpt lat="40.053329" lon="9.5154071"><ele>323.0</ele><time>2026-04-22T10:04:01.675Z</time></trkpt><trkpt lat="40.0534054" lon="9.5153015"><ele>324.5</ele><time>2026-04-22T10:04:03.676Z</time></trkpt><trkpt lat="40.0534427" lon="9.5152042"><ele>326.0</ele><time>2026-04-22T10:04:06.679Z</time></trkpt><trkpt lat="40.0534844" lon="9.5150793"><ele>327.5</ele><time>2026-04-22T10:04:08.654Z</time></trkpt><trkpt lat="40.0535203" lon="9.5149976"><ele>329.0</ele><time>2026-04-22T10:04:09.679Z</time></trkpt><trkpt lat="40.0535605" lon="9.5149125"><ele>329.0</ele><time>2026-04-22T10:04:10.677Z</time></trkpt><trkpt lat="40.0535995" lon="9.514838"><ele>329.0</ele><time>2026-04-22T10:04:11.654Z</time></trkpt><trkpt lat="40.0536418" lon="9.5147288"><ele>329.0</ele><time>2026-04-22T10:04:13.683Z</time></trkpt><trkpt lat="40.0536792" lon="9.5146205"><ele>329.0</ele><time>2026-04-22T10:04:15.656Z</time></trkpt><trkpt lat="40.0537323" lon="9.5145333"><ele>329.0</ele><time>2026-04-22T10:04:18.659Z</time></trkpt><trkpt lat="40.0537797" lon="9.5144558"><ele>329.0</ele><time>2026-04-22T10:04:23.659Z</time></trkpt><trkpt lat="40.0538086" lon="9.514364"><ele>329.5</ele><time>2026-04-22T10:04:29.652Z</time></trkpt><trkpt lat="40.0538391" lon="9.5142863"><ele>330.0</ele><time>2026-04-22T10:04:31.647Z</time></trkpt><trkpt lat="40.0538711" lon="9.5142055"><ele>330.5</ele><time>2026-04-22T10:04:32.649Z</time></trkpt><trkpt lat="40.0539116" lon="9.514126"><ele>331.0</ele><time>2026-04-22T10:04:33.648Z</time></trkpt><trkpt lat="40.0539787" lon="9.5140595"><ele>331.5</ele><time>2026-04-22T10:04:34.656Z</time></trkpt><trkpt lat="40.0540418" lon="9.513998"><ele>332.0</ele><time>2026-04-22T10:04:35.647Z</time></trkpt><trkpt lat="40.0541069" lon="9.5139388"><ele>334.0</ele><time>2026-04-22T10:04:36.654Z</time></trkpt><trkpt lat="40.0541744" lon="9.5138827"><ele>336.0</ele><time>2026-04-22T10:04:37.652Z</time></trkpt><trkpt lat="40.0542525" lon="9.5138227"><ele>338.0</ele><time>2026-04-22T10:04:38.654Z</time></trkpt><trkpt lat="40.0543285" lon="9.5137831"><ele>340.0</ele><time>2026-04-22T10:04:39.646Z</time></trkpt><trkpt lat="40.0543965" lon="9.5137563"><ele>342.0</ele><time>2026-04-22T10:04:40.646Z</time></trkpt><trkpt lat="40.0545097" lon="9.5137237"><ele>344.0</ele><time>2026-04-22T10:04:42.641Z</time></trkpt><trkpt lat="40.0545722" lon="9.5136914"><ele>344.5</ele><time>2026-04-22T10:04:43.64Z</time></trkpt><trkpt lat="40.0546293" lon="9.5136398"><ele>345.0</ele><time>2026-04-22T10:04:44.635Z</time></trkpt><trkpt lat="40.05468" lon="9.5135656"><ele>345.5</ele><time>2026-04-22T10:04:45.64Z</time></trkpt><trkpt lat="40.0547231" lon="9.5134685"><ele>346.0</ele><time>2026-04-22T10:04:46.634Z</time></trkpt><trkpt lat="40.0547575" lon="9.5133796"><ele>346.5</ele><time>2026-04-22T10:04:47.632Z</time></trkpt><trkpt lat="40.0547811" lon="9.5132254"><ele>347.0</ele><time>2026-04-22T10:04:49.634Z</time></trkpt><trkpt lat="40.0547648" lon="9.5130869"><ele>347.0</ele><time>2026-04-22T10:04:51.635Z</time></trkpt><trkpt lat="40.0547312" lon="9.5130144"><ele>347.0</ele><time>2026-04-22T10:04:52.635Z</time></trkpt><trkpt lat="40.0546839" lon="9.5129337"><ele>347.0</ele><time>2026-04-22T10:04:53.636Z</time></trkpt><trkpt lat="40.0546149" lon="9.5128392"><ele>347.0</ele><time>2026-04-22T10:04:54.637Z</time></trkpt><trkpt lat="40.0545499" lon="9.512744"><ele>347.0</ele><time>2026-04-22T10:04:55.638Z</time></trkpt><trkpt lat="40.0544875" lon="9.5126491"><ele>347.0</ele><time>2026-04-22T10:04:56.644Z</time></trkpt><trkpt lat="40.0544366" lon="9.5125622"><ele>348.83333333333337</ele><time>2026-04-22T10:04:57.636Z</time></trkpt><trkpt lat="40.0543918" lon="9.5124918"><ele>350.6666666666667</ele><time>2026-04-22T10:04:58.647Z</time></trkpt><trkpt lat="40.0543402" lon="9.512437"><ele>352.5</ele><time>2026-04-22T10:04:59.651Z</time></trkpt><trkpt lat="40.0542622" lon="9.5123297"><ele>354.3333333333333</ele><time>2026-04-22T10:05:01.641Z</time></trkpt><trkpt lat="40.0542489" lon="9.5121813"><ele>356.16666666666663</ele><time>2026-04-22T10:05:03.632Z</time></trkpt><trkpt lat="40.0542641" lon="9.512076"><ele>358.0</ele><time>2026-04-22T10:05:04.64Z</time></trkpt><trkpt lat="40.0542971" lon="9.5119546"><ele>358.59999999999997</ele><time>2026-04-22T10:05:05.639Z</time></trkpt><trkpt lat="40.0543445" lon="9.5118153"><ele>359.2</ele><time>2026-04-22T10:05:06.646Z</time></trkpt><trkpt lat="40.0543938" lon="9.51168"><ele>359.8</ele><time>2026-04-22T10:05:07.637Z</time></trkpt><trkpt lat="40.054437" lon="9.5115602"><ele>360.4</ele><time>2026-04-22T10:05:08.635Z</time></trkpt><trkpt lat="40.0544683" lon="9.5114467"><ele>361.0</ele><time>2026-04-22T10:05:09.636Z</time></trkpt><trkpt lat="40.0544904" lon="9.5113413"><ele>361.0</ele><time>2026-04-22T10:05:10.636Z</time></trkpt><trkpt lat="40.0545227" lon="9.5112473"><ele>361.0</ele><time>2026-04-22T10:05:11.635Z</time></trkpt><trkpt lat="40.0545564" lon="9.5111539"><ele>361.0</ele><time>2026-04-22T10:05:12.637Z</time></trkpt><trkpt lat="40.0545862" lon="9.511067"><ele>361.0</ele><time>2026-04-22T10:05:13.633Z</time></trkpt><trkpt lat="40.0546208" lon="9.5109948"><ele>361.0</ele><time>2026-04-22T10:05:14.634Z</time></trkpt><trkpt lat="40.0546827" lon="9.5108723"><ele>361.0</ele><time>2026-04-22T10:05:16.625Z</time></trkpt><trkpt lat="40.0546787" lon="9.5107341"><ele>361.20000000000005</ele><time>2026-04-22T10:05:18.625Z</time></trkpt><trkpt lat="40.0546158" lon="9.5105962"><ele>361.40000000000003</ele><time>2026-04-22T10:05:20.66Z</time></trkpt><trkpt lat="40.0545804" lon="9.5105029"><ele>361.6</ele><time>2026-04-22T10:05:21.638Z</time></trkpt><trkpt lat="40.0545518" lon="9.5103936"><ele>361.8</ele><time>2026-04-22T10:05:22.635Z</time></trkpt><trkpt lat="40.0545345" lon="9.510257"><ele>362.0</ele><time>2026-04-22T10:05:23.627Z</time></trkpt><trkpt lat="40.0545227" lon="9.5101164"><ele>362.8</ele><time>2026-04-22T10:05:24.651Z</time></trkpt><trkpt lat="40.0545105" lon="9.5099778"><ele>363.6</ele><time>2026-04-22T10:05:25.643Z</time></trkpt><trkpt lat="40.0544975" lon="9.5098419"><ele>364.40000000000003</ele><time>2026-04-22T10:05:26.641Z</time></trkpt><trkpt lat="40.0544836" lon="9.5097148"><ele>365.20000000000005</ele><time>2026-04-22T10:05:27.67Z</time></trkpt><trkpt lat="40.0544639" lon="9.5096057"><ele>366.0</ele><time>2026-04-22T10:05:28.668Z</time></trkpt><trkpt lat="40.0544399" lon="9.5094969"><ele>367.0</ele><time>2026-04-22T10:05:29.681Z</time></trkpt><trkpt lat="40.0544164" lon="9.5093851"><ele>368.0</ele><time>2026-04-22T10:05:30.667Z</time></trkpt><trkpt lat="40.0543987" lon="9.5092609"><ele>369.0</ele><time>2026-04-22T10:05:31.649Z</time></trkpt><trkpt lat="40.0543883" lon="9.5091279"><ele>370.0</ele><time>2026-04-22T10:05:32.643Z</time></trkpt><trkpt lat="40.0543862" lon="9.5089958"><ele>371.0</ele><time>2026-04-22T10:05:33.638Z</time></trkpt><trkpt lat="40.0543889" lon="9.508861"><ele>372.4</ele><time>2026-04-22T10:05:34.645Z</time></trkpt><trkpt lat="40.0543934" lon="9.5087411"><ele>373.8</ele><time>2026-04-22T10:05:35.641Z</time></trkpt><trkpt lat="40.0543998" lon="9.5086219"><ele>375.2</ele><time>2026-04-22T10:05:36.644Z</time></trkpt><trkpt lat="40.0544159" lon="9.5084971"><ele>376.59999999999997</ele><time>2026-04-22T10:05:37.639Z</time></trkpt><trkpt lat="40.0544467" lon="9.5083819"><ele>378.0</ele><time>2026-04-22T10:05:38.646Z</time></trkpt><trkpt lat="40.0544804" lon="9.5082665"><ele>378.0</ele><time>2026-04-22T10:05:39.643Z</time></trkpt><trkpt lat="40.0545054" lon="9.5081675"><ele>378.0</ele><time>2026-04-22T10:05:40.637Z</time></trkpt><trkpt lat="40.054516" lon="9.5080164"><ele>378.0</ele><time>2026-04-22T10:05:42.642Z</time></trkpt><trkpt lat="40.0544891" lon="9.5078753"><ele>378.0</ele><time>2026-04-22T10:05:44.649Z</time></trkpt><trkpt lat="40.0544848" lon="9.5077883"><ele>378.0</ele><time>2026-04-22T10:05:45.651Z</time></trkpt><trkpt lat="40.0544933" lon="9.5076936"><ele>378.0</ele><time>2026-04-22T10:05:46.643Z</time></trkpt><trkpt lat="40.0544989" lon="9.5076087"><ele>379.79999999999995</ele><time>2026-04-22T10:05:47.636Z</time></trkpt><trkpt lat="40.0544831" lon="9.5074684"><ele>381.6</ele><time>2026-04-22T10:05:49.639Z</time></trkpt><trkpt lat="40.0543994" lon="9.5073657"><ele>383.4</ele><time>2026-04-22T10:05:51.633Z</time></trkpt><trkpt lat="40.0542817" lon="9.5073562"><ele>385.20000000000005</ele><time>2026-04-22T10:05:53.638Z</time></trkpt><trkpt lat="40.0542176" lon="9.5074096"><ele>387.0</ele><time>2026-04-22T10:05:54.634Z</time></trkpt><trkpt lat="40.0541549" lon="9.5074742"><ele>389.8333333333333</ele><time>2026-04-22T10:05:55.655Z</time></trkpt><trkpt lat="40.0540836" lon="9.5075374"><ele>392.66666666666663</ele><time>2026-04-22T10:05:56.657Z</time></trkpt><trkpt lat="40.0540154" lon="9.5075771"><ele>395.5</ele><time>2026-04-22T10:05:57.633Z</time></trkpt><trkpt lat="40.0539515" lon="9.5075909"><ele>398.3333333333333</ele><time>2026-04-22T10:05:58.661Z</time></trkpt><trkpt lat="40.053886" lon="9.5075771"><ele>401.16666666666663</ele><time>2026-04-22T10:05:59.654Z</time></trkpt><trkpt lat="40.0538361" lon="9.5074439"><ele>404.0</ele><time>2026-04-22T10:06:01.644Z</time></trkpt><trkpt lat="40.0538483" lon="9.5073486"><ele>404.0</ele><time>2026-04-22T10:06:02.639Z</time></trkpt><trkpt lat="40.053878" lon="9.5072378"><ele>404.0</ele><time>2026-04-22T10:06:03.639Z</time></trkpt><trkpt lat="40.0539108" lon="9.50712"><ele>404.0</ele><time>2026-04-22T10:06:04.642Z</time></trkpt><trkpt lat="40.0539516" lon="9.5070011"><ele>404.0</ele><time>2026-04-22T10:06:05.644Z</time></trkpt><trkpt lat="40.0539818" lon="9.5068911"><ele>404.0</ele><time>2026-04-22T10:06:06.644Z</time></trkpt><trkpt lat="40.0540102" lon="9.5067831"><ele>403.3333333333333</ele><time>2026-04-22T10:06:07.645Z</time></trkpt><trkpt lat="40.0540377" lon="9.5066748"><ele>402.66666666666663</ele><time>2026-04-22T10:06:08.646Z</time></trkpt><trkpt lat="40.0540658" lon="9.5065669"><ele>402.0</ele><time>2026-04-22T10:06:09.639Z</time></trkpt><trkpt lat="40.0541136" lon="9.5064719"><ele>401.33333333333337</ele><time>2026-04-22T10:06:10.645Z</time></trkpt><trkpt lat="40.0541618" lon="9.5063929"><ele>400.6666666666667</ele><time>2026-04-22T10:06:11.656Z</time></trkpt><trkpt lat="40.05421" lon="9.506331"><ele>400.0</ele><time>2026-04-22T10:06:12.657Z</time></trkpt><trkpt lat="40.0542363" lon="9.5062535"><ele>402.00000000000006</ele><time>2026-04-22T10:06:13.638Z</time></trkpt><trkpt lat="40.0542475" lon="9.5061609"><ele>404.0</ele><time>2026-04-22T10:06:14.642Z</time></trkpt><trkpt lat="40.0542581" lon="9.5060519"><ele>406.0</ele><time>2026-04-22T10:06:15.642Z</time></trkpt><trkpt lat="40.0542831" lon="9.5059408"><ele>408.0</ele><time>2026-04-22T10:06:16.663Z</time></trkpt><trkpt lat="40.0543163" lon="9.5058361"><ele>410.00000000000006</ele><time>2026-04-22T10:06:17.663Z</time></trkpt><trkpt lat="40.0543572" lon="9.5057426"><ele>412.0</ele><time>2026-04-22T10:06:18.661Z</time></trkpt><trkpt lat="40.0544244" lon="9.5056456"><ele>412.0</ele><time>2026-04-22T10:06:19.644Z</time></trkpt><trkpt lat="40.0544974" lon="9.5055536"><ele>412.0</ele><time>2026-04-22T10:06:20.667Z</time></trkpt><trkpt lat="40.0545688" lon="9.5054671"><ele>412.0</ele><time>2026-04-22T10:06:21.666Z</time></trkpt><trkpt lat="40.0546285" lon="9.5053898"><ele>412.0</ele><time>2026-04-22T10:06:22.668Z</time></trkpt><trkpt lat="40.0546744" lon="9.5053273"><ele>412.0</ele><time>2026-04-22T10:06:23.668Z</time></trkpt><trkpt lat="40.054729" lon="9.5051997"><ele>414.6666666666667</ele><time>2026-04-22T10:06:25.661Z</time></trkpt><trkpt lat="40.0547152" lon="9.5050768"><ele>417.33333333333337</ele><time>2026-04-22T10:06:27.632Z</time></trkpt><trkpt lat="40.0546606" lon="9.5050087"><ele>420.0</ele><time>2026-04-22T10:06:29.67Z</time></trkpt><trkpt lat="40.0545667" lon="9.5050131"><ele>422.66666666666663</ele><time>2026-04-22T10:06:31.67Z</time></trkpt><trkpt lat="40.0545098" lon="9.505077"><ele>425.3333333333333</ele><time>2026-04-22T10:06:32.636Z</time></trkpt><trkpt lat="40.0544528" lon="9.5051362"><ele>428.0</ele><time>2026-04-22T10:06:33.638Z</time></trkpt><trkpt lat="40.0543858" lon="9.5051703"><ele>427.99999999999994</ele><time>2026-04-22T10:06:34.634Z</time></trkpt><trkpt lat="40.0543108" lon="9.5051738"><ele>428.0</ele><time>2026-04-22T10:06:35.658Z</time></trkpt><trkpt lat="40.0542366" lon="9.505138"><ele>428.0</ele><time>2026-04-22T10:06:36.63Z</time></trkpt><trkpt lat="40.0541621" lon="9.5050901"><ele>428.0</ele><time>2026-04-22T10:06:37.639Z</time></trkpt><trkpt lat="40.0540916" lon="9.5050663"><ele>427.99999999999994</ele><time>2026-04-22T10:06:38.641Z</time></trkpt><trkpt lat="40.0540087" lon="9.5050613"><ele>428.0</ele><time>2026-04-22T10:06:39.64Z</time></trkpt><trkpt lat="40.0539091" lon="9.5050934"><ele>431.16666666666663</ele><time>2026-04-22T10:06:40.642Z</time></trkpt><trkpt lat="40.0538191" lon="9.5051088"><ele>434.3333333333333</ele><time>2026-04-22T10:06:41.642Z</time></trkpt><trkpt lat="40.0537305" lon="9.5051193"><ele>437.5</ele><time>2026-04-22T10:06:42.64Z</time></trkpt><trkpt lat="40.0536402" lon="9.5051162"><ele>440.66666666666663</ele><time>2026-04-22T10:06:43.638Z</time></trkpt><trkpt lat="40.0535656" lon="9.505133"><ele>443.8333333333333</ele><time>2026-04-22T10:06:44.629Z</time></trkpt><trkpt lat="40.0534985" lon="9.5051741"><ele>447.0</ele><time>2026-04-22T10:06:45.623Z</time></trkpt><trkpt lat="40.0534358" lon="9.5052752"><ele>444.20000000000005</ele><time>2026-04-22T10:06:47.644Z</time></trkpt><trkpt lat="40.0534365" lon="9.5054341"><ele>441.40000000000003</ele><time>2026-04-22T10:06:49.65Z</time></trkpt><trkpt lat="40.0534611" lon="9.5055508"><ele>438.59999999999997</ele><time>2026-04-22T10:06:50.627Z</time></trkpt><trkpt lat="40.0534408" lon="9.5056648"><ele>435.79999999999995</ele><time>2026-04-22T10:06:51.641Z</time></trkpt><trkpt lat="40.0534016" lon="9.5057851"><ele>433.0</ele><time>2026-04-22T10:06:52.642Z</time></trkpt><trkpt lat="40.0533642" lon="9.5058916"><ele>433.00000000000006</ele><time>2026-04-22T10:06:53.656Z</time></trkpt><trkpt lat="40.0533214" lon="9.5059806"><ele>433.0</ele><time>2026-04-22T10:06:54.632Z</time></trkpt><trkpt lat="40.0532541" lon="9.5060653"><ele>433.0</ele><time>2026-04-22T10:06:55.633Z</time></trkpt><trkpt lat="40.0531763" lon="9.5061354"><ele>433.0</ele><time>2026-04-22T10:06:56.628Z</time></trkpt><trkpt lat="40.0531002" lon="9.5061776"><ele>433.00000000000006</ele><time>2026-04-22T10:06:57.631Z</time></trkpt><trkpt lat="40.0530217" lon="9.5061965"><ele>433.0</ele><time>2026-04-22T10:06:58.634Z</time></trkpt><trkpt lat="40.0529225" lon="9.5061885"><ele>435.6666666666667</ele><time>2026-04-22T10:06:59.634Z</time></trkpt><trkpt lat="40.0528218" lon="9.5061676"><ele>438.33333333333337</ele><time>2026-04-22T10:07:00.644Z</time></trkpt><trkpt lat="40.05273" lon="9.5061681"><ele>441.0</ele><time>2026-04-22T10:07:01.635Z</time></trkpt><trkpt lat="40.0526494" lon="9.5061968"><ele>443.66666666666663</ele><time>2026-04-22T10:07:02.64Z</time></trkpt><trkpt lat="40.0525842" lon="9.5062367"><ele>446.3333333333333</ele><time>2026-04-22T10:07:03.63Z</time></trkpt><trkpt lat="40.0525294" lon="9.5062788"><ele>449.0</ele><time>2026-04-22T10:07:04.628Z</time></trkpt><trkpt lat="40.052462" lon="9.5063893"><ele>455.16666666666663</ele><time>2026-04-22T10:07:06.645Z</time></trkpt><trkpt lat="40.0524283" lon="9.5064682"><ele>461.3333333333333</ele><time>2026-04-22T10:07:07.648Z</time></trkpt><trkpt lat="40.0523913" lon="9.5065707"><ele>467.5</ele><time>2026-04-22T10:07:08.642Z</time></trkpt><trkpt lat="40.0523481" lon="9.5066776"><ele>473.66666666666663</ele><time>2026-04-22T10:07:09.646Z</time></trkpt><trkpt lat="40.0523203" lon="9.506794"><ele>479.8333333333333</ele><time>2026-04-22T10:07:10.643Z</time></trkpt><trkpt lat="40.0522904" lon="9.5069067"><ele>486.0</ele><time>2026-04-22T10:07:11.646Z</time></trkpt><trkpt lat="40.0522466" lon="9.5070036"><ele>483.1666666666667</ele><time>2026-04-22T10:07:12.622Z</time></trkpt><trkpt lat="40.0521933" lon="9.5070842"><ele>480.33333333333337</ele><time>2026-04-22T10:07:13.648Z</time></trkpt><trkpt lat="40.0521226" lon="9.5071393"><ele>477.5</ele><time>2026-04-22T10:07:14.655Z</time></trkpt><trkpt lat="40.0520327" lon="9.5071677"><ele>474.6666666666667</ele><time>2026-04-22T10:07:15.632Z</time></trkpt><trkpt lat="40.0519394" lon="9.5071662"><ele>471.83333333333337</ele><time>2026-04-22T10:07:16.634Z</time></trkpt><trkpt lat="40.0518608" lon="9.5071863"><ele>469.0</ele><time>2026-04-22T10:07:17.631Z</time></trkpt><trkpt lat="40.0517983" lon="9.5072366"><ele>469.00000000000006</ele><time>2026-04-22T10:07:18.635Z</time></trkpt><trkpt lat="40.0517318" lon="9.5073106"><ele>469.0</ele><time>2026-04-22T10:07:19.633Z</time></trkpt><trkpt lat="40.0516806" lon="9.5073897"><ele>469.0</ele><time>2026-04-22T10:07:20.648Z</time></trkpt><trkpt lat="40.0516493" lon="9.5074922"><ele>469.0</ele><time>2026-04-22T10:07:21.655Z</time></trkpt><trkpt lat="40.0516279" lon="9.5076038"><ele>469.00000000000006</ele><time>2026-04-22T10:07:22.659Z</time></trkpt><trkpt lat="40.0516016" lon="9.5077165"><ele>469.0</ele><time>2026-04-22T10:07:23.655Z</time></trkpt><trkpt lat="40.0515684" lon="9.50782"><ele>469.50000000000006</ele><time>2026-04-22T10:07:24.65Z</time></trkpt><trkpt lat="40.051554" lon="9.5079362"><ele>470.0</ele><time>2026-04-22T10:07:25.645Z</time></trkpt><trkpt lat="40.0515556" lon="9.5080545"><ele>470.5</ele><time>2026-04-22T10:07:26.645Z</time></trkpt><trkpt lat="40.0515617" lon="9.5081635"><ele>471.0</ele><time>2026-04-22T10:07:27.657Z</time></trkpt><trkpt lat="40.051575" lon="9.5082803"><ele>471.50000000000006</ele><time>2026-04-22T10:07:28.654Z</time></trkpt><trkpt lat="40.0515885" lon="9.5083965"><ele>472.0</ele><time>2026-04-22T10:07:29.656Z</time></trkpt><trkpt lat="40.0515849" lon="9.5084874"><ele>472.00000000000006</ele><time>2026-04-22T10:07:30.649Z</time></trkpt><trkpt lat="40.0515606" lon="9.5085858"><ele>472.0</ele><time>2026-04-22T10:07:31.66Z</time></trkpt><trkpt lat="40.0515169" lon="9.5086708"><ele>472.0</ele><time>2026-04-22T10:07:32.657Z</time></trkpt><trkpt lat="40.0514451" lon="9.5087321"><ele>472.0</ele><time>2026-04-22T10:07:33.654Z</time></trkpt><trkpt lat="40.0513542" lon="9.5087511"><ele>472.00000000000006</ele><time>2026-04-22T10:07:34.633Z</time></trkpt><trkpt lat="40.0512527" lon="9.5087388"><ele>472.0</ele><time>2026-04-22T10:07:35.635Z</time></trkpt><trkpt lat="40.0511684" lon="9.5087067"><ele>472.0</ele><time>2026-04-22T10:07:36.635Z</time></trkpt><trkpt lat="40.0511055" lon="9.5086493"><ele>472.00000000000006</ele><time>2026-04-22T10:07:37.64Z</time></trkpt><trkpt lat="40.0510911" lon="9.5084867"><ele>472.00000000000006</ele><time>2026-04-22T10:07:39.631Z</time></trkpt><trkpt lat="40.0511246" lon="9.5083686"><ele>472.0</ele><time>2026-04-22T10:07:40.649Z</time></trkpt><trkpt lat="40.0511522" lon="9.5082408"><ele>472.0</ele><time>2026-04-22T10:07:41.635Z</time></trkpt><trkpt lat="40.0511451" lon="9.5081136"><ele>472.0</ele><time>2026-04-22T10:07:42.636Z</time></trkpt><trkpt lat="40.0511334" lon="9.5079834"><ele>472.00000000000006</ele><time>2026-04-22T10:07:43.643Z</time></trkpt><trkpt lat="40.051098" lon="9.5078656"><ele>472.00000000000006</ele><time>2026-04-22T10:07:44.666Z</time></trkpt><trkpt lat="40.0510491" lon="9.5077519"><ele>472.0</ele><time>2026-04-22T10:07:45.674Z</time></trkpt><trkpt lat="40.0510159" lon="9.5076371"><ele>472.0</ele><time>2026-04-22T10:07:46.646Z</time></trkpt><trkpt lat="40.0510016" lon="9.5075127"><ele>474.33333333333337</ele><time>2026-04-22T10:07:47.648Z</time></trkpt><trkpt lat="40.0509793" lon="9.50739"><ele>476.6666666666667</ele><time>2026-04-22T10:07:48.649Z</time></trkpt><trkpt lat="40.0509559" lon="9.5072741"><ele>479.0</ele><time>2026-04-22T10:07:49.645Z</time></trkpt><trkpt lat="40.0509444" lon="9.5071674"><ele>481.33333333333337</ele><time>2026-04-22T10:07:50.641Z</time></trkpt><trkpt lat="40.0509744" lon="9.5070728"><ele>483.6666666666667</ele><time>2026-04-22T10:07:51.634Z</time></trkpt><trkpt lat="40.0510281" lon="9.5069774"><ele>486.0</ele><time>2026-04-22T10:07:52.666Z</time></trkpt><trkpt lat="40.0510927" lon="9.5068598"><ele>490.20000000000005</ele><time>2026-04-22T10:07:53.667Z</time></trkpt><trkpt lat="40.0511632" lon="9.5067401"><ele>494.40000000000003</ele><time>2026-04-22T10:07:54.674Z</time></trkpt><trkpt lat="40.0512306" lon="9.5066191"><ele>498.6</ele><time>2026-04-22T10:07:55.671Z</time></trkpt><trkpt lat="40.0513011" lon="9.5065001"><ele>502.8</ele><time>2026-04-22T10:07:56.661Z</time></trkpt><trkpt lat="40.0513559" lon="9.5063851"><ele>507.0</ele><time>2026-04-22T10:07:57.659Z</time></trkpt><trkpt lat="40.0513928" lon="9.5062671"><ele>508.0</ele><time>2026-04-22T10:07:58.636Z</time></trkpt><trkpt lat="40.0514202" lon="9.5061533"><ele>509.00000000000006</ele><time>2026-04-22T10:07:59.637Z</time></trkpt><trkpt lat="40.0514336" lon="9.5060241"><ele>510.00000000000006</ele><time>2026-04-22T10:08:00.634Z</time></trkpt><trkpt lat="40.0514398" lon="9.5058948"><ele>511.0</ele><time>2026-04-22T10:08:01.634Z</time></trkpt><trkpt lat="40.0514399" lon="9.5057684"><ele>512.0</ele><time>2026-04-22T10:08:02.637Z</time></trkpt><trkpt lat="40.0514393" lon="9.5056466"><ele>511.99999999999994</ele><time>2026-04-22T10:08:03.637Z</time></trkpt><trkpt lat="40.0514411" lon="9.5055315"><ele>512.0</ele><time>2026-04-22T10:08:04.636Z</time></trkpt><trkpt lat="40.051445" lon="9.5054139"><ele>512.0</ele><time>2026-04-22T10:08:05.636Z</time></trkpt><trkpt lat="40.0514528" lon="9.5053054"><ele>512.0</ele><time>2026-04-22T10:08:06.638Z</time></trkpt><trkpt lat="40.0514443" lon="9.505191"><ele>511.99999999999994</ele><time>2026-04-22T10:08:07.631Z</time></trkpt><trkpt lat="40.0514225" lon="9.5050736"><ele>512.0</ele><time>2026-04-22T10:08:08.635Z</time></trkpt><trkpt lat="40.0513852" lon="9.5049567"><ele>513.5</ele><time>2026-04-22T10:08:09.639Z</time></trkpt><trkpt lat="40.051343" lon="9.504845"><ele>515.0</ele><time>2026-04-22T10:08:10.664Z</time></trkpt><trkpt lat="40.0513022" lon="9.5047469"><ele>516.5</ele><time>2026-04-22T10:08:11.662Z</time></trkpt><trkpt lat="40.0512748" lon="9.504645"><ele>518.0</ele><time>2026-04-22T10:08:12.638Z</time></trkpt><trkpt lat="40.0512714" lon="9.5045533"><ele>519.5</ele><time>2026-04-22T10:08:13.643Z</time></trkpt><trkpt lat="40.0513067" lon="9.5044691"><ele>521.0</ele><time>2026-04-22T10:08:14.635Z</time></trkpt><trkpt lat="40.0513603" lon="9.5043901"><ele>521.0</ele><time>2026-04-22T10:08:15.669Z</time></trkpt><trkpt lat="40.0514289" lon="9.5042924"><ele>521.0</ele><time>2026-04-22T10:08:16.66Z</time></trkpt><trkpt lat="40.0514933" lon="9.5041916"><ele>521.0</ele><time>2026-04-22T10:08:17.671Z</time></trkpt><trkpt lat="40.0515401" lon="9.5041166"><ele>521.0</ele><time>2026-04-22T10:08:18.644Z</time></trkpt><trkpt lat="40.0516035" lon="9.5040001"><ele>521.0</ele><time>2026-04-22T10:08:20.637Z</time></trkpt><trkpt lat="40.0515633" lon="9.50391"><ele>521.0</ele><time>2026-04-22T10:08:31.676Z</time></trkpt><trkpt lat="40.0514625" lon="9.5039716"><ele>521.0</ele><time>2026-04-22T10:08:33.676Z</time></trkpt><trkpt lat="40.0513922" lon="9.5040333"><ele>521.0</ele><time>2026-04-22T10:08:34.667Z</time></trkpt><trkpt lat="40.0513127" lon="9.504088"><ele>521.0</ele><time>2026-04-22T10:08:35.647Z</time></trkpt><trkpt lat="40.0512047" lon="9.5041268"><ele>521.0</ele><time>2026-04-22T10:08:36.644Z</time></trkpt><trkpt lat="40.0511015" lon="9.5041031"><ele>521.0</ele><time>2026-04-22T10:08:37.655Z</time></trkpt><trkpt lat="40.0510116" lon="9.5040261"><ele>521.0</ele><time>2026-04-22T10:08:38.652Z</time></trkpt><trkpt lat="40.0509511" lon="9.5039242"><ele>521.0</ele><time>2026-04-22T10:08:39.652Z</time></trkpt><trkpt lat="40.0509283" lon="9.5037899"><ele>521.0</ele><time>2026-04-22T10:08:40.651Z</time></trkpt><trkpt lat="40.0509196" lon="9.5036402"><ele>521.0</ele><time>2026-04-22T10:08:41.648Z</time></trkpt><trkpt lat="40.0509081" lon="9.5034916"><ele>524.4</ele><time>2026-04-22T10:08:42.652Z</time></trkpt><trkpt lat="40.0508809" lon="9.5033606"><ele>527.8</ele><time>2026-04-22T10:08:43.653Z</time></trkpt><trkpt lat="40.0508429" lon="9.5032255"><ele>531.1999999999999</ele><time>2026-04-22T10:08:44.656Z</time></trkpt><trkpt lat="40.0508024" lon="9.5030977"><ele>534.6</ele><time>2026-04-22T10:08:45.655Z</time></trkpt><trkpt lat="40.0507668" lon="9.5029571"><ele>538.0</ele><time>2026-04-22T10:08:46.66Z</time></trkpt><trkpt lat="40.0507431" lon="9.5028132"><ele>541.6</ele><time>2026-04-22T10:08:47.659Z</time></trkpt><trkpt lat="40.0507274" lon="9.5026786"><ele>545.1999999999999</ele><time>2026-04-22T10:08:48.654Z</time></trkpt><trkpt lat="40.050714" lon="9.5025458"><ele>548.8</ele><time>2026-04-22T10:08:49.659Z</time></trkpt><trkpt lat="40.0506977" lon="9.5024127"><ele>552.4</ele><time>2026-04-22T10:08:50.647Z</time></trkpt><trkpt lat="40.05067" lon="9.502283"><ele>556.0</ele><time>2026-04-22T10:08:51.649Z</time></trkpt><trkpt lat="40.0506267" lon="9.5021505"><ele>558.4</ele><time>2026-04-22T10:08:52.646Z</time></trkpt><trkpt lat="40.0505821" lon="9.5020195"><ele>560.8</ele><time>2026-04-22T10:08:53.645Z</time></trkpt><trkpt lat="40.0505331" lon="9.5018995"><ele>563.1999999999999</ele><time>2026-04-22T10:08:54.649Z</time></trkpt><trkpt lat="40.0504785" lon="9.5017902"><ele>565.6</ele><time>2026-04-22T10:08:55.644Z</time></trkpt><trkpt lat="40.0504352" lon="9.5016829"><ele>568.0</ele><time>2026-04-22T10:08:56.646Z</time></trkpt><trkpt lat="40.0503918" lon="9.5015903"><ele>568.0</ele><time>2026-04-22T10:08:57.648Z</time></trkpt><trkpt lat="40.0503485" lon="9.5015045"><ele>568.0</ele><time>2026-04-22T10:08:58.647Z</time></trkpt><trkpt lat="40.0503018" lon="9.501426"><ele>568.0</ele><time>2026-04-22T10:08:59.639Z</time></trkpt><trkpt lat="40.0502493" lon="9.5013598"><ele>568.0</ele><time>2026-04-22T10:09:00.641Z</time></trkpt><trkpt lat="40.0501893" lon="9.5013169"><ele>568.0</ele><time>2026-04-22T10:09:01.638Z</time></trkpt><trkpt lat="40.0501242" lon="9.5013053"><ele>568.0</ele><time>2026-04-22T10:09:02.636Z</time></trkpt><trkpt lat="40.050055" lon="9.5013427"><ele>568.0</ele><time>2026-04-22T10:09:03.639Z</time></trkpt><trkpt lat="40.0500089" lon="9.5014251"><ele>568.0</ele><time>2026-04-22T10:09:04.647Z</time></trkpt><trkpt lat="40.049992" lon="9.5015369"><ele>568.0</ele><time>2026-04-22T10:09:05.639Z</time></trkpt><trkpt lat="40.0500065" lon="9.5016829"><ele>568.0</ele><time>2026-04-22T10:09:06.644Z</time></trkpt><trkpt lat="40.0500158" lon="9.5018311"><ele>568.0</ele><time>2026-04-22T10:09:07.664Z</time></trkpt><trkpt lat="40.0499846" lon="9.5019752"><ele>568.0</ele><time>2026-04-22T10:09:08.656Z</time></trkpt><trkpt lat="40.0499416" lon="9.5021319"><ele>572.0</ele><time>2026-04-22T10:09:09.657Z</time></trkpt><trkpt lat="40.0499043" lon="9.5022877"><ele>576.0</ele><time>2026-04-22T10:09:10.661Z</time></trkpt><trkpt lat="40.0498575" lon="9.5024343"><ele>580.0</ele><time>2026-04-22T10:09:11.657Z</time></trkpt><trkpt lat="40.0498158" lon="9.5025858"><ele>584.0</ele><time>2026-04-22T10:09:12.669Z</time></trkpt><trkpt lat="40.0497726" lon="9.5027356"><ele>584.0</ele><time>2026-04-22T10:09:13.659Z</time></trkpt><trkpt lat="40.0497476" lon="9.502874"><ele>584.0</ele><time>2026-04-22T10:09:14.656Z</time></trkpt><trkpt lat="40.0497456" lon="9.5030044"><ele>584.0</ele><time>2026-04-22T10:09:15.658Z</time></trkpt><trkpt lat="40.0497305" lon="9.5031364"><ele>584.0</ele><time>2026-04-22T10:09:16.652Z</time></trkpt><trkpt lat="40.0497014" lon="9.5032519"><ele>584.0</ele><time>2026-04-22T10:09:17.66Z</time></trkpt><trkpt lat="40.0496373" lon="9.5033522"><ele>578.0</ele><time>2026-04-22T10:09:18.669Z</time></trkpt><trkpt lat="40.0495423" lon="9.5034147"><ele>572.0</ele><time>2026-04-22T10:09:19.663Z</time></trkpt><trkpt lat="40.049438" lon="9.5034337"><ele>566.0</ele><time>2026-04-22T10:09:20.644Z</time></trkpt><trkpt lat="40.0493228" lon="9.5033919"><ele>560.0</ele><time>2026-04-22T10:09:21.649Z</time></trkpt><trkpt lat="40.0492073" lon="9.5033248"><ele>556.75</ele><time>2026-04-22T10:09:22.647Z</time></trkpt><trkpt lat="40.0490757" lon="9.5032871"><ele>553.5</ele><time>2026-04-22T10:09:23.651Z</time></trkpt><trkpt lat="40.0489452" lon="9.5032707"><ele>550.25</ele><time>2026-04-22T10:09:24.642Z</time></trkpt><trkpt lat="40.0488221" lon="9.5032662"><ele>547.0</ele><time>2026-04-22T10:09:25.638Z</time></trkpt><trkpt lat="40.0487245" lon="9.5032274"><ele>547.0</ele><time>2026-04-22T10:09:26.633Z</time></trkpt><trkpt lat="40.0486414" lon="9.5031539"><ele>547.0</ele><time>2026-04-22T10:09:27.644Z</time></trkpt><trkpt lat="40.0485834" lon="9.5030402"><ele>547.0</ele><time>2026-04-22T10:09:28.655Z</time></trkpt><trkpt lat="40.0485355" lon="9.5028999"><ele>547.0</ele><time>2026-04-22T10:09:29.652Z</time></trkpt><trkpt lat="40.0484677" lon="9.5027778"><ele>547.0</ele><time>2026-04-22T10:09:30.653Z</time></trkpt><trkpt lat="40.0483783" lon="9.5026792"><ele>553.2</ele><time>2026-04-22T10:09:31.647Z</time></trkpt><trkpt lat="40.0482866" lon="9.5026339"><ele>559.4000000000001</ele><time>2026-04-22T10:09:32.649Z</time></trkpt><trkpt lat="40.0481785" lon="9.5026003"><ele>565.5999999999999</ele><time>2026-04-22T10:09:33.651Z</time></trkpt><trkpt lat="40.0480953" lon="9.5025459"><ele>571.8</ele><time>2026-04-22T10:09:34.642Z</time></trkpt><trkpt lat="40.0480243" lon="9.5024606"><ele>578.0</ele><time>2026-04-22T10:09:35.648Z</time></trkpt><trkpt lat="40.0479561" lon="9.5023758"><ele>578.0</ele><time>2026-04-22T10:09:36.646Z</time></trkpt><trkpt lat="40.0478697" lon="9.5023303"><ele>578.0</ele><time>2026-04-22T10:09:37.643Z</time></trkpt><trkpt lat="40.0477944" lon="9.5023197"><ele>578.0</ele><time>2026-04-22T10:09:38.642Z</time></trkpt><trkpt lat="40.0477108" lon="9.5023662"><ele>578.0</ele><time>2026-04-22T10:09:39.64Z</time></trkpt><trkpt lat="40.0476186" lon="9.5024274"><ele>578.0</ele><time>2026-04-22T10:09:40.653Z</time></trkpt><trkpt lat="40.0475377" lon="9.5024884"><ele>578.0</ele><time>2026-04-22T10:09:41.658Z</time></trkpt><trkpt lat="40.0474686" lon="9.5025563"><ele>578.0</ele><time>2026-04-22T10:09:42.66Z</time></trkpt><trkpt lat="40.0473936" lon="9.5025759"><ele>578.0</ele><time>2026-04-22T10:09:43.638Z</time></trkpt><trkpt lat="40.0473108" lon="9.5025592"><ele>578.0</ele><time>2026-04-22T10:09:44.634Z</time></trkpt><trkpt lat="40.0472259" lon="9.5025192"><ele>578.0</ele><time>2026-04-22T10:09:45.637Z</time></trkpt><trkpt lat="40.0471363" lon="9.5024594"><ele>578.0</ele><time>2026-04-22T10:09:46.634Z</time></trkpt><trkpt lat="40.0470517" lon="9.5024139"><ele>583.4</ele><time>2026-04-22T10:09:47.633Z</time></trkpt><trkpt lat="40.0469719" lon="9.5023862"><ele>588.8</ele><time>2026-04-22T10:09:48.633Z</time></trkpt><trkpt lat="40.0468881" lon="9.5023869"><ele>594.2</ele><time>2026-04-22T10:09:49.634Z</time></trkpt><trkpt lat="40.0468139" lon="9.502415"><ele>599.6</ele><time>2026-04-22T10:09:50.628Z</time></trkpt><trkpt lat="40.0467347" lon="9.5024952"><ele>605.0</ele><time>2026-04-22T10:09:51.63Z</time></trkpt><trkpt lat="40.0466781" lon="9.5026237"><ele>605.0</ele><time>2026-04-22T10:09:52.626Z</time></trkpt><trkpt lat="40.0466565" lon="9.5027729"><ele>605.0</ele><time>2026-04-22T10:09:53.626Z</time></trkpt><trkpt lat="40.0466425" lon="9.5029371"><ele>605.0</ele><time>2026-04-22T10:09:54.625Z</time></trkpt><trkpt lat="40.046639" lon="9.5030984"><ele>605.0</ele><time>2026-04-22T10:09:55.625Z</time></trkpt><trkpt lat="40.0466468" lon="9.5032629"><ele>603.4</ele><time>2026-04-22T10:09:56.646Z</time></trkpt><trkpt lat="40.0466441" lon="9.503405"><ele>601.8</ele><time>2026-04-22T10:09:57.644Z</time></trkpt><trkpt lat="40.0466171" lon="9.5035362"><ele>600.2</ele><time>2026-04-22T10:09:58.647Z</time></trkpt><trkpt lat="40.046572" lon="9.5036629"><ele>598.6</ele><time>2026-04-22T10:09:59.65Z</time></trkpt><trkpt lat="40.0464945" lon="9.5037739"><ele>597.0</ele><time>2026-04-22T10:10:00.641Z</time></trkpt><trkpt lat="40.0464037" lon="9.5038757"><ele>597.0</ele><time>2026-04-22T10:10:01.643Z</time></trkpt><trkpt lat="40.0462907" lon="9.5039752"><ele>597.0</ele><time>2026-04-22T10:10:02.626Z</time></trkpt><trkpt lat="40.0461724" lon="9.5040502"><ele>597.0</ele><time>2026-04-22T10:10:03.627Z</time></trkpt><trkpt lat="40.0460545" lon="9.5041141"><ele>597.0</ele><time>2026-04-22T10:10:04.633Z</time></trkpt><trkpt lat="40.045942" lon="9.5041697"><ele>597.0</ele><time>2026-04-22T10:10:05.652Z</time></trkpt><trkpt lat="40.045827" lon="9.5042395"><ele>597.0</ele><time>2026-04-22T10:10:06.64Z</time></trkpt><trkpt lat="40.0457186" lon="9.5043105"><ele>597.0</ele><time>2026-04-22T10:10:07.631Z</time></trkpt><trkpt lat="40.0456046" lon="9.504344"><ele>597.0</ele><time>2026-04-22T10:10:08.639Z</time></trkpt><trkpt lat="40.0454793" lon="9.5043539"><ele>600.0</ele><time>2026-04-22T10:10:09.625Z</time></trkpt><trkpt lat="40.0453455" lon="9.5043531"><ele>603.0</ele><time>2026-04-22T10:10:10.649Z</time></trkpt><trkpt lat="40.045232" lon="9.5043409"><ele>606.0</ele><time>2026-04-22T10:10:11.644Z</time></trkpt><trkpt lat="40.0451327" lon="9.504337"><ele>609.0</ele><time>2026-04-22T10:10:12.648Z</time></trkpt><trkpt lat="40.0450299" lon="9.504334"><ele>614.0</ele><time>2026-04-22T10:10:13.644Z</time></trkpt><trkpt lat="40.0449143" lon="9.504333"><ele>619.0</ele><time>2026-04-22T10:10:14.643Z</time></trkpt><trkpt lat="40.0448027" lon="9.5043438"><ele>624.0</ele><time>2026-04-22T10:10:15.643Z</time></trkpt><trkpt lat="40.0446959" lon="9.504356"><ele>629.0</ele><time>2026-04-22T10:10:16.642Z</time></trkpt><trkpt lat="40.0445921" lon="9.5043828"><ele>634.0</ele><time>2026-04-22T10:10:17.661Z</time></trkpt><trkpt lat="40.0444937" lon="9.5044548"><ele>634.0</ele><time>2026-04-22T10:10:18.657Z</time></trkpt><trkpt lat="40.0444099" lon="9.5045701"><ele>634.0</ele><time>2026-04-22T10:10:19.654Z</time></trkpt><trkpt lat="40.044356" lon="9.5047176"><ele>634.0</ele><time>2026-04-22T10:10:20.657Z</time></trkpt><trkpt lat="40.0443167" lon="9.5048745"><ele>634.0</ele><time>2026-04-22T10:10:21.651Z</time></trkpt><trkpt lat="40.0442896" lon="9.5050342"><ele>635.25</ele><time>2026-04-22T10:10:22.659Z</time></trkpt><trkpt lat="40.0442568" lon="9.5051873"><ele>636.5</ele><time>2026-04-22T10:10:23.653Z</time></trkpt><trkpt lat="40.0442152" lon="9.5053384"><ele>637.75</ele><time>2026-04-22T10:10:24.658Z</time></trkpt><trkpt lat="40.0441636" lon="9.5054898"><ele>639.0</ele><time>2026-04-22T10:10:25.659Z</time></trkpt><trkpt lat="40.0440986" lon="9.5056259"><ele>639.0</ele><time>2026-04-22T10:10:26.66Z</time></trkpt><trkpt lat="40.0440286" lon="9.5057595"><ele>639.0</ele><time>2026-04-22T10:10:27.652Z</time></trkpt><trkpt lat="40.0439482" lon="9.5058977"><ele>639.0</ele><time>2026-04-22T10:10:28.658Z</time></trkpt><trkpt lat="40.0438622" lon="9.5060211"><ele>639.0</ele><time>2026-04-22T10:10:29.658Z</time></trkpt><trkpt lat="40.0437739" lon="9.506153"><ele>632.75</ele><time>2026-04-22T10:10:30.656Z</time></trkpt><trkpt lat="40.0436878" lon="9.5062937"><ele>626.5</ele><time>2026-04-22T10:10:31.661Z</time></trkpt><trkpt lat="40.0435983" lon="9.5064275"><ele>620.25</ele><time>2026-04-22T10:10:32.654Z</time></trkpt><trkpt lat="40.0435151" lon="9.5065563"><ele>614.0</ele><time>2026-04-22T10:10:33.658Z</time></trkpt><trkpt lat="40.0434326" lon="9.5066706"><ele>614.0</ele><time>2026-04-22T10:10:34.661Z</time></trkpt><trkpt lat="40.0433564" lon="9.506778"><ele>614.0</ele><time>2026-04-22T10:10:35.661Z</time></trkpt><trkpt lat="40.0432584" lon="9.5068535"><ele>614.0</ele><time>2026-04-22T10:10:36.64Z</time></trkpt><trkpt lat="40.0431544" lon="9.5069265"><ele>614.0</ele><time>2026-04-22T10:10:37.648Z</time></trkpt><trkpt lat="40.0430418" lon="9.5069927"><ele>612.0</ele><time>2026-04-22T10:10:38.642Z</time></trkpt><trkpt lat="40.0429308" lon="9.5070599"><ele>610.0</ele><time>2026-04-22T10:10:39.644Z</time></trkpt><trkpt lat="40.0428162" lon="9.5071273"><ele>608.0</ele><time>2026-04-22T10:10:40.641Z</time></trkpt><trkpt lat="40.042713" lon="9.5071896"><ele>606.0</ele><time>2026-04-22T10:10:41.636Z</time></trkpt><trkpt lat="40.0426137" lon="9.5072441"><ele>606.0</ele><time>2026-04-22T10:10:42.639Z</time></trkpt><trkpt lat="40.0425235" lon="9.5073073"><ele>606.0</ele><time>2026-04-22T10:10:43.631Z</time></trkpt><trkpt lat="40.0424568" lon="9.5073817"><ele>606.0</ele><time>2026-04-22T10:10:44.652Z</time></trkpt><trkpt lat="40.0424111" lon="9.507474"><ele>606.0</ele><time>2026-04-22T10:10:45.658Z</time></trkpt><trkpt lat="40.0423474" lon="9.5075519"><ele>606.0</ele><time>2026-04-22T10:10:46.657Z</time></trkpt><trkpt lat="40.0422837" lon="9.507622"><ele>606.0</ele><time>2026-04-22T10:10:47.662Z</time></trkpt><trkpt lat="40.0422055" lon="9.5076575"><ele>605.6666666666666</ele><time>2026-04-22T10:10:48.633Z</time></trkpt><trkpt lat="40.0421197" lon="9.5076583"><ele>605.3333333333334</ele><time>2026-04-22T10:10:49.646Z</time></trkpt><trkpt lat="40.0420384" lon="9.5076203"><ele>605.0</ele><time>2026-04-22T10:10:50.647Z</time></trkpt><trkpt lat="40.0419722" lon="9.5075498"><ele>604.6666666666667</ele><time>2026-04-22T10:10:51.641Z</time></trkpt><trkpt lat="40.0419178" lon="9.5074577"><ele>604.3333333333334</ele><time>2026-04-22T10:10:52.638Z</time></trkpt><trkpt lat="40.0418678" lon="9.5073496"><ele>604.0</ele><time>2026-04-22T10:10:53.644Z</time></trkpt><trkpt lat="40.0418178" lon="9.5072311"><ele>604.0</ele><time>2026-04-22T10:10:54.639Z</time></trkpt><trkpt lat="40.0417729" lon="9.5071262"><ele>604.0</ele><time>2026-04-22T10:10:55.641Z</time></trkpt><trkpt lat="40.0417285" lon="9.5070319"><ele>604.0</ele><time>2026-04-22T10:10:56.636Z</time></trkpt><trkpt lat="40.0416823" lon="9.50694"><ele>604.0</ele><time>2026-04-22T10:10:57.644Z</time></trkpt><trkpt lat="40.0416429" lon="9.5068425"><ele>604.0</ele><time>2026-04-22T10:10:58.644Z</time></trkpt><trkpt lat="40.0416141" lon="9.5067633"><ele>604.0</ele><time>2026-04-22T10:10:59.645Z</time></trkpt><trkpt lat="40.0415751" lon="9.5066438"><ele>606.6666666666667</ele><time>2026-04-22T10:11:01.638Z</time></trkpt><trkpt lat="40.0416789" lon="9.5066547"><ele>609.3333333333334</ele><time>2026-04-22T10:11:07.64Z</time></trkpt><trkpt lat="40.0417541" lon="9.5067067"><ele>612.0</ele><time>2026-04-22T10:11:08.646Z</time></trkpt><trkpt lat="40.0418154" lon="9.5067676"><ele>614.6666666666666</ele><time>2026-04-22T10:11:09.637Z</time></trkpt><trkpt lat="40.0418842" lon="9.5068218"><ele>617.3333333333333</ele><time>2026-04-22T10:11:10.63Z</time></trkpt><trkpt lat="40.0419512" lon="9.5068542"><ele>620.0</ele><time>2026-04-22T10:11:11.633Z</time></trkpt><trkpt lat="40.0420214" lon="9.506877"><ele>620.0</ele><time>2026-04-22T10:11:12.641Z</time></trkpt><trkpt lat="40.0420901" lon="9.5068972"><ele>620.0</ele><time>2026-04-22T10:11:13.64Z</time></trkpt><trkpt lat="40.0421529" lon="9.5068671"><ele>620.0</ele><time>2026-04-22T10:11:14.638Z</time></trkpt><trkpt lat="40.042233" lon="9.5067644"><ele>620.0</ele><time>2026-04-22T10:11:16.638Z</time></trkpt><trkpt lat="40.042238" lon="9.5066667"><ele>620.0</ele><time>2026-04-22T10:11:17.642Z</time></trkpt><trkpt lat="40.0422525" lon="9.5065804"><ele>620.0</ele><time>2026-04-22T10:11:18.654Z</time></trkpt><trkpt lat="40.0422597" lon="9.5064926"><ele>620.0</ele><time>2026-04-22T10:11:19.648Z</time></trkpt><trkpt lat="40.0422808" lon="9.5064066"><ele>620.0</ele><time>2026-04-22T10:11:20.646Z</time></trkpt><trkpt lat="40.0423116" lon="9.5063242"><ele>620.0</ele><time>2026-04-22T10:11:21.638Z</time></trkpt><trkpt lat="40.0423612" lon="9.5062541"><ele>620.0</ele><time>2026-04-22T10:11:22.645Z</time></trkpt><trkpt lat="40.0424147" lon="9.5061977"><ele>620.0</ele><time>2026-04-22T10:11:23.642Z</time></trkpt><trkpt lat="40.0424693" lon="9.506133"><ele>620.0</ele><time>2026-04-22T10:11:24.638Z</time></trkpt><trkpt lat="40.0425303" lon="9.5060636"><ele>620.0</ele><time>2026-04-22T10:11:25.644Z</time></trkpt><trkpt lat="40.0425939" lon="9.5059891"><ele>625.6666666666666</ele><time>2026-04-22T10:11:26.645Z</time></trkpt><trkpt lat="40.0426618" lon="9.5059139"><ele>631.3333333333333</ele><time>2026-04-22T10:11:27.643Z</time></trkpt><trkpt lat="40.0427313" lon="9.5058233"><ele>637.0</ele><time>2026-04-22T10:11:28.638Z</time></trkpt><trkpt lat="40.0427898" lon="9.5057224"><ele>642.6666666666666</ele><time>2026-04-22T10:11:29.64Z</time></trkpt><trkpt lat="40.0428392" lon="9.5056335"><ele>648.3333333333334</ele><time>2026-04-22T10:11:30.638Z</time></trkpt><trkpt lat="40.0428848" lon="9.505561"><ele>654.0</ele><time>2026-04-22T10:11:31.643Z</time></trkpt><trkpt lat="40.0429461" lon="9.5055036"><ele>654.0</ele><time>2026-04-22T10:11:32.64Z</time></trkpt><trkpt lat="40.043008" lon="9.5054399"><ele>654.0</ele><time>2026-04-22T10:11:33.632Z</time></trkpt><trkpt lat="40.0430735" lon="9.5053894"><ele>654.0</ele><time>2026-04-22T10:11:34.641Z</time></trkpt><trkpt lat="40.0431585" lon="9.5052796"><ele>654.0</ele><time>2026-04-22T10:11:36.636Z</time></trkpt><trkpt lat="40.0432204" lon="9.5051445"><ele>654.0</ele><time>2026-04-22T10:11:38.635Z</time></trkpt><trkpt lat="40.0432521" lon="9.5050695"><ele>654.4000000000001</ele><time>2026-04-22T10:11:39.644Z</time></trkpt><trkpt lat="40.0432936" lon="9.5049925"><ele>654.8</ele><time>2026-04-22T10:11:40.635Z</time></trkpt><trkpt lat="40.0433259" lon="9.5049147"><ele>655.2</ele><time>2026-04-22T10:11:41.636Z</time></trkpt><trkpt lat="40.0433743" lon="9.5047851"><ele>655.5999999999999</ele><time>2026-04-22T10:11:43.639Z</time></trkpt><trkpt lat="40.0434357" lon="9.5046436"><ele>656.0</ele><time>2026-04-22T10:11:45.641Z</time></trkpt><trkpt lat="40.0434895" lon="9.5045168"><ele>656.8</ele><time>2026-04-22T10:11:47.643Z</time></trkpt><trkpt lat="40.0434964" lon="9.504396"><ele>657.5999999999999</ele><time>2026-04-22T10:11:49.646Z</time></trkpt><trkpt lat="40.0435023" lon="9.5042415"><ele>658.4</ele><time>2026-04-22T10:11:51.643Z</time></trkpt><trkpt lat="40.0435304" lon="9.5040843"><ele>659.2</ele><time>2026-04-22T10:11:53.647Z</time></trkpt><trkpt lat="40.0435482" lon="9.5040003"><ele>660.0</ele><time>2026-04-22T10:11:54.646Z</time></trkpt><trkpt lat="40.0435779" lon="9.5039207"><ele>660.0</ele><time>2026-04-22T10:11:55.644Z</time></trkpt><trkpt lat="40.0436185" lon="9.5038382"><ele>660.0</ele><time>2026-04-22T10:11:56.652Z</time></trkpt><trkpt lat="40.0436544" lon="9.5037431"><ele>660.0</ele><time>2026-04-22T10:11:57.646Z</time></trkpt><trkpt lat="40.0437099" lon="9.5036092"><ele>660.0</ele><time>2026-04-22T10:11:59.653Z</time></trkpt><trkpt lat="40.0437418" lon="9.5034846"><ele>660.0</ele><time>2026-04-22T10:12:01.653Z</time></trkpt><trkpt lat="40.0437821" lon="9.5033522"><ele>658.2</ele><time>2026-04-22T10:12:03.654Z</time></trkpt><trkpt lat="40.043855" lon="9.5032221"><ele>656.4</ele><time>2026-04-22T10:12:05.655Z</time></trkpt><trkpt lat="40.0439437" lon="9.5030786"><ele>654.5999999999999</ele><time>2026-04-22T10:12:07.653Z</time></trkpt><trkpt lat="40.0439819" lon="9.5030071"><ele>652.8</ele><time>2026-04-22T10:12:08.655Z</time></trkpt><trkpt lat="40.0440489" lon="9.5029013"><ele>651.0</ele><time>2026-04-22T10:12:10.649Z</time></trkpt><trkpt lat="40.0441444" lon="9.502839"><ele>651.0</ele><time>2026-04-22T10:12:12.649Z</time></trkpt><trkpt lat="40.0442021" lon="9.5028022"><ele>651.0</ele><time>2026-04-22T10:12:13.644Z</time></trkpt><trkpt lat="40.0442578" lon="9.5027468"><ele>651.0</ele><time>2026-04-22T10:12:14.645Z</time></trkpt><trkpt lat="40.0443195" lon="9.5026693"><ele>651.0</ele><time>2026-04-22T10:12:15.65Z</time></trkpt><trkpt lat="40.044381" lon="9.5025734"><ele>651.0</ele><time>2026-04-22T10:12:16.644Z</time></trkpt><trkpt lat="40.0444339" lon="9.5024896"><ele>651.0</ele><time>2026-04-22T10:12:17.638Z</time></trkpt><trkpt lat="40.0444916" lon="9.5023919"><ele>651.0</ele><time>2026-04-22T10:12:18.635Z</time></trkpt><trkpt lat="40.0445481" lon="9.502299"><ele>651.0</ele><time>2026-04-22T10:12:19.633Z</time></trkpt><trkpt lat="40.0445936" lon="9.5022243"><ele>651.0</ele><time>2026-04-22T10:12:20.63Z</time></trkpt><trkpt lat="40.0446682" lon="9.5021081"><ele>651.0</ele><time>2026-04-22T10:12:22.63Z</time></trkpt><trkpt lat="40.0447268" lon="9.5020659"><ele>651.0</ele><time>2026-04-22T10:12:23.633Z</time></trkpt><trkpt lat="40.044778" lon="9.5020165"><ele>651.0</ele><time>2026-04-22T10:12:24.627Z</time></trkpt><trkpt lat="40.044836" lon="9.5019777"><ele>655.0</ele><time>2026-04-22T10:12:25.629Z</time></trkpt><trkpt lat="40.044964" lon="9.501922"><ele>659.0</ele><time>2026-04-22T10:12:27.626Z</time></trkpt><trkpt lat="40.045022" lon="9.5018703"><ele>663.0</ele><time>2026-04-22T10:12:28.634Z</time></trkpt><trkpt lat="40.0451134" lon="9.5017801"><ele>667.0</ele><time>2026-04-22T10:12:30.625Z</time></trkpt><trkpt lat="40.0451658" lon="9.5016402"><ele>671.0</ele><time>2026-04-22T10:12:32.622Z</time></trkpt><trkpt lat="40.0452237" lon="9.5014745"><ele>671.0</ele><time>2026-04-22T10:12:34.623Z</time></trkpt><trkpt lat="40.0452721" lon="9.5013831"><ele>671.0</ele><time>2026-04-22T10:12:35.63Z</time></trkpt><trkpt lat="40.0453212" lon="9.5012976"><ele>671.0</ele><time>2026-04-22T10:12:36.63Z</time></trkpt><trkpt lat="40.0453725" lon="9.5012272"><ele>671.0</ele><time>2026-04-22T10:12:37.629Z</time></trkpt><trkpt lat="40.0454228" lon="9.5011584"><ele>671.0</ele><time>2026-04-22T10:12:38.635Z</time></trkpt><trkpt lat="40.045474" lon="9.5010805"><ele>671.0</ele><time>2026-04-22T10:12:39.627Z</time></trkpt><trkpt lat="40.0455236" lon="9.5010003"><ele>670.0</ele><time>2026-04-22T10:12:40.628Z</time></trkpt><trkpt lat="40.0455751" lon="9.5009027"><ele>669.0</ele><time>2026-04-22T10:12:41.631Z</time></trkpt><trkpt lat="40.04561" lon="9.5008154"><ele>668.0</ele><time>2026-04-22T10:12:42.629Z</time></trkpt><trkpt lat="40.0456252" lon="9.5007043"><ele>667.0</ele><time>2026-04-22T10:12:43.633Z</time></trkpt><trkpt lat="40.0456519" lon="9.500608"><ele>666.0</ele><time>2026-04-22T10:12:44.63Z</time></trkpt><trkpt lat="40.0456783" lon="9.5005111"><ele>665.0</ele><time>2026-04-22T10:12:45.631Z</time></trkpt><trkpt lat="40.0456953" lon="9.5004193"><ele>665.5</ele><time>2026-04-22T10:12:46.63Z</time></trkpt><trkpt lat="40.0457214" lon="9.5003431"><ele>666.0</ele><time>2026-04-22T10:12:47.642Z</time></trkpt><trkpt lat="40.0457974" lon="9.5002296"><ele>666.5</ele><time>2026-04-22T10:12:49.636Z</time></trkpt><trkpt lat="40.0458502" lon="9.5001731"><ele>667.0</ele><time>2026-04-22T10:12:50.632Z</time></trkpt><trkpt lat="40.0458986" lon="9.5001038"><ele>667.5</ele><time>2026-04-22T10:12:51.626Z</time></trkpt><trkpt lat="40.0459352" lon="9.5000327"><ele>668.0</ele><time>2026-04-22T10:12:52.626Z</time></trkpt><trkpt lat="40.0459607" lon="9.4999436"><ele>672.6666666666666</ele><time>2026-04-22T10:12:53.63Z</time></trkpt><trkpt lat="40.0459774" lon="9.499855"><ele>677.3333333333333</ele><time>2026-04-22T10:12:54.633Z</time></trkpt><trkpt lat="40.0460011" lon="9.4997784"><ele>682.0</ele><time>2026-04-22T10:12:55.629Z</time></trkpt><trkpt lat="40.0460556" lon="9.4996589"><ele>686.6666666666666</ele><time>2026-04-22T10:12:57.637Z</time></trkpt><trkpt lat="40.0460831" lon="9.4995322"><ele>691.3333333333334</ele><time>2026-04-22T10:12:59.64Z</time></trkpt><trkpt lat="40.0460435" lon="9.4994659"><ele>696.0</ele><time>2026-04-22T10:13:01.643Z</time></trkpt><trkpt lat="40.046024" lon="9.4993649"><ele>696.0</ele><time>2026-04-22T10:13:03.651Z</time></trkpt><trkpt lat="40.0460608" lon="9.4992452"><ele>696.0</ele><time>2026-04-22T10:13:05.652Z</time></trkpt><trkpt lat="40.04611" lon="9.4991904"><ele>696.0</ele><time>2026-04-22T10:13:06.644Z</time></trkpt><trkpt lat="40.0462023" lon="9.4991199"><ele>696.0</ele><time>2026-04-22T10:13:08.645Z</time></trkpt><trkpt lat="40.0462613" lon="9.4990896"><ele>696.0</ele><time>2026-04-22T10:13:09.646Z</time></trkpt><trkpt lat="40.0463488" lon="9.4991023"><ele>696.0</ele><time>2026-04-22T10:13:11.645Z</time></trkpt><trkpt lat="40.0464321" lon="9.499181"><ele>696.0</ele><time>2026-04-22T10:13:14.653Z</time></trkpt><trkpt lat="40.0464908" lon="9.4993148"><ele>696.0</ele><time>2026-04-22T10:13:16.646Z</time></trkpt><trkpt lat="40.0465252" lon="9.4994064"><ele>696.0</ele><time>2026-04-22T10:13:17.65Z</time></trkpt><trkpt lat="40.0465618" lon="9.499502"><ele>696.0</ele><time>2026-04-22T10:13:18.649Z</time></trkpt><trkpt lat="40.046601" lon="9.4995693"><ele>696.0</ele><time>2026-04-22T10:13:19.649Z</time></trkpt><trkpt lat="40.0466716" lon="9.4996641"><ele>696.0</ele><time>2026-04-22T10:13:21.65Z</time></trkpt><trkpt lat="40.0467156" lon="9.4997445"><ele>697.1666666666666</ele><time>2026-04-22T10:13:23.646Z</time></trkpt><trkpt lat="40.0468271" lon="9.4997735"><ele>698.3333333333334</ele><time>2026-04-22T10:13:25.63Z</time></trkpt><trkpt lat="40.0469015" lon="9.4997725"><ele>699.5</ele><time>2026-04-22T10:13:26.634Z</time></trkpt><trkpt lat="40.0469871" lon="9.4997478"><ele>700.6666666666667</ele><time>2026-04-22T10:13:27.635Z</time></trkpt><trkpt lat="40.0470666" lon="9.4997188"><ele>701.8333333333334</ele><time>2026-04-22T10:13:28.638Z</time></trkpt><trkpt lat="40.0471424" lon="9.4996662"><ele>703.0</ele><time>2026-04-22T10:13:29.641Z</time></trkpt><trkpt lat="40.0472098" lon="9.4996183"><ele>704.1666666666667</ele><time>2026-04-22T10:13:30.634Z</time></trkpt><trkpt lat="40.0472685" lon="9.499577"><ele>705.3333333333334</ele><time>2026-04-22T10:13:31.636Z</time></trkpt><trkpt lat="40.0473313" lon="9.4995288"><ele>706.5</ele><time>2026-04-22T10:13:32.631Z</time></trkpt><trkpt lat="40.0473942" lon="9.4994958"><ele>707.6666666666666</ele><time>2026-04-22T10:13:33.635Z</time></trkpt><trkpt lat="40.0474637" lon="9.4994581"><ele>708.8333333333333</ele><time>2026-04-22T10:13:34.646Z</time></trkpt><trkpt lat="40.0475374" lon="9.4994017"><ele>710.0</ele><time>2026-04-22T10:13:35.633Z</time></trkpt><trkpt lat="40.0476029" lon="9.4993368"><ele>710.0</ele><time>2026-04-22T10:13:36.638Z</time></trkpt><trkpt lat="40.0476672" lon="9.4992732"><ele>710.0</ele><time>2026-04-22T10:13:37.63Z</time></trkpt><trkpt lat="40.0477227" lon="9.4992145"><ele>710.0</ele><time>2026-04-22T10:13:38.63Z</time></trkpt><trkpt lat="40.0477917" lon="9.4991553"><ele>710.0</ele><time>2026-04-22T10:13:39.631Z</time></trkpt><trkpt lat="40.0478565" lon="9.4990951"><ele>710.0</ele><time>2026-04-22T10:13:40.626Z</time></trkpt><trkpt lat="40.0479571" lon="9.4990315"><ele>710.0</ele><time>2026-04-22T10:13:42.623Z</time></trkpt><trkpt lat="40.0480714" lon="9.4990102"><ele>710.0</ele><time>2026-04-22T10:13:44.636Z</time></trkpt><trkpt lat="40.0481345" lon="9.4989913"><ele>710.0</ele><time>2026-04-22T10:13:45.626Z</time></trkpt><trkpt lat="40.0482008" lon="9.4989622"><ele>710.0</ele><time>2026-04-22T10:13:46.635Z</time></trkpt><trkpt lat="40.0482708" lon="9.4989244"><ele>710.0</ele><time>2026-04-22T10:13:47.632Z</time></trkpt><trkpt lat="40.0483277" lon="9.4988762"><ele>710.0</ele><time>2026-04-22T10:13:48.628Z</time></trkpt><trkpt lat="40.0483619" lon="9.4987938"><ele>710.0</ele><time>2026-04-22T10:13:49.631Z</time></trkpt><trkpt lat="40.0483772" lon="9.4986876"><ele>710.0</ele><time>2026-04-22T10:13:50.629Z</time></trkpt><trkpt lat="40.0483795" lon="9.4985869"><ele>709.5</ele><time>2026-04-22T10:13:51.626Z</time></trkpt><trkpt lat="40.0483807" lon="9.4984817"><ele>709.0</ele><time>2026-04-22T10:13:52.622Z</time></trkpt><trkpt lat="40.0483853" lon="9.4983666"><ele>708.5</ele><time>2026-04-22T10:13:53.623Z</time></trkpt><trkpt lat="40.048387" lon="9.4982514"><ele>708.0</ele><time>2026-04-22T10:13:54.629Z</time></trkpt><trkpt lat="40.0483833" lon="9.4981376"><ele>707.5</ele><time>2026-04-22T10:13:55.641Z</time></trkpt><trkpt lat="40.0483771" lon="9.4980185"><ele>707.0</ele><time>2026-04-22T10:13:56.623Z</time></trkpt><trkpt lat="40.0483755" lon="9.4979089"><ele>707.0</ele><time>2026-04-22T10:13:57.626Z</time></trkpt><trkpt lat="40.0483763" lon="9.4977973"><ele>707.0</ele><time>2026-04-22T10:13:58.625Z</time></trkpt><trkpt lat="40.0483889" lon="9.4976826"><ele>707.0</ele><time>2026-04-22T10:13:59.624Z</time></trkpt><trkpt lat="40.0484049" lon="9.4975735"><ele>707.0</ele><time>2026-04-22T10:14:00.633Z</time></trkpt><trkpt lat="40.0484114" lon="9.4974783"><ele>707.0</ele><time>2026-04-22T10:14:01.621Z</time></trkpt><trkpt lat="40.048411" lon="9.4973775"><ele>707.0</ele><time>2026-04-22T10:14:02.624Z</time></trkpt><trkpt lat="40.0484022" lon="9.4972787"><ele>707.0</ele><time>2026-04-22T10:14:03.63Z</time></trkpt><trkpt lat="40.0483863" lon="9.4971913"><ele>707.0</ele><time>2026-04-22T10:14:04.634Z</time></trkpt><trkpt lat="40.0483582" lon="9.4971082"><ele>707.0</ele><time>2026-04-22T10:14:05.665Z</time></trkpt><trkpt lat="40.0483249" lon="9.4970183"><ele>707.0</ele><time>2026-04-22T10:14:06.657Z</time></trkpt><trkpt lat="40.0482914" lon="9.4969253"><ele>707.0</ele><time>2026-04-22T10:14:07.633Z</time></trkpt><trkpt lat="40.0482876" lon="9.496841"><ele>707.0</ele><time>2026-04-22T10:14:08.626Z</time></trkpt><trkpt lat="40.0483011" lon="9.4967542"><ele>707.0</ele><time>2026-04-22T10:14:09.628Z</time></trkpt><trkpt lat="40.0483355" lon="9.4966733"><ele>708.3333333333333</ele><time>2026-04-22T10:14:10.657Z</time></trkpt><trkpt lat="40.0483938" lon="9.4965925"><ele>709.6666666666666</ele><time>2026-04-22T10:14:11.652Z</time></trkpt><trkpt lat="40.0484607" lon="9.4965271"><ele>711.0</ele><time>2026-04-22T10:14:12.623Z</time></trkpt><trkpt lat="40.0485305" lon="9.4964705"><ele>712.3333333333334</ele><time>2026-04-22T10:14:13.625Z</time></trkpt><trkpt lat="40.0486052" lon="9.4964306"><ele>713.6666666666667</ele><time>2026-04-22T10:14:14.634Z</time></trkpt><trkpt lat="40.0486723" lon="9.4963838"><ele>715.0</ele><time>2026-04-22T10:14:15.643Z</time></trkpt><trkpt lat="40.0487362" lon="9.4963359"><ele>715.0</ele><time>2026-04-22T10:14:16.635Z</time></trkpt><trkpt lat="40.0487997" lon="9.496301"><ele>715.0</ele><time>2026-04-22T10:14:17.633Z</time></trkpt><trkpt lat="40.0488652" lon="9.4962681"><ele>715.0</ele><time>2026-04-22T10:14:18.628Z</time></trkpt><trkpt lat="40.0489939" lon="9.4962018"><ele>715.0</ele><time>2026-04-22T10:14:20.628Z</time></trkpt><trkpt lat="40.0490584" lon="9.4961518"><ele>715.0</ele><time>2026-04-22T10:14:21.631Z</time></trkpt><trkpt lat="40.0491252" lon="9.4960858"><ele>715.0</ele><time>2026-04-22T10:14:22.631Z</time></trkpt><trkpt lat="40.0491762" lon="9.4960026"><ele>712.8333333333334</ele><time>2026-04-22T10:14:23.628Z</time></trkpt><trkpt lat="40.0492246" lon="9.4959106"><ele>710.6666666666667</ele><time>2026-04-22T10:14:24.632Z</time></trkpt><trkpt lat="40.0492633" lon="9.4958168"><ele>708.5</ele><time>2026-04-22T10:14:25.64Z</time></trkpt><trkpt lat="40.0492984" lon="9.4957143"><ele>706.3333333333334</ele><time>2026-04-22T10:14:26.626Z</time></trkpt><trkpt lat="40.0493159" lon="9.4956159"><ele>704.1666666666666</ele><time>2026-04-22T10:14:27.628Z</time></trkpt><trkpt lat="40.0493248" lon="9.4955113"><ele>702.0</ele><time>2026-04-22T10:14:28.631Z</time></trkpt><trkpt lat="40.0493236" lon="9.4954129"><ele>702.0</ele><time>2026-04-22T10:14:29.634Z</time></trkpt><trkpt lat="40.0493229" lon="9.4953232"><ele>702.0</ele><time>2026-04-22T10:14:30.629Z</time></trkpt><trkpt lat="40.0493101" lon="9.4952318"><ele>702.0</ele><time>2026-04-22T10:14:31.637Z</time></trkpt><trkpt lat="40.0492867" lon="9.4951536"><ele>702.0</ele><time>2026-04-22T10:14:32.631Z</time></trkpt><trkpt lat="40.0492473" lon="9.4950767"><ele>702.0</ele><time>2026-04-22T10:14:33.629Z</time></trkpt><trkpt lat="40.049209" lon="9.4949362"><ele>702.0</ele><time>2026-04-22T10:14:35.642Z</time></trkpt><trkpt lat="40.0492016" lon="9.4948211"><ele>702.0</ele><time>2026-04-22T10:14:37.618Z</time></trkpt><trkpt lat="40.0492719" lon="9.4947455"><ele>702.0</ele><time>2026-04-22T10:14:39.624Z</time></trkpt><trkpt lat="40.0493959" lon="9.4947421"><ele>702.0</ele><time>2026-04-22T10:14:41.626Z</time></trkpt><trkpt lat="40.0495021" lon="9.4946925"><ele>702.0</ele><time>2026-04-22T10:14:43.624Z</time></trkpt><trkpt lat="40.0496125" lon="9.4946532"><ele>702.0</ele><time>2026-04-22T10:14:45.642Z</time></trkpt><trkpt lat="40.0497161" lon="9.4945721"><ele>704.0</ele><time>2026-04-22T10:14:47.63Z</time></trkpt><trkpt lat="40.0497869" lon="9.4944591"><ele>706.0</ele><time>2026-04-22T10:14:49.63Z</time></trkpt><trkpt lat="40.0497883" lon="9.4943463"><ele>708.0</ele><time>2026-04-22T10:14:51.63Z</time></trkpt><trkpt lat="40.0497321" lon="9.494299"><ele>710.0</ele><time>2026-04-22T10:14:53.619Z</time></trkpt><trkpt lat="40.0496487" lon="9.4943427"><ele>712.0</ele><time>2026-04-22T10:14:55.628Z</time></trkpt><trkpt lat="40.0495612" lon="9.4943533"><ele>714.0</ele><time>2026-04-22T10:14:57.61Z</time></trkpt><trkpt lat="40.0494932" lon="9.4943702"><ele>714.0</ele><time>2026-04-22T10:14:58.615Z</time></trkpt><trkpt lat="40.0494216" lon="9.4943952"><ele>714.0</ele><time>2026-04-22T10:14:59.622Z</time></trkpt><trkpt lat="40.0493472" lon="9.4944174"><ele>714.0</ele><time>2026-04-22T10:15:00.614Z</time></trkpt><trkpt lat="40.0492495" lon="9.4944667"><ele>714.0</ele><time>2026-04-22T10:15:02.619Z</time></trkpt><trkpt lat="40.0491776" lon="9.4944551"><ele>714.0</ele><time>2026-04-22T10:15:04.622Z</time></trkpt><trkpt lat="40.0491171" lon="9.4944023"><ele>714.0</ele><time>2026-04-22T10:15:06.612Z</time></trkpt><trkpt lat="40.0490711" lon="9.494346"><ele>714.0</ele><time>2026-04-22T10:15:25.641Z</time></trkpt><trkpt lat="40.0489973" lon="9.4942556"><ele>714.0</ele><time>2026-04-22T10:15:28.631Z</time></trkpt><trkpt lat="40.0490553" lon="9.4943034"><ele>714.0</ele><time>2026-04-22T10:16:53.635Z</time></trkpt><trkpt lat="40.0491282" lon="9.4943233"><ele>714.0</ele><time>2026-04-22T10:16:55.637Z</time></trkpt><trkpt lat="40.0492011" lon="9.4943385"><ele>714.0</ele><time>2026-04-22T10:16:57.636Z</time></trkpt><trkpt lat="40.0492763" lon="9.4943609"><ele>714.0</ele><time>2026-04-22T10:16:59.641Z</time></trkpt><trkpt lat="40.0493451" lon="9.4943633"><ele>714.0</ele><time>2026-04-22T10:17:16.634Z</time></trkpt><trkpt lat="40.0494143" lon="9.4943726"><ele>714.0</ele><time>2026-04-22T10:17:18.64Z</time></trkpt><trkpt lat="40.0495165" lon="9.4943965"><ele>714.0</ele><time>2026-04-22T10:17:20.643Z</time></trkpt><trkpt lat="40.0496256" lon="9.494419"><ele>714.0</ele><time>2026-04-22T10:17:22.632Z</time></trkpt><trkpt lat="40.0497011" lon="9.4944032"><ele>714.0</ele><time>2026-04-22T10:17:24.635Z</time></trkpt><trkpt lat="40.0497841" lon="9.4943461"><ele>714.0</ele><time>2026-04-22T10:17:26.632Z</time></trkpt><trkpt lat="40.0498648" lon="9.4942668"><ele>714.0</ele><time>2026-04-22T10:17:28.627Z</time></trkpt><trkpt lat="40.0499483" lon="9.4941572"><ele>714.0</ele><time>2026-04-22T10:17:30.625Z</time></trkpt><trkpt lat="40.0499584" lon="9.4940235"><ele>714.0</ele><time>2026-04-22T10:17:32.628Z</time></trkpt><trkpt lat="40.0499353" lon="9.4939119"><ele>714.0</ele><time>2026-04-22T10:17:34.638Z</time></trkpt><trkpt lat="40.049912" lon="9.4938351"><ele>714.0</ele><time>2026-04-22T10:18:16.644Z</time></trkpt><trkpt lat="40.0499201" lon="9.4937302"><ele>714.0</ele><time>2026-04-22T10:18:20.644Z</time></trkpt><trkpt lat="40.0498805" lon="9.4938266"><ele>714.0</ele><time>2026-04-22T10:18:32.632Z</time></trkpt><trkpt lat="40.0499077" lon="9.4939593"><ele>714.0</ele><time>2026-04-22T10:18:34.627Z</time></trkpt><trkpt lat="40.0499114" lon="9.4940463"><ele>714.0</ele><time>2026-04-22T10:18:35.621Z</time></trkpt><trkpt lat="40.0499129" lon="9.4941294"><ele>714.0</ele><time>2026-04-22T10:18:36.632Z</time></trkpt><trkpt lat="40.0498783" lon="9.4942689"><ele>714.0</ele><time>2026-04-22T10:18:38.624Z</time></trkpt><trkpt lat="40.0498101" lon="9.4943618"><ele>714.0</ele><time>2026-04-22T10:18:40.633Z</time></trkpt><trkpt lat="40.0497661" lon="9.4944786"><ele>714.0</ele><time>2026-04-22T10:18:42.633Z</time></trkpt><trkpt lat="40.0497339" lon="9.4946057"><ele>714.0</ele><time>2026-04-22T10:18:44.631Z</time></trkpt><trkpt lat="40.0496861" lon="9.4947193"><ele>714.0</ele><time>2026-04-22T10:18:46.628Z</time></trkpt><trkpt lat="40.0495906" lon="9.4947912"><ele>711.6</ele><time>2026-04-22T10:18:48.633Z</time></trkpt><trkpt lat="40.0494514" lon="9.4948098"><ele>709.2</ele><time>2026-04-22T10:18:50.633Z</time></trkpt><trkpt lat="40.0493873" lon="9.4947942"><ele>706.8000000000001</ele><time>2026-04-22T10:18:51.623Z</time></trkpt><trkpt lat="40.0492869" lon="9.4948096"><ele>704.4000000000001</ele><time>2026-04-22T10:18:53.626Z</time></trkpt><trkpt lat="40.0492578" lon="9.4949179"><ele>702.0</ele><time>2026-04-22T10:18:55.629Z</time></trkpt><trkpt lat="40.0492682" lon="9.4950072"><ele>702.0</ele><time>2026-04-22T10:18:56.626Z</time></trkpt><trkpt lat="40.0492822" lon="9.4951035"><ele>702.0</ele><time>2026-04-22T10:18:57.632Z</time></trkpt><trkpt lat="40.0493015" lon="9.4952134"><ele>702.0</ele><time>2026-04-22T10:18:58.634Z</time></trkpt><trkpt lat="40.0493224" lon="9.4953146"><ele>702.0</ele><time>2026-04-22T10:18:59.637Z</time></trkpt><trkpt lat="40.049332" lon="9.4954196"><ele>702.0</ele><time>2026-04-22T10:19:00.637Z</time></trkpt><trkpt lat="40.0493318" lon="9.4955201"><ele>702.0</ele><time>2026-04-22T10:19:01.637Z</time></trkpt><trkpt lat="40.0493289" lon="9.4956156"><ele>700.8333333333334</ele><time>2026-04-22T10:19:02.632Z</time></trkpt><trkpt lat="40.0493166" lon="9.4957094"><ele>699.6666666666666</ele><time>2026-04-22T10:19:03.637Z</time></trkpt><trkpt lat="40.0493011" lon="9.4958093"><ele>698.5</ele><time>2026-04-22T10:19:04.634Z</time></trkpt><trkpt lat="40.0492805" lon="9.4959002"><ele>697.3333333333333</ele><time>2026-04-22T10:19:05.632Z</time></trkpt><trkpt lat="40.049235" lon="9.4960479"><ele>696.1666666666666</ele><time>2026-04-22T10:19:07.632Z</time></trkpt><trkpt lat="40.0491923" lon="9.4961252"><ele>695.0</ele><time>2026-04-22T10:19:08.629Z</time></trkpt><trkpt lat="40.0491431" lon="9.4961993"><ele>698.3333333333333</ele><time>2026-04-22T10:19:09.633Z</time></trkpt><trkpt lat="40.049056" lon="9.4962455"><ele>701.6666666666666</ele><time>2026-04-22T10:19:10.628Z</time></trkpt><trkpt lat="40.0489718" lon="9.496287"><ele>705.0</ele><time>2026-04-22T10:19:11.628Z</time></trkpt><trkpt lat="40.0488877" lon="9.4963273"><ele>708.3333333333334</ele><time>2026-04-22T10:19:12.632Z</time></trkpt><trkpt lat="40.0488111" lon="9.4963701"><ele>711.6666666666667</ele><time>2026-04-22T10:19:13.631Z</time></trkpt><trkpt lat="40.0487408" lon="9.4964119"><ele>715.0</ele><time>2026-04-22T10:19:14.631Z</time></trkpt><trkpt lat="40.0486736" lon="9.4964614"><ele>715.0</ele><time>2026-04-22T10:19:15.63Z</time></trkpt><trkpt lat="40.0486153" lon="9.4965192"><ele>715.0</ele><time>2026-04-22T10:19:16.634Z</time></trkpt><trkpt lat="40.0485538" lon="9.4965888"><ele>715.0</ele><time>2026-04-22T10:19:17.626Z</time></trkpt><trkpt lat="40.0484882" lon="9.4966725"><ele>715.0</ele><time>2026-04-22T10:19:18.632Z</time></trkpt><trkpt lat="40.0484325" lon="9.4967465"><ele>715.0</ele><time>2026-04-22T10:19:19.626Z</time></trkpt><trkpt lat="40.0483829" lon="9.4968245"><ele>715.0</ele><time>2026-04-22T10:19:20.633Z</time></trkpt><trkpt lat="40.0483509" lon="9.4969032"><ele>715.0</ele><time>2026-04-22T10:19:21.627Z</time></trkpt><trkpt lat="40.0483429" lon="9.4969931"><ele>715.0</ele><time>2026-04-22T10:19:22.621Z</time></trkpt><trkpt lat="40.0484055" lon="9.4971501"><ele>715.0</ele><time>2026-04-22T10:19:24.629Z</time></trkpt><trkpt lat="40.0484296" lon="9.4972267"><ele>715.0</ele><time>2026-04-22T10:19:25.625Z</time></trkpt><trkpt lat="40.0484598" lon="9.4973217"><ele>715.0</ele><time>2026-04-22T10:19:26.629Z</time></trkpt><trkpt lat="40.0484707" lon="9.4974123"><ele>715.0</ele><time>2026-04-22T10:19:27.631Z</time></trkpt><trkpt lat="40.0484664" lon="9.4975135"><ele>713.6666666666667</ele><time>2026-04-22T10:19:28.636Z</time></trkpt><trkpt lat="40.0484606" lon="9.4976229"><ele>712.3333333333334</ele><time>2026-04-22T10:19:29.635Z</time></trkpt><trkpt lat="40.0484372" lon="9.4977279"><ele>711.0</ele><time>2026-04-22T10:19:30.632Z</time></trkpt><trkpt lat="40.0484284" lon="9.4978516"><ele>709.6666666666666</ele><time>2026-04-22T10:19:31.629Z</time></trkpt><trkpt lat="40.0484118" lon="9.4979525"><ele>708.3333333333333</ele><time>2026-04-22T10:19:32.626Z</time></trkpt><trkpt lat="40.0484012" lon="9.4980467"><ele>707.0</ele><time>2026-04-22T10:19:33.627Z</time></trkpt><trkpt lat="40.048397" lon="9.4981416"><ele>706.8333333333333</ele><time>2026-04-22T10:19:34.63Z</time></trkpt><trkpt lat="40.0484013" lon="9.4982426"><ele>706.6666666666666</ele><time>2026-04-22T10:19:35.63Z</time></trkpt><trkpt lat="40.048408" lon="9.4983503"><ele>706.5</ele><time>2026-04-22T10:19:36.623Z</time></trkpt><trkpt lat="40.0484095" lon="9.4984715"><ele>706.3333333333334</ele><time>2026-04-22T10:19:37.626Z</time></trkpt><trkpt lat="40.0484021" lon="9.4985861"><ele>706.1666666666667</ele><time>2026-04-22T10:19:38.626Z</time></trkpt><trkpt lat="40.0483871" lon="9.4986914"><ele>706.0</ele><time>2026-04-22T10:19:39.627Z</time></trkpt><trkpt lat="40.0483717" lon="9.4987883"><ele>706.6666666666667</ele><time>2026-04-22T10:19:40.628Z</time></trkpt><trkpt lat="40.0483548" lon="9.4988748"><ele>707.3333333333334</ele><time>2026-04-22T10:19:41.627Z</time></trkpt><trkpt lat="40.0482677" lon="9.4989867"><ele>708.0</ele><time>2026-04-22T10:19:43.623Z</time></trkpt><trkpt lat="40.0482074" lon="9.49902"><ele>708.6666666666666</ele><time>2026-04-22T10:19:44.629Z</time></trkpt><trkpt lat="40.0481459" lon="9.4990444"><ele>709.3333333333333</ele><time>2026-04-22T10:19:45.622Z</time></trkpt><trkpt lat="40.0480738" lon="9.4990538"><ele>710.0</ele><time>2026-04-22T10:19:46.624Z</time></trkpt><trkpt lat="40.0479988" lon="9.4990634"><ele>710.0</ele><time>2026-04-22T10:19:47.626Z</time></trkpt><trkpt lat="40.0479289" lon="9.4990968"><ele>710.0</ele><time>2026-04-22T10:19:48.629Z</time></trkpt><trkpt lat="40.0478464" lon="9.4991292"><ele>710.0</ele><time>2026-04-22T10:19:49.628Z</time></trkpt><trkpt lat="40.0477673" lon="9.4991873"><ele>710.0</ele><time>2026-04-22T10:19:50.629Z</time></trkpt><trkpt lat="40.0476921" lon="9.4992653"><ele>710.0</ele><time>2026-04-22T10:19:51.626Z</time></trkpt><trkpt lat="40.0476157" lon="9.4993481"><ele>710.0</ele><time>2026-04-22T10:19:52.623Z</time></trkpt><trkpt lat="40.0475328" lon="9.4994327"><ele>710.3333333333333</ele><time>2026-04-22T10:19:53.627Z</time></trkpt><trkpt lat="40.0474505" lon="9.4994958"><ele>710.6666666666666</ele><time>2026-04-22T10:19:54.63Z</time></trkpt><trkpt lat="40.0473742" lon="9.4995493"><ele>711.0</ele><time>2026-04-22T10:19:55.638Z</time></trkpt><trkpt lat="40.0472953" lon="9.4995955"><ele>711.3333333333334</ele><time>2026-04-22T10:19:56.634Z</time></trkpt><trkpt lat="40.0472145" lon="9.4996441"><ele>711.6666666666667</ele><time>2026-04-22T10:19:57.635Z</time></trkpt><trkpt lat="40.0471318" lon="9.4996908"><ele>712.0</ele><time>2026-04-22T10:19:58.641Z</time></trkpt><trkpt lat="40.0470477" lon="9.4997324"><ele>710.5</ele><time>2026-04-22T10:19:59.638Z</time></trkpt><trkpt lat="40.0469721" lon="9.4997626"><ele>709.0</ele><time>2026-04-22T10:20:00.638Z</time></trkpt><trkpt lat="40.0468888" lon="9.4997853"><ele>707.5</ele><time>2026-04-22T10:20:01.638Z</time></trkpt><trkpt lat="40.0468125" lon="9.4997856"><ele>706.0</ele><time>2026-04-22T10:20:02.635Z</time></trkpt><trkpt lat="40.0467379" lon="9.4997774"><ele>704.5</ele><time>2026-04-22T10:20:03.64Z</time></trkpt><trkpt lat="40.0466705" lon="9.4997585"><ele>703.0</ele><time>2026-04-22T10:20:04.641Z</time></trkpt><trkpt lat="40.0466082" lon="9.4997217"><ele>702.4</ele><time>2026-04-22T10:20:05.636Z</time></trkpt><trkpt lat="40.0465321" lon="9.4995973"><ele>701.8</ele><time>2026-04-22T10:20:07.634Z</time></trkpt><trkpt lat="40.0465053" lon="9.4995071"><ele>701.2</ele><time>2026-04-22T10:20:08.637Z</time></trkpt><trkpt lat="40.0464885" lon="9.4993996"><ele>700.6</ele><time>2026-04-22T10:20:09.644Z</time></trkpt><trkpt lat="40.0464604" lon="9.4993168"><ele>700.0</ele><time>2026-04-22T10:20:10.645Z</time></trkpt><trkpt lat="40.0464283" lon="9.4991862"><ele>699.4285714285714</ele><time>2026-04-22T10:20:12.64Z</time></trkpt><trkpt lat="40.046431" lon="9.4990917"><ele>698.8571428571429</ele><time>2026-04-22T10:20:14.645Z</time></trkpt><trkpt lat="40.0465201" lon="9.4991463"><ele>698.2857142857142</ele><time>2026-04-22T10:20:18.646Z</time></trkpt><trkpt lat="40.0465447" lon="9.4992288"><ele>697.7142857142858</ele><time>2026-04-22T10:20:19.643Z</time></trkpt><trkpt lat="40.0465759" lon="9.4993061"><ele>697.1428571428571</ele><time>2026-04-22T10:20:20.634Z</time></trkpt><trkpt lat="40.0466267" lon="9.4993655"><ele>696.5714285714286</ele><time>2026-04-22T10:20:21.631Z</time></trkpt><trkpt lat="40.0466885" lon="9.4993965"><ele>696.0</ele><time>2026-04-22T10:20:22.626Z</time></trkpt><trkpt lat="40.0468011" lon="9.4993416"><ele>698.2857142857142</ele><time>2026-04-22T10:20:24.63Z</time></trkpt><trkpt lat="40.0468378" lon="9.4992724"><ele>700.5714285714286</ele><time>2026-04-22T10:20:25.62Z</time></trkpt><trkpt lat="40.04687" lon="9.4991863"><ele>702.8571428571429</ele><time>2026-04-22T10:20:26.628Z</time></trkpt><trkpt lat="40.0469058" lon="9.4990967"><ele>705.1428571428571</ele><time>2026-04-22T10:20:27.625Z</time></trkpt><trkpt lat="40.0469405" lon="9.4990188"><ele>707.4285714285714</ele><time>2026-04-22T10:20:28.629Z</time></trkpt><trkpt lat="40.0469778" lon="9.4989344"><ele>709.7142857142857</ele><time>2026-04-22T10:20:29.622Z</time></trkpt><trkpt lat="40.0470149" lon="9.4988438"><ele>712.0</ele><time>2026-04-22T10:20:30.625Z</time></trkpt><trkpt lat="40.0470588" lon="9.4987575"><ele>711.6666666666667</ele><time>2026-04-22T10:20:31.623Z</time></trkpt><trkpt lat="40.0471145" lon="9.4986797"><ele>711.3333333333334</ele><time>2026-04-22T10:20:32.624Z</time></trkpt><trkpt lat="40.0471877" lon="9.498614"><ele>711.0</ele><time>2026-04-22T10:20:33.628Z</time></trkpt><trkpt lat="40.0472515" lon="9.4985428"><ele>710.6666666666666</ele><time>2026-04-22T10:20:34.627Z</time></trkpt><trkpt lat="40.0473081" lon="9.4984638"><ele>710.3333333333333</ele><time>2026-04-22T10:20:35.629Z</time></trkpt><trkpt lat="40.0473703" lon="9.498384"><ele>710.0</ele><time>2026-04-22T10:20:36.63Z</time></trkpt><trkpt lat="40.0474305" lon="9.4983062"><ele>710.2</ele><time>2026-04-22T10:20:37.634Z</time></trkpt><trkpt lat="40.0474801" lon="9.4982372"><ele>710.4</ele><time>2026-04-22T10:20:38.63Z</time></trkpt><trkpt lat="40.04753" lon="9.4981026"><ele>710.5999999999999</ele><time>2026-04-22T10:20:40.629Z</time></trkpt><trkpt lat="40.0474871" lon="9.497939"><ele>710.8</ele><time>2026-04-22T10:20:42.632Z</time></trkpt><trkpt lat="40.0474473" lon="9.4978449"><ele>711.0</ele><time>2026-04-22T10:20:43.634Z</time></trkpt><trkpt lat="40.0474088" lon="9.4977602"><ele>711.0</ele><time>2026-04-22T10:20:44.635Z</time></trkpt><trkpt lat="40.04737" lon="9.4976694"><ele>711.0</ele><time>2026-04-22T10:20:45.636Z</time></trkpt><trkpt lat="40.0473173" lon="9.4975726"><ele>711.0</ele><time>2026-04-22T10:20:46.633Z</time></trkpt><trkpt lat="40.047261" lon="9.4974732"><ele>711.0</ele><time>2026-04-22T10:20:47.631Z</time></trkpt><trkpt lat="40.0472128" lon="9.4973843"><ele>711.0</ele><time>2026-04-22T10:20:48.631Z</time></trkpt><trkpt lat="40.0471757" lon="9.4973045"><ele>711.0</ele><time>2026-04-22T10:20:49.634Z</time></trkpt><trkpt lat="40.0471372" lon="9.497147"><ele>710.8333333333334</ele><time>2026-04-22T10:20:51.63Z</time></trkpt><trkpt lat="40.0471407" lon="9.4970473"><ele>710.6666666666666</ele><time>2026-04-22T10:20:52.629Z</time></trkpt><trkpt lat="40.0471534" lon="9.4969383"><ele>710.5</ele><time>2026-04-22T10:20:53.624Z</time></trkpt><trkpt lat="40.0471821" lon="9.4968316"><ele>710.3333333333333</ele><time>2026-04-22T10:20:54.63Z</time></trkpt><trkpt lat="40.0472122" lon="9.4967158"><ele>710.1666666666666</ele><time>2026-04-22T10:20:55.63Z</time></trkpt><trkpt lat="40.0472512" lon="9.4966065"><ele>710.0</ele><time>2026-04-22T10:20:56.63Z</time></trkpt><trkpt lat="40.0473019" lon="9.4965006"><ele>710.0</ele><time>2026-04-22T10:20:57.636Z</time></trkpt><trkpt lat="40.0473425" lon="9.4963884"><ele>710.0</ele><time>2026-04-22T10:20:58.633Z</time></trkpt><trkpt lat="40.0473871" lon="9.4962802"><ele>710.0</ele><time>2026-04-22T10:20:59.635Z</time></trkpt><trkpt lat="40.0474206" lon="9.496192"><ele>710.0</ele><time>2026-04-22T10:21:00.628Z</time></trkpt><trkpt lat="40.0474539" lon="9.4961059"><ele>710.0</ele><time>2026-04-22T10:21:01.628Z</time></trkpt><trkpt lat="40.0474865" lon="9.4960154"><ele>710.0</ele><time>2026-04-22T10:21:02.625Z</time></trkpt><trkpt lat="40.0475099" lon="9.4959332"><ele>711.4</ele><time>2026-04-22T10:21:03.618Z</time></trkpt><trkpt lat="40.0475204" lon="9.4958503"><ele>712.8</ele><time>2026-04-22T10:21:04.62Z</time></trkpt><trkpt lat="40.0474741" lon="9.4956949"><ele>714.2</ele><time>2026-04-22T10:21:06.637Z</time></trkpt><trkpt lat="40.0474092" lon="9.4956337"><ele>715.6</ele><time>2026-04-22T10:21:07.635Z</time></trkpt><trkpt lat="40.047334" lon="9.4955762"><ele>717.0</ele><time>2026-04-22T10:21:08.637Z</time></trkpt><trkpt lat="40.0472519" lon="9.4955131"><ele>717.0</ele><time>2026-04-22T10:21:09.635Z</time></trkpt><trkpt lat="40.0471627" lon="9.4954503"><ele>717.0</ele><time>2026-04-22T10:21:10.639Z</time></trkpt><trkpt lat="40.047085" lon="9.495384"><ele>717.0</ele><time>2026-04-22T10:21:11.635Z</time></trkpt><trkpt lat="40.0470073" lon="9.4953264"><ele>717.0</ele><time>2026-04-22T10:21:12.637Z</time></trkpt><trkpt lat="40.0469177" lon="9.4952572"><ele>717.0</ele><time>2026-04-22T10:21:13.631Z</time></trkpt><trkpt lat="40.0468199" lon="9.4951782"><ele>718.6</ele><time>2026-04-22T10:21:14.634Z</time></trkpt><trkpt lat="40.0467325" lon="9.4951012"><ele>720.2</ele><time>2026-04-22T10:21:15.635Z</time></trkpt><trkpt lat="40.0466375" lon="9.4950324"><ele>721.8</ele><time>2026-04-22T10:21:16.633Z</time></trkpt><trkpt lat="40.0465441" lon="9.4949535"><ele>723.4</ele><time>2026-04-22T10:21:17.63Z</time></trkpt><trkpt lat="40.0464651" lon="9.4948712"><ele>725.0</ele><time>2026-04-22T10:21:18.631Z</time></trkpt><trkpt lat="40.0463943" lon="9.4947905"><ele>725.0</ele><time>2026-04-22T10:21:19.626Z</time></trkpt><trkpt lat="40.0463262" lon="9.4946878"><ele>725.0</ele><time>2026-04-22T10:21:20.628Z</time></trkpt><trkpt lat="40.0462708" lon="9.494543"><ele>725.0</ele><time>2026-04-22T10:21:21.629Z</time></trkpt><trkpt lat="40.0461993" lon="9.4944055"><ele>725.0</ele><time>2026-04-22T10:21:22.631Z</time></trkpt><trkpt lat="40.0461104" lon="9.4942908"><ele>731.0</ele><time>2026-04-22T10:21:23.629Z</time></trkpt><trkpt lat="40.046021" lon="9.4942016"><ele>737.0</ele><time>2026-04-22T10:21:24.638Z</time></trkpt><trkpt lat="40.0459254" lon="9.4941177"><ele>743.0</ele><time>2026-04-22T10:21:25.633Z</time></trkpt><trkpt lat="40.0458266" lon="9.4940435"><ele>749.0</ele><time>2026-04-22T10:21:26.629Z</time></trkpt><trkpt lat="40.0457367" lon="9.4939539"><ele>749.0</ele><time>2026-04-22T10:21:27.628Z</time></trkpt><trkpt lat="40.0456336" lon="9.4938675"><ele>749.0</ele><time>2026-04-22T10:21:28.634Z</time></trkpt><trkpt lat="40.0455212" lon="9.4938016"><ele>749.0</ele><time>2026-04-22T10:21:29.626Z</time></trkpt><trkpt lat="40.0453972" lon="9.4937504"><ele>749.0</ele><time>2026-04-22T10:21:30.629Z</time></trkpt><trkpt lat="40.0452793" lon="9.4937248"><ele>749.0</ele><time>2026-04-22T10:21:31.623Z</time></trkpt><trkpt lat="40.0451618" lon="9.4937323"><ele>749.0</ele><time>2026-04-22T10:21:32.623Z</time></trkpt><trkpt lat="40.0450388" lon="9.4937708"><ele>749.0</ele><time>2026-04-22T10:21:33.616Z</time></trkpt><trkpt lat="40.0449142" lon="9.493835"><ele>749.0</ele><time>2026-04-22T10:21:34.618Z</time></trkpt><trkpt lat="40.0448056" lon="9.4939397"><ele>753.75</ele><time>2026-04-22T10:21:35.626Z</time></trkpt><trkpt lat="40.0447068" lon="9.494042"><ele>758.5</ele><time>2026-04-22T10:21:36.622Z</time></trkpt><trkpt lat="40.0446112" lon="9.4941222"><ele>763.25</ele><time>2026-04-22T10:21:37.62Z</time></trkpt><trkpt lat="40.044493" lon="9.4941617"><ele>768.0</ele><time>2026-04-22T10:21:38.622Z</time></trkpt><trkpt lat="40.0443716" lon="9.4941666"><ele>768.0</ele><time>2026-04-22T10:21:39.614Z</time></trkpt><trkpt lat="40.0442517" lon="9.4941689"><ele>768.0</ele><time>2026-04-22T10:21:40.62Z</time></trkpt><trkpt lat="40.0441255" lon="9.4941857"><ele>768.0</ele><time>2026-04-22T10:21:41.618Z</time></trkpt><trkpt lat="40.0439932" lon="9.4942189"><ele>768.0</ele><time>2026-04-22T10:21:42.622Z</time></trkpt><trkpt lat="40.0438628" lon="9.4942446"><ele>771.25</ele><time>2026-04-22T10:21:43.623Z</time></trkpt><trkpt lat="40.0437415" lon="9.4942675"><ele>774.5</ele><time>2026-04-22T10:21:44.624Z</time></trkpt><trkpt lat="40.0436248" lon="9.494292"><ele>777.75</ele><time>2026-04-22T10:21:45.624Z</time></trkpt><trkpt lat="40.0435196" lon="9.4943296"><ele>781.0</ele><time>2026-04-22T10:21:46.627Z</time></trkpt><trkpt lat="40.0434152" lon="9.4943719"><ele>781.0</ele><time>2026-04-22T10:21:47.623Z</time></trkpt><trkpt lat="40.0433107" lon="9.4944117"><ele>781.0</ele><time>2026-04-22T10:21:48.625Z</time></trkpt><trkpt lat="40.0432115" lon="9.4944466"><ele>781.0</ele><time>2026-04-22T10:21:49.631Z</time></trkpt><trkpt lat="40.0431212" lon="9.4944749"><ele>781.0</ele><time>2026-04-22T10:21:50.624Z</time></trkpt><trkpt lat="40.0430499" lon="9.4944714"><ele>781.0</ele><time>2026-04-22T10:21:51.624Z</time></trkpt><trkpt lat="40.0429723" lon="9.4943809"><ele>777.4999999999999</ele><time>2026-04-22T10:21:53.627Z</time></trkpt><trkpt lat="40.0429211" lon="9.4942605"><ele>774.0</ele><time>2026-04-22T10:21:55.639Z</time></trkpt><trkpt lat="40.042843" lon="9.4941453"><ele>770.5</ele><time>2026-04-22T10:21:57.637Z</time></trkpt><trkpt lat="40.042816" lon="9.4940673"><ele>767.0</ele><time>2026-04-22T10:21:58.638Z</time></trkpt><trkpt lat="40.042794" lon="9.493986"><ele>763.5</ele><time>2026-04-22T10:21:59.641Z</time></trkpt><trkpt lat="40.0427627" lon="9.4938976"><ele>760.0</ele><time>2026-04-22T10:22:00.634Z</time></trkpt><trkpt lat="40.0427289" lon="9.4938019"><ele>763.4</ele><time>2026-04-22T10:22:01.635Z</time></trkpt><trkpt lat="40.042694" lon="9.4937113"><ele>766.8</ele><time>2026-04-22T10:22:02.635Z</time></trkpt><trkpt lat="40.0426617" lon="9.4936399"><ele>770.2</ele><time>2026-04-22T10:22:03.634Z</time></trkpt><trkpt lat="40.0426011" lon="9.4935048"><ele>773.6</ele><time>2026-04-22T10:22:05.632Z</time></trkpt><trkpt lat="40.0425575" lon="9.4933775"><ele>777.0</ele><time>2026-04-22T10:22:07.629Z</time></trkpt><trkpt lat="40.0425129" lon="9.4932733"><ele>777.0</ele><time>2026-04-22T10:22:36.641Z</time></trkpt><trkpt lat="40.0424916" lon="9.4931906"><ele>777.0</ele><time>2026-04-22T10:22:37.64Z</time></trkpt><trkpt lat="40.0424742" lon="9.4930868"><ele>777.0</ele><time>2026-04-22T10:22:38.638Z</time></trkpt><trkpt lat="40.0424585" lon="9.4929871"><ele>777.0</ele><time>2026-04-22T10:22:39.632Z</time></trkpt><trkpt lat="40.0424447" lon="9.4928842"><ele>777.0</ele><time>2026-04-22T10:22:40.635Z</time></trkpt><trkpt lat="40.042439" lon="9.4927902"><ele>777.0</ele><time>2026-04-22T10:22:41.64Z</time></trkpt><trkpt lat="40.0424372" lon="9.492698"><ele>777.0</ele><time>2026-04-22T10:22:42.634Z</time></trkpt><trkpt lat="40.0424208" lon="9.4925375"><ele>777.6</ele><time>2026-04-22T10:22:44.636Z</time></trkpt><trkpt lat="40.0424105" lon="9.4924501"><ele>778.2</ele><time>2026-04-22T10:22:45.637Z</time></trkpt><trkpt lat="40.0424024" lon="9.4923134"><ele>778.8</ele><time>2026-04-22T10:22:47.639Z</time></trkpt><trkpt lat="40.0424089" lon="9.492184"><ele>779.4</ele><time>2026-04-22T10:22:49.635Z</time></trkpt><trkpt lat="40.0423856" lon="9.4920391"><ele>780.0</ele><time>2026-04-22T10:22:51.634Z</time></trkpt><trkpt lat="40.0423617" lon="9.4919206"><ele>780.0</ele><time>2026-04-22T10:22:53.633Z</time></trkpt><trkpt lat="40.0423223" lon="9.4918555"><ele>780.0</ele><time>2026-04-22T10:22:54.636Z</time></trkpt><trkpt lat="40.0422832" lon="9.4917878"><ele>780.0</ele><time>2026-04-22T10:22:55.633Z</time></trkpt><trkpt lat="40.042243" lon="9.4917126"><ele>780.0</ele><time>2026-04-22T10:22:56.631Z</time></trkpt><trkpt lat="40.0421859" lon="9.4915723"><ele>780.0</ele><time>2026-04-22T10:22:58.631Z</time></trkpt><trkpt lat="40.0421759" lon="9.4914455"><ele>780.0</ele><time>2026-04-22T10:23:00.632Z</time></trkpt><trkpt lat="40.0421749" lon="9.4913603"><ele>780.0</ele><time>2026-04-22T10:23:01.634Z</time></trkpt><trkpt lat="40.0421696" lon="9.4912674"><ele>780.0</ele><time>2026-04-22T10:23:02.634Z</time></trkpt><trkpt lat="40.0421661" lon="9.4911831"><ele>780.0</ele><time>2026-04-22T10:23:03.641Z</time></trkpt><trkpt lat="40.0421596" lon="9.4910953"><ele>780.0</ele><time>2026-04-22T10:23:04.639Z</time></trkpt><trkpt lat="40.0421586" lon="9.4910044"><ele>780.0</ele><time>2026-04-22T10:23:05.639Z</time></trkpt><trkpt lat="40.0421649" lon="9.4909165"><ele>780.0</ele><time>2026-04-22T10:23:06.639Z</time></trkpt><trkpt lat="40.0421666" lon="9.4908328"><ele>780.0</ele><time>2026-04-22T10:23:07.637Z</time></trkpt><trkpt lat="40.042169" lon="9.4906899"><ele>783.3333333333334</ele><time>2026-04-22T10:23:09.637Z</time></trkpt><trkpt lat="40.0421926" lon="9.4905801"><ele>786.6666666666667</ele><time>2026-04-22T10:23:11.642Z</time></trkpt><trkpt lat="40.0422318" lon="9.4904712"><ele>790.0</ele><time>2026-04-22T10:23:13.638Z</time></trkpt><trkpt lat="40.0422397" lon="9.4903896"><ele>793.3333333333334</ele><time>2026-04-22T10:23:15.633Z</time></trkpt><trkpt lat="40.0421703" lon="9.490304"><ele>796.6666666666667</ele><time>2026-04-22T10:23:18.639Z</time></trkpt><trkpt lat="40.0420941" lon="9.4903053"><ele>800.0</ele><time>2026-04-22T10:23:20.628Z</time></trkpt><trkpt lat="40.041991" lon="9.4903607"><ele>803.6</ele><time>2026-04-22T10:23:22.633Z</time></trkpt><trkpt lat="40.0418837" lon="9.4903954"><ele>807.2</ele><time>2026-04-22T10:23:24.639Z</time></trkpt><trkpt lat="40.0417825" lon="9.4904041"><ele>810.8</ele><time>2026-04-22T10:23:26.644Z</time></trkpt><trkpt lat="40.0417185" lon="9.4903471"><ele>814.4</ele><time>2026-04-22T10:23:27.646Z</time></trkpt><trkpt lat="40.0416558" lon="9.4902856"><ele>818.0</ele><time>2026-04-22T10:23:28.642Z</time></trkpt><trkpt lat="40.0415907" lon="9.4902073"><ele>812.0000000000001</ele><time>2026-04-22T10:23:29.643Z</time></trkpt><trkpt lat="40.0415313" lon="9.4901298"><ele>806.0</ele><time>2026-04-22T10:23:30.631Z</time></trkpt><trkpt lat="40.0414794" lon="9.4900465"><ele>800.0</ele><time>2026-04-22T10:23:31.639Z</time></trkpt><trkpt lat="40.0414395" lon="9.4899653"><ele>794.0</ele><time>2026-04-22T10:23:32.646Z</time></trkpt><trkpt lat="40.0414063" lon="9.4898791"><ele>788.0000000000001</ele><time>2026-04-22T10:23:33.642Z</time></trkpt><trkpt lat="40.0413759" lon="9.4898034"><ele>782.0</ele><time>2026-04-22T10:23:34.642Z</time></trkpt><trkpt lat="40.0413225" lon="9.4897053"><ele>785.6</ele><time>2026-04-22T10:23:36.638Z</time></trkpt><trkpt lat="40.0413073" lon="9.4895478"><ele>789.2</ele><time>2026-04-22T10:23:38.635Z</time></trkpt><trkpt lat="40.0413015" lon="9.4894015"><ele>792.8</ele><time>2026-04-22T10:23:40.636Z</time></trkpt><trkpt lat="40.0412934" lon="9.4892645"><ele>796.4</ele><time>2026-04-22T10:23:42.639Z</time></trkpt><trkpt lat="40.0412542" lon="9.489135"><ele>800.0</ele><time>2026-04-22T10:23:44.635Z</time></trkpt><trkpt lat="40.0412172" lon="9.4890683"><ele>800.0000000000001</ele><time>2026-04-22T10:23:45.635Z</time></trkpt><trkpt lat="40.0411737" lon="9.4890061"><ele>800.0</ele><time>2026-04-22T10:23:46.636Z</time></trkpt><trkpt lat="40.0411177" lon="9.4889434"><ele>800.0</ele><time>2026-04-22T10:23:47.634Z</time></trkpt><trkpt lat="40.0410667" lon="9.4888872"><ele>800.0</ele><time>2026-04-22T10:23:48.635Z</time></trkpt><trkpt lat="40.0410167" lon="9.4888158"><ele>800.0</ele><time>2026-04-22T10:23:49.635Z</time></trkpt><trkpt lat="40.0409579" lon="9.4887527"><ele>800.0000000000001</ele><time>2026-04-22T10:23:50.638Z</time></trkpt><trkpt lat="40.0409048" lon="9.4887032"><ele>800.0</ele><time>2026-04-22T10:23:51.636Z</time></trkpt><trkpt lat="40.0408241" lon="9.4885924"><ele>800.2857142857143</ele><time>2026-04-22T10:23:53.643Z</time></trkpt><trkpt lat="40.0407777" lon="9.4885354"><ele>800.5714285714286</ele><time>2026-04-22T10:23:54.64Z</time></trkpt><trkpt lat="40.0407303" lon="9.4884785"><ele>800.8571428571429</ele><time>2026-04-22T10:23:55.643Z</time></trkpt><trkpt lat="40.0406886" lon="9.4883983"><ele>801.1428571428571</ele><time>2026-04-22T10:23:56.639Z</time></trkpt><trkpt lat="40.0406496" lon="9.4883234"><ele>801.4285714285714</ele><time>2026-04-22T10:23:57.64Z</time></trkpt><trkpt lat="40.0406039" lon="9.4882607"><ele>801.7142857142858</ele><time>2026-04-22T10:23:58.64Z</time></trkpt><trkpt lat="40.0405469" lon="9.4882088"><ele>802.0</ele><time>2026-04-22T10:23:59.639Z</time></trkpt><trkpt lat="40.0404927" lon="9.4881537"><ele>802.0</ele><time>2026-04-22T10:24:00.64Z</time></trkpt><trkpt lat="40.0404485" lon="9.4880907"><ele>802.0</ele><time>2026-04-22T10:24:01.641Z</time></trkpt><trkpt lat="40.0403684" lon="9.4879929"><ele>802.0</ele><time>2026-04-22T10:24:03.642Z</time></trkpt><trkpt lat="40.0402928" lon="9.4878933"><ele>802.0</ele><time>2026-04-22T10:24:05.643Z</time></trkpt><trkpt lat="40.040234" lon="9.4877636"><ele>802.0</ele><time>2026-04-22T10:24:07.647Z</time></trkpt><trkpt lat="40.0401933" lon="9.4876474"><ele>803.6</ele><time>2026-04-22T10:24:09.643Z</time></trkpt><trkpt lat="40.0401837" lon="9.4875033"><ele>805.2</ele><time>2026-04-22T10:24:11.648Z</time></trkpt><trkpt lat="40.040178" lon="9.4874208"><ele>806.8</ele><time>2026-04-22T10:24:12.649Z</time></trkpt><trkpt lat="40.0401771" lon="9.4872856"><ele>808.4</ele><time>2026-04-22T10:24:14.644Z</time></trkpt><trkpt lat="40.0402182" lon="9.4871613"><ele>810.0</ele><time>2026-04-22T10:24:16.64Z</time></trkpt><trkpt lat="40.0402682" lon="9.4870233"><ele>810.0</ele><time>2026-04-22T10:24:18.64Z</time></trkpt><trkpt lat="40.0402922" lon="9.4869361"><ele>810.0</ele><time>2026-04-22T10:24:19.639Z</time></trkpt><trkpt lat="40.0403169" lon="9.4868477"><ele>810.0</ele><time>2026-04-22T10:24:20.638Z</time></trkpt><trkpt lat="40.0403476" lon="9.4867623"><ele>810.0</ele><time>2026-04-22T10:24:21.638Z</time></trkpt><trkpt lat="40.0403768" lon="9.4866786"><ele>810.0</ele><time>2026-04-22T10:24:22.639Z</time></trkpt><trkpt lat="40.0404007" lon="9.4866021"><ele>810.0</ele><time>2026-04-22T10:24:23.632Z</time></trkpt><trkpt lat="40.0404416" lon="9.4864489"><ele>810.0</ele><time>2026-04-22T10:24:25.625Z</time></trkpt><trkpt lat="40.0404948" lon="9.4862962"><ele>810.0</ele><time>2026-04-22T10:24:27.624Z</time></trkpt><trkpt lat="40.0405234" lon="9.4862056"><ele>810.0</ele><time>2026-04-22T10:24:28.626Z</time></trkpt><trkpt lat="40.0405513" lon="9.4861189"><ele>810.0</ele><time>2026-04-22T10:24:29.627Z</time></trkpt><trkpt lat="40.0405851" lon="9.486042"><ele>810.0</ele><time>2026-04-22T10:24:30.623Z</time></trkpt><trkpt lat="40.040616" lon="9.4859686"><ele>810.0</ele><time>2026-04-22T10:24:31.628Z</time></trkpt><trkpt lat="40.0406762" lon="9.4858262"><ele>810.2</ele><time>2026-04-22T10:24:33.63Z</time></trkpt><trkpt lat="40.0407577" lon="9.4857294"><ele>810.4</ele><time>2026-04-22T10:24:35.628Z</time></trkpt><trkpt lat="40.0408552" lon="9.4856332"><ele>810.5999999999999</ele><time>2026-04-22T10:24:37.625Z</time></trkpt><trkpt lat="40.0409106" lon="9.485582"><ele>810.8</ele><time>2026-04-22T10:24:38.63Z</time></trkpt><trkpt lat="40.0409712" lon="9.4855358"><ele>811.0</ele><time>2026-04-22T10:24:39.628Z</time></trkpt><trkpt lat="40.0410526" lon="9.4854558"><ele>818.3333333333333</ele><time>2026-04-22T10:24:41.625Z</time></trkpt><trkpt lat="40.0410921" lon="9.4853794"><ele>825.6666666666666</ele><time>2026-04-22T10:24:43.631Z</time></trkpt><trkpt lat="40.0410256" lon="9.4853118"><ele>833.0</ele><time>2026-04-22T11:08:52.631Z</time></trkpt><trkpt lat="40.0409716" lon="9.4852569"><ele>840.3333333333333</ele><time>2026-04-22T11:08:54.631Z</time></trkpt><trkpt lat="40.0409366" lon="9.4851638"><ele>847.6666666666666</ele><time>2026-04-22T11:08:58.62Z</time></trkpt><trkpt lat="40.0408768" lon="9.4851287"><ele>855.0</ele><time>2026-04-22T11:13:09.622Z</time></trkpt><trkpt lat="40.0408522" lon="9.4850123"><ele>849.5</ele><time>2026-04-22T11:20:18.622Z</time></trkpt><trkpt lat="40.0407665" lon="9.4848769"><ele>844.0</ele><time>2026-04-22T11:20:20.622Z</time></trkpt><trkpt lat="40.0406828" lon="9.4847616"><ele>838.5</ele><time>2026-04-22T11:20:22.622Z</time></trkpt><trkpt lat="40.0405944" lon="9.4846851"><ele>833.0</ele><time>2026-04-22T11:20:24.622Z</time></trkpt><trkpt lat="40.0405109" lon="9.484606"><ele>840.0</ele><time>2026-04-22T11:20:26.623Z</time></trkpt><trkpt lat="40.0404597" lon="9.4844773"><ele>847.0</ele><time>2026-04-22T11:20:28.623Z</time></trkpt><trkpt lat="40.0404267" lon="9.4843753"><ele>854.0</ele><time>2026-04-22T11:20:30.621Z</time></trkpt><trkpt lat="40.0403463" lon="9.4843819"><ele>861.0</ele><time>2026-04-22T11:20:33.625Z</time></trkpt><trkpt lat="40.040275" lon="9.4844505"><ele>868.0</ele><time>2026-04-22T11:20:35.616Z</time></trkpt><trkpt lat="40.0402025" lon="9.4845538"><ele>866.0</ele><time>2026-04-22T11:20:37.609Z</time></trkpt><trkpt lat="40.0401035" lon="9.4846504"><ele>864.0</ele><time>2026-04-22T11:20:39.617Z</time></trkpt><trkpt lat="40.0400152" lon="9.4846646"><ele>862.0</ele><time>2026-04-22T11:20:41.615Z</time></trkpt><trkpt lat="40.0399514" lon="9.4846394"><ele>860.0</ele><time>2026-04-22T11:20:42.622Z</time></trkpt><trkpt lat="40.0398358" lon="9.4845753"><ele>858.0</ele><time>2026-04-22T11:20:44.613Z</time></trkpt><trkpt lat="40.0397681" lon="9.4845615"><ele>858.0</ele><time>2026-04-22T11:20:45.615Z</time></trkpt><trkpt lat="40.0396555" lon="9.4845533"><ele>858.0</ele><time>2026-04-22T11:20:47.61Z</time></trkpt><trkpt lat="40.0395614" lon="9.4845426"><ele>858.0</ele><time>2026-04-22T11:20:49.613Z</time></trkpt><trkpt lat="40.0394757" lon="9.4844775"><ele>858.0</ele><time>2026-04-22T11:20:51.618Z</time></trkpt><trkpt lat="40.0394028" lon="9.4843914"><ele>858.0</ele><time>2026-04-22T11:20:53.618Z</time></trkpt><trkpt lat="40.0393233" lon="9.484297"><ele>858.0</ele><time>2026-04-22T11:20:55.618Z</time></trkpt><trkpt lat="40.0392287" lon="9.4842516"><ele>858.0</ele><time>2026-04-22T11:20:57.614Z</time></trkpt><trkpt lat="40.0391367" lon="9.4842659"><ele>858.0</ele><time>2026-04-22T11:20:59.614Z</time></trkpt><trkpt lat="40.039066" lon="9.4842476"><ele>858.0</ele><time>2026-04-22T11:21:01.62Z</time></trkpt><trkpt lat="40.0389845" lon="9.484214"><ele>858.0</ele><time>2026-04-22T11:21:03.613Z</time></trkpt><trkpt lat="40.0389176" lon="9.4841341"><ele>858.0</ele><time>2026-04-22T11:21:05.618Z</time></trkpt><trkpt lat="40.0388353" lon="9.4840275"><ele>860.2</ele><time>2026-04-22T11:21:07.607Z</time></trkpt><trkpt lat="40.0388049" lon="9.4839423"><ele>862.4</ele><time>2026-04-22T11:21:08.626Z</time></trkpt><trkpt lat="40.0387435" lon="9.4838793"><ele>864.6000000000001</ele><time>2026-04-22T11:21:09.62Z</time></trkpt><trkpt lat="40.0386632" lon="9.4837524"><ele>866.8000000000001</ele><time>2026-04-22T11:21:11.622Z</time></trkpt><trkpt lat="40.0385908" lon="9.4836389"><ele>869.0</ele><time>2026-04-22T11:21:13.634Z</time></trkpt><trkpt lat="40.0385443" lon="9.4835208"><ele>869.0</ele><time>2026-04-22T11:21:15.631Z</time></trkpt><trkpt lat="40.0385027" lon="9.4833968"><ele>869.0000000000001</ele><time>2026-04-22T11:21:17.625Z</time></trkpt><trkpt lat="40.0384651" lon="9.4832721"><ele>869.0000000000001</ele><time>2026-04-22T11:21:19.634Z</time></trkpt><trkpt lat="40.0384587" lon="9.4831893"><ele>869.0</ele><time>2026-04-22T11:21:21.632Z</time></trkpt><trkpt lat="40.0384699" lon="9.4830825"><ele>869.0</ele><time>2026-04-22T11:21:23.63Z</time></trkpt><trkpt lat="40.0384646" lon="9.4829468"><ele>869.0000000000001</ele><time>2026-04-22T11:21:25.628Z</time></trkpt><trkpt lat="40.03844" lon="9.4828398"><ele>869.0</ele><time>2026-04-22T11:21:27.63Z</time></trkpt><trkpt lat="40.0383406" lon="9.4828337"><ele>869.0</ele><time>2026-04-22T11:21:30.623Z</time></trkpt><trkpt lat="40.0382529" lon="9.4828927"><ele>869.0</ele><time>2026-04-22T11:21:32.626Z</time></trkpt><trkpt lat="40.0381663" lon="9.4829512"><ele>869.0000000000001</ele><time>2026-04-22T11:21:34.631Z</time></trkpt><trkpt lat="40.0381022" lon="9.4829645"><ele>869.0</ele><time>2026-04-22T11:21:36.628Z</time></trkpt><trkpt lat="40.0380095" lon="9.4829388"><ele>869.0000000000001</ele><time>2026-04-22T11:22:01.626Z</time></trkpt><trkpt lat="40.037898" lon="9.482931"><ele>869.0</ele><time>2026-04-22T11:22:03.621Z</time></trkpt><trkpt lat="40.0378035" lon="9.4829313"><ele>869.0</ele><time>2026-04-22T11:22:04.62Z</time></trkpt><trkpt lat="40.0377363" lon="9.4829069"><ele>869.0</ele><time>2026-04-22T11:22:05.617Z</time></trkpt><trkpt lat="40.037657" lon="9.4828997"><ele>869.0000000000001</ele><time>2026-04-22T11:22:06.619Z</time></trkpt><trkpt lat="40.0375831" lon="9.4829049"><ele>869.0</ele><time>2026-04-22T11:22:07.622Z</time></trkpt><trkpt lat="40.0375097" lon="9.4829054"><ele>870.5000000000001</ele><time>2026-04-22T11:22:08.627Z</time></trkpt><trkpt lat="40.0374327" lon="9.4829081"><ele>872.0</ele><time>2026-04-22T11:22:09.621Z</time></trkpt><trkpt lat="40.0373603" lon="9.4829201"><ele>873.5</ele><time>2026-04-22T11:22:10.617Z</time></trkpt><trkpt lat="40.0372844" lon="9.4829326"><ele>875.0</ele><time>2026-04-22T11:22:11.621Z</time></trkpt><trkpt lat="40.0372175" lon="9.4829383"><ele>876.5000000000001</ele><time>2026-04-22T11:22:12.621Z</time></trkpt><trkpt lat="40.0371472" lon="9.4829311"><ele>878.0</ele><time>2026-04-22T11:22:13.617Z</time></trkpt><trkpt lat="40.037024" lon="9.4829136"><ele>881.5000000000001</ele><time>2026-04-22T11:22:15.628Z</time></trkpt><trkpt lat="40.0369594" lon="9.4829105"><ele>885.0</ele><time>2026-04-22T11:22:16.624Z</time></trkpt><trkpt lat="40.0368892" lon="9.4828937"><ele>888.5</ele><time>2026-04-22T11:22:17.626Z</time></trkpt><trkpt lat="40.0368156" lon="9.4828963"><ele>892.0</ele><time>2026-04-22T11:22:18.622Z</time></trkpt><trkpt lat="40.0366968" lon="9.4829234"><ele>895.5000000000001</ele><time>2026-04-22T11:22:20.615Z</time></trkpt><trkpt lat="40.0366191" lon="9.4829393"><ele>899.0</ele><time>2026-04-22T11:22:21.617Z</time></trkpt><trkpt lat="40.0365521" lon="9.4829806"><ele>899.0</ele><time>2026-04-22T11:22:22.622Z</time></trkpt><trkpt lat="40.0364705" lon="9.4830539"><ele>899.0000000000001</ele><time>2026-04-22T11:22:24.623Z</time></trkpt><trkpt lat="40.036375" lon="9.4831113"><ele>899.0000000000001</ele><time>2026-04-22T11:22:26.612Z</time></trkpt><trkpt lat="40.0362729" lon="9.4831217"><ele>899.0</ele><time>2026-04-22T11:22:28.616Z</time></trkpt><trkpt lat="40.0361779" lon="9.4831761"><ele>899.0</ele><time>2026-04-22T11:22:30.622Z</time></trkpt><trkpt lat="40.0360698" lon="9.4832262"><ele>898.9999999999999</ele><time>2026-04-22T11:22:32.617Z</time></trkpt><trkpt lat="40.0359678" lon="9.4832621"><ele>899.0</ele><time>2026-04-22T11:22:34.617Z</time></trkpt><trkpt lat="40.0358997" lon="9.4832946"><ele>898.9999999999999</ele><time>2026-04-22T11:22:35.614Z</time></trkpt><trkpt lat="40.0358397" lon="9.483337"><ele>898.9999999999999</ele><time>2026-04-22T11:22:36.612Z</time></trkpt><trkpt lat="40.0357836" lon="9.4833744"><ele>899.0</ele><time>2026-04-22T11:22:37.616Z</time></trkpt><trkpt lat="40.0357163" lon="9.4833905"><ele>898.9999999999999</ele><time>2026-04-22T11:22:38.619Z</time></trkpt><trkpt lat="40.0356626" lon="9.4834353"><ele>898.9999999999999</ele><time>2026-04-22T11:22:39.618Z</time></trkpt><trkpt lat="40.0355763" lon="9.4835425"><ele>901.0000000000001</ele><time>2026-04-22T11:22:41.62Z</time></trkpt><trkpt lat="40.0355197" lon="9.4836383"><ele>903.0</ele><time>2026-04-22T11:22:43.627Z</time></trkpt><trkpt lat="40.0354943" lon="9.4837352"><ele>905.0</ele><time>2026-04-22T11:22:45.621Z</time></trkpt><trkpt lat="40.0354714" lon="9.4838159"><ele>907.0</ele><time>2026-04-22T11:22:46.622Z</time></trkpt><trkpt lat="40.03542" lon="9.4839731"><ele>909.0000000000001</ele><time>2026-04-22T11:22:48.622Z</time></trkpt><trkpt lat="40.0353844" lon="9.4840637"><ele>911.0</ele><time>2026-04-22T11:22:49.616Z</time></trkpt><trkpt lat="40.0353555" lon="9.4841639"><ele>911.0000000000001</ele><time>2026-04-22T11:22:50.616Z</time></trkpt><trkpt lat="40.0353431" lon="9.484249"><ele>911.0</ele><time>2026-04-22T11:22:51.623Z</time></trkpt><trkpt lat="40.0352695" lon="9.4843372"><ele>911.0</ele><time>2026-04-22T11:22:53.62Z</time></trkpt><trkpt lat="40.0351661" lon="9.4843234"><ele>911.0</ele><time>2026-04-22T11:22:55.631Z</time></trkpt><trkpt lat="40.0350921" lon="9.484317"><ele>911.0000000000001</ele><time>2026-04-22T11:22:56.629Z</time></trkpt><trkpt lat="40.0350226" lon="9.4843194"><ele>911.0</ele><time>2026-04-22T11:22:57.624Z</time></trkpt><trkpt lat="40.0349473" lon="9.4843143"><ele>913.0000000000001</ele><time>2026-04-22T11:22:58.625Z</time></trkpt><trkpt lat="40.0348706" lon="9.4843368"><ele>915.0</ele><time>2026-04-22T11:22:59.623Z</time></trkpt><trkpt lat="40.0347934" lon="9.4843562"><ele>917.0</ele><time>2026-04-22T11:23:00.626Z</time></trkpt><trkpt lat="40.0347307" lon="9.4843933"><ele>919.0</ele><time>2026-04-22T11:23:01.628Z</time></trkpt><trkpt lat="40.034652" lon="9.4844357"><ele>921.0000000000001</ele><time>2026-04-22T11:23:02.624Z</time></trkpt><trkpt lat="40.0345756" lon="9.4844827"><ele>923.0</ele><time>2026-04-22T11:23:03.626Z</time></trkpt><trkpt lat="40.034511" lon="9.4845084"><ele>923.0000000000001</ele><time>2026-04-22T11:23:04.624Z</time></trkpt><trkpt lat="40.034446" lon="9.4845238"><ele>923.0</ele><time>2026-04-22T11:23:05.626Z</time></trkpt><trkpt lat="40.0343799" lon="9.484543"><ele>923.0</ele><time>2026-04-22T11:23:06.62Z</time></trkpt><trkpt lat="40.0343141" lon="9.4845606"><ele>923.0</ele><time>2026-04-22T11:23:07.626Z</time></trkpt><trkpt lat="40.0341913" lon="9.4846059"><ele>923.0000000000001</ele><time>2026-04-22T11:23:09.624Z</time></trkpt><trkpt lat="40.0341254" lon="9.4846494"><ele>923.0</ele><time>2026-04-22T11:23:10.625Z</time></trkpt><trkpt lat="40.0340698" lon="9.4847033"><ele>919.8</ele><time>2026-04-22T11:23:11.628Z</time></trkpt><trkpt lat="40.0340142" lon="9.48475"><ele>916.5999999999999</ele><time>2026-04-22T11:23:12.622Z</time></trkpt><trkpt lat="40.0339275" lon="9.4848364"><ele>913.4000000000001</ele><time>2026-04-22T11:23:14.626Z</time></trkpt><trkpt lat="40.0338401" lon="9.4849034"><ele>910.2</ele><time>2026-04-22T11:23:16.623Z</time></trkpt><trkpt lat="40.0337235" lon="9.4849202"><ele>907.0</ele><time>2026-04-22T11:23:18.629Z</time></trkpt><trkpt lat="40.0336353" lon="9.4849022"><ele>906.9999999999999</ele><time>2026-04-22T11:23:19.627Z</time></trkpt><trkpt lat="40.0335598" lon="9.484887"><ele>907.0</ele><time>2026-04-22T11:23:20.626Z</time></trkpt><trkpt lat="40.0334922" lon="9.4848793"><ele>907.0</ele><time>2026-04-22T11:23:21.628Z</time></trkpt><trkpt lat="40.0334235" lon="9.4849057"><ele>907.0</ele><time>2026-04-22T11:23:22.628Z</time></trkpt><trkpt lat="40.0333317" lon="9.4849531"><ele>906.9999999999999</ele><time>2026-04-22T11:23:24.625Z</time></trkpt><trkpt lat="40.0333051" lon="9.4850333"><ele>907.0</ele><time>2026-04-22T11:23:26.622Z</time></trkpt><trkpt lat="40.0332962" lon="9.4851407"><ele>904.8</ele><time>2026-04-22T11:23:28.623Z</time></trkpt><trkpt lat="40.0332999" lon="9.4852798"><ele>902.6</ele><time>2026-04-22T11:23:30.618Z</time></trkpt><trkpt lat="40.0333128" lon="9.4854355"><ele>900.3999999999999</ele><time>2026-04-22T11:23:32.622Z</time></trkpt><trkpt lat="40.0333181" lon="9.4855232"><ele>898.1999999999999</ele><time>2026-04-22T11:23:33.62Z</time></trkpt><trkpt lat="40.0333138" lon="9.4856121"><ele>896.0</ele><time>2026-04-22T11:23:34.624Z</time></trkpt><trkpt lat="40.0333067" lon="9.4857646"><ele>896.0000000000001</ele><time>2026-04-22T11:23:36.621Z</time></trkpt><trkpt lat="40.0333074" lon="9.4859121"><ele>896.0</ele><time>2026-04-22T11:23:38.616Z</time></trkpt><trkpt lat="40.0333367" lon="9.4860498"><ele>896.0</ele><time>2026-04-22T11:23:40.622Z</time></trkpt><trkpt lat="40.0333637" lon="9.4861377"><ele>896.0</ele><time>2026-04-22T11:23:41.625Z</time></trkpt><trkpt lat="40.0333846" lon="9.4862315"><ele>896.0000000000001</ele><time>2026-04-22T11:23:42.624Z</time></trkpt><trkpt lat="40.0334014" lon="9.4863292"><ele>896.0</ele><time>2026-04-22T11:23:43.62Z</time></trkpt><trkpt lat="40.0334162" lon="9.4864137"><ele>895.8333333333334</ele><time>2026-04-22T11:23:44.619Z</time></trkpt><trkpt lat="40.0334222" lon="9.4864959"><ele>895.6666666666667</ele><time>2026-04-22T11:23:45.623Z</time></trkpt><trkpt lat="40.033437" lon="9.4865773"><ele>895.5</ele><time>2026-04-22T11:23:46.618Z</time></trkpt><trkpt lat="40.0334679" lon="9.4867307"><ele>895.3333333333333</ele><time>2026-04-22T11:23:48.624Z</time></trkpt><trkpt lat="40.0334833" lon="9.4868676"><ele>895.1666666666666</ele><time>2026-04-22T11:23:50.625Z</time></trkpt><trkpt lat="40.0335119" lon="9.4869583"><ele>895.0</ele><time>2026-04-22T11:23:51.616Z</time></trkpt><trkpt lat="40.0335332" lon="9.4870426"><ele>895.2</ele><time>2026-04-22T11:23:52.615Z</time></trkpt><trkpt lat="40.033542" lon="9.4872021"><ele>895.4</ele><time>2026-04-22T11:23:54.624Z</time></trkpt><trkpt lat="40.0335451" lon="9.487297"><ele>895.5999999999999</ele><time>2026-04-22T11:23:55.623Z</time></trkpt><trkpt lat="40.0335722" lon="9.4874422"><ele>895.8</ele><time>2026-04-22T11:23:57.616Z</time></trkpt><trkpt lat="40.0335948" lon="9.4876013"><ele>896.0</ele><time>2026-04-22T11:23:59.618Z</time></trkpt><trkpt lat="40.0336039" lon="9.4877468"><ele>896.0000000000001</ele><time>2026-04-22T11:24:01.625Z</time></trkpt><trkpt lat="40.033605" lon="9.4878817"><ele>896.0</ele><time>2026-04-22T11:24:03.616Z</time></trkpt><trkpt lat="40.0336238" lon="9.4879616"><ele>896.0</ele><time>2026-04-22T11:24:04.616Z</time></trkpt><trkpt lat="40.0336489" lon="9.4880471"><ele>896.0</ele><time>2026-04-22T11:24:05.62Z</time></trkpt><trkpt lat="40.0336759" lon="9.4881303"><ele>896.0000000000001</ele><time>2026-04-22T11:24:06.619Z</time></trkpt><trkpt lat="40.0337172" lon="9.4882052"><ele>896.0</ele><time>2026-04-22T11:24:07.62Z</time></trkpt><trkpt lat="40.0337618" lon="9.4883546"><ele>894.5000000000001</ele><time>2026-04-22T11:24:09.622Z</time></trkpt><trkpt lat="40.0337785" lon="9.4884633"><ele>893.0</ele><time>2026-04-22T11:24:11.624Z</time></trkpt><trkpt lat="40.0337262" lon="9.4883865"><ele>891.5</ele><time>2026-04-22T11:24:19.618Z</time></trkpt><trkpt lat="40.0336878" lon="9.4884652"><ele>890.0</ele><time>2026-04-22T11:24:57.627Z</time></trkpt><trkpt lat="40.0336649" lon="9.4885696"><ele>888.5000000000001</ele><time>2026-04-22T11:24:59.627Z</time></trkpt><trkpt lat="40.0336615" lon="9.4886781"><ele>887.0</ele><time>2026-04-22T11:25:01.618Z</time></trkpt><trkpt lat="40.0336706" lon="9.4887889"><ele>882.6</ele><time>2026-04-22T11:25:03.62Z</time></trkpt><trkpt lat="40.0336371" lon="9.4888885"><ele>878.2</ele><time>2026-04-22T11:25:05.619Z</time></trkpt><trkpt lat="40.0336048" lon="9.488973"><ele>873.8</ele><time>2026-04-22T11:25:07.619Z</time></trkpt><trkpt lat="40.0335557" lon="9.4890268"><ele>869.4</ele><time>2026-04-22T11:25:09.613Z</time></trkpt><trkpt lat="40.0334407" lon="9.4889945"><ele>865.0</ele><time>2026-04-22T11:25:11.615Z</time></trkpt><trkpt lat="40.0333073" lon="9.4889858"><ele>867.6</ele><time>2026-04-22T11:25:13.611Z</time></trkpt><trkpt lat="40.0332436" lon="9.4889829"><ele>870.2</ele><time>2026-04-22T11:25:14.617Z</time></trkpt><trkpt lat="40.0331261" lon="9.4890074"><ele>872.8</ele><time>2026-04-22T11:25:16.615Z</time></trkpt><trkpt lat="40.0329988" lon="9.4890083"><ele>875.4</ele><time>2026-04-22T11:25:18.616Z</time></trkpt><trkpt lat="40.0329268" lon="9.4890206"><ele>878.0</ele><time>2026-04-22T11:25:19.616Z</time></trkpt><trkpt lat="40.0328571" lon="9.4890262"><ele>878.0000000000001</ele><time>2026-04-22T11:25:20.631Z</time></trkpt><trkpt lat="40.0327879" lon="9.4890463"><ele>878.0</ele><time>2026-04-22T11:25:21.616Z</time></trkpt><trkpt lat="40.0327155" lon="9.4890534"><ele>878.0</ele><time>2026-04-22T11:25:22.614Z</time></trkpt><trkpt lat="40.0325987" lon="9.4890417"><ele>878.0</ele><time>2026-04-22T11:25:24.62Z</time></trkpt><trkpt lat="40.0324825" lon="9.4890278"><ele>878.0000000000001</ele><time>2026-04-22T11:25:26.628Z</time></trkpt><trkpt lat="40.0324222" lon="9.4890027"><ele>878.0</ele><time>2026-04-22T11:25:27.625Z</time></trkpt><trkpt lat="40.0323608" lon="9.4889678"><ele>877.3333333333334</ele><time>2026-04-22T11:25:28.628Z</time></trkpt><trkpt lat="40.032301" lon="9.4889294"><ele>876.6666666666667</ele><time>2026-04-22T11:25:29.626Z</time></trkpt><trkpt lat="40.0322341" lon="9.4888844"><ele>876.0</ele><time>2026-04-22T11:25:30.633Z</time></trkpt><trkpt lat="40.0321772" lon="9.4888386"><ele>875.3333333333333</ele><time>2026-04-22T11:25:31.628Z</time></trkpt><trkpt lat="40.0321228" lon="9.4887889"><ele>874.6666666666666</ele><time>2026-04-22T11:25:32.63Z</time></trkpt><trkpt lat="40.0320699" lon="9.4887383"><ele>874.0</ele><time>2026-04-22T11:25:33.625Z</time></trkpt><trkpt lat="40.0319718" lon="9.4886566"><ele>878.75</ele><time>2026-04-22T11:25:35.628Z</time></trkpt><trkpt lat="40.0318575" lon="9.4885841"><ele>883.5</ele><time>2026-04-22T11:25:37.624Z</time></trkpt><trkpt lat="40.0317376" lon="9.4885424"><ele>888.25</ele><time>2026-04-22T11:25:39.622Z</time></trkpt><trkpt lat="40.0316418" lon="9.4885036"><ele>893.0</ele><time>2026-04-22T11:25:41.631Z</time></trkpt><trkpt lat="40.031534" lon="9.4884099"><ele>893.0</ele><time>2026-04-22T11:25:43.627Z</time></trkpt><trkpt lat="40.0314732" lon="9.4883623"><ele>893.0</ele><time>2026-04-22T11:25:44.622Z</time></trkpt><trkpt lat="40.0313766" lon="9.4882503"><ele>893.0</ele><time>2026-04-22T11:25:46.627Z</time></trkpt><trkpt lat="40.0312923" lon="9.488131"><ele>893.0</ele><time>2026-04-22T11:25:48.635Z</time></trkpt><trkpt lat="40.0312311" lon="9.4880127"><ele>893.0</ele><time>2026-04-22T11:25:50.638Z</time></trkpt><trkpt lat="40.0311822" lon="9.4878998"><ele>896.8333333333334</ele><time>2026-04-22T11:25:52.626Z</time></trkpt><trkpt lat="40.031123" lon="9.4878216"><ele>900.6666666666667</ele><time>2026-04-22T11:25:54.628Z</time></trkpt><trkpt lat="40.0310509" lon="9.4877669"><ele>904.5</ele><time>2026-04-22T11:26:22.636Z</time></trkpt><trkpt lat="40.0309865" lon="9.4877501"><ele>908.3333333333333</ele><time>2026-04-22T11:26:23.634Z</time></trkpt><trkpt lat="40.0309085" lon="9.4877422"><ele>912.1666666666666</ele><time>2026-04-22T11:26:24.633Z</time></trkpt><trkpt lat="40.0308379" lon="9.4877379"><ele>916.0</ele><time>2026-04-22T11:26:25.633Z</time></trkpt><trkpt lat="40.0307705" lon="9.4877289"><ele>915.9999999999999</ele><time>2026-04-22T11:26:26.633Z</time></trkpt><trkpt lat="40.0306993" lon="9.4877137"><ele>916.0</ele><time>2026-04-22T11:26:27.632Z</time></trkpt><trkpt lat="40.0306258" lon="9.4876821"><ele>916.0</ele><time>2026-04-22T11:26:28.625Z</time></trkpt><trkpt lat="40.0305586" lon="9.4876399"><ele>916.0</ele><time>2026-04-22T11:26:29.626Z</time></trkpt><trkpt lat="40.0304968" lon="9.4875756"><ele>915.9999999999999</ele><time>2026-04-22T11:26:30.636Z</time></trkpt><trkpt lat="40.0304324" lon="9.4875074"><ele>916.0</ele><time>2026-04-22T11:26:31.631Z</time></trkpt><trkpt lat="40.0303591" lon="9.4874639"><ele>915.9999999999999</ele><time>2026-04-22T11:26:32.63Z</time></trkpt><trkpt lat="40.0302822" lon="9.487451"><ele>916.0</ele><time>2026-04-22T11:26:33.622Z</time></trkpt><trkpt lat="40.0301995" lon="9.4874689"><ele>916.0</ele><time>2026-04-22T11:26:34.625Z</time></trkpt><trkpt lat="40.0301232" lon="9.4875005"><ele>916.0</ele><time>2026-04-22T11:26:35.625Z</time></trkpt><trkpt lat="40.0300472" lon="9.48754"><ele>915.9999999999999</ele><time>2026-04-22T11:26:36.623Z</time></trkpt><trkpt lat="40.0299677" lon="9.4875978"><ele>916.0</ele><time>2026-04-22T11:26:37.619Z</time></trkpt><trkpt lat="40.0298869" lon="9.4876711"><ele>915.0</ele><time>2026-04-22T11:26:38.622Z</time></trkpt><trkpt lat="40.0298146" lon="9.4877561"><ele>913.9999999999999</ele><time>2026-04-22T11:26:39.621Z</time></trkpt><trkpt lat="40.029749" lon="9.4878507"><ele>912.9999999999999</ele><time>2026-04-22T11:26:40.63Z</time></trkpt><trkpt lat="40.0296835" lon="9.4879488"><ele>912.0</ele><time>2026-04-22T11:26:41.626Z</time></trkpt><trkpt lat="40.0296293" lon="9.4880485"><ele>911.0</ele><time>2026-04-22T11:26:42.62Z</time></trkpt><trkpt lat="40.0295783" lon="9.4881448"><ele>911.0</ele><time>2026-04-22T11:26:43.628Z</time></trkpt><trkpt lat="40.0295277" lon="9.4882529"><ele>910.9999999999999</ele><time>2026-04-22T11:26:44.618Z</time></trkpt><trkpt lat="40.0294611" lon="9.4883505"><ele>910.9999999999999</ele><time>2026-04-22T11:26:45.62Z</time></trkpt><trkpt lat="40.0293958" lon="9.4884433"><ele>911.0</ele><time>2026-04-22T11:26:46.632Z</time></trkpt><trkpt lat="40.0293236" lon="9.4885321"><ele>911.0</ele><time>2026-04-22T11:26:47.626Z</time></trkpt><trkpt lat="40.029226" lon="9.4886047"><ele>911.5999999999999</ele><time>2026-04-22T11:26:48.628Z</time></trkpt><trkpt lat="40.0291064" lon="9.4886386"><ele>912.1999999999999</ele><time>2026-04-22T11:26:49.625Z</time></trkpt><trkpt lat="40.0289948" lon="9.4886781"><ele>912.8000000000001</ele><time>2026-04-22T11:26:50.64Z</time></trkpt><trkpt lat="40.0288896" lon="9.4887054"><ele>913.4000000000001</ele><time>2026-04-22T11:26:51.629Z</time></trkpt><trkpt lat="40.0288014" lon="9.4887629"><ele>914.0</ele><time>2026-04-22T11:26:52.626Z</time></trkpt><trkpt lat="40.0287034" lon="9.4888267"><ele>908.4000000000001</ele><time>2026-04-22T11:26:53.626Z</time></trkpt><trkpt lat="40.0286134" lon="9.4888984"><ele>902.8000000000001</ele><time>2026-04-22T11:26:54.624Z</time></trkpt><trkpt lat="40.028526" lon="9.4889716"><ele>897.1999999999999</ele><time>2026-04-22T11:26:55.627Z</time></trkpt><trkpt lat="40.0284324" lon="9.4890278"><ele>891.5999999999999</ele><time>2026-04-22T11:26:56.622Z</time></trkpt><trkpt lat="40.0283286" lon="9.4890559"><ele>886.0</ele><time>2026-04-22T11:26:57.623Z</time></trkpt><trkpt lat="40.0282282" lon="9.4890795"><ele>885.0</ele><time>2026-04-22T11:26:58.629Z</time></trkpt><trkpt lat="40.0281242" lon="9.4891076"><ele>883.9999999999999</ele><time>2026-04-22T11:26:59.626Z</time></trkpt><trkpt lat="40.0280154" lon="9.489129"><ele>882.9999999999999</ele><time>2026-04-22T11:27:00.646Z</time></trkpt><trkpt lat="40.0279143" lon="9.4891447"><ele>882.0</ele><time>2026-04-22T11:27:01.627Z</time></trkpt><trkpt lat="40.0278197" lon="9.4891463"><ele>881.0</ele><time>2026-04-22T11:27:02.63Z</time></trkpt><trkpt lat="40.0277386" lon="9.4891255"><ele>881.0000000000001</ele><time>2026-04-22T11:27:03.63Z</time></trkpt><trkpt lat="40.0276703" lon="9.4891029"><ele>881.0</ele><time>2026-04-22T11:27:04.629Z</time></trkpt><trkpt lat="40.0275594" lon="9.4891399"><ele>881.0</ele><time>2026-04-22T11:27:06.623Z</time></trkpt><trkpt lat="40.02751" lon="9.4892047"><ele>881.0</ele><time>2026-04-22T11:27:07.616Z</time></trkpt><trkpt lat="40.0274762" lon="9.4892799"><ele>881.0000000000001</ele><time>2026-04-22T11:27:08.625Z</time></trkpt><trkpt lat="40.0275292" lon="9.4894262"><ele>881.0</ele><time>2026-04-22T11:27:10.625Z</time></trkpt><trkpt lat="40.0276186" lon="9.4894789"><ele>881.0</ele><time>2026-04-22T11:27:11.621Z</time></trkpt><trkpt lat="40.0277305" lon="9.4895011"><ele>880.9999999999999</ele><time>2026-04-22T11:27:12.627Z</time></trkpt><trkpt lat="40.0278511" lon="9.489485"><ele>880.9999999999999</ele><time>2026-04-22T11:27:13.614Z</time></trkpt><trkpt lat="40.0279646" lon="9.4894594"><ele>881.0</ele><time>2026-04-22T11:27:14.625Z</time></trkpt><trkpt lat="40.0280572" lon="9.4894431"><ele>881.0</ele><time>2026-04-22T11:27:15.622Z</time></trkpt><trkpt lat="40.0281561" lon="9.4894424"><ele>881.0</ele><time>2026-04-22T11:27:16.629Z</time></trkpt><trkpt lat="40.0282463" lon="9.4894526"><ele>880.9999999999999</ele><time>2026-04-22T11:27:17.63Z</time></trkpt><trkpt lat="40.0283449" lon="9.489485"><ele>880.9999999999999</ele><time>2026-04-22T11:27:18.633Z</time></trkpt><trkpt lat="40.0284545" lon="9.4895151"><ele>881.0</ele><time>2026-04-22T11:27:19.629Z</time></trkpt><trkpt lat="40.0285635" lon="9.4895337"><ele>881.0</ele><time>2026-04-22T11:27:20.632Z</time></trkpt><trkpt lat="40.0286648" lon="9.4895255"><ele>881.0</ele><time>2026-04-22T11:27:21.626Z</time></trkpt><trkpt lat="40.0287699" lon="9.4894771"><ele>880.9999999999999</ele><time>2026-04-22T11:27:22.632Z</time></trkpt><trkpt lat="40.0288751" lon="9.4894267"><ele>880.9999999999999</ele><time>2026-04-22T11:27:23.62Z</time></trkpt><trkpt lat="40.0289758" lon="9.4894071"><ele>881.0</ele><time>2026-04-22T11:27:24.615Z</time></trkpt><trkpt lat="40.0290738" lon="9.4894091"><ele>881.0</ele><time>2026-04-22T11:27:25.621Z</time></trkpt><trkpt lat="40.0291731" lon="9.4894312"><ele>881.0</ele><time>2026-04-22T11:27:26.624Z</time></trkpt><trkpt lat="40.0292813" lon="9.4894639"><ele>880.9999999999999</ele><time>2026-04-22T11:27:27.625Z</time></trkpt><trkpt lat="40.0293975" lon="9.4894915"><ele>880.9999999999999</ele><time>2026-04-22T11:27:28.627Z</time></trkpt><trkpt lat="40.0295078" lon="9.4894898"><ele>881.0</ele><time>2026-04-22T11:27:29.622Z</time></trkpt><trkpt lat="40.0296018" lon="9.489453"><ele>881.0</ele><time>2026-04-22T11:27:30.628Z</time></trkpt><trkpt lat="40.0296887" lon="9.4893865"><ele>881.0</ele><time>2026-04-22T11:27:31.625Z</time></trkpt><trkpt lat="40.0297704" lon="9.4892973"><ele>880.9999999999999</ele><time>2026-04-22T11:27:32.63Z</time></trkpt><trkpt lat="40.0298408" lon="9.48919"><ele>880.9999999999999</ele><time>2026-04-22T11:27:33.629Z</time></trkpt><trkpt lat="40.0299113" lon="9.4890862"><ele>881.0</ele><time>2026-04-22T11:27:34.629Z</time></trkpt><trkpt lat="40.0299859" lon="9.4889958"><ele>881.0</ele><time>2026-04-22T11:27:35.622Z</time></trkpt><trkpt lat="40.0300647" lon="9.4889068"><ele>877.1999999999999</ele><time>2026-04-22T11:27:36.627Z</time></trkpt><trkpt lat="40.0301418" lon="9.4888407"><ele>873.3999999999999</ele><time>2026-04-22T11:27:37.621Z</time></trkpt><trkpt lat="40.0302312" lon="9.4888013"><ele>869.6</ele><time>2026-04-22T11:27:38.622Z</time></trkpt><trkpt lat="40.0303291" lon="9.4888053"><ele>865.8</ele><time>2026-04-22T11:27:39.61Z</time></trkpt><trkpt lat="40.0304204" lon="9.4888382"><ele>862.0</ele><time>2026-04-22T11:27:40.634Z</time></trkpt><trkpt lat="40.0304958" lon="9.4889153"><ele>862.0</ele><time>2026-04-22T11:27:41.619Z</time></trkpt><trkpt lat="40.0305503" lon="9.4890407"><ele>862.0</ele><time>2026-04-22T11:27:42.616Z</time></trkpt><trkpt lat="40.0306116" lon="9.489162"><ele>862.0</ele><time>2026-04-22T11:27:43.615Z</time></trkpt><trkpt lat="40.0306784" lon="9.4892779"><ele>862.0</ele><time>2026-04-22T11:27:44.618Z</time></trkpt><trkpt lat="40.0307464" lon="9.4893715"><ele>862.0</ele><time>2026-04-22T11:27:45.608Z</time></trkpt><trkpt lat="40.0308187" lon="9.4894417"><ele>861.8</ele><time>2026-04-22T11:27:46.613Z</time></trkpt><trkpt lat="40.030902" lon="9.4895037"><ele>861.6</ele><time>2026-04-22T11:27:47.615Z</time></trkpt><trkpt lat="40.031" lon="9.4895601"><ele>861.3999999999999</ele><time>2026-04-22T11:27:48.624Z</time></trkpt><trkpt lat="40.0310922" lon="9.4896136"><ele>861.1999999999999</ele><time>2026-04-22T11:27:49.613Z</time></trkpt><trkpt lat="40.031179" lon="9.4896589"><ele>861.0</ele><time>2026-04-22T11:27:50.623Z</time></trkpt><trkpt lat="40.031266" lon="9.4896997"><ele>857.1999999999999</ele><time>2026-04-22T11:27:51.627Z</time></trkpt><trkpt lat="40.0313594" lon="9.4897113"><ele>853.3999999999999</ele><time>2026-04-22T11:27:52.619Z</time></trkpt><trkpt lat="40.0314541" lon="9.4897065"><ele>849.6</ele><time>2026-04-22T11:27:53.626Z</time></trkpt><trkpt lat="40.0315476" lon="9.4896749"><ele>845.8</ele><time>2026-04-22T11:27:54.627Z</time></trkpt><trkpt lat="40.0316364" lon="9.4896423"><ele>842.0</ele><time>2026-04-22T11:27:55.625Z</time></trkpt><trkpt lat="40.031729" lon="9.4896298"><ele>842.0</ele><time>2026-04-22T11:27:56.623Z</time></trkpt><trkpt lat="40.0318244" lon="9.4896478"><ele>842.0</ele><time>2026-04-22T11:27:57.628Z</time></trkpt><trkpt lat="40.031917" lon="9.4896769"><ele>842.0</ele><time>2026-04-22T11:27:58.623Z</time></trkpt><trkpt lat="40.0320064" lon="9.4897185"><ele>842.0</ele><time>2026-04-22T11:27:59.621Z</time></trkpt><trkpt lat="40.0320907" lon="9.4897712"><ele>842.0</ele><time>2026-04-22T11:28:00.625Z</time></trkpt><trkpt lat="40.0321858" lon="9.4898392"><ele>842.0</ele><time>2026-04-22T11:28:01.64Z</time></trkpt><trkpt lat="40.0322833" lon="9.4899073"><ele>842.0</ele><time>2026-04-22T11:28:02.628Z</time></trkpt><trkpt lat="40.0323874" lon="9.4899559"><ele>842.0</ele><time>2026-04-22T11:28:03.627Z</time></trkpt><trkpt lat="40.0324957" lon="9.4899815"><ele>842.0</ele><time>2026-04-22T11:28:04.633Z</time></trkpt><trkpt lat="40.0326046" lon="9.489984"><ele>842.0</ele><time>2026-04-22T11:28:05.623Z</time></trkpt><trkpt lat="40.0327073" lon="9.4899636"><ele>843.0</ele><time>2026-04-22T11:28:06.624Z</time></trkpt><trkpt lat="40.0328065" lon="9.4899359"><ele>844.0</ele><time>2026-04-22T11:28:07.616Z</time></trkpt><trkpt lat="40.0329105" lon="9.4898949"><ele>845.0</ele><time>2026-04-22T11:28:08.623Z</time></trkpt><trkpt lat="40.0330065" lon="9.4898683"><ele>846.0</ele><time>2026-04-22T11:28:09.615Z</time></trkpt><trkpt lat="40.0331025" lon="9.4898571"><ele>847.0</ele><time>2026-04-22T11:28:10.624Z</time></trkpt><trkpt lat="40.0331945" lon="9.4898624"><ele>847.0</ele><time>2026-04-22T11:28:11.64Z</time></trkpt><trkpt lat="40.0332934" lon="9.4898807"><ele>847.0</ele><time>2026-04-22T11:28:12.625Z</time></trkpt><trkpt lat="40.0333887" lon="9.4899145"><ele>847.0</ele><time>2026-04-22T11:28:13.628Z</time></trkpt><trkpt lat="40.0334742" lon="9.4899713"><ele>847.0</ele><time>2026-04-22T11:28:14.628Z</time></trkpt><trkpt lat="40.0335543" lon="9.4900377"><ele>847.0</ele><time>2026-04-22T11:28:15.628Z</time></trkpt><trkpt lat="40.0336391" lon="9.4901224"><ele>845.4000000000001</ele><time>2026-04-22T11:28:16.632Z</time></trkpt><trkpt lat="40.0337118" lon="9.4902123"><ele>843.8000000000001</ele><time>2026-04-22T11:28:17.625Z</time></trkpt><trkpt lat="40.0337822" lon="9.4903096"><ele>842.2</ele><time>2026-04-22T11:28:18.631Z</time></trkpt><trkpt lat="40.0338478" lon="9.4904073"><ele>840.6</ele><time>2026-04-22T11:28:19.627Z</time></trkpt><trkpt lat="40.03391" lon="9.4905079"><ele>839.0</ele><time>2026-04-22T11:28:20.626Z</time></trkpt><trkpt lat="40.0339729" lon="9.4906118"><ele>836.2</ele><time>2026-04-22T11:28:21.638Z</time></trkpt><trkpt lat="40.0340392" lon="9.4907196"><ele>833.4000000000001</ele><time>2026-04-22T11:28:22.624Z</time></trkpt><trkpt lat="40.0341148" lon="9.4908156"><ele>830.6</ele><time>2026-04-22T11:28:23.627Z</time></trkpt><trkpt lat="40.034182" lon="9.4909158"><ele>827.8</ele><time>2026-04-22T11:28:24.621Z</time></trkpt><trkpt lat="40.0342448" lon="9.4910014"><ele>825.0</ele><time>2026-04-22T11:28:25.618Z</time></trkpt><trkpt lat="40.0343152" lon="9.491059"><ele>825.0</ele><time>2026-04-22T11:28:26.626Z</time></trkpt><trkpt lat="40.0343847" lon="9.4911165"><ele>825.0</ele><time>2026-04-22T11:28:27.625Z</time></trkpt><trkpt lat="40.0344369" lon="9.4911887"><ele>825.0</ele><time>2026-04-22T11:28:28.625Z</time></trkpt><trkpt lat="40.0344783" lon="9.4912617"><ele>825.0</ele><time>2026-04-22T11:28:29.623Z</time></trkpt><trkpt lat="40.0344922" lon="9.4913677"><ele>825.0</ele><time>2026-04-22T11:28:30.626Z</time></trkpt><trkpt lat="40.0344609" lon="9.4914798"><ele>825.0</ele><time>2026-04-22T11:28:31.628Z</time></trkpt><trkpt lat="40.0343957" lon="9.4915776"><ele>822.4</ele><time>2026-04-22T11:28:32.625Z</time></trkpt><trkpt lat="40.0343099" lon="9.4916345"><ele>819.8</ele><time>2026-04-22T11:28:33.612Z</time></trkpt><trkpt lat="40.0342097" lon="9.4916512"><ele>817.2</ele><time>2026-04-22T11:28:34.618Z</time></trkpt><trkpt lat="40.03411" lon="9.4916334"><ele>814.6</ele><time>2026-04-22T11:28:35.63Z</time></trkpt><trkpt lat="40.034021" lon="9.4915486"><ele>812.0</ele><time>2026-04-22T11:28:36.628Z</time></trkpt><trkpt lat="40.0339423" lon="9.4914198"><ele>813.2</ele><time>2026-04-22T11:28:37.624Z</time></trkpt><trkpt lat="40.0338672" lon="9.4913087"><ele>814.4000000000001</ele><time>2026-04-22T11:28:38.619Z</time></trkpt><trkpt lat="40.0337801" lon="9.491211"><ele>815.5999999999999</ele><time>2026-04-22T11:28:39.623Z</time></trkpt><trkpt lat="40.0336907" lon="9.4911265"><ele>816.8</ele><time>2026-04-22T11:28:40.624Z</time></trkpt><trkpt lat="40.0336083" lon="9.4910491"><ele>818.0</ele><time>2026-04-22T11:28:41.625Z</time></trkpt><trkpt lat="40.0335288" lon="9.4909868"><ele>818.0</ele><time>2026-04-22T11:28:42.622Z</time></trkpt><trkpt lat="40.0334399" lon="9.4909278"><ele>818.0</ele><time>2026-04-22T11:28:43.618Z</time></trkpt><trkpt lat="40.0333462" lon="9.4908956"><ele>818.0</ele><time>2026-04-22T11:28:44.618Z</time></trkpt><trkpt lat="40.033255" lon="9.4908991"><ele>818.0</ele><time>2026-04-22T11:28:45.619Z</time></trkpt><trkpt lat="40.0331758" lon="9.4909436"><ele>818.0</ele><time>2026-04-22T11:28:46.619Z</time></trkpt><trkpt lat="40.0330941" lon="9.4910405"><ele>819.0</ele><time>2026-04-22T11:28:47.617Z</time></trkpt><trkpt lat="40.0330295" lon="9.4911673"><ele>820.0</ele><time>2026-04-22T11:28:48.621Z</time></trkpt><trkpt lat="40.0329941" lon="9.4912984"><ele>821.0</ele><time>2026-04-22T11:28:49.608Z</time></trkpt><trkpt lat="40.0329906" lon="9.4914415"><ele>822.0</ele><time>2026-04-22T11:28:50.617Z</time></trkpt><trkpt lat="40.0329826" lon="9.4915789"><ele>823.0</ele><time>2026-04-22T11:28:51.615Z</time></trkpt><trkpt lat="40.0329664" lon="9.4917071"><ele>819.0</ele><time>2026-04-22T11:28:52.62Z</time></trkpt><trkpt lat="40.0329363" lon="9.4918243"><ele>815.0</ele><time>2026-04-22T11:28:53.613Z</time></trkpt><trkpt lat="40.0329041" lon="9.4919387"><ele>811.0</ele><time>2026-04-22T11:28:54.621Z</time></trkpt><trkpt lat="40.0328487" lon="9.4920539"><ele>807.0</ele><time>2026-04-22T11:28:55.623Z</time></trkpt><trkpt lat="40.0327649" lon="9.4921355"><ele>803.0</ele><time>2026-04-22T11:28:56.612Z</time></trkpt><trkpt lat="40.0326705" lon="9.4922009"><ele>800.5999999999999</ele><time>2026-04-22T11:28:57.611Z</time></trkpt><trkpt lat="40.0325738" lon="9.4922396"><ele>798.1999999999999</ele><time>2026-04-22T11:28:58.623Z</time></trkpt><trkpt lat="40.0324865" lon="9.4922549"><ele>795.8</ele><time>2026-04-22T11:28:59.622Z</time></trkpt><trkpt lat="40.0323806" lon="9.4922163"><ele>793.4</ele><time>2026-04-22T11:29:00.621Z</time></trkpt><trkpt lat="40.0322686" lon="9.4921546"><ele>791.0</ele><time>2026-04-22T11:29:01.615Z</time></trkpt><trkpt lat="40.0321586" lon="9.4920895"><ele>791.0</ele><time>2026-04-22T11:29:02.615Z</time></trkpt><trkpt lat="40.0320587" lon="9.4920079"><ele>791.0</ele><time>2026-04-22T11:29:03.614Z</time></trkpt><trkpt lat="40.0319724" lon="9.4919298"><ele>791.0</ele><time>2026-04-22T11:29:04.61Z</time></trkpt><trkpt lat="40.0318886" lon="9.4918681"><ele>791.0</ele><time>2026-04-22T11:29:05.613Z</time></trkpt><trkpt lat="40.0318042" lon="9.4918343"><ele>791.0</ele><time>2026-04-22T11:29:06.618Z</time></trkpt><trkpt lat="40.0317222" lon="9.491844"><ele>791.0000000000001</ele><time>2026-04-22T11:29:07.609Z</time></trkpt><trkpt lat="40.0316455" lon="9.4918773"><ele>791.0</ele><time>2026-04-22T11:29:08.619Z</time></trkpt><trkpt lat="40.031574" lon="9.4919511"><ele>791.0</ele><time>2026-04-22T11:29:09.606Z</time></trkpt><trkpt lat="40.0315162" lon="9.4920491"><ele>791.0</ele><time>2026-04-22T11:29:10.611Z</time></trkpt><trkpt lat="40.031455" lon="9.4921361"><ele>791.0000000000001</ele><time>2026-04-22T11:29:11.613Z</time></trkpt><trkpt lat="40.0313938" lon="9.492213"><ele>791.0</ele><time>2026-04-22T11:29:12.613Z</time></trkpt><trkpt lat="40.0313121" lon="9.4922611"><ele>789.0000000000001</ele><time>2026-04-22T11:29:13.619Z</time></trkpt><trkpt lat="40.0312371" lon="9.4922635"><ele>787.0</ele><time>2026-04-22T11:29:14.608Z</time></trkpt><trkpt lat="40.0311692" lon="9.4922353"><ele>785.0</ele><time>2026-04-22T11:29:15.613Z</time></trkpt><trkpt lat="40.0311095" lon="9.4921826"><ele>783.0</ele><time>2026-04-22T11:29:16.623Z</time></trkpt><trkpt lat="40.0310204" lon="9.4921245"><ele>781.0000000000001</ele><time>2026-04-22T11:29:18.622Z</time></trkpt><trkpt lat="40.0309742" lon="9.4920256"><ele>779.0</ele><time>2026-04-22T11:29:20.615Z</time></trkpt><trkpt lat="40.030996" lon="9.4918546"><ele>779.0000000000001</ele><time>2026-04-22T11:29:22.621Z</time></trkpt><trkpt lat="40.0310119" lon="9.4917638"><ele>779.0</ele><time>2026-04-22T11:29:23.613Z</time></trkpt><trkpt lat="40.0310244" lon="9.491679"><ele>779.0</ele><time>2026-04-22T11:29:24.62Z</time></trkpt><trkpt lat="40.0310217" lon="9.4915941"><ele>779.0</ele><time>2026-04-22T11:29:25.617Z</time></trkpt><trkpt lat="40.0310222" lon="9.491497"><ele>779.0</ele><time>2026-04-22T11:29:26.628Z</time></trkpt><trkpt lat="40.0310118" lon="9.4913958"><ele>779.0000000000001</ele><time>2026-04-22T11:29:27.618Z</time></trkpt><trkpt lat="40.0309848" lon="9.4913093"><ele>779.0</ele><time>2026-04-22T11:29:28.616Z</time></trkpt><trkpt lat="40.0309318" lon="9.491217"><ele>782.6666666666667</ele><time>2026-04-22T11:29:29.622Z</time></trkpt><trkpt lat="40.0308735" lon="9.4911486"><ele>786.3333333333334</ele><time>2026-04-22T11:29:30.617Z</time></trkpt><trkpt lat="40.0307883" lon="9.4910631"><ele>790.0</ele><time>2026-04-22T11:29:32.621Z</time></trkpt><trkpt lat="40.0307113" lon="9.4910592"><ele>793.6666666666667</ele><time>2026-04-22T11:29:34.621Z</time></trkpt><trkpt lat="40.0307129" lon="9.4911466"><ele>797.3333333333334</ele><time>2026-04-22T11:41:38.635Z</time></trkpt><trkpt lat="40.030808" lon="9.4911661"><ele>801.0</ele><time>2026-04-22T11:41:42.646Z</time></trkpt><trkpt lat="40.0309117" lon="9.4911996"><ele>797.3333333333334</ele><time>2026-04-22T11:41:44.638Z</time></trkpt><trkpt lat="40.0309818" lon="9.4912757"><ele>793.6666666666667</ele><time>2026-04-22T11:41:46.629Z</time></trkpt><trkpt lat="40.031027" lon="9.4913833"><ele>790.0</ele><time>2026-04-22T11:41:48.64Z</time></trkpt><trkpt lat="40.0310374" lon="9.4914837"><ele>786.3333333333334</ele><time>2026-04-22T11:41:50.629Z</time></trkpt><trkpt lat="40.0310284" lon="9.4915888"><ele>782.6666666666667</ele><time>2026-04-22T11:41:52.64Z</time></trkpt><trkpt lat="40.0310213" lon="9.4917224"><ele>779.0</ele><time>2026-04-22T11:41:54.63Z</time></trkpt><trkpt lat="40.0310042" lon="9.4918506"><ele>779.0000000000001</ele><time>2026-04-22T11:41:56.634Z</time></trkpt><trkpt lat="40.0309859" lon="9.491961"><ele>779.0</ele><time>2026-04-22T11:41:58.632Z</time></trkpt><trkpt lat="40.0310235" lon="9.4920835"><ele>779.0</ele><time>2026-04-22T11:42:01.635Z</time></trkpt><trkpt lat="40.0310842" lon="9.4921229"><ele>779.0</ele><time>2026-04-22T11:42:02.633Z</time></trkpt><trkpt lat="40.0311526" lon="9.4921549"><ele>779.0000000000001</ele><time>2026-04-22T11:42:03.631Z</time></trkpt><trkpt lat="40.0312327" lon="9.4922032"><ele>779.0</ele><time>2026-04-22T11:42:04.638Z</time></trkpt><trkpt lat="40.031327" lon="9.4922321"><ele>779.0000000000001</ele><time>2026-04-22T11:42:05.633Z</time></trkpt><trkpt lat="40.0314085" lon="9.4922149"><ele>779.0</ele><time>2026-04-22T11:42:06.636Z</time></trkpt><trkpt lat="40.0314827" lon="9.4921546"><ele>779.0</ele><time>2026-04-22T11:42:07.629Z</time></trkpt><trkpt lat="40.0315399" lon="9.4920592"><ele>779.0</ele><time>2026-04-22T11:42:08.626Z</time></trkpt><trkpt lat="40.0315891" lon="9.4919627"><ele>779.0000000000001</ele><time>2026-04-22T11:42:09.63Z</time></trkpt><trkpt lat="40.031646" lon="9.4918764"><ele>779.0</ele><time>2026-04-22T11:42:10.627Z</time></trkpt><trkpt lat="40.0317148" lon="9.4918173"><ele>781.4000000000001</ele><time>2026-04-22T11:42:11.621Z</time></trkpt><trkpt lat="40.0317953" lon="9.4917837"><ele>783.8</ele><time>2026-04-22T11:42:12.63Z</time></trkpt><trkpt lat="40.0318821" lon="9.4917698"><ele>786.2</ele><time>2026-04-22T11:42:13.627Z</time></trkpt><trkpt lat="40.0319702" lon="9.4917904"><ele>788.5999999999999</ele><time>2026-04-22T11:42:14.629Z</time></trkpt><trkpt lat="40.0320567" lon="9.4918613"><ele>791.0</ele><time>2026-04-22T11:42:15.619Z</time></trkpt><trkpt lat="40.0321461" lon="9.4919317"><ele>791.0</ele><time>2026-04-22T11:42:16.629Z</time></trkpt><trkpt lat="40.0322295" lon="9.4920033"><ele>791.0</ele><time>2026-04-22T11:42:17.631Z</time></trkpt><trkpt lat="40.0323145" lon="9.4920757"><ele>791.0</ele><time>2026-04-22T11:42:18.626Z</time></trkpt><trkpt lat="40.0324042" lon="9.4921364"><ele>791.0</ele><time>2026-04-22T11:42:19.621Z</time></trkpt><trkpt lat="40.0324944" lon="9.4921844"><ele>791.0</ele><time>2026-04-22T11:42:20.624Z</time></trkpt><trkpt lat="40.0325897" lon="9.4922014"><ele>788.8</ele><time>2026-04-22T11:42:21.617Z</time></trkpt><trkpt lat="40.0326818" lon="9.49219"><ele>786.5999999999999</ele><time>2026-04-22T11:42:22.617Z</time></trkpt><trkpt lat="40.032764" lon="9.4921546"><ele>784.4</ele><time>2026-04-22T11:42:23.621Z</time></trkpt><trkpt lat="40.0328358" lon="9.4920826"><ele>782.2</ele><time>2026-04-22T11:42:24.616Z</time></trkpt><trkpt lat="40.0328972" lon="9.4920043"><ele>780.0</ele><time>2026-04-22T11:42:25.615Z</time></trkpt><trkpt lat="40.0329466" lon="9.4918816"><ele>784.6</ele><time>2026-04-22T11:42:26.612Z</time></trkpt><trkpt lat="40.0329838" lon="9.4917427"><ele>789.2</ele><time>2026-04-22T11:42:27.623Z</time></trkpt><trkpt lat="40.0330179" lon="9.4915965"><ele>793.8</ele><time>2026-04-22T11:42:28.622Z</time></trkpt><trkpt lat="40.0330407" lon="9.4914438"><ele>798.4</ele><time>2026-04-22T11:42:29.621Z</time></trkpt><trkpt lat="40.0330583" lon="9.4913178"><ele>803.0</ele><time>2026-04-22T11:42:30.625Z</time></trkpt><trkpt lat="40.0330834" lon="9.4911985"><ele>805.5000000000001</ele><time>2026-04-22T11:42:31.617Z</time></trkpt><trkpt lat="40.0331048" lon="9.4910956"><ele>808.0</ele><time>2026-04-22T11:42:32.613Z</time></trkpt><trkpt lat="40.0331228" lon="9.490988"><ele>810.5</ele><time>2026-04-22T11:42:33.606Z</time></trkpt><trkpt lat="40.0331471" lon="9.4908875"><ele>813.0</ele><time>2026-04-22T11:42:34.6Z</time></trkpt><trkpt lat="40.033192" lon="9.4908166"><ele>815.5000000000001</ele><time>2026-04-22T11:42:35.599Z</time></trkpt><trkpt lat="40.0332384" lon="9.490761"><ele>818.0</ele><time>2026-04-22T11:42:36.605Z</time></trkpt><trkpt lat="40.033309" lon="9.4907424"><ele>818.0</ele><time>2026-04-22T11:42:37.608Z</time></trkpt><trkpt lat="40.0333919" lon="9.4907774"><ele>818.0</ele><time>2026-04-22T11:42:38.607Z</time></trkpt><trkpt lat="40.0334783" lon="9.4908407"><ele>818.0</ele><time>2026-04-22T11:42:39.607Z</time></trkpt><trkpt lat="40.0335766" lon="9.4909229"><ele>818.0</ele><time>2026-04-22T11:42:40.616Z</time></trkpt><trkpt lat="40.0336737" lon="9.4910261"><ele>818.0</ele><time>2026-04-22T11:42:41.622Z</time></trkpt><trkpt lat="40.0337765" lon="9.4911215"><ele>818.0</ele><time>2026-04-22T11:42:42.618Z</time></trkpt><trkpt lat="40.0338764" lon="9.4912265"><ele>818.0</ele><time>2026-04-22T11:42:43.618Z</time></trkpt><trkpt lat="40.0339658" lon="9.4913375"><ele>818.0</ele><time>2026-04-22T11:42:44.62Z</time></trkpt><trkpt lat="40.0340402" lon="9.4914378"><ele>818.0</ele><time>2026-04-22T11:42:45.619Z</time></trkpt><trkpt lat="40.0341006" lon="9.4915196"><ele>818.0</ele><time>2026-04-22T11:42:46.62Z</time></trkpt><trkpt lat="40.0341616" lon="9.4915648"><ele>817.0000000000001</ele><time>2026-04-22T11:42:47.625Z</time></trkpt><trkpt lat="40.0342393" lon="9.4915564"><ele>816.0</ele><time>2026-04-22T11:42:48.62Z</time></trkpt><trkpt lat="40.0343207" lon="9.491531"><ele>815.0</ele><time>2026-04-22T11:42:49.615Z</time></trkpt><trkpt lat="40.0343912" lon="9.4914753"><ele>814.0</ele><time>2026-04-22T11:42:50.617Z</time></trkpt><trkpt lat="40.0344441" lon="9.4913954"><ele>813.0000000000001</ele><time>2026-04-22T11:42:51.612Z</time></trkpt><trkpt lat="40.0344669" lon="9.491295"><ele>812.0</ele><time>2026-04-22T11:42:52.62Z</time></trkpt><trkpt lat="40.034457" lon="9.4911923"><ele>813.2</ele><time>2026-04-22T11:42:53.61Z</time></trkpt><trkpt lat="40.0344086" lon="9.4911114"><ele>814.4000000000001</ele><time>2026-04-22T11:42:54.616Z</time></trkpt><trkpt lat="40.0343236" lon="9.4910548"><ele>815.5999999999999</ele><time>2026-04-22T11:42:55.617Z</time></trkpt><trkpt lat="40.0342286" lon="9.491004"><ele>816.8</ele><time>2026-04-22T11:42:56.617Z</time></trkpt><trkpt lat="40.034142" lon="9.4909338"><ele>818.0</ele><time>2026-04-22T11:42:57.613Z</time></trkpt><trkpt lat="40.0340652" lon="9.4908427"><ele>818.0</ele><time>2026-04-22T11:42:58.614Z</time></trkpt><trkpt lat="40.0339895" lon="9.4907492"><ele>818.0</ele><time>2026-04-22T11:42:59.61Z</time></trkpt><trkpt lat="40.0339217" lon="9.4906333"><ele>818.0</ele><time>2026-04-22T11:43:00.613Z</time></trkpt><trkpt lat="40.0338496" lon="9.4905086"><ele>818.0</ele><time>2026-04-22T11:43:01.618Z</time></trkpt><trkpt lat="40.033779" lon="9.4903892"><ele>823.25</ele><time>2026-04-22T11:43:02.611Z</time></trkpt><trkpt lat="40.0337047" lon="9.4902707"><ele>828.5</ele><time>2026-04-22T11:43:03.61Z</time></trkpt><trkpt lat="40.0336197" lon="9.4901685"><ele>833.75</ele><time>2026-04-22T11:43:04.621Z</time></trkpt><trkpt lat="40.0335265" lon="9.4900711"><ele>839.0</ele><time>2026-04-22T11:43:05.619Z</time></trkpt><trkpt lat="40.0334367" lon="9.4899823"><ele>839.0</ele><time>2026-04-22T11:43:06.618Z</time></trkpt><trkpt lat="40.0333407" lon="9.4898979"><ele>839.0</ele><time>2026-04-22T11:43:07.621Z</time></trkpt><trkpt lat="40.033239" lon="9.4898375"><ele>839.0</ele><time>2026-04-22T11:43:08.62Z</time></trkpt><trkpt lat="40.033124" lon="9.4898357"><ele>839.0</ele><time>2026-04-22T11:43:09.619Z</time></trkpt><trkpt lat="40.0330067" lon="9.4898587"><ele>841.0</ele><time>2026-04-22T11:43:10.611Z</time></trkpt><trkpt lat="40.0328839" lon="9.4899163"><ele>843.0</ele><time>2026-04-22T11:43:11.615Z</time></trkpt><trkpt lat="40.0327663" lon="9.4899774"><ele>845.0</ele><time>2026-04-22T11:43:12.612Z</time></trkpt><trkpt lat="40.0326475" lon="9.4900198"><ele>847.0</ele><time>2026-04-22T11:43:13.62Z</time></trkpt><trkpt lat="40.0325388" lon="9.4900315"><ele>845.75</ele><time>2026-04-22T11:43:14.624Z</time></trkpt><trkpt lat="40.0324261" lon="9.4900259"><ele>844.5</ele><time>2026-04-22T11:43:15.616Z</time></trkpt><trkpt lat="40.0323162" lon="9.4899985"><ele>843.25</ele><time>2026-04-22T11:43:16.618Z</time></trkpt><trkpt lat="40.032203" lon="9.4899411"><ele>842.0</ele><time>2026-04-22T11:43:17.614Z</time></trkpt><trkpt lat="40.0320981" lon="9.4898714"><ele>842.0</ele><time>2026-04-22T11:43:18.622Z</time></trkpt><trkpt lat="40.0319938" lon="9.4897958"><ele>842.0</ele><time>2026-04-22T11:43:19.623Z</time></trkpt><trkpt lat="40.0319002" lon="9.4897247"><ele>842.0</ele><time>2026-04-22T11:43:20.621Z</time></trkpt><trkpt lat="40.0318184" lon="9.4896683"><ele>842.0</ele><time>2026-04-22T11:43:21.614Z</time></trkpt><trkpt lat="40.0317378" lon="9.4896297"><ele>842.0</ele><time>2026-04-22T11:43:22.618Z</time></trkpt><trkpt lat="40.0316633" lon="9.4896146"><ele>839.8</ele><time>2026-04-22T11:43:23.615Z</time></trkpt><trkpt lat="40.0315804" lon="9.489625"><ele>837.6</ele><time>2026-04-22T11:43:24.622Z</time></trkpt><trkpt lat="40.0314741" lon="9.4896682"><ele>835.4</ele><time>2026-04-22T11:43:25.619Z</time></trkpt><trkpt lat="40.0313623" lon="9.4897177"><ele>833.1999999999999</ele><time>2026-04-22T11:43:26.618Z</time></trkpt><trkpt lat="40.0312541" lon="9.4897227"><ele>831.0</ele><time>2026-04-22T11:43:27.628Z</time></trkpt><trkpt lat="40.0311447" lon="9.4896872"><ele>831.0</ele><time>2026-04-22T11:43:28.628Z</time></trkpt><trkpt lat="40.0310418" lon="9.4896321"><ele>831.0</ele><time>2026-04-22T11:43:29.632Z</time></trkpt><trkpt lat="40.0309413" lon="9.4895616"><ele>831.0</ele><time>2026-04-22T11:43:30.632Z</time></trkpt><trkpt lat="40.0308408" lon="9.4894813"><ele>831.0</ele><time>2026-04-22T11:43:31.632Z</time></trkpt><trkpt lat="40.0307459" lon="9.4893977"><ele>837.1999999999999</ele><time>2026-04-22T11:43:32.633Z</time></trkpt><trkpt lat="40.0306604" lon="9.4893124"><ele>843.4</ele><time>2026-04-22T11:43:33.627Z</time></trkpt><trkpt lat="40.0305838" lon="9.4892303"><ele>849.6</ele><time>2026-04-22T11:43:34.624Z</time></trkpt><trkpt lat="40.0305176" lon="9.4891337"><ele>855.8</ele><time>2026-04-22T11:43:35.621Z</time></trkpt><trkpt lat="40.0304619" lon="9.4890284"><ele>862.0</ele><time>2026-04-22T11:43:36.627Z</time></trkpt><trkpt lat="40.0304092" lon="9.4889355"><ele>861.9999999999999</ele><time>2026-04-22T11:43:37.624Z</time></trkpt><trkpt lat="40.0303522" lon="9.4888652"><ele>862.0</ele><time>2026-04-22T11:43:38.629Z</time></trkpt><trkpt lat="40.0302884" lon="9.4888141"><ele>862.0</ele><time>2026-04-22T11:43:39.618Z</time></trkpt><trkpt lat="40.0302107" lon="9.4888144"><ele>862.0</ele><time>2026-04-22T11:43:40.626Z</time></trkpt><trkpt lat="40.0301253" lon="9.4888698"><ele>861.9999999999999</ele><time>2026-04-22T11:43:41.614Z</time></trkpt><trkpt lat="40.0300369" lon="9.4889692"><ele>862.0</ele><time>2026-04-22T11:43:42.614Z</time></trkpt><trkpt lat="40.0299631" lon="9.48908"><ele>865.8</ele><time>2026-04-22T11:43:43.622Z</time></trkpt><trkpt lat="40.029895" lon="9.4891736"><ele>869.6</ele><time>2026-04-22T11:43:44.628Z</time></trkpt><trkpt lat="40.0298267" lon="9.4892694"><ele>873.3999999999999</ele><time>2026-04-22T11:43:45.626Z</time></trkpt><trkpt lat="40.0297566" lon="9.4893729"><ele>877.1999999999999</ele><time>2026-04-22T11:43:46.63Z</time></trkpt><trkpt lat="40.0296823" lon="9.4894671"><ele>881.0</ele><time>2026-04-22T11:43:47.628Z</time></trkpt><trkpt lat="40.0295974" lon="9.4895378"><ele>882.0</ele><time>2026-04-22T11:43:48.628Z</time></trkpt><trkpt lat="40.0295001" lon="9.4895961"><ele>882.9999999999999</ele><time>2026-04-22T11:43:49.625Z</time></trkpt><trkpt lat="40.0293922" lon="9.4896284"><ele>883.9999999999999</ele><time>2026-04-22T11:43:50.627Z</time></trkpt><trkpt lat="40.0292798" lon="9.489631"><ele>885.0</ele><time>2026-04-22T11:43:51.625Z</time></trkpt><trkpt lat="40.029165" lon="9.4896047"><ele>886.0</ele><time>2026-04-22T11:43:52.628Z</time></trkpt><trkpt lat="40.0290444" lon="9.4895428"><ele>886.0</ele><time>2026-04-22T11:43:53.626Z</time></trkpt><trkpt lat="40.0289367" lon="9.4894905"><ele>885.9999999999999</ele><time>2026-04-22T11:43:54.627Z</time></trkpt><trkpt lat="40.0288225" lon="9.4894668"><ele>885.9999999999999</ele><time>2026-04-22T11:43:55.631Z</time></trkpt><trkpt lat="40.0287177" lon="9.4894881"><ele>886.0</ele><time>2026-04-22T11:43:56.622Z</time></trkpt><trkpt lat="40.0286108" lon="9.489531"><ele>886.0</ele><time>2026-04-22T11:43:57.623Z</time></trkpt><trkpt lat="40.0285144" lon="9.4895894"><ele>886.0</ele><time>2026-04-22T11:43:58.623Z</time></trkpt><trkpt lat="40.0284173" lon="9.489606"><ele>885.9999999999999</ele><time>2026-04-22T11:43:59.627Z</time></trkpt><trkpt lat="40.0283149" lon="9.4895918"><ele>885.9999999999999</ele><time>2026-04-22T11:44:00.629Z</time></trkpt><trkpt lat="40.0282128" lon="9.4895469"><ele>886.0</ele><time>2026-04-22T11:44:01.63Z</time></trkpt><trkpt lat="40.0281057" lon="9.4895062"><ele>886.0</ele><time>2026-04-22T11:44:02.631Z</time></trkpt><trkpt lat="40.0279856" lon="9.4894789"><ele>885.1666666666666</ele><time>2026-04-22T11:44:03.625Z</time></trkpt><trkpt lat="40.0278776" lon="9.4894843"><ele>884.3333333333333</ele><time>2026-04-22T11:44:04.62Z</time></trkpt><trkpt lat="40.0277733" lon="9.4894984"><ele>883.5</ele><time>2026-04-22T11:44:05.627Z</time></trkpt><trkpt lat="40.0276894" lon="9.4895275"><ele>882.6666666666667</ele><time>2026-04-22T11:44:06.625Z</time></trkpt><trkpt lat="40.0276179" lon="9.4895316"><ele>881.8333333333334</ele><time>2026-04-22T11:44:07.625Z</time></trkpt><trkpt lat="40.0275503" lon="9.4895005"><ele>881.0</ele><time>2026-04-22T11:44:08.633Z</time></trkpt><trkpt lat="40.0275129" lon="9.4894291"><ele>881.0000000000001</ele><time>2026-04-22T11:44:09.635Z</time></trkpt><trkpt lat="40.027509" lon="9.4893367"><ele>881.0</ele><time>2026-04-22T11:44:10.621Z</time></trkpt><trkpt lat="40.0275332" lon="9.4892389"><ele>881.0</ele><time>2026-04-22T11:44:11.635Z</time></trkpt><trkpt lat="40.0275765" lon="9.4891668"><ele>881.0</ele><time>2026-04-22T11:44:12.613Z</time></trkpt><trkpt lat="40.0276594" lon="9.4891279"><ele>881.0000000000001</ele><time>2026-04-22T11:44:13.635Z</time></trkpt><trkpt lat="40.0277577" lon="9.4891315"><ele>881.0</ele><time>2026-04-22T11:44:14.628Z</time></trkpt><trkpt lat="40.0278768" lon="9.4891475"><ele>881.0</ele><time>2026-04-22T11:44:15.623Z</time></trkpt><trkpt lat="40.028012" lon="9.4891487"><ele>881.0</ele><time>2026-04-22T11:44:16.625Z</time></trkpt><trkpt lat="40.0281313" lon="9.4891224"><ele>881.0</ele><time>2026-04-22T11:44:17.63Z</time></trkpt><trkpt lat="40.0282469" lon="9.4890859"><ele>881.0</ele><time>2026-04-22T11:44:18.638Z</time></trkpt><trkpt lat="40.0283595" lon="9.4890573"><ele>882.25</ele><time>2026-04-22T11:44:19.632Z</time></trkpt><trkpt lat="40.0284667" lon="9.4890156"><ele>883.5</ele><time>2026-04-22T11:44:20.633Z</time></trkpt><trkpt lat="40.0285821" lon="9.4889607"><ele>884.75</ele><time>2026-04-22T11:44:21.629Z</time></trkpt><trkpt lat="40.0286915" lon="9.488878"><ele>886.0</ele><time>2026-04-22T11:44:22.638Z</time></trkpt><trkpt lat="40.0287913" lon="9.4887804"><ele>891.0</ele><time>2026-04-22T11:44:23.635Z</time></trkpt><trkpt lat="40.0288882" lon="9.488701"><ele>895.9999999999999</ele><time>2026-04-22T11:44:24.635Z</time></trkpt><trkpt lat="40.0289863" lon="9.4886412"><ele>900.9999999999999</ele><time>2026-04-22T11:44:25.638Z</time></trkpt><trkpt lat="40.0290839" lon="9.4885941"><ele>906.0</ele><time>2026-04-22T11:44:26.638Z</time></trkpt><trkpt lat="40.0291792" lon="9.4885577"><ele>911.0</ele><time>2026-04-22T11:44:27.636Z</time></trkpt><trkpt lat="40.0292776" lon="9.4885199"><ele>911.0</ele><time>2026-04-22T11:44:28.642Z</time></trkpt><trkpt lat="40.0293642" lon="9.4884713"><ele>910.9999999999999</ele><time>2026-04-22T11:44:29.624Z</time></trkpt><trkpt lat="40.0294467" lon="9.4884044"><ele>910.9999999999999</ele><time>2026-04-22T11:44:30.636Z</time></trkpt><trkpt lat="40.0295126" lon="9.4883127"><ele>911.0</ele><time>2026-04-22T11:44:31.625Z</time></trkpt><trkpt lat="40.0295808" lon="9.4881912"><ele>911.0</ele><time>2026-04-22T11:44:32.632Z</time></trkpt><trkpt lat="40.0296408" lon="9.4880626"><ele>911.0</ele><time>2026-04-22T11:44:33.628Z</time></trkpt><trkpt lat="40.0297005" lon="9.4879445"><ele>910.9999999999999</ele><time>2026-04-22T11:44:34.629Z</time></trkpt><trkpt lat="40.0297729" lon="9.4878298"><ele>910.9999999999999</ele><time>2026-04-22T11:44:35.629Z</time></trkpt><trkpt lat="40.0298489" lon="9.4877163"><ele>911.0</ele><time>2026-04-22T11:44:36.626Z</time></trkpt><trkpt lat="40.0299223" lon="9.4876171"><ele>911.0</ele><time>2026-04-22T11:44:37.63Z</time></trkpt><trkpt lat="40.0300044" lon="9.4875421"><ele>912.0</ele><time>2026-04-22T11:44:38.624Z</time></trkpt><trkpt lat="40.0301" lon="9.4874855"><ele>912.9999999999999</ele><time>2026-04-22T11:44:39.624Z</time></trkpt><trkpt lat="40.030194" lon="9.4874486"><ele>913.9999999999999</ele><time>2026-04-22T11:44:40.628Z</time></trkpt><trkpt lat="40.0302809" lon="9.4874342"><ele>915.0</ele><time>2026-04-22T11:44:41.629Z</time></trkpt><trkpt lat="40.0303795" lon="9.4874481"><ele>916.0</ele><time>2026-04-22T11:44:42.623Z</time></trkpt><trkpt lat="40.0304656" lon="9.4875041"><ele>916.0</ele><time>2026-04-22T11:44:43.627Z</time></trkpt><trkpt lat="40.0305567" lon="9.4875683"><ele>916.0</ele><time>2026-04-22T11:44:44.619Z</time></trkpt><trkpt lat="40.0306477" lon="9.4876634"><ele>916.0</ele><time>2026-04-22T11:44:45.629Z</time></trkpt><trkpt lat="40.0307524" lon="9.4877386"><ele>916.0</ele><time>2026-04-22T11:44:46.622Z</time></trkpt><trkpt lat="40.0308548" lon="9.4877993"><ele>917.5</ele><time>2026-04-22T11:44:47.629Z</time></trkpt><trkpt lat="40.0309615" lon="9.4878186"><ele>919.0</ele><time>2026-04-22T11:44:48.635Z</time></trkpt><trkpt lat="40.0310885" lon="9.4878335"><ele>920.5</ele><time>2026-04-22T11:44:49.628Z</time></trkpt><trkpt lat="40.0312127" lon="9.4878572"><ele>922.0</ele><time>2026-04-22T11:44:50.634Z</time></trkpt><trkpt lat="40.0313426" lon="9.487892"><ele>918.5</ele><time>2026-04-22T11:44:51.628Z</time></trkpt><trkpt lat="40.0314762" lon="9.4879362"><ele>915.0</ele><time>2026-04-22T11:44:52.632Z</time></trkpt><trkpt lat="40.0316036" lon="9.4879858"><ele>911.5</ele><time>2026-04-22T11:44:53.633Z</time></trkpt><trkpt lat="40.0317143" lon="9.4880318"><ele>908.0</ele><time>2026-04-22T11:44:54.628Z</time></trkpt><trkpt lat="40.0318129" lon="9.4880832"><ele>908.0000000000001</ele><time>2026-04-22T11:44:55.632Z</time></trkpt><trkpt lat="40.0318986" lon="9.4881381"><ele>908.0</ele><time>2026-04-22T11:44:56.637Z</time></trkpt><trkpt lat="40.0319814" lon="9.4881743"><ele>908.0</ele><time>2026-04-22T11:44:57.636Z</time></trkpt><trkpt lat="40.0320662" lon="9.4881972"><ele>908.0</ele><time>2026-04-22T11:44:58.629Z</time></trkpt><trkpt lat="40.0321457" lon="9.4881664"><ele>908.0000000000001</ele><time>2026-04-22T11:44:59.637Z</time></trkpt><trkpt lat="40.0322005" lon="9.488118"><ele>908.0</ele><time>2026-04-22T11:45:00.632Z</time></trkpt><trkpt lat="40.0322362" lon="9.4880359"><ele>913.0000000000001</ele><time>2026-04-22T11:45:01.626Z</time></trkpt><trkpt lat="40.0322432" lon="9.4879242"><ele>918.0</ele><time>2026-04-22T11:45:02.628Z</time></trkpt><trkpt lat="40.0322245" lon="9.4878041"><ele>923.0</ele><time>2026-04-22T11:45:03.622Z</time></trkpt><trkpt lat="40.032178" lon="9.4877077"><ele>928.0</ele><time>2026-04-22T11:45:04.615Z</time></trkpt><trkpt lat="40.0321189" lon="9.4876327"><ele>933.0000000000001</ele><time>2026-04-22T11:45:05.622Z</time></trkpt><trkpt lat="40.0320357" lon="9.4875962"><ele>938.0</ele><time>2026-04-22T11:45:06.637Z</time></trkpt><trkpt lat="40.031905" lon="9.4876039"><ele>938.0</ele><time>2026-04-22T11:45:07.627Z</time></trkpt><trkpt lat="40.0317621" lon="9.4875992"><ele>938.0</ele><time>2026-04-22T11:45:08.637Z</time></trkpt><trkpt lat="40.031638" lon="9.4875534"><ele>938.0</ele><time>2026-04-22T11:45:09.629Z</time></trkpt><trkpt lat="40.0315155" lon="9.4875164"><ele>938.0</ele><time>2026-04-22T11:45:10.631Z</time></trkpt><trkpt lat="40.0313999" lon="9.4874738"><ele>934.0</ele><time>2026-04-22T11:45:11.63Z</time></trkpt><trkpt lat="40.031288" lon="9.4874194"><ele>930.0</ele><time>2026-04-22T11:45:12.633Z</time></trkpt><trkpt lat="40.0311838" lon="9.4873359"><ele>926.0</ele><time>2026-04-22T11:45:13.628Z</time></trkpt><trkpt lat="40.0310915" lon="9.4872216"><ele>922.0</ele><time>2026-04-22T11:45:14.633Z</time></trkpt><trkpt lat="40.0310117" lon="9.4870993"><ele>928.75</ele><time>2026-04-22T11:45:15.626Z</time></trkpt><trkpt lat="40.0309327" lon="9.4869768"><ele>935.5</ele><time>2026-04-22T11:45:16.634Z</time></trkpt><trkpt lat="40.0308469" lon="9.4868703"><ele>942.25</ele><time>2026-04-22T11:45:17.628Z</time></trkpt><trkpt lat="40.0307492" lon="9.4867735"><ele>949.0</ele><time>2026-04-22T11:45:18.631Z</time></trkpt><trkpt lat="40.0306521" lon="9.4867031"><ele>949.5</ele><time>2026-04-22T11:45:19.619Z</time></trkpt><trkpt lat="40.030537" lon="9.4866633"><ele>950.0</ele><time>2026-04-22T11:45:20.625Z</time></trkpt><trkpt lat="40.0304189" lon="9.4866718"><ele>950.5</ele><time>2026-04-22T11:45:21.627Z</time></trkpt><trkpt lat="40.0302825" lon="9.4867073"><ele>951.0</ele><time>2026-04-22T11:45:22.625Z</time></trkpt><trkpt lat="40.030143" lon="9.486752"><ele>951.0</ele><time>2026-04-22T11:45:23.633Z</time></trkpt><trkpt lat="40.0300162" lon="9.4868105"><ele>951.0</ele><time>2026-04-22T11:45:24.628Z</time></trkpt><trkpt lat="40.0298973" lon="9.4868553"><ele>951.0</ele><time>2026-04-22T11:45:25.624Z</time></trkpt><trkpt lat="40.0297729" lon="9.4869009"><ele>951.0</ele><time>2026-04-22T11:45:26.63Z</time></trkpt><trkpt lat="40.0296462" lon="9.4869598"><ele>953.5</ele><time>2026-04-22T11:45:27.624Z</time></trkpt><trkpt lat="40.0295227" lon="9.4870264"><ele>956.0</ele><time>2026-04-22T11:45:28.623Z</time></trkpt><trkpt lat="40.0294032" lon="9.4871107"><ele>958.5</ele><time>2026-04-22T11:45:29.631Z</time></trkpt><trkpt lat="40.0292828" lon="9.4871894"><ele>961.0</ele><time>2026-04-22T11:45:30.631Z</time></trkpt><trkpt lat="40.0291614" lon="9.4872765"><ele>955.4</ele><time>2026-04-22T11:45:31.627Z</time></trkpt><trkpt lat="40.0290775" lon="9.4873683"><ele>949.8</ele><time>2026-04-22T11:45:32.624Z</time></trkpt><trkpt lat="40.0290117" lon="9.487417"><ele>944.1999999999999</ele><time>2026-04-22T11:45:33.629Z</time></trkpt><trkpt lat="40.0288824" lon="9.4874306"><ele>938.5999999999999</ele><time>2026-04-22T11:45:35.624Z</time></trkpt><trkpt lat="40.028794" lon="9.4873986"><ele>933.0</ele><time>2026-04-22T11:45:36.629Z</time></trkpt><trkpt lat="40.028729" lon="9.4873306"><ele>933.0</ele><time>2026-04-22T11:45:37.631Z</time></trkpt><trkpt lat="40.0286909" lon="9.4872311"><ele>933.0</ele><time>2026-04-22T11:45:38.62Z</time></trkpt><trkpt lat="40.028674" lon="9.4871179"><ele>933.0</ele><time>2026-04-22T11:45:39.619Z</time></trkpt><trkpt lat="40.0287013" lon="9.4870026"><ele>933.0</ele><time>2026-04-22T11:45:40.618Z</time></trkpt><trkpt lat="40.0287575" lon="9.4869144"><ele>933.0</ele><time>2026-04-22T11:45:41.617Z</time></trkpt><trkpt lat="40.0288314" lon="9.4868524"><ele>933.0</ele><time>2026-04-22T11:45:42.624Z</time></trkpt><trkpt lat="40.0289286" lon="9.4868527"><ele>934.8</ele><time>2026-04-22T11:45:43.623Z</time></trkpt><trkpt lat="40.0290494" lon="9.4868852"><ele>936.5999999999999</ele><time>2026-04-22T11:45:44.631Z</time></trkpt><trkpt lat="40.0291622" lon="9.4868992"><ele>938.4000000000001</ele><time>2026-04-22T11:45:45.627Z</time></trkpt><trkpt lat="40.0292655" lon="9.4868751"><ele>940.2</ele><time>2026-04-22T11:45:46.628Z</time></trkpt><trkpt lat="40.0293598" lon="9.4868249"><ele>942.0</ele><time>2026-04-22T11:45:47.623Z</time></trkpt><trkpt lat="40.0294647" lon="9.486749"><ele>946.75</ele><time>2026-04-22T11:45:48.622Z</time></trkpt><trkpt lat="40.02956" lon="9.4866519"><ele>951.5</ele><time>2026-04-22T11:45:49.623Z</time></trkpt><trkpt lat="40.0296573" lon="9.4865442"><ele>956.25</ele><time>2026-04-22T11:45:50.625Z</time></trkpt><trkpt lat="40.0297631" lon="9.4864423"><ele>961.0</ele><time>2026-04-22T11:45:51.626Z</time></trkpt><trkpt lat="40.0298623" lon="9.486347"><ele>961.0</ele><time>2026-04-22T11:45:52.63Z</time></trkpt><trkpt lat="40.0299612" lon="9.4862635"><ele>961.0</ele><time>2026-04-22T11:45:53.632Z</time></trkpt><trkpt lat="40.0300763" lon="9.4861845"><ele>961.0</ele><time>2026-04-22T11:45:54.631Z</time></trkpt><trkpt lat="40.0301869" lon="9.4861079"><ele>961.0</ele><time>2026-04-22T11:45:55.632Z</time></trkpt><trkpt lat="40.030295" lon="9.4860347"><ele>964.8</ele><time>2026-04-22T11:45:56.631Z</time></trkpt><trkpt lat="40.0303972" lon="9.4859625"><ele>968.5999999999999</ele><time>2026-04-22T11:45:57.631Z</time></trkpt><trkpt lat="40.0304999" lon="9.4858919"><ele>972.4</ele><time>2026-04-22T11:45:58.63Z</time></trkpt><trkpt lat="40.0305928" lon="9.4858251"><ele>976.2</ele><time>2026-04-22T11:45:59.63Z</time></trkpt><trkpt lat="40.0306871" lon="9.4857818"><ele>980.0</ele><time>2026-04-22T11:46:00.633Z</time></trkpt><trkpt lat="40.0307733" lon="9.485788"><ele>979.2</ele><time>2026-04-22T11:46:01.619Z</time></trkpt><trkpt lat="40.0308495" lon="9.4858371"><ele>978.4</ele><time>2026-04-22T11:46:02.622Z</time></trkpt><trkpt lat="40.0309406" lon="9.4859151"><ele>977.5999999999999</ele><time>2026-04-22T11:46:03.617Z</time></trkpt><trkpt lat="40.0310384" lon="9.4860044"><ele>976.8</ele><time>2026-04-22T11:46:04.625Z</time></trkpt><trkpt lat="40.0311435" lon="9.4860782"><ele>976.0</ele><time>2026-04-22T11:46:05.622Z</time></trkpt><trkpt lat="40.0312575" lon="9.4861313"><ele>976.0</ele><time>2026-04-22T11:46:06.628Z</time></trkpt><trkpt lat="40.0313726" lon="9.486177"><ele>975.9999999999999</ele><time>2026-04-22T11:46:07.636Z</time></trkpt><trkpt lat="40.0314741" lon="9.4862204"><ele>975.9999999999999</ele><time>2026-04-22T11:46:08.627Z</time></trkpt><trkpt lat="40.0315676" lon="9.4862566"><ele>976.0</ele><time>2026-04-22T11:46:09.631Z</time></trkpt><trkpt lat="40.031652" lon="9.4862657"><ele>976.0</ele><time>2026-04-22T11:46:10.635Z</time></trkpt><trkpt lat="40.0317292" lon="9.4862268"><ele>977.5999999999999</ele><time>2026-04-22T11:46:11.63Z</time></trkpt><trkpt lat="40.0317972" lon="9.4861451"><ele>979.1999999999999</ele><time>2026-04-22T11:46:12.633Z</time></trkpt><trkpt lat="40.0318339" lon="9.4860312"><ele>980.8000000000001</ele><time>2026-04-22T11:46:13.627Z</time></trkpt><trkpt lat="40.0318319" lon="9.4858913"><ele>982.4000000000001</ele><time>2026-04-22T11:46:14.611Z</time></trkpt><trkpt lat="40.0318225" lon="9.4857564"><ele>984.0</ele><time>2026-04-22T11:46:15.623Z</time></trkpt><trkpt lat="40.0318063" lon="9.4856364"><ele>984.0</ele><time>2026-04-22T11:46:16.622Z</time></trkpt><trkpt lat="40.0317997" lon="9.4855225"><ele>984.0</ele><time>2026-04-22T11:46:17.619Z</time></trkpt><trkpt lat="40.0317913" lon="9.4854248"><ele>984.0</ele><time>2026-04-22T11:46:18.623Z</time></trkpt><trkpt lat="40.0317645" lon="9.4853187"><ele>984.0</ele><time>2026-04-22T11:46:19.621Z</time></trkpt><trkpt lat="40.0317153" lon="9.4852307"><ele>984.0</ele><time>2026-04-22T11:46:20.627Z</time></trkpt><trkpt lat="40.0316196" lon="9.4851464"><ele>984.0</ele><time>2026-04-22T11:46:21.621Z</time></trkpt><trkpt lat="40.0315103" lon="9.4850709"><ele>986.4000000000001</ele><time>2026-04-22T11:46:22.62Z</time></trkpt><trkpt lat="40.0314193" lon="9.4849855"><ele>988.8000000000001</ele><time>2026-04-22T11:46:23.622Z</time></trkpt><trkpt lat="40.031341" lon="9.4848934"><ele>991.1999999999999</ele><time>2026-04-22T11:46:24.624Z</time></trkpt><trkpt lat="40.0312954" lon="9.4847922"><ele>993.5999999999999</ele><time>2026-04-22T11:46:25.624Z</time></trkpt><trkpt lat="40.0312811" lon="9.4846722"><ele>996.0</ele><time>2026-04-22T11:46:26.622Z</time></trkpt><trkpt lat="40.0312866" lon="9.4845343"><ele>997.0</ele><time>2026-04-22T11:46:27.615Z</time></trkpt><trkpt lat="40.031318" lon="9.4844024"><ele>997.9999999999999</ele><time>2026-04-22T11:46:28.619Z</time></trkpt><trkpt lat="40.0313737" lon="9.4842935"><ele>998.9999999999999</ele><time>2026-04-22T11:46:29.612Z</time></trkpt><trkpt lat="40.0314237" lon="9.4841616"><ele>1000.0</ele><time>2026-04-22T11:46:30.62Z</time></trkpt><trkpt lat="40.0314687" lon="9.4840252"><ele>1001.0</ele><time>2026-04-22T11:46:31.617Z</time></trkpt><trkpt lat="40.0315189" lon="9.4838828"><ele>1002.75</ele><time>2026-04-22T11:46:32.625Z</time></trkpt><trkpt lat="40.0315691" lon="9.4837428"><ele>1004.5</ele><time>2026-04-22T11:46:33.618Z</time></trkpt><trkpt lat="40.0316369" lon="9.483618"><ele>1006.25</ele><time>2026-04-22T11:46:34.62Z</time></trkpt><trkpt lat="40.0317146" lon="9.4835086"><ele>1008.0</ele><time>2026-04-22T11:46:35.624Z</time></trkpt><trkpt lat="40.0318036" lon="9.4834091"><ele>1010.75</ele><time>2026-04-22T11:46:36.622Z</time></trkpt><trkpt lat="40.0318936" lon="9.4833109"><ele>1013.5</ele><time>2026-04-22T11:46:37.622Z</time></trkpt><trkpt lat="40.03197" lon="9.4832003"><ele>1016.25</ele><time>2026-04-22T11:46:38.628Z</time></trkpt><trkpt lat="40.0320301" lon="9.4830716"><ele>1019.0</ele><time>2026-04-22T11:46:39.624Z</time></trkpt><trkpt lat="40.0320865" lon="9.4829342"><ele>1023.8000000000001</ele><time>2026-04-22T11:46:40.617Z</time></trkpt><trkpt lat="40.032125" lon="9.4828013"><ele>1028.6000000000001</ele><time>2026-04-22T11:46:41.622Z</time></trkpt><trkpt lat="40.0321636" lon="9.4826712"><ele>1033.4</ele><time>2026-04-22T11:46:42.625Z</time></trkpt><trkpt lat="40.0322105" lon="9.4825601"><ele>1038.2</ele><time>2026-04-22T11:46:43.622Z</time></trkpt><trkpt lat="40.0322661" lon="9.482464"><ele>1043.0</ele><time>2026-04-22T11:46:44.616Z</time></trkpt><trkpt lat="40.0323537" lon="9.4824015"><ele>1043.0</ele><time>2026-04-22T11:46:45.614Z</time></trkpt><trkpt lat="40.0324524" lon="9.4823683"><ele>1043.0</ele><time>2026-04-22T11:46:46.607Z</time></trkpt><trkpt lat="40.0325846" lon="9.4823698"><ele>1043.0</ele><time>2026-04-22T11:46:47.609Z</time></trkpt><trkpt lat="40.0327159" lon="9.482367"><ele>1043.0</ele><time>2026-04-22T11:46:48.609Z</time></trkpt><trkpt lat="40.032837" lon="9.4823199"><ele>1039.0</ele><time>2026-04-22T11:46:49.623Z</time></trkpt><trkpt lat="40.0329596" lon="9.4822568"><ele>1035.0</ele><time>2026-04-22T11:46:50.629Z</time></trkpt><trkpt lat="40.0330851" lon="9.4821504"><ele>1031.0</ele><time>2026-04-22T11:46:51.629Z</time></trkpt><trkpt lat="40.0332008" lon="9.4820432"><ele>1027.0</ele><time>2026-04-22T11:46:52.627Z</time></trkpt><trkpt lat="40.0332993" lon="9.4819242"><ele>1031.0</ele><time>2026-04-22T11:46:53.629Z</time></trkpt><trkpt lat="40.033396" lon="9.4818019"><ele>1035.0</ele><time>2026-04-22T11:46:54.63Z</time></trkpt><trkpt lat="40.0334943" lon="9.4816725"><ele>1039.0</ele><time>2026-04-22T11:46:55.626Z</time></trkpt><trkpt lat="40.0335733" lon="9.4815367"><ele>1043.0</ele><time>2026-04-22T11:46:56.62Z</time></trkpt><trkpt lat="40.0336227" lon="9.4813831"><ele>1048.0</ele><time>2026-04-22T11:46:57.62Z</time></trkpt><trkpt lat="40.0336526" lon="9.4812231"><ele>1053.0</ele><time>2026-04-22T11:46:58.618Z</time></trkpt><trkpt lat="40.0336581" lon="9.4810532"><ele>1058.0</ele><time>2026-04-22T11:46:59.616Z</time></trkpt><trkpt lat="40.0336563" lon="9.4808817"><ele>1063.0</ele><time>2026-04-22T11:47:00.625Z</time></trkpt><trkpt lat="40.033657" lon="9.4807209"><ele>1063.0</ele><time>2026-04-22T11:47:01.622Z</time></trkpt><trkpt lat="40.0336593" lon="9.4805641"><ele>1063.0</ele><time>2026-04-22T11:47:02.618Z</time></trkpt><trkpt lat="40.0336632" lon="9.4804354"><ele>1063.0</ele><time>2026-04-22T11:47:03.62Z</time></trkpt><trkpt lat="40.0336688" lon="9.4803059"><ele>1063.0</ele><time>2026-04-22T11:47:04.615Z</time></trkpt><trkpt lat="40.0336966" lon="9.4801669"><ele>1063.0</ele><time>2026-04-22T11:47:05.617Z</time></trkpt><trkpt lat="40.0337452" lon="9.4800545"><ele>1062.2</ele><time>2026-04-22T11:47:06.611Z</time></trkpt><trkpt lat="40.0338224" lon="9.4799666"><ele>1061.4</ele><time>2026-04-22T11:47:07.604Z</time></trkpt><trkpt lat="40.0339205" lon="9.4799118"><ele>1060.6000000000001</ele><time>2026-04-22T11:47:08.609Z</time></trkpt><trkpt lat="40.0340261" lon="9.4798705"><ele>1059.8</ele><time>2026-04-22T11:47:09.598Z</time></trkpt><trkpt lat="40.0341376" lon="9.4798255"><ele>1059.0</ele><time>2026-04-22T11:47:10.621Z</time></trkpt><trkpt lat="40.034266" lon="9.4797953"><ele>1059.0</ele><time>2026-04-22T11:47:11.619Z</time></trkpt><trkpt lat="40.0343856" lon="9.479729"><ele>1059.0</ele><time>2026-04-22T11:47:12.624Z</time></trkpt><trkpt lat="40.0344757" lon="9.4796101"><ele>1059.0</ele><time>2026-04-22T11:47:13.621Z</time></trkpt><trkpt lat="40.0345633" lon="9.4794882"><ele>1059.0</ele><time>2026-04-22T11:47:14.632Z</time></trkpt><trkpt lat="40.0346516" lon="9.479362"><ele>1060.25</ele><time>2026-04-22T11:47:15.622Z</time></trkpt><trkpt lat="40.0347534" lon="9.4792463"><ele>1061.5</ele><time>2026-04-22T11:47:16.627Z</time></trkpt><trkpt lat="40.0348486" lon="9.4791423"><ele>1062.75</ele><time>2026-04-22T11:47:17.623Z</time></trkpt><trkpt lat="40.0349392" lon="9.4790281"><ele>1064.0</ele><time>2026-04-22T11:47:18.627Z</time></trkpt><trkpt lat="40.0350228" lon="9.4789132"><ele>1064.0</ele><time>2026-04-22T11:47:19.629Z</time></trkpt><trkpt lat="40.0350921" lon="9.4787853"><ele>1064.0</ele><time>2026-04-22T11:47:20.625Z</time></trkpt><trkpt lat="40.0351477" lon="9.4786462"><ele>1064.0</ele><time>2026-04-22T11:47:21.632Z</time></trkpt><trkpt lat="40.0352082" lon="9.4784943"><ele>1064.0</ele><time>2026-04-22T11:47:22.629Z</time></trkpt><trkpt lat="40.0352778" lon="9.4783567"><ele>1068.5</ele><time>2026-04-22T11:47:23.625Z</time></trkpt><trkpt lat="40.0353685" lon="9.4782521"><ele>1073.0</ele><time>2026-04-22T11:47:24.637Z</time></trkpt><trkpt lat="40.0354651" lon="9.4781494"><ele>1077.5</ele><time>2026-04-22T11:47:25.631Z</time></trkpt><trkpt lat="40.0355716" lon="9.4780507"><ele>1082.0</ele><time>2026-04-22T11:47:26.642Z</time></trkpt><trkpt lat="40.0356744" lon="9.4779382"><ele>1083.5</ele><time>2026-04-22T11:47:27.628Z</time></trkpt><trkpt lat="40.0357575" lon="9.4777982"><ele>1085.0</ele><time>2026-04-22T11:47:28.64Z</time></trkpt><trkpt lat="40.0358307" lon="9.4776563"><ele>1086.5</ele><time>2026-04-22T11:47:29.636Z</time></trkpt><trkpt lat="40.0359097" lon="9.4775168"><ele>1088.0</ele><time>2026-04-22T11:47:30.638Z</time></trkpt><trkpt lat="40.0359881" lon="9.4773739"><ele>1088.0</ele><time>2026-04-22T11:47:31.633Z</time></trkpt><trkpt lat="40.0360824" lon="9.4772284"><ele>1088.0</ele><time>2026-04-22T11:47:32.633Z</time></trkpt><trkpt lat="40.0361728" lon="9.477057"><ele>1088.0</ele><time>2026-04-22T11:47:33.627Z</time></trkpt><trkpt lat="40.0362537" lon="9.4768915"><ele>1088.75</ele><time>2026-04-22T11:47:34.631Z</time></trkpt><trkpt lat="40.0363005" lon="9.4767133"><ele>1089.5</ele><time>2026-04-22T11:47:35.625Z</time></trkpt><trkpt lat="40.0363478" lon="9.476521"><ele>1090.25</ele><time>2026-04-22T11:47:36.627Z</time></trkpt><trkpt lat="40.0363809" lon="9.4763736"><ele>1091.0</ele><time>2026-04-22T11:47:37.626Z</time></trkpt><trkpt lat="40.0364234" lon="9.4762333"><ele>1091.6</ele><time>2026-04-22T11:47:38.633Z</time></trkpt><trkpt lat="40.0364559" lon="9.4761117"><ele>1092.1999999999998</ele><time>2026-04-22T11:47:39.632Z</time></trkpt><trkpt lat="40.0365042" lon="9.4759694"><ele>1092.8000000000002</ele><time>2026-04-22T11:47:40.631Z</time></trkpt><trkpt lat="40.0365278" lon="9.4758423"><ele>1093.4</ele><time>2026-04-22T11:47:41.636Z</time></trkpt><trkpt lat="40.0365673" lon="9.4756818"><ele>1094.0</ele><time>2026-04-22T11:47:42.63Z</time></trkpt><trkpt lat="40.036602" lon="9.4755211"><ele>1093.75</ele><time>2026-04-22T11:47:43.625Z</time></trkpt><trkpt lat="40.0366118" lon="9.4753575"><ele>1093.5</ele><time>2026-04-22T11:47:44.628Z</time></trkpt><trkpt lat="40.0365926" lon="9.4751887"><ele>1093.25</ele><time>2026-04-22T11:47:45.624Z</time></trkpt><trkpt lat="40.036555" lon="9.4750147"><ele>1093.0</ele><time>2026-04-22T11:47:46.627Z</time></trkpt><trkpt lat="40.03649" lon="9.4748439"><ele>1093.0</ele><time>2026-04-22T11:47:47.633Z</time></trkpt><trkpt lat="40.0364161" lon="9.4746763"><ele>1093.0</ele><time>2026-04-22T11:47:48.631Z</time></trkpt><trkpt lat="40.0363571" lon="9.4744957"><ele>1093.0</ele><time>2026-04-22T11:47:49.63Z</time></trkpt><trkpt lat="40.0363043" lon="9.4743049"><ele>1092.3333333333333</ele><time>2026-04-22T11:47:50.635Z</time></trkpt><trkpt lat="40.0362252" lon="9.4741156"><ele>1091.6666666666667</ele><time>2026-04-22T11:47:51.627Z</time></trkpt><trkpt lat="40.0361752" lon="9.4739033"><ele>1091.0</ele><time>2026-04-22T11:47:52.632Z</time></trkpt><trkpt lat="40.0361336" lon="9.4737012"><ele>1090.3333333333335</ele><time>2026-04-22T11:47:53.633Z</time></trkpt><trkpt lat="40.0360678" lon="9.4734871"><ele>1089.6666666666667</ele><time>2026-04-22T11:47:54.629Z</time></trkpt><trkpt lat="40.0360075" lon="9.4732946"><ele>1089.0</ele><time>2026-04-22T11:47:55.634Z</time></trkpt><trkpt lat="40.0359577" lon="9.4730888"><ele>1088.3333333333333</ele><time>2026-04-22T11:47:56.633Z</time></trkpt><trkpt lat="40.0359005" lon="9.4728834"><ele>1087.6666666666665</ele><time>2026-04-22T11:47:57.632Z</time></trkpt><trkpt lat="40.0358602" lon="9.472683"><ele>1087.0</ele><time>2026-04-22T11:47:58.638Z</time></trkpt><trkpt lat="40.0358058" lon="9.4724739"><ele>1087.0</ele><time>2026-04-22T11:47:59.632Z</time></trkpt><trkpt lat="40.0357569" lon="9.4722497"><ele>1087.0</ele><time>2026-04-22T11:48:00.634Z</time></trkpt><trkpt lat="40.0357177" lon="9.4720344"><ele>1087.0</ele><time>2026-04-22T11:48:01.632Z</time></trkpt><trkpt lat="40.0356732" lon="9.471817"><ele>1086.3333333333333</ele><time>2026-04-22T11:48:02.632Z</time></trkpt><trkpt lat="40.0356304" lon="9.4715927"><ele>1085.6666666666667</ele><time>2026-04-22T11:48:03.633Z</time></trkpt><trkpt lat="40.0355824" lon="9.4713777"><ele>1085.0</ele><time>2026-04-22T11:48:04.632Z</time></trkpt><trkpt lat="40.0355435" lon="9.4711678"><ele>1084.6666666666667</ele><time>2026-04-22T11:48:05.635Z</time></trkpt><trkpt lat="40.0355094" lon="9.4709526"><ele>1084.3333333333333</ele><time>2026-04-22T11:48:06.632Z</time></trkpt><trkpt lat="40.0354677" lon="9.4707346"><ele>1084.0</ele><time>2026-04-22T11:48:07.634Z</time></trkpt><trkpt lat="40.0354347" lon="9.470526"><ele>1084.6666666666665</ele><time>2026-04-22T11:48:08.636Z</time></trkpt><trkpt lat="40.0353838" lon="9.470319"><ele>1085.3333333333333</ele><time>2026-04-22T11:48:09.635Z</time></trkpt><trkpt lat="40.0353433" lon="9.4701227"><ele>1086.0</ele><time>2026-04-22T11:48:10.637Z</time></trkpt><trkpt lat="40.0352993" lon="9.4699132"><ele>1086.0</ele><time>2026-04-22T11:48:11.639Z</time></trkpt><trkpt lat="40.0352493" lon="9.4697049"><ele>1086.0</ele><time>2026-04-22T11:48:12.633Z</time></trkpt><trkpt lat="40.0352244" lon="9.4694988"><ele>1086.0</ele><time>2026-04-22T11:48:13.632Z</time></trkpt><trkpt lat="40.0352281" lon="9.4692858"><ele>1086.6666666666667</ele><time>2026-04-22T11:48:14.631Z</time></trkpt><trkpt lat="40.0352423" lon="9.4690896"><ele>1087.3333333333335</ele><time>2026-04-22T11:48:15.63Z</time></trkpt><trkpt lat="40.0352776" lon="9.468866"><ele>1088.0</ele><time>2026-04-22T11:48:16.635Z</time></trkpt><trkpt lat="40.035322" lon="9.4686511"><ele>1088.3333333333335</ele><time>2026-04-22T11:48:17.636Z</time></trkpt><trkpt lat="40.0353717" lon="9.4684353"><ele>1088.6666666666667</ele><time>2026-04-22T11:48:18.637Z</time></trkpt><trkpt lat="40.0354346" lon="9.4682395"><ele>1089.0</ele><time>2026-04-22T11:48:19.64Z</time></trkpt><trkpt lat="40.0355028" lon="9.4680129"><ele>1090.6666666666667</ele><time>2026-04-22T11:48:20.639Z</time></trkpt><trkpt lat="40.0355727" lon="9.4677893"><ele>1092.3333333333335</ele><time>2026-04-22T11:48:21.635Z</time></trkpt><trkpt lat="40.0356258" lon="9.4675786"><ele>1094.0</ele><time>2026-04-22T11:48:22.641Z</time></trkpt><trkpt lat="40.0356864" lon="9.4673646"><ele>1094.0</ele><time>2026-04-22T11:48:23.646Z</time></trkpt><trkpt lat="40.0357403" lon="9.4671619"><ele>1094.0</ele><time>2026-04-22T11:48:24.642Z</time></trkpt><trkpt lat="40.0357963" lon="9.4669441"><ele>1094.0</ele><time>2026-04-22T11:48:25.644Z</time></trkpt><trkpt lat="40.0358629" lon="9.466714"><ele>1095.6666666666667</ele><time>2026-04-22T11:48:26.64Z</time></trkpt><trkpt lat="40.035939" lon="9.4665042"><ele>1097.3333333333333</ele><time>2026-04-22T11:48:27.639Z</time></trkpt><trkpt lat="40.0359989" lon="9.4662858"><ele>1099.0</ele><time>2026-04-22T11:48:28.64Z</time></trkpt><trkpt lat="40.036061" lon="9.4660784"><ele>1099.0</ele><time>2026-04-22T11:48:29.638Z</time></trkpt><trkpt lat="40.0361207" lon="9.4658847"><ele>1099.0</ele><time>2026-04-22T11:48:30.638Z</time></trkpt><trkpt lat="40.0361778" lon="9.4656729"><ele>1099.0</ele><time>2026-04-22T11:48:31.639Z</time></trkpt><trkpt lat="40.0362322" lon="9.4654832"><ele>1098.3333333333333</ele><time>2026-04-22T11:48:32.631Z</time></trkpt><trkpt lat="40.0362943" lon="9.4652686"><ele>1097.6666666666667</ele><time>2026-04-22T11:48:33.631Z</time></trkpt><trkpt lat="40.0363516" lon="9.4650641"><ele>1097.0</ele><time>2026-04-22T11:48:34.632Z</time></trkpt><trkpt lat="40.0364146" lon="9.4648858"><ele>1097.0</ele><time>2026-04-22T11:48:35.629Z</time></trkpt><trkpt lat="40.0365116" lon="9.4647095"><ele>1097.0</ele><time>2026-04-22T11:48:36.636Z</time></trkpt><trkpt lat="40.0366009" lon="9.4645129"><ele>1097.0</ele><time>2026-04-22T11:48:37.631Z</time></trkpt><trkpt lat="40.0367085" lon="9.4643321"><ele>1097.3333333333335</ele><time>2026-04-22T11:48:38.63Z</time></trkpt><trkpt lat="40.0368127" lon="9.464179"><ele>1097.6666666666667</ele><time>2026-04-22T11:48:39.639Z</time></trkpt><trkpt lat="40.0369295" lon="9.4640309"><ele>1098.0</ele><time>2026-04-22T11:48:40.629Z</time></trkpt><trkpt lat="40.0370417" lon="9.463884"><ele>1097.0</ele><time>2026-04-22T11:48:41.629Z</time></trkpt><trkpt lat="40.0371461" lon="9.4637363"><ele>1096.0</ele><time>2026-04-22T11:48:42.631Z</time></trkpt><trkpt lat="40.0372465" lon="9.4636153"><ele>1095.0</ele><time>2026-04-22T11:48:43.632Z</time></trkpt><trkpt lat="40.0373487" lon="9.4634664"><ele>1094.0</ele><time>2026-04-22T11:48:44.628Z</time></trkpt><trkpt lat="40.0374381" lon="9.4633398"><ele>1095.0</ele><time>2026-04-22T11:48:45.632Z</time></trkpt><trkpt lat="40.0375337" lon="9.4632019"><ele>1096.0</ele><time>2026-04-22T11:48:46.632Z</time></trkpt><trkpt lat="40.0376378" lon="9.4630742"><ele>1097.0</ele><time>2026-04-22T11:48:47.626Z</time></trkpt><trkpt lat="40.0377394" lon="9.4629519"><ele>1098.0</ele><time>2026-04-22T11:48:48.636Z</time></trkpt><trkpt lat="40.0378462" lon="9.4628046"><ele>1094.3333333333333</ele><time>2026-04-22T11:48:49.63Z</time></trkpt><trkpt lat="40.0379573" lon="9.46265"><ele>1090.6666666666665</ele><time>2026-04-22T11:48:50.632Z</time></trkpt><trkpt lat="40.0380546" lon="9.4625005"><ele>1087.0</ele><time>2026-04-22T11:48:51.628Z</time></trkpt><trkpt lat="40.0381624" lon="9.4623575"><ele>1087.0</ele><time>2026-04-22T11:48:52.63Z</time></trkpt><trkpt lat="40.0382577" lon="9.4622362"><ele>1087.0</ele><time>2026-04-22T11:48:53.631Z</time></trkpt><trkpt lat="40.0383565" lon="9.4621247"><ele>1087.0</ele><time>2026-04-22T11:48:54.628Z</time></trkpt><trkpt lat="40.038447" lon="9.4620054"><ele>1087.0</ele><time>2026-04-22T11:48:55.62Z</time></trkpt><trkpt lat="40.038561" lon="9.4619005"><ele>1088.0</ele><time>2026-04-22T11:48:56.634Z</time></trkpt><trkpt lat="40.0387045" lon="9.461828"><ele>1089.0</ele><time>2026-04-22T11:48:57.63Z</time></trkpt><trkpt lat="40.0388516" lon="9.461765"><ele>1090.0</ele><time>2026-04-22T11:48:58.636Z</time></trkpt><trkpt lat="40.0390082" lon="9.4616877"><ele>1090.6666666666665</ele><time>2026-04-22T11:48:59.635Z</time></trkpt><trkpt lat="40.0391571" lon="9.4616263"><ele>1091.3333333333333</ele><time>2026-04-22T11:49:00.634Z</time></trkpt><trkpt lat="40.039302" lon="9.4615339"><ele>1092.0</ele><time>2026-04-22T11:49:01.629Z</time></trkpt><trkpt lat="40.0394337" lon="9.4614341"><ele>1092.0</ele><time>2026-04-22T11:49:02.633Z</time></trkpt><trkpt lat="40.0395546" lon="9.4613536"><ele>1092.0</ele><time>2026-04-22T11:49:03.634Z</time></trkpt><trkpt lat="40.0396712" lon="9.461272"><ele>1092.0</ele><time>2026-04-22T11:49:04.633Z</time></trkpt><trkpt lat="40.0397937" lon="9.4611861"><ele>1092.0</ele><time>2026-04-22T11:49:05.638Z</time></trkpt><trkpt lat="40.0399229" lon="9.4610887"><ele>1091.5</ele><time>2026-04-22T11:49:06.635Z</time></trkpt><trkpt lat="40.0400506" lon="9.4610073"><ele>1091.0</ele><time>2026-04-22T11:49:07.637Z</time></trkpt><trkpt lat="40.0401877" lon="9.4608956"><ele>1090.5</ele><time>2026-04-22T11:49:08.626Z</time></trkpt><trkpt lat="40.0403146" lon="9.4608101"><ele>1090.0</ele><time>2026-04-22T11:49:09.63Z</time></trkpt><trkpt lat="40.0404516" lon="9.4607389"><ele>1090.0</ele><time>2026-04-22T11:49:10.627Z</time></trkpt><trkpt lat="40.0405788" lon="9.460647"><ele>1090.0</ele><time>2026-04-22T11:49:11.631Z</time></trkpt><trkpt lat="40.0407095" lon="9.4605655"><ele>1090.0</ele><time>2026-04-22T11:49:12.63Z</time></trkpt><trkpt lat="40.0408298" lon="9.460475"><ele>1090.0</ele><time>2026-04-22T11:49:13.63Z</time></trkpt><trkpt lat="40.0409461" lon="9.460372"><ele>1088.25</ele><time>2026-04-22T11:49:14.623Z</time></trkpt><trkpt lat="40.0410466" lon="9.4602284"><ele>1086.5</ele><time>2026-04-22T11:49:15.621Z</time></trkpt><trkpt lat="40.0411308" lon="9.4600941"><ele>1084.75</ele><time>2026-04-22T11:49:16.617Z</time></trkpt><trkpt lat="40.0412029" lon="9.4599498"><ele>1083.0</ele><time>2026-04-22T11:49:17.622Z</time></trkpt><trkpt lat="40.0412559" lon="9.4597696"><ele>1080.0</ele><time>2026-04-22T11:49:18.629Z</time></trkpt><trkpt lat="40.0413148" lon="9.4596011"><ele>1077.0</ele><time>2026-04-22T11:49:19.622Z</time></trkpt><trkpt lat="40.0413599" lon="9.459435"><ele>1074.0</ele><time>2026-04-22T11:49:20.628Z</time></trkpt><trkpt lat="40.0414338" lon="9.4592425"><ele>1071.0</ele><time>2026-04-22T11:49:21.623Z</time></trkpt><trkpt lat="40.0414891" lon="9.4590473"><ele>1071.0</ele><time>2026-04-22T11:49:22.627Z</time></trkpt><trkpt lat="40.0415677" lon="9.4588584"><ele>1071.0</ele><time>2026-04-22T11:49:23.626Z</time></trkpt><trkpt lat="40.0416286" lon="9.4586886"><ele>1071.0</ele><time>2026-04-22T11:49:24.63Z</time></trkpt><trkpt lat="40.0416958" lon="9.458492"><ele>1070.25</ele><time>2026-04-22T11:49:25.633Z</time></trkpt><trkpt lat="40.0417582" lon="9.4583187"><ele>1069.5</ele><time>2026-04-22T11:49:26.63Z</time></trkpt><trkpt lat="40.0418237" lon="9.4581505"><ele>1068.75</ele><time>2026-04-22T11:49:27.632Z</time></trkpt><trkpt lat="40.0418891" lon="9.4579709"><ele>1068.0</ele><time>2026-04-22T11:49:28.638Z</time></trkpt><trkpt lat="40.0419493" lon="9.457801"><ele>1068.0</ele><time>2026-04-22T11:49:29.63Z</time></trkpt><trkpt lat="40.0420116" lon="9.4576345"><ele>1068.0</ele><time>2026-04-22T11:49:30.638Z</time></trkpt><trkpt lat="40.0420634" lon="9.4574823"><ele>1068.0</ele><time>2026-04-22T11:49:31.628Z</time></trkpt><trkpt lat="40.0421224" lon="9.4573165"><ele>1068.0</ele><time>2026-04-22T11:49:32.633Z</time></trkpt><trkpt lat="40.0421803" lon="9.4571337"><ele>1067.6666666666667</ele><time>2026-04-22T11:49:33.63Z</time></trkpt><trkpt lat="40.0422439" lon="9.4569482"><ele>1067.3333333333335</ele><time>2026-04-22T11:49:34.63Z</time></trkpt><trkpt lat="40.0423017" lon="9.4567769"><ele>1067.0</ele><time>2026-04-22T11:49:35.631Z</time></trkpt><trkpt lat="40.0423652" lon="9.4565964"><ele>1067.0</ele><time>2026-04-22T11:49:36.633Z</time></trkpt><trkpt lat="40.0424175" lon="9.4564207"><ele>1067.0</ele><time>2026-04-22T11:49:37.625Z</time></trkpt><trkpt lat="40.0424834" lon="9.4562572"><ele>1067.0</ele><time>2026-04-22T11:49:38.641Z</time></trkpt><trkpt lat="40.0425464" lon="9.4560975"><ele>1067.0</ele><time>2026-04-22T11:49:39.641Z</time></trkpt><trkpt lat="40.0426064" lon="9.4559394"><ele>1066.5</ele><time>2026-04-22T11:49:40.639Z</time></trkpt><trkpt lat="40.0426643" lon="9.4557999"><ele>1066.0</ele><time>2026-04-22T11:49:41.637Z</time></trkpt><trkpt lat="40.0427251" lon="9.4556512"><ele>1065.5</ele><time>2026-04-22T11:49:42.635Z</time></trkpt><trkpt lat="40.0427689" lon="9.4555143"><ele>1065.0</ele><time>2026-04-22T11:49:43.636Z</time></trkpt><trkpt lat="40.042823" lon="9.4553871"><ele>1065.0</ele><time>2026-04-22T11:49:44.629Z</time></trkpt><trkpt lat="40.0428563" lon="9.4552754"><ele>1065.0</ele><time>2026-04-22T11:49:45.628Z</time></trkpt><trkpt lat="40.0428973" lon="9.4551637"><ele>1065.0</ele><time>2026-04-22T11:49:46.631Z</time></trkpt><trkpt lat="40.0429406" lon="9.4550504"><ele>1065.0</ele><time>2026-04-22T11:49:47.629Z</time></trkpt><trkpt lat="40.042983" lon="9.45494"><ele>1065.0</ele><time>2026-04-22T11:49:48.63Z</time></trkpt><trkpt lat="40.0430207" lon="9.4548376"><ele>1065.0</ele><time>2026-04-22T11:49:49.628Z</time></trkpt><trkpt lat="40.043052" lon="9.4547458"><ele>1065.0</ele><time>2026-04-22T11:49:50.628Z</time></trkpt><trkpt lat="40.0430789" lon="9.4546659"><ele>1065.0</ele><time>2026-04-22T11:49:51.627Z</time></trkpt><trkpt lat="40.0431096" lon="9.4545937"><ele>1065.0</ele><time>2026-04-22T11:49:52.632Z</time></trkpt><trkpt lat="40.0431988" lon="9.4545029"><ele>1065.0</ele><time>2026-04-22T11:49:54.622Z</time></trkpt><trkpt lat="40.0432614" lon="9.4544878"><ele>1065.0</ele><time>2026-04-22T11:49:55.625Z</time></trkpt><trkpt lat="40.0433317" lon="9.4545119"><ele>1067.2</ele><time>2026-04-22T11:49:56.613Z</time></trkpt><trkpt lat="40.0434021" lon="9.4545819"><ele>1069.4</ele><time>2026-04-22T11:49:57.633Z</time></trkpt><trkpt lat="40.0434658" lon="9.4546919"><ele>1071.6</ele><time>2026-04-22T11:49:58.623Z</time></trkpt><trkpt lat="40.0435278" lon="9.454812"><ele>1073.8</ele><time>2026-04-22T11:49:59.623Z</time></trkpt><trkpt lat="40.0435952" lon="9.4549289"><ele>1076.0</ele><time>2026-04-22T11:50:00.627Z</time></trkpt><trkpt lat="40.0436661" lon="9.4550487"><ele>1076.0</ele><time>2026-04-22T11:50:01.623Z</time></trkpt><trkpt lat="40.0437365" lon="9.4551657"><ele>1076.0</ele><time>2026-04-22T11:50:02.621Z</time></trkpt><trkpt lat="40.0438176" lon="9.4552823"><ele>1076.0</ele><time>2026-04-22T11:50:03.622Z</time></trkpt><trkpt lat="40.0438963" lon="9.4553861"><ele>1076.0</ele><time>2026-04-22T11:50:04.619Z</time></trkpt><trkpt lat="40.0439762" lon="9.4554882"><ele>1076.6</ele><time>2026-04-22T11:50:05.62Z</time></trkpt><trkpt lat="40.0440505" lon="9.4555979"><ele>1077.1999999999998</ele><time>2026-04-22T11:50:06.621Z</time></trkpt><trkpt lat="40.0441178" lon="9.4557166"><ele>1077.8000000000002</ele><time>2026-04-22T11:50:07.618Z</time></trkpt><trkpt lat="40.0441605" lon="9.4558273"><ele>1078.4</ele><time>2026-04-22T11:50:08.618Z</time></trkpt><trkpt lat="40.0441707" lon="9.4559488"><ele>1079.0</ele><time>2026-04-22T11:50:09.618Z</time></trkpt><trkpt lat="40.0441529" lon="9.4560773"><ele>1079.0</ele><time>2026-04-22T11:50:10.62Z</time></trkpt><trkpt lat="40.0440974" lon="9.4562095"><ele>1079.0</ele><time>2026-04-22T11:50:11.617Z</time></trkpt><trkpt lat="40.0440199" lon="9.4563362"><ele>1079.0</ele><time>2026-04-22T11:50:12.618Z</time></trkpt><trkpt lat="40.0439445" lon="9.4564671"><ele>1079.0</ele><time>2026-04-22T11:50:13.624Z</time></trkpt><trkpt lat="40.0438845" lon="9.456584"><ele>1077.6000000000001</ele><time>2026-04-22T11:50:14.618Z</time></trkpt><trkpt lat="40.0438306" lon="9.4567049"><ele>1076.2</ele><time>2026-04-22T11:50:15.611Z</time></trkpt><trkpt lat="40.0437931" lon="9.4568179"><ele>1074.8000000000002</ele><time>2026-04-22T11:50:16.62Z</time></trkpt><trkpt lat="40.0437677" lon="9.456939"><ele>1073.4</ele><time>2026-04-22T11:50:17.623Z</time></trkpt><trkpt lat="40.0437562" lon="9.4570445"><ele>1072.0</ele><time>2026-04-22T11:50:18.622Z</time></trkpt><trkpt lat="40.0438001" lon="9.4571956"><ele>1071.1666666666665</ele><time>2026-04-22T11:50:20.625Z</time></trkpt><trkpt lat="40.0438468" lon="9.4572552"><ele>1070.3333333333333</ele><time>2026-04-22T11:50:21.625Z</time></trkpt><trkpt lat="40.0439022" lon="9.457296"><ele>1069.5</ele><time>2026-04-22T11:50:22.627Z</time></trkpt><trkpt lat="40.0440308" lon="9.457281"><ele>1068.6666666666667</ele><time>2026-04-22T11:50:24.626Z</time></trkpt><trkpt lat="40.0441046" lon="9.4572411"><ele>1067.8333333333335</ele><time>2026-04-22T11:50:25.622Z</time></trkpt><trkpt lat="40.0441844" lon="9.4571871"><ele>1067.0</ele><time>2026-04-22T11:50:26.628Z</time></trkpt><trkpt lat="40.0442786" lon="9.4571473"><ele>1065.5</ele><time>2026-04-22T11:50:27.633Z</time></trkpt><trkpt lat="40.0443911" lon="9.4571136"><ele>1064.0</ele><time>2026-04-22T11:50:28.627Z</time></trkpt><trkpt lat="40.0445139" lon="9.4570941"><ele>1062.5</ele><time>2026-04-22T11:50:29.631Z</time></trkpt><trkpt lat="40.0446317" lon="9.457081"><ele>1061.0</ele><time>2026-04-22T11:50:30.631Z</time></trkpt><trkpt lat="40.0447393" lon="9.4570705"><ele>1061.0</ele><time>2026-04-22T11:50:31.628Z</time></trkpt><trkpt lat="40.0448484" lon="9.4570517"><ele>1061.0</ele><time>2026-04-22T11:50:32.624Z</time></trkpt><trkpt lat="40.0449622" lon="9.4569928"><ele>1061.0</ele><time>2026-04-22T11:50:33.63Z</time></trkpt><trkpt lat="40.045076" lon="9.4569194"><ele>1061.0</ele><time>2026-04-22T11:50:34.628Z</time></trkpt><trkpt lat="40.0451851" lon="9.4568239"><ele>1059.5</ele><time>2026-04-22T11:50:35.633Z</time></trkpt><trkpt lat="40.0452859" lon="9.4567278"><ele>1058.0</ele><time>2026-04-22T11:50:36.633Z</time></trkpt><trkpt lat="40.0453921" lon="9.4566143"><ele>1056.5</ele><time>2026-04-22T11:50:37.628Z</time></trkpt><trkpt lat="40.0454927" lon="9.4565149"><ele>1055.0</ele><time>2026-04-22T11:50:38.634Z</time></trkpt><trkpt lat="40.0455902" lon="9.456398"><ele>1055.0</ele><time>2026-04-22T11:50:39.656Z</time></trkpt><trkpt lat="40.0456826" lon="9.4562913"><ele>1055.0</ele><time>2026-04-22T11:50:40.633Z</time></trkpt><trkpt lat="40.045786" lon="9.4561817"><ele>1055.0</ele><time>2026-04-22T11:50:41.633Z</time></trkpt><trkpt lat="40.0458981" lon="9.4560624"><ele>1055.0</ele><time>2026-04-22T11:50:42.633Z</time></trkpt><trkpt lat="40.046016" lon="9.4559225"><ele>1054.0</ele><time>2026-04-22T11:50:43.632Z</time></trkpt><trkpt lat="40.046124" lon="9.4557939"><ele>1053.0</ele><time>2026-04-22T11:50:44.641Z</time></trkpt><trkpt lat="40.046245" lon="9.4556439"><ele>1052.0</ele><time>2026-04-22T11:50:45.63Z</time></trkpt><trkpt lat="40.046369" lon="9.4555281"><ele>1051.5</ele><time>2026-04-22T11:50:46.634Z</time></trkpt><trkpt lat="40.046481" lon="9.4554058"><ele>1051.0</ele><time>2026-04-22T11:50:47.629Z</time></trkpt><trkpt lat="40.0465924" lon="9.4552747"><ele>1050.5</ele><time>2026-04-22T11:50:48.634Z</time></trkpt><trkpt lat="40.0466962" lon="9.4551691"><ele>1050.0</ele><time>2026-04-22T11:50:49.629Z</time></trkpt><trkpt lat="40.0467942" lon="9.4550614"><ele>1050.0</ele><time>2026-04-22T11:50:50.633Z</time></trkpt><trkpt lat="40.0468915" lon="9.4549749"><ele>1050.0</ele><time>2026-04-22T11:50:51.628Z</time></trkpt><trkpt lat="40.0469988" lon="9.4548947"><ele>1050.0</ele><time>2026-04-22T11:50:52.626Z</time></trkpt><trkpt lat="40.0471076" lon="9.4548218"><ele>1050.0</ele><time>2026-04-22T11:50:53.625Z</time></trkpt><trkpt lat="40.0472488" lon="9.454744"><ele>1050.0</ele><time>2026-04-22T11:50:54.628Z</time></trkpt><trkpt lat="40.0473869" lon="9.454699"><ele>1050.0</ele><time>2026-04-22T11:50:55.627Z</time></trkpt><trkpt lat="40.0475094" lon="9.4546794"><ele>1050.0</ele><time>2026-04-22T11:50:56.629Z</time></trkpt><trkpt lat="40.047629" lon="9.4546703"><ele>1050.0</ele><time>2026-04-22T11:50:57.632Z</time></trkpt><trkpt lat="40.0477427" lon="9.4546687"><ele>1050.4</ele><time>2026-04-22T11:50:58.634Z</time></trkpt><trkpt lat="40.0478477" lon="9.4546765"><ele>1050.8</ele><time>2026-04-22T11:50:59.627Z</time></trkpt><trkpt lat="40.0479526" lon="9.4547058"><ele>1051.2</ele><time>2026-04-22T11:51:00.621Z</time></trkpt><trkpt lat="40.0480489" lon="9.4547533"><ele>1051.6</ele><time>2026-04-22T11:51:01.619Z</time></trkpt><trkpt lat="40.0481266" lon="9.4548098"><ele>1052.0</ele><time>2026-04-22T11:51:02.622Z</time></trkpt><trkpt lat="40.0481886" lon="9.4548957"><ele>1052.0</ele><time>2026-04-22T11:51:03.628Z</time></trkpt><trkpt lat="40.0482521" lon="9.4549747"><ele>1052.0</ele><time>2026-04-22T11:51:04.623Z</time></trkpt><trkpt lat="40.0483287" lon="9.4550443"><ele>1052.0</ele><time>2026-04-22T11:51:05.622Z</time></trkpt><trkpt lat="40.0484119" lon="9.4551093"><ele>1052.0</ele><time>2026-04-22T11:51:06.627Z</time></trkpt><trkpt lat="40.0485053" lon="9.4551709"><ele>1052.0</ele><time>2026-04-22T11:51:07.631Z</time></trkpt><trkpt lat="40.0486061" lon="9.4552266"><ele>1051.2</ele><time>2026-04-22T11:51:08.629Z</time></trkpt><trkpt lat="40.0487056" lon="9.4552743"><ele>1050.4</ele><time>2026-04-22T11:51:09.621Z</time></trkpt><trkpt lat="40.0487984" lon="9.4553293"><ele>1049.6</ele><time>2026-04-22T11:51:10.627Z</time></trkpt><trkpt lat="40.0488941" lon="9.4553706"><ele>1048.8</ele><time>2026-04-22T11:51:11.625Z</time></trkpt><trkpt lat="40.0489861" lon="9.4554192"><ele>1048.0</ele><time>2026-04-22T11:51:12.627Z</time></trkpt><trkpt lat="40.049078" lon="9.4554887"><ele>1048.4</ele><time>2026-04-22T11:51:13.634Z</time></trkpt><trkpt lat="40.0491528" lon="9.4555795"><ele>1048.8</ele><time>2026-04-22T11:51:14.624Z</time></trkpt><trkpt lat="40.0492337" lon="9.4556697"><ele>1049.2</ele><time>2026-04-22T11:51:15.636Z</time></trkpt><trkpt lat="40.0493172" lon="9.4557556"><ele>1049.6</ele><time>2026-04-22T11:51:16.631Z</time></trkpt><trkpt lat="40.0493988" lon="9.4558285"><ele>1050.0</ele><time>2026-04-22T11:51:17.629Z</time></trkpt><trkpt lat="40.0494929" lon="9.4558991"><ele>1050.0</ele><time>2026-04-22T11:51:18.634Z</time></trkpt><trkpt lat="40.0495928" lon="9.4559634"><ele>1050.0</ele><time>2026-04-22T11:51:19.628Z</time></trkpt><trkpt lat="40.0496897" lon="9.4560297"><ele>1050.0</ele><time>2026-04-22T11:51:20.625Z</time></trkpt><trkpt lat="40.049797" lon="9.4560982"><ele>1050.0</ele><time>2026-04-22T11:51:21.623Z</time></trkpt><trkpt lat="40.0499017" lon="9.456168"><ele>1050.25</ele><time>2026-04-22T11:51:22.618Z</time></trkpt><trkpt lat="40.0499974" lon="9.4562533"><ele>1050.5</ele><time>2026-04-22T11:51:23.623Z</time></trkpt><trkpt lat="40.0500838" lon="9.4563453"><ele>1050.75</ele><time>2026-04-22T11:51:24.625Z</time></trkpt><trkpt lat="40.0501611" lon="9.456461"><ele>1051.0</ele><time>2026-04-22T11:51:25.632Z</time></trkpt><trkpt lat="40.0502396" lon="9.4565741"><ele>1051.75</ele><time>2026-04-22T11:51:26.626Z</time></trkpt><trkpt lat="40.0503141" lon="9.456681"><ele>1052.5</ele><time>2026-04-22T11:51:27.626Z</time></trkpt><trkpt lat="40.0503911" lon="9.4567901"><ele>1053.25</ele><time>2026-04-22T11:51:28.636Z</time></trkpt><trkpt lat="40.0504837" lon="9.4569049"><ele>1054.0</ele><time>2026-04-22T11:51:29.63Z</time></trkpt><trkpt lat="40.050581" lon="9.4569953"><ele>1054.0</ele><time>2026-04-22T11:51:30.632Z</time></trkpt><trkpt lat="40.0506834" lon="9.4570787"><ele>1054.0</ele><time>2026-04-22T11:51:31.624Z</time></trkpt><trkpt lat="40.0507821" lon="9.4571532"><ele>1054.0</ele><time>2026-04-22T11:51:32.626Z</time></trkpt><trkpt lat="40.0508881" lon="9.4571988"><ele>1054.0</ele><time>2026-04-22T11:51:33.634Z</time></trkpt><trkpt lat="40.0509986" lon="9.4572275"><ele>1054.5</ele><time>2026-04-22T11:51:34.634Z</time></trkpt><trkpt lat="40.05111" lon="9.4572133"><ele>1055.0</ele><time>2026-04-22T11:51:35.636Z</time></trkpt><trkpt lat="40.0512262" lon="9.4571823"><ele>1055.5</ele><time>2026-04-22T11:51:36.633Z</time></trkpt><trkpt lat="40.0513414" lon="9.4571469"><ele>1056.0</ele><time>2026-04-22T11:51:37.635Z</time></trkpt><trkpt lat="40.0514632" lon="9.457108"><ele>1056.0</ele><time>2026-04-22T11:51:38.64Z</time></trkpt><trkpt lat="40.0515828" lon="9.4570879"><ele>1056.0</ele><time>2026-04-22T11:51:39.635Z</time></trkpt><trkpt lat="40.0517045" lon="9.4570763"><ele>1056.0</ele><time>2026-04-22T11:51:40.644Z</time></trkpt><trkpt lat="40.0518308" lon="9.4570735"><ele>1056.0</ele><time>2026-04-22T11:51:41.631Z</time></trkpt><trkpt lat="40.0519608" lon="9.4570698"><ele>1057.75</ele><time>2026-04-22T11:51:42.635Z</time></trkpt><trkpt lat="40.0520819" lon="9.4570577"><ele>1059.5</ele><time>2026-04-22T11:51:43.636Z</time></trkpt><trkpt lat="40.0522074" lon="9.4570493"><ele>1061.25</ele><time>2026-04-22T11:51:44.637Z</time></trkpt><trkpt lat="40.0523446" lon="9.4570618"><ele>1063.0</ele><time>2026-04-22T11:51:45.631Z</time></trkpt><trkpt lat="40.0524848" lon="9.4570807"><ele>1064.0</ele><time>2026-04-22T11:51:46.635Z</time></trkpt><trkpt lat="40.0526192" lon="9.4571284"><ele>1065.0</ele><time>2026-04-22T11:51:47.634Z</time></trkpt><trkpt lat="40.052753" lon="9.4571918"><ele>1066.0</ele><time>2026-04-22T11:51:48.637Z</time></trkpt><trkpt lat="40.0528738" lon="9.4572605"><ele>1067.0</ele><time>2026-04-22T11:51:49.628Z</time></trkpt><trkpt lat="40.052991" lon="9.4572938"><ele>1067.0</ele><time>2026-04-22T11:51:50.634Z</time></trkpt><trkpt lat="40.0530947" lon="9.4573302"><ele>1067.0</ele><time>2026-04-22T11:51:51.625Z</time></trkpt><trkpt lat="40.0532147" lon="9.4573468"><ele>1067.0</ele><time>2026-04-22T11:51:52.632Z</time></trkpt><trkpt lat="40.0533409" lon="9.4573354"><ele>1067.0</ele><time>2026-04-22T11:51:53.636Z</time></trkpt><trkpt lat="40.053465" lon="9.4573137"><ele>1067.0</ele><time>2026-04-22T11:51:54.634Z</time></trkpt><trkpt lat="40.0535804" lon="9.4573071"><ele>1067.0</ele><time>2026-04-22T11:51:55.639Z</time></trkpt><trkpt lat="40.0537012" lon="9.4572989"><ele>1067.0</ele><time>2026-04-22T11:51:56.64Z</time></trkpt><trkpt lat="40.0538201" lon="9.457298"><ele>1067.0</ele><time>2026-04-22T11:51:57.635Z</time></trkpt><trkpt lat="40.053937" lon="9.457313"><ele>1067.0</ele><time>2026-04-22T11:51:58.644Z</time></trkpt><trkpt lat="40.0540499" lon="9.4573412"><ele>1067.0</ele><time>2026-04-22T11:51:59.643Z</time></trkpt><trkpt lat="40.0541736" lon="9.4573717"><ele>1067.0</ele><time>2026-04-22T11:52:00.641Z</time></trkpt><trkpt lat="40.0542782" lon="9.4573883"><ele>1067.0</ele><time>2026-04-22T11:52:01.631Z</time></trkpt><trkpt lat="40.0543913" lon="9.4573533"><ele>1067.75</ele><time>2026-04-22T11:52:02.635Z</time></trkpt><trkpt lat="40.0545055" lon="9.4573006"><ele>1068.5</ele><time>2026-04-22T11:52:03.63Z</time></trkpt><trkpt lat="40.0546195" lon="9.4572285"><ele>1069.25</ele><time>2026-04-22T11:52:04.645Z</time></trkpt><trkpt lat="40.0547319" lon="9.4571536"><ele>1070.0</ele><time>2026-04-22T11:52:05.635Z</time></trkpt><trkpt lat="40.0548561" lon="9.4571095"><ele>1070.25</ele><time>2026-04-22T11:52:06.636Z</time></trkpt><trkpt lat="40.0549867" lon="9.4570939"><ele>1070.5</ele><time>2026-04-22T11:52:07.633Z</time></trkpt><trkpt lat="40.0551181" lon="9.4570917"><ele>1070.75</ele><time>2026-04-22T11:52:08.635Z</time></trkpt><trkpt lat="40.0552593" lon="9.4570962"><ele>1071.0</ele><time>2026-04-22T11:52:09.634Z</time></trkpt><trkpt lat="40.0553992" lon="9.4571039"><ele>1071.75</ele><time>2026-04-22T11:52:10.63Z</time></trkpt><trkpt lat="40.0555387" lon="9.4571392"><ele>1072.5</ele><time>2026-04-22T11:52:11.637Z</time></trkpt><trkpt lat="40.0556829" lon="9.4571807"><ele>1073.25</ele><time>2026-04-22T11:52:12.643Z</time></trkpt><trkpt lat="40.055812" lon="9.4572423"><ele>1074.0</ele><time>2026-04-22T11:52:13.642Z</time></trkpt><trkpt lat="40.0559441" lon="9.4573067"><ele>1074.5</ele><time>2026-04-22T11:52:14.64Z</time></trkpt><trkpt lat="40.0560901" lon="9.4573301"><ele>1075.0</ele><time>2026-04-22T11:52:15.646Z</time></trkpt><trkpt lat="40.0562429" lon="9.4573506"><ele>1075.5</ele><time>2026-04-22T11:52:16.645Z</time></trkpt><trkpt lat="40.0563803" lon="9.4573958"><ele>1076.0</ele><time>2026-04-22T11:52:17.64Z</time></trkpt><trkpt lat="40.0565285" lon="9.4574458"><ele>1077.0</ele><time>2026-04-22T11:52:18.643Z</time></trkpt><trkpt lat="40.0566744" lon="9.4574819"><ele>1078.0</ele><time>2026-04-22T11:52:19.641Z</time></trkpt><trkpt lat="40.0568103" lon="9.4575396"><ele>1079.0</ele><time>2026-04-22T11:52:20.648Z</time></trkpt><trkpt lat="40.0569412" lon="9.4575899"><ele>1080.0</ele><time>2026-04-22T11:52:21.641Z</time></trkpt><trkpt lat="40.0570776" lon="9.4576315"><ele>1080.0</ele><time>2026-04-22T11:52:22.638Z</time></trkpt><trkpt lat="40.0572177" lon="9.457668"><ele>1080.0</ele><time>2026-04-22T11:52:23.628Z</time></trkpt><trkpt lat="40.0573414" lon="9.4577338"><ele>1080.0</ele><time>2026-04-22T11:52:24.638Z</time></trkpt><trkpt lat="40.0574869" lon="9.4577705"><ele>1080.0</ele><time>2026-04-22T11:52:25.635Z</time></trkpt><trkpt lat="40.0576408" lon="9.4577907"><ele>1080.3333333333333</ele><time>2026-04-22T11:52:26.639Z</time></trkpt><trkpt lat="40.057803" lon="9.4577639"><ele>1080.6666666666665</ele><time>2026-04-22T11:52:27.629Z</time></trkpt><trkpt lat="40.057948" lon="9.4577583"><ele>1081.0</ele><time>2026-04-22T11:52:28.632Z</time></trkpt><trkpt lat="40.0580934" lon="9.4577445"><ele>1081.0</ele><time>2026-04-22T11:52:29.637Z</time></trkpt><trkpt lat="40.0582417" lon="9.4577355"><ele>1081.0</ele><time>2026-04-22T11:52:30.636Z</time></trkpt><trkpt lat="40.0583836" lon="9.4577011"><ele>1081.0</ele><time>2026-04-22T11:52:31.631Z</time></trkpt><trkpt lat="40.0585345" lon="9.4576778"><ele>1081.0</ele><time>2026-04-22T11:52:32.633Z</time></trkpt><trkpt lat="40.058679" lon="9.457636"><ele>1082.3333333333333</ele><time>2026-04-22T11:52:33.633Z</time></trkpt><trkpt lat="40.0588304" lon="9.4576228"><ele>1083.6666666666667</ele><time>2026-04-22T11:52:34.636Z</time></trkpt><trkpt lat="40.0589914" lon="9.4576338"><ele>1085.0</ele><time>2026-04-22T11:52:35.645Z</time></trkpt><trkpt lat="40.0591441" lon="9.4576858"><ele>1087.0</ele><time>2026-04-22T11:52:36.639Z</time></trkpt><trkpt lat="40.0592941" lon="9.4577335"><ele>1089.0</ele><time>2026-04-22T11:52:37.638Z</time></trkpt><trkpt lat="40.0594219" lon="9.4577906"><ele>1091.0</ele><time>2026-04-22T11:52:38.638Z</time></trkpt><trkpt lat="40.0595342" lon="9.457834"><ele>1093.0</ele><time>2026-04-22T11:52:39.641Z</time></trkpt><trkpt lat="40.0596494" lon="9.4578626"><ele>1093.0</ele><time>2026-04-22T11:52:40.631Z</time></trkpt><trkpt lat="40.0597347" lon="9.4579025"><ele>1093.0</ele><time>2026-04-22T11:52:41.636Z</time></trkpt><trkpt lat="40.0598099" lon="9.45791"><ele>1093.0</ele><time>2026-04-22T11:52:42.638Z</time></trkpt><trkpt lat="40.0598884" lon="9.4579295"><ele>1093.0</ele><time>2026-04-22T11:52:43.635Z</time></trkpt><trkpt lat="40.0600232" lon="9.4579031"><ele>1093.0</ele><time>2026-04-22T11:52:45.636Z</time></trkpt><trkpt lat="40.0600899" lon="9.4578835"><ele>1094.1666666666665</ele><time>2026-04-22T11:52:46.639Z</time></trkpt><trkpt lat="40.0601632" lon="9.4578473"><ele>1095.3333333333333</ele><time>2026-04-22T11:52:47.638Z</time></trkpt><trkpt lat="40.0602505" lon="9.4578205"><ele>1096.5</ele><time>2026-04-22T11:52:48.641Z</time></trkpt><trkpt lat="40.0603288" lon="9.4578082"><ele>1097.6666666666667</ele><time>2026-04-22T11:52:49.636Z</time></trkpt><trkpt lat="40.0604034" lon="9.457814"><ele>1098.8333333333335</ele><time>2026-04-22T11:52:50.635Z</time></trkpt><trkpt lat="40.060478" lon="9.4578229"><ele>1100.0</ele><time>2026-04-22T11:52:51.637Z</time></trkpt><trkpt lat="40.0605497" lon="9.457845"><ele>1100.0</ele><time>2026-04-22T11:52:52.636Z</time></trkpt><trkpt lat="40.0606286" lon="9.4578957"><ele>1100.0</ele><time>2026-04-22T11:52:53.632Z</time></trkpt><trkpt lat="40.0607006" lon="9.4579554"><ele>1100.0</ele><time>2026-04-22T11:52:54.63Z</time></trkpt><trkpt lat="40.0607613" lon="9.4580284"><ele>1100.0</ele><time>2026-04-22T11:52:55.635Z</time></trkpt><trkpt lat="40.0608338" lon="9.4580879"><ele>1100.0</ele><time>2026-04-22T11:52:56.634Z</time></trkpt><trkpt lat="40.0609116" lon="9.4581288"><ele>1100.0</ele><time>2026-04-22T11:52:57.629Z</time></trkpt><trkpt lat="40.0609949" lon="9.4581771"><ele>1099.3333333333335</ele><time>2026-04-22T11:52:58.639Z</time></trkpt><trkpt lat="40.061078" lon="9.458217"><ele>1098.6666666666667</ele><time>2026-04-22T11:52:59.631Z</time></trkpt><trkpt lat="40.0611592" lon="9.4582437"><ele>1098.0</ele><time>2026-04-22T11:53:00.63Z</time></trkpt><trkpt lat="40.0612287" lon="9.4582871"><ele>1097.3333333333333</ele><time>2026-04-22T11:53:01.631Z</time></trkpt><trkpt lat="40.0612894" lon="9.4583417"><ele>1096.6666666666665</ele><time>2026-04-22T11:53:02.635Z</time></trkpt><trkpt lat="40.0613634" lon="9.4583999"><ele>1096.0</ele><time>2026-04-22T11:53:03.633Z</time></trkpt><trkpt lat="40.0614388" lon="9.4584507"><ele>1096.0</ele><time>2026-04-22T11:53:04.632Z</time></trkpt><trkpt lat="40.0615098" lon="9.4584888"><ele>1096.0</ele><time>2026-04-22T11:53:05.628Z</time></trkpt><trkpt lat="40.0615788" lon="9.4585356"><ele>1096.0</ele><time>2026-04-22T11:53:06.637Z</time></trkpt><trkpt lat="40.0616204" lon="9.458601"><ele>1096.0</ele><time>2026-04-22T11:53:07.63Z</time></trkpt><trkpt lat="40.0616951" lon="9.4586829"><ele>1096.0</ele><time>2026-04-22T11:53:09.62Z</time></trkpt><trkpt lat="40.0617722" lon="9.4586585"><ele>1096.0</ele><time>2026-04-22T11:53:11.629Z</time></trkpt><trkpt lat="40.0618393" lon="9.4585116"><ele>1094.3333333333333</ele><time>2026-04-22T11:53:13.627Z</time></trkpt><trkpt lat="40.0619386" lon="9.4584194"><ele>1092.6666666666665</ele><time>2026-04-22T11:53:15.631Z</time></trkpt><trkpt lat="40.062012" lon="9.4584044"><ele>1091.0</ele><time>2026-04-22T11:53:16.63Z</time></trkpt><trkpt lat="40.0620943" lon="9.4583959"><ele>1089.3333333333333</ele><time>2026-04-22T11:53:17.627Z</time></trkpt><trkpt lat="40.0621716" lon="9.4583909"><ele>1087.6666666666667</ele><time>2026-04-22T11:53:18.631Z</time></trkpt><trkpt lat="40.0622545" lon="9.4583815"><ele>1086.0</ele><time>2026-04-22T11:53:19.628Z</time></trkpt><trkpt lat="40.0623391" lon="9.4583824"><ele>1086.0</ele><time>2026-04-22T11:53:20.636Z</time></trkpt><trkpt lat="40.0624294" lon="9.4583989"><ele>1086.0</ele><time>2026-04-22T11:53:21.63Z</time></trkpt><trkpt lat="40.0625223" lon="9.458421"><ele>1086.0</ele><time>2026-04-22T11:53:22.631Z</time></trkpt><trkpt lat="40.0626158" lon="9.4584529"><ele>1086.0</ele><time>2026-04-22T11:53:23.636Z</time></trkpt><trkpt lat="40.0626907" lon="9.4584986"><ele>1086.0</ele><time>2026-04-22T11:53:24.634Z</time></trkpt><trkpt lat="40.0627696" lon="9.4585445"><ele>1084.7142857142858</ele><time>2026-04-22T11:53:25.632Z</time></trkpt><trkpt lat="40.062856" lon="9.4585654"><ele>1083.4285714285713</ele><time>2026-04-22T11:53:26.634Z</time></trkpt><trkpt lat="40.0629379" lon="9.4585708"><ele>1082.142857142857</ele><time>2026-04-22T11:53:27.627Z</time></trkpt><trkpt lat="40.063011" lon="9.4585659"><ele>1080.857142857143</ele><time>2026-04-22T11:53:28.641Z</time></trkpt><trkpt lat="40.0630792" lon="9.4585416"><ele>1079.5714285714287</ele><time>2026-04-22T11:53:29.627Z</time></trkpt><trkpt lat="40.0631459" lon="9.4585253"><ele>1078.2857142857142</ele><time>2026-04-22T11:53:30.636Z</time></trkpt><trkpt lat="40.0632125" lon="9.4585223"><ele>1077.0</ele><time>2026-04-22T11:53:31.63Z</time></trkpt><trkpt lat="40.063279" lon="9.4585261"><ele>1075.8333333333333</ele><time>2026-04-22T11:53:32.629Z</time></trkpt><trkpt lat="40.0633473" lon="9.4585219"><ele>1074.6666666666667</ele><time>2026-04-22T11:53:33.63Z</time></trkpt><trkpt lat="40.0634097" lon="9.4585086"><ele>1073.5</ele><time>2026-04-22T11:53:34.629Z</time></trkpt><trkpt lat="40.0635418" lon="9.4584967"><ele>1072.3333333333335</ele><time>2026-04-22T11:53:36.628Z</time></trkpt><trkpt lat="40.0636038" lon="9.4585237"><ele>1071.1666666666667</ele><time>2026-04-22T11:53:37.634Z</time></trkpt><trkpt lat="40.0636615" lon="9.4585628"><ele>1070.0</ele><time>2026-04-22T11:53:38.628Z</time></trkpt><trkpt lat="40.0637846" lon="9.4585501"><ele>1070.0</ele><time>2026-04-22T11:53:40.625Z</time></trkpt><trkpt lat="40.0638435" lon="9.4584921"><ele>1070.0</ele><time>2026-04-22T11:53:41.626Z</time></trkpt><trkpt lat="40.0639079" lon="9.4584417"><ele>1070.0</ele><time>2026-04-22T11:53:42.629Z</time></trkpt><trkpt lat="40.0639888" lon="9.4584139"><ele>1070.0</ele><time>2026-04-22T11:53:43.631Z</time></trkpt><trkpt lat="40.0640775" lon="9.4584112"><ele>1070.0</ele><time>2026-04-22T11:53:44.63Z</time></trkpt><trkpt lat="40.0641733" lon="9.4584262"><ele>1070.0</ele><time>2026-04-22T11:53:45.634Z</time></trkpt><trkpt lat="40.0642672" lon="9.4584567"><ele>1069.0</ele><time>2026-04-22T11:53:46.641Z</time></trkpt><trkpt lat="40.0643624" lon="9.4584918"><ele>1068.0</ele><time>2026-04-22T11:53:47.64Z</time></trkpt><trkpt lat="40.0644469" lon="9.4585399"><ele>1067.0</ele><time>2026-04-22T11:53:48.644Z</time></trkpt><trkpt lat="40.064526" lon="9.4585872"><ele>1066.0</ele><time>2026-04-22T11:53:49.641Z</time></trkpt><trkpt lat="40.0646108" lon="9.4586305"><ele>1065.0</ele><time>2026-04-22T11:53:50.641Z</time></trkpt><trkpt lat="40.0647006" lon="9.4586728"><ele>1065.0</ele><time>2026-04-22T11:53:51.643Z</time></trkpt><trkpt lat="40.0647895" lon="9.4587107"><ele>1065.0</ele><time>2026-04-22T11:53:52.642Z</time></trkpt><trkpt lat="40.0648713" lon="9.4587465"><ele>1065.0</ele><time>2026-04-22T11:53:53.642Z</time></trkpt><trkpt lat="40.0649579" lon="9.4587756"><ele>1065.0</ele><time>2026-04-22T11:53:54.643Z</time></trkpt><trkpt lat="40.0650464" lon="9.4588116"><ele>1065.0</ele><time>2026-04-22T11:53:55.644Z</time></trkpt><trkpt lat="40.0651242" lon="9.4588538"><ele>1065.0</ele><time>2026-04-22T11:53:56.655Z</time></trkpt><trkpt lat="40.065191" lon="9.458883"><ele>1065.25</ele><time>2026-04-22T11:53:57.645Z</time></trkpt><trkpt lat="40.065294" lon="9.4589531"><ele>1065.5</ele><time>2026-04-22T11:53:59.643Z</time></trkpt><trkpt lat="40.0653281" lon="9.4590964"><ele>1065.75</ele><time>2026-04-22T11:54:01.638Z</time></trkpt><trkpt lat="40.0652771" lon="9.4592389"><ele>1066.0</ele><time>2026-04-22T11:54:03.643Z</time></trkpt><trkpt lat="40.0652675" lon="9.4593697"><ele>1066.0</ele><time>2026-04-22T11:54:05.632Z</time></trkpt><trkpt lat="40.0653778" lon="9.4594543"><ele>1066.0</ele><time>2026-04-22T11:54:07.632Z</time></trkpt><trkpt lat="40.0654716" lon="9.4594743"><ele>1066.0</ele><time>2026-04-22T11:54:08.646Z</time></trkpt><trkpt lat="40.0655627" lon="9.4594941"><ele>1066.0</ele><time>2026-04-22T11:54:09.633Z</time></trkpt><trkpt lat="40.0656628" lon="9.4595195"><ele>1066.0</ele><time>2026-04-22T11:54:10.633Z</time></trkpt><trkpt lat="40.0657581" lon="9.4595403"><ele>1063.2</ele><time>2026-04-22T11:54:11.638Z</time></trkpt><trkpt lat="40.0658596" lon="9.4595471"><ele>1060.3999999999999</ele><time>2026-04-22T11:54:12.637Z</time></trkpt><trkpt lat="40.065952" lon="9.4595645"><ele>1057.6</ele><time>2026-04-22T11:54:13.64Z</time></trkpt><trkpt lat="40.0660432" lon="9.4595706"><ele>1054.8</ele><time>2026-04-22T11:54:14.637Z</time></trkpt><trkpt lat="40.0661257" lon="9.4595711"><ele>1052.0</ele><time>2026-04-22T11:54:15.64Z</time></trkpt><trkpt lat="40.0662084" lon="9.4595549"><ele>1052.0</ele><time>2026-04-22T11:54:16.637Z</time></trkpt><trkpt lat="40.0663036" lon="9.4595293"><ele>1052.0</ele><time>2026-04-22T11:54:17.64Z</time></trkpt><trkpt lat="40.0663958" lon="9.4595267"><ele>1052.0</ele><time>2026-04-22T11:54:18.643Z</time></trkpt><trkpt lat="40.06649" lon="9.4595316"><ele>1052.0</ele><time>2026-04-22T11:54:19.639Z</time></trkpt><trkpt lat="40.0665768" lon="9.4595244"><ele>1052.0</ele><time>2026-04-22T11:54:20.639Z</time></trkpt><trkpt lat="40.0666666" lon="9.4595079"><ele>1050.2</ele><time>2026-04-22T11:54:21.638Z</time></trkpt><trkpt lat="40.0667649" lon="9.4594994"><ele>1048.4</ele><time>2026-04-22T11:54:22.635Z</time></trkpt><trkpt lat="40.0668716" lon="9.4594943"><ele>1046.6</ele><time>2026-04-22T11:54:23.638Z</time></trkpt><trkpt lat="40.0669768" lon="9.4594975"><ele>1044.8</ele><time>2026-04-22T11:54:24.637Z</time></trkpt><trkpt lat="40.0670738" lon="9.4594967"><ele>1043.0</ele><time>2026-04-22T11:54:25.637Z</time></trkpt><trkpt lat="40.0671629" lon="9.4594848"><ele>1043.0</ele><time>2026-04-22T11:54:26.639Z</time></trkpt><trkpt lat="40.0672417" lon="9.4594511"><ele>1043.0</ele><time>2026-04-22T11:54:27.633Z</time></trkpt><trkpt lat="40.0673102" lon="9.4594173"><ele>1043.0</ele><time>2026-04-22T11:54:28.634Z</time></trkpt><trkpt lat="40.0673815" lon="9.4593836"><ele>1043.0</ele><time>2026-04-22T11:54:29.63Z</time></trkpt><trkpt lat="40.0674533" lon="9.4593794"><ele>1043.0</ele><time>2026-04-22T11:54:30.633Z</time></trkpt><trkpt lat="40.0675301" lon="9.4593931"><ele>1043.0</ele><time>2026-04-22T11:54:31.627Z</time></trkpt><trkpt lat="40.0675879" lon="9.4594594"><ele>1043.0</ele><time>2026-04-22T11:54:32.636Z</time></trkpt><trkpt lat="40.0676459" lon="9.4595248"><ele>1043.0</ele><time>2026-04-22T11:54:33.627Z</time></trkpt><trkpt lat="40.0677202" lon="9.4595726"><ele>1043.0</ele><time>2026-04-22T11:54:34.628Z</time></trkpt><trkpt lat="40.0677858" lon="9.4595911"><ele>1043.0</ele><time>2026-04-22T11:54:35.628Z</time></trkpt><trkpt lat="40.0678579" lon="9.4595725"><ele>1043.0</ele><time>2026-04-22T11:54:36.632Z</time></trkpt><trkpt lat="40.0679233" lon="9.4595559"><ele>1043.0</ele><time>2026-04-22T11:54:37.631Z</time></trkpt><trkpt lat="40.0680022" lon="9.459528"><ele>1043.0</ele><time>2026-04-22T11:54:38.637Z</time></trkpt><trkpt lat="40.0681005" lon="9.4595153"><ele>1043.0</ele><time>2026-04-22T11:54:39.634Z</time></trkpt><trkpt lat="40.0682047" lon="9.4595112"><ele>1043.0</ele><time>2026-04-22T11:54:40.641Z</time></trkpt><trkpt lat="40.0683092" lon="9.4595017"><ele>1043.0</ele><time>2026-04-22T11:54:41.634Z</time></trkpt><trkpt lat="40.0684052" lon="9.4595033"><ele>1043.0</ele><time>2026-04-22T11:54:42.639Z</time></trkpt><trkpt lat="40.0684988" lon="9.4595375"><ele>1043.0</ele><time>2026-04-22T11:54:43.642Z</time></trkpt><trkpt lat="40.0685888" lon="9.4595625"><ele>1042.4</ele><time>2026-04-22T11:54:44.642Z</time></trkpt><trkpt lat="40.0686836" lon="9.4595814"><ele>1041.8</ele><time>2026-04-22T11:54:45.642Z</time></trkpt><trkpt lat="40.0687729" lon="9.4595968"><ele>1041.2</ele><time>2026-04-22T11:54:46.647Z</time></trkpt><trkpt lat="40.0688615" lon="9.4596074"><ele>1040.6</ele><time>2026-04-22T11:54:47.646Z</time></trkpt><trkpt lat="40.0689497" lon="9.4596397"><ele>1040.0</ele><time>2026-04-22T11:54:48.656Z</time></trkpt><trkpt lat="40.0690366" lon="9.4596657"><ele>1040.6</ele><time>2026-04-22T11:54:49.648Z</time></trkpt><trkpt lat="40.0691214" lon="9.4596781"><ele>1041.2</ele><time>2026-04-22T11:54:50.649Z</time></trkpt><trkpt lat="40.0692049" lon="9.4596773"><ele>1041.8</ele><time>2026-04-22T11:54:51.638Z</time></trkpt><trkpt lat="40.0693006" lon="9.4596694"><ele>1042.4</ele><time>2026-04-22T11:54:52.647Z</time></trkpt><trkpt lat="40.0694007" lon="9.4596458"><ele>1043.0</ele><time>2026-04-22T11:54:53.643Z</time></trkpt><trkpt lat="40.0695068" lon="9.4596279"><ele>1043.0</ele><time>2026-04-22T11:54:54.642Z</time></trkpt><trkpt lat="40.0696063" lon="9.4596115"><ele>1043.0</ele><time>2026-04-22T11:54:55.642Z</time></trkpt><trkpt lat="40.0697013" lon="9.4596136"><ele>1043.0</ele><time>2026-04-22T11:54:56.641Z</time></trkpt><trkpt lat="40.0697825" lon="9.4596226"><ele>1043.0</ele><time>2026-04-22T11:54:57.641Z</time></trkpt><trkpt lat="40.0698648" lon="9.4596214"><ele>1043.0</ele><time>2026-04-22T11:54:58.646Z</time></trkpt><trkpt lat="40.0699579" lon="9.459593"><ele>1040.8</ele><time>2026-04-22T11:54:59.644Z</time></trkpt><trkpt lat="40.070045" lon="9.4595747"><ele>1038.6</ele><time>2026-04-22T11:55:00.644Z</time></trkpt><trkpt lat="40.0701392" lon="9.4595508"><ele>1036.4</ele><time>2026-04-22T11:55:01.639Z</time></trkpt><trkpt lat="40.0702367" lon="9.4595255"><ele>1034.2</ele><time>2026-04-22T11:55:02.641Z</time></trkpt><trkpt lat="40.0703327" lon="9.4594925"><ele>1032.0</ele><time>2026-04-22T11:55:03.635Z</time></trkpt><trkpt lat="40.0704281" lon="9.4594497"><ele>1032.0</ele><time>2026-04-22T11:55:04.638Z</time></trkpt><trkpt lat="40.0705252" lon="9.4593901"><ele>1032.0</ele><time>2026-04-22T11:55:05.641Z</time></trkpt><trkpt lat="40.0706234" lon="9.4593404"><ele>1032.0</ele><time>2026-04-22T11:55:06.642Z</time></trkpt><trkpt lat="40.0707248" lon="9.4592846"><ele>1032.0</ele><time>2026-04-22T11:55:07.639Z</time></trkpt><trkpt lat="40.0708182" lon="9.459247"><ele>1032.0</ele><time>2026-04-22T11:55:08.638Z</time></trkpt><trkpt lat="40.0709065" lon="9.4592342"><ele>1031.4</ele><time>2026-04-22T11:55:09.647Z</time></trkpt><trkpt lat="40.0709918" lon="9.4592152"><ele>1030.8000000000002</ele><time>2026-04-22T11:55:10.644Z</time></trkpt><trkpt lat="40.07108" lon="9.4591879"><ele>1030.2</ele><time>2026-04-22T11:55:11.645Z</time></trkpt><trkpt lat="40.0711598" lon="9.4591619"><ele>1029.6000000000001</ele><time>2026-04-22T11:55:12.642Z</time></trkpt><trkpt lat="40.0712312" lon="9.459142"><ele>1029.0</ele><time>2026-04-22T11:55:13.648Z</time></trkpt><trkpt lat="40.0713578" lon="9.4591386"><ele>1029.0</ele><time>2026-04-22T11:55:15.639Z</time></trkpt><trkpt lat="40.0714292" lon="9.4591458"><ele>1029.0</ele><time>2026-04-22T11:55:16.644Z</time></trkpt><trkpt lat="40.0714928" lon="9.4591498"><ele>1029.0</ele><time>2026-04-22T11:55:17.644Z</time></trkpt><trkpt lat="40.0715617" lon="9.4591615"><ele>1029.0</ele><time>2026-04-22T11:55:18.65Z</time></trkpt><trkpt lat="40.0716361" lon="9.4591717"><ele>1029.0</ele><time>2026-04-22T11:55:19.652Z</time></trkpt><trkpt lat="40.0717065" lon="9.4591717"><ele>1029.0</ele><time>2026-04-22T11:55:20.643Z</time></trkpt><trkpt lat="40.0717838" lon="9.4591615"><ele>1029.0</ele><time>2026-04-22T11:55:21.648Z</time></trkpt><trkpt lat="40.0718481" lon="9.459154"><ele>1028.6666666666667</ele><time>2026-04-22T11:55:22.647Z</time></trkpt><trkpt lat="40.0719136" lon="9.4591481"><ele>1028.3333333333333</ele><time>2026-04-22T11:55:23.649Z</time></trkpt><trkpt lat="40.0719768" lon="9.4591428"><ele>1028.0</ele><time>2026-04-22T11:55:24.647Z</time></trkpt><trkpt lat="40.0720957" lon="9.4591307"><ele>1027.6666666666665</ele><time>2026-04-22T11:55:26.642Z</time></trkpt><trkpt lat="40.0721632" lon="9.4590347"><ele>1027.3333333333333</ele><time>2026-04-22T11:55:28.646Z</time></trkpt><trkpt lat="40.0721794" lon="9.4589465"><ele>1027.0</ele><time>2026-04-22T11:55:29.638Z</time></trkpt><trkpt lat="40.0721951" lon="9.4588447"><ele>1027.3333333333333</ele><time>2026-04-22T11:55:30.646Z</time></trkpt><trkpt lat="40.0722043" lon="9.4587451"><ele>1027.6666666666665</ele><time>2026-04-22T11:55:31.64Z</time></trkpt><trkpt lat="40.0722136" lon="9.4586442"><ele>1028.0</ele><time>2026-04-22T11:55:32.647Z</time></trkpt><trkpt lat="40.0722178" lon="9.4585501"><ele>1028.3333333333333</ele><time>2026-04-22T11:55:33.647Z</time></trkpt><trkpt lat="40.0722163" lon="9.4584459"><ele>1028.6666666666667</ele><time>2026-04-22T11:55:34.646Z</time></trkpt><trkpt lat="40.0722185" lon="9.4583464"><ele>1029.0</ele><time>2026-04-22T11:55:35.639Z</time></trkpt><trkpt lat="40.0722348" lon="9.4582478"><ele>1029.0</ele><time>2026-04-22T11:55:36.652Z</time></trkpt><trkpt lat="40.0722554" lon="9.4581509"><ele>1029.0</ele><time>2026-04-22T11:55:37.644Z</time></trkpt><trkpt lat="40.0722742" lon="9.4580327"><ele>1029.0</ele><time>2026-04-22T11:55:38.643Z</time></trkpt><trkpt lat="40.072297" lon="9.4579098"><ele>1029.0</ele><time>2026-04-22T11:55:39.646Z</time></trkpt><trkpt lat="40.0723339" lon="9.4577955"><ele>1029.0</ele><time>2026-04-22T11:55:40.633Z</time></trkpt><trkpt lat="40.0723853" lon="9.4576924"><ele>1027.2</ele><time>2026-04-22T11:55:41.643Z</time></trkpt><trkpt lat="40.0724402" lon="9.457609"><ele>1025.4</ele><time>2026-04-22T11:55:42.625Z</time></trkpt><trkpt lat="40.0725054" lon="9.4575546"><ele>1023.6</ele><time>2026-04-22T11:55:43.634Z</time></trkpt><trkpt lat="40.0725899" lon="9.4575025"><ele>1021.8</ele><time>2026-04-22T11:55:44.627Z</time></trkpt><trkpt lat="40.0726862" lon="9.4574672"><ele>1020.0</ele><time>2026-04-22T11:55:45.632Z</time></trkpt><trkpt lat="40.0727899" lon="9.4574423"><ele>1020.0</ele><time>2026-04-22T11:55:46.642Z</time></trkpt><trkpt lat="40.0728947" lon="9.4574233"><ele>1020.0</ele><time>2026-04-22T11:55:47.642Z</time></trkpt><trkpt lat="40.0729976" lon="9.4574079"><ele>1020.0</ele><time>2026-04-22T11:55:48.645Z</time></trkpt><trkpt lat="40.0730994" lon="9.4573991"><ele>1020.0</ele><time>2026-04-22T11:55:49.641Z</time></trkpt><trkpt lat="40.073196" lon="9.4573706"><ele>1020.0</ele><time>2026-04-22T11:55:50.635Z</time></trkpt><trkpt lat="40.0732945" lon="9.4573331"><ele>1020.4</ele><time>2026-04-22T11:55:51.635Z</time></trkpt><trkpt lat="40.0733883" lon="9.4572874"><ele>1020.8</ele><time>2026-04-22T11:55:52.638Z</time></trkpt><trkpt lat="40.0734801" lon="9.4572269"><ele>1021.2</ele><time>2026-04-22T11:55:53.63Z</time></trkpt><trkpt lat="40.0735536" lon="9.4571649"><ele>1021.6</ele><time>2026-04-22T11:55:54.639Z</time></trkpt><trkpt lat="40.0736275" lon="9.4570812"><ele>1022.0</ele><time>2026-04-22T11:55:55.632Z</time></trkpt><trkpt lat="40.0736938" lon="9.4569777"><ele>1020.8</ele><time>2026-04-22T11:55:56.632Z</time></trkpt><trkpt lat="40.0737541" lon="9.4568692"><ele>1019.6</ele><time>2026-04-22T11:55:57.633Z</time></trkpt><trkpt lat="40.0738131" lon="9.4567704"><ele>1018.3999999999999</ele><time>2026-04-22T11:55:58.631Z</time></trkpt><trkpt lat="40.0738872" lon="9.4566669"><ele>1017.1999999999999</ele><time>2026-04-22T11:55:59.623Z</time></trkpt><trkpt lat="40.0739757" lon="9.4565843"><ele>1016.0</ele><time>2026-04-22T11:56:00.635Z</time></trkpt><trkpt lat="40.0740492" lon="9.4564961"><ele>1016.6666666666667</ele><time>2026-04-22T11:56:01.632Z</time></trkpt><trkpt lat="40.074118" lon="9.4563995"><ele>1017.3333333333334</ele><time>2026-04-22T11:56:02.634Z</time></trkpt><trkpt lat="40.0741733" lon="9.4563013"><ele>1018.0</ele><time>2026-04-22T11:56:03.633Z</time></trkpt><trkpt lat="40.0742195" lon="9.4562043"><ele>1018.6666666666667</ele><time>2026-04-22T11:56:04.63Z</time></trkpt><trkpt lat="40.0742617" lon="9.4561188"><ele>1019.3333333333334</ele><time>2026-04-22T11:56:05.63Z</time></trkpt><trkpt lat="40.074307" lon="9.4560613"><ele>1020.0</ele><time>2026-04-22T11:56:06.632Z</time></trkpt><trkpt lat="40.0743784" lon="9.4560098"><ele>1017.8333333333334</ele><time>2026-04-22T11:56:07.632Z</time></trkpt><trkpt lat="40.0744586" lon="9.4559632"><ele>1015.6666666666667</ele><time>2026-04-22T11:56:08.634Z</time></trkpt><trkpt lat="40.0745369" lon="9.4559138"><ele>1013.5</ele><time>2026-04-22T11:56:09.635Z</time></trkpt><trkpt lat="40.0746068" lon="9.4558604"><ele>1011.3333333333334</ele><time>2026-04-22T11:56:10.636Z</time></trkpt><trkpt lat="40.0746806" lon="9.4558064"><ele>1009.1666666666667</ele><time>2026-04-22T11:56:11.638Z</time></trkpt><trkpt lat="40.0747643" lon="9.4557732"><ele>1007.0</ele><time>2026-04-22T11:56:12.642Z</time></trkpt><trkpt lat="40.0748419" lon="9.4557519"><ele>1007.0000000000001</ele><time>2026-04-22T11:56:13.634Z</time></trkpt><trkpt lat="40.0749253" lon="9.4557247"><ele>1007.0</ele><time>2026-04-22T11:56:14.642Z</time></trkpt><trkpt lat="40.0750066" lon="9.4556987"><ele>1007.0</ele><time>2026-04-22T11:56:15.632Z</time></trkpt><trkpt lat="40.0750788" lon="9.4556553"><ele>1007.0</ele><time>2026-04-22T11:56:16.64Z</time></trkpt><trkpt lat="40.0751482" lon="9.4556058"><ele>1007.0000000000001</ele><time>2026-04-22T11:56:17.641Z</time></trkpt><trkpt lat="40.0752223" lon="9.4555529"><ele>1007.0</ele><time>2026-04-22T11:56:18.645Z</time></trkpt><trkpt lat="40.0753048" lon="9.4554947"><ele>1006.1666666666667</ele><time>2026-04-22T11:56:19.643Z</time></trkpt><trkpt lat="40.0753878" lon="9.4554314"><ele>1005.3333333333334</ele><time>2026-04-22T11:56:20.641Z</time></trkpt><trkpt lat="40.0754663" lon="9.4553737"><ele>1004.5</ele><time>2026-04-22T11:56:21.647Z</time></trkpt><trkpt lat="40.0755452" lon="9.4553236"><ele>1003.6666666666667</ele><time>2026-04-22T11:56:22.638Z</time></trkpt><trkpt lat="40.0756156" lon="9.4552645"><ele>1002.8333333333334</ele><time>2026-04-22T11:56:23.64Z</time></trkpt><trkpt lat="40.0756787" lon="9.4551925"><ele>1002.0</ele><time>2026-04-22T11:56:24.633Z</time></trkpt><trkpt lat="40.0757346" lon="9.4551086"><ele>1001.2</ele><time>2026-04-22T11:56:25.63Z</time></trkpt><trkpt lat="40.0757811" lon="9.4550213"><ele>1000.4000000000001</ele><time>2026-04-22T11:56:26.638Z</time></trkpt><trkpt lat="40.0758445" lon="9.4549328"><ele>999.5999999999999</ele><time>2026-04-22T11:56:27.631Z</time></trkpt><trkpt lat="40.075929" lon="9.4548499"><ele>998.8</ele><time>2026-04-22T11:56:28.636Z</time></trkpt><trkpt lat="40.0760156" lon="9.454764"><ele>998.0</ele><time>2026-04-22T11:56:29.636Z</time></trkpt><trkpt lat="40.0760921" lon="9.4546856"><ele>998.8</ele><time>2026-04-22T11:56:30.637Z</time></trkpt><trkpt lat="40.0761615" lon="9.4546158"><ele>999.5999999999999</ele><time>2026-04-22T11:56:31.63Z</time></trkpt><trkpt lat="40.0762485" lon="9.4545396"><ele>1000.4000000000001</ele><time>2026-04-22T11:56:32.638Z</time></trkpt><trkpt lat="40.0763306" lon="9.4544721"><ele>1001.2</ele><time>2026-04-22T11:56:33.638Z</time></trkpt><trkpt lat="40.0764091" lon="9.4544147"><ele>1002.0</ele><time>2026-04-22T11:56:34.643Z</time></trkpt><trkpt lat="40.0764912" lon="9.4543615"><ele>1002.0</ele><time>2026-04-22T11:56:35.639Z</time></trkpt><trkpt lat="40.0765856" lon="9.4543182"><ele>1002.0</ele><time>2026-04-22T11:56:36.65Z</time></trkpt><trkpt lat="40.0766775" lon="9.4542875"><ele>1002.0</ele><time>2026-04-22T11:56:37.64Z</time></trkpt><trkpt lat="40.0767549" lon="9.4542634"><ele>1002.0</ele><time>2026-04-22T11:56:38.645Z</time></trkpt><trkpt lat="40.0768328" lon="9.4542489"><ele>1002.0</ele><time>2026-04-22T11:56:39.653Z</time></trkpt><trkpt lat="40.0769141" lon="9.4542588"><ele>1002.0</ele><time>2026-04-22T11:56:40.644Z</time></trkpt><trkpt lat="40.0770062" lon="9.4542672"><ele>1000.8333333333334</ele><time>2026-04-22T11:56:41.646Z</time></trkpt><trkpt lat="40.0770952" lon="9.4542661"><ele>999.6666666666667</ele><time>2026-04-22T11:56:42.647Z</time></trkpt><trkpt lat="40.0771851" lon="9.4542552"><ele>998.5</ele><time>2026-04-22T11:56:43.651Z</time></trkpt><trkpt lat="40.0772637" lon="9.454217"><ele>997.3333333333334</ele><time>2026-04-22T11:56:44.641Z</time></trkpt><trkpt lat="40.0773393" lon="9.4541686"><ele>996.1666666666667</ele><time>2026-04-22T11:56:45.641Z</time></trkpt><trkpt lat="40.0774074" lon="9.4541163"><ele>995.0</ele><time>2026-04-22T11:56:46.64Z</time></trkpt><trkpt lat="40.0774922" lon="9.4540773"><ele>995.0</ele><time>2026-04-22T11:56:47.628Z</time></trkpt><trkpt lat="40.0775861" lon="9.4540498"><ele>995.0</ele><time>2026-04-22T11:56:48.636Z</time></trkpt><trkpt lat="40.0776926" lon="9.4540305"><ele>995.0</ele><time>2026-04-22T11:56:49.629Z</time></trkpt><trkpt lat="40.0777949" lon="9.4540008"><ele>995.0</ele><time>2026-04-22T11:56:50.635Z</time></trkpt><trkpt lat="40.0778909" lon="9.4539396"><ele>995.0</ele><time>2026-04-22T11:56:51.633Z</time></trkpt><trkpt lat="40.0779746" lon="9.4538785"><ele>995.0</ele><time>2026-04-22T11:56:52.64Z</time></trkpt><trkpt lat="40.0780511" lon="9.4538291"><ele>995.0</ele><time>2026-04-22T11:56:53.649Z</time></trkpt><trkpt lat="40.0781419" lon="9.4537899"><ele>995.0</ele><time>2026-04-22T11:56:54.641Z</time></trkpt><trkpt lat="40.0782288" lon="9.4537555"><ele>995.0</ele><time>2026-04-22T11:56:55.64Z</time></trkpt><trkpt lat="40.0783154" lon="9.4537255"><ele>995.0</ele><time>2026-04-22T11:56:56.645Z</time></trkpt><trkpt lat="40.0784155" lon="9.4536989"><ele>995.25</ele><time>2026-04-22T11:56:57.647Z</time></trkpt><trkpt lat="40.0785249" lon="9.4536689"><ele>995.5</ele><time>2026-04-22T11:56:58.645Z</time></trkpt><trkpt lat="40.0786351" lon="9.4536308"><ele>995.75</ele><time>2026-04-22T11:56:59.642Z</time></trkpt><trkpt lat="40.0787473" lon="9.4535772"><ele>996.0</ele><time>2026-04-22T11:57:00.647Z</time></trkpt><trkpt lat="40.0788567" lon="9.4535313"><ele>996.0</ele><time>2026-04-22T11:57:01.639Z</time></trkpt><trkpt lat="40.0789622" lon="9.4535022"><ele>995.9999999999999</ele><time>2026-04-22T11:57:02.644Z</time></trkpt><trkpt lat="40.0790655" lon="9.4534848"><ele>995.9999999999999</ele><time>2026-04-22T11:57:03.649Z</time></trkpt><trkpt lat="40.0791595" lon="9.4534822"><ele>996.0</ele><time>2026-04-22T11:57:04.646Z</time></trkpt><trkpt lat="40.079251" lon="9.4534649"><ele>996.0</ele><time>2026-04-22T11:57:05.648Z</time></trkpt><trkpt lat="40.0793435" lon="9.4534726"><ele>995.8</ele><time>2026-04-22T11:57:06.65Z</time></trkpt><trkpt lat="40.0794431" lon="9.4534828"><ele>995.5999999999999</ele><time>2026-04-22T11:57:07.645Z</time></trkpt><trkpt lat="40.0795354" lon="9.4534793"><ele>995.4</ele><time>2026-04-22T11:57:08.643Z</time></trkpt><trkpt lat="40.0796268" lon="9.4534611"><ele>995.2</ele><time>2026-04-22T11:57:09.648Z</time></trkpt><trkpt lat="40.0797204" lon="9.4534183"><ele>995.0</ele><time>2026-04-22T11:57:10.645Z</time></trkpt><trkpt lat="40.0798067" lon="9.4533671"><ele>995.0000000000001</ele><time>2026-04-22T11:57:11.648Z</time></trkpt><trkpt lat="40.0798826" lon="9.4533086"><ele>995.0</ele><time>2026-04-22T11:57:12.64Z</time></trkpt><trkpt lat="40.0799651" lon="9.4532612"><ele>995.0</ele><time>2026-04-22T11:57:13.647Z</time></trkpt><trkpt lat="40.0800519" lon="9.4532244"><ele>995.0</ele><time>2026-04-22T11:57:14.646Z</time></trkpt><trkpt lat="40.0801251" lon="9.4531802"><ele>995.0000000000001</ele><time>2026-04-22T11:57:15.646Z</time></trkpt><trkpt lat="40.0801888" lon="9.4531294"><ele>995.0</ele><time>2026-04-22T11:57:16.654Z</time></trkpt><trkpt lat="40.0802526" lon="9.4530721"><ele>995.0</ele><time>2026-04-22T11:57:17.648Z</time></trkpt><trkpt lat="40.0803056" lon="9.4530011"><ele>995.0</ele><time>2026-04-22T11:57:18.65Z</time></trkpt><trkpt lat="40.0803518" lon="9.4529208"><ele>995.0</ele><time>2026-04-22T11:57:19.638Z</time></trkpt><trkpt lat="40.0803972" lon="9.4528211"><ele>995.0</ele><time>2026-04-22T11:57:20.643Z</time></trkpt><trkpt lat="40.0804384" lon="9.4526912"><ele>995.0</ele><time>2026-04-22T11:57:21.644Z</time></trkpt><trkpt lat="40.0804824" lon="9.4525665"><ele>994.6</ele><time>2026-04-22T11:57:22.647Z</time></trkpt><trkpt lat="40.0805327" lon="9.4524472"><ele>994.2</ele><time>2026-04-22T11:57:23.641Z</time></trkpt><trkpt lat="40.0805838" lon="9.4523369"><ele>993.8</ele><time>2026-04-22T11:57:24.643Z</time></trkpt><trkpt lat="40.0806363" lon="9.4522351"><ele>993.4</ele><time>2026-04-22T11:57:25.645Z</time></trkpt><trkpt lat="40.080684" lon="9.4521287"><ele>993.0</ele><time>2026-04-22T11:57:26.642Z</time></trkpt><trkpt lat="40.0807299" lon="9.452013"><ele>991.8</ele><time>2026-04-22T11:57:27.646Z</time></trkpt><trkpt lat="40.0807818" lon="9.4518886"><ele>990.5999999999999</ele><time>2026-04-22T11:57:28.645Z</time></trkpt><trkpt lat="40.0808475" lon="9.4517717"><ele>989.4000000000001</ele><time>2026-04-22T11:57:29.632Z</time></trkpt><trkpt lat="40.0809232" lon="9.4516694"><ele>988.2</ele><time>2026-04-22T11:57:30.639Z</time></trkpt><trkpt lat="40.0810016" lon="9.4515849"><ele>987.0</ele><time>2026-04-22T11:57:31.638Z</time></trkpt><trkpt lat="40.0810664" lon="9.4515121"><ele>987.0</ele><time>2026-04-22T11:57:32.647Z</time></trkpt><trkpt lat="40.0811265" lon="9.4514465"><ele>987.0</ele><time>2026-04-22T11:57:33.651Z</time></trkpt><trkpt lat="40.0811888" lon="9.4513665"><ele>987.0</ele><time>2026-04-22T11:57:34.652Z</time></trkpt><trkpt lat="40.0812412" lon="9.451281"><ele>987.0</ele><time>2026-04-22T11:57:35.652Z</time></trkpt><trkpt lat="40.0812988" lon="9.4512013"><ele>987.0</ele><time>2026-04-22T11:57:36.656Z</time></trkpt><trkpt lat="40.0813453" lon="9.4511253"><ele>987.0</ele><time>2026-04-22T11:57:37.654Z</time></trkpt><trkpt lat="40.0813895" lon="9.4510524"><ele>987.0</ele><time>2026-04-22T11:57:38.651Z</time></trkpt><trkpt lat="40.0814383" lon="9.4509885"><ele>987.0</ele><time>2026-04-22T11:57:39.65Z</time></trkpt><trkpt lat="40.0814818" lon="9.4509221"><ele>987.0</ele><time>2026-04-22T11:57:40.653Z</time></trkpt><trkpt lat="40.0815401" lon="9.4507656"><ele>987.0</ele><time>2026-04-22T11:57:42.646Z</time></trkpt><trkpt lat="40.0815768" lon="9.4506943"><ele>987.0</ele><time>2026-04-22T11:57:43.646Z</time></trkpt><trkpt lat="40.0815985" lon="9.4506069"><ele>987.0</ele><time>2026-04-22T11:57:44.64Z</time></trkpt><trkpt lat="40.0816213" lon="9.4505109"><ele>987.4285714285714</ele><time>2026-04-22T11:57:45.647Z</time></trkpt><trkpt lat="40.0816361" lon="9.4504142"><ele>987.8571428571429</ele><time>2026-04-22T11:57:46.643Z</time></trkpt><trkpt lat="40.0816265" lon="9.4503214"><ele>988.2857142857142</ele><time>2026-04-22T11:57:47.639Z</time></trkpt><trkpt lat="40.0816066" lon="9.4502167"><ele>988.7142857142857</ele><time>2026-04-22T11:57:48.639Z</time></trkpt><trkpt lat="40.0815827" lon="9.4501218"><ele>989.1428571428571</ele><time>2026-04-22T11:57:49.635Z</time></trkpt><trkpt lat="40.0815606" lon="9.4500401"><ele>989.5714285714284</ele><time>2026-04-22T11:57:50.633Z</time></trkpt><trkpt lat="40.0815607" lon="9.4499531"><ele>989.9999999999999</ele><time>2026-04-22T11:57:51.638Z</time></trkpt><trkpt lat="40.0815799" lon="9.449867"><ele>990.0</ele><time>2026-04-22T11:57:52.632Z</time></trkpt><trkpt lat="40.0816169" lon="9.4497636"><ele>990.0</ele><time>2026-04-22T11:57:53.631Z</time></trkpt><trkpt lat="40.0816688" lon="9.4496628"><ele>990.0</ele><time>2026-04-22T11:57:54.631Z</time></trkpt><trkpt lat="40.0817313" lon="9.4495577"><ele>990.0</ele><time>2026-04-22T11:57:55.639Z</time></trkpt><trkpt lat="40.0817943" lon="9.4494585"><ele>990.0</ele><time>2026-04-22T11:57:56.64Z</time></trkpt><trkpt lat="40.0818718" lon="9.4493748"><ele>991.4</ele><time>2026-04-22T11:57:57.636Z</time></trkpt><trkpt lat="40.0819536" lon="9.4492948"><ele>992.8</ele><time>2026-04-22T11:57:58.634Z</time></trkpt><trkpt lat="40.0820494" lon="9.4492298"><ele>994.2</ele><time>2026-04-22T11:57:59.637Z</time></trkpt><trkpt lat="40.0821418" lon="9.4491772"><ele>995.6</ele><time>2026-04-22T11:58:00.639Z</time></trkpt><trkpt lat="40.0822382" lon="9.4491306"><ele>997.0</ele><time>2026-04-22T11:58:01.638Z</time></trkpt><trkpt lat="40.0823388" lon="9.4490706"><ele>996.9999999999999</ele><time>2026-04-22T11:58:02.638Z</time></trkpt><trkpt lat="40.0824288" lon="9.4490121"><ele>997.0</ele><time>2026-04-22T11:58:03.639Z</time></trkpt><trkpt lat="40.0825193" lon="9.4489798"><ele>997.0</ele><time>2026-04-22T11:58:04.631Z</time></trkpt><trkpt lat="40.0825956" lon="9.4489653"><ele>997.0</ele><time>2026-04-22T11:58:05.634Z</time></trkpt><trkpt lat="40.0826599" lon="9.4489595"><ele>996.9999999999999</ele><time>2026-04-22T11:58:06.638Z</time></trkpt><trkpt lat="40.0827255" lon="9.4489508"><ele>997.0</ele><time>2026-04-22T11:58:07.64Z</time></trkpt><trkpt lat="40.0828" lon="9.4489365"><ele>998.4000000000001</ele><time>2026-04-22T11:58:08.632Z</time></trkpt><trkpt lat="40.0828851" lon="9.4489463"><ele>999.8000000000001</ele><time>2026-04-22T11:58:09.634Z</time></trkpt><trkpt lat="40.082963" lon="9.4489774"><ele>1001.2</ele><time>2026-04-22T11:58:10.618Z</time></trkpt><trkpt lat="40.083021" lon="9.4490351"><ele>1002.6</ele><time>2026-04-22T11:58:11.64Z</time></trkpt><trkpt lat="40.0831394" lon="9.449058"><ele>1004.0</ele><time>2026-04-22T11:58:13.639Z</time></trkpt><trkpt lat="40.0832339" lon="9.4489304"><ele>1004.0000000000001</ele><time>2026-04-22T11:58:15.631Z</time></trkpt><trkpt lat="40.0832686" lon="9.4488341"><ele>1004.0</ele><time>2026-04-22T11:58:16.642Z</time></trkpt><trkpt lat="40.0833229" lon="9.4487463"><ele>1004.0</ele><time>2026-04-22T11:58:17.643Z</time></trkpt><trkpt lat="40.0833872" lon="9.4486776"><ele>1004.0</ele><time>2026-04-22T11:58:18.645Z</time></trkpt><trkpt lat="40.0834424" lon="9.4486284"><ele>1004.0000000000001</ele><time>2026-04-22T11:58:19.633Z</time></trkpt><trkpt lat="40.0835079" lon="9.4486039"><ele>1004.0</ele><time>2026-04-22T11:58:20.633Z</time></trkpt><trkpt lat="40.0835712" lon="9.448626"><ele>1004.0000000000001</ele><time>2026-04-22T11:58:21.645Z</time></trkpt><trkpt lat="40.0836298" lon="9.4486831"><ele>1004.0</ele><time>2026-04-22T11:58:22.645Z</time></trkpt><trkpt lat="40.0836817" lon="9.4487784"><ele>1004.0</ele><time>2026-04-22T11:58:23.646Z</time></trkpt><trkpt lat="40.0837389" lon="9.4488777"><ele>1004.0</ele><time>2026-04-22T11:58:24.645Z</time></trkpt><trkpt lat="40.083814" lon="9.4489398"><ele>1004.0000000000001</ele><time>2026-04-22T11:58:25.637Z</time></trkpt><trkpt lat="40.0838965" lon="9.4489737"><ele>1004.0</ele><time>2026-04-22T11:58:26.639Z</time></trkpt><trkpt lat="40.0839935" lon="9.4489846"><ele>1004.0</ele><time>2026-04-22T11:58:27.64Z</time></trkpt><trkpt lat="40.0840772" lon="9.4489777"><ele>1004.0000000000001</ele><time>2026-04-22T11:58:28.634Z</time></trkpt><trkpt lat="40.0841523" lon="9.4489395"><ele>1004.0000000000001</ele><time>2026-04-22T11:58:29.644Z</time></trkpt><trkpt lat="40.0842213" lon="9.4488629"><ele>1004.0</ele><time>2026-04-22T11:58:30.648Z</time></trkpt><trkpt lat="40.0842924" lon="9.4487854"><ele>1004.0</ele><time>2026-04-22T11:58:31.641Z</time></trkpt><trkpt lat="40.0843682" lon="9.4486918"><ele>1005.6</ele><time>2026-04-22T11:58:32.647Z</time></trkpt><trkpt lat="40.0844376" lon="9.4486063"><ele>1007.2</ele><time>2026-04-22T11:58:33.648Z</time></trkpt><trkpt lat="40.0845123" lon="9.4485295"><ele>1008.8000000000001</ele><time>2026-04-22T11:58:34.647Z</time></trkpt><trkpt lat="40.084588" lon="9.4484681"><ele>1010.4000000000001</ele><time>2026-04-22T11:58:35.649Z</time></trkpt><trkpt lat="40.0846691" lon="9.4484305"><ele>1012.0</ele><time>2026-04-22T11:58:36.648Z</time></trkpt><trkpt lat="40.0847547" lon="9.4484091"><ele>1012.0</ele><time>2026-04-22T11:58:37.653Z</time></trkpt><trkpt lat="40.0848484" lon="9.4483827"><ele>1012.0</ele><time>2026-04-22T11:58:38.65Z</time></trkpt><trkpt lat="40.0849396" lon="9.4483422"><ele>1012.0</ele><time>2026-04-22T11:58:39.651Z</time></trkpt><trkpt lat="40.0850349" lon="9.4483039"><ele>1012.0</ele><time>2026-04-22T11:58:40.653Z</time></trkpt><trkpt lat="40.0851291" lon="9.4482631"><ele>1012.0</ele><time>2026-04-22T11:58:41.652Z</time></trkpt><trkpt lat="40.0852145" lon="9.4482373"><ele>1011.8333333333333</ele><time>2026-04-22T11:58:42.649Z</time></trkpt><trkpt lat="40.0852897" lon="9.4482296"><ele>1011.6666666666666</ele><time>2026-04-22T11:58:43.645Z</time></trkpt><trkpt lat="40.0853635" lon="9.4482397"><ele>1011.5</ele><time>2026-04-22T11:58:44.65Z</time></trkpt><trkpt lat="40.0854237" lon="9.4482676"><ele>1011.3333333333333</ele><time>2026-04-22T11:58:45.656Z</time></trkpt><trkpt lat="40.0855164" lon="9.4483657"><ele>1011.1666666666666</ele><time>2026-04-22T11:58:47.662Z</time></trkpt><trkpt lat="40.0855929" lon="9.4484387"><ele>1011.0</ele><time>2026-04-22T11:58:49.646Z</time></trkpt><trkpt lat="40.0856589" lon="9.4484898"><ele>1011.0</ele><time>2026-04-22T11:59:31.658Z</time></trkpt><trkpt lat="40.0857249" lon="9.448518"><ele>1011.0</ele><time>2026-04-22T11:59:43.657Z</time></trkpt><trkpt lat="40.0858307" lon="9.4485341"><ele>1011.0</ele><time>2026-04-22T12:00:21.647Z</time></trkpt><trkpt lat="40.085899" lon="9.4485357"><ele>1011.0</ele><time>2026-04-22T12:00:22.644Z</time></trkpt><trkpt lat="40.085965" lon="9.448524"><ele>1011.0</ele><time>2026-04-22T12:00:23.642Z</time></trkpt><trkpt lat="40.0860486" lon="9.4484949"><ele>1011.0</ele><time>2026-04-22T12:00:24.648Z</time></trkpt><trkpt lat="40.0861107" lon="9.4484637"><ele>1010.5999999999999</ele><time>2026-04-22T12:00:25.646Z</time></trkpt><trkpt lat="40.086203" lon="9.4483876"><ele>1010.1999999999999</ele><time>2026-04-22T12:00:27.648Z</time></trkpt><trkpt lat="40.0862751" lon="9.4482657"><ele>1009.8000000000001</ele><time>2026-04-22T12:00:29.661Z</time></trkpt><trkpt lat="40.0863143" lon="9.448187"><ele>1009.4000000000001</ele><time>2026-04-22T12:00:30.659Z</time></trkpt><trkpt lat="40.086388" lon="9.4480657"><ele>1009.0</ele><time>2026-04-22T12:00:32.661Z</time></trkpt><trkpt lat="40.0864398" lon="9.4479331"><ele>1007.3333333333333</ele><time>2026-04-22T12:00:34.662Z</time></trkpt><trkpt lat="40.0864744" lon="9.4477915"><ele>1005.6666666666666</ele><time>2026-04-22T12:00:36.653Z</time></trkpt><trkpt lat="40.0865259" lon="9.4476781"><ele>1004.0</ele><time>2026-04-22T12:00:38.642Z</time></trkpt><trkpt lat="40.0865717" lon="9.4476208"><ele>1002.3333333333333</ele><time>2026-04-22T12:00:39.654Z</time></trkpt><trkpt lat="40.0866386" lon="9.4475765"><ele>1000.6666666666666</ele><time>2026-04-22T12:00:40.648Z</time></trkpt><trkpt lat="40.0866964" lon="9.4475224"><ele>999.0</ele><time>2026-04-22T12:00:41.651Z</time></trkpt><trkpt lat="40.0867506" lon="9.4474571"><ele>999.0</ele><time>2026-04-22T12:00:42.644Z</time></trkpt><trkpt lat="40.0868001" lon="9.447388"><ele>999.0</ele><time>2026-04-22T12:00:43.645Z</time></trkpt><trkpt lat="40.0868511" lon="9.4473202"><ele>999.0</ele><time>2026-04-22T12:00:44.644Z</time></trkpt><trkpt lat="40.0869048" lon="9.4472563"><ele>999.0</ele><time>2026-04-22T12:00:45.641Z</time></trkpt><trkpt lat="40.0869617" lon="9.4471978"><ele>999.0</ele><time>2026-04-22T12:00:46.646Z</time></trkpt><trkpt lat="40.0870495" lon="9.4470969"><ele>999.0</ele><time>2026-04-22T12:00:48.648Z</time></trkpt><trkpt lat="40.0871376" lon="9.4470171"><ele>999.4000000000001</ele><time>2026-04-22T12:00:50.65Z</time></trkpt><trkpt lat="40.0871942" lon="9.4469773"><ele>999.8000000000001</ele><time>2026-04-22T12:00:51.641Z</time></trkpt><trkpt lat="40.0872468" lon="9.4469307"><ele>1000.1999999999999</ele><time>2026-04-22T12:00:52.644Z</time></trkpt><trkpt lat="40.0873451" lon="9.4468322"><ele>1000.5999999999999</ele><time>2026-04-22T12:00:54.643Z</time></trkpt><trkpt lat="40.0874322" lon="9.4467328"><ele>1001.0</ele><time>2026-04-22T12:00:56.643Z</time></trkpt><trkpt lat="40.0875301" lon="9.4466783"><ele>1001.0000000000001</ele><time>2026-04-22T12:00:58.632Z</time></trkpt><trkpt lat="40.0876372" lon="9.4467384"><ele>1001.0</ele><time>2026-04-22T12:01:00.641Z</time></trkpt><trkpt lat="40.0876889" lon="9.4468791"><ele>1001.0</ele><time>2026-04-22T12:01:02.634Z</time></trkpt><trkpt lat="40.0876923" lon="9.4469668"><ele>1001.0</ele><time>2026-04-22T12:01:03.628Z</time></trkpt><trkpt lat="40.0876857" lon="9.4470524"><ele>1001.0000000000001</ele><time>2026-04-22T12:01:04.634Z</time></trkpt><trkpt lat="40.08766" lon="9.4471401"><ele>1001.0</ele><time>2026-04-22T12:01:05.63Z</time></trkpt><trkpt lat="40.0876295" lon="9.4472351"><ele>1000.8333333333334</ele><time>2026-04-22T12:01:06.63Z</time></trkpt><trkpt lat="40.0876043" lon="9.4473228"><ele>1000.6666666666667</ele><time>2026-04-22T12:01:07.632Z</time></trkpt><trkpt lat="40.0875877" lon="9.4474185"><ele>1000.5</ele><time>2026-04-22T12:01:08.632Z</time></trkpt><trkpt lat="40.0875716" lon="9.4475209"><ele>1000.3333333333333</ele><time>2026-04-22T12:01:09.63Z</time></trkpt><trkpt lat="40.0875581" lon="9.4476268"><ele>1000.1666666666666</ele><time>2026-04-22T12:01:10.635Z</time></trkpt><trkpt lat="40.087539" lon="9.4477243"><ele>1000.0</ele><time>2026-04-22T12:01:11.642Z</time></trkpt><trkpt lat="40.0875213" lon="9.4478304"><ele>999.9999999999999</ele><time>2026-04-22T12:01:12.638Z</time></trkpt><trkpt lat="40.0874981" lon="9.4479275"><ele>1000.0</ele><time>2026-04-22T12:01:13.643Z</time></trkpt><trkpt lat="40.0874814" lon="9.448038"><ele>1000.0</ele><time>2026-04-22T12:01:14.642Z</time></trkpt><trkpt lat="40.0874596" lon="9.4481471"><ele>1000.0</ele><time>2026-04-22T12:01:15.636Z</time></trkpt><trkpt lat="40.0874393" lon="9.4482603"><ele>999.9999999999999</ele><time>2026-04-22T12:01:16.644Z</time></trkpt><trkpt lat="40.0874182" lon="9.4483612"><ele>1000.0</ele><time>2026-04-22T12:01:17.638Z</time></trkpt><trkpt lat="40.0874182" lon="9.4484584"><ele>1000.9999999999999</ele><time>2026-04-22T12:01:18.643Z</time></trkpt><trkpt lat="40.08743" lon="9.4485504"><ele>1002.0</ele><time>2026-04-22T12:01:19.647Z</time></trkpt><trkpt lat="40.0874544" lon="9.4486389"><ele>1003.0</ele><time>2026-04-22T12:01:20.653Z</time></trkpt><trkpt lat="40.0874862" lon="9.4487391"><ele>1004.0</ele><time>2026-04-22T12:01:21.653Z</time></trkpt><trkpt lat="40.0875144" lon="9.44884"><ele>1004.9999999999999</ele><time>2026-04-22T12:01:22.645Z</time></trkpt><trkpt lat="40.0875391" lon="9.4489352"><ele>1006.0</ele><time>2026-04-22T12:01:23.649Z</time></trkpt><trkpt lat="40.0875698" lon="9.4490327"><ele>1006.4999999999999</ele><time>2026-04-22T12:01:24.644Z</time></trkpt><trkpt lat="40.0876028" lon="9.4491229"><ele>1007.0</ele><time>2026-04-22T12:01:25.647Z</time></trkpt><trkpt lat="40.0876346" lon="9.4492213"><ele>1007.5</ele><time>2026-04-22T12:01:26.648Z</time></trkpt><trkpt lat="40.0876744" lon="9.4493222"><ele>1008.0</ele><time>2026-04-22T12:01:27.646Z</time></trkpt><trkpt lat="40.0877258" lon="9.4494051"><ele>1008.4999999999999</ele><time>2026-04-22T12:01:28.647Z</time></trkpt><trkpt lat="40.0877823" lon="9.4494969"><ele>1009.0</ele><time>2026-04-22T12:01:29.647Z</time></trkpt><trkpt lat="40.0878466" lon="9.4495811"><ele>1007.6666666666666</ele><time>2026-04-22T12:01:30.647Z</time></trkpt><trkpt lat="40.0879165" lon="9.4496517"><ele>1006.3333333333333</ele><time>2026-04-22T12:01:31.648Z</time></trkpt><trkpt lat="40.0879928" lon="9.4497177"><ele>1005.0</ele><time>2026-04-22T12:01:32.644Z</time></trkpt><trkpt lat="40.0880667" lon="9.4497825"><ele>1003.6666666666667</ele><time>2026-04-22T12:01:33.647Z</time></trkpt><trkpt lat="40.088133" lon="9.4498382"><ele>1002.3333333333334</ele><time>2026-04-22T12:01:34.642Z</time></trkpt><trkpt lat="40.0881993" lon="9.4498762"><ele>1001.0</ele><time>2026-04-22T12:01:35.643Z</time></trkpt><trkpt lat="40.0882723" lon="9.4499006"><ele>1004.1666666666667</ele><time>2026-04-22T12:01:36.641Z</time></trkpt><trkpt lat="40.088351" lon="9.4499213"><ele>1007.3333333333334</ele><time>2026-04-22T12:01:37.639Z</time></trkpt><trkpt lat="40.0884223" lon="9.4499178"><ele>1010.5</ele><time>2026-04-22T12:01:38.638Z</time></trkpt><trkpt lat="40.088495" lon="9.4498859"><ele>1013.6666666666667</ele><time>2026-04-22T12:01:39.637Z</time></trkpt><trkpt lat="40.0885628" lon="9.449832"><ele>1016.8333333333334</ele><time>2026-04-22T12:01:40.635Z</time></trkpt><trkpt lat="40.0886232" lon="9.449777"><ele>1020.0</ele><time>2026-04-22T12:01:41.642Z</time></trkpt><trkpt lat="40.0886789" lon="9.4497063"><ele>1021.5</ele><time>2026-04-22T12:01:42.638Z</time></trkpt><trkpt lat="40.0887352" lon="9.4496239"><ele>1023.0</ele><time>2026-04-22T12:01:43.646Z</time></trkpt><trkpt lat="40.0887786" lon="9.4495343"><ele>1024.5</ele><time>2026-04-22T12:01:44.633Z</time></trkpt><trkpt lat="40.088825" lon="9.4494383"><ele>1026.0</ele><time>2026-04-22T12:01:45.642Z</time></trkpt><trkpt lat="40.0888749" lon="9.4493405"><ele>1027.5</ele><time>2026-04-22T12:01:46.639Z</time></trkpt><trkpt lat="40.0889261" lon="9.4492472"><ele>1029.0</ele><time>2026-04-22T12:01:47.643Z</time></trkpt><trkpt lat="40.0889662" lon="9.4491637"><ele>1029.0</ele><time>2026-04-22T12:01:48.647Z</time></trkpt><trkpt lat="40.0889937" lon="9.4490821"><ele>1029.0</ele><time>2026-04-22T12:01:49.643Z</time></trkpt><trkpt lat="40.089009" lon="9.4489689"><ele>1029.0</ele><time>2026-04-22T12:01:50.645Z</time></trkpt><trkpt lat="40.0890242" lon="9.4488641"><ele>1029.0</ele><time>2026-04-22T12:01:51.65Z</time></trkpt><trkpt lat="40.0890317" lon="9.4487389"><ele>1029.0</ele><time>2026-04-22T12:01:52.643Z</time></trkpt><trkpt lat="40.0890277" lon="9.4486142"><ele>1029.0</ele><time>2026-04-22T12:01:53.64Z</time></trkpt><trkpt lat="40.0890206" lon="9.4484956"><ele>1029.2</ele><time>2026-04-22T12:01:54.639Z</time></trkpt><trkpt lat="40.0890208" lon="9.4483673"><ele>1029.4</ele><time>2026-04-22T12:01:55.642Z</time></trkpt><trkpt lat="40.0890298" lon="9.4482338"><ele>1029.6</ele><time>2026-04-22T12:01:56.656Z</time></trkpt><trkpt lat="40.0890336" lon="9.448105"><ele>1029.8</ele><time>2026-04-22T12:01:57.643Z</time></trkpt><trkpt lat="40.089038" lon="9.4479809"><ele>1030.0</ele><time>2026-04-22T12:01:58.654Z</time></trkpt><trkpt lat="40.0890381" lon="9.4478609"><ele>1029.4</ele><time>2026-04-22T12:01:59.653Z</time></trkpt><trkpt lat="40.089035" lon="9.4477322"><ele>1028.8</ele><time>2026-04-22T12:02:00.653Z</time></trkpt><trkpt lat="40.089044" lon="9.4476025"><ele>1028.2</ele><time>2026-04-22T12:02:01.657Z</time></trkpt><trkpt lat="40.0890523" lon="9.44746"><ele>1027.6</ele><time>2026-04-22T12:02:02.648Z</time></trkpt><trkpt lat="40.0890608" lon="9.4473236"><ele>1027.0</ele><time>2026-04-22T12:02:03.649Z</time></trkpt><trkpt lat="40.0890734" lon="9.4471836"><ele>1027.0</ele><time>2026-04-22T12:02:04.653Z</time></trkpt><trkpt lat="40.0890874" lon="9.44705"><ele>1027.0</ele><time>2026-04-22T12:02:05.649Z</time></trkpt><trkpt lat="40.0891056" lon="9.4469127"><ele>1027.0</ele><time>2026-04-22T12:02:06.659Z</time></trkpt><trkpt lat="40.0891193" lon="9.4467863"><ele>1027.0</ele><time>2026-04-22T12:02:07.645Z</time></trkpt><trkpt lat="40.0891407" lon="9.4466602"><ele>1027.0</ele><time>2026-04-22T12:02:08.649Z</time></trkpt><trkpt lat="40.0891647" lon="9.4465369"><ele>1027.0</ele><time>2026-04-22T12:02:09.645Z</time></trkpt><trkpt lat="40.0891809" lon="9.4464249"><ele>1027.0</ele><time>2026-04-22T12:02:10.655Z</time></trkpt><trkpt lat="40.089193" lon="9.4463235"><ele>1027.0</ele><time>2026-04-22T12:02:11.647Z</time></trkpt><trkpt lat="40.0892062" lon="9.4462358"><ele>1027.0</ele><time>2026-04-22T12:02:12.65Z</time></trkpt><trkpt lat="40.0892233" lon="9.4461051"><ele>1027.0</ele><time>2026-04-22T12:02:14.639Z</time></trkpt><trkpt lat="40.0892893" lon="9.4460386"><ele>1027.0</ele><time>2026-04-22T12:02:16.653Z</time></trkpt><trkpt lat="40.0894059" lon="9.4460802"><ele>1027.0</ele><time>2026-04-22T12:02:18.641Z</time></trkpt><trkpt lat="40.0894615" lon="9.4461421"><ele>1027.0</ele><time>2026-04-22T12:02:19.639Z</time></trkpt><trkpt lat="40.0895091" lon="9.4462158"><ele>1027.0</ele><time>2026-04-22T12:02:20.654Z</time></trkpt><trkpt lat="40.0895629" lon="9.4462927"><ele>1027.0</ele><time>2026-04-22T12:02:21.648Z</time></trkpt><trkpt lat="40.0896229" lon="9.4463598"><ele>1027.0</ele><time>2026-04-22T12:02:22.65Z</time></trkpt><trkpt lat="40.0896916" lon="9.4464229"><ele>1027.0</ele><time>2026-04-22T12:02:23.65Z</time></trkpt><trkpt lat="40.0897581" lon="9.4464862"><ele>1027.0</ele><time>2026-04-22T12:02:24.647Z</time></trkpt><trkpt lat="40.0898119" lon="9.4465464"><ele>1027.0</ele><time>2026-04-22T12:02:25.647Z</time></trkpt><trkpt lat="40.0898733" lon="9.4465796"><ele>1027.0</ele><time>2026-04-22T12:02:26.655Z</time></trkpt><trkpt lat="40.0899369" lon="9.4465792"><ele>1027.0</ele><time>2026-04-22T12:02:27.644Z</time></trkpt><trkpt lat="40.0900044" lon="9.4465559"><ele>1027.0</ele><time>2026-04-22T12:02:28.635Z</time></trkpt><trkpt lat="40.0901127" lon="9.4465176"><ele>1027.0</ele><time>2026-04-22T12:02:30.646Z</time></trkpt><trkpt lat="40.0902386" lon="9.4464664"><ele>1026.6666666666665</ele><time>2026-04-22T12:02:32.654Z</time></trkpt><trkpt lat="40.0903223" lon="9.4464245"><ele>1026.3333333333333</ele><time>2026-04-22T12:02:33.651Z</time></trkpt><trkpt lat="40.090395" lon="9.4463962"><ele>1026.0</ele><time>2026-04-22T12:02:34.651Z</time></trkpt><trkpt lat="40.0904699" lon="9.4463624"><ele>1025.6666666666667</ele><time>2026-04-22T12:02:35.646Z</time></trkpt><trkpt lat="40.0905368" lon="9.446317"><ele>1025.3333333333335</ele><time>2026-04-22T12:02:36.644Z</time></trkpt><trkpt lat="40.0905957" lon="9.4462688"><ele>1025.0</ele><time>2026-04-22T12:02:37.654Z</time></trkpt><trkpt lat="40.0906703" lon="9.4462062"><ele>1026.8333333333335</ele><time>2026-04-22T12:02:38.652Z</time></trkpt><trkpt lat="40.0907375" lon="9.4461505"><ele>1028.6666666666667</ele><time>2026-04-22T12:02:39.652Z</time></trkpt><trkpt lat="40.0908053" lon="9.4460919"><ele>1030.5</ele><time>2026-04-22T12:02:40.647Z</time></trkpt><trkpt lat="40.0908693" lon="9.4460367"><ele>1032.3333333333333</ele><time>2026-04-22T12:02:41.649Z</time></trkpt><trkpt lat="40.0909259" lon="9.4459802"><ele>1034.1666666666665</ele><time>2026-04-22T12:02:42.651Z</time></trkpt><trkpt lat="40.0909714" lon="9.4459127"><ele>1036.0</ele><time>2026-04-22T12:02:43.65Z</time></trkpt><trkpt lat="40.091017" lon="9.4458309"><ele>1036.0</ele><time>2026-04-22T12:02:44.646Z</time></trkpt><trkpt lat="40.0910541" lon="9.445735"><ele>1036.0</ele><time>2026-04-22T12:02:45.651Z</time></trkpt><trkpt lat="40.0910905" lon="9.4456322"><ele>1036.0</ele><time>2026-04-22T12:02:46.642Z</time></trkpt><trkpt lat="40.0911251" lon="9.4455402"><ele>1036.0</ele><time>2026-04-22T12:02:47.643Z</time></trkpt><trkpt lat="40.0911597" lon="9.4454462"><ele>1036.0</ele><time>2026-04-22T12:02:48.653Z</time></trkpt><trkpt lat="40.0911935" lon="9.445358"><ele>1036.0</ele><time>2026-04-22T12:02:49.645Z</time></trkpt><trkpt lat="40.0912244" lon="9.44527"><ele>1038.0</ele><time>2026-04-22T12:02:50.654Z</time></trkpt><trkpt lat="40.0912505" lon="9.4451762"><ele>1040.0</ele><time>2026-04-22T12:02:51.653Z</time></trkpt><trkpt lat="40.0912746" lon="9.445069"><ele>1042.0</ele><time>2026-04-22T12:02:52.65Z</time></trkpt><trkpt lat="40.0913005" lon="9.4449575"><ele>1044.0</ele><time>2026-04-22T12:02:53.647Z</time></trkpt><trkpt lat="40.09133" lon="9.4448396"><ele>1046.0</ele><time>2026-04-22T12:02:54.654Z</time></trkpt><trkpt lat="40.0913617" lon="9.4447259"><ele>1048.0</ele><time>2026-04-22T12:02:55.643Z</time></trkpt><trkpt lat="40.0913929" lon="9.4446156"><ele>1049.8</ele><time>2026-04-22T12:02:56.657Z</time></trkpt><trkpt lat="40.0914266" lon="9.4445024"><ele>1051.6</ele><time>2026-04-22T12:02:57.655Z</time></trkpt><trkpt lat="40.0914525" lon="9.4443792"><ele>1053.4</ele><time>2026-04-22T12:02:58.648Z</time></trkpt><trkpt lat="40.0914868" lon="9.4442551"><ele>1055.2</ele><time>2026-04-22T12:02:59.654Z</time></trkpt><trkpt lat="40.0915204" lon="9.4441247"><ele>1057.0</ele><time>2026-04-22T12:03:00.654Z</time></trkpt><trkpt lat="40.0915513" lon="9.4439931"><ele>1057.0</ele><time>2026-04-22T12:03:01.653Z</time></trkpt><trkpt lat="40.0915902" lon="9.4438726"><ele>1057.0</ele><time>2026-04-22T12:03:02.646Z</time></trkpt><trkpt lat="40.0916209" lon="9.4437606"><ele>1057.0</ele><time>2026-04-22T12:03:03.65Z</time></trkpt><trkpt lat="40.0916576" lon="9.4436517"><ele>1057.0</ele><time>2026-04-22T12:03:04.651Z</time></trkpt><trkpt lat="40.0916946" lon="9.4435368"><ele>1057.0</ele><time>2026-04-22T12:03:05.657Z</time></trkpt><trkpt lat="40.0917342" lon="9.4434186"><ele>1054.6</ele><time>2026-04-22T12:03:06.643Z</time></trkpt><trkpt lat="40.0917754" lon="9.443297"><ele>1052.2</ele><time>2026-04-22T12:03:07.65Z</time></trkpt><trkpt lat="40.0918104" lon="9.443182"><ele>1049.8</ele><time>2026-04-22T12:03:08.653Z</time></trkpt><trkpt lat="40.0918359" lon="9.4430664"><ele>1047.4</ele><time>2026-04-22T12:03:09.65Z</time></trkpt><trkpt lat="40.091857" lon="9.442952"><ele>1045.0</ele><time>2026-04-22T12:03:10.653Z</time></trkpt><trkpt lat="40.0918718" lon="9.4428375"><ele>1045.0</ele><time>2026-04-22T12:03:11.647Z</time></trkpt><trkpt lat="40.0918765" lon="9.4427247"><ele>1045.0</ele><time>2026-04-22T12:03:12.659Z</time></trkpt><trkpt lat="40.0918812" lon="9.4426097"><ele>1045.0</ele><time>2026-04-22T12:03:13.645Z</time></trkpt><trkpt lat="40.0918912" lon="9.4424959"><ele>1045.0</ele><time>2026-04-22T12:03:14.651Z</time></trkpt><trkpt lat="40.0918965" lon="9.4423763"><ele>1045.0</ele><time>2026-04-22T12:03:15.647Z</time></trkpt><trkpt lat="40.0919148" lon="9.4422673"><ele>1045.0</ele><time>2026-04-22T12:03:16.647Z</time></trkpt><trkpt lat="40.09193" lon="9.4421711"><ele>1044.5</ele><time>2026-04-22T12:03:17.647Z</time></trkpt><trkpt lat="40.0919448" lon="9.4420833"><ele>1044.0</ele><time>2026-04-22T12:03:18.645Z</time></trkpt><trkpt lat="40.0919448" lon="9.441993"><ele>1043.5</ele><time>2026-04-22T12:03:19.648Z</time></trkpt><trkpt lat="40.0919335" lon="9.4418866"><ele>1043.0</ele><time>2026-04-22T12:03:20.637Z</time></trkpt><trkpt lat="40.0919206" lon="9.4417825"><ele>1042.5</ele><time>2026-04-22T12:03:21.645Z</time></trkpt><trkpt lat="40.0918982" lon="9.441672"><ele>1042.0</ele><time>2026-04-22T12:03:22.648Z</time></trkpt><trkpt lat="40.0918748" lon="9.4415634"><ele>1042.0</ele><time>2026-04-22T12:03:23.634Z</time></trkpt><trkpt lat="40.0918629" lon="9.4414618"><ele>1042.0</ele><time>2026-04-22T12:03:24.641Z</time></trkpt><trkpt lat="40.0918543" lon="9.4413712"><ele>1042.0</ele><time>2026-04-22T12:03:25.646Z</time></trkpt><trkpt lat="40.0918424" lon="9.4412862"><ele>1042.0</ele><time>2026-04-22T12:03:26.648Z</time></trkpt><trkpt lat="40.0918233" lon="9.4411302"><ele>1042.0</ele><time>2026-04-22T12:03:28.645Z</time></trkpt><trkpt lat="40.0918064" lon="9.4409751"><ele>1042.1666666666665</ele><time>2026-04-22T12:03:30.644Z</time></trkpt><trkpt lat="40.0917998" lon="9.4408484"><ele>1042.3333333333333</ele><time>2026-04-22T12:03:32.641Z</time></trkpt><trkpt lat="40.0918363" lon="9.4407701"><ele>1042.5</ele><time>2026-04-22T12:03:34.648Z</time></trkpt><trkpt lat="40.0919058" lon="9.4407581"><ele>1042.6666666666667</ele><time>2026-04-22T12:03:36.647Z</time></trkpt><trkpt lat="40.0920202" lon="9.440813"><ele>1042.8333333333335</ele><time>2026-04-22T12:03:38.63Z</time></trkpt><trkpt lat="40.0920969" lon="9.4408328"><ele>1043.0</ele><time>2026-04-22T12:03:39.643Z</time></trkpt><trkpt lat="40.0921661" lon="9.4408557"><ele>1043.0</ele><time>2026-04-22T12:03:40.639Z</time></trkpt><trkpt lat="40.0922335" lon="9.4408857"><ele>1043.0</ele><time>2026-04-22T12:03:41.646Z</time></trkpt><trkpt lat="40.0923066" lon="9.4409051"><ele>1043.0</ele><time>2026-04-22T12:03:42.648Z</time></trkpt><trkpt lat="40.0923804" lon="9.4409097"><ele>1043.0</ele><time>2026-04-22T12:03:43.639Z</time></trkpt><trkpt lat="40.0924457" lon="9.4409089"><ele>1043.0</ele><time>2026-04-22T12:03:44.64Z</time></trkpt><trkpt lat="40.0925563" lon="9.44084"><ele>1043.0</ele><time>2026-04-22T12:03:46.652Z</time></trkpt><trkpt lat="40.0925879" lon="9.4407581"><ele>1043.4</ele><time>2026-04-22T12:03:47.634Z</time></trkpt><trkpt lat="40.0926072" lon="9.4406613"><ele>1043.8</ele><time>2026-04-22T12:03:48.641Z</time></trkpt><trkpt lat="40.0926299" lon="9.4405487"><ele>1044.2</ele><time>2026-04-22T12:03:49.643Z</time></trkpt><trkpt lat="40.0926524" lon="9.4404267"><ele>1044.6</ele><time>2026-04-22T12:03:50.643Z</time></trkpt><trkpt lat="40.0926633" lon="9.4402988"><ele>1045.0</ele><time>2026-04-22T12:03:51.648Z</time></trkpt><trkpt lat="40.0926707" lon="9.440177"><ele>1045.0</ele><time>2026-04-22T12:03:52.645Z</time></trkpt><trkpt lat="40.0926888" lon="9.4400664"><ele>1045.0</ele><time>2026-04-22T12:03:53.646Z</time></trkpt><trkpt lat="40.0927145" lon="9.4399553"><ele>1045.0</ele><time>2026-04-22T12:03:54.637Z</time></trkpt><trkpt lat="40.092745" lon="9.4398476"><ele>1045.0</ele><time>2026-04-22T12:03:55.646Z</time></trkpt><trkpt lat="40.0927816" lon="9.4397408"><ele>1045.0</ele><time>2026-04-22T12:03:56.634Z</time></trkpt><trkpt lat="40.0928372" lon="9.4396482"><ele>1045.0</ele><time>2026-04-22T12:03:57.639Z</time></trkpt><trkpt lat="40.0929027" lon="9.4395701"><ele>1042.8333333333333</ele><time>2026-04-22T12:03:58.643Z</time></trkpt><trkpt lat="40.0929765" lon="9.4395029"><ele>1040.6666666666665</ele><time>2026-04-22T12:03:59.649Z</time></trkpt><trkpt lat="40.0930482" lon="9.4394379"><ele>1038.5</ele><time>2026-04-22T12:04:00.653Z</time></trkpt><trkpt lat="40.0931165" lon="9.439366"><ele>1036.3333333333333</ele><time>2026-04-22T12:04:01.648Z</time></trkpt><trkpt lat="40.093178" lon="9.4392955"><ele>1034.1666666666667</ele><time>2026-04-22T12:04:02.644Z</time></trkpt><trkpt lat="40.0932322" lon="9.439211"><ele>1032.0</ele><time>2026-04-22T12:04:03.647Z</time></trkpt><trkpt lat="40.0932782" lon="9.4391306"><ele>1032.0</ele><time>2026-04-22T12:04:04.649Z</time></trkpt><trkpt lat="40.0933317" lon="9.4390407"><ele>1032.0</ele><time>2026-04-22T12:04:05.655Z</time></trkpt><trkpt lat="40.0933949" lon="9.4389548"><ele>1032.0</ele><time>2026-04-22T12:04:06.65Z</time></trkpt><trkpt lat="40.0934563" lon="9.4388639"><ele>1032.0</ele><time>2026-04-22T12:04:07.655Z</time></trkpt><trkpt lat="40.0935086" lon="9.438772"><ele>1032.0</ele><time>2026-04-22T12:04:08.643Z</time></trkpt><trkpt lat="40.0935551" lon="9.4386683"><ele>1033.8333333333333</ele><time>2026-04-22T12:04:09.637Z</time></trkpt><trkpt lat="40.0936003" lon="9.4385743"><ele>1035.6666666666667</ele><time>2026-04-22T12:04:10.644Z</time></trkpt><trkpt lat="40.093638" lon="9.438487"><ele>1037.5</ele><time>2026-04-22T12:04:11.638Z</time></trkpt><trkpt lat="40.093669" lon="9.4384041"><ele>1039.3333333333335</ele><time>2026-04-22T12:04:12.645Z</time></trkpt><trkpt lat="40.0936961" lon="9.4383272"><ele>1041.1666666666667</ele><time>2026-04-22T12:04:13.643Z</time></trkpt><trkpt lat="40.0937205" lon="9.4382457"><ele>1043.0</ele><time>2026-04-22T12:04:14.642Z</time></trkpt><trkpt lat="40.0937552" lon="9.4381167"><ele>1043.0</ele><time>2026-04-22T12:04:16.643Z</time></trkpt><trkpt lat="40.0937973" lon="9.4380011"><ele>1043.0</ele><time>2026-04-22T12:04:18.639Z</time></trkpt><trkpt lat="40.0938824" lon="9.4379597"><ele>1043.0</ele><time>2026-04-22T12:04:20.643Z</time></trkpt><trkpt lat="40.0939736" lon="9.4380641"><ele>1043.0</ele><time>2026-04-22T12:04:22.633Z</time></trkpt><trkpt lat="40.0940238" lon="9.4381659"><ele>1043.0</ele><time>2026-04-22T12:04:23.637Z</time></trkpt><trkpt lat="40.0940675" lon="9.4382632"><ele>1042.5</ele><time>2026-04-22T12:04:24.64Z</time></trkpt><trkpt lat="40.0941026" lon="9.4383565"><ele>1042.0</ele><time>2026-04-22T12:04:25.643Z</time></trkpt><trkpt lat="40.0941479" lon="9.4384503"><ele>1041.5</ele><time>2026-04-22T12:04:26.636Z</time></trkpt><trkpt lat="40.0941947" lon="9.43855"><ele>1041.0</ele><time>2026-04-22T12:04:27.646Z</time></trkpt><trkpt lat="40.094225" lon="9.4386632"><ele>1040.5</ele><time>2026-04-22T12:04:28.643Z</time></trkpt><trkpt lat="40.0942483" lon="9.4387736"><ele>1040.0</ele><time>2026-04-22T12:04:29.642Z</time></trkpt><trkpt lat="40.0942671" lon="9.4388802"><ele>1038.1666666666667</ele><time>2026-04-22T12:04:30.646Z</time></trkpt><trkpt lat="40.0942873" lon="9.4389804"><ele>1036.3333333333335</ele><time>2026-04-22T12:04:31.647Z</time></trkpt><trkpt lat="40.0943079" lon="9.4390941"><ele>1034.5</ele><time>2026-04-22T12:04:32.648Z</time></trkpt><trkpt lat="40.0943258" lon="9.4392019"><ele>1032.6666666666667</ele><time>2026-04-22T12:04:33.649Z</time></trkpt><trkpt lat="40.0943377" lon="9.439325"><ele>1030.8333333333333</ele><time>2026-04-22T12:04:34.646Z</time></trkpt><trkpt lat="40.0943517" lon="9.4394491"><ele>1029.0</ele><time>2026-04-22T12:04:35.645Z</time></trkpt><trkpt lat="40.0943647" lon="9.4395688"><ele>1028.8</ele><time>2026-04-22T12:04:36.648Z</time></trkpt><trkpt lat="40.0943833" lon="9.4396947"><ele>1028.6000000000001</ele><time>2026-04-22T12:04:37.643Z</time></trkpt><trkpt lat="40.0943986" lon="9.4398203"><ele>1028.4</ele><time>2026-04-22T12:04:38.649Z</time></trkpt><trkpt lat="40.094411" lon="9.4399337"><ele>1028.2</ele><time>2026-04-22T12:04:39.644Z</time></trkpt><trkpt lat="40.0944298" lon="9.4400398"><ele>1028.0</ele><time>2026-04-22T12:04:40.646Z</time></trkpt><trkpt lat="40.0944563" lon="9.4401466"><ele>1028.0</ele><time>2026-04-22T12:04:41.645Z</time></trkpt><trkpt lat="40.0944934" lon="9.4402285"><ele>1028.0</ele><time>2026-04-22T12:04:42.637Z</time></trkpt><trkpt lat="40.094602" lon="9.4402859"><ele>1028.0</ele><time>2026-04-22T12:04:44.636Z</time></trkpt><trkpt lat="40.0947246" lon="9.4402265"><ele>1028.0</ele><time>2026-04-22T12:04:46.641Z</time></trkpt><trkpt lat="40.094778" lon="9.4401515"><ele>1028.0</ele><time>2026-04-22T12:04:47.64Z</time></trkpt><trkpt lat="40.0948205" lon="9.440057"><ele>1028.0</ele><time>2026-04-22T12:04:48.634Z</time></trkpt><trkpt lat="40.0948529" lon="9.4399591"><ele>1028.0</ele><time>2026-04-22T12:04:49.638Z</time></trkpt><trkpt lat="40.0948704" lon="9.4398509"><ele>1028.0</ele><time>2026-04-22T12:04:50.632Z</time></trkpt><trkpt lat="40.09489" lon="9.4397333"><ele>1028.0</ele><time>2026-04-22T12:04:51.639Z</time></trkpt><trkpt lat="40.0949037" lon="9.4396081"><ele>1028.0</ele><time>2026-04-22T12:04:52.63Z</time></trkpt><trkpt lat="40.0949142" lon="9.4394854"><ele>1028.0</ele><time>2026-04-22T12:04:53.638Z</time></trkpt><trkpt lat="40.094918" lon="9.4393798"><ele>1028.1666666666667</ele><time>2026-04-22T12:04:54.637Z</time></trkpt><trkpt lat="40.0949214" lon="9.4392796"><ele>1028.3333333333335</ele><time>2026-04-22T12:04:55.637Z</time></trkpt><trkpt lat="40.0949161" lon="9.4391895"><ele>1028.5</ele><time>2026-04-22T12:04:56.651Z</time></trkpt><trkpt lat="40.0948999" lon="9.439104"><ele>1028.6666666666667</ele><time>2026-04-22T12:04:57.646Z</time></trkpt><trkpt lat="40.0948787" lon="9.4390077"><ele>1028.8333333333333</ele><time>2026-04-22T12:04:58.646Z</time></trkpt><trkpt lat="40.0948544" lon="9.438903"><ele>1029.0</ele><time>2026-04-22T12:04:59.641Z</time></trkpt><trkpt lat="40.0948369" lon="9.4387859"><ele>1031.2</ele><time>2026-04-22T12:05:00.644Z</time></trkpt><trkpt lat="40.0948225" lon="9.4386633"><ele>1033.4</ele><time>2026-04-22T12:05:01.642Z</time></trkpt><trkpt lat="40.094808" lon="9.438533"><ele>1035.6</ele><time>2026-04-22T12:05:02.644Z</time></trkpt><trkpt lat="40.0947917" lon="9.4384017"><ele>1037.8</ele><time>2026-04-22T12:05:03.638Z</time></trkpt><trkpt lat="40.0947756" lon="9.4382763"><ele>1040.0</ele><time>2026-04-22T12:05:04.638Z</time></trkpt><trkpt lat="40.0947595" lon="9.4381559"><ele>1040.0</ele><time>2026-04-22T12:05:05.639Z</time></trkpt><trkpt lat="40.0947458" lon="9.4380462"><ele>1040.0</ele><time>2026-04-22T12:05:06.64Z</time></trkpt><trkpt lat="40.0947316" lon="9.4379424"><ele>1040.0</ele><time>2026-04-22T12:05:07.649Z</time></trkpt><trkpt lat="40.0947109" lon="9.4378381"><ele>1040.0</ele><time>2026-04-22T12:05:08.638Z</time></trkpt><trkpt lat="40.0946744" lon="9.4377287"><ele>1040.0</ele><time>2026-04-22T12:05:09.642Z</time></trkpt><trkpt lat="40.0946348" lon="9.4376141"><ele>1040.0</ele><time>2026-04-22T12:05:10.639Z</time></trkpt><trkpt lat="40.0945882" lon="9.4374929"><ele>1042.6</ele><time>2026-04-22T12:05:11.634Z</time></trkpt><trkpt lat="40.0945352" lon="9.4373704"><ele>1045.2</ele><time>2026-04-22T12:05:12.638Z</time></trkpt><trkpt lat="40.094482" lon="9.4372433"><ele>1047.8</ele><time>2026-04-22T12:05:13.636Z</time></trkpt><trkpt lat="40.0944306" lon="9.4371102"><ele>1050.4</ele><time>2026-04-22T12:05:14.634Z</time></trkpt><trkpt lat="40.0943892" lon="9.436981"><ele>1053.0</ele><time>2026-04-22T12:05:15.631Z</time></trkpt><trkpt lat="40.0943575" lon="9.4368771"><ele>1055.6</ele><time>2026-04-22T12:05:16.634Z</time></trkpt><trkpt lat="40.0943314" lon="9.4367364"><ele>1058.1999999999998</ele><time>2026-04-22T12:05:18.63Z</time></trkpt><trkpt lat="40.094364" lon="9.4366091"><ele>1060.8</ele><time>2026-04-22T12:05:20.629Z</time></trkpt><trkpt lat="40.0944149" lon="9.4365385"><ele>1063.3999999999999</ele><time>2026-04-22T12:05:21.631Z</time></trkpt><trkpt lat="40.0944813" lon="9.436448"><ele>1066.0</ele><time>2026-04-22T12:05:22.638Z</time></trkpt><trkpt lat="40.0945439" lon="9.4363406"><ele>1068.3999999999999</ele><time>2026-04-22T12:05:23.634Z</time></trkpt><trkpt lat="40.0945885" lon="9.4362148"><ele>1070.8</ele><time>2026-04-22T12:05:24.638Z</time></trkpt><trkpt lat="40.0946192" lon="9.436086"><ele>1073.1999999999998</ele><time>2026-04-22T12:05:25.637Z</time></trkpt><trkpt lat="40.0946373" lon="9.435945"><ele>1075.6</ele><time>2026-04-22T12:05:26.642Z</time></trkpt><trkpt lat="40.0946499" lon="9.435796"><ele>1078.0</ele><time>2026-04-22T12:05:27.644Z</time></trkpt><trkpt lat="40.0946517" lon="9.435653"><ele>1078.0</ele><time>2026-04-22T12:05:28.645Z</time></trkpt><trkpt lat="40.0946535" lon="9.4355153"><ele>1078.0</ele><time>2026-04-22T12:05:29.651Z</time></trkpt><trkpt lat="40.0946596" lon="9.4353792"><ele>1078.0</ele><time>2026-04-22T12:05:30.647Z</time></trkpt><trkpt lat="40.0946636" lon="9.4352384"><ele>1078.0</ele><time>2026-04-22T12:05:31.631Z</time></trkpt><trkpt lat="40.0946692" lon="9.4351058"><ele>1078.0</ele><time>2026-04-22T12:05:32.638Z</time></trkpt><trkpt lat="40.09468" lon="9.4349719"><ele>1081.0</ele><time>2026-04-22T12:05:33.637Z</time></trkpt><trkpt lat="40.0946868" lon="9.4348406"><ele>1084.0</ele><time>2026-04-22T12:05:34.635Z</time></trkpt><trkpt lat="40.0946938" lon="9.4347101"><ele>1087.0</ele><time>2026-04-22T12:05:35.641Z</time></trkpt><trkpt lat="40.094701" lon="9.4345803"><ele>1090.0</ele><time>2026-04-22T12:05:36.644Z</time></trkpt><trkpt lat="40.0947054" lon="9.4344484"><ele>1093.0</ele><time>2026-04-22T12:05:37.637Z</time></trkpt><trkpt lat="40.0947131" lon="9.43431"><ele>1096.2</ele><time>2026-04-22T12:05:38.644Z</time></trkpt><trkpt lat="40.0947167" lon="9.4341811"><ele>1099.4</ele><time>2026-04-22T12:05:39.639Z</time></trkpt><trkpt lat="40.0947285" lon="9.4340502"><ele>1102.6000000000001</ele><time>2026-04-22T12:05:40.639Z</time></trkpt><trkpt lat="40.094744" lon="9.4339197"><ele>1105.8</ele><time>2026-04-22T12:05:41.634Z</time></trkpt><trkpt lat="40.0947575" lon="9.4337913"><ele>1109.0</ele><time>2026-04-22T12:05:42.634Z</time></trkpt><trkpt lat="40.0947784" lon="9.4336653"><ele>1106.4</ele><time>2026-04-22T12:05:43.639Z</time></trkpt><trkpt lat="40.0948125" lon="9.4335492"><ele>1103.8000000000002</ele><time>2026-04-22T12:05:44.635Z</time></trkpt><trkpt lat="40.0948532" lon="9.4334327"><ele>1101.1999999999998</ele><time>2026-04-22T12:05:45.64Z</time></trkpt><trkpt lat="40.0949107" lon="9.4333196"><ele>1098.6</ele><time>2026-04-22T12:05:46.637Z</time></trkpt><trkpt lat="40.0949653" lon="9.4332022"><ele>1096.0</ele><time>2026-04-22T12:05:47.635Z</time></trkpt><trkpt lat="40.0949985" lon="9.4330851"><ele>1098.8</ele><time>2026-04-22T12:05:48.638Z</time></trkpt><trkpt lat="40.0950206" lon="9.4329662"><ele>1101.6</ele><time>2026-04-22T12:05:49.635Z</time></trkpt><trkpt lat="40.0950266" lon="9.432844"><ele>1104.4</ele><time>2026-04-22T12:05:50.639Z</time></trkpt><trkpt lat="40.0950327" lon="9.4327085"><ele>1107.2</ele><time>2026-04-22T12:05:51.632Z</time></trkpt><trkpt lat="40.0950322" lon="9.4325704"><ele>1110.0</ele><time>2026-04-22T12:05:52.652Z</time></trkpt><trkpt lat="40.0950276" lon="9.432432"><ele>1110.0</ele><time>2026-04-22T12:05:53.63Z</time></trkpt><trkpt lat="40.0950186" lon="9.4322888"><ele>1110.0</ele><time>2026-04-22T12:05:54.632Z</time></trkpt><trkpt lat="40.095006" lon="9.4321491"><ele>1110.0</ele><time>2026-04-22T12:05:55.641Z</time></trkpt><trkpt lat="40.0949814" lon="9.4320141"><ele>1110.0</ele><time>2026-04-22T12:05:56.635Z</time></trkpt><trkpt lat="40.0949521" lon="9.4318697"><ele>1110.0</ele><time>2026-04-22T12:05:57.636Z</time></trkpt><trkpt lat="40.0949278" lon="9.4317196"><ele>1119.25</ele><time>2026-04-22T12:05:58.633Z</time></trkpt><trkpt lat="40.0949047" lon="9.4315744"><ele>1128.5</ele><time>2026-04-22T12:05:59.638Z</time></trkpt><trkpt lat="40.0948828" lon="9.431428"><ele>1137.75</ele><time>2026-04-22T12:06:00.637Z</time></trkpt><trkpt lat="40.0948587" lon="9.4312822"><ele>1147.0</ele><time>2026-04-22T12:06:01.638Z</time></trkpt><trkpt lat="40.094829" lon="9.4311289"><ele>1147.6</ele><time>2026-04-22T12:06:02.634Z</time></trkpt><trkpt lat="40.0948018" lon="9.4309762"><ele>1148.2</ele><time>2026-04-22T12:06:03.634Z</time></trkpt><trkpt lat="40.0947802" lon="9.4308272"><ele>1148.8</ele><time>2026-04-22T12:06:04.641Z</time></trkpt><trkpt lat="40.0947559" lon="9.4306931"><ele>1149.4</ele><time>2026-04-22T12:06:05.628Z</time></trkpt><trkpt lat="40.0947215" lon="9.4305745"><ele>1150.0</ele><time>2026-04-22T12:06:06.64Z</time></trkpt><trkpt lat="40.0946851" lon="9.4304544"><ele>1150.0</ele><time>2026-04-22T12:06:07.637Z</time></trkpt><trkpt lat="40.0946445" lon="9.4303285"><ele>1150.0</ele><time>2026-04-22T12:06:08.637Z</time></trkpt><trkpt lat="40.0945972" lon="9.4302092"><ele>1150.0</ele><time>2026-04-22T12:06:09.635Z</time></trkpt><trkpt lat="40.0945486" lon="9.4300911"><ele>1150.0</ele><time>2026-04-22T12:06:10.633Z</time></trkpt><trkpt lat="40.0945078" lon="9.4299723"><ele>1150.0</ele><time>2026-04-22T12:06:11.643Z</time></trkpt><trkpt lat="40.0944663" lon="9.4298622"><ele>1150.0</ele><time>2026-04-22T12:06:12.633Z</time></trkpt><trkpt lat="40.0944278" lon="9.4297519"><ele>1150.0</ele><time>2026-04-22T12:06:13.642Z</time></trkpt><trkpt lat="40.0943833" lon="9.429641"><ele>1150.0</ele><time>2026-04-22T12:06:14.643Z</time></trkpt><trkpt lat="40.0943316" lon="9.4295302"><ele>1150.0</ele><time>2026-04-22T12:06:15.633Z</time></trkpt><trkpt lat="40.0942736" lon="9.4294279"><ele>1150.0</ele><time>2026-04-22T12:06:16.636Z</time></trkpt><trkpt lat="40.0942127" lon="9.4293325"><ele>1149.6</ele><time>2026-04-22T12:06:17.634Z</time></trkpt><trkpt lat="40.0941515" lon="9.4292326"><ele>1149.2</ele><time>2026-04-22T12:06:18.639Z</time></trkpt><trkpt lat="40.0940918" lon="9.4291316"><ele>1148.8</ele><time>2026-04-22T12:06:19.634Z</time></trkpt><trkpt lat="40.0940302" lon="9.4290241"><ele>1148.4</ele><time>2026-04-22T12:06:20.642Z</time></trkpt><trkpt lat="40.093966" lon="9.4289112"><ele>1148.0</ele><time>2026-04-22T12:06:21.643Z</time></trkpt><trkpt lat="40.0939003" lon="9.4288003"><ele>1152.2</ele><time>2026-04-22T12:06:22.642Z</time></trkpt><trkpt lat="40.0938344" lon="9.4286817"><ele>1156.4</ele><time>2026-04-22T12:06:23.638Z</time></trkpt><trkpt lat="40.0937676" lon="9.4285615"><ele>1160.6000000000001</ele><time>2026-04-22T12:06:24.637Z</time></trkpt><trkpt lat="40.0937043" lon="9.4284449"><ele>1164.8</ele><time>2026-04-22T12:06:25.643Z</time></trkpt><trkpt lat="40.0936457" lon="9.4283235"><ele>1169.0</ele><time>2026-04-22T12:06:26.632Z</time></trkpt><trkpt lat="40.0936085" lon="9.4282015"><ele>1169.0</ele><time>2026-04-22T12:06:27.638Z</time></trkpt><trkpt lat="40.0935923" lon="9.4280681"><ele>1169.0</ele><time>2026-04-22T12:06:28.636Z</time></trkpt><trkpt lat="40.0935868" lon="9.4279354"><ele>1169.0</ele><time>2026-04-22T12:06:29.635Z</time></trkpt><trkpt lat="40.0935715" lon="9.4278258"><ele>1169.0</ele><time>2026-04-22T12:06:30.632Z</time></trkpt><trkpt lat="40.0935486" lon="9.427733"><ele>1169.0</ele><time>2026-04-22T12:06:31.635Z</time></trkpt><trkpt lat="40.0935255" lon="9.4276536"><ele>1169.0</ele><time>2026-04-22T12:06:32.637Z</time></trkpt><trkpt lat="40.0935049" lon="9.4275494"><ele>1169.0</ele><time>2026-04-22T12:06:33.634Z</time></trkpt><trkpt lat="40.0934972" lon="9.4274289"><ele>1169.0</ele><time>2026-04-22T12:06:34.631Z</time></trkpt><trkpt lat="40.0934786" lon="9.427297"><ele>1169.0</ele><time>2026-04-22T12:06:35.637Z</time></trkpt><trkpt lat="40.0934594" lon="9.4271572"><ele>1169.0</ele><time>2026-04-22T12:06:36.633Z</time></trkpt><trkpt lat="40.0934264" lon="9.427025"><ele>1169.0</ele><time>2026-04-22T12:06:37.634Z</time></trkpt><trkpt lat="40.0933978" lon="9.4268943"><ele>1169.5</ele><time>2026-04-22T12:06:38.634Z</time></trkpt><trkpt lat="40.0933883" lon="9.4267688"><ele>1170.0</ele><time>2026-04-22T12:06:39.628Z</time></trkpt><trkpt lat="40.0933964" lon="9.4266298"><ele>1170.5</ele><time>2026-04-22T12:06:40.639Z</time></trkpt><trkpt lat="40.0934018" lon="9.4264686"><ele>1171.0</ele><time>2026-04-22T12:06:41.634Z</time></trkpt><trkpt lat="40.0934014" lon="9.4263027"><ele>1170.2</ele><time>2026-04-22T12:06:42.634Z</time></trkpt><trkpt lat="40.0933981" lon="9.4261434"><ele>1169.3999999999999</ele><time>2026-04-22T12:06:43.63Z</time></trkpt><trkpt lat="40.0933955" lon="9.4260157"><ele>1168.6</ele><time>2026-04-22T12:06:44.636Z</time></trkpt><trkpt lat="40.0933943" lon="9.4259278"><ele>1167.8</ele><time>2026-04-22T12:06:45.638Z</time></trkpt><trkpt lat="40.0934087" lon="9.4257962"><ele>1167.0</ele><time>2026-04-22T12:06:47.636Z</time></trkpt><trkpt lat="40.0933702" lon="9.425723"><ele>1167.0</ele><time>2026-04-22T12:06:49.636Z</time></trkpt><trkpt lat="40.0932888" lon="9.4257494"><ele>1167.0</ele><time>2026-04-22T12:06:51.647Z</time></trkpt><trkpt lat="40.0932362" lon="9.4258029"><ele>1167.0</ele><time>2026-04-22T12:06:52.648Z</time></trkpt><trkpt lat="40.0932089" lon="9.4258812"><ele>1167.0</ele><time>2026-04-22T12:06:53.644Z</time></trkpt><trkpt lat="40.093186" lon="9.4259838"><ele>1167.0</ele><time>2026-04-22T12:06:54.635Z</time></trkpt><trkpt lat="40.093172" lon="9.4260734"><ele>1167.0</ele><time>2026-04-22T12:06:55.635Z</time></trkpt><trkpt lat="40.0931517" lon="9.4261706"><ele>1167.0</ele><time>2026-04-22T12:06:56.637Z</time></trkpt><trkpt lat="40.0931256" lon="9.426264"><ele>1172.0</ele><time>2026-04-22T12:06:57.642Z</time></trkpt><trkpt lat="40.0930913" lon="9.4263661"><ele>1177.0</ele><time>2026-04-22T12:06:58.643Z</time></trkpt><trkpt lat="40.0930548" lon="9.4264609"><ele>1182.0</ele><time>2026-04-22T12:06:59.637Z</time></trkpt><trkpt lat="40.0930116" lon="9.4265619"><ele>1187.0</ele><time>2026-04-22T12:07:00.643Z</time></trkpt><trkpt lat="40.0929654" lon="9.4266487"><ele>1192.0</ele><time>2026-04-22T12:07:01.635Z</time></trkpt><trkpt lat="40.0929109" lon="9.4267343"><ele>1197.0</ele><time>2026-04-22T12:07:02.642Z</time></trkpt><trkpt lat="40.0928699" lon="9.4268262"><ele>1197.0</ele><time>2026-04-22T12:07:03.634Z</time></trkpt><trkpt lat="40.0928324" lon="9.4269166"><ele>1197.0</ele><time>2026-04-22T12:07:04.633Z</time></trkpt><trkpt lat="40.0928086" lon="9.4270166"><ele>1197.0</ele><time>2026-04-22T12:07:05.631Z</time></trkpt><trkpt lat="40.0927812" lon="9.4271343"><ele>1197.0</ele><time>2026-04-22T12:07:06.64Z</time></trkpt><trkpt lat="40.0927471" lon="9.4272441"><ele>1197.0</ele><time>2026-04-22T12:07:07.638Z</time></trkpt><trkpt lat="40.092711" lon="9.4273564"><ele>1197.0</ele><time>2026-04-22T12:07:08.635Z</time></trkpt><trkpt lat="40.0926818" lon="9.4274498"><ele>1196.5</ele><time>2026-04-22T12:07:09.637Z</time></trkpt><trkpt lat="40.0926577" lon="9.4275534"><ele>1196.0</ele><time>2026-04-22T12:07:10.641Z</time></trkpt><trkpt lat="40.092639" lon="9.4276468"><ele>1195.5</ele><time>2026-04-22T12:07:11.642Z</time></trkpt><trkpt lat="40.092592" lon="9.427765"><ele>1195.0</ele><time>2026-04-22T12:07:13.644Z</time></trkpt><trkpt lat="40.0925405" lon="9.4278155"><ele>1194.5</ele><time>2026-04-22T12:07:14.643Z</time></trkpt><trkpt lat="40.0924788" lon="9.4278577"><ele>1194.0</ele><time>2026-04-22T12:07:15.642Z</time></trkpt><trkpt lat="40.0924073" lon="9.4278967"><ele>1196.8333333333333</ele><time>2026-04-22T12:07:16.653Z</time></trkpt><trkpt lat="40.0923379" lon="9.4279293"><ele>1199.6666666666667</ele><time>2026-04-22T12:07:17.646Z</time></trkpt><trkpt lat="40.0922597" lon="9.4279572"><ele>1202.5</ele><time>2026-04-22T12:07:18.656Z</time></trkpt><trkpt lat="40.092179" lon="9.4279641"><ele>1205.3333333333335</ele><time>2026-04-22T12:07:19.644Z</time></trkpt><trkpt lat="40.0920906" lon="9.4279725"><ele>1208.1666666666667</ele><time>2026-04-22T12:07:20.64Z</time></trkpt><trkpt lat="40.0919986" lon="9.4279691"><ele>1211.0</ele><time>2026-04-22T12:07:21.645Z</time></trkpt><trkpt lat="40.0919086" lon="9.427962"><ele>1211.0</ele><time>2026-04-22T12:07:22.642Z</time></trkpt><trkpt lat="40.0918157" lon="9.4279584"><ele>1211.0</ele><time>2026-04-22T12:07:23.648Z</time></trkpt><trkpt lat="40.0917171" lon="9.4279524"><ele>1211.0</ele><time>2026-04-22T12:07:24.646Z</time></trkpt><trkpt lat="40.0916246" lon="9.427945"><ele>1211.0</ele><time>2026-04-22T12:07:25.647Z</time></trkpt><trkpt lat="40.091542" lon="9.427937"><ele>1211.0</ele><time>2026-04-22T12:07:26.647Z</time></trkpt><trkpt lat="40.0914612" lon="9.4279327"><ele>1211.0</ele><time>2026-04-22T12:07:27.644Z</time></trkpt><trkpt lat="40.0913841" lon="9.4279364"><ele>1212.0</ele><time>2026-04-22T12:07:28.639Z</time></trkpt><trkpt lat="40.0913111" lon="9.4279526"><ele>1213.0</ele><time>2026-04-22T12:07:29.638Z</time></trkpt><trkpt lat="40.0912469" lon="9.4279896"><ele>1214.0</ele><time>2026-04-22T12:07:30.63Z</time></trkpt><trkpt lat="40.0911813" lon="9.428041"><ele>1215.0</ele><time>2026-04-22T12:07:31.632Z</time></trkpt><trkpt lat="40.0911233" lon="9.4280946"><ele>1216.0</ele><time>2026-04-22T12:07:32.631Z</time></trkpt><trkpt lat="40.091068" lon="9.4281736"><ele>1217.0</ele><time>2026-04-22T12:07:33.631Z</time></trkpt><trkpt lat="40.0910249" lon="9.4282421"><ele>1218.0</ele><time>2026-04-22T12:07:34.631Z</time></trkpt><trkpt lat="40.0910012" lon="9.4283322"><ele>1218.0</ele><time>2026-04-22T12:07:35.629Z</time></trkpt><trkpt lat="40.0909682" lon="9.4284205"><ele>1218.0</ele><time>2026-04-22T12:07:36.637Z</time></trkpt><trkpt lat="40.0909278" lon="9.4285102"><ele>1218.0</ele><time>2026-04-22T12:07:37.642Z</time></trkpt><trkpt lat="40.0908831" lon="9.4286105"><ele>1218.0</ele><time>2026-04-22T12:07:38.642Z</time></trkpt><trkpt lat="40.090821" lon="9.428706"><ele>1218.0</ele><time>2026-04-22T12:07:39.646Z</time></trkpt><trkpt lat="40.0907676" lon="9.4287884"><ele>1218.0</ele><time>2026-04-22T12:07:40.649Z</time></trkpt><trkpt lat="40.090726" lon="9.4288579"><ele>1216.8</ele><time>2026-04-22T12:07:41.647Z</time></trkpt><trkpt lat="40.0906445" lon="9.4289373"><ele>1215.6</ele><time>2026-04-22T12:07:43.654Z</time></trkpt><trkpt lat="40.0905598" lon="9.4289098"><ele>1214.4</ele><time>2026-04-22T12:07:45.642Z</time></trkpt><trkpt lat="40.0904678" lon="9.4287876"><ele>1213.2</ele><time>2026-04-22T12:07:47.633Z</time></trkpt><trkpt lat="40.0904361" lon="9.4286814"><ele>1212.0</ele><time>2026-04-22T12:07:48.646Z</time></trkpt><trkpt lat="40.0904097" lon="9.4285496"><ele>1212.0</ele><time>2026-04-22T12:07:49.643Z</time></trkpt><trkpt lat="40.0903741" lon="9.4284365"><ele>1212.0</ele><time>2026-04-22T12:07:50.649Z</time></trkpt><trkpt lat="40.0903332" lon="9.4283479"><ele>1212.0</ele><time>2026-04-22T12:07:51.648Z</time></trkpt><trkpt lat="40.0903011" lon="9.4282638"><ele>1212.0</ele><time>2026-04-22T12:07:52.64Z</time></trkpt><trkpt lat="40.0902763" lon="9.4281761"><ele>1212.0</ele><time>2026-04-22T12:07:53.639Z</time></trkpt><trkpt lat="40.0902648" lon="9.4280901"><ele>1212.0</ele><time>2026-04-22T12:07:54.641Z</time></trkpt><trkpt lat="40.090314" lon="9.4280133"><ele>1215.4</ele><time>2026-04-22T12:07:55.631Z</time></trkpt><trkpt lat="40.090381" lon="9.4279259"><ele>1218.8000000000002</ele><time>2026-04-22T12:07:56.646Z</time></trkpt><trkpt lat="40.0904421" lon="9.4278191"><ele>1222.2</ele><time>2026-04-22T12:07:57.638Z</time></trkpt><trkpt lat="40.0904945" lon="9.4277117"><ele>1225.6000000000001</ele><time>2026-04-22T12:07:58.641Z</time></trkpt><trkpt lat="40.0905315" lon="9.4275975"><ele>1229.0</ele><time>2026-04-22T12:07:59.643Z</time></trkpt><trkpt lat="40.090566" lon="9.427488"><ele>1229.0</ele><time>2026-04-22T12:08:00.644Z</time></trkpt><trkpt lat="40.0906034" lon="9.427372"><ele>1229.0</ele><time>2026-04-22T12:08:01.639Z</time></trkpt><trkpt lat="40.0906318" lon="9.4272491"><ele>1229.0</ele><time>2026-04-22T12:08:02.642Z</time></trkpt><trkpt lat="40.0906632" lon="9.4271316"><ele>1229.0</ele><time>2026-04-22T12:08:03.639Z</time></trkpt><trkpt lat="40.0906931" lon="9.4270228"><ele>1229.0</ele><time>2026-04-22T12:08:04.643Z</time></trkpt><trkpt lat="40.0907225" lon="9.4269079"><ele>1231.2</ele><time>2026-04-22T12:08:05.64Z</time></trkpt><trkpt lat="40.0907529" lon="9.4267941"><ele>1233.4</ele><time>2026-04-22T12:08:06.644Z</time></trkpt><trkpt lat="40.0907899" lon="9.4266768"><ele>1235.6</ele><time>2026-04-22T12:08:07.643Z</time></trkpt><trkpt lat="40.0908166" lon="9.4265578"><ele>1237.8</ele><time>2026-04-22T12:08:08.648Z</time></trkpt><trkpt lat="40.0908366" lon="9.4264407"><ele>1240.0</ele><time>2026-04-22T12:08:09.647Z</time></trkpt><trkpt lat="40.0908423" lon="9.4263287"><ele>1241.8</ele><time>2026-04-22T12:08:10.644Z</time></trkpt><trkpt lat="40.0908461" lon="9.4262176"><ele>1243.6</ele><time>2026-04-22T12:08:11.644Z</time></trkpt><trkpt lat="40.0908483" lon="9.4260902"><ele>1245.4</ele><time>2026-04-22T12:08:12.644Z</time></trkpt><trkpt lat="40.0908484" lon="9.4259655"><ele>1247.2</ele><time>2026-04-22T12:08:13.648Z</time></trkpt><trkpt lat="40.0908445" lon="9.4258424"><ele>1249.0</ele><time>2026-04-22T12:08:14.645Z</time></trkpt><trkpt lat="40.0908401" lon="9.4257215"><ele>1249.0</ele><time>2026-04-22T12:08:15.642Z</time></trkpt><trkpt lat="40.0908307" lon="9.4256086"><ele>1249.0</ele><time>2026-04-22T12:08:16.646Z</time></trkpt><trkpt lat="40.0908312" lon="9.425478"><ele>1249.0</ele><time>2026-04-22T12:08:17.649Z</time></trkpt><trkpt lat="40.0908236" lon="9.4253621"><ele>1249.0</ele><time>2026-04-22T12:08:18.644Z</time></trkpt><trkpt lat="40.0908019" lon="9.4252483"><ele>1249.0</ele><time>2026-04-22T12:08:19.642Z</time></trkpt><trkpt lat="40.0907812" lon="9.4251259"><ele>1249.4</ele><time>2026-04-22T12:08:20.647Z</time></trkpt><trkpt lat="40.0907611" lon="9.4250056"><ele>1249.8000000000002</ele><time>2026-04-22T12:08:21.646Z</time></trkpt><trkpt lat="40.0907296" lon="9.42488"><ele>1250.1999999999998</ele><time>2026-04-22T12:08:22.641Z</time></trkpt><trkpt lat="40.0906921" lon="9.4247678"><ele>1250.6</ele><time>2026-04-22T12:08:23.64Z</time></trkpt><trkpt lat="40.0906459" lon="9.4246524"><ele>1251.0</ele><time>2026-04-22T12:08:24.642Z</time></trkpt><trkpt lat="40.0905917" lon="9.4245433"><ele>1254.3999999999999</ele><time>2026-04-22T12:08:25.642Z</time></trkpt><trkpt lat="40.0905267" lon="9.4244262"><ele>1257.8</ele><time>2026-04-22T12:08:26.645Z</time></trkpt><trkpt lat="40.090463" lon="9.4243149"><ele>1261.1999999999998</ele><time>2026-04-22T12:08:27.642Z</time></trkpt><trkpt lat="40.0904066" lon="9.4241933"><ele>1264.6</ele><time>2026-04-22T12:08:28.64Z</time></trkpt><trkpt lat="40.0903505" lon="9.4240714"><ele>1268.0</ele><time>2026-04-22T12:08:29.642Z</time></trkpt><trkpt lat="40.0903009" lon="9.4239377"><ele>1268.4</ele><time>2026-04-22T12:08:30.646Z</time></trkpt><trkpt lat="40.0902417" lon="9.4237984"><ele>1268.8</ele><time>2026-04-22T12:08:31.644Z</time></trkpt><trkpt lat="40.0901914" lon="9.4236721"><ele>1269.2</ele><time>2026-04-22T12:08:32.643Z</time></trkpt><trkpt lat="40.0901463" lon="9.4235591"><ele>1269.6</ele><time>2026-04-22T12:08:33.646Z</time></trkpt><trkpt lat="40.0900956" lon="9.4234501"><ele>1270.0</ele><time>2026-04-22T12:08:34.643Z</time></trkpt><trkpt lat="40.0900457" lon="9.4233398"><ele>1270.0</ele><time>2026-04-22T12:08:35.643Z</time></trkpt><trkpt lat="40.0899973" lon="9.4232205"><ele>1270.0</ele><time>2026-04-22T12:08:36.643Z</time></trkpt><trkpt lat="40.0899324" lon="9.4231048"><ele>1270.0</ele><time>2026-04-22T12:08:37.645Z</time></trkpt><trkpt lat="40.0898751" lon="9.4229963"><ele>1270.0</ele><time>2026-04-22T12:08:38.65Z</time></trkpt><trkpt lat="40.089815" lon="9.422899"><ele>1270.0</ele><time>2026-04-22T12:08:39.649Z</time></trkpt><trkpt lat="40.0897593" lon="9.422803"><ele>1272.0</ele><time>2026-04-22T12:08:40.654Z</time></trkpt><trkpt lat="40.0897044" lon="9.4227179"><ele>1274.0</ele><time>2026-04-22T12:08:41.648Z</time></trkpt><trkpt lat="40.0896455" lon="9.4226477"><ele>1276.0</ele><time>2026-04-22T12:08:42.648Z</time></trkpt><trkpt lat="40.0895913" lon="9.4225972"><ele>1278.0</ele><time>2026-04-22T12:08:43.65Z</time></trkpt><trkpt lat="40.0895313" lon="9.4225528"><ele>1280.0</ele><time>2026-04-22T12:08:44.652Z</time></trkpt><trkpt lat="40.0894595" lon="9.4225125"><ele>1282.0</ele><time>2026-04-22T12:08:45.646Z</time></trkpt><trkpt lat="40.0893845" lon="9.4224833"><ele>1282.0</ele><time>2026-04-22T12:08:46.641Z</time></trkpt><trkpt lat="40.0892912" lon="9.4224648"><ele>1282.0</ele><time>2026-04-22T12:08:47.649Z</time></trkpt><trkpt lat="40.0891845" lon="9.4224435"><ele>1282.0</ele><time>2026-04-22T12:08:48.653Z</time></trkpt><trkpt lat="40.0890848" lon="9.4224249"><ele>1282.0</ele><time>2026-04-22T12:08:49.642Z</time></trkpt><trkpt lat="40.0889884" lon="9.4224158"><ele>1282.0</ele><time>2026-04-22T12:08:50.646Z</time></trkpt><trkpt lat="40.0888825" lon="9.4224045"><ele>1282.1999999999998</ele><time>2026-04-22T12:08:51.648Z</time></trkpt><trkpt lat="40.0887657" lon="9.422404"><ele>1282.4</ele><time>2026-04-22T12:08:52.642Z</time></trkpt><trkpt lat="40.0886461" lon="9.4224004"><ele>1282.6</ele><time>2026-04-22T12:08:53.652Z</time></trkpt><trkpt lat="40.0885408" lon="9.422406"><ele>1282.8000000000002</ele><time>2026-04-22T12:08:54.644Z</time></trkpt><trkpt lat="40.0884524" lon="9.4224169"><ele>1283.0</ele><time>2026-04-22T12:08:55.642Z</time></trkpt><trkpt lat="40.0883852" lon="9.4224198"><ele>1283.0</ele><time>2026-04-22T12:08:56.652Z</time></trkpt><trkpt lat="40.088303" lon="9.4224262"><ele>1283.0</ele><time>2026-04-22T12:08:58.656Z</time></trkpt><trkpt lat="40.0881939" lon="9.4223981"><ele>1283.0</ele><time>2026-04-22T12:10:53.649Z</time></trkpt><trkpt lat="40.0881241" lon="9.4223631"><ele>1283.0</ele><time>2026-04-22T12:10:54.659Z</time></trkpt><trkpt lat="40.0880468" lon="9.4223267"><ele>1283.0</ele><time>2026-04-22T12:10:55.654Z</time></trkpt><trkpt lat="40.0879716" lon="9.4222838"><ele>1283.0</ele><time>2026-04-22T12:10:56.654Z</time></trkpt><trkpt lat="40.0879089" lon="9.4222189"><ele>1283.5</ele><time>2026-04-22T12:10:57.657Z</time></trkpt><trkpt lat="40.0878583" lon="9.4221455"><ele>1284.0</ele><time>2026-04-22T12:10:58.658Z</time></trkpt><trkpt lat="40.0877986" lon="9.4220692"><ele>1284.5</ele><time>2026-04-22T12:10:59.658Z</time></trkpt><trkpt lat="40.0877383" lon="9.422001"><ele>1285.0</ele><time>2026-04-22T12:11:00.658Z</time></trkpt><trkpt lat="40.0876807" lon="9.4219396"><ele>1285.5</ele><time>2026-04-22T12:11:01.651Z</time></trkpt><trkpt lat="40.0876207" lon="9.4218881"><ele>1286.0</ele><time>2026-04-22T12:11:02.659Z</time></trkpt><trkpt lat="40.0875624" lon="9.4218421"><ele>1286.0</ele><time>2026-04-22T12:11:03.659Z</time></trkpt><trkpt lat="40.0875059" lon="9.4217995"><ele>1286.0</ele><time>2026-04-22T12:11:04.664Z</time></trkpt><trkpt lat="40.0874425" lon="9.4217506"><ele>1286.0</ele><time>2026-04-22T12:11:05.659Z</time></trkpt><trkpt lat="40.0873787" lon="9.4217186"><ele>1286.0</ele><time>2026-04-22T12:11:06.657Z</time></trkpt><trkpt lat="40.0873022" lon="9.4216986"><ele>1286.0</ele><time>2026-04-22T12:11:07.656Z</time></trkpt><trkpt lat="40.0872259" lon="9.4216875"><ele>1286.0</ele><time>2026-04-22T12:11:08.658Z</time></trkpt><trkpt lat="40.0871471" lon="9.4216824"><ele>1286.0</ele><time>2026-04-22T12:11:09.662Z</time></trkpt><trkpt lat="40.0870563" lon="9.4216923"><ele>1286.6666666666667</ele><time>2026-04-22T12:11:10.665Z</time></trkpt><trkpt lat="40.0869785" lon="9.4217057"><ele>1287.3333333333335</ele><time>2026-04-22T12:11:11.655Z</time></trkpt><trkpt lat="40.0868954" lon="9.421716"><ele>1288.0</ele><time>2026-04-22T12:11:12.655Z</time></trkpt><trkpt lat="40.0868107" lon="9.4217236"><ele>1288.6666666666667</ele><time>2026-04-22T12:11:13.655Z</time></trkpt><trkpt lat="40.0867334" lon="9.4217237"><ele>1289.3333333333333</ele><time>2026-04-22T12:11:14.658Z</time></trkpt><trkpt lat="40.0866491" lon="9.4217292"><ele>1290.0</ele><time>2026-04-22T12:11:15.654Z</time></trkpt><trkpt lat="40.0865616" lon="9.4217356"><ele>1290.8333333333333</ele><time>2026-04-22T12:11:16.66Z</time></trkpt><trkpt lat="40.0864736" lon="9.421752"><ele>1291.6666666666667</ele><time>2026-04-22T12:11:17.663Z</time></trkpt><trkpt lat="40.0863935" lon="9.4217711"><ele>1292.5</ele><time>2026-04-22T12:11:18.654Z</time></trkpt><trkpt lat="40.0863119" lon="9.421789"><ele>1293.3333333333335</ele><time>2026-04-22T12:11:19.652Z</time></trkpt><trkpt lat="40.0862339" lon="9.421796"><ele>1294.1666666666667</ele><time>2026-04-22T12:11:20.655Z</time></trkpt><trkpt lat="40.0861541" lon="9.4217854"><ele>1295.0</ele><time>2026-04-22T12:11:21.651Z</time></trkpt><trkpt lat="40.0860799" lon="9.4217731"><ele>1295.0</ele><time>2026-04-22T12:11:22.652Z</time></trkpt><trkpt lat="40.0859955" lon="9.4217708"><ele>1295.0</ele><time>2026-04-22T12:11:23.655Z</time></trkpt><trkpt lat="40.0859247" lon="9.4217562"><ele>1295.0</ele><time>2026-04-22T12:11:24.652Z</time></trkpt><trkpt lat="40.0858637" lon="9.4217316"><ele>1295.0</ele><time>2026-04-22T12:11:25.645Z</time></trkpt><trkpt lat="40.0857587" lon="9.421647"><ele>1295.0</ele><time>2026-04-22T12:11:27.64Z</time></trkpt><trkpt lat="40.0857204" lon="9.421566"><ele>1295.0</ele><time>2026-04-22T12:11:28.648Z</time></trkpt><trkpt lat="40.0856812" lon="9.4214666"><ele>1296.0</ele><time>2026-04-22T12:11:29.647Z</time></trkpt><trkpt lat="40.0856346" lon="9.4213804"><ele>1297.0</ele><time>2026-04-22T12:11:30.653Z</time></trkpt><trkpt lat="40.0855887" lon="9.4212811"><ele>1298.0</ele><time>2026-04-22T12:11:31.658Z</time></trkpt><trkpt lat="40.0855402" lon="9.4211825"><ele>1299.0</ele><time>2026-04-22T12:11:32.655Z</time></trkpt><trkpt lat="40.0854896" lon="9.4210714"><ele>1300.0</ele><time>2026-04-22T12:11:33.656Z</time></trkpt><trkpt lat="40.0854248" lon="9.4209675"><ele>1300.0</ele><time>2026-04-22T12:11:34.653Z</time></trkpt><trkpt lat="40.0853534" lon="9.4208649"><ele>1300.0</ele><time>2026-04-22T12:11:35.65Z</time></trkpt><trkpt lat="40.0852752" lon="9.4207745"><ele>1300.0</ele><time>2026-04-22T12:11:36.648Z</time></trkpt><trkpt lat="40.0851917" lon="9.4206918"><ele>1300.0</ele><time>2026-04-22T12:11:37.649Z</time></trkpt><trkpt lat="40.0851084" lon="9.4206133"><ele>1300.0</ele><time>2026-04-22T12:11:38.653Z</time></trkpt><trkpt lat="40.0850256" lon="9.4205295"><ele>1300.8</ele><time>2026-04-22T12:11:39.652Z</time></trkpt><trkpt lat="40.0849395" lon="9.4204474"><ele>1301.6</ele><time>2026-04-22T12:11:40.65Z</time></trkpt><trkpt lat="40.0848474" lon="9.420376"><ele>1302.4</ele><time>2026-04-22T12:11:41.653Z</time></trkpt><trkpt lat="40.0847661" lon="9.4202959"><ele>1303.2</ele><time>2026-04-22T12:11:42.653Z</time></trkpt><trkpt lat="40.0846934" lon="9.4202222"><ele>1304.0</ele><time>2026-04-22T12:11:43.655Z</time></trkpt><trkpt lat="40.0846209" lon="9.420158"><ele>1305.1666666666667</ele><time>2026-04-22T12:11:44.648Z</time></trkpt><trkpt lat="40.0845466" lon="9.420122"><ele>1306.3333333333335</ele><time>2026-04-22T12:11:45.645Z</time></trkpt><trkpt lat="40.0844611" lon="9.4201248"><ele>1307.5</ele><time>2026-04-22T12:11:46.656Z</time></trkpt><trkpt lat="40.084372" lon="9.4201356"><ele>1308.6666666666667</ele><time>2026-04-22T12:11:47.662Z</time></trkpt><trkpt lat="40.0842765" lon="9.4201432"><ele>1309.8333333333333</ele><time>2026-04-22T12:11:48.667Z</time></trkpt><trkpt lat="40.0841819" lon="9.4201531"><ele>1311.0</ele><time>2026-04-22T12:11:49.649Z</time></trkpt><trkpt lat="40.08411" lon="9.420165"><ele>1311.3333333333333</ele><time>2026-04-22T12:11:50.658Z</time></trkpt><trkpt lat="40.0840343" lon="9.4201645"><ele>1311.6666666666667</ele><time>2026-04-22T12:11:52.649Z</time></trkpt><trkpt lat="40.083993" lon="9.420053"><ele>1312.0</ele><time>2026-04-22T12:11:54.651Z</time></trkpt><trkpt lat="40.0839825" lon="9.4199669"><ele>1312.3333333333335</ele><time>2026-04-22T12:11:55.634Z</time></trkpt><trkpt lat="40.0839849" lon="9.4198619"><ele>1312.6666666666667</ele><time>2026-04-22T12:11:56.65Z</time></trkpt><trkpt lat="40.0839902" lon="9.4197257"><ele>1313.0</ele><time>2026-04-22T12:11:57.655Z</time></trkpt><trkpt lat="40.084004" lon="9.41959"><ele>1311.6000000000001</ele><time>2026-04-22T12:11:58.66Z</time></trkpt><trkpt lat="40.0840038" lon="9.4194538"><ele>1310.2</ele><time>2026-04-22T12:11:59.655Z</time></trkpt><trkpt lat="40.0840148" lon="9.4193096"><ele>1308.8</ele><time>2026-04-22T12:12:00.65Z</time></trkpt><trkpt lat="40.0840259" lon="9.4191848"><ele>1307.4</ele><time>2026-04-22T12:12:01.646Z</time></trkpt><trkpt lat="40.0840299" lon="9.4190571"><ele>1306.0</ele><time>2026-04-22T12:12:02.648Z</time></trkpt><trkpt lat="40.0840273" lon="9.4189327"><ele>1306.4</ele><time>2026-04-22T12:12:03.653Z</time></trkpt><trkpt lat="40.0840297" lon="9.4188089"><ele>1306.8</ele><time>2026-04-22T12:12:04.654Z</time></trkpt><trkpt lat="40.0840442" lon="9.4186849"><ele>1307.2</ele><time>2026-04-22T12:12:05.657Z</time></trkpt><trkpt lat="40.0840715" lon="9.4185452"><ele>1307.6000000000001</ele><time>2026-04-22T12:12:06.658Z</time></trkpt><trkpt lat="40.084094" lon="9.4184164"><ele>1308.0</ele><time>2026-04-22T12:12:07.663Z</time></trkpt><trkpt lat="40.0841053" lon="9.4182922"><ele>1308.0</ele><time>2026-04-22T12:12:08.656Z</time></trkpt><trkpt lat="40.0841151" lon="9.4181818"><ele>1308.0</ele><time>2026-04-22T12:12:09.659Z</time></trkpt><trkpt lat="40.084135" lon="9.4180831"><ele>1308.0</ele><time>2026-04-22T12:12:10.647Z</time></trkpt><trkpt lat="40.084172" lon="9.4179944"><ele>1308.0</ele><time>2026-04-22T12:12:11.651Z</time></trkpt><trkpt lat="40.0842349" lon="9.4179171"><ele>1308.0</ele><time>2026-04-22T12:12:12.657Z</time></trkpt><trkpt lat="40.0842958" lon="9.4178339"><ele>1308.0</ele><time>2026-04-22T12:12:13.655Z</time></trkpt><trkpt lat="40.084343" lon="9.4177522"><ele>1308.0</ele><time>2026-04-22T12:12:14.658Z</time></trkpt><trkpt lat="40.0843876" lon="9.4176755"><ele>1308.0</ele><time>2026-04-22T12:12:15.663Z</time></trkpt><trkpt lat="40.0844324" lon="9.4176086"><ele>1308.0</ele><time>2026-04-22T12:12:16.667Z</time></trkpt><trkpt lat="40.0844698" lon="9.4175405"><ele>1308.0</ele><time>2026-04-22T12:12:17.661Z</time></trkpt><trkpt lat="40.0845143" lon="9.4173919"><ele>1308.0</ele><time>2026-04-22T12:12:19.647Z</time></trkpt><trkpt lat="40.0845063" lon="9.4172927"><ele>1308.0</ele><time>2026-04-22T12:12:20.652Z</time></trkpt><trkpt lat="40.0844781" lon="9.4171836"><ele>1307.5</ele><time>2026-04-22T12:12:21.656Z</time></trkpt><trkpt lat="40.0844564" lon="9.4170837"><ele>1307.0</ele><time>2026-04-22T12:12:22.654Z</time></trkpt><trkpt lat="40.0844297" lon="9.4169838"><ele>1306.5</ele><time>2026-04-22T12:12:23.656Z</time></trkpt><trkpt lat="40.0843919" lon="9.4168767"><ele>1306.0</ele><time>2026-04-22T12:12:24.655Z</time></trkpt><trkpt lat="40.0843453" lon="9.4167781"><ele>1305.5</ele><time>2026-04-22T12:12:25.658Z</time></trkpt><trkpt lat="40.0842977" lon="9.4166873"><ele>1305.0</ele><time>2026-04-22T12:12:26.657Z</time></trkpt><trkpt lat="40.0842491" lon="9.4165994"><ele>1305.0</ele><time>2026-04-22T12:12:27.662Z</time></trkpt><trkpt lat="40.0842005" lon="9.4165139"><ele>1305.0</ele><time>2026-04-22T12:12:28.662Z</time></trkpt><trkpt lat="40.084146" lon="9.4164409"><ele>1305.0</ele><time>2026-04-22T12:12:29.664Z</time></trkpt><trkpt lat="40.0840994" lon="9.4163724"><ele>1305.0</ele><time>2026-04-22T12:12:30.653Z</time></trkpt><trkpt lat="40.084065" lon="9.4162794"><ele>1305.0</ele><time>2026-04-22T12:12:31.651Z</time></trkpt><trkpt lat="40.0840339" lon="9.416177"><ele>1305.0</ele><time>2026-04-22T12:12:32.653Z</time></trkpt><trkpt lat="40.0840103" lon="9.4160734"><ele>1305.6666666666667</ele><time>2026-04-22T12:12:33.653Z</time></trkpt><trkpt lat="40.0839828" lon="9.4159758"><ele>1306.3333333333333</ele><time>2026-04-22T12:12:34.651Z</time></trkpt><trkpt lat="40.0839633" lon="9.4158733"><ele>1307.0</ele><time>2026-04-22T12:12:35.647Z</time></trkpt><trkpt lat="40.0839601" lon="9.4157623"><ele>1307.6666666666665</ele><time>2026-04-22T12:12:36.644Z</time></trkpt><trkpt lat="40.0839653" lon="9.4156417"><ele>1308.3333333333333</ele><time>2026-04-22T12:12:37.647Z</time></trkpt><trkpt lat="40.0839806" lon="9.4155129"><ele>1309.0</ele><time>2026-04-22T12:12:38.652Z</time></trkpt><trkpt lat="40.0840081" lon="9.4153896"><ele>1309.0</ele><time>2026-04-22T12:12:39.652Z</time></trkpt><trkpt lat="40.0840406" lon="9.4152811"><ele>1309.0</ele><time>2026-04-22T12:12:40.649Z</time></trkpt><trkpt lat="40.0840703" lon="9.4151701"><ele>1309.0</ele><time>2026-04-22T12:12:41.651Z</time></trkpt><trkpt lat="40.0840934" lon="9.415064"><ele>1309.0</ele><time>2026-04-22T12:12:42.656Z</time></trkpt><trkpt lat="40.0841183" lon="9.4149835"><ele>1309.0</ele><time>2026-04-22T12:12:43.656Z</time></trkpt><trkpt lat="40.0841547" lon="9.4149148"><ele>1309.0</ele><time>2026-04-22T12:12:44.644Z</time></trkpt><trkpt lat="40.0842485" lon="9.4148522"><ele>1309.3333333333333</ele><time>2026-04-22T12:12:46.65Z</time></trkpt><trkpt lat="40.0843116" lon="9.4148555"><ele>1309.6666666666665</ele><time>2026-04-22T12:12:47.654Z</time></trkpt><trkpt lat="40.084386" lon="9.414874"><ele>1310.0</ele><time>2026-04-22T12:12:48.647Z</time></trkpt><trkpt lat="40.0844717" lon="9.4149055"><ele>1310.3333333333333</ele><time>2026-04-22T12:12:49.656Z</time></trkpt><trkpt lat="40.0845497" lon="9.414928"><ele>1310.6666666666667</ele><time>2026-04-22T12:12:50.657Z</time></trkpt><trkpt lat="40.0846289" lon="9.4149665"><ele>1311.0</ele><time>2026-04-22T12:12:51.657Z</time></trkpt><trkpt lat="40.0846999" lon="9.4150054"><ele>1311.0</ele><time>2026-04-22T12:12:52.66Z</time></trkpt><trkpt lat="40.0847743" lon="9.4150396"><ele>1311.0</ele><time>2026-04-22T12:12:53.647Z</time></trkpt><trkpt lat="40.0848358" lon="9.4150761"><ele>1311.0</ele><time>2026-04-22T12:12:54.653Z</time></trkpt><trkpt lat="40.084915" lon="9.4151218"><ele>1311.0</ele><time>2026-04-22T12:12:56.654Z</time></trkpt><trkpt lat="40.0849812" lon="9.4150664"><ele>1311.0</ele><time>2026-04-22T12:12:58.656Z</time></trkpt><trkpt lat="40.0850223" lon="9.4149696"><ele>1311.0</ele><time>2026-04-22T12:13:16.656Z</time></trkpt><trkpt lat="40.0850697" lon="9.4149011"><ele>1310.0</ele><time>2026-04-22T12:13:18.667Z</time></trkpt><trkpt lat="40.0851308" lon="9.4148245"><ele>1309.0</ele><time>2026-04-22T12:13:20.657Z</time></trkpt><trkpt lat="40.0851629" lon="9.4147433"><ele>1308.0</ele><time>2026-04-22T12:13:22.661Z</time></trkpt><trkpt lat="40.0851586" lon="9.4146457"><ele>1307.0</ele><time>2026-04-22T12:13:24.659Z</time></trkpt><trkpt lat="40.0851544" lon="9.4145526"><ele>1306.0</ele><time>2026-04-22T12:13:26.651Z</time></trkpt><trkpt lat="40.0852387" lon="9.4144982"><ele>1305.0</ele><time>2026-04-22T12:13:29.661Z</time></trkpt><trkpt lat="40.0853562" lon="9.4145406"><ele>1304.142857142857</ele><time>2026-04-22T12:13:31.651Z</time></trkpt><trkpt lat="40.0854165" lon="9.414567"><ele>1303.2857142857142</ele><time>2026-04-22T12:13:32.651Z</time></trkpt><trkpt lat="40.085483" lon="9.4145922"><ele>1302.4285714285716</ele><time>2026-04-22T12:13:33.652Z</time></trkpt><trkpt lat="40.0855497" lon="9.4146042"><ele>1301.5714285714284</ele><time>2026-04-22T12:13:34.652Z</time></trkpt><trkpt lat="40.0856228" lon="9.4146169"><ele>1300.7142857142858</ele><time>2026-04-22T12:13:35.652Z</time></trkpt><trkpt lat="40.0856936" lon="9.4146442"><ele>1299.857142857143</ele><time>2026-04-22T12:13:36.653Z</time></trkpt><trkpt lat="40.0857716" lon="9.4146704"><ele>1299.0</ele><time>2026-04-22T12:13:37.656Z</time></trkpt><trkpt lat="40.0858395" lon="9.4146918"><ele>1299.0</ele><time>2026-04-22T12:13:38.658Z</time></trkpt><trkpt lat="40.0859136" lon="9.4147063"><ele>1299.0</ele><time>2026-04-22T12:13:39.654Z</time></trkpt><trkpt lat="40.0859828" lon="9.4147155"><ele>1299.0</ele><time>2026-04-22T12:13:40.654Z</time></trkpt><trkpt lat="40.0861037" lon="9.4147175"><ele>1299.0</ele><time>2026-04-22T12:13:42.646Z</time></trkpt><trkpt lat="40.0862309" lon="9.4146743"><ele>1299.0</ele><time>2026-04-22T12:13:44.648Z</time></trkpt><trkpt lat="40.0862966" lon="9.4146346"><ele>1297.3333333333333</ele><time>2026-04-22T12:13:45.65Z</time></trkpt><trkpt lat="40.0863655" lon="9.4145979"><ele>1295.6666666666667</ele><time>2026-04-22T12:13:46.648Z</time></trkpt><trkpt lat="40.08644" lon="9.4145599"><ele>1294.0</ele><time>2026-04-22T12:13:47.645Z</time></trkpt><trkpt lat="40.0865162" lon="9.4145372"><ele>1292.3333333333335</ele><time>2026-04-22T12:13:48.651Z</time></trkpt><trkpt lat="40.0865968" lon="9.4145172"><ele>1290.6666666666667</ele><time>2026-04-22T12:13:49.641Z</time></trkpt><trkpt lat="40.0866759" lon="9.4145043"><ele>1289.0</ele><time>2026-04-22T12:13:50.647Z</time></trkpt><trkpt lat="40.0867531" lon="9.4144921"><ele>1288.0</ele><time>2026-04-22T12:13:51.648Z</time></trkpt><trkpt lat="40.0868247" lon="9.4144726"><ele>1287.0</ele><time>2026-04-22T12:13:52.648Z</time></trkpt><trkpt lat="40.0868916" lon="9.414458"><ele>1286.0</ele><time>2026-04-22T12:13:53.648Z</time></trkpt><trkpt lat="40.0869819" lon="9.4144497"><ele>1285.0</ele><time>2026-04-22T12:13:55.641Z</time></trkpt><trkpt lat="40.0870101" lon="9.4143575"><ele>1284.0</ele><time>2026-04-22T12:13:59.647Z</time></trkpt><trkpt lat="40.0869439" lon="9.4142924"><ele>1283.0</ele><time>2026-04-22T12:14:01.654Z</time></trkpt><trkpt lat="40.0868272" lon="9.4142444"><ele>1283.0</ele><time>2026-04-22T12:14:03.651Z</time></trkpt><trkpt lat="40.0867616" lon="9.4142282"><ele>1283.0</ele><time>2026-04-22T12:14:04.659Z</time></trkpt><trkpt lat="40.0866995" lon="9.4141963"><ele>1283.0</ele><time>2026-04-22T12:14:05.646Z</time></trkpt><trkpt lat="40.0865834" lon="9.4141297"><ele>1283.0</ele><time>2026-04-22T12:14:07.645Z</time></trkpt><trkpt lat="40.0864745" lon="9.4140664"><ele>1283.0</ele><time>2026-04-22T12:14:09.644Z</time></trkpt><trkpt lat="40.0863693" lon="9.4139923"><ele>1284.5</ele><time>2026-04-22T12:14:11.648Z</time></trkpt><trkpt lat="40.0862713" lon="9.4139507"><ele>1286.0</ele><time>2026-04-22T12:14:13.655Z</time></trkpt><trkpt lat="40.0861958" lon="9.4138667"><ele>1287.5</ele><time>2026-04-22T12:14:15.646Z</time></trkpt><trkpt lat="40.0861434" lon="9.4137193"><ele>1289.0</ele><time>2026-04-22T12:14:17.636Z</time></trkpt><trkpt lat="40.0860949" lon="9.4135692"><ele>1287.6666666666667</ele><time>2026-04-22T12:14:19.646Z</time></trkpt><trkpt lat="40.0860495" lon="9.4134499"><ele>1286.3333333333335</ele><time>2026-04-22T12:14:21.64Z</time></trkpt><trkpt lat="40.0859783" lon="9.4133292"><ele>1285.0</ele><time>2026-04-22T12:14:23.647Z</time></trkpt><trkpt lat="40.0859323" lon="9.4132718"><ele>1283.6666666666667</ele><time>2026-04-22T12:14:24.649Z</time></trkpt><trkpt lat="40.0858815" lon="9.4132196"><ele>1282.3333333333333</ele><time>2026-04-22T12:14:25.651Z</time></trkpt><trkpt lat="40.0858249" lon="9.4131763"><ele>1281.0</ele><time>2026-04-22T12:14:26.645Z</time></trkpt><trkpt lat="40.0857269" lon="9.4131104"><ele>1281.0</ele><time>2026-04-22T12:14:28.647Z</time></trkpt><trkpt lat="40.0856237" lon="9.4130288"><ele>1281.0</ele><time>2026-04-22T12:14:30.645Z</time></trkpt><trkpt lat="40.0855341" lon="9.4129347"><ele>1281.0</ele><time>2026-04-22T12:14:32.644Z</time></trkpt><trkpt lat="40.0854311" lon="9.4128595"><ele>1281.0</ele><time>2026-04-22T12:14:34.646Z</time></trkpt><trkpt lat="40.0853381" lon="9.4127828"><ele>1276.6666666666667</ele><time>2026-04-22T12:14:36.66Z</time></trkpt><trkpt lat="40.0852441" lon="9.4127072"><ele>1272.3333333333333</ele><time>2026-04-22T12:14:38.647Z</time></trkpt><trkpt lat="40.0851599" lon="9.4126425"><ele>1268.0</ele><time>2026-04-22T12:14:40.648Z</time></trkpt><trkpt lat="40.0850871" lon="9.4125846"><ele>1263.6666666666665</ele><time>2026-04-22T12:14:42.647Z</time></trkpt><trkpt lat="40.0850203" lon="9.4125391"><ele>1259.3333333333333</ele><time>2026-04-22T12:14:44.647Z</time></trkpt><trkpt lat="40.0849617" lon="9.4125019"><ele>1255.0</ele><time>2026-04-22T12:14:46.652Z</time></trkpt><trkpt lat="40.0849405" lon="9.4124139"><ele>1255.0</ele><time>2026-04-22T12:14:49.646Z</time></trkpt><trkpt lat="40.0850066" lon="9.4123949"><ele>1255.0</ele><time>2026-04-22T12:14:51.643Z</time></trkpt><trkpt lat="40.0851115" lon="9.4123839"><ele>1255.0</ele><time>2026-04-22T12:14:53.653Z</time></trkpt><trkpt lat="40.0851772" lon="9.4123688"><ele>1255.0</ele><time>2026-04-22T12:14:54.651Z</time></trkpt><trkpt lat="40.0853047" lon="9.4123404"><ele>1255.0</ele><time>2026-04-22T12:14:56.657Z</time></trkpt><trkpt lat="40.0854145" lon="9.4122951"><ele>1255.0</ele><time>2026-04-22T12:14:58.663Z</time></trkpt><trkpt lat="40.0855333" lon="9.41225"><ele>1255.0</ele><time>2026-04-22T12:15:00.657Z</time></trkpt><trkpt lat="40.0856439" lon="9.412225"><ele>1255.0</ele><time>2026-04-22T12:15:02.653Z</time></trkpt><trkpt lat="40.085769" lon="9.412199"><ele>1255.0</ele><time>2026-04-22T12:15:04.647Z</time></trkpt><trkpt lat="40.0858896" lon="9.412188"><ele>1253.0</ele><time>2026-04-22T12:15:06.648Z</time></trkpt><trkpt lat="40.0860048" lon="9.4121903"><ele>1251.0</ele><time>2026-04-22T12:15:08.646Z</time></trkpt><trkpt lat="40.0861283" lon="9.4122176"><ele>1249.0</ele><time>2026-04-22T12:15:10.645Z</time></trkpt><trkpt lat="40.0862441" lon="9.4122496"><ele>1247.0</ele><time>2026-04-22T12:15:12.64Z</time></trkpt><trkpt lat="40.0863613" lon="9.4122793"><ele>1247.0</ele><time>2026-04-22T12:15:14.637Z</time></trkpt><trkpt lat="40.0864315" lon="9.4123042"><ele>1247.0</ele><time>2026-04-22T12:15:15.643Z</time></trkpt><trkpt lat="40.0864981" lon="9.4123308"><ele>1247.0</ele><time>2026-04-22T12:15:16.641Z</time></trkpt><trkpt lat="40.0866025" lon="9.4123759"><ele>1247.0</ele><time>2026-04-22T12:15:18.64Z</time></trkpt><trkpt lat="40.0867177" lon="9.4124458"><ele>1247.0</ele><time>2026-04-22T12:15:20.642Z</time></trkpt><trkpt lat="40.0868155" lon="9.4125286"><ele>1244.8</ele><time>2026-04-22T12:15:22.648Z</time></trkpt><trkpt lat="40.0869228" lon="9.4125471"><ele>1242.6</ele><time>2026-04-22T12:15:24.629Z</time></trkpt><trkpt lat="40.0870108" lon="9.4124696"><ele>1240.3999999999999</ele><time>2026-04-22T12:15:26.637Z</time></trkpt><trkpt lat="40.0870698" lon="9.4124016"><ele>1238.2</ele><time>2026-04-22T12:15:27.645Z</time></trkpt><trkpt lat="40.0871284" lon="9.4123458"><ele>1236.0</ele><time>2026-04-22T12:15:28.644Z</time></trkpt><trkpt lat="40.0872429" lon="9.4122722"><ele>1236.0</ele><time>2026-04-22T12:15:30.641Z</time></trkpt><trkpt lat="40.0873484" lon="9.4121911"><ele>1236.0</ele><time>2026-04-22T12:15:32.647Z</time></trkpt><trkpt lat="40.0874545" lon="9.4121304"><ele>1236.0</ele><time>2026-04-22T12:15:34.652Z</time></trkpt><trkpt lat="40.0875121" lon="9.4120967"><ele>1236.0</ele><time>2026-04-22T12:15:35.65Z</time></trkpt><trkpt lat="40.0876251" lon="9.4120525"><ele>1236.0</ele><time>2026-04-22T12:15:37.648Z</time></trkpt><trkpt lat="40.0877351" lon="9.4120492"><ele>1231.5</ele><time>2026-04-22T12:15:39.646Z</time></trkpt><trkpt lat="40.0878555" lon="9.4120581"><ele>1227.0</ele><time>2026-04-22T12:15:41.636Z</time></trkpt><trkpt lat="40.0879238" lon="9.4120661"><ele>1222.5</ele><time>2026-04-22T12:15:42.646Z</time></trkpt><trkpt lat="40.0879955" lon="9.4120687"><ele>1218.0</ele><time>2026-04-22T12:15:43.647Z</time></trkpt><trkpt lat="40.0880854" lon="9.412072"><ele>1213.5</ele><time>2026-04-22T12:15:44.648Z</time></trkpt><trkpt lat="40.0881627" lon="9.4120646"><ele>1209.0</ele><time>2026-04-22T12:15:45.643Z</time></trkpt><trkpt lat="40.0882367" lon="9.4120612"><ele>1207.857142857143</ele><time>2026-04-22T12:15:46.643Z</time></trkpt><trkpt lat="40.0883059" lon="9.4120635"><ele>1206.7142857142858</ele><time>2026-04-22T12:15:47.649Z</time></trkpt><trkpt lat="40.0883764" lon="9.412054"><ele>1205.5714285714287</ele><time>2026-04-22T12:15:48.64Z</time></trkpt><trkpt lat="40.0884452" lon="9.4120493"><ele>1204.4285714285716</ele><time>2026-04-22T12:15:49.645Z</time></trkpt><trkpt lat="40.0885148" lon="9.4120354"><ele>1203.2857142857142</ele><time>2026-04-22T12:15:50.638Z</time></trkpt><trkpt lat="40.088578" lon="9.4120241"><ele>1202.1428571428573</ele><time>2026-04-22T12:15:51.638Z</time></trkpt><trkpt lat="40.0886436" lon="9.4120287"><ele>1201.0</ele><time>2026-04-22T12:15:52.637Z</time></trkpt><trkpt lat="40.0887099" lon="9.4120072"><ele>1201.0</ele><time>2026-04-22T12:15:53.634Z</time></trkpt><trkpt lat="40.0887732" lon="9.4119974"><ele>1201.0</ele><time>2026-04-22T12:15:54.635Z</time></trkpt><trkpt lat="40.0888923" lon="9.4119602"><ele>1201.0</ele><time>2026-04-22T12:15:56.635Z</time></trkpt><trkpt lat="40.0890006" lon="9.4119186"><ele>1201.0</ele><time>2026-04-22T12:15:58.646Z</time></trkpt><trkpt lat="40.0890913" lon="9.4118781"><ele>1201.0</ele><time>2026-04-22T12:16:00.651Z</time></trkpt><trkpt lat="40.0891755" lon="9.4117928"><ele>1199.2</ele><time>2026-04-22T12:16:02.656Z</time></trkpt><trkpt lat="40.0892516" lon="9.4117043"><ele>1197.3999999999999</ele><time>2026-04-22T12:16:04.658Z</time></trkpt><trkpt lat="40.0893318" lon="9.4116156"><ele>1195.6</ele><time>2026-04-22T12:16:06.651Z</time></trkpt><trkpt lat="40.0894179" lon="9.4115098"><ele>1193.8</ele><time>2026-04-22T12:16:08.654Z</time></trkpt><trkpt lat="40.0894703" lon="9.4114599"><ele>1192.0</ele><time>2026-04-22T12:16:09.654Z</time></trkpt><trkpt lat="40.0895754" lon="9.4113965"><ele>1192.0</ele><time>2026-04-22T12:16:11.65Z</time></trkpt><trkpt lat="40.0896928" lon="9.4113667"><ele>1192.0</ele><time>2026-04-22T12:16:13.654Z</time></trkpt><trkpt lat="40.089804" lon="9.4113209"><ele>1192.0</ele><time>2026-04-22T12:16:15.657Z</time></trkpt><trkpt lat="40.0898901" lon="9.4112843"><ele>1192.0</ele><time>2026-04-22T12:16:17.655Z</time></trkpt><trkpt lat="40.089944" lon="9.4112175"><ele>1192.0</ele><time>2026-04-22T12:16:19.65Z</time></trkpt><trkpt lat="40.0899637" lon="9.4110955"><ele>1189.0</ele><time>2026-04-22T12:16:21.639Z</time></trkpt><trkpt lat="40.0899181" lon="9.4109718"><ele>1186.0</ele><time>2026-04-22T12:16:23.641Z</time></trkpt><trkpt lat="40.0898329" lon="9.4108687"><ele>1183.0</ele><time>2026-04-22T12:16:25.643Z</time></trkpt><trkpt lat="40.08974" lon="9.4107568"><ele>1180.0</ele><time>2026-04-22T12:16:27.647Z</time></trkpt><trkpt lat="40.0896924" lon="9.4107005"><ele>1177.0</ele><time>2026-04-22T12:16:28.64Z</time></trkpt><trkpt lat="40.0895965" lon="9.4105866"><ele>1177.0</ele><time>2026-04-22T12:16:30.643Z</time></trkpt><trkpt lat="40.0895536" lon="9.4105257"><ele>1177.0</ele><time>2026-04-22T12:16:31.636Z</time></trkpt><trkpt lat="40.0894517" lon="9.4104423"><ele>1177.0</ele><time>2026-04-22T12:16:33.637Z</time></trkpt><trkpt lat="40.0893895" lon="9.4104075"><ele>1177.0</ele><time>2026-04-22T12:16:34.64Z</time></trkpt><trkpt lat="40.0892767" lon="9.410364"><ele>1177.0</ele><time>2026-04-22T12:16:36.636Z</time></trkpt><trkpt lat="40.0891697" lon="9.4103108"><ele>1177.3333333333333</ele><time>2026-04-22T12:16:38.637Z</time></trkpt><trkpt lat="40.0890758" lon="9.4103242"><ele>1177.6666666666665</ele><time>2026-04-22T12:16:40.625Z</time></trkpt><trkpt lat="40.0889663" lon="9.4104083"><ele>1178.0</ele><time>2026-04-22T12:16:42.641Z</time></trkpt><trkpt lat="40.0889062" lon="9.4104663"><ele>1178.3333333333333</ele><time>2026-04-22T12:16:43.646Z</time></trkpt><trkpt lat="40.0888464" lon="9.4105237"><ele>1178.6666666666667</ele><time>2026-04-22T12:16:44.639Z</time></trkpt><trkpt lat="40.0887801" lon="9.4105592"><ele>1179.0</ele><time>2026-04-22T12:16:45.639Z</time></trkpt><trkpt lat="40.0886677" lon="9.4106142"><ele>1179.0</ele><time>2026-04-22T12:16:47.643Z</time></trkpt><trkpt lat="40.0885511" lon="9.4106091"><ele>1179.0</ele><time>2026-04-22T12:16:49.634Z</time></trkpt><trkpt lat="40.0884856" lon="9.4105807"><ele>1179.0</ele><time>2026-04-22T12:16:50.632Z</time></trkpt><trkpt lat="40.0884117" lon="9.4105236"><ele>1179.0</ele><time>2026-04-22T12:16:51.638Z</time></trkpt><trkpt lat="40.0883429" lon="9.4104684"><ele>1179.0</ele><time>2026-04-22T12:16:52.63Z</time></trkpt><trkpt lat="40.08827" lon="9.4104082"><ele>1179.0</ele><time>2026-04-22T12:16:53.648Z</time></trkpt><trkpt lat="40.0881943" lon="9.4103559"><ele>1175.3333333333333</ele><time>2026-04-22T12:16:54.635Z</time></trkpt><trkpt lat="40.0881155" lon="9.4103065"><ele>1171.6666666666667</ele><time>2026-04-22T12:16:55.637Z</time></trkpt><trkpt lat="40.0880405" lon="9.4102707"><ele>1168.0</ele><time>2026-04-22T12:16:56.638Z</time></trkpt><trkpt lat="40.0879624" lon="9.4102285"><ele>1164.3333333333335</ele><time>2026-04-22T12:16:57.647Z</time></trkpt><trkpt lat="40.0878819" lon="9.4101989"><ele>1160.6666666666667</ele><time>2026-04-22T12:16:58.644Z</time></trkpt><trkpt lat="40.0878066" lon="9.4101715"><ele>1157.0</ele><time>2026-04-22T12:16:59.644Z</time></trkpt><trkpt lat="40.0877341" lon="9.4101515"><ele>1157.0</ele><time>2026-04-22T12:17:00.646Z</time></trkpt><trkpt lat="40.0876616" lon="9.4101437"><ele>1157.0</ele><time>2026-04-22T12:17:01.643Z</time></trkpt><trkpt lat="40.0875469" lon="9.4101553"><ele>1157.0</ele><time>2026-04-22T12:17:03.643Z</time></trkpt><trkpt lat="40.0874557" lon="9.4101876"><ele>1157.0</ele><time>2026-04-22T12:17:05.642Z</time></trkpt><trkpt lat="40.0873645" lon="9.4102951"><ele>1157.0</ele><time>2026-04-22T12:17:07.646Z</time></trkpt><trkpt lat="40.0873083" lon="9.4103646"><ele>1156.6666666666667</ele><time>2026-04-22T12:17:08.643Z</time></trkpt><trkpt lat="40.0872484" lon="9.4104303"><ele>1156.3333333333335</ele><time>2026-04-22T12:17:09.64Z</time></trkpt><trkpt lat="40.0871904" lon="9.4105035"><ele>1156.0</ele><time>2026-04-22T12:17:10.645Z</time></trkpt><trkpt lat="40.0871371" lon="9.410567"><ele>1155.6666666666667</ele><time>2026-04-22T12:17:11.642Z</time></trkpt><trkpt lat="40.0870836" lon="9.4106357"><ele>1155.3333333333333</ele><time>2026-04-22T12:17:12.645Z</time></trkpt><trkpt lat="40.0870419" lon="9.4107069"><ele>1155.0</ele><time>2026-04-22T12:17:13.649Z</time></trkpt><trkpt lat="40.0869989" lon="9.4107902"><ele>1158.857142857143</ele><time>2026-04-22T12:17:14.641Z</time></trkpt><trkpt lat="40.0869629" lon="9.4108714"><ele>1162.7142857142858</ele><time>2026-04-22T12:17:15.65Z</time></trkpt><trkpt lat="40.086929" lon="9.4109458"><ele>1166.5714285714284</ele><time>2026-04-22T12:17:16.645Z</time></trkpt><trkpt lat="40.0868699" lon="9.4110188"><ele>1170.4285714285716</ele><time>2026-04-22T12:17:18.642Z</time></trkpt><trkpt lat="40.0867852" lon="9.4109978"><ele>1174.2857142857142</ele><time>2026-04-22T12:17:20.633Z</time></trkpt><trkpt lat="40.0867281" lon="9.4109555"><ele>1178.142857142857</ele><time>2026-04-22T12:17:21.641Z</time></trkpt><trkpt lat="40.0866605" lon="9.4109203"><ele>1182.0</ele><time>2026-04-22T12:17:22.632Z</time></trkpt><trkpt lat="40.0865881" lon="9.4108767"><ele>1184.1666666666667</ele><time>2026-04-22T12:17:23.636Z</time></trkpt><trkpt lat="40.0865111" lon="9.4108581"><ele>1186.3333333333333</ele><time>2026-04-22T12:17:24.633Z</time></trkpt><trkpt lat="40.086422" lon="9.4108514"><ele>1188.5</ele><time>2026-04-22T12:17:25.636Z</time></trkpt><trkpt lat="40.0863309" lon="9.410856"><ele>1190.6666666666665</ele><time>2026-04-22T12:17:26.641Z</time></trkpt><trkpt lat="40.0862481" lon="9.4108632"><ele>1192.8333333333333</ele><time>2026-04-22T12:17:27.64Z</time></trkpt><trkpt lat="40.0861608" lon="9.4108536"><ele>1195.0</ele><time>2026-04-22T12:17:28.639Z</time></trkpt><trkpt lat="40.0860864" lon="9.4108296"><ele>1195.0</ele><time>2026-04-22T12:17:29.637Z</time></trkpt><trkpt lat="40.0860128" lon="9.4107936"><ele>1195.0</ele><time>2026-04-22T12:17:30.645Z</time></trkpt><trkpt lat="40.0859333" lon="9.4107488"><ele>1195.0</ele><time>2026-04-22T12:17:31.637Z</time></trkpt><trkpt lat="40.0858622" lon="9.4106932"><ele>1195.0</ele><time>2026-04-22T12:17:32.647Z</time></trkpt><trkpt lat="40.0857927" lon="9.4106486"><ele>1195.0</ele><time>2026-04-22T12:17:33.638Z</time></trkpt><trkpt lat="40.0857201" lon="9.4106083"><ele>1195.0</ele><time>2026-04-22T12:17:34.641Z</time></trkpt><trkpt lat="40.0856397" lon="9.410582"><ele>1194.5</ele><time>2026-04-22T12:17:35.647Z</time></trkpt><trkpt lat="40.0855583" lon="9.4105527"><ele>1194.0</ele><time>2026-04-22T12:17:36.642Z</time></trkpt><trkpt lat="40.0854737" lon="9.4105325"><ele>1193.5</ele><time>2026-04-22T12:17:37.644Z</time></trkpt><trkpt lat="40.0854046" lon="9.4105028"><ele>1193.0</ele><time>2026-04-22T12:17:38.636Z</time></trkpt><trkpt lat="40.0853463" lon="9.4104688"><ele>1192.5</ele><time>2026-04-22T12:17:39.635Z</time></trkpt><trkpt lat="40.0852745" lon="9.4103271"><ele>1192.0</ele><time>2026-04-22T12:17:41.63Z</time></trkpt><trkpt lat="40.0852457" lon="9.4102257"><ele>1192.0</ele><time>2026-04-22T12:17:42.636Z</time></trkpt><trkpt lat="40.0852251" lon="9.4101291"><ele>1192.0</ele><time>2026-04-22T12:17:43.642Z</time></trkpt><trkpt lat="40.0852071" lon="9.4100301"><ele>1192.0</ele><time>2026-04-22T12:17:44.636Z</time></trkpt><trkpt lat="40.0851899" lon="9.4099393"><ele>1192.0</ele><time>2026-04-22T12:17:45.639Z</time></trkpt><trkpt lat="40.0851769" lon="9.409855"><ele>1192.0</ele><time>2026-04-22T12:17:46.635Z</time></trkpt><trkpt lat="40.0851391" lon="9.4096951"><ele>1192.0</ele><time>2026-04-22T12:17:48.639Z</time></trkpt><trkpt lat="40.0850777" lon="9.4095589"><ele>1187.75</ele><time>2026-04-22T12:17:50.637Z</time></trkpt><trkpt lat="40.0850227" lon="9.4094035"><ele>1183.5</ele><time>2026-04-22T12:17:52.645Z</time></trkpt><trkpt lat="40.0849635" lon="9.4092748"><ele>1179.25</ele><time>2026-04-22T12:17:54.647Z</time></trkpt><trkpt lat="40.0849191" lon="9.409137"><ele>1175.0</ele><time>2026-04-22T12:17:56.651Z</time></trkpt><trkpt lat="40.084847" lon="9.4090438"><ele>1172.6</ele><time>2026-04-22T12:17:58.642Z</time></trkpt><trkpt lat="40.0847569" lon="9.4090166"><ele>1170.2</ele><time>2026-04-22T12:18:00.642Z</time></trkpt><trkpt lat="40.0846551" lon="9.4090563"><ele>1167.8</ele><time>2026-04-22T12:18:02.65Z</time></trkpt><trkpt lat="40.0845559" lon="9.4091441"><ele>1165.4</ele><time>2026-04-22T12:18:04.648Z</time></trkpt><trkpt lat="40.084511" lon="9.4092175"><ele>1163.0</ele><time>2026-04-22T12:18:05.638Z</time></trkpt><trkpt lat="40.0844633" lon="9.4093022"><ele>1163.0</ele><time>2026-04-22T12:18:06.646Z</time></trkpt><trkpt lat="40.0844108" lon="9.4093765"><ele>1163.0</ele><time>2026-04-22T12:18:07.641Z</time></trkpt><trkpt lat="40.0843517" lon="9.4094601"><ele>1163.0</ele><time>2026-04-22T12:18:08.644Z</time></trkpt><trkpt lat="40.0842974" lon="9.4095466"><ele>1163.0</ele><time>2026-04-22T12:18:09.637Z</time></trkpt><trkpt lat="40.0842553" lon="9.4096254"><ele>1163.0</ele><time>2026-04-22T12:18:10.634Z</time></trkpt><trkpt lat="40.0841585" lon="9.409703"><ele>1163.0</ele><time>2026-04-22T12:18:12.637Z</time></trkpt><trkpt lat="40.0840742" lon="9.4097476"><ele>1163.6</ele><time>2026-04-22T12:18:14.646Z</time></trkpt><trkpt lat="40.0839743" lon="9.4098493"><ele>1164.1999999999998</ele><time>2026-04-22T12:18:16.64Z</time></trkpt><trkpt lat="40.0839094" lon="9.4099003"><ele>1164.8</ele><time>2026-04-22T12:18:17.638Z</time></trkpt><trkpt lat="40.0838317" lon="9.4099632"><ele>1165.3999999999999</ele><time>2026-04-22T12:18:18.643Z</time></trkpt><trkpt lat="40.0837643" lon="9.4100125"><ele>1166.0</ele><time>2026-04-22T12:18:19.636Z</time></trkpt><trkpt lat="40.0836521" lon="9.4100809"><ele>1166.0</ele><time>2026-04-22T12:18:21.633Z</time></trkpt><trkpt lat="40.0835811" lon="9.4101189"><ele>1166.0</ele><time>2026-04-22T12:18:22.636Z</time></trkpt><trkpt lat="40.0835065" lon="9.4101577"><ele>1166.0</ele><time>2026-04-22T12:18:23.646Z</time></trkpt><trkpt lat="40.0834357" lon="9.4102118"><ele>1166.0</ele><time>2026-04-22T12:18:24.636Z</time></trkpt><trkpt lat="40.0833711" lon="9.4102696"><ele>1166.0</ele><time>2026-04-22T12:18:25.635Z</time></trkpt><trkpt lat="40.0833151" lon="9.410311"><ele>1166.0</ele><time>2026-04-22T12:18:26.64Z</time></trkpt><trkpt lat="40.0832168" lon="9.4103828"><ele>1167.0</ele><time>2026-04-22T12:18:28.636Z</time></trkpt><trkpt lat="40.0830828" lon="9.4103846"><ele>1168.0</ele><time>2026-04-22T12:18:30.639Z</time></trkpt><trkpt lat="40.083009" lon="9.4103644"><ele>1169.0</ele><time>2026-04-22T12:18:31.643Z</time></trkpt><trkpt lat="40.0829367" lon="9.410351"><ele>1170.0</ele><time>2026-04-22T12:18:32.646Z</time></trkpt><trkpt lat="40.0828602" lon="9.4103453"><ele>1171.0</ele><time>2026-04-22T12:18:33.638Z</time></trkpt><trkpt lat="40.0827753" lon="9.4103533"><ele>1172.0</ele><time>2026-04-22T12:18:34.644Z</time></trkpt><trkpt lat="40.0826955" lon="9.4103659"><ele>1172.0</ele><time>2026-04-22T12:18:35.64Z</time></trkpt><trkpt lat="40.0826158" lon="9.410392"><ele>1172.0</ele><time>2026-04-22T12:18:36.636Z</time></trkpt><trkpt lat="40.0825372" lon="9.4104216"><ele>1172.0</ele><time>2026-04-22T12:18:37.637Z</time></trkpt><trkpt lat="40.082467" lon="9.41046"><ele>1172.0</ele><time>2026-04-22T12:18:38.636Z</time></trkpt><trkpt lat="40.0824048" lon="9.4105047"><ele>1172.0</ele><time>2026-04-22T12:18:39.639Z</time></trkpt><trkpt lat="40.0823324" lon="9.4105425"><ele>1172.0</ele><time>2026-04-22T12:18:41.626Z</time></trkpt><trkpt lat="40.0822763" lon="9.4104466"><ele>1176.1666666666667</ele><time>2026-04-22T12:18:43.616Z</time></trkpt><trkpt lat="40.0822408" lon="9.4103635"><ele>1180.3333333333335</ele><time>2026-04-22T12:18:44.634Z</time></trkpt><trkpt lat="40.0822177" lon="9.410257"><ele>1184.5</ele><time>2026-04-22T12:18:45.628Z</time></trkpt><trkpt lat="40.0821869" lon="9.4101421"><ele>1188.6666666666667</ele><time>2026-04-22T12:18:46.632Z</time></trkpt><trkpt lat="40.0821439" lon="9.4100302"><ele>1192.8333333333333</ele><time>2026-04-22T12:18:47.63Z</time></trkpt><trkpt lat="40.0820923" lon="9.4099422"><ele>1197.0</ele><time>2026-04-22T12:18:48.63Z</time></trkpt><trkpt lat="40.0820381" lon="9.4098506"><ele>1197.0</ele><time>2026-04-22T12:18:49.633Z</time></trkpt><trkpt lat="40.0819841" lon="9.4097493"><ele>1197.0</ele><time>2026-04-22T12:18:50.643Z</time></trkpt><trkpt lat="40.0819372" lon="9.4096522"><ele>1197.0</ele><time>2026-04-22T12:18:51.633Z</time></trkpt><trkpt lat="40.081896" lon="9.409554"><ele>1197.0</ele><time>2026-04-22T12:18:52.635Z</time></trkpt><trkpt lat="40.081859" lon="9.4094579"><ele>1197.0</ele><time>2026-04-22T12:18:53.633Z</time></trkpt><trkpt lat="40.081808" lon="9.4093885"><ele>1197.0</ele><time>2026-04-22T12:18:54.637Z</time></trkpt><trkpt lat="40.0817603" lon="9.4093193"><ele>1195.5</ele><time>2026-04-22T12:18:55.633Z</time></trkpt><trkpt lat="40.0817163" lon="9.4092519"><ele>1194.0</ele><time>2026-04-22T12:18:56.64Z</time></trkpt><trkpt lat="40.0816493" lon="9.4091488"><ele>1192.5</ele><time>2026-04-22T12:18:58.641Z</time></trkpt><trkpt lat="40.0816192" lon="9.4090648"><ele>1191.0</ele><time>2026-04-22T12:19:00.643Z</time></trkpt><trkpt lat="40.0815949" lon="9.4089822"><ele>1189.5</ele><time>2026-04-22T12:19:02.646Z</time></trkpt><trkpt lat="40.0815187" lon="9.408994"><ele>1188.0</ele><time>2026-04-22T12:19:05.647Z</time></trkpt><trkpt lat="40.0814542" lon="9.4090934"><ele>1188.0</ele><time>2026-04-22T12:19:07.635Z</time></trkpt><trkpt lat="40.0814075" lon="9.4091876"><ele>1188.0</ele><time>2026-04-22T12:19:09.64Z</time></trkpt><trkpt lat="40.0813376" lon="9.4092273"><ele>1188.0</ele><time>2026-04-22T12:19:11.627Z</time></trkpt><trkpt lat="40.0812224" lon="9.4091596"><ele>1188.0</ele><time>2026-04-22T12:19:13.632Z</time></trkpt><trkpt lat="40.0811552" lon="9.4091002"><ele>1188.0</ele><time>2026-04-22T12:19:14.631Z</time></trkpt><trkpt lat="40.0810855" lon="9.4090438"><ele>1188.0</ele><time>2026-04-22T12:19:15.629Z</time></trkpt><trkpt lat="40.0810247" lon="9.4089764"><ele>1188.0</ele><time>2026-04-22T12:19:16.63Z</time></trkpt><trkpt lat="40.0809672" lon="9.4089054"><ele>1188.0</ele><time>2026-04-22T12:19:17.634Z</time></trkpt><trkpt lat="40.0809167" lon="9.4088374"><ele>1188.0</ele><time>2026-04-22T12:19:18.634Z</time></trkpt><trkpt lat="40.0808662" lon="9.4087761"><ele>1188.0</ele><time>2026-04-22T12:19:19.633Z</time></trkpt><trkpt lat="40.080811" lon="9.4087303"><ele>1188.0</ele><time>2026-04-22T12:19:20.633Z</time></trkpt><trkpt lat="40.0807536" lon="9.40868"><ele>1188.0</ele><time>2026-04-22T12:19:21.635Z</time></trkpt><trkpt lat="40.0806855" lon="9.4086342"><ele>1187.3333333333333</ele><time>2026-04-22T12:19:22.637Z</time></trkpt><trkpt lat="40.0806134" lon="9.4086042"><ele>1186.6666666666667</ele><time>2026-04-22T12:19:23.632Z</time></trkpt><trkpt lat="40.0805439" lon="9.4085705"><ele>1186.0</ele><time>2026-04-22T12:19:24.634Z</time></trkpt><trkpt lat="40.0804741" lon="9.4085593"><ele>1185.3333333333335</ele><time>2026-04-22T12:19:25.637Z</time></trkpt><trkpt lat="40.080404" lon="9.4085644"><ele>1184.6666666666667</ele><time>2026-04-22T12:19:26.637Z</time></trkpt><trkpt lat="40.0803112" lon="9.4085428"><ele>1184.0</ele><time>2026-04-22T12:19:28.622Z</time></trkpt><trkpt lat="40.080291" lon="9.4084203"><ele>1184.0</ele><time>2026-04-22T12:19:30.629Z</time></trkpt><trkpt lat="40.080333" lon="9.4082908"><ele>1184.0</ele><time>2026-04-22T12:19:32.631Z</time></trkpt><trkpt lat="40.0803799" lon="9.4081754"><ele>1184.0</ele><time>2026-04-22T12:19:34.629Z</time></trkpt><trkpt lat="40.0803805" lon="9.408011"><ele>1184.0</ele><time>2026-04-22T12:19:36.627Z</time></trkpt><trkpt lat="40.0803556" lon="9.4079285"><ele>1184.0</ele><time>2026-04-22T12:19:37.621Z</time></trkpt><trkpt lat="40.0803376" lon="9.4078482"><ele>1180.4</ele><time>2026-04-22T12:19:38.625Z</time></trkpt><trkpt lat="40.0803032" lon="9.4077776"><ele>1176.8000000000002</ele><time>2026-04-22T12:19:39.63Z</time></trkpt><trkpt lat="40.0802016" lon="9.4076598"><ele>1173.1999999999998</ele><time>2026-04-22T12:19:41.63Z</time></trkpt><trkpt lat="40.0801236" lon="9.4076135"><ele>1169.6</ele><time>2026-04-22T12:19:42.632Z</time></trkpt><trkpt lat="40.0800614" lon="9.4075702"><ele>1166.0</ele><time>2026-04-22T12:19:43.637Z</time></trkpt><trkpt lat="40.0799732" lon="9.4074719"><ele>1168.0</ele><time>2026-04-22T12:19:45.632Z</time></trkpt><trkpt lat="40.0798845" lon="9.4073643"><ele>1170.0</ele><time>2026-04-22T12:19:47.634Z</time></trkpt><trkpt lat="40.0798236" lon="9.4073182"><ele>1172.0</ele><time>2026-04-22T12:19:48.637Z</time></trkpt><trkpt lat="40.0797568" lon="9.4072836"><ele>1174.0</ele><time>2026-04-22T12:19:49.635Z</time></trkpt><trkpt lat="40.0796895" lon="9.4072572"><ele>1176.0</ele><time>2026-04-22T12:19:50.633Z</time></trkpt><trkpt lat="40.0796201" lon="9.4072202"><ele>1178.0</ele><time>2026-04-22T12:19:51.635Z</time></trkpt><trkpt lat="40.0795586" lon="9.4071845"><ele>1174.8333333333335</ele><time>2026-04-22T12:19:52.633Z</time></trkpt><trkpt lat="40.0794993" lon="9.4071354"><ele>1171.6666666666667</ele><time>2026-04-22T12:19:53.63Z</time></trkpt><trkpt lat="40.079444" lon="9.4070853"><ele>1168.5</ele><time>2026-04-22T12:19:54.63Z</time></trkpt><trkpt lat="40.079383" lon="9.4070296"><ele>1165.3333333333333</ele><time>2026-04-22T12:19:55.623Z</time></trkpt><trkpt lat="40.0793138" lon="9.4069811"><ele>1162.1666666666665</ele><time>2026-04-22T12:19:56.631Z</time></trkpt><trkpt lat="40.0792491" lon="9.4069562"><ele>1159.0</ele><time>2026-04-22T12:19:57.638Z</time></trkpt><trkpt lat="40.0791429" lon="9.4069486"><ele>1163.3333333333333</ele><time>2026-04-22T12:19:59.636Z</time></trkpt><trkpt lat="40.0790653" lon="9.4069467"><ele>1167.6666666666665</ele><time>2026-04-22T12:20:01.634Z</time></trkpt><trkpt lat="40.0790149" lon="9.4068962"><ele>1172.0</ele><time>2026-04-22T12:20:04.628Z</time></trkpt><trkpt lat="40.079015" lon="9.4067886"><ele>1176.3333333333333</ele><time>2026-04-22T12:20:06.633Z</time></trkpt><trkpt lat="40.0790686" lon="9.4066087"><ele>1180.6666666666667</ele><time>2026-04-22T12:20:08.631Z</time></trkpt><trkpt lat="40.0790944" lon="9.4065138"><ele>1185.0</ele><time>2026-04-22T12:20:09.631Z</time></trkpt><trkpt lat="40.0790929" lon="9.4064234"><ele>1185.0</ele><time>2026-04-22T12:20:10.638Z</time></trkpt><trkpt lat="40.0790733" lon="9.406343"><ele>1185.0</ele><time>2026-04-22T12:20:11.632Z</time></trkpt><trkpt lat="40.0790425" lon="9.4062576"><ele>1185.0</ele><time>2026-04-22T12:20:12.636Z</time></trkpt><trkpt lat="40.079003" lon="9.406188"><ele>1185.0</ele><time>2026-04-22T12:20:13.629Z</time></trkpt><trkpt lat="40.0789494" lon="9.4061384"><ele>1185.0</ele><time>2026-04-22T12:20:14.63Z</time></trkpt><trkpt lat="40.0788838" lon="9.4061041"><ele>1185.0</ele><time>2026-04-22T12:20:15.624Z</time></trkpt><trkpt lat="40.0787618" lon="9.4061045"><ele>1181.8</ele><time>2026-04-22T12:20:17.628Z</time></trkpt><trkpt lat="40.0786628" lon="9.406051"><ele>1178.6</ele><time>2026-04-22T12:20:19.622Z</time></trkpt><trkpt lat="40.0785941" lon="9.4059598"><ele>1175.4</ele><time>2026-04-22T12:20:21.629Z</time></trkpt><trkpt lat="40.0785695" lon="9.4058374"><ele>1172.2</ele><time>2026-04-22T12:20:23.626Z</time></trkpt><trkpt lat="40.0785262" lon="9.4057206"><ele>1169.0</ele><time>2026-04-22T12:20:25.63Z</time></trkpt><trkpt lat="40.07845" lon="9.4055856"><ele>1169.0</ele><time>2026-04-22T12:20:27.638Z</time></trkpt><trkpt lat="40.0784117" lon="9.4055109"><ele>1169.0</ele><time>2026-04-22T12:20:28.632Z</time></trkpt><trkpt lat="40.0783713" lon="9.4054295"><ele>1169.0</ele><time>2026-04-22T12:20:29.639Z</time></trkpt><trkpt lat="40.0783268" lon="9.4053612"><ele>1169.0</ele><time>2026-04-22T12:20:30.642Z</time></trkpt><trkpt lat="40.0782763" lon="9.4052896"><ele>1169.0</ele><time>2026-04-22T12:20:31.632Z</time></trkpt><trkpt lat="40.0782215" lon="9.4052268"><ele>1169.0</ele><time>2026-04-22T12:20:32.63Z</time></trkpt><trkpt lat="40.0781654" lon="9.4051666"><ele>1169.0</ele><time>2026-04-22T12:20:33.633Z</time></trkpt><trkpt lat="40.078099" lon="9.4051097"><ele>1167.3333333333335</ele><time>2026-04-22T12:20:34.634Z</time></trkpt><trkpt lat="40.0780328" lon="9.4050537"><ele>1165.6666666666667</ele><time>2026-04-22T12:20:35.636Z</time></trkpt><trkpt lat="40.077968" lon="9.4050031"><ele>1164.0</ele><time>2026-04-22T12:20:36.64Z</time></trkpt><trkpt lat="40.0778961" lon="9.4049561"><ele>1162.3333333333333</ele><time>2026-04-22T12:20:37.638Z</time></trkpt><trkpt lat="40.0778322" lon="9.4049146"><ele>1160.6666666666665</ele><time>2026-04-22T12:20:38.638Z</time></trkpt><trkpt lat="40.0777739" lon="9.4048811"><ele>1159.0</ele><time>2026-04-22T12:20:39.634Z</time></trkpt><trkpt lat="40.0776679" lon="9.4048229"><ele>1159.0</ele><time>2026-04-22T12:20:41.633Z</time></trkpt><trkpt lat="40.0775846" lon="9.4047764"><ele>1159.0</ele><time>2026-04-22T12:20:43.637Z</time></trkpt><trkpt lat="40.0775074" lon="9.4047563"><ele>1159.0</ele><time>2026-04-22T12:20:45.633Z</time></trkpt><trkpt lat="40.077442" lon="9.4047339"><ele>1159.0</ele><time>2026-04-22T12:20:47.639Z</time></trkpt><trkpt lat="40.0773803" lon="9.4046992"><ele>1159.0</ele><time>2026-04-22T12:21:47.645Z</time></trkpt><trkpt lat="40.0772867" lon="9.404692"><ele>1159.0</ele><time>2026-04-22T12:21:50.643Z</time></trkpt><trkpt lat="40.0773859" lon="9.4046167"><ele>1154.4</ele><time>2026-04-22T12:23:27.642Z</time></trkpt><trkpt lat="40.077455" lon="9.4045937"><ele>1149.8000000000002</ele><time>2026-04-22T12:23:28.642Z</time></trkpt><trkpt lat="40.0775524" lon="9.4045702"><ele>1145.1999999999998</ele><time>2026-04-22T12:23:29.638Z</time></trkpt><trkpt lat="40.0776449" lon="9.4045404"><ele>1140.6</ele><time>2026-04-22T12:23:30.638Z</time></trkpt><trkpt lat="40.0777079" lon="9.4045251"><ele>1136.0</ele><time>2026-04-22T12:23:31.649Z</time></trkpt><trkpt lat="40.0778319" lon="9.4044933"><ele>1136.0</ele><time>2026-04-22T12:23:33.645Z</time></trkpt><trkpt lat="40.0779057" lon="9.4044722"><ele>1136.0</ele><time>2026-04-22T12:23:34.636Z</time></trkpt><trkpt lat="40.0780257" lon="9.4044574"><ele>1136.0</ele><time>2026-04-22T12:23:36.647Z</time></trkpt><trkpt lat="40.0780946" lon="9.4044475"><ele>1136.0</ele><time>2026-04-22T12:23:37.644Z</time></trkpt><trkpt lat="40.0781729" lon="9.4044366"><ele>1136.0</ele><time>2026-04-22T12:23:38.65Z</time></trkpt><trkpt lat="40.0782452" lon="9.4044277"><ele>1136.0</ele><time>2026-04-22T12:23:39.644Z</time></trkpt><trkpt lat="40.0783224" lon="9.4044138"><ele>1135.1666666666667</ele><time>2026-04-22T12:23:40.643Z</time></trkpt><trkpt lat="40.0784028" lon="9.4044029"><ele>1134.3333333333335</ele><time>2026-04-22T12:23:41.65Z</time></trkpt><trkpt lat="40.0784838" lon="9.4043978"><ele>1133.5</ele><time>2026-04-22T12:23:42.648Z</time></trkpt><trkpt lat="40.0785604" lon="9.404388"><ele>1132.6666666666667</ele><time>2026-04-22T12:23:43.648Z</time></trkpt><trkpt lat="40.0786335" lon="9.4043769"><ele>1131.8333333333333</ele><time>2026-04-22T12:23:44.646Z</time></trkpt><trkpt lat="40.0787043" lon="9.4043705"><ele>1131.0</ele><time>2026-04-22T12:23:45.644Z</time></trkpt><trkpt lat="40.0787764" lon="9.4043713"><ele>1131.0</ele><time>2026-04-22T12:23:46.646Z</time></trkpt><trkpt lat="40.0788385" lon="9.404353"><ele>1131.0</ele><time>2026-04-22T12:23:47.642Z</time></trkpt><trkpt lat="40.0789427" lon="9.4043227"><ele>1131.0</ele><time>2026-04-22T12:23:49.642Z</time></trkpt><trkpt lat="40.0790077" lon="9.4043107"><ele>1131.0</ele><time>2026-04-22T12:23:50.639Z</time></trkpt><trkpt lat="40.0791171" lon="9.4042819"><ele>1131.0</ele><time>2026-04-22T12:23:52.639Z</time></trkpt><trkpt lat="40.0792448" lon="9.4043232"><ele>1129.7142857142858</ele><time>2026-04-22T12:23:54.639Z</time></trkpt><trkpt lat="40.0793084" lon="9.4043559"><ele>1128.4285714285716</ele><time>2026-04-22T12:23:55.641Z</time></trkpt><trkpt lat="40.0793711" lon="9.4043954"><ele>1127.142857142857</ele><time>2026-04-22T12:23:56.642Z</time></trkpt><trkpt lat="40.0794307" lon="9.4044301"><ele>1125.857142857143</ele><time>2026-04-22T12:23:57.638Z</time></trkpt><trkpt lat="40.079493" lon="9.4044624"><ele>1124.5714285714284</ele><time>2026-04-22T12:23:58.64Z</time></trkpt><trkpt lat="40.0795556" lon="9.4044732"><ele>1123.2857142857142</ele><time>2026-04-22T12:23:59.635Z</time></trkpt><trkpt lat="40.0796669" lon="9.4044877"><ele>1122.0</ele><time>2026-04-22T12:24:01.65Z</time></trkpt><trkpt lat="40.0797558" lon="9.4045623"><ele>1120.8</ele><time>2026-04-22T12:24:03.636Z</time></trkpt><trkpt lat="40.0798256" lon="9.4046984"><ele>1119.6</ele><time>2026-04-22T12:24:05.637Z</time></trkpt><trkpt lat="40.0798659" lon="9.4047639"><ele>1118.3999999999999</ele><time>2026-04-22T12:24:06.65Z</time></trkpt><trkpt lat="40.0799243" lon="9.4048911"><ele>1117.2</ele><time>2026-04-22T12:24:08.632Z</time></trkpt><trkpt lat="40.0799958" lon="9.4049918"><ele>1116.0</ele><time>2026-04-22T12:24:10.636Z</time></trkpt><trkpt lat="40.0800276" lon="9.4050893"><ele>1116.0</ele><time>2026-04-22T12:24:12.633Z</time></trkpt><trkpt lat="40.0800619" lon="9.4051769"><ele>1116.0</ele><time>2026-04-22T12:24:15.635Z</time></trkpt><trkpt lat="40.0801358" lon="9.4051155"><ele>1116.0</ele><time>2026-04-22T12:24:17.632Z</time></trkpt><trkpt lat="40.0801953" lon="9.4049949"><ele>1116.0</ele><time>2026-04-22T12:24:19.628Z</time></trkpt><trkpt lat="40.080226" lon="9.4049137"><ele>1116.0</ele><time>2026-04-22T12:24:20.628Z</time></trkpt><trkpt lat="40.0802573" lon="9.4048391"><ele>1116.0</ele><time>2026-04-22T12:24:21.643Z</time></trkpt><trkpt lat="40.0802892" lon="9.4047487"><ele>1114.0</ele><time>2026-04-22T12:24:22.626Z</time></trkpt><trkpt lat="40.080314" lon="9.4046577"><ele>1112.0</ele><time>2026-04-22T12:24:23.624Z</time></trkpt><trkpt lat="40.0803349" lon="9.4045062"><ele>1110.0</ele><time>2026-04-22T12:24:25.63Z</time></trkpt><trkpt lat="40.080343" lon="9.4043588"><ele>1108.0</ele><time>2026-04-22T12:24:27.637Z</time></trkpt><trkpt lat="40.0803053" lon="9.4042109"><ele>1106.0</ele><time>2026-04-22T12:24:29.63Z</time></trkpt><trkpt lat="40.0802743" lon="9.404133"><ele>1106.0</ele><time>2026-04-22T12:24:30.631Z</time></trkpt><trkpt lat="40.0802262" lon="9.4040136"><ele>1106.0</ele><time>2026-04-22T12:24:32.629Z</time></trkpt><trkpt lat="40.0802186" lon="9.4038782"><ele>1106.0</ele><time>2026-04-22T12:24:34.63Z</time></trkpt><trkpt lat="40.0801734" lon="9.4037678"><ele>1106.0</ele><time>2026-04-22T12:24:36.632Z</time></trkpt><trkpt lat="40.0801075" lon="9.4036622"><ele>1106.0</ele><time>2026-04-22T12:24:38.629Z</time></trkpt><trkpt lat="40.0800293" lon="9.4035422"><ele>1105.3333333333335</ele><time>2026-04-22T12:24:40.618Z</time></trkpt><trkpt lat="40.0799821" lon="9.4034793"><ele>1104.6666666666667</ele><time>2026-04-22T12:24:41.638Z</time></trkpt><trkpt lat="40.0798982" lon="9.4033671"><ele>1104.0</ele><time>2026-04-22T12:24:43.623Z</time></trkpt><trkpt lat="40.0798245" lon="9.403312"><ele>1103.3333333333333</ele><time>2026-04-22T12:24:45.633Z</time></trkpt><trkpt lat="40.079778" lon="9.4032508"><ele>1102.6666666666665</ele><time>2026-04-22T12:24:47.628Z</time></trkpt><trkpt lat="40.0798506" lon="9.4031971"><ele>1102.0</ele><time>2026-04-22T12:24:49.638Z</time></trkpt><trkpt lat="40.0799147" lon="9.403223"><ele>1099.6666666666665</ele><time>2026-04-22T12:24:50.625Z</time></trkpt><trkpt lat="40.0799812" lon="9.4032573"><ele>1097.3333333333333</ele><time>2026-04-22T12:24:51.635Z</time></trkpt><trkpt lat="40.0800665" lon="9.4032831"><ele>1095.0</ele><time>2026-04-22T12:24:52.63Z</time></trkpt><trkpt lat="40.0801338" lon="9.403296"><ele>1092.6666666666667</ele><time>2026-04-22T12:24:53.627Z</time></trkpt><trkpt lat="40.0802121" lon="9.4033084"><ele>1090.3333333333335</ele><time>2026-04-22T12:24:54.63Z</time></trkpt><trkpt lat="40.0802876" lon="9.4033113"><ele>1088.0</ele><time>2026-04-22T12:24:55.633Z</time></trkpt><trkpt lat="40.0803664" lon="9.4033053"><ele>1088.0</ele><time>2026-04-22T12:24:56.636Z</time></trkpt><trkpt lat="40.0804343" lon="9.4032888"><ele>1088.0</ele><time>2026-04-22T12:24:57.631Z</time></trkpt><trkpt lat="40.0805075" lon="9.4032724"><ele>1088.0</ele><time>2026-04-22T12:24:58.634Z</time></trkpt><trkpt lat="40.0806276" lon="9.4032539"><ele>1088.0</ele><time>2026-04-22T12:25:00.637Z</time></trkpt><trkpt lat="40.0806946" lon="9.4032462"><ele>1088.0</ele><time>2026-04-22T12:25:01.647Z</time></trkpt><trkpt lat="40.0807575" lon="9.4032427"><ele>1088.0</ele><time>2026-04-22T12:25:02.636Z</time></trkpt><trkpt lat="40.080865" lon="9.4032895"><ele>1085.8</ele><time>2026-04-22T12:25:04.63Z</time></trkpt><trkpt lat="40.0809356" lon="9.4034112"><ele>1083.6</ele><time>2026-04-22T12:25:06.631Z</time></trkpt><trkpt lat="40.0809784" lon="9.4035241"><ele>1081.4</ele><time>2026-04-22T12:25:08.628Z</time></trkpt><trkpt lat="40.08106" lon="9.4035817"><ele>1079.2</ele><time>2026-04-22T12:25:10.63Z</time></trkpt><trkpt lat="40.0811308" lon="9.4035714"><ele>1077.0</ele><time>2026-04-22T12:25:12.621Z</time></trkpt><trkpt lat="40.0812421" lon="9.4035411"><ele>1077.0</ele><time>2026-04-22T12:25:14.634Z</time></trkpt><trkpt lat="40.081313" lon="9.403548"><ele>1077.0</ele><time>2026-04-22T12:25:15.629Z</time></trkpt><trkpt lat="40.0813826" lon="9.403575"><ele>1077.0</ele><time>2026-04-22T12:25:16.631Z</time></trkpt><trkpt lat="40.0814526" lon="9.4036238"><ele>1077.0</ele><time>2026-04-22T12:25:17.631Z</time></trkpt><trkpt lat="40.0815358" lon="9.4036667"><ele>1077.0</ele><time>2026-04-22T12:25:18.636Z</time></trkpt><trkpt lat="40.0816183" lon="9.4037033"><ele>1077.0</ele><time>2026-04-22T12:25:19.635Z</time></trkpt><trkpt lat="40.0817004" lon="9.4037418"><ele>1077.8333333333333</ele><time>2026-04-22T12:25:20.635Z</time></trkpt><trkpt lat="40.0817831" lon="9.4037852"><ele>1078.6666666666667</ele><time>2026-04-22T12:25:21.633Z</time></trkpt><trkpt lat="40.0818692" lon="9.4038133"><ele>1079.5</ele><time>2026-04-22T12:25:22.645Z</time></trkpt><trkpt lat="40.0819551" lon="9.4038377"><ele>1080.3333333333335</ele><time>2026-04-22T12:25:23.634Z</time></trkpt><trkpt lat="40.0820318" lon="9.4038598"><ele>1081.1666666666667</ele><time>2026-04-22T12:25:24.638Z</time></trkpt><trkpt lat="40.0821139" lon="9.4038751"><ele>1082.0</ele><time>2026-04-22T12:25:25.637Z</time></trkpt><trkpt lat="40.0821879" lon="9.4038954"><ele>1082.0</ele><time>2026-04-22T12:25:26.638Z</time></trkpt><trkpt lat="40.0822537" lon="9.4039148"><ele>1082.0</ele><time>2026-04-22T12:25:27.642Z</time></trkpt><trkpt lat="40.0823258" lon="9.4039444"><ele>1082.0</ele><time>2026-04-22T12:25:28.638Z</time></trkpt><trkpt lat="40.0824031" lon="9.4039669"><ele>1082.0</ele><time>2026-04-22T12:25:29.635Z</time></trkpt><trkpt lat="40.0824803" lon="9.4039837"><ele>1082.0</ele><time>2026-04-22T12:25:30.639Z</time></trkpt><trkpt lat="40.0825593" lon="9.4040001"><ele>1082.0</ele><time>2026-04-22T12:25:31.628Z</time></trkpt><trkpt lat="40.0826372" lon="9.4040199"><ele>1080.0</ele><time>2026-04-22T12:25:32.64Z</time></trkpt><trkpt lat="40.0827153" lon="9.4040362"><ele>1078.0</ele><time>2026-04-22T12:25:33.629Z</time></trkpt><trkpt lat="40.0827875" lon="9.4040389"><ele>1076.0</ele><time>2026-04-22T12:25:34.633Z</time></trkpt><trkpt lat="40.0828634" lon="9.404037"><ele>1074.0</ele><time>2026-04-22T12:25:35.633Z</time></trkpt><trkpt lat="40.0829348" lon="9.4040349"><ele>1072.0</ele><time>2026-04-22T12:25:36.633Z</time></trkpt><trkpt lat="40.0830523" lon="9.4040302"><ele>1070.0</ele><time>2026-04-22T12:25:38.638Z</time></trkpt><trkpt lat="40.0831632" lon="9.4040244"><ele>1067.4</ele><time>2026-04-22T12:25:40.632Z</time></trkpt><trkpt lat="40.0832743" lon="9.4040476"><ele>1064.8</ele><time>2026-04-22T12:25:42.642Z</time></trkpt><trkpt lat="40.0833915" lon="9.4040651"><ele>1062.2</ele><time>2026-04-22T12:25:44.633Z</time></trkpt><trkpt lat="40.0834543" lon="9.4040788"><ele>1059.6</ele><time>2026-04-22T12:25:45.635Z</time></trkpt><trkpt lat="40.0835691" lon="9.4041054"><ele>1057.0</ele><time>2026-04-22T12:25:47.641Z</time></trkpt><trkpt lat="40.0836821" lon="9.4041323"><ele>1057.0</ele><time>2026-04-22T12:25:49.63Z</time></trkpt><trkpt lat="40.0837531" lon="9.4041928"><ele>1057.0</ele><time>2026-04-22T12:25:51.639Z</time></trkpt><trkpt lat="40.0837859" lon="9.404303"><ele>1057.0</ele><time>2026-04-22T12:25:53.639Z</time></trkpt><trkpt lat="40.0837546" lon="9.4044134"><ele>1057.0</ele><time>2026-04-22T12:25:55.642Z</time></trkpt><trkpt lat="40.0837416" lon="9.4045426"><ele>1057.0</ele><time>2026-04-22T12:25:57.635Z</time></trkpt><trkpt lat="40.0837987" lon="9.4046061"><ele>1057.0</ele><time>2026-04-22T12:25:59.622Z</time></trkpt><trkpt lat="40.0839239" lon="9.4045836"><ele>1057.0</ele><time>2026-04-22T12:26:01.626Z</time></trkpt><trkpt lat="40.0839953" lon="9.4045603"><ele>1057.0</ele><time>2026-04-22T12:26:02.642Z</time></trkpt><trkpt lat="40.0840794" lon="9.4045311"><ele>1057.0</ele><time>2026-04-22T12:26:03.636Z</time></trkpt><trkpt lat="40.0841512" lon="9.4045217"><ele>1057.0</ele><time>2026-04-22T12:26:04.638Z</time></trkpt><trkpt lat="40.0842325" lon="9.4045195"><ele>1057.0</ele><time>2026-04-22T12:26:05.633Z</time></trkpt><trkpt lat="40.0843045" lon="9.4045065"><ele>1057.0</ele><time>2026-04-22T12:26:06.637Z</time></trkpt><trkpt lat="40.0844063" lon="9.4045044"><ele>1055.8333333333333</ele><time>2026-04-22T12:26:08.644Z</time></trkpt><trkpt lat="40.0844764" lon="9.4045034"><ele>1054.6666666666665</ele><time>2026-04-22T12:26:10.65Z</time></trkpt><trkpt lat="40.0845798" lon="9.4045208"><ele>1053.5</ele><time>2026-04-22T12:26:12.647Z</time></trkpt><trkpt lat="40.0846965" lon="9.4045679"><ele>1052.3333333333333</ele><time>2026-04-22T12:26:14.646Z</time></trkpt><trkpt lat="40.0847642" lon="9.4045968"><ele>1051.1666666666667</ele><time>2026-04-22T12:26:15.644Z</time></trkpt><trkpt lat="40.0848306" lon="9.4046334"><ele>1050.0</ele><time>2026-04-22T12:26:16.645Z</time></trkpt><trkpt lat="40.0848931" lon="9.4046687"><ele>1052.0</ele><time>2026-04-22T12:26:17.642Z</time></trkpt><trkpt lat="40.0849677" lon="9.404687"><ele>1054.0</ele><time>2026-04-22T12:26:18.644Z</time></trkpt><trkpt lat="40.0850449" lon="9.4046983"><ele>1056.0</ele><time>2026-04-22T12:26:19.642Z</time></trkpt><trkpt lat="40.0851226" lon="9.4047122"><ele>1058.0</ele><time>2026-04-22T12:26:20.639Z</time></trkpt><trkpt lat="40.0852004" lon="9.4047141"><ele>1060.0</ele><time>2026-04-22T12:26:21.639Z</time></trkpt><trkpt lat="40.0852721" lon="9.4047219"><ele>1062.0</ele><time>2026-04-22T12:26:22.645Z</time></trkpt><trkpt lat="40.0853421" lon="9.4047359"><ele>1062.0</ele><time>2026-04-22T12:26:23.655Z</time></trkpt><trkpt lat="40.0854199" lon="9.4047464"><ele>1062.0</ele><time>2026-04-22T12:26:24.634Z</time></trkpt><trkpt lat="40.0854949" lon="9.404772"><ele>1062.0</ele><time>2026-04-22T12:26:25.638Z</time></trkpt><trkpt lat="40.0855781" lon="9.4048038"><ele>1062.0</ele><time>2026-04-22T12:26:26.64Z</time></trkpt><trkpt lat="40.0856595" lon="9.4048201"><ele>1062.0</ele><time>2026-04-22T12:26:27.645Z</time></trkpt><trkpt lat="40.0857325" lon="9.4048258"><ele>1062.0</ele><time>2026-04-22T12:26:28.639Z</time></trkpt><trkpt lat="40.0858083" lon="9.4048394"><ele>1060.6666666666667</ele><time>2026-04-22T12:26:29.642Z</time></trkpt><trkpt lat="40.0858874" lon="9.4048531"><ele>1059.3333333333333</ele><time>2026-04-22T12:26:30.64Z</time></trkpt><trkpt lat="40.0859623" lon="9.40486"><ele>1058.0</ele><time>2026-04-22T12:26:31.638Z</time></trkpt><trkpt lat="40.0860331" lon="9.4048691"><ele>1056.6666666666665</ele><time>2026-04-22T12:26:32.636Z</time></trkpt><trkpt lat="40.0861623" lon="9.4048644"><ele>1055.3333333333333</ele><time>2026-04-22T12:26:34.635Z</time></trkpt><trkpt lat="40.0862279" lon="9.4048432"><ele>1054.0</ele><time>2026-04-22T12:26:35.636Z</time></trkpt><trkpt lat="40.0863554" lon="9.4047991"><ele>1054.0</ele><time>2026-04-22T12:26:37.637Z</time></trkpt><trkpt lat="40.086427" lon="9.4047669"><ele>1054.0</ele><time>2026-04-22T12:26:38.638Z</time></trkpt><trkpt lat="40.0864906" lon="9.404751"><ele>1054.0</ele><time>2026-04-22T12:26:39.638Z</time></trkpt><trkpt lat="40.0865549" lon="9.4047397"><ele>1054.0</ele><time>2026-04-22T12:26:40.638Z</time></trkpt><trkpt lat="40.086619" lon="9.4047313"><ele>1054.0</ele><time>2026-04-22T12:26:41.638Z</time></trkpt><trkpt lat="40.0867538" lon="9.404707"><ele>1054.0</ele><time>2026-04-22T12:26:43.647Z</time></trkpt><trkpt lat="40.086836" lon="9.4046862"><ele>1053.5</ele><time>2026-04-22T12:26:44.639Z</time></trkpt><trkpt lat="40.0869155" lon="9.4046699"><ele>1053.0</ele><time>2026-04-22T12:26:45.64Z</time></trkpt><trkpt lat="40.0869921" lon="9.4046496"><ele>1052.5</ele><time>2026-04-22T12:26:46.646Z</time></trkpt><trkpt lat="40.0870713" lon="9.4046452"><ele>1052.0</ele><time>2026-04-22T12:26:47.642Z</time></trkpt><trkpt lat="40.0871402" lon="9.4046385"><ele>1051.5</ele><time>2026-04-22T12:26:48.643Z</time></trkpt><trkpt lat="40.0872173" lon="9.4046409"><ele>1051.0</ele><time>2026-04-22T12:26:49.64Z</time></trkpt><trkpt lat="40.0872865" lon="9.4046428"><ele>1051.0</ele><time>2026-04-22T12:26:50.64Z</time></trkpt><trkpt lat="40.0873566" lon="9.4046529"><ele>1051.0</ele><time>2026-04-22T12:26:51.634Z</time></trkpt><trkpt lat="40.0874198" lon="9.4046715"><ele>1051.0</ele><time>2026-04-22T12:26:52.643Z</time></trkpt><trkpt lat="40.0875372" lon="9.4046938"><ele>1051.0</ele><time>2026-04-22T12:26:54.641Z</time></trkpt><trkpt lat="40.0876611" lon="9.4046817"><ele>1051.0</ele><time>2026-04-22T12:26:56.638Z</time></trkpt><trkpt lat="40.0877386" lon="9.4046561"><ele>1048.5</ele><time>2026-04-22T12:26:57.637Z</time></trkpt><trkpt lat="40.0878141" lon="9.4046387"><ele>1046.0</ele><time>2026-04-22T12:26:58.639Z</time></trkpt><trkpt lat="40.0878909" lon="9.4046268"><ele>1043.5</ele><time>2026-04-22T12:26:59.633Z</time></trkpt><trkpt lat="40.087966" lon="9.4046044"><ele>1041.0</ele><time>2026-04-22T12:27:00.644Z</time></trkpt><trkpt lat="40.088039" lon="9.4045948"><ele>1038.5</ele><time>2026-04-22T12:27:01.63Z</time></trkpt><trkpt lat="40.0881087" lon="9.404575"><ele>1036.0</ele><time>2026-04-22T12:27:02.642Z</time></trkpt><trkpt lat="40.0881822" lon="9.4045631"><ele>1036.0</ele><time>2026-04-22T12:27:03.636Z</time></trkpt><trkpt lat="40.0882524" lon="9.4045551"><ele>1036.0</ele><time>2026-04-22T12:27:04.634Z</time></trkpt><trkpt lat="40.0883267" lon="9.4045437"><ele>1036.0</ele><time>2026-04-22T12:27:05.645Z</time></trkpt><trkpt lat="40.0884022" lon="9.4045375"><ele>1036.0</ele><time>2026-04-22T12:27:06.636Z</time></trkpt><trkpt lat="40.0884752" lon="9.4045212"><ele>1036.0</ele><time>2026-04-22T12:27:07.635Z</time></trkpt><trkpt lat="40.0885509" lon="9.4044928"><ele>1036.0</ele><time>2026-04-22T12:27:08.64Z</time></trkpt><trkpt lat="40.0886246" lon="9.4044617"><ele>1034.6</ele><time>2026-04-22T12:27:09.641Z</time></trkpt><trkpt lat="40.088697" lon="9.4044445"><ele>1033.1999999999998</ele><time>2026-04-22T12:27:10.643Z</time></trkpt><trkpt lat="40.0888163" lon="9.4044472"><ele>1031.8000000000002</ele><time>2026-04-22T12:27:12.641Z</time></trkpt><trkpt lat="40.0889434" lon="9.4044428"><ele>1030.4</ele><time>2026-04-22T12:27:14.64Z</time></trkpt><trkpt lat="40.08905" lon="9.4044454"><ele>1029.0</ele><time>2026-04-22T12:27:16.642Z</time></trkpt><trkpt lat="40.0891174" lon="9.4044549"><ele>1028.0</ele><time>2026-04-22T12:27:17.635Z</time></trkpt><trkpt lat="40.0892023" lon="9.4044619"><ele>1027.0</ele><time>2026-04-22T12:27:18.645Z</time></trkpt><trkpt lat="40.0892909" lon="9.4044729"><ele>1026.0</ele><time>2026-04-22T12:27:19.642Z</time></trkpt><trkpt lat="40.0893729" lon="9.4044824"><ele>1025.0</ele><time>2026-04-22T12:27:20.64Z</time></trkpt><trkpt lat="40.0894487" lon="9.4044952"><ele>1024.0</ele><time>2026-04-22T12:27:21.638Z</time></trkpt><trkpt lat="40.0895198" lon="9.4045097"><ele>1023.0</ele><time>2026-04-22T12:27:22.635Z</time></trkpt><trkpt lat="40.0895961" lon="9.4045262"><ele>1023.0</ele><time>2026-04-22T12:27:23.635Z</time></trkpt><trkpt lat="40.0896686" lon="9.4045454"><ele>1023.0</ele><time>2026-04-22T12:27:24.633Z</time></trkpt><trkpt lat="40.0897428" lon="9.4045594"><ele>1023.0</ele><time>2026-04-22T12:27:25.633Z</time></trkpt><trkpt lat="40.0898148" lon="9.404565"><ele>1023.0</ele><time>2026-04-22T12:27:26.636Z</time></trkpt><trkpt lat="40.0898807" lon="9.4045641"><ele>1023.0</ele><time>2026-04-22T12:27:27.642Z</time></trkpt><trkpt lat="40.0900088" lon="9.4045752"><ele>1023.0</ele><time>2026-04-22T12:27:29.632Z</time></trkpt><trkpt lat="40.0901229" lon="9.4045713"><ele>1022.5999999999999</ele><time>2026-04-22T12:27:31.634Z</time></trkpt><trkpt lat="40.0902041" lon="9.4045382"><ele>1022.1999999999999</ele><time>2026-04-22T12:27:33.634Z</time></trkpt><trkpt lat="40.0902577" lon="9.4044421"><ele>1021.8</ele><time>2026-04-22T12:27:35.636Z</time></trkpt><trkpt lat="40.0903404" lon="9.4043207"><ele>1021.4</ele><time>2026-04-22T12:27:37.635Z</time></trkpt><trkpt lat="40.090439" lon="9.4042759"><ele>1021.0</ele><time>2026-04-22T12:27:39.644Z</time></trkpt><trkpt lat="40.0905356" lon="9.4042287"><ele>1021.0</ele><time>2026-04-22T12:27:41.633Z</time></trkpt><trkpt lat="40.0906259" lon="9.4041346"><ele>1020.9999999999999</ele><time>2026-04-22T12:27:43.642Z</time></trkpt><trkpt lat="40.0906799" lon="9.4040888"><ele>1020.9999999999999</ele><time>2026-04-22T12:27:44.638Z</time></trkpt><trkpt lat="40.0907953" lon="9.4040234"><ele>1021.0</ele><time>2026-04-22T12:27:46.641Z</time></trkpt><trkpt lat="40.0908648" lon="9.4039939"><ele>1021.0</ele><time>2026-04-22T12:27:47.637Z</time></trkpt><trkpt lat="40.0909313" lon="9.403961"><ele>1020.7142857142857</ele><time>2026-04-22T12:27:48.645Z</time></trkpt><trkpt lat="40.0910008" lon="9.4039228"><ele>1020.4285714285716</ele><time>2026-04-22T12:27:49.636Z</time></trkpt><trkpt lat="40.0910687" lon="9.4038842"><ele>1020.1428571428572</ele><time>2026-04-22T12:27:50.637Z</time></trkpt><trkpt lat="40.0911317" lon="9.4038457"><ele>1019.8571428571429</ele><time>2026-04-22T12:27:51.633Z</time></trkpt><trkpt lat="40.0911966" lon="9.4038148"><ele>1019.5714285714287</ele><time>2026-04-22T12:27:52.64Z</time></trkpt><trkpt lat="40.0912651" lon="9.4037922"><ele>1019.2857142857144</ele><time>2026-04-22T12:27:53.631Z</time></trkpt><trkpt lat="40.0913401" lon="9.4037678"><ele>1019.0000000000001</ele><time>2026-04-22T12:27:54.633Z</time></trkpt><trkpt lat="40.0914125" lon="9.4037455"><ele>1019.1666666666667</ele><time>2026-04-22T12:27:55.629Z</time></trkpt><trkpt lat="40.0914847" lon="9.4037186"><ele>1019.3333333333334</ele><time>2026-04-22T12:27:56.635Z</time></trkpt><trkpt lat="40.0915632" lon="9.4037002"><ele>1019.5</ele><time>2026-04-22T12:27:57.633Z</time></trkpt><trkpt lat="40.0916427" lon="9.4036769"><ele>1019.6666666666667</ele><time>2026-04-22T12:27:58.638Z</time></trkpt><trkpt lat="40.09172" lon="9.4036474"><ele>1019.8333333333334</ele><time>2026-04-22T12:27:59.633Z</time></trkpt><trkpt lat="40.0917926" lon="9.4036112"><ele>1020.0</ele><time>2026-04-22T12:28:00.635Z</time></trkpt><trkpt lat="40.0918786" lon="9.4035621"><ele>1020.0</ele><time>2026-04-22T12:28:02.635Z</time></trkpt><trkpt lat="40.0919555" lon="9.4034909"><ele>1020.0</ele><time>2026-04-22T12:28:04.633Z</time></trkpt><trkpt lat="40.0919768" lon="9.403411"><ele>1020.0</ele><time>2026-04-22T12:28:05.631Z</time></trkpt><trkpt lat="40.0919823" lon="9.4032344"><ele>1020.0</ele><time>2026-04-22T12:28:07.637Z</time></trkpt><trkpt lat="40.091982" lon="9.4031328"><ele>1020.0</ele><time>2026-04-22T12:28:08.633Z</time></trkpt><trkpt lat="40.0919882" lon="9.4030364"><ele>1020.0</ele><time>2026-04-22T12:28:09.622Z</time></trkpt><trkpt lat="40.0920153" lon="9.4029595"><ele>1021.1428571428572</ele><time>2026-04-22T12:28:10.623Z</time></trkpt><trkpt lat="40.0920628" lon="9.4028836"><ele>1022.2857142857144</ele><time>2026-04-22T12:28:11.626Z</time></trkpt><trkpt lat="40.0921194" lon="9.4028211"><ele>1023.4285714285714</ele><time>2026-04-22T12:28:12.634Z</time></trkpt><trkpt lat="40.0921781" lon="9.4027569"><ele>1024.5714285714287</ele><time>2026-04-22T12:28:13.631Z</time></trkpt><trkpt lat="40.0922339" lon="9.4026964"><ele>1025.7142857142858</ele><time>2026-04-22T12:28:14.632Z</time></trkpt><trkpt lat="40.0922792" lon="9.4026346"><ele>1026.857142857143</ele><time>2026-04-22T12:28:15.634Z</time></trkpt><trkpt lat="40.092336" lon="9.4025679"><ele>1028.0</ele><time>2026-04-22T12:28:16.632Z</time></trkpt><trkpt lat="40.0923888" lon="9.4025086"><ele>1028.5</ele><time>2026-04-22T12:28:17.631Z</time></trkpt><trkpt lat="40.0924372" lon="9.4024457"><ele>1029.0</ele><time>2026-04-22T12:28:18.634Z</time></trkpt><trkpt lat="40.0924769" lon="9.4023797"><ele>1029.5</ele><time>2026-04-22T12:28:19.633Z</time></trkpt><trkpt lat="40.0925489" lon="9.4022614"><ele>1030.0</ele><time>2026-04-22T12:28:21.641Z</time></trkpt><trkpt lat="40.0926245" lon="9.4021527"><ele>1030.5</ele><time>2026-04-22T12:28:23.634Z</time></trkpt><trkpt lat="40.0926768" lon="9.4021005"><ele>1031.0</ele><time>2026-04-22T12:28:24.624Z</time></trkpt><trkpt lat="40.0927602" lon="9.4020351"><ele>1031.0</ele><time>2026-04-22T12:28:26.632Z</time></trkpt><trkpt lat="40.0928578" lon="9.4019668"><ele>1031.0</ele><time>2026-04-22T12:28:28.637Z</time></trkpt><trkpt lat="40.092958" lon="9.4018898"><ele>1031.0</ele><time>2026-04-22T12:28:30.637Z</time></trkpt><trkpt lat="40.0930166" lon="9.4018407"><ele>1031.0</ele><time>2026-04-22T12:28:31.63Z</time></trkpt><trkpt lat="40.0930686" lon="9.4017881"><ele>1031.0</ele><time>2026-04-22T12:28:32.63Z</time></trkpt><trkpt lat="40.0931639" lon="9.4016911"><ele>1031.0</ele><time>2026-04-22T12:28:34.635Z</time></trkpt><trkpt lat="40.0932163" lon="9.4016348"><ele>1031.0</ele><time>2026-04-22T12:28:35.632Z</time></trkpt><trkpt lat="40.0933008" lon="9.401533"><ele>1031.0</ele><time>2026-04-22T12:28:37.633Z</time></trkpt><trkpt lat="40.0933848" lon="9.4014227"><ele>1031.0</ele><time>2026-04-22T12:28:39.635Z</time></trkpt><trkpt lat="40.0934662" lon="9.4013184"><ele>1031.0</ele><time>2026-04-22T12:28:41.632Z</time></trkpt><trkpt lat="40.0935304" lon="9.4012443"><ele>1029.1666666666667</ele><time>2026-04-22T12:28:43.638Z</time></trkpt><trkpt lat="40.0935849" lon="9.4011756"><ele>1027.3333333333335</ele><time>2026-04-22T12:28:46.642Z</time></trkpt><trkpt lat="40.0936156" lon="9.4010814"><ele>1025.5</ele><time>2026-04-22T12:30:45.643Z</time></trkpt><trkpt lat="40.0936635" lon="9.4010275"><ele>1023.6666666666667</ele><time>2026-04-22T12:39:21.635Z</time></trkpt><trkpt lat="40.0936987" lon="9.4009437"><ele>1021.8333333333334</ele><time>2026-04-22T12:39:23.646Z</time></trkpt><trkpt lat="40.0937327" lon="9.4008344"><ele>1020.0</ele><time>2026-04-22T12:39:25.649Z</time></trkpt><trkpt lat="40.0937928" lon="9.400746"><ele>1020.0</ele><time>2026-04-22T12:39:27.651Z</time></trkpt><trkpt lat="40.0938526" lon="9.4007178"><ele>1020.0</ele><time>2026-04-22T12:39:29.636Z</time></trkpt><trkpt lat="40.0939537" lon="9.4007656"><ele>1020.0</ele><time>2026-04-22T12:39:31.641Z</time></trkpt><trkpt lat="40.0940629" lon="9.4008223"><ele>1020.0</ele><time>2026-04-22T12:39:33.63Z</time></trkpt><trkpt lat="40.0941347" lon="9.4008327"><ele>1020.0</ele><time>2026-04-22T12:39:35.643Z</time></trkpt><trkpt lat="40.0942251" lon="9.4008214"><ele>1019.3333333333334</ele><time>2026-04-22T12:39:37.646Z</time></trkpt><trkpt lat="40.0943075" lon="9.4008571"><ele>1018.6666666666667</ele><time>2026-04-22T12:39:39.649Z</time></trkpt><trkpt lat="40.0943741" lon="9.400883"><ele>1018.0</ele><time>2026-04-22T12:39:41.648Z</time></trkpt><trkpt lat="40.0944433" lon="9.4008277"><ele>1017.3333333333334</ele><time>2026-04-22T12:39:44.659Z</time></trkpt><trkpt lat="40.0944773" lon="9.4007344"><ele>1016.6666666666667</ele><time>2026-04-22T12:39:46.655Z</time></trkpt><trkpt lat="40.0944921" lon="9.4006444"><ele>1016.0</ele><time>2026-04-22T12:39:48.642Z</time></trkpt><trkpt lat="40.094559" lon="9.400582"><ele>1016.0000000000001</ele><time>2026-04-22T12:39:50.645Z</time></trkpt><trkpt lat="40.0946352" lon="9.4005106"><ele>1016.0</ele><time>2026-04-22T12:39:52.641Z</time></trkpt><trkpt lat="40.0946841" lon="9.400433"><ele>1016.0</ele><time>2026-04-22T12:39:54.654Z</time></trkpt><trkpt lat="40.0947158" lon="9.4003587"><ele>1016.0</ele><time>2026-04-22T12:40:37.64Z</time></trkpt><trkpt lat="40.0947348" lon="9.400262"><ele>1016.0000000000001</ele><time>2026-04-22T12:41:50.64Z</time></trkpt><trkpt lat="40.0947557" lon="9.4001735"><ele>1016.0</ele><time>2026-04-22T12:42:10.643Z</time></trkpt><trkpt lat="40.0947854" lon="9.4000845"><ele>1016.4</ele><time>2026-04-22T12:42:19.637Z</time></trkpt><trkpt lat="40.0947945" lon="9.3999264"><ele>1016.8</ele><time>2026-04-22T12:42:21.64Z</time></trkpt><trkpt lat="40.0947838" lon="9.3997826"><ele>1017.1999999999999</ele><time>2026-04-22T12:42:23.636Z</time></trkpt><trkpt lat="40.0947639" lon="9.3996766"><ele>1017.5999999999999</ele><time>2026-04-22T12:42:25.642Z</time></trkpt><trkpt lat="40.0947739" lon="9.3995639"><ele>1018.0</ele><time>2026-04-22T12:42:27.646Z</time></trkpt><trkpt lat="40.0947801" lon="9.399647"><ele>1017.9999999999999</ele><time>2026-04-22T12:46:48.651Z</time></trkpt><trkpt lat="40.0947973" lon="9.3997611"><ele>1018.0</ele><time>2026-04-22T12:46:52.64Z</time></trkpt><trkpt lat="40.0948112" lon="9.3998514"><ele>1018.0</ele><time>2026-04-22T12:46:54.641Z</time></trkpt><trkpt lat="40.094822" lon="9.3999702"><ele>1018.0</ele><time>2026-04-22T12:46:56.64Z</time></trkpt><trkpt lat="40.0948308" lon="9.4000749"><ele>1017.9999999999999</ele><time>2026-04-22T12:46:58.645Z</time></trkpt><trkpt lat="40.0948207" lon="9.4001589"><ele>1018.0</ele><time>2026-04-22T12:47:00.638Z</time></trkpt><trkpt lat="40.0947771" lon="9.4002659"><ele>1017.9999999999999</ele><time>2026-04-22T12:47:03.636Z</time></trkpt><trkpt lat="40.0947351" lon="9.4003713"><ele>1018.0</ele><time>2026-04-22T12:47:06.638Z</time></trkpt><trkpt lat="40.0946906" lon="9.4004717"><ele>1018.0</ele><time>2026-04-22T12:47:09.625Z</time></trkpt><trkpt lat="40.0946395" lon="9.4005508"><ele>1018.0</ele><time>2026-04-22T12:47:11.627Z</time></trkpt><trkpt lat="40.0945668" lon="9.4006261"><ele>1017.9999999999999</ele><time>2026-04-22T12:47:13.631Z</time></trkpt><trkpt lat="40.0945019" lon="9.4006945"><ele>1018.0</ele><time>2026-04-22T12:47:15.629Z</time></trkpt><trkpt lat="40.0944563" lon="9.4007639"><ele>1017.6666666666666</ele><time>2026-04-22T12:47:17.634Z</time></trkpt><trkpt lat="40.094423" lon="9.4008453"><ele>1017.3333333333333</ele><time>2026-04-22T12:47:19.634Z</time></trkpt><trkpt lat="40.0943704" lon="9.4008908"><ele>1017.0</ele><time>2026-04-22T12:47:21.63Z</time></trkpt><trkpt lat="40.0943044" lon="9.4008948"><ele>1016.6666666666667</ele><time>2026-04-22T12:47:23.633Z</time></trkpt><trkpt lat="40.0942221" lon="9.4008482"><ele>1016.3333333333334</ele><time>2026-04-22T12:47:26.632Z</time></trkpt><trkpt lat="40.0941524" lon="9.4008486"><ele>1016.0</ele><time>2026-04-22T12:47:28.633Z</time></trkpt><trkpt lat="40.0940614" lon="9.4008502"><ele>1016.6666666666667</ele><time>2026-04-22T12:47:31.637Z</time></trkpt><trkpt lat="40.0939986" lon="9.4008365"><ele>1017.3333333333334</ele><time>2026-04-22T12:47:33.635Z</time></trkpt><trkpt lat="40.0939036" lon="9.4007832"><ele>1018.0</ele><time>2026-04-22T12:47:35.632Z</time></trkpt><trkpt lat="40.0938263" lon="9.4007466"><ele>1018.6666666666667</ele><time>2026-04-22T12:47:37.626Z</time></trkpt><trkpt lat="40.0937729" lon="9.4008162"><ele>1019.3333333333334</ele><time>2026-04-22T12:47:39.631Z</time></trkpt><trkpt lat="40.0937313" lon="9.4009462"><ele>1020.0</ele><time>2026-04-22T12:47:41.631Z</time></trkpt><trkpt lat="40.0936691" lon="9.4010655"><ele>1020.0</ele><time>2026-04-22T12:47:43.625Z</time></trkpt><trkpt lat="40.0936241" lon="9.4011544"><ele>1020.0</ele><time>2026-04-22T12:48:20.637Z</time></trkpt><trkpt lat="40.0935915" lon="9.4012434"><ele>1020.0</ele><time>2026-04-22T12:49:10.618Z</time></trkpt><trkpt lat="40.0935107" lon="9.4013624"><ele>1020.0</ele><time>2026-04-22T12:49:12.631Z</time></trkpt><trkpt lat="40.0934347" lon="9.4014328"><ele>1020.0</ele><time>2026-04-22T12:49:13.63Z</time></trkpt><trkpt lat="40.0933719" lon="9.4014989"><ele>1019.5714285714287</ele><time>2026-04-22T12:49:14.628Z</time></trkpt><trkpt lat="40.0933173" lon="9.4015599"><ele>1019.1428571428572</ele><time>2026-04-22T12:49:15.632Z</time></trkpt><trkpt lat="40.0932682" lon="9.4016174"><ele>1018.7142857142858</ele><time>2026-04-22T12:49:16.63Z</time></trkpt><trkpt lat="40.0932094" lon="9.4016725"><ele>1018.2857142857142</ele><time>2026-04-22T12:49:17.631Z</time></trkpt><trkpt lat="40.0931502" lon="9.4017365"><ele>1017.8571428571428</ele><time>2026-04-22T12:49:18.633Z</time></trkpt><trkpt lat="40.0930946" lon="9.4017979"><ele>1017.4285714285713</ele><time>2026-04-22T12:49:19.627Z</time></trkpt><trkpt lat="40.0930404" lon="9.401857"><ele>1017.0</ele><time>2026-04-22T12:49:20.635Z</time></trkpt><trkpt lat="40.0929733" lon="9.4019137"><ele>1017.8333333333334</ele><time>2026-04-22T12:49:21.63Z</time></trkpt><trkpt lat="40.0929118" lon="9.4019586"><ele>1018.6666666666667</ele><time>2026-04-22T12:49:22.627Z</time></trkpt><trkpt lat="40.0928589" lon="9.4020062"><ele>1019.5</ele><time>2026-04-22T12:49:23.634Z</time></trkpt><trkpt lat="40.0927537" lon="9.4020796"><ele>1020.3333333333334</ele><time>2026-04-22T12:49:25.631Z</time></trkpt><trkpt lat="40.0926608" lon="9.4021532"><ele>1021.1666666666667</ele><time>2026-04-22T12:49:27.632Z</time></trkpt><trkpt lat="40.0926096" lon="9.4022125"><ele>1022.0</ele><time>2026-04-22T12:49:28.63Z</time></trkpt><trkpt lat="40.0925291" lon="9.4023442"><ele>1022.0000000000001</ele><time>2026-04-22T12:49:30.63Z</time></trkpt><trkpt lat="40.0924806" lon="9.4024202"><ele>1022.0</ele><time>2026-04-22T12:49:31.625Z</time></trkpt><trkpt lat="40.0924247" lon="9.4024951"><ele>1022.0</ele><time>2026-04-22T12:49:32.629Z</time></trkpt><trkpt lat="40.0923786" lon="9.4025562"><ele>1022.0</ele><time>2026-04-22T12:49:33.628Z</time></trkpt><trkpt lat="40.0922897" lon="9.4026891"><ele>1022.0000000000001</ele><time>2026-04-22T12:49:35.626Z</time></trkpt><trkpt lat="40.0922403" lon="9.4027475"><ele>1022.0</ele><time>2026-04-22T12:49:36.632Z</time></trkpt><trkpt lat="40.0921967" lon="9.4028101"><ele>1021.6666666666667</ele><time>2026-04-22T12:49:37.627Z</time></trkpt><trkpt lat="40.09214" lon="9.4028712"><ele>1021.3333333333334</ele><time>2026-04-22T12:49:38.627Z</time></trkpt><trkpt lat="40.0920784" lon="9.4029289"><ele>1021.0</ele><time>2026-04-22T12:49:39.628Z</time></trkpt><trkpt lat="40.092022" lon="9.4029907"><ele>1020.6666666666667</ele><time>2026-04-22T12:49:40.625Z</time></trkpt><trkpt lat="40.0919792" lon="9.4030585"><ele>1020.3333333333334</ele><time>2026-04-22T12:49:41.62Z</time></trkpt><trkpt lat="40.0919406" lon="9.4032053"><ele>1020.0</ele><time>2026-04-22T12:49:43.615Z</time></trkpt><trkpt lat="40.0919379" lon="9.4032896"><ele>1020.0</ele><time>2026-04-22T12:49:44.623Z</time></trkpt><trkpt lat="40.0919259" lon="9.403435"><ele>1020.0</ele><time>2026-04-22T12:49:46.62Z</time></trkpt><trkpt lat="40.0918929" lon="9.4035697"><ele>1020.0</ele><time>2026-04-22T12:49:48.617Z</time></trkpt><trkpt lat="40.091805" lon="9.4036241"><ele>1020.0</ele><time>2026-04-22T12:49:50.616Z</time></trkpt><trkpt lat="40.0917355" lon="9.4036327"><ele>1020.0</ele><time>2026-04-22T12:49:51.617Z</time></trkpt><trkpt lat="40.0916618" lon="9.4036559"><ele>1019.8333333333334</ele><time>2026-04-22T12:49:52.623Z</time></trkpt><trkpt lat="40.091574" lon="9.4036946"><ele>1019.6666666666667</ele><time>2026-04-22T12:49:53.618Z</time></trkpt><trkpt lat="40.091492" lon="9.4037337"><ele>1019.5</ele><time>2026-04-22T12:49:54.623Z</time></trkpt><trkpt lat="40.0914058" lon="9.4037663"><ele>1019.3333333333334</ele><time>2026-04-22T12:49:55.625Z</time></trkpt><trkpt lat="40.0913152" lon="9.403798"><ele>1019.1666666666667</ele><time>2026-04-22T12:49:56.629Z</time></trkpt><trkpt lat="40.0912396" lon="9.4038283"><ele>1019.0</ele><time>2026-04-22T12:49:57.633Z</time></trkpt><trkpt lat="40.0911639" lon="9.4038561"><ele>1019.0000000000001</ele><time>2026-04-22T12:49:58.628Z</time></trkpt><trkpt lat="40.091088" lon="9.4038758"><ele>1019.0</ele><time>2026-04-22T12:49:59.627Z</time></trkpt><trkpt lat="40.0910169" lon="9.4039193"><ele>1019.0</ele><time>2026-04-22T12:50:00.625Z</time></trkpt><trkpt lat="40.0909491" lon="9.403965"><ele>1019.0</ele><time>2026-04-22T12:50:01.62Z</time></trkpt><trkpt lat="40.0908757" lon="9.4040099"><ele>1019.0000000000001</ele><time>2026-04-22T12:50:02.625Z</time></trkpt><trkpt lat="40.0908042" lon="9.404045"><ele>1019.0</ele><time>2026-04-22T12:50:03.619Z</time></trkpt><trkpt lat="40.090736" lon="9.4040894"><ele>1019.3333333333334</ele><time>2026-04-22T12:50:04.627Z</time></trkpt><trkpt lat="40.0906744" lon="9.4041275"><ele>1019.6666666666667</ele><time>2026-04-22T12:50:05.62Z</time></trkpt><trkpt lat="40.090615" lon="9.404173"><ele>1020.0</ele><time>2026-04-22T12:50:06.623Z</time></trkpt><trkpt lat="40.0905366" lon="9.4042786"><ele>1020.3333333333333</ele><time>2026-04-22T12:50:08.622Z</time></trkpt><trkpt lat="40.0904473" lon="9.4043758"><ele>1020.6666666666666</ele><time>2026-04-22T12:50:10.618Z</time></trkpt><trkpt lat="40.0903913" lon="9.4044144"><ele>1021.0</ele><time>2026-04-22T12:50:11.62Z</time></trkpt><trkpt lat="40.090266" lon="9.4044566"><ele>1021.0</ele><time>2026-04-22T12:50:13.618Z</time></trkpt><trkpt lat="40.0901781" lon="9.4045261"><ele>1020.9999999999999</ele><time>2026-04-22T12:50:15.616Z</time></trkpt><trkpt lat="40.0900988" lon="9.4046134"><ele>1020.9999999999999</ele><time>2026-04-22T12:50:17.599Z</time></trkpt><trkpt lat="40.0900016" lon="9.4046572"><ele>1021.0</ele><time>2026-04-22T12:50:19.612Z</time></trkpt><trkpt lat="40.089933" lon="9.4046561"><ele>1021.0</ele><time>2026-04-22T12:50:20.614Z</time></trkpt><trkpt lat="40.0898559" lon="9.4046463"><ele>1021.3333333333333</ele><time>2026-04-22T12:50:21.612Z</time></trkpt><trkpt lat="40.0897789" lon="9.4046303"><ele>1021.6666666666666</ele><time>2026-04-22T12:50:22.613Z</time></trkpt><trkpt lat="40.0897018" lon="9.4046221"><ele>1022.0</ele><time>2026-04-22T12:50:23.611Z</time></trkpt><trkpt lat="40.0896267" lon="9.4046108"><ele>1022.3333333333333</ele><time>2026-04-22T12:50:24.612Z</time></trkpt><trkpt lat="40.0895389" lon="9.4046056"><ele>1022.6666666666666</ele><time>2026-04-22T12:50:25.615Z</time></trkpt><trkpt lat="40.0894604" lon="9.404598"><ele>1023.0</ele><time>2026-04-22T12:50:26.606Z</time></trkpt><trkpt lat="40.0893811" lon="9.4045934"><ele>1023.0</ele><time>2026-04-22T12:50:27.621Z</time></trkpt><trkpt lat="40.0893" lon="9.4045906"><ele>1023.0</ele><time>2026-04-22T12:50:28.612Z</time></trkpt><trkpt lat="40.0892169" lon="9.4045822"><ele>1023.0</ele><time>2026-04-22T12:50:29.616Z</time></trkpt><trkpt lat="40.0891358" lon="9.4045721"><ele>1023.0</ele><time>2026-04-22T12:50:30.617Z</time></trkpt><trkpt lat="40.089061" lon="9.4045541"><ele>1023.0</ele><time>2026-04-22T12:50:31.621Z</time></trkpt><trkpt lat="40.0889888" lon="9.4045483"><ele>1023.0</ele><time>2026-04-22T12:50:32.62Z</time></trkpt><trkpt lat="40.0889217" lon="9.4045365"><ele>1024.0</ele><time>2026-04-22T12:50:33.612Z</time></trkpt><trkpt lat="40.0888408" lon="9.4045239"><ele>1025.0</ele><time>2026-04-22T12:50:34.615Z</time></trkpt><trkpt lat="40.0887526" lon="9.4045129"><ele>1026.0</ele><time>2026-04-22T12:50:35.619Z</time></trkpt><trkpt lat="40.0886626" lon="9.4045154"><ele>1027.0</ele><time>2026-04-22T12:50:36.611Z</time></trkpt><trkpt lat="40.0885691" lon="9.4045237"><ele>1028.0</ele><time>2026-04-22T12:50:37.613Z</time></trkpt><trkpt lat="40.0884814" lon="9.4045459"><ele>1029.0</ele><time>2026-04-22T12:50:38.614Z</time></trkpt><trkpt lat="40.0883969" lon="9.4045736"><ele>1029.0</ele><time>2026-04-22T12:50:39.612Z</time></trkpt><trkpt lat="40.0883117" lon="9.4045952"><ele>1029.0</ele><time>2026-04-22T12:50:40.615Z</time></trkpt><trkpt lat="40.0882298" lon="9.4046165"><ele>1029.0</ele><time>2026-04-22T12:50:41.612Z</time></trkpt><trkpt lat="40.0881386" lon="9.4046298"><ele>1029.0</ele><time>2026-04-22T12:50:42.608Z</time></trkpt><trkpt lat="40.0880586" lon="9.4046392"><ele>1029.0</ele><time>2026-04-22T12:50:43.613Z</time></trkpt><trkpt lat="40.0879811" lon="9.4046478"><ele>1029.0</ele><time>2026-04-22T12:50:44.613Z</time></trkpt><trkpt lat="40.0878985" lon="9.404664"><ele>1031.3333333333333</ele><time>2026-04-22T12:50:45.611Z</time></trkpt><trkpt lat="40.0878154" lon="9.4046872"><ele>1033.6666666666667</ele><time>2026-04-22T12:50:46.619Z</time></trkpt><trkpt lat="40.0877267" lon="9.4047146"><ele>1036.0</ele><time>2026-04-22T12:50:47.61Z</time></trkpt><trkpt lat="40.0876474" lon="9.4047394"><ele>1038.3333333333335</ele><time>2026-04-22T12:50:48.629Z</time></trkpt><trkpt lat="40.0875683" lon="9.4047515"><ele>1040.6666666666667</ele><time>2026-04-22T12:50:49.613Z</time></trkpt><trkpt lat="40.0874859" lon="9.404775"><ele>1043.0</ele><time>2026-04-22T12:50:50.615Z</time></trkpt><trkpt lat="40.0874085" lon="9.4047855"><ele>1044.3333333333335</ele><time>2026-04-22T12:50:51.615Z</time></trkpt><trkpt lat="40.0873402" lon="9.4047715"><ele>1045.6666666666667</ele><time>2026-04-22T12:50:52.62Z</time></trkpt><trkpt lat="40.0872659" lon="9.4047523"><ele>1047.0</ele><time>2026-04-22T12:50:53.605Z</time></trkpt><trkpt lat="40.0871811" lon="9.4047348"><ele>1048.3333333333333</ele><time>2026-04-22T12:50:54.607Z</time></trkpt><trkpt lat="40.0870996" lon="9.4047262"><ele>1049.6666666666665</ele><time>2026-04-22T12:50:55.61Z</time></trkpt><trkpt lat="40.0870109" lon="9.4047215"><ele>1051.0</ele><time>2026-04-22T12:50:56.61Z</time></trkpt><trkpt lat="40.0869246" lon="9.4047159"><ele>1051.0</ele><time>2026-04-22T12:50:57.615Z</time></trkpt><trkpt lat="40.0868345" lon="9.4047314"><ele>1051.0</ele><time>2026-04-22T12:50:58.614Z</time></trkpt><trkpt lat="40.0867365" lon="9.4047449"><ele>1051.0</ele><time>2026-04-22T12:50:59.616Z</time></trkpt><trkpt lat="40.0866423" lon="9.4047659"><ele>1051.0</ele><time>2026-04-22T12:51:00.614Z</time></trkpt><trkpt lat="40.0865495" lon="9.4047929"><ele>1051.0</ele><time>2026-04-22T12:51:01.609Z</time></trkpt><trkpt lat="40.0864613" lon="9.404815"><ele>1051.5</ele><time>2026-04-22T12:51:02.615Z</time></trkpt><trkpt lat="40.0863843" lon="9.4048379"><ele>1052.0</ele><time>2026-04-22T12:51:03.615Z</time></trkpt><trkpt lat="40.0863165" lon="9.4048618"><ele>1052.5</ele><time>2026-04-22T12:51:04.61Z</time></trkpt><trkpt lat="40.0862442" lon="9.4048852"><ele>1053.0</ele><time>2026-04-22T12:51:05.61Z</time></trkpt><trkpt lat="40.0861667" lon="9.4049132"><ele>1053.5</ele><time>2026-04-22T12:51:06.614Z</time></trkpt><trkpt lat="40.0860913" lon="9.4049356"><ele>1054.0</ele><time>2026-04-22T12:51:07.615Z</time></trkpt><trkpt lat="40.0860235" lon="9.4049497"><ele>1054.0</ele><time>2026-04-22T12:51:08.609Z</time></trkpt><trkpt lat="40.0859553" lon="9.4049433"><ele>1054.0</ele><time>2026-04-22T12:51:09.605Z</time></trkpt><trkpt lat="40.0858788" lon="9.4049284"><ele>1054.0</ele><time>2026-04-22T12:51:10.616Z</time></trkpt><trkpt lat="40.0857928" lon="9.4049052"><ele>1054.0</ele><time>2026-04-22T12:51:11.61Z</time></trkpt><trkpt lat="40.0856967" lon="9.4048853"><ele>1054.0</ele><time>2026-04-22T12:51:12.619Z</time></trkpt><trkpt lat="40.0855973" lon="9.4048717"><ele>1054.0</ele><time>2026-04-22T12:51:13.618Z</time></trkpt><trkpt lat="40.0855107" lon="9.4048675"><ele>1055.3333333333333</ele><time>2026-04-22T12:51:14.615Z</time></trkpt><trkpt lat="40.0854192" lon="9.4048491"><ele>1056.6666666666665</ele><time>2026-04-22T12:51:15.612Z</time></trkpt><trkpt lat="40.0853326" lon="9.4048244"><ele>1058.0</ele><time>2026-04-22T12:51:16.615Z</time></trkpt><trkpt lat="40.0852567" lon="9.4047922"><ele>1059.3333333333333</ele><time>2026-04-22T12:51:17.609Z</time></trkpt><trkpt lat="40.0851771" lon="9.4047795"><ele>1060.6666666666667</ele><time>2026-04-22T12:51:18.615Z</time></trkpt><trkpt lat="40.0850831" lon="9.4047723"><ele>1062.0</ele><time>2026-04-22T12:51:19.61Z</time></trkpt><trkpt lat="40.0849961" lon="9.4047621"><ele>1062.3333333333333</ele><time>2026-04-22T12:51:20.629Z</time></trkpt><trkpt lat="40.0849137" lon="9.4047491"><ele>1062.6666666666667</ele><time>2026-04-22T12:51:21.613Z</time></trkpt><trkpt lat="40.0848336" lon="9.4047398"><ele>1063.0</ele><time>2026-04-22T12:51:22.615Z</time></trkpt><trkpt lat="40.0847651" lon="9.4047249"><ele>1063.3333333333335</ele><time>2026-04-22T12:51:23.618Z</time></trkpt><trkpt lat="40.0847036" lon="9.4047027"><ele>1063.6666666666667</ele><time>2026-04-22T12:51:24.609Z</time></trkpt><trkpt lat="40.0846434" lon="9.4046764"><ele>1064.0</ele><time>2026-04-22T12:51:25.617Z</time></trkpt><trkpt lat="40.0845404" lon="9.4046349"><ele>1062.8333333333335</ele><time>2026-04-22T12:51:27.623Z</time></trkpt><trkpt lat="40.0844107" lon="9.4045925"><ele>1061.6666666666667</ele><time>2026-04-22T12:51:29.619Z</time></trkpt><trkpt lat="40.0843333" lon="9.4045696"><ele>1060.5</ele><time>2026-04-22T12:51:30.622Z</time></trkpt><trkpt lat="40.084253" lon="9.4045585"><ele>1059.3333333333333</ele><time>2026-04-22T12:51:31.615Z</time></trkpt><trkpt lat="40.0841751" lon="9.4045513"><ele>1058.1666666666665</ele><time>2026-04-22T12:51:32.615Z</time></trkpt><trkpt lat="40.0841027" lon="9.4045503"><ele>1057.0</ele><time>2026-04-22T12:51:33.616Z</time></trkpt><trkpt lat="40.0840339" lon="9.4045475"><ele>1057.0</ele><time>2026-04-22T12:51:34.612Z</time></trkpt><trkpt lat="40.0839661" lon="9.4045436"><ele>1057.0</ele><time>2026-04-22T12:51:35.615Z</time></trkpt><trkpt lat="40.0839016" lon="9.4045502"><ele>1057.0</ele><time>2026-04-22T12:51:36.613Z</time></trkpt><trkpt lat="40.0837931" lon="9.4046106"><ele>1057.0</ele><time>2026-04-22T12:51:38.611Z</time></trkpt><trkpt lat="40.0837179" lon="9.4046266"><ele>1057.0</ele><time>2026-04-22T12:51:40.612Z</time></trkpt><trkpt lat="40.0837057" lon="9.4045102"><ele>1057.0</ele><time>2026-04-22T12:51:42.614Z</time></trkpt><trkpt lat="40.0837355" lon="9.4043679"><ele>1057.0</ele><time>2026-04-22T12:51:44.606Z</time></trkpt><trkpt lat="40.0837107" lon="9.4042157"><ele>1057.0</ele><time>2026-04-22T12:51:46.606Z</time></trkpt><trkpt lat="40.0836329" lon="9.4041553"><ele>1057.0</ele><time>2026-04-22T12:51:48.613Z</time></trkpt><trkpt lat="40.0835565" lon="9.4041557"><ele>1057.0</ele><time>2026-04-22T12:51:49.599Z</time></trkpt><trkpt lat="40.0834683" lon="9.4041473"><ele>1057.0</ele><time>2026-04-22T12:51:50.621Z</time></trkpt><trkpt lat="40.0833881" lon="9.4041343"><ele>1057.0</ele><time>2026-04-22T12:51:51.606Z</time></trkpt><trkpt lat="40.0832985" lon="9.4041252"><ele>1057.0</ele><time>2026-04-22T12:51:52.609Z</time></trkpt><trkpt lat="40.0832173" lon="9.4041183"><ele>1057.0</ele><time>2026-04-22T12:51:53.615Z</time></trkpt><trkpt lat="40.0831327" lon="9.4041113"><ele>1057.0</ele><time>2026-04-22T12:51:54.608Z</time></trkpt><trkpt lat="40.0830508" lon="9.404116"><ele>1057.0</ele><time>2026-04-22T12:51:55.612Z</time></trkpt><trkpt lat="40.0829614" lon="9.4041269"><ele>1057.0</ele><time>2026-04-22T12:51:56.618Z</time></trkpt><trkpt lat="40.0828637" lon="9.4041408"><ele>1059.1666666666665</ele><time>2026-04-22T12:51:57.622Z</time></trkpt><trkpt lat="40.0827618" lon="9.4041402"><ele>1061.3333333333333</ele><time>2026-04-22T12:51:58.621Z</time></trkpt><trkpt lat="40.0826743" lon="9.404143"><ele>1063.5</ele><time>2026-04-22T12:51:59.615Z</time></trkpt><trkpt lat="40.0825877" lon="9.4041438"><ele>1065.6666666666667</ele><time>2026-04-22T12:52:00.629Z</time></trkpt><trkpt lat="40.0825102" lon="9.404131"><ele>1067.8333333333335</ele><time>2026-04-22T12:52:01.614Z</time></trkpt><trkpt lat="40.082434" lon="9.4040947"><ele>1070.0</ele><time>2026-04-22T12:52:02.617Z</time></trkpt><trkpt lat="40.0823575" lon="9.404047"><ele>1072.0</ele><time>2026-04-22T12:52:03.616Z</time></trkpt><trkpt lat="40.0822761" lon="9.4040035"><ele>1074.0</ele><time>2026-04-22T12:52:04.62Z</time></trkpt><trkpt lat="40.0821917" lon="9.4039761"><ele>1076.0</ele><time>2026-04-22T12:52:05.618Z</time></trkpt><trkpt lat="40.0821207" lon="9.403948"><ele>1078.0</ele><time>2026-04-22T12:52:06.616Z</time></trkpt><trkpt lat="40.0820406" lon="9.4039244"><ele>1080.0</ele><time>2026-04-22T12:52:07.618Z</time></trkpt><trkpt lat="40.0819675" lon="9.403888"><ele>1082.0</ele><time>2026-04-22T12:52:08.612Z</time></trkpt><trkpt lat="40.0818889" lon="9.4038505"><ele>1081.1666666666667</ele><time>2026-04-22T12:52:09.62Z</time></trkpt><trkpt lat="40.0817991" lon="9.4038172"><ele>1080.3333333333335</ele><time>2026-04-22T12:52:10.631Z</time></trkpt><trkpt lat="40.0817281" lon="9.4037812"><ele>1079.5</ele><time>2026-04-22T12:52:11.617Z</time></trkpt><trkpt lat="40.0816512" lon="9.4037418"><ele>1078.6666666666667</ele><time>2026-04-22T12:52:12.621Z</time></trkpt><trkpt lat="40.0815751" lon="9.4037098"><ele>1077.8333333333333</ele><time>2026-04-22T12:52:13.619Z</time></trkpt><trkpt lat="40.0815039" lon="9.403684"><ele>1077.0</ele><time>2026-04-22T12:52:14.615Z</time></trkpt><trkpt lat="40.0814331" lon="9.4036537"><ele>1077.0</ele><time>2026-04-22T12:52:15.616Z</time></trkpt><trkpt lat="40.0813562" lon="9.4036225"><ele>1077.0</ele><time>2026-04-22T12:52:16.618Z</time></trkpt><trkpt lat="40.0812964" lon="9.4035789"><ele>1077.0</ele><time>2026-04-22T12:52:17.612Z</time></trkpt><trkpt lat="40.0811837" lon="9.403564"><ele>1077.0</ele><time>2026-04-22T12:52:19.615Z</time></trkpt><trkpt lat="40.0810842" lon="9.4036038"><ele>1077.0</ele><time>2026-04-22T12:52:21.616Z</time></trkpt><trkpt lat="40.0809848" lon="9.4036692"><ele>1077.0</ele><time>2026-04-22T12:52:23.606Z</time></trkpt><trkpt lat="40.0808987" lon="9.4036243"><ele>1077.0</ele><time>2026-04-22T12:52:25.606Z</time></trkpt><trkpt lat="40.0808459" lon="9.4035051"><ele>1077.0</ele><time>2026-04-22T12:52:27.621Z</time></trkpt><trkpt lat="40.0808195" lon="9.4034205"><ele>1077.0</ele><time>2026-04-22T12:52:28.614Z</time></trkpt><trkpt lat="40.080782" lon="9.4033447"><ele>1077.0</ele><time>2026-04-22T12:52:29.601Z</time></trkpt><trkpt lat="40.0807175" lon="9.4033041"><ele>1077.0</ele><time>2026-04-22T12:52:30.616Z</time></trkpt><trkpt lat="40.0805862" lon="9.4032827"><ele>1078.8333333333333</ele><time>2026-04-22T12:52:32.602Z</time></trkpt><trkpt lat="40.0805043" lon="9.4032967"><ele>1080.6666666666667</ele><time>2026-04-22T12:52:33.606Z</time></trkpt><trkpt lat="40.0804256" lon="9.4033012"><ele>1082.5</ele><time>2026-04-22T12:52:34.608Z</time></trkpt><trkpt lat="40.0803463" lon="9.4033099"><ele>1084.3333333333335</ele><time>2026-04-22T12:52:35.61Z</time></trkpt><trkpt lat="40.0802709" lon="9.4033197"><ele>1086.1666666666667</ele><time>2026-04-22T12:52:36.611Z</time></trkpt><trkpt lat="40.0802011" lon="9.4033172"><ele>1088.0</ele><time>2026-04-22T12:52:37.61Z</time></trkpt><trkpt lat="40.08013" lon="9.403296"><ele>1088.0</ele><time>2026-04-22T12:52:38.611Z</time></trkpt><trkpt lat="40.0800523" lon="9.4032626"><ele>1088.0</ele><time>2026-04-22T12:52:39.613Z</time></trkpt><trkpt lat="40.0799785" lon="9.4032284"><ele>1088.0</ele><time>2026-04-22T12:52:40.623Z</time></trkpt><trkpt lat="40.0799153" lon="9.4032147"><ele>1088.0</ele><time>2026-04-22T12:52:41.612Z</time></trkpt><trkpt lat="40.0798351" lon="9.403225"><ele>1088.0</ele><time>2026-04-22T12:52:43.608Z</time></trkpt><trkpt lat="40.0798085" lon="9.4033042"><ele>1088.0</ele><time>2026-04-22T12:52:45.606Z</time></trkpt><trkpt lat="40.079848" lon="9.4033978"><ele>1088.0</ele><time>2026-04-22T12:52:47.605Z</time></trkpt><trkpt lat="40.079909" lon="9.4034477"><ele>1088.0</ele><time>2026-04-22T12:52:48.606Z</time></trkpt><trkpt lat="40.0799748" lon="9.4035046"><ele>1088.0</ele><time>2026-04-22T12:52:49.615Z</time></trkpt><trkpt lat="40.0800375" lon="9.4035819"><ele>1088.0</ele><time>2026-04-22T12:52:50.612Z</time></trkpt><trkpt lat="40.0800904" lon="9.4036587"><ele>1088.0</ele><time>2026-04-22T12:52:51.619Z</time></trkpt><trkpt lat="40.0801425" lon="9.4037471"><ele>1088.0</ele><time>2026-04-22T12:52:52.612Z</time></trkpt><trkpt lat="40.0801934" lon="9.4038269"><ele>1091.0</ele><time>2026-04-22T12:52:53.611Z</time></trkpt><trkpt lat="40.0802317" lon="9.403893"><ele>1094.0</ele><time>2026-04-22T12:52:54.604Z</time></trkpt><trkpt lat="40.0802775" lon="9.4039502"><ele>1097.0</ele><time>2026-04-22T12:52:55.616Z</time></trkpt><trkpt lat="40.0802876" lon="9.4041163"><ele>1100.0</ele><time>2026-04-22T12:52:57.626Z</time></trkpt><trkpt lat="40.0803093" lon="9.4042175"><ele>1103.0</ele><time>2026-04-22T12:52:58.617Z</time></trkpt><trkpt lat="40.0803362" lon="9.4043035"><ele>1106.0</ele><time>2026-04-22T12:52:59.621Z</time></trkpt><trkpt lat="40.0803723" lon="9.4043795"><ele>1106.0</ele><time>2026-04-22T12:53:00.617Z</time></trkpt><trkpt lat="40.0803703" lon="9.4045578"><ele>1106.0</ele><time>2026-04-22T12:53:02.615Z</time></trkpt><trkpt lat="40.0803452" lon="9.4046507"><ele>1106.0</ele><time>2026-04-22T12:53:03.623Z</time></trkpt><trkpt lat="40.0803207" lon="9.4047333"><ele>1106.0</ele><time>2026-04-22T12:53:04.625Z</time></trkpt><trkpt lat="40.0802795" lon="9.4048842"><ele>1106.0</ele><time>2026-04-22T12:53:06.627Z</time></trkpt><trkpt lat="40.0802414" lon="9.40495"><ele>1107.6666666666667</ele><time>2026-04-22T12:53:07.632Z</time></trkpt><trkpt lat="40.0802036" lon="9.4050224"><ele>1109.3333333333335</ele><time>2026-04-22T12:53:08.627Z</time></trkpt><trkpt lat="40.0801637" lon="9.4050907"><ele>1111.0</ele><time>2026-04-22T12:53:09.616Z</time></trkpt><trkpt lat="40.080123" lon="9.4051907"><ele>1112.6666666666667</ele><time>2026-04-22T12:53:11.634Z</time></trkpt><trkpt lat="40.0800426" lon="9.4051135"><ele>1114.3333333333333</ele><time>2026-04-22T12:53:14.613Z</time></trkpt><trkpt lat="40.0800064" lon="9.405042"><ele>1116.0</ele><time>2026-04-22T12:53:15.619Z</time></trkpt><trkpt lat="40.0799296" lon="9.4048991"><ele>1117.0</ele><time>2026-04-22T12:53:17.611Z</time></trkpt><trkpt lat="40.0798782" lon="9.4048268"><ele>1118.0</ele><time>2026-04-22T12:53:18.613Z</time></trkpt><trkpt lat="40.0798253" lon="9.4047438"><ele>1119.0</ele><time>2026-04-22T12:53:19.616Z</time></trkpt><trkpt lat="40.0797664" lon="9.4046575"><ele>1120.0</ele><time>2026-04-22T12:53:20.622Z</time></trkpt><trkpt lat="40.0797079" lon="9.4045803"><ele>1121.0</ele><time>2026-04-22T12:53:21.635Z</time></trkpt><trkpt lat="40.0796499" lon="9.4045215"><ele>1122.0</ele><time>2026-04-22T12:53:22.61Z</time></trkpt><trkpt lat="40.0795763" lon="9.4045011"><ele>1122.0</ele><time>2026-04-22T12:53:23.616Z</time></trkpt><trkpt lat="40.0794822" lon="9.4044853"><ele>1122.0</ele><time>2026-04-22T12:53:24.62Z</time></trkpt><trkpt lat="40.079413" lon="9.4044733"><ele>1122.0</ele><time>2026-04-22T12:53:25.619Z</time></trkpt><trkpt lat="40.0793437" lon="9.4044516"><ele>1122.0</ele><time>2026-04-22T12:53:26.621Z</time></trkpt><trkpt lat="40.0792734" lon="9.4044269"><ele>1122.0</ele><time>2026-04-22T12:53:27.619Z</time></trkpt><trkpt lat="40.0791963" lon="9.4043903"><ele>1122.0</ele><time>2026-04-22T12:53:28.623Z</time></trkpt><trkpt lat="40.079117" lon="9.4043661"><ele>1123.5</ele><time>2026-04-22T12:53:29.627Z</time></trkpt><trkpt lat="40.0790406" lon="9.4043401"><ele>1125.0</ele><time>2026-04-22T12:53:30.624Z</time></trkpt><trkpt lat="40.0789654" lon="9.4043308"><ele>1126.5</ele><time>2026-04-22T12:53:31.633Z</time></trkpt><trkpt lat="40.0788911" lon="9.4043447"><ele>1128.0</ele><time>2026-04-22T12:53:32.621Z</time></trkpt><trkpt lat="40.0788204" lon="9.4043701"><ele>1129.5</ele><time>2026-04-22T12:53:33.628Z</time></trkpt><trkpt lat="40.0787415" lon="9.4043979"><ele>1131.0</ele><time>2026-04-22T12:53:34.626Z</time></trkpt><trkpt lat="40.0786662" lon="9.4044149"><ele>1131.0</ele><time>2026-04-22T12:53:35.621Z</time></trkpt><trkpt lat="40.0785888" lon="9.4044239"><ele>1131.0</ele><time>2026-04-22T12:53:36.624Z</time></trkpt><trkpt lat="40.0784998" lon="9.4044243"><ele>1131.0</ele><time>2026-04-22T12:53:37.627Z</time></trkpt><trkpt lat="40.0784283" lon="9.4044271"><ele>1131.0</ele><time>2026-04-22T12:53:38.623Z</time></trkpt><trkpt lat="40.0783451" lon="9.4044309"><ele>1131.0</ele><time>2026-04-22T12:53:39.619Z</time></trkpt><trkpt lat="40.078253" lon="9.4044362"><ele>1131.0</ele><time>2026-04-22T12:53:40.629Z</time></trkpt><trkpt lat="40.0781593" lon="9.4044485"><ele>1131.8333333333333</ele><time>2026-04-22T12:53:41.629Z</time></trkpt><trkpt lat="40.0780736" lon="9.4044681"><ele>1132.6666666666667</ele><time>2026-04-22T12:53:42.619Z</time></trkpt><trkpt lat="40.0779978" lon="9.4044957"><ele>1133.5</ele><time>2026-04-22T12:53:43.626Z</time></trkpt><trkpt lat="40.0779166" lon="9.4045247"><ele>1134.3333333333335</ele><time>2026-04-22T12:53:44.623Z</time></trkpt><trkpt lat="40.0778379" lon="9.4045452"><ele>1135.1666666666667</ele><time>2026-04-22T12:53:45.621Z</time></trkpt><trkpt lat="40.0777607" lon="9.4045689"><ele>1136.0</ele><time>2026-04-22T12:53:46.62Z</time></trkpt><trkpt lat="40.07768" lon="9.4045866"><ele>1136.0</ele><time>2026-04-22T12:53:47.628Z</time></trkpt><trkpt lat="40.0775926" lon="9.4045954"><ele>1136.0</ele><time>2026-04-22T12:53:48.623Z</time></trkpt><trkpt lat="40.0775075" lon="9.40461"><ele>1136.0</ele><time>2026-04-22T12:53:49.626Z</time></trkpt><trkpt lat="40.0774377" lon="9.4046277"><ele>1136.0</ele><time>2026-04-22T12:53:50.618Z</time></trkpt><trkpt lat="40.0773338" lon="9.4046562"><ele>1136.0</ele><time>2026-04-22T12:53:52.613Z</time></trkpt><trkpt lat="40.077241" lon="9.4046763"><ele>1136.0</ele><time>2026-04-22T12:53:54.617Z</time></trkpt><trkpt lat="40.0771778" lon="9.4046192"><ele>1137.3333333333335</ele><time>2026-04-22T12:53:56.614Z</time></trkpt><trkpt lat="40.0771156" lon="9.4044837"><ele>1138.6666666666667</ele><time>2026-04-22T12:53:58.628Z</time></trkpt><trkpt lat="40.0770853" lon="9.4044051"><ele>1140.0</ele><time>2026-04-22T12:53:59.62Z</time></trkpt><trkpt lat="40.0770478" lon="9.40433"><ele>1141.3333333333333</ele><time>2026-04-22T12:54:00.618Z</time></trkpt><trkpt lat="40.0770062" lon="9.4041933"><ele>1142.6666666666665</ele><time>2026-04-22T12:54:02.617Z</time></trkpt><trkpt lat="40.0769927" lon="9.4041067"><ele>1144.0</ele><time>2026-04-22T12:54:03.615Z</time></trkpt><trkpt lat="40.0769364" lon="9.4039746"><ele>1144.0</ele><time>2026-04-22T12:54:05.614Z</time></trkpt><trkpt lat="40.0768541" lon="9.403869"><ele>1144.0</ele><time>2026-04-22T12:54:07.616Z</time></trkpt><trkpt lat="40.0767864" lon="9.4037896"><ele>1144.0</ele><time>2026-04-22T12:54:09.617Z</time></trkpt><trkpt lat="40.076674" lon="9.40375"><ele>1144.0</ele><time>2026-04-22T12:54:11.63Z</time></trkpt><trkpt lat="40.0765669" lon="9.4037519"><ele>1144.0</ele><time>2026-04-22T12:54:13.627Z</time></trkpt><trkpt lat="40.0764585" lon="9.4037674"><ele>1142.8333333333333</ele><time>2026-04-22T12:54:15.625Z</time></trkpt><trkpt lat="40.0763339" lon="9.4038041"><ele>1141.6666666666665</ele><time>2026-04-22T12:54:17.621Z</time></trkpt><trkpt lat="40.0762637" lon="9.403841"><ele>1140.5</ele><time>2026-04-22T12:54:18.628Z</time></trkpt><trkpt lat="40.0761924" lon="9.4038677"><ele>1139.3333333333333</ele><time>2026-04-22T12:54:19.618Z</time></trkpt><trkpt lat="40.0761156" lon="9.4038951"><ele>1138.1666666666667</ele><time>2026-04-22T12:54:20.616Z</time></trkpt><trkpt lat="40.0760475" lon="9.4039277"><ele>1137.0</ele><time>2026-04-22T12:54:21.627Z</time></trkpt><trkpt lat="40.0759783" lon="9.4039595"><ele>1136.9999999999998</ele><time>2026-04-22T12:54:22.613Z</time></trkpt><trkpt lat="40.0759057" lon="9.4039781"><ele>1137.0</ele><time>2026-04-22T12:54:23.603Z</time></trkpt><trkpt lat="40.0758293" lon="9.4039672"><ele>1137.0</ele><time>2026-04-22T12:54:24.614Z</time></trkpt><trkpt lat="40.07576" lon="9.4039332"><ele>1137.0</ele><time>2026-04-22T12:54:25.614Z</time></trkpt><trkpt lat="40.0756949" lon="9.4039085"><ele>1137.0</ele><time>2026-04-22T12:54:26.61Z</time></trkpt><trkpt lat="40.075632" lon="9.4038963"><ele>1136.9999999999998</ele><time>2026-04-22T12:54:27.623Z</time></trkpt><trkpt lat="40.0755669" lon="9.403874"><ele>1137.0</ele><time>2026-04-22T12:54:28.613Z</time></trkpt><trkpt lat="40.0754573" lon="9.4038321"><ele>1131.6666666666667</ele><time>2026-04-22T12:54:30.61Z</time></trkpt><trkpt lat="40.075338" lon="9.4037972"><ele>1126.3333333333333</ele><time>2026-04-22T12:54:32.612Z</time></trkpt><trkpt lat="40.0752746" lon="9.4037956"><ele>1121.0</ele><time>2026-04-22T12:54:33.613Z</time></trkpt><trkpt lat="40.0752077" lon="9.4037864"><ele>1115.6666666666665</ele><time>2026-04-22T12:54:34.608Z</time></trkpt><trkpt lat="40.0751374" lon="9.403793"><ele>1110.3333333333333</ele><time>2026-04-22T12:54:35.611Z</time></trkpt><trkpt lat="40.0750664" lon="9.4037962"><ele>1105.0</ele><time>2026-04-22T12:54:36.622Z</time></trkpt><trkpt lat="40.0749396" lon="9.4038091"><ele>1103.6</ele><time>2026-04-22T12:54:38.62Z</time></trkpt><trkpt lat="40.0748238" lon="9.4038179"><ele>1102.2</ele><time>2026-04-22T12:54:40.606Z</time></trkpt><trkpt lat="40.0747457" lon="9.4037598"><ele>1100.8</ele><time>2026-04-22T12:54:42.61Z</time></trkpt><trkpt lat="40.0747481" lon="9.4036377"><ele>1099.4</ele><time>2026-04-22T12:54:44.601Z</time></trkpt><trkpt lat="40.0747835" lon="9.403556"><ele>1098.0</ele><time>2026-04-22T12:54:45.604Z</time></trkpt><trkpt lat="40.0748431" lon="9.4034423"><ele>1098.0</ele><time>2026-04-22T12:54:47.607Z</time></trkpt><trkpt lat="40.0748261" lon="9.4033347"><ele>1098.0</ele><time>2026-04-22T12:54:49.617Z</time></trkpt><trkpt lat="40.0747023" lon="9.4032792"><ele>1098.0</ele><time>2026-04-22T12:54:51.607Z</time></trkpt><trkpt lat="40.0745792" lon="9.4032445"><ele>1098.0</ele><time>2026-04-22T12:54:53.614Z</time></trkpt><trkpt lat="40.0744787" lon="9.4032075"><ele>1098.0</ele><time>2026-04-22T12:54:55.611Z</time></trkpt><trkpt lat="40.0743939" lon="9.4031296"><ele>1098.0</ele><time>2026-04-22T12:54:57.615Z</time></trkpt><trkpt lat="40.0743205" lon="9.4030702"><ele>1098.0</ele><time>2026-04-22T12:54:59.609Z</time></trkpt><trkpt lat="40.0742454" lon="9.4030645"><ele>1098.0</ele><time>2026-04-22T12:55:58.621Z</time></trkpt><trkpt lat="40.0741181" lon="9.4030126"><ele>1098.0</ele><time>2026-04-22T12:57:00.61Z</time></trkpt><trkpt lat="40.0740379" lon="9.4029832"><ele>1098.0</ele><time>2026-04-22T12:57:01.611Z</time></trkpt><trkpt lat="40.0739272" lon="9.402957"><ele>1095.8333333333333</ele><time>2026-04-22T12:57:02.61Z</time></trkpt><trkpt lat="40.0738532" lon="9.4029328"><ele>1093.6666666666667</ele><time>2026-04-22T12:57:03.617Z</time></trkpt><trkpt lat="40.0737847" lon="9.4029115"><ele>1091.5</ele><time>2026-04-22T12:57:04.612Z</time></trkpt><trkpt lat="40.0736628" lon="9.4028646"><ele>1089.3333333333335</ele><time>2026-04-22T12:57:06.618Z</time></trkpt><trkpt lat="40.0735531" lon="9.4028632"><ele>1087.1666666666667</ele><time>2026-04-22T12:57:08.61Z</time></trkpt><trkpt lat="40.073488" lon="9.4028509"><ele>1085.0</ele><time>2026-04-22T12:57:09.608Z</time></trkpt><trkpt lat="40.0733665" lon="9.4028033"><ele>1085.0</ele><time>2026-04-22T12:57:11.607Z</time></trkpt><trkpt lat="40.0732982" lon="9.4027866"><ele>1085.0</ele><time>2026-04-22T12:57:12.607Z</time></trkpt><trkpt lat="40.0732337" lon="9.4027771"><ele>1085.0</ele><time>2026-04-22T12:57:13.61Z</time></trkpt><trkpt lat="40.0731383" lon="9.4027987"><ele>1085.0</ele><time>2026-04-22T12:57:15.619Z</time></trkpt><trkpt lat="40.0730475" lon="9.4027947"><ele>1085.0</ele><time>2026-04-22T12:57:17.607Z</time></trkpt><trkpt lat="40.0729926" lon="9.4027145"><ele>1085.0</ele><time>2026-04-22T12:57:19.602Z</time></trkpt><trkpt lat="40.0729541" lon="9.4025923"><ele>1082.8</ele><time>2026-04-22T12:57:21.601Z</time></trkpt><trkpt lat="40.0728687" lon="9.4024889"><ele>1080.6</ele><time>2026-04-22T12:57:23.608Z</time></trkpt><trkpt lat="40.0728155" lon="9.4024349"><ele>1078.4</ele><time>2026-04-22T12:57:24.607Z</time></trkpt><trkpt lat="40.0727162" lon="9.4023813"><ele>1076.2</ele><time>2026-04-22T12:57:26.608Z</time></trkpt><trkpt lat="40.0726188" lon="9.4023746"><ele>1074.0</ele><time>2026-04-22T12:57:28.609Z</time></trkpt><trkpt lat="40.0725509" lon="9.4023922"><ele>1074.0</ele><time>2026-04-22T12:57:29.61Z</time></trkpt><trkpt lat="40.0724746" lon="9.4024179"><ele>1074.0</ele><time>2026-04-22T12:57:30.609Z</time></trkpt><trkpt lat="40.0723951" lon="9.4024359"><ele>1074.0</ele><time>2026-04-22T12:57:31.607Z</time></trkpt><trkpt lat="40.0723255" lon="9.4024653"><ele>1074.0</ele><time>2026-04-22T12:57:32.613Z</time></trkpt><trkpt lat="40.0722626" lon="9.4024848"><ele>1074.0</ele><time>2026-04-22T12:57:33.611Z</time></trkpt><trkpt lat="40.0721439" lon="9.4024809"><ele>1074.0</ele><time>2026-04-22T12:57:35.603Z</time></trkpt><trkpt lat="40.0720774" lon="9.4024686"><ele>1073.1666666666667</ele><time>2026-04-22T12:57:36.607Z</time></trkpt><trkpt lat="40.0720096" lon="9.4024479"><ele>1072.3333333333333</ele><time>2026-04-22T12:57:37.604Z</time></trkpt><trkpt lat="40.0719403" lon="9.4024183"><ele>1071.5</ele><time>2026-04-22T12:57:38.606Z</time></trkpt><trkpt lat="40.0718209" lon="9.4023738"><ele>1070.6666666666665</ele><time>2026-04-22T12:57:40.606Z</time></trkpt><trkpt lat="40.0717538" lon="9.4023607"><ele>1069.8333333333333</ele><time>2026-04-22T12:57:41.6Z</time></trkpt><trkpt lat="40.0716844" lon="9.4023474"><ele>1069.0</ele><time>2026-04-22T12:57:42.601Z</time></trkpt><trkpt lat="40.0716176" lon="9.4023119"><ele>1068.1666666666665</ele><time>2026-04-22T12:57:43.62Z</time></trkpt><trkpt lat="40.0715532" lon="9.4022848"><ele>1067.3333333333333</ele><time>2026-04-22T12:57:44.612Z</time></trkpt><trkpt lat="40.0714887" lon="9.4022606"><ele>1066.5</ele><time>2026-04-22T12:57:45.619Z</time></trkpt><trkpt lat="40.0714246" lon="9.4022441"><ele>1065.6666666666667</ele><time>2026-04-22T12:57:46.612Z</time></trkpt><trkpt lat="40.071306" lon="9.4022273"><ele>1064.8333333333335</ele><time>2026-04-22T12:57:48.614Z</time></trkpt><trkpt lat="40.0711991" lon="9.4022423"><ele>1064.0</ele><time>2026-04-22T12:57:50.612Z</time></trkpt><trkpt lat="40.0710677" lon="9.4022587"><ele>1064.0</ele><time>2026-04-22T12:57:52.612Z</time></trkpt><trkpt lat="40.0710042" lon="9.4022526"><ele>1064.0</ele><time>2026-04-22T12:57:53.606Z</time></trkpt><trkpt lat="40.0709353" lon="9.4022442"><ele>1064.0</ele><time>2026-04-22T12:57:54.608Z</time></trkpt><trkpt lat="40.0708656" lon="9.4022443"><ele>1064.0</ele><time>2026-04-22T12:57:55.609Z</time></trkpt><trkpt lat="40.0707929" lon="9.4022507"><ele>1064.0</ele><time>2026-04-22T12:57:56.61Z</time></trkpt><trkpt lat="40.0707221" lon="9.4022741"><ele>1064.0</ele><time>2026-04-22T12:57:57.613Z</time></trkpt><trkpt lat="40.0706498" lon="9.4023015"><ele>1064.0</ele><time>2026-04-22T12:57:58.62Z</time></trkpt><trkpt lat="40.0705748" lon="9.4023205"><ele>1063.0</ele><time>2026-04-22T12:57:59.614Z</time></trkpt><trkpt lat="40.0705123" lon="9.4023364"><ele>1062.0</ele><time>2026-04-22T12:58:00.612Z</time></trkpt><trkpt lat="40.0704029" lon="9.4023755"><ele>1061.0</ele><time>2026-04-22T12:58:02.611Z</time></trkpt><trkpt lat="40.0702872" lon="9.402442"><ele>1060.0</ele><time>2026-04-22T12:58:04.61Z</time></trkpt><trkpt lat="40.0701801" lon="9.4024939"><ele>1059.0</ele><time>2026-04-22T12:58:06.603Z</time></trkpt><trkpt lat="40.0700902" lon="9.402445"><ele>1059.0</ele><time>2026-04-22T12:58:08.616Z</time></trkpt><trkpt lat="40.07001" lon="9.4023031"><ele>1059.0</ele><time>2026-04-22T12:58:10.615Z</time></trkpt><trkpt lat="40.0699553" lon="9.402215"><ele>1059.0</ele><time>2026-04-22T12:58:11.608Z</time></trkpt><trkpt lat="40.0698727" lon="9.4021613"><ele>1059.0</ele><time>2026-04-22T12:58:12.606Z</time></trkpt><trkpt lat="40.0698008" lon="9.4021218"><ele>1059.0</ele><time>2026-04-22T12:58:13.613Z</time></trkpt><trkpt lat="40.0697359" lon="9.4020808"><ele>1057.142857142857</ele><time>2026-04-22T12:58:14.607Z</time></trkpt><trkpt lat="40.0696801" lon="9.402033"><ele>1055.2857142857142</ele><time>2026-04-22T12:58:15.601Z</time></trkpt><trkpt lat="40.0696229" lon="9.4019886"><ele>1053.4285714285713</ele><time>2026-04-22T12:58:16.617Z</time></trkpt><trkpt lat="40.0695633" lon="9.4019575"><ele>1051.5714285714284</ele><time>2026-04-22T12:58:17.606Z</time></trkpt><trkpt lat="40.0694938" lon="9.4019204"><ele>1049.7142857142858</ele><time>2026-04-22T12:58:18.606Z</time></trkpt><trkpt lat="40.0694286" lon="9.4019001"><ele>1047.8571428571427</ele><time>2026-04-22T12:58:19.605Z</time></trkpt><trkpt lat="40.0693644" lon="9.4018842"><ele>1046.0</ele><time>2026-04-22T12:58:20.603Z</time></trkpt><trkpt lat="40.0692996" lon="9.4019003"><ele>1046.0</ele><time>2026-04-22T12:58:21.605Z</time></trkpt><trkpt lat="40.0691857" lon="9.4019371"><ele>1046.0</ele><time>2026-04-22T12:58:23.604Z</time></trkpt><trkpt lat="40.0690775" lon="9.4019211"><ele>1046.0</ele><time>2026-04-22T12:58:25.611Z</time></trkpt><trkpt lat="40.0690091" lon="9.4019269"><ele>1046.0</ele><time>2026-04-22T12:58:26.612Z</time></trkpt><trkpt lat="40.0689307" lon="9.4019395"><ele>1046.0</ele><time>2026-04-22T12:58:27.617Z</time></trkpt><trkpt lat="40.0688524" lon="9.4019506"><ele>1044.5714285714284</ele><time>2026-04-22T12:58:28.605Z</time></trkpt><trkpt lat="40.0687825" lon="9.401965"><ele>1043.142857142857</ele><time>2026-04-22T12:58:29.598Z</time></trkpt><trkpt lat="40.0687123" lon="9.4019716"><ele>1041.7142857142858</ele><time>2026-04-22T12:58:30.606Z</time></trkpt><trkpt lat="40.0686428" lon="9.4019584"><ele>1040.2857142857142</ele><time>2026-04-22T12:58:31.608Z</time></trkpt><trkpt lat="40.0685771" lon="9.4019385"><ele>1038.857142857143</ele><time>2026-04-22T12:58:32.604Z</time></trkpt><trkpt lat="40.0685083" lon="9.4019237"><ele>1037.4285714285713</ele><time>2026-04-22T12:58:33.606Z</time></trkpt><trkpt lat="40.0684452" lon="9.4019164"><ele>1036.0</ele><time>2026-04-22T12:58:34.609Z</time></trkpt><trkpt lat="40.0683201" lon="9.4019273"><ele>1036.2</ele><time>2026-04-22T12:58:36.603Z</time></trkpt><trkpt lat="40.0682526" lon="9.401946"><ele>1036.3999999999999</ele><time>2026-04-22T12:58:37.604Z</time></trkpt><trkpt lat="40.0681445" lon="9.4019741"><ele>1036.6</ele><time>2026-04-22T12:58:39.605Z</time></trkpt><trkpt lat="40.0680613" lon="9.4019333"><ele>1036.8</ele><time>2026-04-22T12:58:41.596Z</time></trkpt><trkpt lat="40.06803" lon="9.401861"><ele>1037.0</ele><time>2026-04-22T12:58:42.602Z</time></trkpt><trkpt lat="40.0679913" lon="9.4017002"><ele>1037.0</ele><time>2026-04-22T12:58:44.605Z</time></trkpt><trkpt lat="40.0679416" lon="9.4016278"><ele>1037.0</ele><time>2026-04-22T12:58:45.63Z</time></trkpt><trkpt lat="40.0678531" lon="9.4015301"><ele>1037.0</ele><time>2026-04-22T12:58:47.616Z</time></trkpt><trkpt lat="40.0677422" lon="9.401464"><ele>1037.0</ele><time>2026-04-22T12:58:49.614Z</time></trkpt><trkpt lat="40.0676733" lon="9.4014345"><ele>1037.0</ele><time>2026-04-22T12:58:50.622Z</time></trkpt><trkpt lat="40.0676041" lon="9.4014117"><ele>1037.0</ele><time>2026-04-22T12:58:51.62Z</time></trkpt><trkpt lat="40.0675379" lon="9.4013964"><ele>1037.0</ele><time>2026-04-22T12:58:52.628Z</time></trkpt><trkpt lat="40.0674643" lon="9.4013737"><ele>1037.0</ele><time>2026-04-22T12:58:53.62Z</time></trkpt><trkpt lat="40.0673909" lon="9.4013456"><ele>1037.0</ele><time>2026-04-22T12:58:54.622Z</time></trkpt><trkpt lat="40.0673171" lon="9.4013079"><ele>1037.0</ele><time>2026-04-22T12:58:55.62Z</time></trkpt><trkpt lat="40.0672493" lon="9.4012694"><ele>1037.0</ele><time>2026-04-22T12:58:56.623Z</time></trkpt><trkpt lat="40.0671802" lon="9.4012263"><ele>1037.0</ele><time>2026-04-22T12:58:57.626Z</time></trkpt><trkpt lat="40.0671114" lon="9.4011827"><ele>1035.857142857143</ele><time>2026-04-22T12:58:58.627Z</time></trkpt><trkpt lat="40.0670523" lon="9.4011353"><ele>1034.7142857142858</ele><time>2026-04-22T12:58:59.617Z</time></trkpt><trkpt lat="40.0669897" lon="9.4010957"><ele>1033.5714285714284</ele><time>2026-04-22T12:59:00.622Z</time></trkpt><trkpt lat="40.0669378" lon="9.4010469"><ele>1032.4285714285716</ele><time>2026-04-22T12:59:01.619Z</time></trkpt><trkpt lat="40.0668851" lon="9.4009861"><ele>1031.2857142857142</ele><time>2026-04-22T12:59:02.625Z</time></trkpt><trkpt lat="40.066833" lon="9.4009321"><ele>1030.142857142857</ele><time>2026-04-22T12:59:03.632Z</time></trkpt><trkpt lat="40.0667879" lon="9.400867"><ele>1029.0</ele><time>2026-04-22T12:59:04.614Z</time></trkpt><trkpt lat="40.0667456" lon="9.4008003"><ele>1029.0</ele><time>2026-04-22T12:59:05.621Z</time></trkpt><trkpt lat="40.0666629" lon="9.4006718"><ele>1029.0</ele><time>2026-04-22T12:59:07.621Z</time></trkpt><trkpt lat="40.0666208" lon="9.4006063"><ele>1029.0</ele><time>2026-04-22T12:59:08.62Z</time></trkpt><trkpt lat="40.0665595" lon="9.4005321"><ele>1029.0</ele><time>2026-04-22T12:59:09.624Z</time></trkpt><trkpt lat="40.0665145" lon="9.40045"><ele>1029.0</ele><time>2026-04-22T12:59:10.625Z</time></trkpt><trkpt lat="40.0664681" lon="9.4003806"><ele>1029.0</ele><time>2026-04-22T12:59:11.624Z</time></trkpt><trkpt lat="40.0664167" lon="9.4002984"><ele>1027.5714285714287</ele><time>2026-04-22T12:59:12.631Z</time></trkpt><trkpt lat="40.0663704" lon="9.4002154"><ele>1026.142857142857</ele><time>2026-04-22T12:59:13.626Z</time></trkpt><trkpt lat="40.0663195" lon="9.4001395"><ele>1024.7142857142858</ele><time>2026-04-22T12:59:14.619Z</time></trkpt><trkpt lat="40.0662712" lon="9.4000703"><ele>1023.2857142857143</ele><time>2026-04-22T12:59:15.619Z</time></trkpt><trkpt lat="40.0662353" lon="9.3999922"><ele>1021.8571428571429</ele><time>2026-04-22T12:59:16.621Z</time></trkpt><trkpt lat="40.066195" lon="9.399923"><ele>1020.4285714285716</ele><time>2026-04-22T12:59:17.62Z</time></trkpt><trkpt lat="40.0661596" lon="9.3998513"><ele>1019.0000000000001</ele><time>2026-04-22T12:59:18.625Z</time></trkpt><trkpt lat="40.0661362" lon="9.3997669"><ele>1019.0000000000001</ele><time>2026-04-22T12:59:19.618Z</time></trkpt><trkpt lat="40.0661141" lon="9.3996878"><ele>1019.0</ele><time>2026-04-22T12:59:20.635Z</time></trkpt><trkpt lat="40.0660837" lon="9.3995958"><ele>1019.0</ele><time>2026-04-22T12:59:21.625Z</time></trkpt><trkpt lat="40.0660402" lon="9.3995083"><ele>1019.0</ele><time>2026-04-22T12:59:22.622Z</time></trkpt><trkpt lat="40.0659903" lon="9.3994318"><ele>1019.0000000000001</ele><time>2026-04-22T12:59:23.614Z</time></trkpt><trkpt lat="40.0659174" lon="9.3993067"><ele>1019.0</ele><time>2026-04-22T12:59:25.628Z</time></trkpt><trkpt lat="40.0658822" lon="9.3991487"><ele>1018.6666666666667</ele><time>2026-04-22T12:59:27.623Z</time></trkpt><trkpt lat="40.0658688" lon="9.3990531"><ele>1018.3333333333334</ele><time>2026-04-22T12:59:28.62Z</time></trkpt><trkpt lat="40.0658475" lon="9.3989493"><ele>1018.0</ele><time>2026-04-22T12:59:29.623Z</time></trkpt><trkpt lat="40.0658146" lon="9.3988498"><ele>1017.6666666666667</ele><time>2026-04-22T12:59:30.625Z</time></trkpt><trkpt lat="40.06579" lon="9.3987509"><ele>1017.3333333333334</ele><time>2026-04-22T12:59:31.625Z</time></trkpt><trkpt lat="40.0657652" lon="9.3986501"><ele>1017.0</ele><time>2026-04-22T12:59:32.622Z</time></trkpt><trkpt lat="40.0657279" lon="9.3985606"><ele>1017.0</ele><time>2026-04-22T12:59:33.614Z</time></trkpt><trkpt lat="40.065672" lon="9.3985036"><ele>1017.0</ele><time>2026-04-22T12:59:34.618Z</time></trkpt><trkpt lat="40.0656155" lon="9.3984545"><ele>1017.0</ele><time>2026-04-22T12:59:35.628Z</time></trkpt><trkpt lat="40.0655555" lon="9.3983948"><ele>1017.0</ele><time>2026-04-22T12:59:36.621Z</time></trkpt><trkpt lat="40.0655015" lon="9.3983203"><ele>1017.0</ele><time>2026-04-22T12:59:37.626Z</time></trkpt><trkpt lat="40.0654497" lon="9.3982461"><ele>1017.0</ele><time>2026-04-22T12:59:38.623Z</time></trkpt><trkpt lat="40.0653899" lon="9.3981681"><ele>1017.0</ele><time>2026-04-22T12:59:39.632Z</time></trkpt><trkpt lat="40.0653347" lon="9.3980852"><ele>1017.0</ele><time>2026-04-22T12:59:40.629Z</time></trkpt><trkpt lat="40.0652783" lon="9.3980102"><ele>1017.0</ele><time>2026-04-22T12:59:41.624Z</time></trkpt><trkpt lat="40.0652267" lon="9.3979301"><ele>1017.0</ele><time>2026-04-22T12:59:42.624Z</time></trkpt><trkpt lat="40.0651819" lon="9.397844"><ele>1017.0</ele><time>2026-04-22T12:59:43.636Z</time></trkpt><trkpt lat="40.0651384" lon="9.3977481"><ele>1017.0</ele><time>2026-04-22T12:59:44.623Z</time></trkpt><trkpt lat="40.0650872" lon="9.3976489"><ele>1017.0</ele><time>2026-04-22T12:59:45.629Z</time></trkpt><trkpt lat="40.0650298" lon="9.3975634"><ele>1017.0</ele><time>2026-04-22T12:59:46.624Z</time></trkpt><trkpt lat="40.0649695" lon="9.3974864"><ele>1017.0</ele><time>2026-04-22T12:59:47.628Z</time></trkpt><trkpt lat="40.0648944" lon="9.3974173"><ele>1017.0</ele><time>2026-04-22T12:59:48.71Z</time></trkpt><trkpt lat="40.0648204" lon="9.3973593"><ele>1017.0</ele><time>2026-04-22T12:59:49.705Z</time></trkpt><trkpt lat="40.0647443" lon="9.3973011"><ele>1017.0</ele><time>2026-04-22T12:59:50.709Z</time></trkpt><trkpt lat="40.0646641" lon="9.3972457"><ele>1017.0</ele><time>2026-04-22T12:59:51.691Z</time></trkpt><trkpt lat="40.064585" lon="9.3971922"><ele>1017.0</ele><time>2026-04-22T12:59:52.696Z</time></trkpt><trkpt lat="40.0645088" lon="9.3971292"><ele>1017.0</ele><time>2026-04-22T12:59:53.692Z</time></trkpt><trkpt lat="40.0644305" lon="9.3970711"><ele>1017.0</ele><time>2026-04-22T12:59:54.698Z</time></trkpt><trkpt lat="40.0643506" lon="9.3970135"><ele>1017.0</ele><time>2026-04-22T12:59:55.681Z</time></trkpt><trkpt lat="40.0642762" lon="9.3969528"><ele>1017.0</ele><time>2026-04-22T12:59:56.686Z</time></trkpt><trkpt lat="40.0641963" lon="9.396894"><ele>1014.5</ele><time>2026-04-22T12:59:57.7Z</time></trkpt><trkpt lat="40.0641198" lon="9.3968466"><ele>1012.0</ele><time>2026-04-22T12:59:58.686Z</time></trkpt><trkpt lat="40.0640356" lon="9.3967992"><ele>1009.5</ele><time>2026-04-22T12:59:59.678Z</time></trkpt><trkpt lat="40.0639543" lon="9.3967474"><ele>1007.0</ele><time>2026-04-22T13:00:00.67Z</time></trkpt><trkpt lat="40.0638715" lon="9.3967127"><ele>1004.5</ele><time>2026-04-22T13:00:01.673Z</time></trkpt><trkpt lat="40.063789" lon="9.3966588"><ele>1002.0</ele><time>2026-04-22T13:00:02.664Z</time></trkpt><trkpt lat="40.0637021" lon="9.3966086"><ele>1002.0</ele><time>2026-04-22T13:00:03.668Z</time></trkpt><trkpt lat="40.0636047" lon="9.3965752"><ele>1002.0</ele><time>2026-04-22T13:00:04.68Z</time></trkpt><trkpt lat="40.0635138" lon="9.3965415"><ele>1002.0</ele><time>2026-04-22T13:00:05.683Z</time></trkpt><trkpt lat="40.0634481" lon="9.3965195"><ele>1002.0</ele><time>2026-04-22T13:00:06.666Z</time></trkpt><trkpt lat="40.0633377" lon="9.3964234"><ele>1002.0</ele><time>2026-04-22T13:00:07.578Z</time></trkpt><trkpt lat="40.0632478" lon="9.3963858"><ele>1000.4000000000001</ele><time>2026-04-22T13:00:08.58Z</time></trkpt><trkpt lat="40.0631536" lon="9.3963316"><ele>998.8000000000001</ele><time>2026-04-22T13:00:09.585Z</time></trkpt><trkpt lat="40.0630663" lon="9.3962701"><ele>997.2</ele><time>2026-04-22T13:00:10.597Z</time></trkpt><trkpt lat="40.0629841" lon="9.3962008"><ele>995.6</ele><time>2026-04-22T13:00:11.592Z</time></trkpt><trkpt lat="40.0629057" lon="9.3961291"><ele>994.0</ele><time>2026-04-22T13:00:12.589Z</time></trkpt><trkpt lat="40.0628233" lon="9.396073"><ele>994.0</ele><time>2026-04-22T13:00:13.593Z</time></trkpt><trkpt lat="40.0627288" lon="9.3960256"><ele>994.0000000000001</ele><time>2026-04-22T13:00:14.594Z</time></trkpt><trkpt lat="40.0626332" lon="9.3959825"><ele>994.0000000000001</ele><time>2026-04-22T13:00:15.6Z</time></trkpt><trkpt lat="40.0625542" lon="9.3959402"><ele>994.0</ele><time>2026-04-22T13:00:16.597Z</time></trkpt><trkpt lat="40.0624897" lon="9.3958835"><ele>994.0</ele><time>2026-04-22T13:00:17.595Z</time></trkpt><trkpt lat="40.0624151" lon="9.395819"><ele>994.0</ele><time>2026-04-22T13:00:18.591Z</time></trkpt><trkpt lat="40.0623351" lon="9.395765"><ele>994.0000000000001</ele><time>2026-04-22T13:00:19.596Z</time></trkpt><trkpt lat="40.0622541" lon="9.3957255"><ele>994.0000000000001</ele><time>2026-04-22T13:00:20.599Z</time></trkpt><trkpt lat="40.0621652" lon="9.395693"><ele>994.0</ele><time>2026-04-22T13:00:21.598Z</time></trkpt><trkpt lat="40.0620696" lon="9.3956533"><ele>994.0</ele><time>2026-04-22T13:00:22.599Z</time></trkpt><trkpt lat="40.0619794" lon="9.39561"><ele>994.0</ele><time>2026-04-22T13:00:23.595Z</time></trkpt><trkpt lat="40.0618824" lon="9.3955709"><ele>994.0000000000001</ele><time>2026-04-22T13:00:24.601Z</time></trkpt><trkpt lat="40.0617831" lon="9.3955495"><ele>994.0000000000001</ele><time>2026-04-22T13:00:25.59Z</time></trkpt><trkpt lat="40.061672" lon="9.3955218"><ele>994.0</ele><time>2026-04-22T13:00:26.597Z</time></trkpt><trkpt lat="40.061564" lon="9.39549"><ele>994.0</ele><time>2026-04-22T13:00:27.599Z</time></trkpt><trkpt lat="40.061459" lon="9.3954646"><ele>992.6</ele><time>2026-04-22T13:00:28.598Z</time></trkpt><trkpt lat="40.0613574" lon="9.3954283"><ele>991.2</ele><time>2026-04-22T13:00:29.598Z</time></trkpt><trkpt lat="40.0612533" lon="9.3953956"><ele>989.8000000000001</ele><time>2026-04-22T13:00:30.597Z</time></trkpt><trkpt lat="40.0611426" lon="9.3953639"><ele>988.4000000000001</ele><time>2026-04-22T13:00:31.596Z</time></trkpt><trkpt lat="40.0610285" lon="9.3953322"><ele>987.0</ele><time>2026-04-22T13:00:32.601Z</time></trkpt><trkpt lat="40.0609201" lon="9.3952852"><ele>987.0</ele><time>2026-04-22T13:00:33.606Z</time></trkpt><trkpt lat="40.0608267" lon="9.3952346"><ele>987.0</ele><time>2026-04-22T13:00:34.595Z</time></trkpt><trkpt lat="40.0607347" lon="9.3951821"><ele>987.0</ele><time>2026-04-22T13:00:35.604Z</time></trkpt><trkpt lat="40.0606427" lon="9.3951285"><ele>987.0</ele><time>2026-04-22T13:00:36.602Z</time></trkpt><trkpt lat="40.0605514" lon="9.3950815"><ele>987.0</ele><time>2026-04-22T13:00:37.599Z</time></trkpt><trkpt lat="40.0604613" lon="9.3950408"><ele>987.4000000000001</ele><time>2026-04-22T13:00:38.611Z</time></trkpt><trkpt lat="40.060365" lon="9.3949922"><ele>987.8000000000001</ele><time>2026-04-22T13:00:39.597Z</time></trkpt><trkpt lat="40.0602662" lon="9.3949361"><ele>988.2</ele><time>2026-04-22T13:00:40.599Z</time></trkpt><trkpt lat="40.0601695" lon="9.3948848"><ele>988.6</ele><time>2026-04-22T13:00:41.599Z</time></trkpt><trkpt lat="40.0600786" lon="9.3948331"><ele>989.0</ele><time>2026-04-22T13:00:42.597Z</time></trkpt><trkpt lat="40.0599986" lon="9.3947763"><ele>987.8000000000001</ele><time>2026-04-22T13:00:43.592Z</time></trkpt><trkpt lat="40.0599183" lon="9.3947138"><ele>986.6000000000001</ele><time>2026-04-22T13:00:44.597Z</time></trkpt><trkpt lat="40.0598237" lon="9.3946571"><ele>985.4</ele><time>2026-04-22T13:00:45.596Z</time></trkpt><trkpt lat="40.0597347" lon="9.3945912"><ele>984.2</ele><time>2026-04-22T13:00:46.594Z</time></trkpt><trkpt lat="40.0596395" lon="9.3945413"><ele>983.0</ele><time>2026-04-22T13:00:47.597Z</time></trkpt><trkpt lat="40.059541" lon="9.3944899"><ele>983.0</ele><time>2026-04-22T13:00:48.592Z</time></trkpt><trkpt lat="40.0594447" lon="9.3944385"><ele>983.0</ele><time>2026-04-22T13:00:49.596Z</time></trkpt><trkpt lat="40.0593596" lon="9.3943796"><ele>983.0</ele><time>2026-04-22T13:00:50.593Z</time></trkpt><trkpt lat="40.0592802" lon="9.3943291"><ele>983.0</ele><time>2026-04-22T13:00:51.598Z</time></trkpt><trkpt lat="40.0591921" lon="9.3942819"><ele>983.0</ele><time>2026-04-22T13:00:52.593Z</time></trkpt><trkpt lat="40.0591088" lon="9.394241"><ele>982.6666666666667</ele><time>2026-04-22T13:00:53.592Z</time></trkpt><trkpt lat="40.0590336" lon="9.3942041"><ele>982.3333333333334</ele><time>2026-04-22T13:00:54.599Z</time></trkpt><trkpt lat="40.058963" lon="9.3941656"><ele>982.0</ele><time>2026-04-22T13:00:55.597Z</time></trkpt><trkpt lat="40.0588943" lon="9.3941322"><ele>981.6666666666667</ele><time>2026-04-22T13:00:56.594Z</time></trkpt><trkpt lat="40.0588212" lon="9.3940951"><ele>981.3333333333334</ele><time>2026-04-22T13:00:57.593Z</time></trkpt><trkpt lat="40.0587552" lon="9.39405"><ele>981.0</ele><time>2026-04-22T13:00:58.598Z</time></trkpt><trkpt lat="40.0586893" lon="9.3940102"><ele>981.0</ele><time>2026-04-22T13:00:59.594Z</time></trkpt><trkpt lat="40.0586264" lon="9.3939793"><ele>981.0</ele><time>2026-04-22T13:01:00.599Z</time></trkpt><trkpt lat="40.0585128" lon="9.393954"><ele>981.0</ele><time>2026-04-22T13:01:02.602Z</time></trkpt><trkpt lat="40.0584031" lon="9.3938936"><ele>981.0</ele><time>2026-04-22T13:01:04.595Z</time></trkpt><trkpt lat="40.0583424" lon="9.3938437"><ele>981.0</ele><time>2026-04-22T13:01:05.598Z</time></trkpt><trkpt lat="40.0582896" lon="9.3937884"><ele>981.0</ele><time>2026-04-22T13:01:06.594Z</time></trkpt><trkpt lat="40.0582394" lon="9.3937236"><ele>981.1666666666666</ele><time>2026-04-22T13:01:07.596Z</time></trkpt><trkpt lat="40.058166" lon="9.3936185"><ele>981.3333333333333</ele><time>2026-04-22T13:01:09.601Z</time></trkpt><trkpt lat="40.0580989" lon="9.3934918"><ele>981.5</ele><time>2026-04-22T13:01:11.596Z</time></trkpt><trkpt lat="40.0580638" lon="9.393412"><ele>981.6666666666666</ele><time>2026-04-22T13:01:12.599Z</time></trkpt><trkpt lat="40.0580271" lon="9.3933313"><ele>981.8333333333333</ele><time>2026-04-22T13:01:13.601Z</time></trkpt><trkpt lat="40.0579872" lon="9.3932472"><ele>982.0</ele><time>2026-04-22T13:01:14.594Z</time></trkpt><trkpt lat="40.0579286" lon="9.3931684"><ele>982.0</ele><time>2026-04-22T13:01:15.592Z</time></trkpt><trkpt lat="40.0578576" lon="9.3931176"><ele>982.0</ele><time>2026-04-22T13:01:16.599Z</time></trkpt><trkpt lat="40.0577741" lon="9.3930719"><ele>982.0</ele><time>2026-04-22T13:01:17.59Z</time></trkpt><trkpt lat="40.0576746" lon="9.3930322"><ele>982.0</ele><time>2026-04-22T13:01:18.599Z</time></trkpt><trkpt lat="40.0575652" lon="9.3929996"><ele>982.0</ele><time>2026-04-22T13:01:19.593Z</time></trkpt><trkpt lat="40.0574518" lon="9.3929796"><ele>979.8</ele><time>2026-04-22T13:01:20.59Z</time></trkpt><trkpt lat="40.0573446" lon="9.3929728"><ele>977.6</ele><time>2026-04-22T13:01:21.599Z</time></trkpt><trkpt lat="40.0572443" lon="9.3929654"><ele>975.3999999999999</ele><time>2026-04-22T13:01:22.599Z</time></trkpt><trkpt lat="40.0571517" lon="9.3929477"><ele>973.1999999999999</ele><time>2026-04-22T13:01:23.598Z</time></trkpt><trkpt lat="40.0570635" lon="9.3929232"><ele>971.0</ele><time>2026-04-22T13:01:24.597Z</time></trkpt><trkpt lat="40.05697" lon="9.3928974"><ele>971.0</ele><time>2026-04-22T13:01:25.6Z</time></trkpt><trkpt lat="40.0568789" lon="9.3928741"><ele>970.9999999999999</ele><time>2026-04-22T13:01:26.599Z</time></trkpt><trkpt lat="40.0567832" lon="9.3928512"><ele>970.9999999999999</ele><time>2026-04-22T13:01:27.609Z</time></trkpt><trkpt lat="40.0566859" lon="9.3928242"><ele>971.0</ele><time>2026-04-22T13:01:28.61Z</time></trkpt><trkpt lat="40.0565732" lon="9.3927915"><ele>971.0</ele><time>2026-04-22T13:01:29.603Z</time></trkpt><trkpt lat="40.0564619" lon="9.3927571"><ele>970.8</ele><time>2026-04-22T13:01:30.603Z</time></trkpt><trkpt lat="40.0563589" lon="9.3927263"><ele>970.5999999999999</ele><time>2026-04-22T13:01:31.607Z</time></trkpt><trkpt lat="40.056256" lon="9.3926934"><ele>970.4</ele><time>2026-04-22T13:01:32.601Z</time></trkpt><trkpt lat="40.0561469" lon="9.392674"><ele>970.2</ele><time>2026-04-22T13:01:33.604Z</time></trkpt><trkpt lat="40.0560416" lon="9.39266"><ele>970.0</ele><time>2026-04-22T13:01:34.6Z</time></trkpt><trkpt lat="40.0559313" lon="9.3926505"><ele>970.0</ele><time>2026-04-22T13:01:35.608Z</time></trkpt><trkpt lat="40.0558246" lon="9.3926416"><ele>970.0</ele><time>2026-04-22T13:01:36.599Z</time></trkpt><trkpt lat="40.0557218" lon="9.3926285"><ele>970.0</ele><time>2026-04-22T13:01:37.604Z</time></trkpt><trkpt lat="40.0556223" lon="9.3926225"><ele>970.0</ele><time>2026-04-22T13:01:38.609Z</time></trkpt><trkpt lat="40.0555252" lon="9.3926213"><ele>970.0</ele><time>2026-04-22T13:01:39.601Z</time></trkpt><trkpt lat="40.0554307" lon="9.3926327"><ele>969.9999999999999</ele><time>2026-04-22T13:01:40.597Z</time></trkpt><trkpt lat="40.0553494" lon="9.3926469"><ele>970.0</ele><time>2026-04-22T13:01:41.596Z</time></trkpt><trkpt lat="40.0552793" lon="9.3926779"><ele>970.0</ele><time>2026-04-22T13:01:42.595Z</time></trkpt><trkpt lat="40.0552019" lon="9.3927088"><ele>970.0</ele><time>2026-04-22T13:01:43.61Z</time></trkpt><trkpt lat="40.0551211" lon="9.3927376"><ele>969.9999999999999</ele><time>2026-04-22T13:01:44.605Z</time></trkpt><trkpt lat="40.0550398" lon="9.3927466"><ele>970.0</ele><time>2026-04-22T13:01:45.6Z</time></trkpt><trkpt lat="40.0549495" lon="9.3927363"><ele>970.0</ele><time>2026-04-22T13:01:46.606Z</time></trkpt><trkpt lat="40.0548561" lon="9.3927139"><ele>970.0</ele><time>2026-04-22T13:01:47.603Z</time></trkpt><trkpt lat="40.0547669" lon="9.3926848"><ele>970.0</ele><time>2026-04-22T13:01:48.602Z</time></trkpt><trkpt lat="40.054675" lon="9.3926632"><ele>970.0</ele><time>2026-04-22T13:01:49.605Z</time></trkpt><trkpt lat="40.0545675" lon="9.392652"><ele>970.0</ele><time>2026-04-22T13:01:50.602Z</time></trkpt><trkpt lat="40.0544557" lon="9.392633"><ele>969.9999999999999</ele><time>2026-04-22T13:01:51.6Z</time></trkpt><trkpt lat="40.0543564" lon="9.3926163"><ele>970.0</ele><time>2026-04-22T13:01:52.603Z</time></trkpt><trkpt lat="40.0542651" lon="9.3925891"><ele>970.0</ele><time>2026-04-22T13:01:53.599Z</time></trkpt><trkpt lat="40.0541886" lon="9.3925566"><ele>970.0</ele><time>2026-04-22T13:01:54.601Z</time></trkpt><trkpt lat="40.0541143" lon="9.3925088"><ele>969.9999999999999</ele><time>2026-04-22T13:01:55.595Z</time></trkpt><trkpt lat="40.0540339" lon="9.3924503"><ele>970.0</ele><time>2026-04-22T13:01:56.601Z</time></trkpt><trkpt lat="40.0539356" lon="9.3923985"><ele>969.4</ele><time>2026-04-22T13:01:57.596Z</time></trkpt><trkpt lat="40.0538491" lon="9.3923396"><ele>968.8</ele><time>2026-04-22T13:01:58.588Z</time></trkpt><trkpt lat="40.053761" lon="9.3922634"><ele>968.2</ele><time>2026-04-22T13:01:59.594Z</time></trkpt><trkpt lat="40.0536835" lon="9.3921939"><ele>967.6</ele><time>2026-04-22T13:02:00.594Z</time></trkpt><trkpt lat="40.0535964" lon="9.3921414"><ele>967.0</ele><time>2026-04-22T13:02:01.591Z</time></trkpt><trkpt lat="40.0535103" lon="9.3920827"><ele>967.0</ele><time>2026-04-22T13:02:02.585Z</time></trkpt><trkpt lat="40.0534287" lon="9.3920176"><ele>967.0</ele><time>2026-04-22T13:02:03.591Z</time></trkpt><trkpt lat="40.0533601" lon="9.391936"><ele>967.0</ele><time>2026-04-22T13:02:04.582Z</time></trkpt><trkpt lat="40.0532976" lon="9.3918446"><ele>967.0</ele><time>2026-04-22T13:02:05.582Z</time></trkpt><trkpt lat="40.0532418" lon="9.3917527"><ele>967.0</ele><time>2026-04-22T13:02:06.582Z</time></trkpt><trkpt lat="40.0531634" lon="9.3916856"><ele>966.2</ele><time>2026-04-22T13:02:07.588Z</time></trkpt><trkpt lat="40.0530728" lon="9.3916264"><ele>965.4000000000001</ele><time>2026-04-22T13:02:08.586Z</time></trkpt><trkpt lat="40.0529864" lon="9.3915635"><ele>964.5999999999999</ele><time>2026-04-22T13:02:09.591Z</time></trkpt><trkpt lat="40.0529149" lon="9.3914945"><ele>963.8</ele><time>2026-04-22T13:02:10.593Z</time></trkpt><trkpt lat="40.0528597" lon="9.3914155"><ele>963.0</ele><time>2026-04-22T13:02:11.605Z</time></trkpt><trkpt lat="40.0527949" lon="9.3913278"><ele>963.0</ele><time>2026-04-22T13:02:12.593Z</time></trkpt><trkpt lat="40.0527349" lon="9.3912365"><ele>963.0</ele><time>2026-04-22T13:02:13.6Z</time></trkpt><trkpt lat="40.0526651" lon="9.3911551"><ele>963.0</ele><time>2026-04-22T13:02:14.593Z</time></trkpt><trkpt lat="40.0525874" lon="9.3910758"><ele>963.0</ele><time>2026-04-22T13:02:15.602Z</time></trkpt><trkpt lat="40.0525137" lon="9.3909949"><ele>963.0</ele><time>2026-04-22T13:02:16.598Z</time></trkpt><trkpt lat="40.0524346" lon="9.3909118"><ele>964.4</ele><time>2026-04-22T13:02:17.595Z</time></trkpt><trkpt lat="40.052349" lon="9.390828"><ele>965.8</ele><time>2026-04-22T13:02:18.598Z</time></trkpt><trkpt lat="40.0522524" lon="9.3907558"><ele>967.2</ele><time>2026-04-22T13:02:19.598Z</time></trkpt><trkpt lat="40.0521473" lon="9.3907104"><ele>968.6</ele><time>2026-04-22T13:02:20.596Z</time></trkpt><trkpt lat="40.0520589" lon="9.3906734"><ele>970.0</ele><time>2026-04-22T13:02:21.594Z</time></trkpt><trkpt lat="40.0519755" lon="9.3906388"><ele>970.0</ele><time>2026-04-22T13:02:22.595Z</time></trkpt><trkpt lat="40.0518769" lon="9.3905978"><ele>970.0</ele><time>2026-04-22T13:02:23.595Z</time></trkpt><trkpt lat="40.0517758" lon="9.3905576"><ele>970.0</ele><time>2026-04-22T13:02:24.594Z</time></trkpt><trkpt lat="40.0516679" lon="9.3905261"><ele>970.0</ele><time>2026-04-22T13:02:25.603Z</time></trkpt><trkpt lat="40.0515596" lon="9.3904979"><ele>970.0</ele><time>2026-04-22T13:02:26.599Z</time></trkpt><trkpt lat="40.0514507" lon="9.3904782"><ele>967.6</ele><time>2026-04-22T13:02:27.597Z</time></trkpt><trkpt lat="40.0513465" lon="9.3904657"><ele>965.2</ele><time>2026-04-22T13:02:28.597Z</time></trkpt><trkpt lat="40.0512448" lon="9.3904626"><ele>962.8</ele><time>2026-04-22T13:02:29.6Z</time></trkpt><trkpt lat="40.0511476" lon="9.390462"><ele>960.4</ele><time>2026-04-22T13:02:30.601Z</time></trkpt><trkpt lat="40.0510621" lon="9.3904674"><ele>958.0</ele><time>2026-04-22T13:02:31.588Z</time></trkpt><trkpt lat="40.0509941" lon="9.3904636"><ele>957.9999999999999</ele><time>2026-04-22T13:02:32.599Z</time></trkpt><trkpt lat="40.050899" lon="9.390462"><ele>958.0</ele><time>2026-04-22T13:02:34.605Z</time></trkpt><trkpt lat="40.0508284" lon="9.3904653"><ele>958.0</ele><time>2026-04-22T13:02:55.602Z</time></trkpt><trkpt lat="40.0507243" lon="9.3904647"><ele>958.0</ele><time>2026-04-22T13:02:57.598Z</time></trkpt><trkpt lat="40.0506427" lon="9.390463"><ele>957.9999999999999</ele><time>2026-04-22T13:02:58.593Z</time></trkpt><trkpt lat="40.0505483" lon="9.3904527"><ele>958.0</ele><time>2026-04-22T13:02:59.596Z</time></trkpt><trkpt lat="40.0504507" lon="9.3904452"><ele>957.4</ele><time>2026-04-22T13:03:00.594Z</time></trkpt><trkpt lat="40.0503534" lon="9.3904395"><ele>956.8</ele><time>2026-04-22T13:03:01.595Z</time></trkpt><trkpt lat="40.0502628" lon="9.3904348"><ele>956.2</ele><time>2026-04-22T13:03:02.6Z</time></trkpt><trkpt lat="40.0501667" lon="9.3904332"><ele>955.6</ele><time>2026-04-22T13:03:03.598Z</time></trkpt><trkpt lat="40.0500653" lon="9.3904439"><ele>955.0</ele><time>2026-04-22T13:03:04.603Z</time></trkpt><trkpt lat="40.0499683" lon="9.390444"><ele>955.6</ele><time>2026-04-22T13:03:05.596Z</time></trkpt><trkpt lat="40.0498676" lon="9.3904488"><ele>956.2</ele><time>2026-04-22T13:03:06.597Z</time></trkpt><trkpt lat="40.0497714" lon="9.3904195"><ele>956.8</ele><time>2026-04-22T13:03:07.59Z</time></trkpt><trkpt lat="40.0496859" lon="9.3903647"><ele>957.4</ele><time>2026-04-22T13:03:08.599Z</time></trkpt><trkpt lat="40.0496036" lon="9.3903017"><ele>958.0</ele><time>2026-04-22T13:03:09.591Z</time></trkpt><trkpt lat="40.0495302" lon="9.3902162"><ele>957.9999999999999</ele><time>2026-04-22T13:03:10.596Z</time></trkpt><trkpt lat="40.0494582" lon="9.3901385"><ele>958.0</ele><time>2026-04-22T13:03:11.592Z</time></trkpt><trkpt lat="40.0494025" lon="9.3900632"><ele>958.0</ele><time>2026-04-22T13:03:12.594Z</time></trkpt><trkpt lat="40.0493482" lon="9.3899988"><ele>958.0</ele><time>2026-04-22T13:03:13.595Z</time></trkpt><trkpt lat="40.049296" lon="9.3899442"><ele>957.9999999999999</ele><time>2026-04-22T13:03:14.596Z</time></trkpt><trkpt lat="40.0492298" lon="9.3899015"><ele>958.0</ele><time>2026-04-22T13:03:15.593Z</time></trkpt><trkpt lat="40.0491542" lon="9.3898793"><ele>958.4</ele><time>2026-04-22T13:03:16.592Z</time></trkpt><trkpt lat="40.0490657" lon="9.389884"><ele>958.8</ele><time>2026-04-22T13:03:17.594Z</time></trkpt><trkpt lat="40.04898" lon="9.3899016"><ele>959.2</ele><time>2026-04-22T13:03:18.595Z</time></trkpt><trkpt lat="40.0488878" lon="9.3899389"><ele>959.6</ele><time>2026-04-22T13:03:19.609Z</time></trkpt><trkpt lat="40.048786" lon="9.3899893"><ele>960.0</ele><time>2026-04-22T13:03:20.59Z</time></trkpt><trkpt lat="40.0486835" lon="9.3900389"><ele>960.0</ele><time>2026-04-22T13:03:21.6Z</time></trkpt><trkpt lat="40.0485639" lon="9.3900855"><ele>960.0</ele><time>2026-04-22T13:03:22.602Z</time></trkpt><trkpt lat="40.0484409" lon="9.3901022"><ele>960.0</ele><time>2026-04-22T13:03:23.603Z</time></trkpt><trkpt lat="40.0483191" lon="9.3901241"><ele>960.0</ele><time>2026-04-22T13:03:24.601Z</time></trkpt><trkpt lat="40.0481991" lon="9.3901404"><ele>960.75</ele><time>2026-04-22T13:03:25.598Z</time></trkpt><trkpt lat="40.0480728" lon="9.3901759"><ele>961.5</ele><time>2026-04-22T13:03:26.602Z</time></trkpt><trkpt lat="40.0479384" lon="9.3902142"><ele>962.25</ele><time>2026-04-22T13:03:27.607Z</time></trkpt><trkpt lat="40.0478031" lon="9.3902582"><ele>963.0</ele><time>2026-04-22T13:03:28.6Z</time></trkpt><trkpt lat="40.0476717" lon="9.3902973"><ele>963.0</ele><time>2026-04-22T13:03:29.6Z</time></trkpt><trkpt lat="40.0475406" lon="9.3903412"><ele>963.0</ele><time>2026-04-22T13:03:30.606Z</time></trkpt><trkpt lat="40.0474038" lon="9.3903815"><ele>963.0</ele><time>2026-04-22T13:03:31.599Z</time></trkpt><trkpt lat="40.0472661" lon="9.3904132"><ele>963.0</ele><time>2026-04-22T13:03:32.601Z</time></trkpt><trkpt lat="40.0471268" lon="9.3904447"><ele>963.75</ele><time>2026-04-22T13:03:33.599Z</time></trkpt><trkpt lat="40.0469928" lon="9.3904641"><ele>964.5</ele><time>2026-04-22T13:03:34.602Z</time></trkpt><trkpt lat="40.0468618" lon="9.3904927"><ele>965.25</ele><time>2026-04-22T13:03:35.602Z</time></trkpt><trkpt lat="40.0467455" lon="9.3905213"><ele>966.0</ele><time>2026-04-22T13:03:36.604Z</time></trkpt><trkpt lat="40.0466086" lon="9.390551"><ele>963.25</ele><time>2026-04-22T13:03:37.594Z</time></trkpt><trkpt lat="40.0464681" lon="9.390583"><ele>960.5</ele><time>2026-04-22T13:03:38.606Z</time></trkpt><trkpt lat="40.0463315" lon="9.3906153"><ele>957.75</ele><time>2026-04-22T13:03:39.598Z</time></trkpt><trkpt lat="40.0461852" lon="9.390627"><ele>955.0</ele><time>2026-04-22T13:03:40.602Z</time></trkpt><trkpt lat="40.0460466" lon="9.3906279"><ele>955.0</ele><time>2026-04-22T13:03:41.602Z</time></trkpt><trkpt lat="40.0459065" lon="9.3906375"><ele>955.0</ele><time>2026-04-22T13:03:42.601Z</time></trkpt><trkpt lat="40.0457574" lon="9.3906401"><ele>955.0</ele><time>2026-04-22T13:03:43.609Z</time></trkpt><trkpt lat="40.0456248" lon="9.390651"><ele>955.0</ele><time>2026-04-22T13:03:44.601Z</time></trkpt><trkpt lat="40.0454907" lon="9.3906779"><ele>956.0</ele><time>2026-04-22T13:03:45.597Z</time></trkpt><trkpt lat="40.0453505" lon="9.3907205"><ele>957.0</ele><time>2026-04-22T13:03:46.601Z</time></trkpt><trkpt lat="40.0452041" lon="9.3907677"><ele>958.0</ele><time>2026-04-22T13:03:47.6Z</time></trkpt><trkpt lat="40.045079" lon="9.3908407"><ele>959.0</ele><time>2026-04-22T13:03:48.599Z</time></trkpt><trkpt lat="40.0449634" lon="9.3909225"><ele>961.5</ele><time>2026-04-22T13:03:49.597Z</time></trkpt><trkpt lat="40.0448516" lon="9.3909925"><ele>964.0</ele><time>2026-04-22T13:03:50.597Z</time></trkpt><trkpt lat="40.0447291" lon="9.3910761"><ele>966.5</ele><time>2026-04-22T13:03:51.6Z</time></trkpt><trkpt lat="40.0446116" lon="9.3911792"><ele>969.0</ele><time>2026-04-22T13:03:52.603Z</time></trkpt><trkpt lat="40.0444833" lon="9.3912741"><ele>963.5</ele><time>2026-04-22T13:03:53.602Z</time></trkpt><trkpt lat="40.0443648" lon="9.3913631"><ele>958.0</ele><time>2026-04-22T13:03:54.606Z</time></trkpt><trkpt lat="40.0442527" lon="9.3914529"><ele>952.5</ele><time>2026-04-22T13:03:55.6Z</time></trkpt><trkpt lat="40.0441398" lon="9.3915396"><ele>947.0</ele><time>2026-04-22T13:03:56.609Z</time></trkpt><trkpt lat="40.0440125" lon="9.3916223"><ele>947.0</ele><time>2026-04-22T13:03:57.604Z</time></trkpt><trkpt lat="40.0438796" lon="9.3917157"><ele>947.0</ele><time>2026-04-22T13:03:58.605Z</time></trkpt><trkpt lat="40.0437386" lon="9.3917931"><ele>947.0</ele><time>2026-04-22T13:03:59.602Z</time></trkpt><trkpt lat="40.0436084" lon="9.3918762"><ele>947.0</ele><time>2026-04-22T13:04:00.603Z</time></trkpt><trkpt lat="40.0434454" lon="9.3919181"><ele>947.0</ele><time>2026-04-22T13:04:01.596Z</time></trkpt><trkpt lat="40.0433279" lon="9.3919411"><ele>947.0</ele><time>2026-04-22T13:04:02.599Z</time></trkpt><trkpt lat="40.0431956" lon="9.3919544"><ele>947.0</ele><time>2026-04-22T13:04:03.6Z</time></trkpt><trkpt lat="40.0430694" lon="9.391956"><ele>947.0</ele><time>2026-04-22T13:04:04.595Z</time></trkpt><trkpt lat="40.0429447" lon="9.3919377"><ele>947.25</ele><time>2026-04-22T13:04:05.595Z</time></trkpt><trkpt lat="40.042812" lon="9.391902"><ele>947.5</ele><time>2026-04-22T13:04:06.596Z</time></trkpt><trkpt lat="40.0426997" lon="9.3918539"><ele>947.75</ele><time>2026-04-22T13:04:07.596Z</time></trkpt><trkpt lat="40.0425791" lon="9.3918151"><ele>948.0</ele><time>2026-04-22T13:04:08.594Z</time></trkpt><trkpt lat="40.04245" lon="9.3917905"><ele>950.5</ele><time>2026-04-22T13:04:09.598Z</time></trkpt><trkpt lat="40.0423286" lon="9.3917734"><ele>953.0</ele><time>2026-04-22T13:04:10.593Z</time></trkpt><trkpt lat="40.0422062" lon="9.3917718"><ele>955.5</ele><time>2026-04-22T13:04:11.595Z</time></trkpt><trkpt lat="40.0420783" lon="9.3917899"><ele>958.0</ele><time>2026-04-22T13:04:12.588Z</time></trkpt><trkpt lat="40.0419503" lon="9.3918273"><ele>958.0</ele><time>2026-04-22T13:04:13.592Z</time></trkpt><trkpt lat="40.0418145" lon="9.3918788"><ele>958.0</ele><time>2026-04-22T13:04:14.601Z</time></trkpt><trkpt lat="40.0416922" lon="9.3919423"><ele>958.0</ele><time>2026-04-22T13:04:15.596Z</time></trkpt><trkpt lat="40.0415794" lon="9.39201"><ele>958.0</ele><time>2026-04-22T13:04:16.6Z</time></trkpt><trkpt lat="40.0414659" lon="9.3920806"><ele>960.5</ele><time>2026-04-22T13:04:17.62Z</time></trkpt><trkpt lat="40.041354" lon="9.3921548"><ele>963.0</ele><time>2026-04-22T13:04:18.609Z</time></trkpt><trkpt lat="40.0412595" lon="9.3922433"><ele>965.5</ele><time>2026-04-22T13:04:19.601Z</time></trkpt><trkpt lat="40.0411694" lon="9.3923477"><ele>968.0</ele><time>2026-04-22T13:04:20.606Z</time></trkpt><trkpt lat="40.0410776" lon="9.3924508"><ele>962.25</ele><time>2026-04-22T13:04:21.611Z</time></trkpt><trkpt lat="40.0409796" lon="9.3925532"><ele>956.5</ele><time>2026-04-22T13:04:22.602Z</time></trkpt><trkpt lat="40.0408728" lon="9.3926329"><ele>950.75</ele><time>2026-04-22T13:04:23.61Z</time></trkpt><trkpt lat="40.0407624" lon="9.3926825"><ele>945.0</ele><time>2026-04-22T13:04:24.607Z</time></trkpt><trkpt lat="40.0406468" lon="9.3927195"><ele>943.5</ele><time>2026-04-22T13:04:25.612Z</time></trkpt><trkpt lat="40.0405136" lon="9.3927349"><ele>942.0</ele><time>2026-04-22T13:04:26.616Z</time></trkpt><trkpt lat="40.0403815" lon="9.3927362"><ele>940.5</ele><time>2026-04-22T13:04:27.606Z</time></trkpt><trkpt lat="40.0402586" lon="9.3927141"><ele>939.0</ele><time>2026-04-22T13:04:28.619Z</time></trkpt><trkpt lat="40.0401333" lon="9.3926693"><ele>939.0</ele><time>2026-04-22T13:04:29.603Z</time></trkpt><trkpt lat="40.0400062" lon="9.3926103"><ele>939.0</ele><time>2026-04-22T13:04:30.614Z</time></trkpt><trkpt lat="40.0398965" lon="9.3925451"><ele>939.0</ele><time>2026-04-22T13:04:31.618Z</time></trkpt><trkpt lat="40.0397971" lon="9.392476"><ele>939.0</ele><time>2026-04-22T13:04:32.614Z</time></trkpt><trkpt lat="40.0397076" lon="9.3923976"><ele>938.4000000000001</ele><time>2026-04-22T13:04:33.686Z</time></trkpt><trkpt lat="40.0396349" lon="9.3923074"><ele>937.8000000000001</ele><time>2026-04-22T13:04:34.688Z</time></trkpt><trkpt lat="40.0395774" lon="9.3922041"><ele>937.1999999999999</ele><time>2026-04-22T13:04:35.678Z</time></trkpt><trkpt lat="40.0395296" lon="9.3920888"><ele>936.5999999999999</ele><time>2026-04-22T13:04:36.676Z</time></trkpt><trkpt lat="40.0394787" lon="9.3919371"><ele>936.0</ele><time>2026-04-22T13:04:37.684Z</time></trkpt><trkpt lat="40.0394278" lon="9.391793"><ele>936.0</ele><time>2026-04-22T13:04:38.679Z</time></trkpt><trkpt lat="40.0393637" lon="9.3916568"><ele>936.0</ele><time>2026-04-22T13:04:39.676Z</time></trkpt><trkpt lat="40.039282" lon="9.3915346"><ele>936.0</ele><time>2026-04-22T13:04:40.682Z</time></trkpt><trkpt lat="40.0391826" lon="9.3914452"><ele>936.0</ele><time>2026-04-22T13:04:41.682Z</time></trkpt><trkpt lat="40.0390997" lon="9.3913234"><ele>936.0</ele><time>2026-04-22T13:04:42.662Z</time></trkpt><trkpt lat="40.0389859" lon="9.3913201"><ele>936.0</ele><time>2026-04-22T13:04:43.667Z</time></trkpt><trkpt lat="40.0388643" lon="9.3913384"><ele>936.0</ele><time>2026-04-22T13:04:44.668Z</time></trkpt><trkpt lat="40.0387395" lon="9.3913608"><ele>936.0</ele><time>2026-04-22T13:04:45.67Z</time></trkpt><trkpt lat="40.0386271" lon="9.3913832"><ele>936.0</ele><time>2026-04-22T13:04:46.683Z</time></trkpt><trkpt lat="40.038508" lon="9.391408"><ele>936.0</ele><time>2026-04-22T13:04:47.679Z</time></trkpt><trkpt lat="40.0383866" lon="9.391432"><ele>936.0</ele><time>2026-04-22T13:04:48.681Z</time></trkpt><trkpt lat="40.038258" lon="9.3914522"><ele>936.0</ele><time>2026-04-22T13:04:49.673Z</time></trkpt><trkpt lat="40.0381292" lon="9.3914661"><ele>935.25</ele><time>2026-04-22T13:04:50.682Z</time></trkpt><trkpt lat="40.0379991" lon="9.3914758"><ele>934.5</ele><time>2026-04-22T13:04:51.695Z</time></trkpt><trkpt lat="40.0378656" lon="9.3914767"><ele>933.75</ele><time>2026-04-22T13:04:52.693Z</time></trkpt><trkpt lat="40.0377293" lon="9.391465"><ele>933.0</ele><time>2026-04-22T13:04:53.689Z</time></trkpt><trkpt lat="40.0375916" lon="9.3914388"><ele>933.0</ele><time>2026-04-22T13:04:54.691Z</time></trkpt><trkpt lat="40.0374601" lon="9.3914005"><ele>933.0</ele><time>2026-04-22T13:04:55.671Z</time></trkpt><trkpt lat="40.0373274" lon="9.3913558"><ele>933.0</ele><time>2026-04-22T13:04:56.672Z</time></trkpt><trkpt lat="40.0371974" lon="9.3913005"><ele>933.0</ele><time>2026-04-22T13:04:57.671Z</time></trkpt><trkpt lat="40.0370765" lon="9.3912276"><ele>933.0</ele><time>2026-04-22T13:04:58.668Z</time></trkpt><trkpt lat="40.0369661" lon="9.3911444"><ele>933.0</ele><time>2026-04-22T13:04:59.686Z</time></trkpt><trkpt lat="40.0368632" lon="9.3910502"><ele>933.0</ele><time>2026-04-22T13:05:00.681Z</time></trkpt><trkpt lat="40.0367634" lon="9.3909579"><ele>933.0</ele><time>2026-04-22T13:05:01.673Z</time></trkpt><trkpt lat="40.036663" lon="9.3908684"><ele>932.75</ele><time>2026-04-22T13:05:02.67Z</time></trkpt><trkpt lat="40.0365628" lon="9.3907824"><ele>932.5</ele><time>2026-04-22T13:05:03.67Z</time></trkpt><trkpt lat="40.0364626" lon="9.3907005"><ele>932.25</ele><time>2026-04-22T13:05:04.663Z</time></trkpt><trkpt lat="40.0363584" lon="9.3906241"><ele>932.0</ele><time>2026-04-22T13:05:05.683Z</time></trkpt><trkpt lat="40.0362497" lon="9.3905515"><ele>933.75</ele><time>2026-04-22T13:05:06.683Z</time></trkpt><trkpt lat="40.0361342" lon="9.390483"><ele>935.5</ele><time>2026-04-22T13:05:07.681Z</time></trkpt><trkpt lat="40.0360146" lon="9.3904249"><ele>937.25</ele><time>2026-04-22T13:05:08.683Z</time></trkpt><trkpt lat="40.0358906" lon="9.3903877"><ele>939.0</ele><time>2026-04-22T13:05:09.685Z</time></trkpt><trkpt lat="40.0357637" lon="9.3903677"><ele>939.0</ele><time>2026-04-22T13:05:10.678Z</time></trkpt><trkpt lat="40.0356352" lon="9.3903632"><ele>939.0</ele><time>2026-04-22T13:05:11.668Z</time></trkpt><trkpt lat="40.0355027" lon="9.390371"><ele>939.0</ele><time>2026-04-22T13:05:12.674Z</time></trkpt><trkpt lat="40.0353707" lon="9.3903795"><ele>939.0</ele><time>2026-04-22T13:05:13.668Z</time></trkpt><trkpt lat="40.0352414" lon="9.3903689"><ele>939.0</ele><time>2026-04-22T13:05:14.671Z</time></trkpt><trkpt lat="40.0351085" lon="9.3903448"><ele>939.0</ele><time>2026-04-22T13:05:15.68Z</time></trkpt><trkpt lat="40.0349487" lon="9.3903264"><ele>939.0</ele><time>2026-04-22T13:05:16.677Z</time></trkpt><trkpt lat="40.0347899" lon="9.3903337"><ele>935.75</ele><time>2026-04-22T13:05:17.678Z</time></trkpt><trkpt lat="40.0346489" lon="9.3903676"><ele>932.5</ele><time>2026-04-22T13:05:18.67Z</time></trkpt><trkpt lat="40.0345426" lon="9.3904234"><ele>929.25</ele><time>2026-04-22T13:05:19.663Z</time></trkpt><trkpt lat="40.0344459" lon="9.3904941"><ele>926.0</ele><time>2026-04-22T13:05:21.578Z</time></trkpt><trkpt lat="40.0343655" lon="9.390475"><ele>926.0</ele><time>2026-04-22T13:05:22.581Z</time></trkpt><trkpt lat="40.0343051" lon="9.3904022"><ele>925.9999999999999</ele><time>2026-04-22T13:05:23.588Z</time></trkpt><trkpt lat="40.0342557" lon="9.390309"><ele>925.9999999999999</ele><time>2026-04-22T13:05:24.589Z</time></trkpt><trkpt lat="40.0342134" lon="9.3901978"><ele>926.0</ele><time>2026-04-22T13:05:25.579Z</time></trkpt><trkpt lat="40.0341851" lon="9.3900594"><ele>926.0</ele><time>2026-04-22T13:05:26.584Z</time></trkpt><trkpt lat="40.0342114" lon="9.3899058"><ele>926.0</ele><time>2026-04-22T13:05:27.586Z</time></trkpt><trkpt lat="40.0342499" lon="9.3897525"><ele>926.0</ele><time>2026-04-22T13:05:28.587Z</time></trkpt><trkpt lat="40.0343138" lon="9.3895797"><ele>926.0</ele><time>2026-04-22T13:05:29.587Z</time></trkpt><trkpt lat="40.0343624" lon="9.3894159"><ele>926.0</ele><time>2026-04-22T13:05:30.591Z</time></trkpt><trkpt lat="40.0343898" lon="9.3892629"><ele>925.4</ele><time>2026-04-22T13:05:31.59Z</time></trkpt><trkpt lat="40.0343978" lon="9.3891208"><ele>924.8</ele><time>2026-04-22T13:05:32.586Z</time></trkpt><trkpt lat="40.0344077" lon="9.3889698"><ele>924.1999999999999</ele><time>2026-04-22T13:05:33.589Z</time></trkpt><trkpt lat="40.0344171" lon="9.3888212"><ele>923.5999999999999</ele><time>2026-04-22T13:05:34.587Z</time></trkpt><trkpt lat="40.0344326" lon="9.3886879"><ele>923.0</ele><time>2026-04-22T13:05:35.585Z</time></trkpt><trkpt lat="40.0344597" lon="9.3885647"><ele>923.0000000000001</ele><time>2026-04-22T13:05:36.588Z</time></trkpt><trkpt lat="40.034473" lon="9.3884497"><ele>923.0</ele><time>2026-04-22T13:05:37.588Z</time></trkpt><trkpt lat="40.0344764" lon="9.3883477"><ele>923.0</ele><time>2026-04-22T13:05:38.591Z</time></trkpt><trkpt lat="40.0344803" lon="9.3882443"><ele>923.0</ele><time>2026-04-22T13:05:39.586Z</time></trkpt><trkpt lat="40.0344592" lon="9.3881597"><ele>923.0000000000001</ele><time>2026-04-22T13:05:40.58Z</time></trkpt><trkpt lat="40.0344163" lon="9.3880799"><ele>923.0</ele><time>2026-04-22T13:05:41.585Z</time></trkpt><trkpt lat="40.0343449" lon="9.3880195"><ele>921.5999999999999</ele><time>2026-04-22T13:05:42.589Z</time></trkpt><trkpt lat="40.0342633" lon="9.3880014"><ele>920.1999999999999</ele><time>2026-04-22T13:05:43.587Z</time></trkpt><trkpt lat="40.0341697" lon="9.3879992"><ele>918.8</ele><time>2026-04-22T13:05:44.588Z</time></trkpt><trkpt lat="40.0340579" lon="9.3880052"><ele>917.4</ele><time>2026-04-22T13:05:45.578Z</time></trkpt><trkpt lat="40.033941" lon="9.3880177"><ele>916.0</ele><time>2026-04-22T13:05:46.589Z</time></trkpt><trkpt lat="40.0338106" lon="9.3880528"><ele>916.0</ele><time>2026-04-22T13:05:47.594Z</time></trkpt><trkpt lat="40.033667" lon="9.3881152"><ele>916.0</ele><time>2026-04-22T13:05:48.589Z</time></trkpt><trkpt lat="40.0335205" lon="9.3881584"><ele>916.0</ele><time>2026-04-22T13:05:49.591Z</time></trkpt><trkpt lat="40.0333901" lon="9.3882046"><ele>916.0</ele><time>2026-04-22T13:05:50.597Z</time></trkpt><trkpt lat="40.0332548" lon="9.3882671"><ele>918.0</ele><time>2026-04-22T13:05:51.602Z</time></trkpt><trkpt lat="40.0331238" lon="9.3883159"><ele>920.0</ele><time>2026-04-22T13:05:52.602Z</time></trkpt><trkpt lat="40.0329927" lon="9.388375"><ele>922.0</ele><time>2026-04-22T13:05:53.594Z</time></trkpt><trkpt lat="40.0328507" lon="9.3884228"><ele>924.0</ele><time>2026-04-22T13:05:54.598Z</time></trkpt><trkpt lat="40.0327012" lon="9.3884686"><ele>924.0</ele><time>2026-04-22T13:05:55.596Z</time></trkpt><trkpt lat="40.0325624" lon="9.3885148"><ele>924.0</ele><time>2026-04-22T13:05:56.598Z</time></trkpt><trkpt lat="40.0324141" lon="9.388557"><ele>924.0</ele><time>2026-04-22T13:05:57.595Z</time></trkpt><trkpt lat="40.0322643" lon="9.3885953"><ele>924.0</ele><time>2026-04-22T13:05:58.589Z</time></trkpt><trkpt lat="40.0321245" lon="9.3886128"><ele>924.0</ele><time>2026-04-22T13:05:59.592Z</time></trkpt><trkpt lat="40.0319908" lon="9.3886291"><ele>924.0</ele><time>2026-04-22T13:06:00.594Z</time></trkpt><trkpt lat="40.0318544" lon="9.3886375"><ele>924.0</ele><time>2026-04-22T13:06:01.591Z</time></trkpt><trkpt lat="40.0317203" lon="9.3886388"><ele>924.0</ele><time>2026-04-22T13:06:02.594Z</time></trkpt><trkpt lat="40.031595" lon="9.3886477"><ele>924.0</ele><time>2026-04-22T13:06:03.592Z</time></trkpt><trkpt lat="40.031462" lon="9.3886306"><ele>924.0</ele><time>2026-04-22T13:06:04.592Z</time></trkpt><trkpt lat="40.0313247" lon="9.3886154"><ele>924.0</ele><time>2026-04-22T13:06:05.588Z</time></trkpt><trkpt lat="40.0311824" lon="9.3886022"><ele>924.0</ele><time>2026-04-22T13:06:06.583Z</time></trkpt><trkpt lat="40.0310427" lon="9.3885673"><ele>924.0</ele><time>2026-04-22T13:06:07.592Z</time></trkpt><trkpt lat="40.0308909" lon="9.3885419"><ele>924.0</ele><time>2026-04-22T13:06:08.59Z</time></trkpt><trkpt lat="40.0307454" lon="9.3885047"><ele>924.0</ele><time>2026-04-22T13:06:09.59Z</time></trkpt><trkpt lat="40.030613" lon="9.3884833"><ele>924.0</ele><time>2026-04-22T13:06:10.59Z</time></trkpt><trkpt lat="40.0304783" lon="9.3884541"><ele>921.5</ele><time>2026-04-22T13:06:11.584Z</time></trkpt><trkpt lat="40.0303392" lon="9.3884314"><ele>919.0</ele><time>2026-04-22T13:06:12.587Z</time></trkpt><trkpt lat="40.0302054" lon="9.3883899"><ele>916.5</ele><time>2026-04-22T13:06:13.594Z</time></trkpt><trkpt lat="40.0300594" lon="9.3883348"><ele>914.0</ele><time>2026-04-22T13:06:14.588Z</time></trkpt><trkpt lat="40.0299111" lon="9.3882797"><ele>911.3333333333334</ele><time>2026-04-22T13:06:15.587Z</time></trkpt><trkpt lat="40.0297575" lon="9.3882601"><ele>908.6666666666667</ele><time>2026-04-22T13:06:16.592Z</time></trkpt><trkpt lat="40.0296016" lon="9.3882573"><ele>906.0</ele><time>2026-04-22T13:06:17.596Z</time></trkpt><trkpt lat="40.0294424" lon="9.3882531"><ele>906.0</ele><time>2026-04-22T13:06:18.601Z</time></trkpt><trkpt lat="40.0292943" lon="9.3882331"><ele>906.0</ele><time>2026-04-22T13:06:19.603Z</time></trkpt><trkpt lat="40.029153" lon="9.3882101"><ele>906.0</ele><time>2026-04-22T13:06:20.596Z</time></trkpt><trkpt lat="40.0290153" lon="9.3881981"><ele>906.0</ele><time>2026-04-22T13:06:21.606Z</time></trkpt><trkpt lat="40.0288773" lon="9.3881998"><ele>906.25</ele><time>2026-04-22T13:06:22.599Z</time></trkpt><trkpt lat="40.0287421" lon="9.3881862"><ele>906.5</ele><time>2026-04-22T13:06:23.599Z</time></trkpt><trkpt lat="40.0285961" lon="9.3882"><ele>906.75</ele><time>2026-04-22T13:06:24.598Z</time></trkpt><trkpt lat="40.0284463" lon="9.388218"><ele>907.0</ele><time>2026-04-22T13:06:25.604Z</time></trkpt><trkpt lat="40.028298" lon="9.3882232"><ele>907.0</ele><time>2026-04-22T13:06:26.598Z</time></trkpt><trkpt lat="40.0281567" lon="9.3882537"><ele>907.0</ele><time>2026-04-22T13:06:27.6Z</time></trkpt><trkpt lat="40.0280317" lon="9.3883147"><ele>907.0</ele><time>2026-04-22T13:06:28.595Z</time></trkpt><trkpt lat="40.0279053" lon="9.3884032"><ele>907.0</ele><time>2026-04-22T13:06:29.59Z</time></trkpt><trkpt lat="40.0277765" lon="9.3885027"><ele>907.0</ele><time>2026-04-22T13:06:30.592Z</time></trkpt><trkpt lat="40.0276654" lon="9.388612"><ele>907.0</ele><time>2026-04-22T13:06:31.595Z</time></trkpt><trkpt lat="40.027579" lon="9.3886814"><ele>907.0</ele><time>2026-04-22T13:06:32.596Z</time></trkpt><trkpt lat="40.0274855" lon="9.3887337"><ele>907.0</ele><time>2026-04-22T13:06:33.593Z</time></trkpt><trkpt lat="40.0273843" lon="9.3887708"><ele>907.0</ele><time>2026-04-22T13:06:34.587Z</time></trkpt><trkpt lat="40.027294" lon="9.388813"><ele>906.1666666666666</ele><time>2026-04-22T13:06:35.592Z</time></trkpt><trkpt lat="40.0272028" lon="9.3888544"><ele>905.3333333333333</ele><time>2026-04-22T13:06:36.589Z</time></trkpt><trkpt lat="40.0271228" lon="9.3888756"><ele>904.5</ele><time>2026-04-22T13:06:37.597Z</time></trkpt><trkpt lat="40.0270561" lon="9.3888789"><ele>903.6666666666667</ele><time>2026-04-22T13:06:38.591Z</time></trkpt><trkpt lat="40.0269675" lon="9.3888204"><ele>902.8333333333334</ele><time>2026-04-22T13:06:40.592Z</time></trkpt><trkpt lat="40.0269637" lon="9.3887144"><ele>902.0</ele><time>2026-04-22T13:06:42.595Z</time></trkpt><trkpt lat="40.0269873" lon="9.3886328"><ele>902.0</ele><time>2026-04-22T13:18:18.626Z</time></trkpt><trkpt lat="40.0270308" lon="9.3885215"><ele>902.0</ele><time>2026-04-22T13:18:20.606Z</time></trkpt><trkpt lat="40.027061" lon="9.3884289"><ele>902.0</ele><time>2026-04-22T13:18:21.624Z</time></trkpt><trkpt lat="40.0271022" lon="9.3883068"><ele>902.0</ele><time>2026-04-22T13:18:22.637Z</time></trkpt><trkpt lat="40.0271516" lon="9.3881901"><ele>902.0</ele><time>2026-04-22T13:18:23.632Z</time></trkpt><trkpt lat="40.0272167" lon="9.3880678"><ele>904.0</ele><time>2026-04-22T13:18:24.629Z</time></trkpt><trkpt lat="40.027278" lon="9.3879473"><ele>906.0</ele><time>2026-04-22T13:18:25.633Z</time></trkpt><trkpt lat="40.02734" lon="9.3878272"><ele>908.0</ele><time>2026-04-22T13:18:26.634Z</time></trkpt><trkpt lat="40.0274014" lon="9.3876993"><ele>910.0</ele><time>2026-04-22T13:18:27.646Z</time></trkpt><trkpt lat="40.0274662" lon="9.3875633"><ele>909.5</ele><time>2026-04-22T13:18:28.629Z</time></trkpt><trkpt lat="40.0275313" lon="9.3874302"><ele>909.0</ele><time>2026-04-22T13:18:29.635Z</time></trkpt><trkpt lat="40.0275967" lon="9.3872887"><ele>908.5</ele><time>2026-04-22T13:18:30.639Z</time></trkpt><trkpt lat="40.0276569" lon="9.3871435"><ele>908.0</ele><time>2026-04-22T13:18:31.635Z</time></trkpt><trkpt lat="40.0277155" lon="9.387003"><ele>908.0</ele><time>2026-04-22T13:18:32.638Z</time></trkpt><trkpt lat="40.0277798" lon="9.3868636"><ele>908.0</ele><time>2026-04-22T13:18:33.63Z</time></trkpt><trkpt lat="40.0278474" lon="9.3867209"><ele>908.0</ele><time>2026-04-22T13:18:34.642Z</time></trkpt><trkpt lat="40.0279154" lon="9.3865796"><ele>908.0</ele><time>2026-04-22T13:18:35.635Z</time></trkpt><trkpt lat="40.0279827" lon="9.3864322"><ele>908.0</ele><time>2026-04-22T13:18:36.643Z</time></trkpt><trkpt lat="40.0280452" lon="9.386289"><ele>908.0</ele><time>2026-04-22T13:18:37.648Z</time></trkpt><trkpt lat="40.0281032" lon="9.3861643"><ele>908.0</ele><time>2026-04-22T13:18:38.643Z</time></trkpt><trkpt lat="40.0281779" lon="9.3860365"><ele>908.0</ele><time>2026-04-22T13:18:39.632Z</time></trkpt><trkpt lat="40.0282622" lon="9.385901"><ele>908.5</ele><time>2026-04-22T13:18:40.631Z</time></trkpt><trkpt lat="40.0283363" lon="9.3857705"><ele>909.0</ele><time>2026-04-22T13:18:41.638Z</time></trkpt><trkpt lat="40.0284103" lon="9.3856449"><ele>909.5</ele><time>2026-04-22T13:18:42.643Z</time></trkpt><trkpt lat="40.0284845" lon="9.3855288"><ele>910.0</ele><time>2026-04-22T13:18:43.643Z</time></trkpt><trkpt lat="40.028559" lon="9.385421"><ele>910.0</ele><time>2026-04-22T13:18:44.639Z</time></trkpt><trkpt lat="40.0286367" lon="9.3853219"><ele>910.0</ele><time>2026-04-22T13:18:45.634Z</time></trkpt><trkpt lat="40.0287243" lon="9.3852416"><ele>910.0</ele><time>2026-04-22T13:18:46.632Z</time></trkpt><trkpt lat="40.0288168" lon="9.385169"><ele>910.0</ele><time>2026-04-22T13:18:47.653Z</time></trkpt><trkpt lat="40.0289205" lon="9.3850964"><ele>910.0</ele><time>2026-04-22T13:18:48.637Z</time></trkpt><trkpt lat="40.0290293" lon="9.3850452"><ele>913.25</ele><time>2026-04-22T13:18:49.626Z</time></trkpt><trkpt lat="40.0291495" lon="9.3850027"><ele>916.5</ele><time>2026-04-22T13:18:50.628Z</time></trkpt><trkpt lat="40.0292705" lon="9.3849535"><ele>919.75</ele><time>2026-04-22T13:18:51.631Z</time></trkpt><trkpt lat="40.029401" lon="9.3849196"><ele>923.0</ele><time>2026-04-22T13:18:52.629Z</time></trkpt><trkpt lat="40.0295323" lon="9.3848846"><ele>923.0</ele><time>2026-04-22T13:18:53.615Z</time></trkpt><trkpt lat="40.0296562" lon="9.3848543"><ele>923.0</ele><time>2026-04-22T13:18:54.623Z</time></trkpt><trkpt lat="40.0297771" lon="9.3848174"><ele>923.0</ele><time>2026-04-22T13:18:55.619Z</time></trkpt><trkpt lat="40.0298901" lon="9.3847788"><ele>923.0</ele><time>2026-04-22T13:18:56.626Z</time></trkpt><trkpt lat="40.0299986" lon="9.3847491"><ele>924.8</ele><time>2026-04-22T13:18:57.626Z</time></trkpt><trkpt lat="40.030109" lon="9.384715"><ele>926.5999999999999</ele><time>2026-04-22T13:18:58.62Z</time></trkpt><trkpt lat="40.0302174" lon="9.384703"><ele>928.4000000000001</ele><time>2026-04-22T13:18:59.639Z</time></trkpt><trkpt lat="40.0303224" lon="9.3847081"><ele>930.2</ele><time>2026-04-22T13:19:00.625Z</time></trkpt><trkpt lat="40.0304232" lon="9.3847301"><ele>932.0</ele><time>2026-04-22T13:19:01.633Z</time></trkpt><trkpt lat="40.0305108" lon="9.3847421"><ele>932.0000000000001</ele><time>2026-04-22T13:19:02.621Z</time></trkpt><trkpt lat="40.0305801" lon="9.3847259"><ele>932.0</ele><time>2026-04-22T13:19:03.618Z</time></trkpt><trkpt lat="40.0306307" lon="9.3846543"><ele>932.0</ele><time>2026-04-22T13:19:04.624Z</time></trkpt><trkpt lat="40.0306605" lon="9.3845538"><ele>932.0</ele><time>2026-04-22T13:19:05.619Z</time></trkpt><trkpt lat="40.0306635" lon="9.3844443"><ele>932.0000000000001</ele><time>2026-04-22T13:19:06.62Z</time></trkpt><trkpt lat="40.0306371" lon="9.3843159"><ele>932.0</ele><time>2026-04-22T13:19:07.618Z</time></trkpt><trkpt lat="40.0306003" lon="9.3841956"><ele>931.25</ele><time>2026-04-22T13:19:08.637Z</time></trkpt><trkpt lat="40.0305333" lon="9.3840598"><ele>930.5</ele><time>2026-04-22T13:19:09.591Z</time></trkpt><trkpt lat="40.0304797" lon="9.3839233"><ele>929.75</ele><time>2026-04-22T13:19:10.602Z</time></trkpt><trkpt lat="40.0304274" lon="9.3837656"><ele>929.0</ele><time>2026-04-22T13:19:11.596Z</time></trkpt><trkpt lat="40.030389" lon="9.3836123"><ele>929.0</ele><time>2026-04-22T13:19:12.592Z</time></trkpt><trkpt lat="40.0303438" lon="9.3834657"><ele>929.0</ele><time>2026-04-22T13:19:13.593Z</time></trkpt><trkpt lat="40.0302825" lon="9.3833327"><ele>929.0</ele><time>2026-04-22T13:19:14.626Z</time></trkpt><trkpt lat="40.0302005" lon="9.383227"><ele>929.0</ele><time>2026-04-22T13:19:15.61Z</time></trkpt><trkpt lat="40.0301159" lon="9.3831153"><ele>930.5</ele><time>2026-04-22T13:19:16.591Z</time></trkpt><trkpt lat="40.0300436" lon="9.382989"><ele>932.0</ele><time>2026-04-22T13:19:17.603Z</time></trkpt><trkpt lat="40.0300095" lon="9.3828565"><ele>933.5</ele><time>2026-04-22T13:19:18.603Z</time></trkpt><trkpt lat="40.0300101" lon="9.3827197"><ele>935.0</ele><time>2026-04-22T13:19:19.626Z</time></trkpt><trkpt lat="40.0300356" lon="9.3825509"><ele>935.0</ele><time>2026-04-22T13:19:20.627Z</time></trkpt><trkpt lat="40.0301013" lon="9.3823882"><ele>935.0</ele><time>2026-04-22T13:19:21.625Z</time></trkpt><trkpt lat="40.0301632" lon="9.3822256"><ele>935.0</ele><time>2026-04-22T13:19:22.625Z</time></trkpt><trkpt lat="40.0302336" lon="9.3820641"><ele>935.0</ele><time>2026-04-22T13:19:23.624Z</time></trkpt><trkpt lat="40.0303125" lon="9.3819196"><ele>932.5</ele><time>2026-04-22T13:19:24.627Z</time></trkpt><trkpt lat="40.0304037" lon="9.3817868"><ele>930.0</ele><time>2026-04-22T13:19:25.629Z</time></trkpt><trkpt lat="40.0305072" lon="9.3816638"><ele>927.5</ele><time>2026-04-22T13:19:26.635Z</time></trkpt><trkpt lat="40.0306132" lon="9.3815343"><ele>925.0</ele><time>2026-04-22T13:19:27.632Z</time></trkpt><trkpt lat="40.0307305" lon="9.3814302"><ele>947.0</ele><time>2026-04-22T13:19:28.642Z</time></trkpt><trkpt lat="40.0326023" lon="9.3802574"><ele>963.0</ele><time>2026-04-22T13:19:41.634Z</time></trkpt><trkpt lat="40.0352683" lon="9.3792414"><ele>972.0</ele><time>2026-04-22T13:22:20.647Z</time></trkpt><trkpt lat="40.0375045" lon="9.378619"><ele>978.0</ele><time>2026-04-22T13:22:42.631Z</time></trkpt><trkpt lat="40.0398478" lon="9.3767246"><ele>1013.0</ele><time>2026-04-22T13:23:10.629Z</time></trkpt><trkpt lat="40.0424469" lon="9.3757102"><ele>1010.0</ele><time>2026-04-22T13:23:36.614Z</time></trkpt><trkpt lat="40.044026" lon="9.3740182"><ele>1042.0</ele><time>2026-04-22T13:23:53.619Z</time></trkpt><trkpt lat="40.046779" lon="9.3732984"><ele>1051.0</ele><time>2026-04-22T13:24:14.625Z</time></trkpt><trkpt lat="40.0487513" lon="9.3739896"><ele>1073.0</ele><time>2026-04-22T13:24:33.625Z</time></trkpt><trkpt lat="40.0514357" lon="9.3734658"><ele>1081.0</ele><time>2026-04-22T13:24:59.626Z</time></trkpt><trkpt lat="40.0535719" lon="9.3731972"><ele>1081.0</ele><time>2026-04-22T13:25:19.628Z</time></trkpt><trkpt lat="40.0555212" lon="9.3707249"><ele>1110.0</ele><time>2026-04-22T13:25:41.633Z</time></trkpt><trkpt lat="40.0581722" lon="9.3698599"><ele>1129.0</ele><time>2026-04-22T13:26:05.624Z</time></trkpt><trkpt lat="40.060876" lon="9.3700261"><ele>1147.0</ele><time>2026-04-22T13:26:34.619Z</time></trkpt><trkpt lat="40.0633347" lon="9.3716392"><ele>1150.0</ele><time>2026-04-22T13:27:00.604Z</time></trkpt><trkpt lat="40.0665283" lon="9.3701296"><ele>1168.0</ele><time>2026-04-22T13:27:29.628Z</time></trkpt><trkpt lat="40.0670406" lon="9.3674557"><ele>1191.0</ele><time>2026-04-22T13:27:45.645Z</time></trkpt><trkpt lat="40.0697247" lon="9.366636"><ele>1182.0</ele><time>2026-04-22T13:28:07.629Z</time></trkpt><trkpt lat="40.0724277" lon="9.366046"><ele>1229.0</ele><time>2026-04-22T13:28:38.642Z</time></trkpt><trkpt lat="40.0741998" lon="9.3621859"><ele>1250.0</ele><time>2026-04-22T13:29:02.634Z</time></trkpt><trkpt lat="40.074598" lon="9.3595354"><ele>1277.0</ele><time>2026-04-22T13:29:20.618Z</time></trkpt><trkpt lat="40.0757367" lon="9.3571669"><ele>1247.0</ele><time>2026-04-22T13:29:37.604Z</time></trkpt><trkpt lat="40.0781594" lon="9.355529"><ele>1226.0</ele><time>2026-04-22T13:29:56.564Z</time></trkpt><trkpt lat="40.0806874" lon="9.3524671"><ele>1174.0</ele><time>2026-04-22T13:30:20.613Z</time></trkpt><trkpt lat="40.0816908" lon="9.3491926"><ele>1168.0</ele><time>2026-04-22T13:30:46.612Z</time></trkpt><trkpt lat="40.0837358" lon="9.3466838"><ele>1139.0</ele><time>2026-04-22T13:31:18.614Z</time></trkpt><trkpt lat="40.0834004" lon="9.3430979"><ele>1144.0</ele><time>2026-04-22T13:31:52.596Z</time></trkpt><trkpt lat="40.0823052" lon="9.3397838"><ele>1130.0</ele><time>2026-04-22T13:32:12.581Z</time></trkpt><trkpt lat="40.0851788" lon="9.3399898"><ele>1155.0</ele><time>2026-04-22T13:32:46.585Z</time></trkpt><trkpt lat="40.0878654" lon="9.3394439"><ele>1139.0</ele><time>2026-04-22T13:33:15.599Z</time></trkpt><trkpt lat="40.0901291" lon="9.341502"><ele>1140.0</ele><time>2026-04-22T13:33:37.607Z</time></trkpt><trkpt lat="40.0929082" lon="9.3413894"><ele>1147.0</ele><time>2026-04-22T13:34:06.597Z</time></trkpt><trkpt lat="40.0953764" lon="9.3395036"><ele>1119.0</ele><time>2026-04-22T13:34:29.595Z</time></trkpt><trkpt lat="40.0966099" lon="9.3362169"><ele>1088.0</ele><time>2026-04-22T13:34:47.608Z</time></trkpt><trkpt lat="40.0964753" lon="9.332519"><ele>1083.0</ele><time>2026-04-22T13:35:11.612Z</time></trkpt><trkpt lat="40.097589" lon="9.3283263"><ele>1054.0</ele><time>2026-04-22T13:35:40.568Z</time></trkpt><trkpt lat="40.0979846" lon="9.3248196"><ele>1028.0</ele><time>2026-04-22T13:35:58.612Z</time></trkpt><trkpt lat="40.0998427" lon="9.321027"><ele>1010.0</ele><time>2026-04-22T13:36:20.612Z</time></trkpt><trkpt lat="40.1028408" lon="9.3188708"><ele>995.0</ele><time>2026-04-22T13:36:44.604Z</time></trkpt><trkpt lat="40.104894" lon="9.3152959"><ele>996.0</ele><time>2026-04-22T13:37:05.592Z</time></trkpt><trkpt lat="40.1075231" lon="9.312313"><ele>968.0</ele><time>2026-04-22T13:37:34.624Z</time></trkpt><trkpt lat="40.1095049" lon="9.3086338"><ele>958.0</ele><time>2026-04-22T13:38:01.618Z</time></trkpt><trkpt lat="40.1108881" lon="9.3045388"><ele>941.0</ele><time>2026-04-22T13:38:21.603Z</time></trkpt><trkpt lat="40.1109992" lon="9.2992063"><ele>942.0</ele><time>2026-04-22T13:38:47.619Z</time></trkpt><trkpt lat="40.1124344" lon="9.2962236"><ele>962.0</ele><time>2026-04-22T13:39:09.61Z</time></trkpt><trkpt lat="40.1130798" lon="9.2916829"><ele>971.0</ele><time>2026-04-22T13:39:31.579Z</time></trkpt><trkpt lat="40.1119747" lon="9.2873831"><ele>989.0</ele><time>2026-04-22T13:39:50.595Z</time></trkpt><trkpt lat="40.1120112" lon="9.2829186"><ele>987.0</ele><time>2026-04-22T13:40:21.606Z</time></trkpt><trkpt lat="40.1122155" lon="9.2792666"><ele>976.0</ele><time>2026-04-22T13:40:37.615Z</time></trkpt><trkpt lat="40.1123875" lon="9.2746564"><ele>967.0</ele><time>2026-04-22T13:40:56.706Z</time></trkpt><trkpt lat="40.1117844" lon="9.2701108"><ele>961.0</ele><time>2026-04-22T13:41:14.678Z</time></trkpt><trkpt lat="40.1107103" lon="9.2658852"><ele>930.0</ele><time>2026-04-22T13:41:36.609Z</time></trkpt><trkpt lat="40.1080362" lon="9.2631704"><ele>938.0</ele><time>2026-04-22T13:42:02.614Z</time></trkpt><trkpt lat="40.1054128" lon="9.2622568"><ele>963.0</ele><time>2026-04-22T13:42:33.587Z</time></trkpt><trkpt lat="40.1079635" lon="9.2592767"><ele>977.0</ele><time>2026-04-22T13:43:06.594Z</time></trkpt><trkpt lat="40.1113106" lon="9.2585503"><ele>982.0</ele><time>2026-04-22T13:43:29.599Z</time></trkpt><trkpt lat="40.1138895" lon="9.2574572"><ele>982.0</ele><time>2026-04-22T13:43:57.613Z</time></trkpt></trkseg></trk></gpx>